<?xml version="1.0" encoding="UTF-8" standalone="no" ?>
<gpx xmlns="http://www.topografix.com/GPX/1/1" xmlns:xsi="http://www.w3.org/2001/XMLSchema-instance" xsi:schemaLocation="http://www.topografix.com/GPX/1/1 http://www.topografix.com/GPX/1/1/gpx.xsd" version="1.1" creator="VisuGPX - https://www.visugpx.com">
  <metadata>
    <name>Batier 2</name>
  </metadata>
  <trk>
    <name><![CDATA[Move]]></name>
    <trkseg>
      <trkpt lat="47.22561" lon="4.95113">
        <ele>342.5</ele>
        <time>2020-05-21T07:55:49.000Z</time>
      </trkpt>
      <trkpt lat="47.2256" lon="4.95113">
        <ele>342.6</ele>
        <time>2020-05-21T07:55:51.000Z</time>
      </trkpt>
      <trkpt lat="47.22561" lon="4.95109">
        <ele>331</ele>
        <time>2020-05-21T07:56:00.000Z</time>
      </trkpt>
      <trkpt lat="47.22561" lon="4.95106">
        <ele>331</ele>
        <time>2020-05-21T07:56:03.000Z</time>
      </trkpt>
      <trkpt lat="47.22562" lon="4.95103">
        <ele>331</ele>
        <time>2020-05-21T07:56:10.000Z</time>
      </trkpt>
      <trkpt lat="47.22564" lon="4.95091">
        <ele>331.70600064</ele>
        <time>2020-05-21T07:56:25.000Z</time>
      </trkpt>
      <trkpt lat="47.22567" lon="4.95077">
        <ele>332.90600064</ele>
        <time>2020-05-21T07:56:37.000Z</time>
      </trkpt>
      <trkpt lat="47.22567" lon="4.95063">
        <ele>333</ele>
        <time>2020-05-21T07:56:46.000Z</time>
      </trkpt>
      <trkpt lat="47.22561" lon="4.95052">
        <ele>333</ele>
        <time>2020-05-21T07:56:52.000Z</time>
      </trkpt>
      <trkpt lat="47.22558" lon="4.95048">
        <ele>333</ele>
        <time>2020-05-21T07:56:54.000Z</time>
      </trkpt>
      <trkpt lat="47.22557" lon="4.95046">
        <ele>333</ele>
        <time>2020-05-21T07:56:56.000Z</time>
      </trkpt>
      <trkpt lat="47.22557" lon="4.95043">
        <ele>333</ele>
        <time>2020-05-21T07:56:58.000Z</time>
      </trkpt>
      <trkpt lat="47.22555" lon="4.9504">
        <ele>333</ele>
        <time>2020-05-21T07:57:00.000Z</time>
      </trkpt>
      <trkpt lat="47.22554" lon="4.95038">
        <ele>333</ele>
        <time>2020-05-21T07:57:02.000Z</time>
      </trkpt>
      <trkpt lat="47.22554" lon="4.95033">
        <ele>333</ele>
        <time>2020-05-21T07:57:05.000Z</time>
      </trkpt>
      <trkpt lat="47.22554" lon="4.9503">
        <ele>333</ele>
        <time>2020-05-21T07:57:07.000Z</time>
      </trkpt>
      <trkpt lat="47.22553" lon="4.95026">
        <ele>333.10600064</ele>
        <time>2020-05-21T07:57:09.000Z</time>
      </trkpt>
      <trkpt lat="47.22552" lon="4.95022">
        <ele>333.30600064</ele>
        <time>2020-05-21T07:57:11.000Z</time>
      </trkpt>
      <trkpt lat="47.2255" lon="4.95018">
        <ele>333.50600064</ele>
        <time>2020-05-21T07:57:13.000Z</time>
      </trkpt>
      <trkpt lat="47.2255" lon="4.95014">
        <ele>333.70600064</ele>
        <time>2020-05-21T07:57:15.000Z</time>
      </trkpt>
      <trkpt lat="47.22546" lon="4.95">
        <ele>334.50600064</ele>
        <time>2020-05-21T07:57:23.000Z</time>
      </trkpt>
      <trkpt lat="47.22544" lon="4.94995">
        <ele>334.80600064</ele>
        <time>2020-05-21T07:57:26.000Z</time>
      </trkpt>
      <trkpt lat="47.22543" lon="4.94991">
        <ele>335</ele>
        <time>2020-05-21T07:57:28.000Z</time>
      </trkpt>
      <trkpt lat="47.22543" lon="4.94987">
        <ele>335</ele>
        <time>2020-05-21T07:57:30.000Z</time>
      </trkpt>
      <trkpt lat="47.22543" lon="4.94983">
        <ele>335</ele>
        <time>2020-05-21T07:57:32.000Z</time>
      </trkpt>
      <trkpt lat="47.22543" lon="4.94981">
        <ele>335</ele>
        <time>2020-05-21T07:57:34.000Z</time>
      </trkpt>
      <trkpt lat="47.22542" lon="4.94977">
        <ele>335</ele>
        <time>2020-05-21T07:57:37.000Z</time>
      </trkpt>
      <trkpt lat="47.22541" lon="4.94974">
        <ele>335.21200128</ele>
        <time>2020-05-21T07:57:39.000Z</time>
      </trkpt>
      <trkpt lat="47.22541" lon="4.9497">
        <ele>335.61200128</ele>
        <time>2020-05-21T07:57:41.000Z</time>
      </trkpt>
      <trkpt lat="47.2254" lon="4.94969">
        <ele>335.81200128</ele>
        <time>2020-05-21T07:57:42.000Z</time>
      </trkpt>
      <trkpt lat="47.2254" lon="4.94965">
        <ele>336.21200128</ele>
        <time>2020-05-21T07:57:44.000Z</time>
      </trkpt>
      <trkpt lat="47.22538" lon="4.94961">
        <ele>336.61200128</ele>
        <time>2020-05-21T07:57:46.000Z</time>
      </trkpt>
      <trkpt lat="47.22537" lon="4.94959">
        <ele>337</ele>
        <time>2020-05-21T07:57:48.000Z</time>
      </trkpt>
      <trkpt lat="47.22536" lon="4.94956">
        <ele>337</ele>
        <time>2020-05-21T07:57:50.000Z</time>
      </trkpt>
      <trkpt lat="47.22536" lon="4.94953">
        <ele>337</ele>
        <time>2020-05-21T07:57:52.000Z</time>
      </trkpt>
      <trkpt lat="47.22533" lon="4.9494">
        <ele>337.18488860272</ele>
        <time>2020-05-21T07:58:00.000Z</time>
      </trkpt>
      <trkpt lat="47.22532" lon="4.94936">
        <ele>337.39020650053</ele>
        <time>2020-05-21T07:58:02.000Z</time>
      </trkpt>
      <trkpt lat="47.22532" lon="4.94932">
        <ele>337.59552439834</ele>
        <time>2020-05-21T07:58:04.000Z</time>
      </trkpt>
      <trkpt lat="47.22531" lon="4.94929">
        <ele>337.80084229614</ele>
        <time>2020-05-21T07:58:06.000Z</time>
      </trkpt>
      <trkpt lat="47.22531" lon="4.94925">
        <ele>338.00600064</ele>
        <time>2020-05-21T07:58:08.000Z</time>
      </trkpt>
      <trkpt lat="47.22532" lon="4.94921">
        <ele>338.20600064</ele>
        <time>2020-05-21T07:58:10.000Z</time>
      </trkpt>
      <trkpt lat="47.22532" lon="4.94917">
        <ele>338.40600064</ele>
        <time>2020-05-21T07:58:12.000Z</time>
      </trkpt>
      <trkpt lat="47.22529" lon="4.94906">
        <ele>339.10578899431</ele>
        <time>2020-05-21T07:58:19.000Z</time>
      </trkpt>
      <trkpt lat="47.22524" lon="4.94894">
        <ele>339.70459100705</ele>
        <time>2020-05-21T07:58:25.000Z</time>
      </trkpt>
      <trkpt lat="47.22522" lon="4.94881">
        <ele>340.60921882756</ele>
        <time>2020-05-21T07:58:31.000Z</time>
      </trkpt>
      <trkpt lat="47.22524" lon="4.94868">
        <ele>342.10600064</ele>
        <time>2020-05-21T07:58:39.000Z</time>
      </trkpt>
      <trkpt lat="47.22525" lon="4.94854">
        <ele>342.90600064</ele>
        <time>2020-05-21T07:58:47.000Z</time>
      </trkpt>
      <trkpt lat="47.2252" lon="4.94843">
        <ele>343.50600064</ele>
        <time>2020-05-21T07:58:53.000Z</time>
      </trkpt>
      <trkpt lat="47.22516" lon="4.9483">
        <ele>344.10505504375</ele>
        <time>2020-05-21T07:58:59.000Z</time>
      </trkpt>
      <trkpt lat="47.22512" lon="4.94817">
        <ele>345.38921537255</ele>
        <time>2020-05-21T07:59:12.000Z</time>
      </trkpt>
      <trkpt lat="47.22506" lon="4.94806">
        <ele>345.87941145098</ele>
        <time>2020-05-21T07:59:17.000Z</time>
      </trkpt>
      <trkpt lat="47.22509" lon="4.94793">
        <ele>346.69721972125</ele>
        <time>2020-05-21T07:59:25.000Z</time>
      </trkpt>
      <trkpt lat="47.22512" lon="4.9478">
        <ele>347.30600064</ele>
        <time>2020-05-21T07:59:31.000Z</time>
      </trkpt>
      <trkpt lat="47.22503" lon="4.94782">
        <ele>348.21200128</ele>
        <time>2020-05-21T07:59:39.000Z</time>
      </trkpt>
      <trkpt lat="47.2251" lon="4.94771">
        <ele>349.89399936</ele>
        <time>2020-05-21T07:59:49.000Z</time>
      </trkpt>
      <trkpt lat="47.22512" lon="4.94758">
        <ele>349.49399936</ele>
        <time>2020-05-21T07:59:53.000Z</time>
      </trkpt>
      <trkpt lat="47.22508" lon="4.94746">
        <ele>349.40600064</ele>
        <time>2020-05-21T08:00:02.000Z</time>
      </trkpt>
      <trkpt lat="47.22504" lon="4.94733">
        <ele>350.10600064</ele>
        <time>2020-05-21T08:00:09.000Z</time>
      </trkpt>
      <trkpt lat="47.22498" lon="4.94722">
        <ele>351.91800192</ele>
        <time>2020-05-21T08:00:21.000Z</time>
      </trkpt>
      <trkpt lat="47.22491" lon="4.94714">
        <ele>354.50600064</ele>
        <time>2020-05-21T08:00:33.000Z</time>
      </trkpt>
      <trkpt lat="47.22483" lon="4.94709">
        <ele>357.01200128</ele>
        <time>2020-05-21T08:00:53.000Z</time>
      </trkpt>
      <trkpt lat="47.22475" lon="4.94702">
        <ele>359.62400256</ele>
        <time>2020-05-21T08:01:02.000Z</time>
      </trkpt>
      <trkpt lat="47.22474" lon="4.947">
        <ele>360.82400256</ele>
        <time>2020-05-21T08:01:05.000Z</time>
      </trkpt>
      <trkpt lat="47.22472" lon="4.94696">
        <ele>362.61800192</ele>
        <time>2020-05-21T08:01:10.000Z</time>
      </trkpt>
      <trkpt lat="47.22471" lon="4.94696">
        <ele>363.21800192</ele>
        <time>2020-05-21T08:01:12.000Z</time>
      </trkpt>
      <trkpt lat="47.22469" lon="4.94687">
        <ele>366.01200128</ele>
        <time>2020-05-21T08:01:33.000Z</time>
      </trkpt>
      <trkpt lat="47.22467" lon="4.94686">
        <ele>366.81200128</ele>
        <time>2020-05-21T08:01:37.000Z</time>
      </trkpt>
      <trkpt lat="47.22466" lon="4.94685">
        <ele>367.40600064</ele>
        <time>2020-05-21T08:01:42.000Z</time>
      </trkpt>
      <trkpt lat="47.22467" lon="4.94682">
        <ele>368.41200128</ele>
        <time>2020-05-21T08:01:50.000Z</time>
      </trkpt>
      <trkpt lat="47.22458" lon="4.94677">
        <ele>371.21200128</ele>
        <time>2020-05-21T08:02:09.000Z</time>
      </trkpt>
      <trkpt lat="47.2246" lon="4.94677">
        <ele>371.81200128</ele>
        <time>2020-05-21T08:02:12.000Z</time>
      </trkpt>
      <trkpt lat="47.22459" lon="4.94678">
        <ele>373.39455807699</ele>
        <time>2020-05-21T08:02:22.000Z</time>
      </trkpt>
      <trkpt lat="47.22459" lon="4.94676">
        <ele>375.78269902306</ele>
        <time>2020-05-21T08:02:34.000Z</time>
      </trkpt>
      <trkpt lat="47.22458" lon="4.94675">
        <ele>377.81200128</ele>
        <time>2020-05-21T08:02:42.000Z</time>
      </trkpt>
      <trkpt lat="47.22456" lon="4.94673">
        <ele>379.40600064</ele>
        <time>2020-05-21T08:02:52.000Z</time>
      </trkpt>
      <trkpt lat="47.22455" lon="4.9467">
        <ele>380.10600064</ele>
        <time>2020-05-21T08:02:59.000Z</time>
      </trkpt>
      <trkpt lat="47.22454" lon="4.94668">
        <ele>380.40600064</ele>
        <time>2020-05-21T08:03:02.000Z</time>
      </trkpt>
      <trkpt lat="47.22452" lon="4.94667">
        <ele>381.61200128</ele>
        <time>2020-05-21T08:03:11.000Z</time>
      </trkpt>
      <trkpt lat="47.22451" lon="4.94667">
        <ele>381.81200128</ele>
        <time>2020-05-21T08:03:12.000Z</time>
      </trkpt>
      <trkpt lat="47.22449" lon="4.94667">
        <ele>382.21200128</ele>
        <time>2020-05-21T08:03:14.000Z</time>
      </trkpt>
      <trkpt lat="47.22448" lon="4.94665">
        <ele>382.81200128</ele>
        <time>2020-05-21T08:03:17.000Z</time>
      </trkpt>
      <trkpt lat="47.22447" lon="4.94664">
        <ele>383.80600064</ele>
        <time>2020-05-21T08:03:26.000Z</time>
      </trkpt>
      <trkpt lat="47.22445" lon="4.94665">
        <ele>384.21200128</ele>
        <time>2020-05-21T08:03:29.000Z</time>
      </trkpt>
      <trkpt lat="47.22444" lon="4.94666">
        <ele>384.81200128</ele>
        <time>2020-05-21T08:03:32.000Z</time>
      </trkpt>
      <trkpt lat="47.22444" lon="4.94668">
        <ele>386.39494176505</ele>
        <time>2020-05-21T08:03:42.000Z</time>
      </trkpt>
      <trkpt lat="47.22443" lon="4.94664">
        <ele>386.97859862587</ele>
        <time>2020-05-21T08:03:48.000Z</time>
      </trkpt>
      <trkpt lat="47.22445" lon="4.94662">
        <ele>387.77777748514</ele>
        <time>2020-05-21T08:03:52.000Z</time>
      </trkpt>
      <trkpt lat="47.22444" lon="4.94659">
        <ele>388.60082383648</ele>
        <time>2020-05-21T08:03:56.000Z</time>
      </trkpt>
      <trkpt lat="47.22442" lon="4.94659">
        <ele>389.41200128</ele>
        <time>2020-05-21T08:04:00.000Z</time>
      </trkpt>
      <trkpt lat="47.2244" lon="4.94657">
        <ele>389.81200128</ele>
        <time>2020-05-21T08:04:02.000Z</time>
      </trkpt>
      <trkpt lat="47.22438" lon="4.94655">
        <ele>391.20600064</ele>
        <time>2020-05-21T08:04:10.000Z</time>
      </trkpt>
      <trkpt lat="47.22436" lon="4.94655">
        <ele>391.50600064</ele>
        <time>2020-05-21T08:04:13.000Z</time>
      </trkpt>
      <trkpt lat="47.22437" lon="4.94653">
        <ele>392.38447030303</ele>
        <time>2020-05-21T08:04:22.000Z</time>
      </trkpt>
      <trkpt lat="47.22435" lon="4.94652">
        <ele>392.66856121212</ele>
        <time>2020-05-21T08:04:25.000Z</time>
      </trkpt>
      <trkpt lat="47.22433" lon="4.94651">
        <ele>393.10593355932</ele>
        <time>2020-05-21T08:04:29.000Z</time>
      </trkpt>
      <trkpt lat="47.22431" lon="4.94649">
        <ele>393.74152677966</ele>
        <time>2020-05-21T08:04:32.000Z</time>
      </trkpt>
      <trkpt lat="47.2243" lon="4.94648">
        <ele>395.41200128</ele>
        <time>2020-05-21T08:04:40.000Z</time>
      </trkpt>
      <trkpt lat="47.22429" lon="4.94648">
        <ele>395.81200128</ele>
        <time>2020-05-21T08:04:42.000Z</time>
      </trkpt>
      <trkpt lat="47.22427" lon="4.94646">
        <ele>397.70600064</ele>
        <time>2020-05-21T08:04:55.000Z</time>
      </trkpt>
      <trkpt lat="47.22426" lon="4.94643">
        <ele>398.40600064</ele>
        <time>2020-05-21T08:05:02.000Z</time>
      </trkpt>
      <trkpt lat="47.22424" lon="4.94642">
        <ele>399.61200128</ele>
        <time>2020-05-21T08:05:11.000Z</time>
      </trkpt>
      <trkpt lat="47.22423" lon="4.94641">
        <ele>400.01200128</ele>
        <time>2020-05-21T08:05:13.000Z</time>
      </trkpt>
      <trkpt lat="47.22424" lon="4.94638">
        <ele>401.02400256</ele>
        <time>2020-05-21T08:05:18.000Z</time>
      </trkpt>
      <trkpt lat="47.22422" lon="4.94637">
        <ele>402.62400256</ele>
        <time>2020-05-21T08:05:22.000Z</time>
      </trkpt>
      <trkpt lat="47.22421" lon="4.94636">
        <ele>405</ele>
        <time>2020-05-21T08:05:29.000Z</time>
      </trkpt>
      <trkpt lat="47.2242" lon="4.94633">
        <ele>405.28527286701</ele>
        <time>2020-05-21T08:05:41.000Z</time>
      </trkpt>
      <trkpt lat="47.22418" lon="4.94632">
        <ele>406.21200128</ele>
        <time>2020-05-21T08:05:49.000Z</time>
      </trkpt>
      <trkpt lat="47.22417" lon="4.94632">
        <ele>406.81200128</ele>
        <time>2020-05-21T08:05:52.000Z</time>
      </trkpt>
      <trkpt lat="47.22416" lon="4.94631">
        <ele>407.81200128</ele>
        <time>2020-05-21T08:05:57.000Z</time>
      </trkpt>
      <trkpt lat="47.22416" lon="4.94631">
        <ele>409.21800192</ele>
        <time>2020-05-21T08:06:02.000Z</time>
      </trkpt>
      <trkpt lat="47.22414" lon="4.9463">
        <ele>411</ele>
        <time>2020-05-21T08:06:33.000Z</time>
      </trkpt>
      <trkpt lat="47.22412" lon="4.94628">
        <ele>411</ele>
        <time>2020-05-21T08:06:36.000Z</time>
      </trkpt>
      <trkpt lat="47.22411" lon="4.94628">
        <ele>411.40600064</ele>
        <time>2020-05-21T08:06:42.000Z</time>
      </trkpt>
      <trkpt lat="47.22409" lon="4.94626">
        <ele>412</ele>
        <time>2020-05-21T08:06:52.000Z</time>
      </trkpt>
      <trkpt lat="47.22408" lon="4.94625">
        <ele>412</ele>
        <time>2020-05-21T08:06:56.000Z</time>
      </trkpt>
      <trkpt lat="47.22406" lon="4.94623">
        <ele>412.30600064</ele>
        <time>2020-05-21T08:07:01.000Z</time>
      </trkpt>
      <trkpt lat="47.22405" lon="4.9462">
        <ele>412.60600064</ele>
        <time>2020-05-21T08:07:04.000Z</time>
      </trkpt>
      <trkpt lat="47.22403" lon="4.94618">
        <ele>412.90600064</ele>
        <time>2020-05-21T08:07:07.000Z</time>
      </trkpt>
      <trkpt lat="47.22402" lon="4.94616">
        <ele>413.20600064</ele>
        <time>2020-05-21T08:07:10.000Z</time>
      </trkpt>
      <trkpt lat="47.22401" lon="4.94614">
        <ele>413.50600064</ele>
        <time>2020-05-21T08:07:13.000Z</time>
      </trkpt>
      <trkpt lat="47.22399" lon="4.94612">
        <ele>413.90600064</ele>
        <time>2020-05-21T08:07:17.000Z</time>
      </trkpt>
      <trkpt lat="47.22398" lon="4.9461">
        <ele>414.30600064</ele>
        <time>2020-05-21T08:07:21.000Z</time>
      </trkpt>
      <trkpt lat="47.22397" lon="4.94608">
        <ele>415.00600064</ele>
        <time>2020-05-21T08:07:28.000Z</time>
      </trkpt>
      <trkpt lat="47.22395" lon="4.94606">
        <ele>415.40600064</ele>
        <time>2020-05-21T08:07:32.000Z</time>
      </trkpt>
      <trkpt lat="47.22393" lon="4.94603">
        <ele>415.70600064</ele>
        <time>2020-05-21T08:07:35.000Z</time>
      </trkpt>
      <trkpt lat="47.22392" lon="4.94601">
        <ele>415.90600064</ele>
        <time>2020-05-21T08:07:37.000Z</time>
      </trkpt>
      <trkpt lat="47.2239" lon="4.94598">
        <ele>416.20600064</ele>
        <time>2020-05-21T08:07:40.000Z</time>
      </trkpt>
      <trkpt lat="47.22388" lon="4.94597">
        <ele>416.40600064</ele>
        <time>2020-05-21T08:07:42.000Z</time>
      </trkpt>
      <trkpt lat="47.22386" lon="4.94595">
        <ele>416.70600064</ele>
        <time>2020-05-21T08:07:45.000Z</time>
      </trkpt>
      <trkpt lat="47.22385" lon="4.94593">
        <ele>416.90600064</ele>
        <time>2020-05-21T08:07:47.000Z</time>
      </trkpt>
      <trkpt lat="47.22383" lon="4.94591">
        <ele>417</ele>
        <time>2020-05-21T08:07:49.000Z</time>
      </trkpt>
      <trkpt lat="47.22382" lon="4.94588">
        <ele>417</ele>
        <time>2020-05-21T08:07:52.000Z</time>
      </trkpt>
      <trkpt lat="47.2238" lon="4.94586">
        <ele>417</ele>
        <time>2020-05-21T08:07:54.000Z</time>
      </trkpt>
      <trkpt lat="47.22378" lon="4.94583">
        <ele>417</ele>
        <time>2020-05-21T08:07:57.000Z</time>
      </trkpt>
      <trkpt lat="47.22376" lon="4.94581">
        <ele>417</ele>
        <time>2020-05-21T08:07:59.000Z</time>
      </trkpt>
      <trkpt lat="47.22374" lon="4.94579">
        <ele>417</ele>
        <time>2020-05-21T08:08:02.000Z</time>
      </trkpt>
      <trkpt lat="47.22372" lon="4.94577">
        <ele>417</ele>
        <time>2020-05-21T08:08:04.000Z</time>
      </trkpt>
      <trkpt lat="47.22371" lon="4.94574">
        <ele>417</ele>
        <time>2020-05-21T08:08:06.000Z</time>
      </trkpt>
      <trkpt lat="47.22369" lon="4.94572">
        <ele>417</ele>
        <time>2020-05-21T08:08:08.000Z</time>
      </trkpt>
      <trkpt lat="47.22368" lon="4.94571">
        <ele>417</ele>
        <time>2020-05-21T08:08:10.000Z</time>
      </trkpt>
      <trkpt lat="47.22366" lon="4.94569">
        <ele>417</ele>
        <time>2020-05-21T08:08:12.000Z</time>
      </trkpt>
      <trkpt lat="47.22364" lon="4.94567">
        <ele>417</ele>
        <time>2020-05-21T08:08:14.000Z</time>
      </trkpt>
      <trkpt lat="47.22363" lon="4.94565">
        <ele>417</ele>
        <time>2020-05-21T08:08:16.000Z</time>
      </trkpt>
      <trkpt lat="47.22361" lon="4.94563">
        <ele>417.01200128</ele>
        <time>2020-05-21T08:08:18.000Z</time>
      </trkpt>
      <trkpt lat="47.22359" lon="4.94561">
        <ele>417.41200128</ele>
        <time>2020-05-21T08:08:20.000Z</time>
      </trkpt>
      <trkpt lat="47.22358" lon="4.94559">
        <ele>417.81200128</ele>
        <time>2020-05-21T08:08:22.000Z</time>
      </trkpt>
      <trkpt lat="47.22357" lon="4.94557">
        <ele>418.41200128</ele>
        <time>2020-05-21T08:08:25.000Z</time>
      </trkpt>
      <trkpt lat="47.22355" lon="4.94556">
        <ele>418.81200128</ele>
        <time>2020-05-21T08:08:27.000Z</time>
      </trkpt>
      <trkpt lat="47.22353" lon="4.94553">
        <ele>419</ele>
        <time>2020-05-21T08:08:30.000Z</time>
      </trkpt>
      <trkpt lat="47.22351" lon="4.9455">
        <ele>419</ele>
        <time>2020-05-21T08:08:32.000Z</time>
      </trkpt>
      <trkpt lat="47.22349" lon="4.94548">
        <ele>419</ele>
        <time>2020-05-21T08:08:34.000Z</time>
      </trkpt>
      <trkpt lat="47.22348" lon="4.94546">
        <ele>419</ele>
        <time>2020-05-21T08:08:36.000Z</time>
      </trkpt>
      <trkpt lat="47.22346" lon="4.94544">
        <ele>419.00583152031</ele>
        <time>2020-05-21T08:08:38.000Z</time>
      </trkpt>
      <trkpt lat="47.22344" lon="4.94542">
        <ele>419.20019479865</ele>
        <time>2020-05-21T08:08:40.000Z</time>
      </trkpt>
      <trkpt lat="47.22342" lon="4.9454">
        <ele>419.39455807699</ele>
        <time>2020-05-21T08:08:42.000Z</time>
      </trkpt>
      <trkpt lat="47.22341" lon="4.94537">
        <ele>419.58892135533</ele>
        <time>2020-05-21T08:08:44.000Z</time>
      </trkpt>
      <trkpt lat="47.22339" lon="4.94534">
        <ele>419.78328463367</ele>
        <time>2020-05-21T08:08:46.000Z</time>
      </trkpt>
      <trkpt lat="47.22337" lon="4.94531">
        <ele>419.97764791201</ele>
        <time>2020-05-21T08:08:48.000Z</time>
      </trkpt>
      <trkpt lat="47.22335" lon="4.94528">
        <ele>420</ele>
        <time>2020-05-21T08:08:50.000Z</time>
      </trkpt>
      <trkpt lat="47.22333" lon="4.94526">
        <ele>420</ele>
        <time>2020-05-21T08:08:52.000Z</time>
      </trkpt>
      <trkpt lat="47.22332" lon="4.94524">
        <ele>420</ele>
        <time>2020-05-21T08:08:54.000Z</time>
      </trkpt>
      <trkpt lat="47.2233" lon="4.94521">
        <ele>420</ele>
        <time>2020-05-21T08:08:56.000Z</time>
      </trkpt>
      <trkpt lat="47.22328" lon="4.94519">
        <ele>420</ele>
        <time>2020-05-21T08:08:59.000Z</time>
      </trkpt>
      <trkpt lat="47.22326" lon="4.94517">
        <ele>420</ele>
        <time>2020-05-21T08:09:01.000Z</time>
      </trkpt>
      <trkpt lat="47.22325" lon="4.94514">
        <ele>420</ele>
        <time>2020-05-21T08:09:03.000Z</time>
      </trkpt>
      <trkpt lat="47.22323" lon="4.94512">
        <ele>420</ele>
        <time>2020-05-21T08:09:05.000Z</time>
      </trkpt>
      <trkpt lat="47.22321" lon="4.94509">
        <ele>420</ele>
        <time>2020-05-21T08:09:08.000Z</time>
      </trkpt>
      <trkpt lat="47.22319" lon="4.94508">
        <ele>420</ele>
        <time>2020-05-21T08:09:10.000Z</time>
      </trkpt>
      <trkpt lat="47.22317" lon="4.94506">
        <ele>420</ele>
        <time>2020-05-21T08:09:12.000Z</time>
      </trkpt>
      <trkpt lat="47.22316" lon="4.94504">
        <ele>420</ele>
        <time>2020-05-21T08:09:14.000Z</time>
      </trkpt>
      <trkpt lat="47.22314" lon="4.94502">
        <ele>420</ele>
        <time>2020-05-21T08:09:16.000Z</time>
      </trkpt>
      <trkpt lat="47.22313" lon="4.945">
        <ele>420</ele>
        <time>2020-05-21T08:09:18.000Z</time>
      </trkpt>
      <trkpt lat="47.22311" lon="4.94498">
        <ele>420</ele>
        <time>2020-05-21T08:09:20.000Z</time>
      </trkpt>
      <trkpt lat="47.22309" lon="4.94496">
        <ele>420</ele>
        <time>2020-05-21T08:09:22.000Z</time>
      </trkpt>
      <trkpt lat="47.22308" lon="4.94494">
        <ele>420</ele>
        <time>2020-05-21T08:09:24.000Z</time>
      </trkpt>
      <trkpt lat="47.22306" lon="4.94492">
        <ele>420</ele>
        <time>2020-05-21T08:09:26.000Z</time>
      </trkpt>
      <trkpt lat="47.22305" lon="4.9449">
        <ele>420</ele>
        <time>2020-05-21T08:09:28.000Z</time>
      </trkpt>
      <trkpt lat="47.22303" lon="4.94488">
        <ele>420</ele>
        <time>2020-05-21T08:09:30.000Z</time>
      </trkpt>
      <trkpt lat="47.22301" lon="4.94485">
        <ele>420</ele>
        <time>2020-05-21T08:09:32.000Z</time>
      </trkpt>
      <trkpt lat="47.22299" lon="4.94483">
        <ele>420</ele>
        <time>2020-05-21T08:09:34.000Z</time>
      </trkpt>
      <trkpt lat="47.22297" lon="4.9448">
        <ele>420</ele>
        <time>2020-05-21T08:09:36.000Z</time>
      </trkpt>
      <trkpt lat="47.22296" lon="4.94478">
        <ele>420</ele>
        <time>2020-05-21T08:09:38.000Z</time>
      </trkpt>
      <trkpt lat="47.22295" lon="4.94476">
        <ele>420</ele>
        <time>2020-05-21T08:09:40.000Z</time>
      </trkpt>
      <trkpt lat="47.22293" lon="4.94475">
        <ele>420</ele>
        <time>2020-05-21T08:09:42.000Z</time>
      </trkpt>
      <trkpt lat="47.22291" lon="4.94473">
        <ele>420</ele>
        <time>2020-05-21T08:09:44.000Z</time>
      </trkpt>
      <trkpt lat="47.2229" lon="4.94471">
        <ele>420</ele>
        <time>2020-05-21T08:09:46.000Z</time>
      </trkpt>
      <trkpt lat="47.22288" lon="4.94469">
        <ele>420</ele>
        <time>2020-05-21T08:09:48.000Z</time>
      </trkpt>
      <trkpt lat="47.22286" lon="4.94465">
        <ele>420</ele>
        <time>2020-05-21T08:09:50.000Z</time>
      </trkpt>
      <trkpt lat="47.22285" lon="4.94462">
        <ele>420</ele>
        <time>2020-05-21T08:09:52.000Z</time>
      </trkpt>
      <trkpt lat="47.22283" lon="4.9446">
        <ele>420</ele>
        <time>2020-05-21T08:09:54.000Z</time>
      </trkpt>
      <trkpt lat="47.22282" lon="4.94457">
        <ele>420</ele>
        <time>2020-05-21T08:09:56.000Z</time>
      </trkpt>
      <trkpt lat="47.2228" lon="4.94455">
        <ele>419.99404107439</ele>
        <time>2020-05-21T08:09:58.000Z</time>
      </trkpt>
      <trkpt lat="47.22278" lon="4.94453">
        <ele>419.79543140562</ele>
        <time>2020-05-21T08:10:00.000Z</time>
      </trkpt>
      <trkpt lat="47.22276" lon="4.94451">
        <ele>419.59682173686</ele>
        <time>2020-05-21T08:10:02.000Z</time>
      </trkpt>
      <trkpt lat="47.22275" lon="4.94449">
        <ele>419.3982120681</ele>
        <time>2020-05-21T08:10:04.000Z</time>
      </trkpt>
      <trkpt lat="47.22273" lon="4.94446">
        <ele>419.19960239933</ele>
        <time>2020-05-21T08:10:06.000Z</time>
      </trkpt>
      <trkpt lat="47.22271" lon="4.94444">
        <ele>419.00099273057</ele>
        <time>2020-05-21T08:10:08.000Z</time>
      </trkpt>
      <trkpt lat="47.2227" lon="4.94443">
        <ele>419</ele>
        <time>2020-05-21T08:10:10.000Z</time>
      </trkpt>
      <trkpt lat="47.22268" lon="4.94441">
        <ele>419</ele>
        <time>2020-05-21T08:10:12.000Z</time>
      </trkpt>
      <trkpt lat="47.22267" lon="4.94439">
        <ele>419</ele>
        <time>2020-05-21T08:10:14.000Z</time>
      </trkpt>
      <trkpt lat="47.22265" lon="4.94436">
        <ele>419</ele>
        <time>2020-05-21T08:10:17.000Z</time>
      </trkpt>
      <trkpt lat="47.22263" lon="4.94434">
        <ele>418.89399936</ele>
        <time>2020-05-21T08:10:19.000Z</time>
      </trkpt>
      <trkpt lat="47.22262" lon="4.94433">
        <ele>418.69399936</ele>
        <time>2020-05-21T08:10:21.000Z</time>
      </trkpt>
      <trkpt lat="47.2226" lon="4.94432">
        <ele>418.49399936</ele>
        <time>2020-05-21T08:10:23.000Z</time>
      </trkpt>
      <trkpt lat="47.22259" lon="4.94429">
        <ele>418.29399936</ele>
        <time>2020-05-21T08:10:25.000Z</time>
      </trkpt>
      <trkpt lat="47.22257" lon="4.94428">
        <ele>418.09399936</ele>
        <time>2020-05-21T08:10:27.000Z</time>
      </trkpt>
      <trkpt lat="47.22256" lon="4.94425">
        <ele>417.79399936</ele>
        <time>2020-05-21T08:10:30.000Z</time>
      </trkpt>
      <trkpt lat="47.22255" lon="4.94423">
        <ele>417.59399936</ele>
        <time>2020-05-21T08:10:32.000Z</time>
      </trkpt>
      <trkpt lat="47.22253" lon="4.94421">
        <ele>417.39399936</ele>
        <time>2020-05-21T08:10:34.000Z</time>
      </trkpt>
      <trkpt lat="47.22252" lon="4.94419">
        <ele>417.19399936</ele>
        <time>2020-05-21T08:10:36.000Z</time>
      </trkpt>
      <trkpt lat="47.2225" lon="4.94417">
        <ele>416.99399936</ele>
        <time>2020-05-21T08:10:38.000Z</time>
      </trkpt>
      <trkpt lat="47.22248" lon="4.94415">
        <ele>416.69399936</ele>
        <time>2020-05-21T08:10:41.000Z</time>
      </trkpt>
      <trkpt lat="47.22247" lon="4.94413">
        <ele>416.39399936</ele>
        <time>2020-05-21T08:10:44.000Z</time>
      </trkpt>
      <trkpt lat="47.22245" lon="4.94411">
        <ele>416.19399936</ele>
        <time>2020-05-21T08:10:46.000Z</time>
      </trkpt>
      <trkpt lat="47.22244" lon="4.94409">
        <ele>416</ele>
        <time>2020-05-21T08:10:49.000Z</time>
      </trkpt>
      <trkpt lat="47.22243" lon="4.94407">
        <ele>415.58799872</ele>
        <time>2020-05-21T08:11:00.000Z</time>
      </trkpt>
      <trkpt lat="47.22242" lon="4.94404">
        <ele>414.98799872</ele>
        <time>2020-05-21T08:11:03.000Z</time>
      </trkpt>
      <trkpt lat="47.2224" lon="4.94402">
        <ele>414.38799872</ele>
        <time>2020-05-21T08:11:06.000Z</time>
      </trkpt>
      <trkpt lat="47.22238" lon="4.944">
        <ele>413.89399936</ele>
        <time>2020-05-21T08:11:09.000Z</time>
      </trkpt>
      <trkpt lat="47.22236" lon="4.94398">
        <ele>413.59399936</ele>
        <time>2020-05-21T08:11:12.000Z</time>
      </trkpt>
      <trkpt lat="47.22237" lon="4.94396">
        <ele>413.19399936</ele>
        <time>2020-05-21T08:11:16.000Z</time>
      </trkpt>
      <trkpt lat="47.22237" lon="4.94395">
        <ele>411</ele>
        <time>2020-05-21T08:11:32.000Z</time>
      </trkpt>
      <trkpt lat="47.22239" lon="4.94393">
        <ele>411</ele>
        <time>2020-05-21T08:11:35.000Z</time>
      </trkpt>
      <trkpt lat="47.2224" lon="4.9439">
        <ele>411.00600064</ele>
        <time>2020-05-21T08:11:38.000Z</time>
      </trkpt>
      <trkpt lat="47.22242" lon="4.94387">
        <ele>411.30600064</ele>
        <time>2020-05-21T08:11:41.000Z</time>
      </trkpt>
      <trkpt lat="47.22243" lon="4.94385">
        <ele>411.50600064</ele>
        <time>2020-05-21T08:11:43.000Z</time>
      </trkpt>
      <trkpt lat="47.22244" lon="4.94382">
        <ele>411.70600064</ele>
        <time>2020-05-21T08:11:45.000Z</time>
      </trkpt>
      <trkpt lat="47.22246" lon="4.9438">
        <ele>412.01167438235</ele>
        <time>2020-05-21T08:11:48.000Z</time>
      </trkpt>
      <trkpt lat="47.22247" lon="4.94377">
        <ele>412.59533124317</ele>
        <time>2020-05-21T08:11:51.000Z</time>
      </trkpt>
      <trkpt lat="47.22248" lon="4.94375">
        <ele>412.98443581704</ele>
        <time>2020-05-21T08:11:53.000Z</time>
      </trkpt>
      <trkpt lat="47.22249" lon="4.94372">
        <ele>413.56809267786</ele>
        <time>2020-05-21T08:11:56.000Z</time>
      </trkpt>
      <trkpt lat="47.22251" lon="4.94371">
        <ele>414.73250861894</ele>
        <time>2020-05-21T08:12:00.000Z</time>
      </trkpt>
      <trkpt lat="47.22251" lon="4.9437">
        <ele>415.96707814595</ele>
        <time>2020-05-21T08:12:03.000Z</time>
      </trkpt>
      <trkpt lat="47.22253" lon="4.94371">
        <ele>418.01200128</ele>
        <time>2020-05-21T08:12:08.000Z</time>
      </trkpt>
      <trkpt lat="47.22253" lon="4.94367">
        <ele>418.61200128</ele>
        <time>2020-05-21T08:12:11.000Z</time>
      </trkpt>
      <trkpt lat="47.22253" lon="4.94365">
        <ele>420</ele>
        <time>2020-05-21T08:12:18.000Z</time>
      </trkpt>
      <trkpt lat="47.22255" lon="4.94364">
        <ele>420</ele>
        <time>2020-05-21T08:12:33.000Z</time>
      </trkpt>
      <trkpt lat="47.22256" lon="4.94362">
        <ele>420</ele>
        <time>2020-05-21T08:12:37.000Z</time>
      </trkpt>
      <trkpt lat="47.22258" lon="4.94361">
        <ele>420.41200128</ele>
        <time>2020-05-21T08:12:50.000Z</time>
      </trkpt>
      <trkpt lat="47.22258" lon="4.94359">
        <ele>421.01200128</ele>
        <time>2020-05-21T08:12:53.000Z</time>
      </trkpt>
      <trkpt lat="47.2226" lon="4.94356">
        <ele>421.61200128</ele>
        <time>2020-05-21T08:12:56.000Z</time>
      </trkpt>
      <trkpt lat="47.22262" lon="4.94354">
        <ele>422.10600064</ele>
        <time>2020-05-21T08:12:59.000Z</time>
      </trkpt>
      <trkpt lat="47.22263" lon="4.94352">
        <ele>422.30600064</ele>
        <time>2020-05-21T08:13:01.000Z</time>
      </trkpt>
      <trkpt lat="47.22264" lon="4.9435">
        <ele>422.50600064</ele>
        <time>2020-05-21T08:13:03.000Z</time>
      </trkpt>
      <trkpt lat="47.22266" lon="4.94348">
        <ele>422.70600064</ele>
        <time>2020-05-21T08:13:05.000Z</time>
      </trkpt>
      <trkpt lat="47.22267" lon="4.94345">
        <ele>423.01200128</ele>
        <time>2020-05-21T08:13:08.000Z</time>
      </trkpt>
      <trkpt lat="47.22269" lon="4.94343">
        <ele>423.41200128</ele>
        <time>2020-05-21T08:13:10.000Z</time>
      </trkpt>
      <trkpt lat="47.2227" lon="4.9434">
        <ele>423.81200128</ele>
        <time>2020-05-21T08:13:12.000Z</time>
      </trkpt>
      <trkpt lat="47.2227" lon="4.94338">
        <ele>424.21200128</ele>
        <time>2020-05-21T08:13:14.000Z</time>
      </trkpt>
      <trkpt lat="47.22271" lon="4.94335">
        <ele>424.81200128</ele>
        <time>2020-05-21T08:13:17.000Z</time>
      </trkpt>
      <trkpt lat="47.22272" lon="4.94333">
        <ele>426.01200128</ele>
        <time>2020-05-21T08:13:23.000Z</time>
      </trkpt>
      <trkpt lat="47.2227" lon="4.94332">
        <ele>426.79399936</ele>
        <time>2020-05-21T08:13:30.000Z</time>
      </trkpt>
      <trkpt lat="47.22269" lon="4.94329">
        <ele>426.49399936</ele>
        <time>2020-05-21T08:13:33.000Z</time>
      </trkpt>
      <trkpt lat="47.22267" lon="4.94327">
        <ele>426.19399936</ele>
        <time>2020-05-21T08:13:36.000Z</time>
      </trkpt>
      <trkpt lat="47.22265" lon="4.94326">
        <ele>425.99399936</ele>
        <time>2020-05-21T08:13:38.000Z</time>
      </trkpt>
      <trkpt lat="47.22263" lon="4.94325">
        <ele>425.79399936</ele>
        <time>2020-05-21T08:13:40.000Z</time>
      </trkpt>
      <trkpt lat="47.22261" lon="4.94325">
        <ele>425.59399936</ele>
        <time>2020-05-21T08:13:42.000Z</time>
      </trkpt>
      <trkpt lat="47.22259" lon="4.94325">
        <ele>425.39399936</ele>
        <time>2020-05-21T08:13:44.000Z</time>
      </trkpt>
      <trkpt lat="47.22257" lon="4.94325">
        <ele>425.19399936</ele>
        <time>2020-05-21T08:13:46.000Z</time>
      </trkpt>
      <trkpt lat="47.22256" lon="4.94324">
        <ele>424.99401730998</ele>
        <time>2020-05-21T08:13:48.000Z</time>
      </trkpt>
      <trkpt lat="47.22254" lon="4.94322">
        <ele>424.79461557899</ele>
        <time>2020-05-21T08:13:50.000Z</time>
      </trkpt>
      <trkpt lat="47.22252" lon="4.9432">
        <ele>424.59521384799</ele>
        <time>2020-05-21T08:13:52.000Z</time>
      </trkpt>
      <trkpt lat="47.22251" lon="4.94319">
        <ele>424.39581211699</ele>
        <time>2020-05-21T08:13:54.000Z</time>
      </trkpt>
      <trkpt lat="47.22249" lon="4.94318">
        <ele>424.19641038599</ele>
        <time>2020-05-21T08:13:56.000Z</time>
      </trkpt>
      <trkpt lat="47.22248" lon="4.94315">
        <ele>423.99398130198</ele>
        <time>2020-05-21T08:13:58.000Z</time>
      </trkpt>
      <trkpt lat="47.22247" lon="4.94312">
        <ele>423.39217569257</ele>
        <time>2020-05-21T08:14:01.000Z</time>
      </trkpt>
      <trkpt lat="47.22246" lon="4.9431">
        <ele>422.99097195297</ele>
        <time>2020-05-21T08:14:03.000Z</time>
      </trkpt>
      <trkpt lat="47.22246" lon="4.94312">
        <ele>422</ele>
        <time>2020-05-21T08:14:10.000Z</time>
      </trkpt>
      <trkpt lat="47.22243" lon="4.94314">
        <ele>422</ele>
        <time>2020-05-21T08:14:13.000Z</time>
      </trkpt>
      <trkpt lat="47.22241" lon="4.94315">
        <ele>422</ele>
        <time>2020-05-21T08:14:16.000Z</time>
      </trkpt>
      <trkpt lat="47.22239" lon="4.94313">
        <ele>421.78799872</ele>
        <time>2020-05-21T08:14:19.000Z</time>
      </trkpt>
      <trkpt lat="47.22238" lon="4.9431">
        <ele>421.18799872</ele>
        <time>2020-05-21T08:14:22.000Z</time>
      </trkpt>
      <trkpt lat="47.22238" lon="4.94308">
        <ele>420.78799872</ele>
        <time>2020-05-21T08:14:24.000Z</time>
      </trkpt>
      <trkpt lat="47.22236" lon="4.94307">
        <ele>420</ele>
        <time>2020-05-21T08:14:30.000Z</time>
      </trkpt>
      <trkpt lat="47.22234" lon="4.94308">
        <ele>420</ele>
        <time>2020-05-21T08:14:35.000Z</time>
      </trkpt>
      <trkpt lat="47.22232" lon="4.94309">
        <ele>420</ele>
        <time>2020-05-21T08:14:44.000Z</time>
      </trkpt>
      <trkpt lat="47.2223" lon="4.94307">
        <ele>420</ele>
        <time>2020-05-21T08:14:54.000Z</time>
      </trkpt>
      <trkpt lat="47.22228" lon="4.94306">
        <ele>419.40058028304</ele>
        <time>2020-05-21T08:15:00.000Z</time>
      </trkpt>
      <trkpt lat="47.22226" lon="4.94306">
        <ele>418.81862120082</ele>
        <time>2020-05-21T08:15:02.000Z</time>
      </trkpt>
      <trkpt lat="47.22225" lon="4.94306">
        <ele>418.5276416597</ele>
        <time>2020-05-21T08:15:03.000Z</time>
      </trkpt>
      <trkpt lat="47.22224" lon="4.94304">
        <ele>417.94568257748</ele>
        <time>2020-05-21T08:15:05.000Z</time>
      </trkpt>
      <trkpt lat="47.22222" lon="4.94303">
        <ele>416.71649470252</ele>
        <time>2020-05-21T08:15:11.000Z</time>
      </trkpt>
      <trkpt lat="47.22219" lon="4.94305">
        <ele>415.78979022843</ele>
        <time>2020-05-21T08:15:19.000Z</time>
      </trkpt>
      <trkpt lat="47.22217" lon="4.94306">
        <ele>415.58958983584</ele>
        <time>2020-05-21T08:15:20.000Z</time>
      </trkpt>
      <trkpt lat="47.22216" lon="4.94306">
        <ele>414.7887882655</ele>
        <time>2020-05-21T08:15:24.000Z</time>
      </trkpt>
      <trkpt lat="47.22214" lon="4.94304">
        <ele>414</ele>
        <time>2020-05-21T08:15:31.000Z</time>
      </trkpt>
      <trkpt lat="47.22213" lon="4.94302">
        <ele>414</ele>
        <time>2020-05-21T08:15:33.000Z</time>
      </trkpt>
      <trkpt lat="47.22212" lon="4.94298">
        <ele>414</ele>
        <time>2020-05-21T08:15:36.000Z</time>
      </trkpt>
      <trkpt lat="47.22211" lon="4.94297">
        <ele>413.99427419847</ele>
        <time>2020-05-21T08:15:38.000Z</time>
      </trkpt>
      <trkpt lat="47.22209" lon="4.94298">
        <ele>412.69537478992</ele>
        <time>2020-05-21T08:15:49.000Z</time>
      </trkpt>
      <trkpt lat="47.22207" lon="4.94298">
        <ele>411.64495462185</ele>
        <time>2020-05-21T08:15:51.000Z</time>
      </trkpt>
      <trkpt lat="47.22207" lon="4.94298">
        <ele>410.59453445378</ele>
        <time>2020-05-21T08:15:53.000Z</time>
      </trkpt>
      <trkpt lat="47.22207" lon="4.94298">
        <ele>408.50600064</ele>
        <time>2020-05-21T08:16:03.000Z</time>
      </trkpt>
      <trkpt lat="47.22205" lon="4.94296">
        <ele>408</ele>
        <time>2020-05-21T08:16:31.000Z</time>
      </trkpt>
      <trkpt lat="47.22203" lon="4.94297">
        <ele>408</ele>
        <time>2020-05-21T08:16:36.000Z</time>
      </trkpt>
      <trkpt lat="47.22202" lon="4.94298">
        <ele>407.98799872</ele>
        <time>2020-05-21T08:16:38.000Z</time>
      </trkpt>
      <trkpt lat="47.22203" lon="4.94298">
        <ele>405.79399936</ele>
        <time>2020-05-21T08:16:50.000Z</time>
      </trkpt>
      <trkpt lat="47.22203" lon="4.94297">
        <ele>404.39399936</ele>
        <time>2020-05-21T08:17:04.000Z</time>
      </trkpt>
      <trkpt lat="47.22203" lon="4.94294">
        <ele>404.09399936</ele>
        <time>2020-05-21T08:17:07.000Z</time>
      </trkpt>
      <trkpt lat="47.22203" lon="4.94291">
        <ele>404</ele>
        <time>2020-05-21T08:17:12.000Z</time>
      </trkpt>
      <trkpt lat="47.22205" lon="4.94289">
        <ele>403.89399936</ele>
        <time>2020-05-21T08:17:19.000Z</time>
      </trkpt>
      <trkpt lat="47.22206" lon="4.94287">
        <ele>403.69399936</ele>
        <time>2020-05-21T08:17:21.000Z</time>
      </trkpt>
      <trkpt lat="47.22208" lon="4.94287">
        <ele>403.49399936</ele>
        <time>2020-05-21T08:17:23.000Z</time>
      </trkpt>
      <trkpt lat="47.2221" lon="4.94285">
        <ele>403.29399936</ele>
        <time>2020-05-21T08:17:25.000Z</time>
      </trkpt>
      <trkpt lat="47.22212" lon="4.94284">
        <ele>402.89399936</ele>
        <time>2020-05-21T08:17:29.000Z</time>
      </trkpt>
      <trkpt lat="47.22214" lon="4.94282">
        <ele>402.49399936</ele>
        <time>2020-05-21T08:17:33.000Z</time>
      </trkpt>
      <trkpt lat="47.22216" lon="4.9428">
        <ele>401.99399936</ele>
        <time>2020-05-21T08:17:38.000Z</time>
      </trkpt>
      <trkpt lat="47.22216" lon="4.94279">
        <ele>401.39399936</ele>
        <time>2020-05-21T08:17:44.000Z</time>
      </trkpt>
      <trkpt lat="47.22216" lon="4.94274">
        <ele>400.18799872</ele>
        <time>2020-05-21T08:17:52.000Z</time>
      </trkpt>
      <trkpt lat="47.22215" lon="4.94273">
        <ele>399.98799872</ele>
        <time>2020-05-21T08:17:53.000Z</time>
      </trkpt>
      <trkpt lat="47.22215" lon="4.9427">
        <ele>399.38799872</ele>
        <time>2020-05-21T08:17:56.000Z</time>
      </trkpt>
      <trkpt lat="47.22214" lon="4.94268">
        <ele>398.08199808</ele>
        <time>2020-05-21T08:18:01.000Z</time>
      </trkpt>
      <trkpt lat="47.22213" lon="4.94268">
        <ele>397.48199808</ele>
        <time>2020-05-21T08:18:03.000Z</time>
      </trkpt>
      <trkpt lat="47.22212" lon="4.94266">
        <ele>396</ele>
        <time>2020-05-21T08:18:46.000Z</time>
      </trkpt>
      <trkpt lat="47.22211" lon="4.94269">
        <ele>396</ele>
        <time>2020-05-21T08:18:55.000Z</time>
      </trkpt>
      <trkpt lat="47.22211" lon="4.94272">
        <ele>396.40600064</ele>
        <time>2020-05-21T08:19:02.000Z</time>
      </trkpt>
      <trkpt lat="47.22211" lon="4.9427">
        <ele>396.59960514423</ele>
        <time>2020-05-21T08:19:12.000Z</time>
      </trkpt>
      <trkpt lat="47.22212" lon="4.94268">
        <ele>396.20512807566</ele>
        <time>2020-05-21T08:19:16.000Z</time>
      </trkpt>
      <trkpt lat="47.22212" lon="4.94265">
        <ele>396</ele>
        <time>2020-05-21T08:19:23.000Z</time>
      </trkpt>
      <trkpt lat="47.2221" lon="4.94266">
        <ele>396</ele>
        <time>2020-05-21T08:19:27.000Z</time>
      </trkpt>
      <trkpt lat="47.22208" lon="4.94264">
        <ele>395.09399936</ele>
        <time>2020-05-21T08:19:37.000Z</time>
      </trkpt>
      <trkpt lat="47.22206" lon="4.94264">
        <ele>393.76399616</ele>
        <time>2020-05-21T08:19:40.000Z</time>
      </trkpt>
      <trkpt lat="47.22204" lon="4.94262">
        <ele>392.56399616</ele>
        <time>2020-05-21T08:19:42.000Z</time>
      </trkpt>
      <trkpt lat="47.22203" lon="4.94262">
        <ele>391.96399616</ele>
        <time>2020-05-21T08:19:43.000Z</time>
      </trkpt>
      <trkpt lat="47.222" lon="4.94261">
        <ele>390.76399616</ele>
        <time>2020-05-21T08:19:45.000Z</time>
      </trkpt>
      <trkpt lat="47.22197" lon="4.94261">
        <ele>389.56399616</ele>
        <time>2020-05-21T08:19:47.000Z</time>
      </trkpt>
      <trkpt lat="47.22196" lon="4.9426">
        <ele>388.97599744</ele>
        <time>2020-05-21T08:19:48.000Z</time>
      </trkpt>
      <trkpt lat="47.22194" lon="4.94259">
        <ele>387.77599744</ele>
        <time>2020-05-21T08:19:51.000Z</time>
      </trkpt>
      <trkpt lat="47.22194" lon="4.94259">
        <ele>386.97599744</ele>
        <time>2020-05-21T08:19:53.000Z</time>
      </trkpt>
      <trkpt lat="47.22195" lon="4.94261">
        <ele>385</ele>
        <time>2020-05-21T08:20:02.000Z</time>
      </trkpt>
      <trkpt lat="47.22191" lon="4.94257">
        <ele>385</ele>
        <time>2020-05-21T08:20:15.000Z</time>
      </trkpt>
      <trkpt lat="47.22189" lon="4.94254">
        <ele>385</ele>
        <time>2020-05-21T08:20:17.000Z</time>
      </trkpt>
      <trkpt lat="47.22187" lon="4.94251">
        <ele>384.25799552</ele>
        <time>2020-05-21T08:20:19.000Z</time>
      </trkpt>
      <trkpt lat="47.22185" lon="4.9425">
        <ele>382.85799552</ele>
        <time>2020-05-21T08:20:21.000Z</time>
      </trkpt>
      <trkpt lat="47.22184" lon="4.9425">
        <ele>381.45799552</ele>
        <time>2020-05-21T08:20:23.000Z</time>
      </trkpt>
      <trkpt lat="47.22182" lon="4.94251">
        <ele>378.65799552</ele>
        <time>2020-05-21T08:20:27.000Z</time>
      </trkpt>
      <trkpt lat="47.22181" lon="4.9425">
        <ele>377.97599744</ele>
        <time>2020-05-21T08:20:28.000Z</time>
      </trkpt>
      <trkpt lat="47.22181" lon="4.94253">
        <ele>377.17599744</ele>
        <time>2020-05-21T08:20:30.000Z</time>
      </trkpt>
      <trkpt lat="47.22181" lon="4.94256">
        <ele>375.97599744</ele>
        <time>2020-05-21T08:20:33.000Z</time>
      </trkpt>
      <trkpt lat="47.22179" lon="4.94259">
        <ele>375.17599744</ele>
        <time>2020-05-21T08:20:35.000Z</time>
      </trkpt>
      <trkpt lat="47.22179" lon="4.94261">
        <ele>373.98799872</ele>
        <time>2020-05-21T08:20:38.000Z</time>
      </trkpt>
      <trkpt lat="47.22178" lon="4.94263">
        <ele>373.38799872</ele>
        <time>2020-05-21T08:20:41.000Z</time>
      </trkpt>
      <trkpt lat="47.22176" lon="4.94263">
        <ele>372.58799872</ele>
        <time>2020-05-21T08:20:45.000Z</time>
      </trkpt>
      <trkpt lat="47.22176" lon="4.94261">
        <ele>371.49399936</ele>
        <time>2020-05-21T08:20:53.000Z</time>
      </trkpt>
      <trkpt lat="47.22175" lon="4.9426">
        <ele>370.49399936</ele>
        <time>2020-05-21T08:21:03.000Z</time>
      </trkpt>
      <trkpt lat="47.22172" lon="4.94258">
        <ele>370</ele>
        <time>2020-05-21T08:21:12.000Z</time>
      </trkpt>
      <trkpt lat="47.2217" lon="4.94259">
        <ele>370</ele>
        <time>2020-05-21T08:21:14.000Z</time>
      </trkpt>
      <trkpt lat="47.22168" lon="4.94258">
        <ele>368.51456092299</ele>
        <time>2020-05-21T08:21:21.000Z</time>
      </trkpt>
      <trkpt lat="47.22167" lon="4.94259">
        <ele>367.54368773984</ele>
        <time>2020-05-21T08:21:23.000Z</time>
      </trkpt>
      <trkpt lat="47.22165" lon="4.94259">
        <ele>366.08737796512</ele>
        <time>2020-05-21T08:21:26.000Z</time>
      </trkpt>
      <trkpt lat="47.22164" lon="4.94261">
        <ele>363.81237035043</ele>
        <time>2020-05-21T08:21:34.000Z</time>
      </trkpt>
      <trkpt lat="47.22162" lon="4.94262">
        <ele>363.19381324128</ele>
        <time>2020-05-21T08:21:37.000Z</time>
      </trkpt>
      <trkpt lat="47.22161" lon="4.94261">
        <ele>362.89399936</ele>
        <time>2020-05-21T08:21:39.000Z</time>
      </trkpt>
      <trkpt lat="47.22159" lon="4.94259">
        <ele>362.39399936</ele>
        <time>2020-05-21T08:21:44.000Z</time>
      </trkpt>
      <trkpt lat="47.22157" lon="4.9426">
        <ele>362</ele>
        <time>2020-05-21T08:21:48.000Z</time>
      </trkpt>
      <trkpt lat="47.22159" lon="4.94263">
        <ele>362</ele>
        <time>2020-05-21T08:21:55.000Z</time>
      </trkpt>
      <trkpt lat="47.22159" lon="4.94264">
        <ele>360.98799872</ele>
        <time>2020-05-21T08:22:03.000Z</time>
      </trkpt>
      <trkpt lat="47.22157" lon="4.94263">
        <ele>362</ele>
        <time>2020-05-21T08:22:18.000Z</time>
      </trkpt>
      <trkpt lat="47.22155" lon="4.94262">
        <ele>361.59399936</ele>
        <time>2020-05-21T08:22:32.000Z</time>
      </trkpt>
      <trkpt lat="47.22154" lon="4.94259">
        <ele>360.89688666535</ele>
        <time>2020-05-21T08:22:39.000Z</time>
      </trkpt>
      <trkpt lat="47.22153" lon="4.94257">
        <ele>360.41050594801</ele>
        <time>2020-05-21T08:22:44.000Z</time>
      </trkpt>
      <trkpt lat="47.22151" lon="4.94257">
        <ele>360.21595366107</ele>
        <time>2020-05-21T08:22:46.000Z</time>
      </trkpt>
      <trkpt lat="47.22148" lon="4.94256">
        <ele>358.83333377229</ele>
        <time>2020-05-21T08:22:52.000Z</time>
      </trkpt>
      <trkpt lat="47.22147" lon="4.94255">
        <ele>358.52469139054</ele>
        <time>2020-05-21T08:22:53.000Z</time>
      </trkpt>
      <trkpt lat="47.22146" lon="4.94252">
        <ele>357.90740662704</ele>
        <time>2020-05-21T08:22:55.000Z</time>
      </trkpt>
      <trkpt lat="47.22144" lon="4.94254">
        <ele>356.38199808</ele>
        <time>2020-05-21T08:23:00.000Z</time>
      </trkpt>
      <trkpt lat="47.22143" lon="4.94255">
        <ele>355.48199808</ele>
        <time>2020-05-21T08:23:03.000Z</time>
      </trkpt>
      <trkpt lat="47.22141" lon="4.94256">
        <ele>354.58199808</ele>
        <time>2020-05-21T08:23:06.000Z</time>
      </trkpt>
      <trkpt lat="47.22139" lon="4.94256">
        <ele>353.59399936</ele>
        <time>2020-05-21T08:23:12.000Z</time>
      </trkpt>
      <trkpt lat="47.22136" lon="4.94255">
        <ele>353.29399936</ele>
        <time>2020-05-21T08:23:15.000Z</time>
      </trkpt>
      <trkpt lat="47.22133" lon="4.94251">
        <ele>351.37599744</ele>
        <time>2020-05-21T08:23:22.000Z</time>
      </trkpt>
      <trkpt lat="47.22132" lon="4.94251">
        <ele>350.97599744</ele>
        <time>2020-05-21T08:23:23.000Z</time>
      </trkpt>
      <trkpt lat="47.22129" lon="4.94251">
        <ele>350.17599744</ele>
        <time>2020-05-21T08:23:25.000Z</time>
      </trkpt>
      <trkpt lat="47.22127" lon="4.94252">
        <ele>349.37599744</ele>
        <time>2020-05-21T08:23:27.000Z</time>
      </trkpt>
      <trkpt lat="47.22126" lon="4.94252">
        <ele>348.98801072079</ele>
        <time>2020-05-21T08:23:28.000Z</time>
      </trkpt>
      <trkpt lat="47.22123" lon="4.9425">
        <ele>347.98901067987</ele>
        <time>2020-05-21T08:23:33.000Z</time>
      </trkpt>
      <trkpt lat="47.22122" lon="4.94252">
        <ele>347.38961065532</ele>
        <time>2020-05-21T08:23:36.000Z</time>
      </trkpt>
      <trkpt lat="47.22121" lon="4.94255">
        <ele>346.98498593152</ele>
        <time>2020-05-21T08:23:38.000Z</time>
      </trkpt>
      <trkpt lat="47.2212" lon="4.94258">
        <ele>345.78378357601</ele>
        <time>2020-05-21T08:23:42.000Z</time>
      </trkpt>
      <trkpt lat="47.22119" lon="4.94258">
        <ele>345.18318239825</ele>
        <time>2020-05-21T08:23:44.000Z</time>
      </trkpt>
      <trkpt lat="47.22117" lon="4.94257">
        <ele>344.5825812205</ele>
        <time>2020-05-21T08:23:46.000Z</time>
      </trkpt>
      <trkpt lat="47.22115" lon="4.94256">
        <ele>343.98199808</ele>
        <time>2020-05-21T08:23:48.000Z</time>
      </trkpt>
      <trkpt lat="47.22112" lon="4.94256">
        <ele>343.38199808</ele>
        <time>2020-05-21T08:23:50.000Z</time>
      </trkpt>
      <trkpt lat="47.22117" lon="4.94267">
        <ele>341.28199808</ele>
        <time>2020-05-21T08:23:57.000Z</time>
      </trkpt>
      <trkpt lat="47.22119" lon="4.94267">
        <ele>341</ele>
        <time>2020-05-21T08:24:01.000Z</time>
      </trkpt>
      <trkpt lat="47.22121" lon="4.94266">
        <ele>341</ele>
        <time>2020-05-21T08:24:08.000Z</time>
      </trkpt>
      <trkpt lat="47.22125" lon="4.94274">
        <ele>341</ele>
        <time>2020-05-21T08:24:18.000Z</time>
      </trkpt>
      <trkpt lat="47.22125" lon="4.94277">
        <ele>341</ele>
        <time>2020-05-21T08:24:21.000Z</time>
      </trkpt>
      <trkpt lat="47.22126" lon="4.9428">
        <ele>341</ele>
        <time>2020-05-21T08:24:26.000Z</time>
      </trkpt>
      <trkpt lat="47.22127" lon="4.94283">
        <ele>341</ele>
        <time>2020-05-21T08:24:29.000Z</time>
      </trkpt>
      <trkpt lat="47.22128" lon="4.94286">
        <ele>341</ele>
        <time>2020-05-21T08:24:31.000Z</time>
      </trkpt>
      <trkpt lat="47.22128" lon="4.94289">
        <ele>341</ele>
        <time>2020-05-21T08:24:33.000Z</time>
      </trkpt>
      <trkpt lat="47.22126" lon="4.9429">
        <ele>341</ele>
        <time>2020-05-21T08:24:35.000Z</time>
      </trkpt>
      <trkpt lat="47.22123" lon="4.94288">
        <ele>341</ele>
        <time>2020-05-21T08:24:37.000Z</time>
      </trkpt>
      <trkpt lat="47.22123" lon="4.94282">
        <ele>341</ele>
        <time>2020-05-21T08:24:39.000Z</time>
      </trkpt>
      <trkpt lat="47.22122" lon="4.9428">
        <ele>341</ele>
        <time>2020-05-21T08:24:40.000Z</time>
      </trkpt>
      <trkpt lat="47.22123" lon="4.94275">
        <ele>341</ele>
        <time>2020-05-21T08:24:42.000Z</time>
      </trkpt>
      <trkpt lat="47.22123" lon="4.94271">
        <ele>341</ele>
        <time>2020-05-21T08:24:44.000Z</time>
      </trkpt>
      <trkpt lat="47.22122" lon="4.94267">
        <ele>341</ele>
        <time>2020-05-21T08:24:46.000Z</time>
      </trkpt>
      <trkpt lat="47.22121" lon="4.94262">
        <ele>341</ele>
        <time>2020-05-21T08:24:48.000Z</time>
      </trkpt>
      <trkpt lat="47.2212" lon="4.9426">
        <ele>341</ele>
        <time>2020-05-21T08:24:50.000Z</time>
      </trkpt>
      <trkpt lat="47.2212" lon="4.94257">
        <ele>341</ele>
        <time>2020-05-21T08:24:52.000Z</time>
      </trkpt>
      <trkpt lat="47.22118" lon="4.94255">
        <ele>341</ele>
        <time>2020-05-21T08:24:54.000Z</time>
      </trkpt>
      <trkpt lat="47.22116" lon="4.94253">
        <ele>341</ele>
        <time>2020-05-21T08:24:56.000Z</time>
      </trkpt>
      <trkpt lat="47.22115" lon="4.94251">
        <ele>341.10600064</ele>
        <time>2020-05-21T08:24:59.000Z</time>
      </trkpt>
      <trkpt lat="47.22112" lon="4.94248">
        <ele>341.30600064</ele>
        <time>2020-05-21T08:25:01.000Z</time>
      </trkpt>
      <trkpt lat="47.22111" lon="4.94245">
        <ele>341.50600064</ele>
        <time>2020-05-21T08:25:03.000Z</time>
      </trkpt>
      <trkpt lat="47.2211" lon="4.94242">
        <ele>341.70600064</ele>
        <time>2020-05-21T08:25:05.000Z</time>
      </trkpt>
      <trkpt lat="47.22108" lon="4.9424">
        <ele>341.90600064</ele>
        <time>2020-05-21T08:25:07.000Z</time>
      </trkpt>
      <trkpt lat="47.22106" lon="4.94239">
        <ele>342</ele>
        <time>2020-05-21T08:25:09.000Z</time>
      </trkpt>
      <trkpt lat="47.22104" lon="4.94238">
        <ele>342</ele>
        <time>2020-05-21T08:25:10.000Z</time>
      </trkpt>
      <trkpt lat="47.22102" lon="4.94236">
        <ele>342</ele>
        <time>2020-05-21T08:25:13.000Z</time>
      </trkpt>
      <trkpt lat="47.221" lon="4.94233">
        <ele>342</ele>
        <time>2020-05-21T08:25:15.000Z</time>
      </trkpt>
      <trkpt lat="47.22098" lon="4.94231">
        <ele>342</ele>
        <time>2020-05-21T08:25:17.000Z</time>
      </trkpt>
      <trkpt lat="47.22096" lon="4.94228">
        <ele>342.20600064</ele>
        <time>2020-05-21T08:25:20.000Z</time>
      </trkpt>
      <trkpt lat="47.22095" lon="4.94225">
        <ele>342.40600064</ele>
        <time>2020-05-21T08:25:22.000Z</time>
      </trkpt>
      <trkpt lat="47.22094" lon="4.94222">
        <ele>342.70600064</ele>
        <time>2020-05-21T08:25:25.000Z</time>
      </trkpt>
      <trkpt lat="47.22092" lon="4.9422">
        <ele>342.90600064</ele>
        <time>2020-05-21T08:25:27.000Z</time>
      </trkpt>
      <trkpt lat="47.22085" lon="4.9421">
        <ele>343</ele>
        <time>2020-05-21T08:25:33.000Z</time>
      </trkpt>
      <trkpt lat="47.22078" lon="4.94202">
        <ele>343.00600064</ele>
        <time>2020-05-21T08:25:38.000Z</time>
      </trkpt>
      <trkpt lat="47.22076" lon="4.942">
        <ele>343.20600064</ele>
        <time>2020-05-21T08:25:40.000Z</time>
      </trkpt>
      <trkpt lat="47.22075" lon="4.94197">
        <ele>343.40600064</ele>
        <time>2020-05-21T08:25:42.000Z</time>
      </trkpt>
      <trkpt lat="47.22073" lon="4.94194">
        <ele>343.60600064</ele>
        <time>2020-05-21T08:25:44.000Z</time>
      </trkpt>
      <trkpt lat="47.22071" lon="4.94192">
        <ele>343.80600064</ele>
        <time>2020-05-21T08:25:46.000Z</time>
      </trkpt>
      <trkpt lat="47.2207" lon="4.9419">
        <ele>344.00600064</ele>
        <time>2020-05-21T08:25:48.000Z</time>
      </trkpt>
      <trkpt lat="47.22067" lon="4.94188">
        <ele>344.40600064</ele>
        <time>2020-05-21T08:25:52.000Z</time>
      </trkpt>
      <trkpt lat="47.22065" lon="4.94186">
        <ele>344.60600064</ele>
        <time>2020-05-21T08:25:54.000Z</time>
      </trkpt>
      <trkpt lat="47.22056" lon="4.9419">
        <ele>345</ele>
        <time>2020-05-21T08:25:59.000Z</time>
      </trkpt>
      <trkpt lat="47.22055" lon="4.94187">
        <ele>345</ele>
        <time>2020-05-21T08:26:01.000Z</time>
      </trkpt>
      <trkpt lat="47.22054" lon="4.94183">
        <ele>345</ele>
        <time>2020-05-21T08:26:03.000Z</time>
      </trkpt>
      <trkpt lat="47.22053" lon="4.94179">
        <ele>345</ele>
        <time>2020-05-21T08:26:05.000Z</time>
      </trkpt>
      <trkpt lat="47.22052" lon="4.94176">
        <ele>345</ele>
        <time>2020-05-21T08:26:07.000Z</time>
      </trkpt>
      <trkpt lat="47.22051" lon="4.94173">
        <ele>345.20600064</ele>
        <time>2020-05-21T08:26:10.000Z</time>
      </trkpt>
      <trkpt lat="47.22049" lon="4.9417">
        <ele>345.50600064</ele>
        <time>2020-05-21T08:26:13.000Z</time>
      </trkpt>
      <trkpt lat="47.22047" lon="4.94167">
        <ele>345.70600064</ele>
        <time>2020-05-21T08:26:15.000Z</time>
      </trkpt>
      <trkpt lat="47.22046" lon="4.94164">
        <ele>345.90600064</ele>
        <time>2020-05-21T08:26:17.000Z</time>
      </trkpt>
      <trkpt lat="47.22045" lon="4.94162">
        <ele>346.10600064</ele>
        <time>2020-05-21T08:26:19.000Z</time>
      </trkpt>
      <trkpt lat="47.22044" lon="4.94159">
        <ele>346.30600064</ele>
        <time>2020-05-21T08:26:21.000Z</time>
      </trkpt>
      <trkpt lat="47.22043" lon="4.94157">
        <ele>346.50600064</ele>
        <time>2020-05-21T08:26:23.000Z</time>
      </trkpt>
      <trkpt lat="47.22042" lon="4.94153">
        <ele>346.70600064</ele>
        <time>2020-05-21T08:26:25.000Z</time>
      </trkpt>
      <trkpt lat="47.22041" lon="4.9415">
        <ele>346.90600064</ele>
        <time>2020-05-21T08:26:27.000Z</time>
      </trkpt>
      <trkpt lat="47.22041" lon="4.94147">
        <ele>347</ele>
        <time>2020-05-21T08:26:29.000Z</time>
      </trkpt>
      <trkpt lat="47.22039" lon="4.94144">
        <ele>347</ele>
        <time>2020-05-21T08:26:31.000Z</time>
      </trkpt>
      <trkpt lat="47.22038" lon="4.94141">
        <ele>347</ele>
        <time>2020-05-21T08:26:33.000Z</time>
      </trkpt>
      <trkpt lat="47.22037" lon="4.94138">
        <ele>347</ele>
        <time>2020-05-21T08:26:35.000Z</time>
      </trkpt>
      <trkpt lat="47.22036" lon="4.94135">
        <ele>347</ele>
        <time>2020-05-21T08:26:37.000Z</time>
      </trkpt>
      <trkpt lat="47.22035" lon="4.94132">
        <ele>347</ele>
        <time>2020-05-21T08:26:39.000Z</time>
      </trkpt>
      <trkpt lat="47.22034" lon="4.94128">
        <ele>347</ele>
        <time>2020-05-21T08:26:41.000Z</time>
      </trkpt>
      <trkpt lat="47.22034" lon="4.94125">
        <ele>347</ele>
        <time>2020-05-21T08:26:43.000Z</time>
      </trkpt>
      <trkpt lat="47.22034" lon="4.94122">
        <ele>347</ele>
        <time>2020-05-21T08:26:45.000Z</time>
      </trkpt>
      <trkpt lat="47.22033" lon="4.94118">
        <ele>347</ele>
        <time>2020-05-21T08:26:47.000Z</time>
      </trkpt>
      <trkpt lat="47.22033" lon="4.94114">
        <ele>347</ele>
        <time>2020-05-21T08:26:49.000Z</time>
      </trkpt>
      <trkpt lat="47.22032" lon="4.94111">
        <ele>347</ele>
        <time>2020-05-21T08:26:51.000Z</time>
      </trkpt>
      <trkpt lat="47.22032" lon="4.94108">
        <ele>347</ele>
        <time>2020-05-21T08:26:53.000Z</time>
      </trkpt>
      <trkpt lat="47.22031" lon="4.94105">
        <ele>347</ele>
        <time>2020-05-21T08:26:55.000Z</time>
      </trkpt>
      <trkpt lat="47.2203" lon="4.94102">
        <ele>347</ele>
        <time>2020-05-21T08:26:57.000Z</time>
      </trkpt>
      <trkpt lat="47.2203" lon="4.94099">
        <ele>347.10600064</ele>
        <time>2020-05-21T08:26:59.000Z</time>
      </trkpt>
      <trkpt lat="47.22029" lon="4.94096">
        <ele>347.30600064</ele>
        <time>2020-05-21T08:27:01.000Z</time>
      </trkpt>
      <trkpt lat="47.22029" lon="4.94093">
        <ele>347.50600064</ele>
        <time>2020-05-21T08:27:03.000Z</time>
      </trkpt>
      <trkpt lat="47.22028" lon="4.9409">
        <ele>347.70600064</ele>
        <time>2020-05-21T08:27:05.000Z</time>
      </trkpt>
      <trkpt lat="47.22026" lon="4.94084">
        <ele>348.00600064</ele>
        <time>2020-05-21T08:27:08.000Z</time>
      </trkpt>
      <trkpt lat="47.22026" lon="4.9408">
        <ele>348.20600064</ele>
        <time>2020-05-21T08:27:10.000Z</time>
      </trkpt>
      <trkpt lat="47.22025" lon="4.94077">
        <ele>348.40600064</ele>
        <time>2020-05-21T08:27:12.000Z</time>
      </trkpt>
      <trkpt lat="47.22024" lon="4.94073">
        <ele>348.60600064</ele>
        <time>2020-05-21T08:27:14.000Z</time>
      </trkpt>
      <trkpt lat="47.22024" lon="4.9407">
        <ele>348.80600064</ele>
        <time>2020-05-21T08:27:16.000Z</time>
      </trkpt>
      <trkpt lat="47.22023" lon="4.94068">
        <ele>349</ele>
        <time>2020-05-21T08:27:18.000Z</time>
      </trkpt>
      <trkpt lat="47.22022" lon="4.94065">
        <ele>349</ele>
        <time>2020-05-21T08:27:20.000Z</time>
      </trkpt>
      <trkpt lat="47.22022" lon="4.94062">
        <ele>349</ele>
        <time>2020-05-21T08:27:22.000Z</time>
      </trkpt>
      <trkpt lat="47.22021" lon="4.94048">
        <ele>349</ele>
        <time>2020-05-21T08:27:30.000Z</time>
      </trkpt>
      <trkpt lat="47.22019" lon="4.94045">
        <ele>349</ele>
        <time>2020-05-21T08:27:32.000Z</time>
      </trkpt>
      <trkpt lat="47.22018" lon="4.9404">
        <ele>349</ele>
        <time>2020-05-21T08:27:35.000Z</time>
      </trkpt>
      <trkpt lat="47.22016" lon="4.94038">
        <ele>349</ele>
        <time>2020-05-21T08:27:37.000Z</time>
      </trkpt>
      <trkpt lat="47.22016" lon="4.94034">
        <ele>349.20602631896</ele>
        <time>2020-05-21T08:27:39.000Z</time>
      </trkpt>
      <trkpt lat="47.22015" lon="4.9403">
        <ele>349.59475287564</ele>
        <time>2020-05-21T08:27:41.000Z</time>
      </trkpt>
      <trkpt lat="47.22015" lon="4.94027">
        <ele>349.98347943232</ele>
        <time>2020-05-21T08:27:43.000Z</time>
      </trkpt>
      <trkpt lat="47.22014" lon="4.94023">
        <ele>350.372205989</ele>
        <time>2020-05-21T08:27:45.000Z</time>
      </trkpt>
      <trkpt lat="47.22013" lon="4.9402">
        <ele>350.76093254568</ele>
        <time>2020-05-21T08:27:47.000Z</time>
      </trkpt>
      <trkpt lat="47.22012" lon="4.94017">
        <ele>351.07929943988</ele>
        <time>2020-05-21T08:27:49.000Z</time>
      </trkpt>
      <trkpt lat="47.22011" lon="4.94014">
        <ele>351.28527286701</ele>
        <time>2020-05-21T08:27:51.000Z</time>
      </trkpt>
      <trkpt lat="47.22011" lon="4.94011">
        <ele>351.49124629413</ele>
        <time>2020-05-21T08:27:53.000Z</time>
      </trkpt>
      <trkpt lat="47.2201" lon="4.94007">
        <ele>351.69721972125</ele>
        <time>2020-05-21T08:27:55.000Z</time>
      </trkpt>
      <trkpt lat="47.22009" lon="4.94004">
        <ele>351.90319314837</ele>
        <time>2020-05-21T08:27:57.000Z</time>
      </trkpt>
      <trkpt lat="47.22008" lon="4.94001">
        <ele>352</ele>
        <time>2020-05-21T08:27:59.000Z</time>
      </trkpt>
      <trkpt lat="47.22008" lon="4.93998">
        <ele>352</ele>
        <time>2020-05-21T08:28:01.000Z</time>
      </trkpt>
      <trkpt lat="47.22008" lon="4.93994">
        <ele>352</ele>
        <time>2020-05-21T08:28:03.000Z</time>
      </trkpt>
      <trkpt lat="47.22008" lon="4.93991">
        <ele>352</ele>
        <time>2020-05-21T08:28:05.000Z</time>
      </trkpt>
      <trkpt lat="47.22008" lon="4.93987">
        <ele>352</ele>
        <time>2020-05-21T08:28:07.000Z</time>
      </trkpt>
      <trkpt lat="47.22008" lon="4.93984">
        <ele>352</ele>
        <time>2020-05-21T08:28:09.000Z</time>
      </trkpt>
      <trkpt lat="47.22007" lon="4.93981">
        <ele>352</ele>
        <time>2020-05-21T08:28:11.000Z</time>
      </trkpt>
      <trkpt lat="47.22007" lon="4.93978">
        <ele>352</ele>
        <time>2020-05-21T08:28:13.000Z</time>
      </trkpt>
      <trkpt lat="47.22006" lon="4.93975">
        <ele>352</ele>
        <time>2020-05-21T08:28:15.000Z</time>
      </trkpt>
      <trkpt lat="47.22006" lon="4.93971">
        <ele>352</ele>
        <time>2020-05-21T08:28:17.000Z</time>
      </trkpt>
      <trkpt lat="47.22007" lon="4.93968">
        <ele>352.10600064</ele>
        <time>2020-05-21T08:28:19.000Z</time>
      </trkpt>
      <trkpt lat="47.22007" lon="4.93965">
        <ele>352.30600064</ele>
        <time>2020-05-21T08:28:21.000Z</time>
      </trkpt>
      <trkpt lat="47.22007" lon="4.93962">
        <ele>352.50600064</ele>
        <time>2020-05-21T08:28:23.000Z</time>
      </trkpt>
      <trkpt lat="47.22007" lon="4.93959">
        <ele>352.70600064</ele>
        <time>2020-05-21T08:28:25.000Z</time>
      </trkpt>
      <trkpt lat="47.22007" lon="4.93955">
        <ele>352.90600064</ele>
        <time>2020-05-21T08:28:27.000Z</time>
      </trkpt>
      <trkpt lat="47.22008" lon="4.93951">
        <ele>353</ele>
        <time>2020-05-21T08:28:29.000Z</time>
      </trkpt>
      <trkpt lat="47.22008" lon="4.93947">
        <ele>353</ele>
        <time>2020-05-21T08:28:31.000Z</time>
      </trkpt>
      <trkpt lat="47.22009" lon="4.93944">
        <ele>353</ele>
        <time>2020-05-21T08:28:33.000Z</time>
      </trkpt>
      <trkpt lat="47.2201" lon="4.93941">
        <ele>353</ele>
        <time>2020-05-21T08:28:35.000Z</time>
      </trkpt>
      <trkpt lat="47.22007" lon="4.9394">
        <ele>353</ele>
        <time>2020-05-21T08:28:45.000Z</time>
      </trkpt>
      <trkpt lat="47.22009" lon="4.93938">
        <ele>353</ele>
        <time>2020-05-21T08:28:48.000Z</time>
      </trkpt>
      <trkpt lat="47.2201" lon="4.93934">
        <ele>353</ele>
        <time>2020-05-21T08:28:50.000Z</time>
      </trkpt>
      <trkpt lat="47.22011" lon="4.93932">
        <ele>353</ele>
        <time>2020-05-21T08:28:52.000Z</time>
      </trkpt>
      <trkpt lat="47.2201" lon="4.93934">
        <ele>353</ele>
        <time>2020-05-21T08:28:57.000Z</time>
      </trkpt>
      <trkpt lat="47.22009" lon="4.93938">
        <ele>353</ele>
        <time>2020-05-21T08:28:59.000Z</time>
      </trkpt>
      <trkpt lat="47.22008" lon="4.93942">
        <ele>353</ele>
        <time>2020-05-21T08:29:01.000Z</time>
      </trkpt>
      <trkpt lat="47.22006" lon="4.93948">
        <ele>353</ele>
        <time>2020-05-21T08:29:04.000Z</time>
      </trkpt>
      <trkpt lat="47.22006" lon="4.93953">
        <ele>353</ele>
        <time>2020-05-21T08:29:06.000Z</time>
      </trkpt>
      <trkpt lat="47.22005" lon="4.93957">
        <ele>353</ele>
        <time>2020-05-21T08:29:08.000Z</time>
      </trkpt>
      <trkpt lat="47.22005" lon="4.93961">
        <ele>353</ele>
        <time>2020-05-21T08:29:10.000Z</time>
      </trkpt>
      <trkpt lat="47.22005" lon="4.93965">
        <ele>353</ele>
        <time>2020-05-21T08:29:12.000Z</time>
      </trkpt>
      <trkpt lat="47.22004" lon="4.93969">
        <ele>353</ele>
        <time>2020-05-21T08:29:14.000Z</time>
      </trkpt>
      <trkpt lat="47.22003" lon="4.93973">
        <ele>353</ele>
        <time>2020-05-21T08:29:16.000Z</time>
      </trkpt>
      <trkpt lat="47.22003" lon="4.93977">
        <ele>353</ele>
        <time>2020-05-21T08:29:18.000Z</time>
      </trkpt>
      <trkpt lat="47.22003" lon="4.9398">
        <ele>353</ele>
        <time>2020-05-21T08:29:20.000Z</time>
      </trkpt>
      <trkpt lat="47.22002" lon="4.93984">
        <ele>353</ele>
        <time>2020-05-21T08:29:22.000Z</time>
      </trkpt>
      <trkpt lat="47.22003" lon="4.93987">
        <ele>353</ele>
        <time>2020-05-21T08:29:24.000Z</time>
      </trkpt>
      <trkpt lat="47.22003" lon="4.93991">
        <ele>353</ele>
        <time>2020-05-21T08:29:26.000Z</time>
      </trkpt>
      <trkpt lat="47.22003" lon="4.93994">
        <ele>352.99399936</ele>
        <time>2020-05-21T08:29:28.000Z</time>
      </trkpt>
      <trkpt lat="47.22003" lon="4.93999">
        <ele>352.79399936</ele>
        <time>2020-05-21T08:29:30.000Z</time>
      </trkpt>
      <trkpt lat="47.22003" lon="4.94003">
        <ele>352.59399936</ele>
        <time>2020-05-21T08:29:32.000Z</time>
      </trkpt>
      <trkpt lat="47.22003" lon="4.94006">
        <ele>352.39399936</ele>
        <time>2020-05-21T08:29:34.000Z</time>
      </trkpt>
      <trkpt lat="47.22004" lon="4.9401">
        <ele>352.19399936</ele>
        <time>2020-05-21T08:29:36.000Z</time>
      </trkpt>
      <trkpt lat="47.22004" lon="4.94013">
        <ele>352</ele>
        <time>2020-05-21T08:29:38.000Z</time>
      </trkpt>
      <trkpt lat="47.22005" lon="4.94019">
        <ele>352</ele>
        <time>2020-05-21T08:29:41.000Z</time>
      </trkpt>
      <trkpt lat="47.22005" lon="4.94023">
        <ele>352</ele>
        <time>2020-05-21T08:29:43.000Z</time>
      </trkpt>
      <trkpt lat="47.22006" lon="4.94027">
        <ele>352</ele>
        <time>2020-05-21T08:29:45.000Z</time>
      </trkpt>
      <trkpt lat="47.22006" lon="4.94031">
        <ele>352</ele>
        <time>2020-05-21T08:29:47.000Z</time>
      </trkpt>
      <trkpt lat="47.22007" lon="4.94035">
        <ele>351.89399936</ele>
        <time>2020-05-21T08:29:49.000Z</time>
      </trkpt>
      <trkpt lat="47.22008" lon="4.94038">
        <ele>351</ele>
        <time>2020-05-21T08:30:00.000Z</time>
      </trkpt>
      <trkpt lat="47.22008" lon="4.94042">
        <ele>351</ele>
        <time>2020-05-21T08:30:02.000Z</time>
      </trkpt>
      <trkpt lat="47.22009" lon="4.94045">
        <ele>351</ele>
        <time>2020-05-21T08:30:04.000Z</time>
      </trkpt>
      <trkpt lat="47.22011" lon="4.94049">
        <ele>351</ele>
        <time>2020-05-21T08:30:06.000Z</time>
      </trkpt>
      <trkpt lat="47.22011" lon="4.94053">
        <ele>351</ele>
        <time>2020-05-21T08:30:08.000Z</time>
      </trkpt>
      <trkpt lat="47.22012" lon="4.94055">
        <ele>351</ele>
        <time>2020-05-21T08:30:10.000Z</time>
      </trkpt>
      <trkpt lat="47.22012" lon="4.94059">
        <ele>351</ele>
        <time>2020-05-21T08:30:12.000Z</time>
      </trkpt>
      <trkpt lat="47.22014" lon="4.94063">
        <ele>351</ele>
        <time>2020-05-21T08:30:14.000Z</time>
      </trkpt>
      <trkpt lat="47.22014" lon="4.94066">
        <ele>351</ele>
        <time>2020-05-21T08:30:16.000Z</time>
      </trkpt>
      <trkpt lat="47.22015" lon="4.9407">
        <ele>350.99399936</ele>
        <time>2020-05-21T08:30:18.000Z</time>
      </trkpt>
      <trkpt lat="47.22016" lon="4.94073">
        <ele>350.79399936</ele>
        <time>2020-05-21T08:30:20.000Z</time>
      </trkpt>
      <trkpt lat="47.22017" lon="4.94076">
        <ele>350.59399936</ele>
        <time>2020-05-21T08:30:22.000Z</time>
      </trkpt>
      <trkpt lat="47.22018" lon="4.9408">
        <ele>350.39399936</ele>
        <time>2020-05-21T08:30:24.000Z</time>
      </trkpt>
      <trkpt lat="47.22019" lon="4.94083">
        <ele>350.19399936</ele>
        <time>2020-05-21T08:30:26.000Z</time>
      </trkpt>
      <trkpt lat="47.2202" lon="4.94086">
        <ele>350</ele>
        <time>2020-05-21T08:30:28.000Z</time>
      </trkpt>
      <trkpt lat="47.22021" lon="4.9409">
        <ele>350</ele>
        <time>2020-05-21T08:30:30.000Z</time>
      </trkpt>
      <trkpt lat="47.22023" lon="4.94093">
        <ele>350</ele>
        <time>2020-05-21T08:30:32.000Z</time>
      </trkpt>
      <trkpt lat="47.22023" lon="4.94096">
        <ele>350</ele>
        <time>2020-05-21T08:30:34.000Z</time>
      </trkpt>
      <trkpt lat="47.22024" lon="4.94101">
        <ele>350</ele>
        <time>2020-05-21T08:30:36.000Z</time>
      </trkpt>
      <trkpt lat="47.22025" lon="4.94105">
        <ele>349.99399936</ele>
        <time>2020-05-21T08:30:38.000Z</time>
      </trkpt>
      <trkpt lat="47.22026" lon="4.94108">
        <ele>349.79399936</ele>
        <time>2020-05-21T08:30:40.000Z</time>
      </trkpt>
      <trkpt lat="47.22027" lon="4.94111">
        <ele>349.59399936</ele>
        <time>2020-05-21T08:30:42.000Z</time>
      </trkpt>
      <trkpt lat="47.22028" lon="4.94114">
        <ele>349.39399936</ele>
        <time>2020-05-21T08:30:44.000Z</time>
      </trkpt>
      <trkpt lat="47.22028" lon="4.94118">
        <ele>349.19399936</ele>
        <time>2020-05-21T08:30:46.000Z</time>
      </trkpt>
      <trkpt lat="47.22029" lon="4.94121">
        <ele>348.99416847969</ele>
        <time>2020-05-21T08:30:48.000Z</time>
      </trkpt>
      <trkpt lat="47.2203" lon="4.94125">
        <ele>348.79980520135</ele>
        <time>2020-05-21T08:30:50.000Z</time>
      </trkpt>
      <trkpt lat="47.22031" lon="4.94129">
        <ele>348.60544192301</ele>
        <time>2020-05-21T08:30:52.000Z</time>
      </trkpt>
      <trkpt lat="47.22032" lon="4.94133">
        <ele>348.41107864467</ele>
        <time>2020-05-21T08:30:54.000Z</time>
      </trkpt>
      <trkpt lat="47.22032" lon="4.94137">
        <ele>348.21671536633</ele>
        <time>2020-05-21T08:30:56.000Z</time>
      </trkpt>
      <trkpt lat="47.22033" lon="4.9414">
        <ele>348.02235208799</ele>
        <time>2020-05-21T08:30:58.000Z</time>
      </trkpt>
      <trkpt lat="47.22033" lon="4.94144">
        <ele>347.81771384656</ele>
        <time>2020-05-21T08:31:00.000Z</time>
      </trkpt>
      <trkpt lat="47.22034" lon="4.94147">
        <ele>347.61174041943</ele>
        <time>2020-05-21T08:31:02.000Z</time>
      </trkpt>
      <trkpt lat="47.22034" lon="4.94151">
        <ele>347.40576699231</ele>
        <time>2020-05-21T08:31:04.000Z</time>
      </trkpt>
      <trkpt lat="47.22035" lon="4.94154">
        <ele>347.19979356519</ele>
        <time>2020-05-21T08:31:06.000Z</time>
      </trkpt>
      <trkpt lat="47.22036" lon="4.94157">
        <ele>347</ele>
        <time>2020-05-21T08:31:08.000Z</time>
      </trkpt>
      <trkpt lat="47.22037" lon="4.9416">
        <ele>347</ele>
        <time>2020-05-21T08:31:10.000Z</time>
      </trkpt>
      <trkpt lat="47.22039" lon="4.94164">
        <ele>347</ele>
        <time>2020-05-21T08:31:12.000Z</time>
      </trkpt>
      <trkpt lat="47.2204" lon="4.94168">
        <ele>347</ele>
        <time>2020-05-21T08:31:14.000Z</time>
      </trkpt>
      <trkpt lat="47.22042" lon="4.94171">
        <ele>347</ele>
        <time>2020-05-21T08:31:16.000Z</time>
      </trkpt>
      <trkpt lat="47.22043" lon="4.94174">
        <ele>347</ele>
        <time>2020-05-21T08:31:18.000Z</time>
      </trkpt>
      <trkpt lat="47.22045" lon="4.94177">
        <ele>347</ele>
        <time>2020-05-21T08:31:20.000Z</time>
      </trkpt>
      <trkpt lat="47.22047" lon="4.94179">
        <ele>347</ele>
        <time>2020-05-21T08:31:22.000Z</time>
      </trkpt>
      <trkpt lat="47.22049" lon="4.94181">
        <ele>347</ele>
        <time>2020-05-21T08:31:24.000Z</time>
      </trkpt>
      <trkpt lat="47.22051" lon="4.94183">
        <ele>347</ele>
        <time>2020-05-21T08:31:26.000Z</time>
      </trkpt>
      <trkpt lat="47.22052" lon="4.94185">
        <ele>347</ele>
        <time>2020-05-21T08:31:28.000Z</time>
      </trkpt>
      <trkpt lat="47.22054" lon="4.94188">
        <ele>347</ele>
        <time>2020-05-21T08:31:30.000Z</time>
      </trkpt>
      <trkpt lat="47.22056" lon="4.94191">
        <ele>347</ele>
        <time>2020-05-21T08:31:32.000Z</time>
      </trkpt>
      <trkpt lat="47.22056" lon="4.94193">
        <ele>347</ele>
        <time>2020-05-21T08:31:35.000Z</time>
      </trkpt>
      <trkpt lat="47.22058" lon="4.94196">
        <ele>347</ele>
        <time>2020-05-21T08:31:37.000Z</time>
      </trkpt>
      <trkpt lat="47.2206" lon="4.94198">
        <ele>346.89399936</ele>
        <time>2020-05-21T08:31:39.000Z</time>
      </trkpt>
      <trkpt lat="47.22061" lon="4.94201">
        <ele>346.69399936</ele>
        <time>2020-05-21T08:31:41.000Z</time>
      </trkpt>
      <trkpt lat="47.22063" lon="4.94204">
        <ele>346.49399936</ele>
        <time>2020-05-21T08:31:43.000Z</time>
      </trkpt>
      <trkpt lat="47.22064" lon="4.94206">
        <ele>346.29399936</ele>
        <time>2020-05-21T08:31:45.000Z</time>
      </trkpt>
      <trkpt lat="47.22066" lon="4.94209">
        <ele>346.09399936</ele>
        <time>2020-05-21T08:31:47.000Z</time>
      </trkpt>
      <trkpt lat="47.22068" lon="4.94212">
        <ele>345.89399936</ele>
        <time>2020-05-21T08:31:49.000Z</time>
      </trkpt>
      <trkpt lat="47.22069" lon="4.94215">
        <ele>345.69399936</ele>
        <time>2020-05-21T08:31:51.000Z</time>
      </trkpt>
      <trkpt lat="47.22071" lon="4.94219">
        <ele>345.49399936</ele>
        <time>2020-05-21T08:31:53.000Z</time>
      </trkpt>
      <trkpt lat="47.22073" lon="4.94222">
        <ele>345.29399936</ele>
        <time>2020-05-21T08:31:55.000Z</time>
      </trkpt>
      <trkpt lat="47.22074" lon="4.94225">
        <ele>344.98799872</ele>
        <time>2020-05-21T08:31:58.000Z</time>
      </trkpt>
      <trkpt lat="47.22076" lon="4.94228">
        <ele>344.58799872</ele>
        <time>2020-05-21T08:32:00.000Z</time>
      </trkpt>
      <trkpt lat="47.22077" lon="4.94232">
        <ele>344.18799872</ele>
        <time>2020-05-21T08:32:02.000Z</time>
      </trkpt>
      <trkpt lat="47.22078" lon="4.94233">
        <ele>343.98799872</ele>
        <time>2020-05-21T08:32:03.000Z</time>
      </trkpt>
      <trkpt lat="47.2208" lon="4.94236">
        <ele>343.58799872</ele>
        <time>2020-05-21T08:32:05.000Z</time>
      </trkpt>
      <trkpt lat="47.22081" lon="4.94239">
        <ele>343.18799872</ele>
        <time>2020-05-21T08:32:07.000Z</time>
      </trkpt>
      <trkpt lat="47.22083" lon="4.94242">
        <ele>343</ele>
        <time>2020-05-21T08:32:09.000Z</time>
      </trkpt>
      <trkpt lat="47.22086" lon="4.94244">
        <ele>343</ele>
        <time>2020-05-21T08:32:11.000Z</time>
      </trkpt>
      <trkpt lat="47.22087" lon="4.94247">
        <ele>343</ele>
        <time>2020-05-21T08:32:13.000Z</time>
      </trkpt>
      <trkpt lat="47.22088" lon="4.9425">
        <ele>343</ele>
        <time>2020-05-21T08:32:15.000Z</time>
      </trkpt>
      <trkpt lat="47.2209" lon="4.94253">
        <ele>343</ele>
        <time>2020-05-21T08:32:17.000Z</time>
      </trkpt>
      <trkpt lat="47.22092" lon="4.9425">
        <ele>343.10600064</ele>
        <time>2020-05-21T08:32:19.000Z</time>
      </trkpt>
      <trkpt lat="47.22093" lon="4.94247">
        <ele>343.20600064</ele>
        <time>2020-05-21T08:32:20.000Z</time>
      </trkpt>
      <trkpt lat="47.22092" lon="4.9424">
        <ele>343.50600064</ele>
        <time>2020-05-21T08:32:23.000Z</time>
      </trkpt>
      <trkpt lat="47.22093" lon="4.94238">
        <ele>343.60600064</ele>
        <time>2020-05-21T08:32:24.000Z</time>
      </trkpt>
      <trkpt lat="47.22095" lon="4.94237">
        <ele>343.90600064</ele>
        <time>2020-05-21T08:32:27.000Z</time>
      </trkpt>
      <trkpt lat="47.22094" lon="4.94239">
        <ele>344</ele>
        <time>2020-05-21T08:32:29.000Z</time>
      </trkpt>
      <trkpt lat="47.22093" lon="4.94242">
        <ele>344</ele>
        <time>2020-05-21T08:32:31.000Z</time>
      </trkpt>
      <trkpt lat="47.22092" lon="4.94244">
        <ele>344</ele>
        <time>2020-05-21T08:32:35.000Z</time>
      </trkpt>
      <trkpt lat="47.22093" lon="4.9425">
        <ele>344</ele>
        <time>2020-05-21T08:32:52.000Z</time>
      </trkpt>
      <trkpt lat="47.22094" lon="4.94253">
        <ele>344</ele>
        <time>2020-05-21T08:32:57.000Z</time>
      </trkpt>
      <trkpt lat="47.22095" lon="4.94256">
        <ele>344</ele>
        <time>2020-05-21T08:32:59.000Z</time>
      </trkpt>
      <trkpt lat="47.22097" lon="4.9426">
        <ele>344</ele>
        <time>2020-05-21T08:33:01.000Z</time>
      </trkpt>
      <trkpt lat="47.22099" lon="4.94263">
        <ele>344</ele>
        <time>2020-05-21T08:33:03.000Z</time>
      </trkpt>
      <trkpt lat="47.221" lon="4.94266">
        <ele>344</ele>
        <time>2020-05-21T08:33:05.000Z</time>
      </trkpt>
      <trkpt lat="47.22101" lon="4.94269">
        <ele>344</ele>
        <time>2020-05-21T08:33:07.000Z</time>
      </trkpt>
      <trkpt lat="47.22103" lon="4.94272">
        <ele>343.89399936</ele>
        <time>2020-05-21T08:33:09.000Z</time>
      </trkpt>
      <trkpt lat="47.22105" lon="4.94274">
        <ele>343.79399936</ele>
        <time>2020-05-21T08:33:10.000Z</time>
      </trkpt>
      <trkpt lat="47.22106" lon="4.94276">
        <ele>343.69399936</ele>
        <time>2020-05-21T08:33:11.000Z</time>
      </trkpt>
      <trkpt lat="47.22107" lon="4.94279">
        <ele>343.49399936</ele>
        <time>2020-05-21T08:33:13.000Z</time>
      </trkpt>
      <trkpt lat="47.22109" lon="4.94282">
        <ele>343.29399936</ele>
        <time>2020-05-21T08:33:15.000Z</time>
      </trkpt>
      <trkpt lat="47.22111" lon="4.94286">
        <ele>343.09399936</ele>
        <time>2020-05-21T08:33:17.000Z</time>
      </trkpt>
      <trkpt lat="47.22112" lon="4.94288">
        <ele>342.89399936</ele>
        <time>2020-05-21T08:33:19.000Z</time>
      </trkpt>
      <trkpt lat="47.22114" lon="4.94291">
        <ele>342.69399936</ele>
        <time>2020-05-21T08:33:21.000Z</time>
      </trkpt>
      <trkpt lat="47.22115" lon="4.94295">
        <ele>342.49399936</ele>
        <time>2020-05-21T08:33:23.000Z</time>
      </trkpt>
      <trkpt lat="47.22116" lon="4.94298">
        <ele>342.29399936</ele>
        <time>2020-05-21T08:33:25.000Z</time>
      </trkpt>
      <trkpt lat="47.22118" lon="4.94302">
        <ele>342.09399936</ele>
        <time>2020-05-21T08:33:27.000Z</time>
      </trkpt>
      <trkpt lat="47.2212" lon="4.94306">
        <ele>342</ele>
        <time>2020-05-21T08:33:29.000Z</time>
      </trkpt>
      <trkpt lat="47.22122" lon="4.94309">
        <ele>342</ele>
        <time>2020-05-21T08:33:31.000Z</time>
      </trkpt>
      <trkpt lat="47.22122" lon="4.94313">
        <ele>342</ele>
        <time>2020-05-21T08:33:33.000Z</time>
      </trkpt>
      <trkpt lat="47.22123" lon="4.94317">
        <ele>342</ele>
        <time>2020-05-21T08:33:35.000Z</time>
      </trkpt>
      <trkpt lat="47.22124" lon="4.9432">
        <ele>342</ele>
        <time>2020-05-21T08:33:37.000Z</time>
      </trkpt>
      <trkpt lat="47.22124" lon="4.94323">
        <ele>342</ele>
        <time>2020-05-21T08:33:39.000Z</time>
      </trkpt>
      <trkpt lat="47.22125" lon="4.94326">
        <ele>342</ele>
        <time>2020-05-21T08:33:42.000Z</time>
      </trkpt>
      <trkpt lat="47.22125" lon="4.94329">
        <ele>342</ele>
        <time>2020-05-21T08:33:44.000Z</time>
      </trkpt>
      <trkpt lat="47.22125" lon="4.94332">
        <ele>342</ele>
        <time>2020-05-21T08:33:46.000Z</time>
      </trkpt>
      <trkpt lat="47.22126" lon="4.94335">
        <ele>342</ele>
        <time>2020-05-21T08:33:48.000Z</time>
      </trkpt>
      <trkpt lat="47.22125" lon="4.94333">
        <ele>342</ele>
        <time>2020-05-21T08:33:57.000Z</time>
      </trkpt>
      <trkpt lat="47.22126" lon="4.9433">
        <ele>341.79980520135</ele>
        <time>2020-05-21T08:34:00.000Z</time>
      </trkpt>
      <trkpt lat="47.22126" lon="4.94328">
        <ele>340.92070056012</ele>
        <time>2020-05-21T08:34:09.000Z</time>
      </trkpt>
      <trkpt lat="47.22124" lon="4.94326">
        <ele>340.61174041943</ele>
        <time>2020-05-21T08:34:12.000Z</time>
      </trkpt>
      <trkpt lat="47.22122" lon="4.94324">
        <ele>340.19979356519</ele>
        <time>2020-05-21T08:34:16.000Z</time>
      </trkpt>
      <trkpt lat="47.22121" lon="4.94322">
        <ele>339.97599744</ele>
        <time>2020-05-21T08:34:18.000Z</time>
      </trkpt>
      <trkpt lat="47.2212" lon="4.9432">
        <ele>338.77599744</ele>
        <time>2020-05-21T08:34:21.000Z</time>
      </trkpt>
      <trkpt lat="47.22118" lon="4.94318">
        <ele>337.97599744</ele>
        <time>2020-05-21T08:34:23.000Z</time>
      </trkpt>
      <trkpt lat="47.2211" lon="4.94316">
        <ele>333.57599744</ele>
        <time>2020-05-21T08:34:34.000Z</time>
      </trkpt>
      <trkpt lat="47.22107" lon="4.94316">
        <ele>332.77599744</ele>
        <time>2020-05-21T08:34:36.000Z</time>
      </trkpt>
      <trkpt lat="47.22104" lon="4.94315">
        <ele>331.99399936</ele>
        <time>2020-05-21T08:34:38.000Z</time>
      </trkpt>
      <trkpt lat="47.22101" lon="4.94313">
        <ele>331.69399936</ele>
        <time>2020-05-21T08:34:41.000Z</time>
      </trkpt>
      <trkpt lat="47.22098" lon="4.9431">
        <ele>331.29399936</ele>
        <time>2020-05-21T08:34:45.000Z</time>
      </trkpt>
      <trkpt lat="47.22101" lon="4.94316">
        <ele>331</ele>
        <time>2020-05-21T08:34:55.000Z</time>
      </trkpt>
      <trkpt lat="47.22102" lon="4.94315">
        <ele>330.69399936</ele>
        <time>2020-05-21T08:35:01.000Z</time>
      </trkpt>
      <trkpt lat="47.221" lon="4.94301">
        <ele>330.29737643782</ele>
        <time>2020-05-21T08:35:11.000Z</time>
      </trkpt>
      <trkpt lat="47.22097" lon="4.94287">
        <ele>330.97764791201</ele>
        <time>2020-05-21T08:35:18.000Z</time>
      </trkpt>
      <trkpt lat="47.22093" lon="4.94274">
        <ele>331</ele>
        <time>2020-05-21T08:35:27.000Z</time>
      </trkpt>
      <trkpt lat="47.22086" lon="4.94264">
        <ele>331</ele>
        <time>2020-05-21T08:35:34.000Z</time>
      </trkpt>
      <trkpt lat="47.2208" lon="4.94253">
        <ele>331.30569465188</ele>
        <time>2020-05-21T08:35:41.000Z</time>
      </trkpt>
      <trkpt lat="47.22077" lon="4.94249">
        <ele>331.60539466416</ele>
        <time>2020-05-21T08:35:44.000Z</time>
      </trkpt>
      <trkpt lat="47.22075" lon="4.94248">
        <ele>331.80519467234</ele>
        <time>2020-05-21T08:35:46.000Z</time>
      </trkpt>
      <trkpt lat="47.22075" lon="4.94245">
        <ele>332.19941603113</ele>
        <time>2020-05-21T08:35:50.000Z</time>
      </trkpt>
      <trkpt lat="47.22073" lon="4.94243">
        <ele>332.39396856031</ele>
        <time>2020-05-21T08:35:52.000Z</time>
      </trkpt>
      <trkpt lat="47.22072" lon="4.94241">
        <ele>332.58852108949</ele>
        <time>2020-05-21T08:35:54.000Z</time>
      </trkpt>
      <trkpt lat="47.2207" lon="4.94235">
        <ele>332.97762614786</ele>
        <time>2020-05-21T08:35:58.000Z</time>
      </trkpt>
      <trkpt lat="47.2207" lon="4.94232">
        <ele>333</ele>
        <time>2020-05-21T08:36:01.000Z</time>
      </trkpt>
      <trkpt lat="47.22068" lon="4.9423">
        <ele>333</ele>
        <time>2020-05-21T08:36:03.000Z</time>
      </trkpt>
      <trkpt lat="47.22066" lon="4.94224">
        <ele>333</ele>
        <time>2020-05-21T08:36:07.000Z</time>
      </trkpt>
      <trkpt lat="47.22064" lon="4.94221">
        <ele>333.10443409515</ele>
        <time>2020-05-21T08:36:09.000Z</time>
      </trkpt>
      <trkpt lat="47.22056" lon="4.94219">
        <ele>333.40000050443</ele>
        <time>2020-05-21T08:36:12.000Z</time>
      </trkpt>
      <trkpt lat="47.22055" lon="4.94217">
        <ele>333.59704477729</ele>
        <time>2020-05-21T08:36:14.000Z</time>
      </trkpt>
      <trkpt lat="47.22048" lon="4.94207">
        <ele>334</ele>
        <time>2020-05-21T08:36:21.000Z</time>
      </trkpt>
      <trkpt lat="47.22042" lon="4.94207">
        <ele>334</ele>
        <time>2020-05-21T08:36:27.000Z</time>
      </trkpt>
      <trkpt lat="47.22038" lon="4.94206">
        <ele>334</ele>
        <time>2020-05-21T08:36:37.000Z</time>
      </trkpt>
      <trkpt lat="47.22036" lon="4.94208">
        <ele>334.70600064</ele>
        <time>2020-05-21T08:36:45.000Z</time>
      </trkpt>
      <trkpt lat="47.22036" lon="4.94201">
        <ele>335</ele>
        <time>2020-05-21T08:36:49.000Z</time>
      </trkpt>
      <trkpt lat="47.22037" lon="4.94188">
        <ele>335</ele>
        <time>2020-05-21T08:36:58.000Z</time>
      </trkpt>
      <trkpt lat="47.22031" lon="4.94178">
        <ele>335</ele>
        <time>2020-05-21T08:37:08.000Z</time>
      </trkpt>
      <trkpt lat="47.22025" lon="4.94165">
        <ele>335</ele>
        <time>2020-05-21T08:37:16.000Z</time>
      </trkpt>
      <trkpt lat="47.2202" lon="4.94154">
        <ele>335</ele>
        <time>2020-05-21T08:37:24.000Z</time>
      </trkpt>
      <trkpt lat="47.22017" lon="4.94141">
        <ele>335</ele>
        <time>2020-05-21T08:37:31.000Z</time>
      </trkpt>
      <trkpt lat="47.22015" lon="4.94128">
        <ele>335.10600064</ele>
        <time>2020-05-21T08:37:39.000Z</time>
      </trkpt>
      <trkpt lat="47.22015" lon="4.94125">
        <ele>335.40600064</ele>
        <time>2020-05-21T08:37:42.000Z</time>
      </trkpt>
      <trkpt lat="47.22008" lon="4.94117">
        <ele>336</ele>
        <time>2020-05-21T08:37:48.000Z</time>
      </trkpt>
      <trkpt lat="47.22002" lon="4.94106">
        <ele>336</ele>
        <time>2020-05-21T08:37:54.000Z</time>
      </trkpt>
      <trkpt lat="47.22001" lon="4.94104">
        <ele>336</ele>
        <time>2020-05-21T08:37:56.000Z</time>
      </trkpt>
      <trkpt lat="47.21998" lon="4.9409">
        <ele>336</ele>
        <time>2020-05-21T08:38:05.000Z</time>
      </trkpt>
      <trkpt lat="47.21997" lon="4.94085">
        <ele>336</ele>
        <time>2020-05-21T08:38:08.000Z</time>
      </trkpt>
      <trkpt lat="47.21996" lon="4.94082">
        <ele>336</ele>
        <time>2020-05-21T08:38:10.000Z</time>
      </trkpt>
      <trkpt lat="47.21996" lon="4.94079">
        <ele>336</ele>
        <time>2020-05-21T08:38:12.000Z</time>
      </trkpt>
      <trkpt lat="47.21995" lon="4.94076">
        <ele>336</ele>
        <time>2020-05-21T08:38:14.000Z</time>
      </trkpt>
      <trkpt lat="47.21994" lon="4.94072">
        <ele>336</ele>
        <time>2020-05-21T08:38:16.000Z</time>
      </trkpt>
      <trkpt lat="47.21994" lon="4.94069">
        <ele>336</ele>
        <time>2020-05-21T08:38:18.000Z</time>
      </trkpt>
      <trkpt lat="47.21994" lon="4.94066">
        <ele>336</ele>
        <time>2020-05-21T08:38:20.000Z</time>
      </trkpt>
      <trkpt lat="47.21993" lon="4.94063">
        <ele>336</ele>
        <time>2020-05-21T08:38:22.000Z</time>
      </trkpt>
      <trkpt lat="47.21992" lon="4.94059">
        <ele>336</ele>
        <time>2020-05-21T08:38:24.000Z</time>
      </trkpt>
      <trkpt lat="47.2199" lon="4.94057">
        <ele>336</ele>
        <time>2020-05-21T08:38:26.000Z</time>
      </trkpt>
      <trkpt lat="47.21989" lon="4.94054">
        <ele>336</ele>
        <time>2020-05-21T08:38:29.000Z</time>
      </trkpt>
      <trkpt lat="47.21988" lon="4.94051">
        <ele>336</ele>
        <time>2020-05-21T08:38:31.000Z</time>
      </trkpt>
      <trkpt lat="47.21987" lon="4.94048">
        <ele>336</ele>
        <time>2020-05-21T08:38:34.000Z</time>
      </trkpt>
      <trkpt lat="47.21986" lon="4.94039">
        <ele>336</ele>
        <time>2020-05-21T08:38:40.000Z</time>
      </trkpt>
      <trkpt lat="47.21985" lon="4.94035">
        <ele>336</ele>
        <time>2020-05-21T08:38:42.000Z</time>
      </trkpt>
      <trkpt lat="47.21984" lon="4.94032">
        <ele>336</ele>
        <time>2020-05-21T08:38:44.000Z</time>
      </trkpt>
      <trkpt lat="47.21983" lon="4.94029">
        <ele>336</ele>
        <time>2020-05-21T08:38:46.000Z</time>
      </trkpt>
      <trkpt lat="47.21983" lon="4.94026">
        <ele>336</ele>
        <time>2020-05-21T08:38:48.000Z</time>
      </trkpt>
      <trkpt lat="47.21982" lon="4.94023">
        <ele>336</ele>
        <time>2020-05-21T08:38:50.000Z</time>
      </trkpt>
      <trkpt lat="47.21982" lon="4.94019">
        <ele>336</ele>
        <time>2020-05-21T08:38:52.000Z</time>
      </trkpt>
      <trkpt lat="47.21982" lon="4.94016">
        <ele>336</ele>
        <time>2020-05-21T08:38:54.000Z</time>
      </trkpt>
      <trkpt lat="47.21982" lon="4.94014">
        <ele>336</ele>
        <time>2020-05-21T08:38:56.000Z</time>
      </trkpt>
      <trkpt lat="47.21983" lon="4.94011">
        <ele>336.10600064</ele>
        <time>2020-05-21T08:38:59.000Z</time>
      </trkpt>
      <trkpt lat="47.21984" lon="4.94004">
        <ele>336.50600064</ele>
        <time>2020-05-21T08:39:03.000Z</time>
      </trkpt>
      <trkpt lat="47.21985" lon="4.94001">
        <ele>336.70600064</ele>
        <time>2020-05-21T08:39:05.000Z</time>
      </trkpt>
      <trkpt lat="47.21984" lon="4.93992">
        <ele>337</ele>
        <time>2020-05-21T08:39:09.000Z</time>
      </trkpt>
      <trkpt lat="47.21984" lon="4.93987">
        <ele>337</ele>
        <time>2020-05-21T08:39:12.000Z</time>
      </trkpt>
      <trkpt lat="47.21985" lon="4.93983">
        <ele>337</ele>
        <time>2020-05-21T08:39:14.000Z</time>
      </trkpt>
      <trkpt lat="47.21985" lon="4.93976">
        <ele>337.00600064</ele>
        <time>2020-05-21T08:39:18.000Z</time>
      </trkpt>
      <trkpt lat="47.21985" lon="4.93963">
        <ele>337.80600064</ele>
        <time>2020-05-21T08:39:26.000Z</time>
      </trkpt>
      <trkpt lat="47.21983" lon="4.93957">
        <ele>338.10600064</ele>
        <time>2020-05-21T08:39:29.000Z</time>
      </trkpt>
      <trkpt lat="47.21982" lon="4.93951">
        <ele>338.40600064</ele>
        <time>2020-05-21T08:39:32.000Z</time>
      </trkpt>
      <trkpt lat="47.21982" lon="4.93937">
        <ele>339.29737643782</ele>
        <time>2020-05-21T08:39:41.000Z</time>
      </trkpt>
      <trkpt lat="47.21985" lon="4.93923">
        <ele>339.97764791201</ele>
        <time>2020-05-21T08:39:48.000Z</time>
      </trkpt>
      <trkpt lat="47.21987" lon="4.9391">
        <ele>340</ele>
        <time>2020-05-21T08:39:56.000Z</time>
      </trkpt>
      <trkpt lat="47.2199" lon="4.93897">
        <ele>340</ele>
        <time>2020-05-21T08:40:05.000Z</time>
      </trkpt>
      <trkpt lat="47.2199" lon="4.93883">
        <ele>340</ele>
        <time>2020-05-21T08:40:15.000Z</time>
      </trkpt>
      <trkpt lat="47.21983" lon="4.93874">
        <ele>340</ele>
        <time>2020-05-21T08:40:22.000Z</time>
      </trkpt>
      <trkpt lat="47.21977" lon="4.93862">
        <ele>340.38825958057</ele>
        <time>2020-05-21T08:40:32.000Z</time>
      </trkpt>
      <trkpt lat="47.21974" lon="4.93858">
        <ele>341.30600064</ele>
        <time>2020-05-21T08:40:41.000Z</time>
      </trkpt>
      <trkpt lat="47.21974" lon="4.93869">
        <ele>342</ele>
        <time>2020-05-21T08:40:48.000Z</time>
      </trkpt>
      <trkpt lat="47.21973" lon="4.93871">
        <ele>342</ele>
        <time>2020-05-21T08:40:53.000Z</time>
      </trkpt>
      <trkpt lat="47.21971" lon="4.9387">
        <ele>342</ele>
        <time>2020-05-21T08:41:07.000Z</time>
      </trkpt>
      <trkpt lat="47.21972" lon="4.93867">
        <ele>342</ele>
        <time>2020-05-21T08:41:14.000Z</time>
      </trkpt>
      <trkpt lat="47.21971" lon="4.93864">
        <ele>342</ele>
        <time>2020-05-21T08:41:16.000Z</time>
      </trkpt>
      <trkpt lat="47.21972" lon="4.93861">
        <ele>342.00600064</ele>
        <time>2020-05-21T08:41:18.000Z</time>
      </trkpt>
      <trkpt lat="47.21972" lon="4.93859">
        <ele>342.50600064</ele>
        <time>2020-05-21T08:41:23.000Z</time>
      </trkpt>
      <trkpt lat="47.2197" lon="4.93858">
        <ele>342.80600064</ele>
        <time>2020-05-21T08:41:26.000Z</time>
      </trkpt>
      <trkpt lat="47.21969" lon="4.93856">
        <ele>343.00600064</ele>
        <time>2020-05-21T08:41:28.000Z</time>
      </trkpt>
      <trkpt lat="47.21966" lon="4.93856">
        <ele>343.50600064</ele>
        <time>2020-05-21T08:41:33.000Z</time>
      </trkpt>
      <trkpt lat="47.21957" lon="4.93852">
        <ele>345.41200128</ele>
        <time>2020-05-21T08:41:45.000Z</time>
      </trkpt>
      <trkpt lat="47.21954" lon="4.93849">
        <ele>348.93294373603</ele>
        <time>2020-05-21T08:41:58.000Z</time>
      </trkpt>
      <trkpt lat="47.21954" lon="4.93847">
        <ele>351.09165916374</ele>
        <time>2020-05-21T08:42:05.000Z</time>
      </trkpt>
      <trkpt lat="47.21952" lon="4.93847">
        <ele>352.10600064</ele>
        <time>2020-05-21T08:42:09.000Z</time>
      </trkpt>
      <trkpt lat="47.2195" lon="4.93845">
        <ele>352.40600064</ele>
        <time>2020-05-21T08:42:12.000Z</time>
      </trkpt>
      <trkpt lat="47.2195" lon="4.93842">
        <ele>352.70600064</ele>
        <time>2020-05-21T08:42:15.000Z</time>
      </trkpt>
      <trkpt lat="47.2195" lon="4.93839">
        <ele>353.20600064</ele>
        <time>2020-05-21T08:42:20.000Z</time>
      </trkpt>
      <trkpt lat="47.2195" lon="4.93836">
        <ele>353.50600064</ele>
        <time>2020-05-21T08:42:23.000Z</time>
      </trkpt>
      <trkpt lat="47.21948" lon="4.93837">
        <ele>353.70600064</ele>
        <time>2020-05-21T08:42:25.000Z</time>
      </trkpt>
      <trkpt lat="47.21945" lon="4.93842">
        <ele>354</ele>
        <time>2020-05-21T08:42:36.000Z</time>
      </trkpt>
      <trkpt lat="47.21947" lon="4.93837">
        <ele>357.0080160372</ele>
        <time>2020-05-21T08:42:58.000Z</time>
      </trkpt>
      <trkpt lat="47.21945" lon="4.93837">
        <ele>358.01002068779</ele>
        <time>2020-05-21T08:43:03.000Z</time>
      </trkpt>
      <trkpt lat="47.21943" lon="4.9384">
        <ele>359.00600064</ele>
        <time>2020-05-21T08:43:08.000Z</time>
      </trkpt>
      <trkpt lat="47.2194" lon="4.9384">
        <ele>359.40600064</ele>
        <time>2020-05-21T08:43:12.000Z</time>
      </trkpt>
      <trkpt lat="47.21939" lon="4.93842">
        <ele>359.70600064</ele>
        <time>2020-05-21T08:43:15.000Z</time>
      </trkpt>
      <trkpt lat="47.21934" lon="4.93842">
        <ele>363.56656926734</ele>
        <time>2020-05-21T08:43:36.000Z</time>
      </trkpt>
      <trkpt lat="47.21944" lon="4.93842">
        <ele>364.80020643481</ele>
        <time>2020-05-21T08:43:46.000Z</time>
      </trkpt>
      <trkpt lat="47.21938" lon="4.93833">
        <ele>366.41200128</ele>
        <time>2020-05-21T08:43:55.000Z</time>
      </trkpt>
      <trkpt lat="47.21934" lon="4.9383">
        <ele>367.10600064</ele>
        <time>2020-05-21T08:43:59.000Z</time>
      </trkpt>
      <trkpt lat="47.21933" lon="4.93829">
        <ele>367.40600064</ele>
        <time>2020-05-21T08:44:02.000Z</time>
      </trkpt>
      <trkpt lat="47.21931" lon="4.93827">
        <ele>367.60600064</ele>
        <time>2020-05-21T08:44:04.000Z</time>
      </trkpt>
      <trkpt lat="47.21931" lon="4.93824">
        <ele>368.81200128</ele>
        <time>2020-05-21T08:44:12.000Z</time>
      </trkpt>
      <trkpt lat="47.21926" lon="4.93828">
        <ele>370.80600064</ele>
        <time>2020-05-21T08:44:26.000Z</time>
      </trkpt>
      <trkpt lat="47.21924" lon="4.93828">
        <ele>371.21200128</ele>
        <time>2020-05-21T08:44:29.000Z</time>
      </trkpt>
      <trkpt lat="47.21923" lon="4.93831">
        <ele>372.01200128</ele>
        <time>2020-05-21T08:44:33.000Z</time>
      </trkpt>
      <trkpt lat="47.21925" lon="4.93831">
        <ele>373.20600064</ele>
        <time>2020-05-21T08:44:40.000Z</time>
      </trkpt>
      <trkpt lat="47.21925" lon="4.93828">
        <ele>375.21200128</ele>
        <time>2020-05-21T08:44:54.000Z</time>
      </trkpt>
      <trkpt lat="47.21926" lon="4.93826">
        <ele>376.70600064</ele>
        <time>2020-05-21T08:45:05.000Z</time>
      </trkpt>
      <trkpt lat="47.21917" lon="4.93828">
        <ele>380.20600064</ele>
        <time>2020-05-21T08:45:30.000Z</time>
      </trkpt>
      <trkpt lat="47.21916" lon="4.93825">
        <ele>381.21200128</ele>
        <time>2020-05-21T08:45:39.000Z</time>
      </trkpt>
      <trkpt lat="47.21916" lon="4.93823">
        <ele>383.00600064</ele>
        <time>2020-05-21T08:45:48.000Z</time>
      </trkpt>
      <trkpt lat="47.21911" lon="4.93824">
        <ele>384.21200128</ele>
        <time>2020-05-21T08:45:59.000Z</time>
      </trkpt>
      <trkpt lat="47.2191" lon="4.93825">
        <ele>386</ele>
        <time>2020-05-21T08:46:09.000Z</time>
      </trkpt>
      <trkpt lat="47.21909" lon="4.93828">
        <ele>386</ele>
        <time>2020-05-21T08:46:14.000Z</time>
      </trkpt>
      <trkpt lat="47.21907" lon="4.93828">
        <ele>386.61200128</ele>
        <time>2020-05-21T08:46:21.000Z</time>
      </trkpt>
      <trkpt lat="47.21908" lon="4.93827">
        <ele>387.21200128</ele>
        <time>2020-05-21T08:46:24.000Z</time>
      </trkpt>
      <trkpt lat="47.21912" lon="4.93826">
        <ele>388</ele>
        <time>2020-05-21T08:46:29.000Z</time>
      </trkpt>
      <trkpt lat="47.21914" lon="4.93825">
        <ele>388</ele>
        <time>2020-05-21T08:46:32.000Z</time>
      </trkpt>
      <trkpt lat="47.21916" lon="4.93825">
        <ele>388</ele>
        <time>2020-05-21T08:46:39.000Z</time>
      </trkpt>
      <trkpt lat="47.21918" lon="4.93826">
        <ele>388</ele>
        <time>2020-05-21T08:46:48.000Z</time>
      </trkpt>
      <trkpt lat="47.21917" lon="4.93829">
        <ele>389</ele>
        <time>2020-05-21T08:47:11.000Z</time>
      </trkpt>
      <trkpt lat="47.21916" lon="4.93829">
        <ele>389</ele>
        <time>2020-05-21T08:47:13.000Z</time>
      </trkpt>
      <trkpt lat="47.21914" lon="4.93827">
        <ele>389.01200128</ele>
        <time>2020-05-21T08:47:18.000Z</time>
      </trkpt>
      <trkpt lat="47.21912" lon="4.93827">
        <ele>389.61200128</ele>
        <time>2020-05-21T08:47:21.000Z</time>
      </trkpt>
      <trkpt lat="47.21911" lon="4.93827">
        <ele>390.01200128</ele>
        <time>2020-05-21T08:47:23.000Z</time>
      </trkpt>
      <trkpt lat="47.21909" lon="4.93827">
        <ele>390.41200128</ele>
        <time>2020-05-21T08:47:25.000Z</time>
      </trkpt>
      <trkpt lat="47.21906" lon="4.93828">
        <ele>390.81200128</ele>
        <time>2020-05-21T08:47:27.000Z</time>
      </trkpt>
      <trkpt lat="47.21904" lon="4.93828">
        <ele>391.02400256</ele>
        <time>2020-05-21T08:47:28.000Z</time>
      </trkpt>
      <trkpt lat="47.21903" lon="4.93829">
        <ele>392.62400256</ele>
        <time>2020-05-21T08:47:32.000Z</time>
      </trkpt>
      <trkpt lat="47.21902" lon="4.93829">
        <ele>393.02400256</ele>
        <time>2020-05-21T08:47:33.000Z</time>
      </trkpt>
      <trkpt lat="47.21902" lon="4.93826">
        <ele>395.01200128</ele>
        <time>2020-05-21T08:47:38.000Z</time>
      </trkpt>
      <trkpt lat="47.21901" lon="4.93826">
        <ele>396.41200128</ele>
        <time>2020-05-21T08:47:45.000Z</time>
      </trkpt>
      <trkpt lat="47.21899" lon="4.93826">
        <ele>398.51800192</ele>
        <time>2020-05-21T08:47:53.000Z</time>
      </trkpt>
      <trkpt lat="47.21897" lon="4.93827">
        <ele>399.11800192</ele>
        <time>2020-05-21T08:47:55.000Z</time>
      </trkpt>
      <trkpt lat="47.21894" lon="4.9383">
        <ele>400</ele>
        <time>2020-05-21T08:47:59.000Z</time>
      </trkpt>
      <trkpt lat="47.21893" lon="4.93832">
        <ele>400</ele>
        <time>2020-05-21T08:48:04.000Z</time>
      </trkpt>
      <trkpt lat="47.21891" lon="4.93834">
        <ele>400.10600064</ele>
        <time>2020-05-21T08:48:09.000Z</time>
      </trkpt>
      <trkpt lat="47.21893" lon="4.93836">
        <ele>401.02344</ele>
        <time>2020-05-21T08:48:18.000Z</time>
      </trkpt>
      <trkpt lat="47.21891" lon="4.93837">
        <ele>402.195315</ele>
        <time>2020-05-21T08:48:21.000Z</time>
      </trkpt>
      <trkpt lat="47.2189" lon="4.93839">
        <ele>405.08401704918</ele>
        <time>2020-05-21T08:48:29.000Z</time>
      </trkpt>
      <trkpt lat="47.21886" lon="4.93849">
        <ele>412</ele>
        <time>2020-05-21T08:49:08.000Z</time>
      </trkpt>
      <trkpt lat="47.21886" lon="4.93851">
        <ele>412</ele>
        <time>2020-05-21T08:49:14.000Z</time>
      </trkpt>
      <trkpt lat="47.21887" lon="4.93854">
        <ele>412.01200128</ele>
        <time>2020-05-21T08:49:18.000Z</time>
      </trkpt>
      <trkpt lat="47.21888" lon="4.93854">
        <ele>413.21200128</ele>
        <time>2020-05-21T08:49:24.000Z</time>
      </trkpt>
      <trkpt lat="47.21889" lon="4.93856">
        <ele>415.01200128</ele>
        <time>2020-05-21T08:49:33.000Z</time>
      </trkpt>
      <trkpt lat="47.21889" lon="4.93858">
        <ele>417.01200128</ele>
        <time>2020-05-21T08:49:43.000Z</time>
      </trkpt>
      <trkpt lat="47.21889" lon="4.93861">
        <ele>419.93814560867</ele>
        <time>2020-05-21T08:50:02.000Z</time>
      </trkpt>
      <trkpt lat="47.21889" lon="4.93862">
        <ele>420.4536098663</ele>
        <time>2020-05-21T08:50:03.000Z</time>
      </trkpt>
      <trkpt lat="47.21888" lon="4.93864">
        <ele>422.00000263918</ele>
        <time>2020-05-21T08:50:06.000Z</time>
      </trkpt>
      <trkpt lat="47.21886" lon="4.93865">
        <ele>423</ele>
        <time>2020-05-21T08:50:16.000Z</time>
      </trkpt>
      <trkpt lat="47.21884" lon="4.93866">
        <ele>423.31800192</ele>
        <time>2020-05-21T08:50:19.000Z</time>
      </trkpt>
      <trkpt lat="47.21882" lon="4.93868">
        <ele>424.51800192</ele>
        <time>2020-05-21T08:50:23.000Z</time>
      </trkpt>
      <trkpt lat="47.21882" lon="4.93871">
        <ele>426</ele>
        <time>2020-05-21T08:50:28.000Z</time>
      </trkpt>
      <trkpt lat="47.21884" lon="4.93869">
        <ele>426</ele>
        <time>2020-05-21T08:52:17.000Z</time>
      </trkpt>
      <trkpt lat="47.21886" lon="4.93869">
        <ele>426</ele>
        <time>2020-05-21T08:53:26.000Z</time>
      </trkpt>
      <trkpt lat="47.21888" lon="4.93869">
        <ele>425.99399936</ele>
        <time>2020-05-21T08:53:28.000Z</time>
      </trkpt>
      <trkpt lat="47.21889" lon="4.93868">
        <ele>424.49399936</ele>
        <time>2020-05-21T08:53:43.000Z</time>
      </trkpt>
      <trkpt lat="47.21887" lon="4.93869">
        <ele>424.00600064</ele>
        <time>2020-05-21T08:53:58.000Z</time>
      </trkpt>
      <trkpt lat="47.21886" lon="4.9387">
        <ele>424.60600064</ele>
        <time>2020-05-21T08:54:04.000Z</time>
      </trkpt>
      <trkpt lat="47.21884" lon="4.93871">
        <ele>426</ele>
        <time>2020-05-21T08:54:43.000Z</time>
      </trkpt>
      <trkpt lat="47.21884" lon="4.93873">
        <ele>425.49399936</ele>
        <time>2020-05-21T08:55:43.000Z</time>
      </trkpt>
      <trkpt lat="47.21884" lon="4.93871">
        <ele>424</ele>
        <time>2020-05-21T08:56:51.000Z</time>
      </trkpt>
      <trkpt lat="47.21884" lon="4.93868">
        <ele>425.01200128</ele>
        <time>2020-05-21T08:57:53.000Z</time>
      </trkpt>
      <trkpt lat="47.21882" lon="4.93867">
        <ele>425</ele>
        <time>2020-05-21T08:58:25.000Z</time>
      </trkpt>
      <trkpt lat="47.2188" lon="4.93869">
        <ele>425</ele>
        <time>2020-05-21T08:58:30.000Z</time>
      </trkpt>
      <trkpt lat="47.21879" lon="4.93871">
        <ele>425</ele>
        <time>2020-05-21T08:58:33.000Z</time>
      </trkpt>
      <trkpt lat="47.21877" lon="4.93871">
        <ele>425</ele>
        <time>2020-05-21T08:58:38.000Z</time>
      </trkpt>
      <trkpt lat="47.21875" lon="4.93873">
        <ele>425</ele>
        <time>2020-05-21T08:58:43.000Z</time>
      </trkpt>
      <trkpt lat="47.21873" lon="4.93871">
        <ele>425</ele>
        <time>2020-05-21T08:58:49.000Z</time>
      </trkpt>
      <trkpt lat="47.21871" lon="4.9387">
        <ele>425</ele>
        <time>2020-05-21T08:58:53.000Z</time>
      </trkpt>
      <trkpt lat="47.2187" lon="4.93867">
        <ele>425.1006036865</ele>
        <time>2020-05-21T08:58:59.000Z</time>
      </trkpt>
      <trkpt lat="47.21868" lon="4.93866">
        <ele>425.40241474602</ele>
        <time>2020-05-21T08:59:02.000Z</time>
      </trkpt>
      <trkpt lat="47.21867" lon="4.93865">
        <ele>426.01200128</ele>
        <time>2020-05-21T08:59:08.000Z</time>
      </trkpt>
      <trkpt lat="47.21865" lon="4.93865">
        <ele>426.81200128</ele>
        <time>2020-05-21T08:59:12.000Z</time>
      </trkpt>
      <trkpt lat="47.21863" lon="4.93864">
        <ele>427.21200128</ele>
        <time>2020-05-21T08:59:14.000Z</time>
      </trkpt>
      <trkpt lat="47.21862" lon="4.93862">
        <ele>428.20038947811</ele>
        <time>2020-05-21T08:59:20.000Z</time>
      </trkpt>
      <trkpt lat="47.21861" lon="4.93861">
        <ele>428.49221790852</ele>
        <time>2020-05-21T08:59:23.000Z</time>
      </trkpt>
      <trkpt lat="47.21859" lon="4.93859">
        <ele>428.97859862587</ele>
        <time>2020-05-21T08:59:28.000Z</time>
      </trkpt>
      <trkpt lat="47.21857" lon="4.93858">
        <ele>429.77777748514</ele>
        <time>2020-05-21T08:59:32.000Z</time>
      </trkpt>
      <trkpt lat="47.21856" lon="4.93857">
        <ele>430.39506224864</ele>
        <time>2020-05-21T08:59:35.000Z</time>
      </trkpt>
      <trkpt lat="47.21855" lon="4.93855">
        <ele>431.01200128</ele>
        <time>2020-05-21T08:59:38.000Z</time>
      </trkpt>
      <trkpt lat="47.21854" lon="4.93852">
        <ele>431.81200128</ele>
        <time>2020-05-21T08:59:42.000Z</time>
      </trkpt>
      <trkpt lat="47.21853" lon="4.93851">
        <ele>432.21200128</ele>
        <time>2020-05-21T08:59:44.000Z</time>
      </trkpt>
      <trkpt lat="47.21852" lon="4.93848">
        <ele>433.42400256</ele>
        <time>2020-05-21T08:59:49.000Z</time>
      </trkpt>
      <trkpt lat="47.21852" lon="4.93846">
        <ele>435.02400256</ele>
        <time>2020-05-21T08:59:53.000Z</time>
      </trkpt>
      <trkpt lat="47.21852" lon="4.93843">
        <ele>436.62400256</ele>
        <time>2020-05-21T08:59:57.000Z</time>
      </trkpt>
      <trkpt lat="47.21852" lon="4.93841">
        <ele>437.41200128</ele>
        <time>2020-05-21T09:00:00.000Z</time>
      </trkpt>
      <trkpt lat="47.21851" lon="4.9384">
        <ele>438.01200128</ele>
        <time>2020-05-21T09:00:03.000Z</time>
      </trkpt>
      <trkpt lat="47.21849" lon="4.9384">
        <ele>439.00600064</ele>
        <time>2020-05-21T09:00:08.000Z</time>
      </trkpt>
      <trkpt lat="47.21848" lon="4.93839">
        <ele>439.30600064</ele>
        <time>2020-05-21T09:00:11.000Z</time>
      </trkpt>
      <trkpt lat="47.21846" lon="4.93837">
        <ele>439.60600064</ele>
        <time>2020-05-21T09:00:14.000Z</time>
      </trkpt>
      <trkpt lat="47.21845" lon="4.93834">
        <ele>439.90600064</ele>
        <time>2020-05-21T09:00:17.000Z</time>
      </trkpt>
      <trkpt lat="47.21845" lon="4.93831">
        <ele>440.41200128</ele>
        <time>2020-05-21T09:00:20.000Z</time>
      </trkpt>
      <trkpt lat="47.21843" lon="4.93828">
        <ele>441.01200128</ele>
        <time>2020-05-21T09:00:23.000Z</time>
      </trkpt>
      <trkpt lat="47.21842" lon="4.93826">
        <ele>441.61200128</ele>
        <time>2020-05-21T09:00:26.000Z</time>
      </trkpt>
      <trkpt lat="47.2184" lon="4.93823">
        <ele>442.21200128</ele>
        <time>2020-05-21T09:00:29.000Z</time>
      </trkpt>
      <trkpt lat="47.21838" lon="4.93823">
        <ele>442.81200128</ele>
        <time>2020-05-21T09:00:32.000Z</time>
      </trkpt>
      <trkpt lat="47.21837" lon="4.93824">
        <ele>443.01200128</ele>
        <time>2020-05-21T09:00:33.000Z</time>
      </trkpt>
      <trkpt lat="47.21836" lon="4.93826">
        <ele>444</ele>
        <time>2020-05-21T09:00:39.000Z</time>
      </trkpt>
      <trkpt lat="47.21835" lon="4.93829">
        <ele>444</ele>
        <time>2020-05-21T09:00:42.000Z</time>
      </trkpt>
      <trkpt lat="47.21834" lon="4.93831">
        <ele>444</ele>
        <time>2020-05-21T09:00:45.000Z</time>
      </trkpt>
      <trkpt lat="47.21833" lon="4.93833">
        <ele>443.98199808</ele>
        <time>2020-05-21T09:00:48.000Z</time>
      </trkpt>
      <trkpt lat="47.21831" lon="4.93836">
        <ele>443.08199808</ele>
        <time>2020-05-21T09:00:51.000Z</time>
      </trkpt>
      <trkpt lat="47.2183" lon="4.93836">
        <ele>442.48199808</ele>
        <time>2020-05-21T09:00:53.000Z</time>
      </trkpt>
      <trkpt lat="47.21828" lon="4.93837">
        <ele>441.28199808</ele>
        <time>2020-05-21T09:00:57.000Z</time>
      </trkpt>
      <trkpt lat="47.21826" lon="4.93838">
        <ele>440.79399936</ele>
        <time>2020-05-21T09:01:00.000Z</time>
      </trkpt>
      <trkpt lat="47.21824" lon="4.9384">
        <ele>440.49399936</ele>
        <time>2020-05-21T09:01:03.000Z</time>
      </trkpt>
      <trkpt lat="47.21822" lon="4.93841">
        <ele>440.19399936</ele>
        <time>2020-05-21T09:01:06.000Z</time>
      </trkpt>
      <trkpt lat="47.2182" lon="4.93843">
        <ele>439.78799872</ele>
        <time>2020-05-21T09:01:09.000Z</time>
      </trkpt>
      <trkpt lat="47.21819" lon="4.93844">
        <ele>438.98799872</ele>
        <time>2020-05-21T09:01:13.000Z</time>
      </trkpt>
      <trkpt lat="47.21817" lon="4.93843">
        <ele>438.38799872</ele>
        <time>2020-05-21T09:01:16.000Z</time>
      </trkpt>
      <trkpt lat="47.21814" lon="4.93842">
        <ele>437.99399936</ele>
        <time>2020-05-21T09:01:18.000Z</time>
      </trkpt>
      <trkpt lat="47.21812" lon="4.93842">
        <ele>437.79399936</ele>
        <time>2020-05-21T09:01:20.000Z</time>
      </trkpt>
      <trkpt lat="47.21809" lon="4.93842">
        <ele>437.59399936</ele>
        <time>2020-05-21T09:01:22.000Z</time>
      </trkpt>
      <trkpt lat="47.21808" lon="4.93841">
        <ele>437.39399936</ele>
        <time>2020-05-21T09:01:24.000Z</time>
      </trkpt>
      <trkpt lat="47.21805" lon="4.93841">
        <ele>437.19399936</ele>
        <time>2020-05-21T09:01:26.000Z</time>
      </trkpt>
      <trkpt lat="47.21802" lon="4.9384">
        <ele>437</ele>
        <time>2020-05-21T09:01:28.000Z</time>
      </trkpt>
      <trkpt lat="47.21799" lon="4.93839">
        <ele>437</ele>
        <time>2020-05-21T09:01:30.000Z</time>
      </trkpt>
      <trkpt lat="47.21797" lon="4.93839">
        <ele>437</ele>
        <time>2020-05-21T09:01:32.000Z</time>
      </trkpt>
      <trkpt lat="47.21795" lon="4.93838">
        <ele>437</ele>
        <time>2020-05-21T09:01:35.000Z</time>
      </trkpt>
      <trkpt lat="47.21792" lon="4.93838">
        <ele>436.99399936</ele>
        <time>2020-05-21T09:01:38.000Z</time>
      </trkpt>
      <trkpt lat="47.2179" lon="4.93838">
        <ele>436.79399936</ele>
        <time>2020-05-21T09:01:40.000Z</time>
      </trkpt>
      <trkpt lat="47.21787" lon="4.93839">
        <ele>436.59399936</ele>
        <time>2020-05-21T09:01:42.000Z</time>
      </trkpt>
      <trkpt lat="47.21785" lon="4.93839">
        <ele>436.39399936</ele>
        <time>2020-05-21T09:01:44.000Z</time>
      </trkpt>
      <trkpt lat="47.21783" lon="4.93839">
        <ele>436.19399936</ele>
        <time>2020-05-21T09:01:46.000Z</time>
      </trkpt>
      <trkpt lat="47.2178" lon="4.93839">
        <ele>436</ele>
        <time>2020-05-21T09:01:49.000Z</time>
      </trkpt>
      <trkpt lat="47.21778" lon="4.93838">
        <ele>436</ele>
        <time>2020-05-21T09:01:51.000Z</time>
      </trkpt>
      <trkpt lat="47.21776" lon="4.93837">
        <ele>436</ele>
        <time>2020-05-21T09:01:53.000Z</time>
      </trkpt>
      <trkpt lat="47.21774" lon="4.93835">
        <ele>436</ele>
        <time>2020-05-21T09:01:56.000Z</time>
      </trkpt>
      <trkpt lat="47.21772" lon="4.93834">
        <ele>435.99399936</ele>
        <time>2020-05-21T09:01:58.000Z</time>
      </trkpt>
      <trkpt lat="47.2177" lon="4.93834">
        <ele>435.79399936</ele>
        <time>2020-05-21T09:02:00.000Z</time>
      </trkpt>
      <trkpt lat="47.21767" lon="4.93833">
        <ele>435.49399936</ele>
        <time>2020-05-21T09:02:03.000Z</time>
      </trkpt>
      <trkpt lat="47.21765" lon="4.93832">
        <ele>435.19399936</ele>
        <time>2020-05-21T09:02:06.000Z</time>
      </trkpt>
      <trkpt lat="47.21763" lon="4.9383">
        <ele>435.00583152031</ele>
        <time>2020-05-21T09:02:08.000Z</time>
      </trkpt>
      <trkpt lat="47.2176" lon="4.93829">
        <ele>435.20019479865</ele>
        <time>2020-05-21T09:02:10.000Z</time>
      </trkpt>
      <trkpt lat="47.21757" lon="4.93828">
        <ele>435.39455807699</ele>
        <time>2020-05-21T09:02:12.000Z</time>
      </trkpt>
      <trkpt lat="47.21755" lon="4.93826">
        <ele>435.58892135533</ele>
        <time>2020-05-21T09:02:14.000Z</time>
      </trkpt>
      <trkpt lat="47.21753" lon="4.93824">
        <ele>435.78328463367</ele>
        <time>2020-05-21T09:02:16.000Z</time>
      </trkpt>
      <trkpt lat="47.21751" lon="4.93823">
        <ele>435.97764791201</ele>
        <time>2020-05-21T09:02:18.000Z</time>
      </trkpt>
      <trkpt lat="47.21749" lon="4.93822">
        <ele>436</ele>
        <time>2020-05-21T09:02:20.000Z</time>
      </trkpt>
      <trkpt lat="47.21747" lon="4.93821">
        <ele>436</ele>
        <time>2020-05-21T09:02:22.000Z</time>
      </trkpt>
      <trkpt lat="47.21745" lon="4.9382">
        <ele>436</ele>
        <time>2020-05-21T09:02:23.000Z</time>
      </trkpt>
      <trkpt lat="47.21743" lon="4.9382">
        <ele>436</ele>
        <time>2020-05-21T09:02:25.000Z</time>
      </trkpt>
      <trkpt lat="47.2174" lon="4.93818">
        <ele>436</ele>
        <time>2020-05-21T09:02:27.000Z</time>
      </trkpt>
      <trkpt lat="47.21738" lon="4.93817">
        <ele>436</ele>
        <time>2020-05-21T09:02:29.000Z</time>
      </trkpt>
      <trkpt lat="47.21736" lon="4.93817">
        <ele>436</ele>
        <time>2020-05-21T09:02:31.000Z</time>
      </trkpt>
      <trkpt lat="47.21734" lon="4.93816">
        <ele>436</ele>
        <time>2020-05-21T09:02:33.000Z</time>
      </trkpt>
      <trkpt lat="47.21732" lon="4.93815">
        <ele>436</ele>
        <time>2020-05-21T09:02:34.000Z</time>
      </trkpt>
      <trkpt lat="47.21729" lon="4.93813">
        <ele>436</ele>
        <time>2020-05-21T09:02:36.000Z</time>
      </trkpt>
      <trkpt lat="47.21726" lon="4.93812">
        <ele>436</ele>
        <time>2020-05-21T09:02:38.000Z</time>
      </trkpt>
      <trkpt lat="47.21724" lon="4.93811">
        <ele>435.81790156379</ele>
        <time>2020-05-21T09:02:40.000Z</time>
      </trkpt>
      <trkpt lat="47.21722" lon="4.93811">
        <ele>435.61214024691</ele>
        <time>2020-05-21T09:02:42.000Z</time>
      </trkpt>
      <trkpt lat="47.21719" lon="4.93809">
        <ele>435.40637893004</ele>
        <time>2020-05-21T09:02:44.000Z</time>
      </trkpt>
      <trkpt lat="47.21717" lon="4.93806">
        <ele>435.20061761317</ele>
        <time>2020-05-21T09:02:46.000Z</time>
      </trkpt>
      <trkpt lat="47.21715" lon="4.93804">
        <ele>435</ele>
        <time>2020-05-21T09:02:48.000Z</time>
      </trkpt>
      <trkpt lat="47.21713" lon="4.93801">
        <ele>435</ele>
        <time>2020-05-21T09:02:50.000Z</time>
      </trkpt>
      <trkpt lat="47.21711" lon="4.93799">
        <ele>435</ele>
        <time>2020-05-21T09:02:52.000Z</time>
      </trkpt>
      <trkpt lat="47.2171" lon="4.93798">
        <ele>435</ele>
        <time>2020-05-21T09:02:54.000Z</time>
      </trkpt>
      <trkpt lat="47.21708" lon="4.93794">
        <ele>435</ele>
        <time>2020-05-21T09:02:57.000Z</time>
      </trkpt>
      <trkpt lat="47.21706" lon="4.93792">
        <ele>435</ele>
        <time>2020-05-21T09:02:59.000Z</time>
      </trkpt>
      <trkpt lat="47.21704" lon="4.93789">
        <ele>435</ele>
        <time>2020-05-21T09:03:01.000Z</time>
      </trkpt>
      <trkpt lat="47.21702" lon="4.93786">
        <ele>435</ele>
        <time>2020-05-21T09:03:03.000Z</time>
      </trkpt>
      <trkpt lat="47.21701" lon="4.93783">
        <ele>435</ele>
        <time>2020-05-21T09:03:05.000Z</time>
      </trkpt>
      <trkpt lat="47.217" lon="4.93781">
        <ele>435</ele>
        <time>2020-05-21T09:03:07.000Z</time>
      </trkpt>
      <trkpt lat="47.21699" lon="4.93778">
        <ele>435</ele>
        <time>2020-05-21T09:03:09.000Z</time>
      </trkpt>
      <trkpt lat="47.21697" lon="4.93775">
        <ele>435</ele>
        <time>2020-05-21T09:03:11.000Z</time>
      </trkpt>
      <trkpt lat="47.21696" lon="4.93772">
        <ele>435</ele>
        <time>2020-05-21T09:03:13.000Z</time>
      </trkpt>
      <trkpt lat="47.21693" lon="4.93769">
        <ele>435</ele>
        <time>2020-05-21T09:03:16.000Z</time>
      </trkpt>
      <trkpt lat="47.21691" lon="4.93768">
        <ele>434.99399936</ele>
        <time>2020-05-21T09:03:18.000Z</time>
      </trkpt>
      <trkpt lat="47.21689" lon="4.93765">
        <ele>434.79399936</ele>
        <time>2020-05-21T09:03:20.000Z</time>
      </trkpt>
      <trkpt lat="47.21687" lon="4.93763">
        <ele>434.59399936</ele>
        <time>2020-05-21T09:03:22.000Z</time>
      </trkpt>
      <trkpt lat="47.21685" lon="4.93761">
        <ele>434.39399936</ele>
        <time>2020-05-21T09:03:24.000Z</time>
      </trkpt>
      <trkpt lat="47.21684" lon="4.93759">
        <ele>434.19399936</ele>
        <time>2020-05-21T09:03:26.000Z</time>
      </trkpt>
      <trkpt lat="47.21681" lon="4.93757">
        <ele>433.98799872</ele>
        <time>2020-05-21T09:03:28.000Z</time>
      </trkpt>
      <trkpt lat="47.2168" lon="4.93756">
        <ele>433.58799872</ele>
        <time>2020-05-21T09:03:30.000Z</time>
      </trkpt>
      <trkpt lat="47.21677" lon="4.93754">
        <ele>433.18799872</ele>
        <time>2020-05-21T09:03:32.000Z</time>
      </trkpt>
      <trkpt lat="47.21676" lon="4.93753">
        <ele>432.98799872</ele>
        <time>2020-05-21T09:03:33.000Z</time>
      </trkpt>
      <trkpt lat="47.21673" lon="4.93753">
        <ele>432.58799872</ele>
        <time>2020-05-21T09:03:35.000Z</time>
      </trkpt>
      <trkpt lat="47.2167" lon="4.93755">
        <ele>432.18799872</ele>
        <time>2020-05-21T09:03:37.000Z</time>
      </trkpt>
      <trkpt lat="47.21669" lon="4.93756">
        <ele>432</ele>
        <time>2020-05-21T09:03:39.000Z</time>
      </trkpt>
      <trkpt lat="47.21667" lon="4.93758">
        <ele>432</ele>
        <time>2020-05-21T09:03:41.000Z</time>
      </trkpt>
      <trkpt lat="47.21665" lon="4.9376">
        <ele>432</ele>
        <time>2020-05-21T09:03:43.000Z</time>
      </trkpt>
      <trkpt lat="47.21663" lon="4.93762">
        <ele>432</ele>
        <time>2020-05-21T09:03:45.000Z</time>
      </trkpt>
      <trkpt lat="47.21661" lon="4.93764">
        <ele>432</ele>
        <time>2020-05-21T09:03:47.000Z</time>
      </trkpt>
      <trkpt lat="47.2166" lon="4.93767">
        <ele>431.78799872</ele>
        <time>2020-05-21T09:03:49.000Z</time>
      </trkpt>
      <trkpt lat="47.21659" lon="4.9377">
        <ele>431.38799872</ele>
        <time>2020-05-21T09:03:51.000Z</time>
      </trkpt>
      <trkpt lat="47.21659" lon="4.93773">
        <ele>430.98799872</ele>
        <time>2020-05-21T09:03:53.000Z</time>
      </trkpt>
      <trkpt lat="47.21658" lon="4.93776">
        <ele>430.58799872</ele>
        <time>2020-05-21T09:03:55.000Z</time>
      </trkpt>
      <trkpt lat="47.21658" lon="4.9378">
        <ele>430.18799872</ele>
        <time>2020-05-21T09:03:57.000Z</time>
      </trkpt>
      <trkpt lat="47.21658" lon="4.93783">
        <ele>429.78797755168</ele>
        <time>2020-05-21T09:03:59.000Z</time>
      </trkpt>
      <trkpt lat="47.21658" lon="4.93787">
        <ele>429.38793761169</ele>
        <time>2020-05-21T09:04:01.000Z</time>
      </trkpt>
      <trkpt lat="47.21658" lon="4.93791">
        <ele>429.1879176417</ele>
        <time>2020-05-21T09:04:02.000Z</time>
      </trkpt>
      <trkpt lat="47.21659" lon="4.93793">
        <ele>428.9878976717</ele>
        <time>2020-05-21T09:04:03.000Z</time>
      </trkpt>
      <trkpt lat="47.21659" lon="4.93797">
        <ele>428.58785773172</ele>
        <time>2020-05-21T09:04:05.000Z</time>
      </trkpt>
      <trkpt lat="47.2166" lon="4.93801">
        <ele>428.18781779173</ele>
        <time>2020-05-21T09:04:07.000Z</time>
      </trkpt>
      <trkpt lat="47.2166" lon="4.93804">
        <ele>427.89389952</ele>
        <time>2020-05-21T09:04:09.000Z</time>
      </trkpt>
      <trkpt lat="47.21661" lon="4.93807">
        <ele>427.69389952</ele>
        <time>2020-05-21T09:04:11.000Z</time>
      </trkpt>
      <trkpt lat="47.21661" lon="4.93811">
        <ele>427.49389952</ele>
        <time>2020-05-21T09:04:13.000Z</time>
      </trkpt>
      <trkpt lat="47.21662" lon="4.93814">
        <ele>427.29389952</ele>
        <time>2020-05-21T09:04:15.000Z</time>
      </trkpt>
      <trkpt lat="47.21664" lon="4.93817">
        <ele>427.09389952</ele>
        <time>2020-05-21T09:04:17.000Z</time>
      </trkpt>
      <trkpt lat="47.21664" lon="4.9382">
        <ele>426.57559808</ele>
        <time>2020-05-21T09:04:19.000Z</time>
      </trkpt>
      <trkpt lat="47.21663" lon="4.93824">
        <ele>425.77559808</ele>
        <time>2020-05-21T09:04:21.000Z</time>
      </trkpt>
      <trkpt lat="47.21663" lon="4.93827">
        <ele>424.97559808</ele>
        <time>2020-05-21T09:04:23.000Z</time>
      </trkpt>
      <trkpt lat="47.21664" lon="4.93831">
        <ele>423.77559808</ele>
        <time>2020-05-21T09:04:26.000Z</time>
      </trkpt>
      <trkpt lat="47.21666" lon="4.93837">
        <ele>423</ele>
        <time>2020-05-21T09:04:29.000Z</time>
      </trkpt>
      <trkpt lat="47.21668" lon="4.93841">
        <ele>423</ele>
        <time>2020-05-21T09:04:31.000Z</time>
      </trkpt>
      <trkpt lat="47.2167" lon="4.93845">
        <ele>423</ele>
        <time>2020-05-21T09:04:33.000Z</time>
      </trkpt>
      <trkpt lat="47.21671" lon="4.93848">
        <ele>423</ele>
        <time>2020-05-21T09:04:35.000Z</time>
      </trkpt>
      <trkpt lat="47.21671" lon="4.9385">
        <ele>423</ele>
        <time>2020-05-21T09:04:37.000Z</time>
      </trkpt>
      <trkpt lat="47.21673" lon="4.93855">
        <ele>422.89389952</ele>
        <time>2020-05-21T09:04:39.000Z</time>
      </trkpt>
      <trkpt lat="47.21673" lon="4.93858">
        <ele>422.69389952</ele>
        <time>2020-05-21T09:04:41.000Z</time>
      </trkpt>
      <trkpt lat="47.21673" lon="4.93862">
        <ele>422.49389952</ele>
        <time>2020-05-21T09:04:43.000Z</time>
      </trkpt>
      <trkpt lat="47.21673" lon="4.93865">
        <ele>422.29389952</ele>
        <time>2020-05-21T09:04:45.000Z</time>
      </trkpt>
      <trkpt lat="47.21673" lon="4.93867">
        <ele>422.09389952</ele>
        <time>2020-05-21T09:04:47.000Z</time>
      </trkpt>
      <trkpt lat="47.21673" lon="4.93871">
        <ele>421.79953287085</ele>
        <time>2020-05-21T09:04:50.000Z</time>
      </trkpt>
      <trkpt lat="47.21673" lon="4.93875">
        <ele>421.60499947709</ele>
        <time>2020-05-21T09:04:52.000Z</time>
      </trkpt>
      <trkpt lat="47.21673" lon="4.93878">
        <ele>421.41046608334</ele>
        <time>2020-05-21T09:04:54.000Z</time>
      </trkpt>
      <trkpt lat="47.21674" lon="4.93881">
        <ele>421.21593268958</ele>
        <time>2020-05-21T09:04:56.000Z</time>
      </trkpt>
      <trkpt lat="47.21675" lon="4.93883">
        <ele>421.02139929582</ele>
        <time>2020-05-21T09:04:58.000Z</time>
      </trkpt>
      <trkpt lat="47.21676" lon="4.93886">
        <ele>420.81685403321</ele>
        <time>2020-05-21T09:05:00.000Z</time>
      </trkpt>
      <trkpt lat="47.21677" lon="4.93889">
        <ele>420.61107130816</ele>
        <time>2020-05-21T09:05:02.000Z</time>
      </trkpt>
      <trkpt lat="47.21678" lon="4.9389">
        <ele>420.50817994563</ele>
        <time>2020-05-21T09:05:03.000Z</time>
      </trkpt>
      <trkpt lat="47.2168" lon="4.93892">
        <ele>420.30239722058</ele>
        <time>2020-05-21T09:05:05.000Z</time>
      </trkpt>
      <trkpt lat="47.21681" lon="4.93894">
        <ele>420.09661449553</ele>
        <time>2020-05-21T09:05:07.000Z</time>
      </trkpt>
      <trkpt lat="47.21682" lon="4.93898">
        <ele>420</ele>
        <time>2020-05-21T09:05:10.000Z</time>
      </trkpt>
      <trkpt lat="47.21684" lon="4.939">
        <ele>420</ele>
        <time>2020-05-21T09:05:12.000Z</time>
      </trkpt>
      <trkpt lat="47.21686" lon="4.93903">
        <ele>420</ele>
        <time>2020-05-21T09:05:14.000Z</time>
      </trkpt>
      <trkpt lat="47.21687" lon="4.93906">
        <ele>420</ele>
        <time>2020-05-21T09:05:16.000Z</time>
      </trkpt>
      <trkpt lat="47.21688" lon="4.93908">
        <ele>419.89389952</ele>
        <time>2020-05-21T09:05:19.000Z</time>
      </trkpt>
      <trkpt lat="47.21689" lon="4.93911">
        <ele>419.69389952</ele>
        <time>2020-05-21T09:05:21.000Z</time>
      </trkpt>
      <trkpt lat="47.21691" lon="4.93913">
        <ele>419.49389952</ele>
        <time>2020-05-21T09:05:23.000Z</time>
      </trkpt>
      <trkpt lat="47.21693" lon="4.93917">
        <ele>419.29389952</ele>
        <time>2020-05-21T09:05:25.000Z</time>
      </trkpt>
      <trkpt lat="47.21695" lon="4.9392">
        <ele>419.09389952</ele>
        <time>2020-05-21T09:05:27.000Z</time>
      </trkpt>
      <trkpt lat="47.21696" lon="4.93923">
        <ele>419.10610048</ele>
        <time>2020-05-21T09:05:29.000Z</time>
      </trkpt>
      <trkpt lat="47.21698" lon="4.93926">
        <ele>419.30610048</ele>
        <time>2020-05-21T09:05:31.000Z</time>
      </trkpt>
      <trkpt lat="47.21699" lon="4.93928">
        <ele>419.50610048</ele>
        <time>2020-05-21T09:05:33.000Z</time>
      </trkpt>
      <trkpt lat="47.217" lon="4.93932">
        <ele>419.70610048</ele>
        <time>2020-05-21T09:05:35.000Z</time>
      </trkpt>
      <trkpt lat="47.21701" lon="4.93934">
        <ele>419.90610048</ele>
        <time>2020-05-21T09:05:37.000Z</time>
      </trkpt>
      <trkpt lat="47.21702" lon="4.93937">
        <ele>420</ele>
        <time>2020-05-21T09:05:39.000Z</time>
      </trkpt>
      <trkpt lat="47.21704" lon="4.93939">
        <ele>420</ele>
        <time>2020-05-21T09:05:41.000Z</time>
      </trkpt>
      <trkpt lat="47.21706" lon="4.93942">
        <ele>420</ele>
        <time>2020-05-21T09:05:44.000Z</time>
      </trkpt>
      <trkpt lat="47.21707" lon="4.93945">
        <ele>420</ele>
        <time>2020-05-21T09:05:46.000Z</time>
      </trkpt>
      <trkpt lat="47.21709" lon="4.93947">
        <ele>420</ele>
        <time>2020-05-21T09:05:48.000Z</time>
      </trkpt>
      <trkpt lat="47.2171" lon="4.93949">
        <ele>420</ele>
        <time>2020-05-21T09:05:50.000Z</time>
      </trkpt>
      <trkpt lat="47.21712" lon="4.93952">
        <ele>420</ele>
        <time>2020-05-21T09:05:53.000Z</time>
      </trkpt>
      <trkpt lat="47.21714" lon="4.93955">
        <ele>420</ele>
        <time>2020-05-21T09:05:56.000Z</time>
      </trkpt>
      <trkpt lat="47.21715" lon="4.93958">
        <ele>419.99399936</ele>
        <time>2020-05-21T09:05:58.000Z</time>
      </trkpt>
      <trkpt lat="47.21716" lon="4.93961">
        <ele>419.79399936</ele>
        <time>2020-05-21T09:06:00.000Z</time>
      </trkpt>
      <trkpt lat="47.21717" lon="4.93964">
        <ele>419.59399936</ele>
        <time>2020-05-21T09:06:02.000Z</time>
      </trkpt>
      <trkpt lat="47.21718" lon="4.93966">
        <ele>419.39399936</ele>
        <time>2020-05-21T09:06:04.000Z</time>
      </trkpt>
      <trkpt lat="47.21719" lon="4.93969">
        <ele>419.19399936</ele>
        <time>2020-05-21T09:06:06.000Z</time>
      </trkpt>
      <trkpt lat="47.21719" lon="4.93972">
        <ele>419.00600064</ele>
        <time>2020-05-21T09:06:08.000Z</time>
      </trkpt>
      <trkpt lat="47.2172" lon="4.93975">
        <ele>419.20600064</ele>
        <time>2020-05-21T09:06:10.000Z</time>
      </trkpt>
      <trkpt lat="47.21721" lon="4.93979">
        <ele>419.50600064</ele>
        <time>2020-05-21T09:06:13.000Z</time>
      </trkpt>
      <trkpt lat="47.21722" lon="4.93982">
        <ele>419.70600064</ele>
        <time>2020-05-21T09:06:15.000Z</time>
      </trkpt>
      <trkpt lat="47.21722" lon="4.93985">
        <ele>419.90600064</ele>
        <time>2020-05-21T09:06:17.000Z</time>
      </trkpt>
      <trkpt lat="47.21723" lon="4.93988">
        <ele>420.21200128</ele>
        <time>2020-05-21T09:06:19.000Z</time>
      </trkpt>
      <trkpt lat="47.21724" lon="4.93991">
        <ele>420.81200128</ele>
        <time>2020-05-21T09:06:22.000Z</time>
      </trkpt>
      <trkpt lat="47.21724" lon="4.93993">
        <ele>421.01200128</ele>
        <time>2020-05-21T09:06:23.000Z</time>
      </trkpt>
      <trkpt lat="47.21724" lon="4.93996">
        <ele>421.41200128</ele>
        <time>2020-05-21T09:06:25.000Z</time>
      </trkpt>
      <trkpt lat="47.21724" lon="4.93999">
        <ele>421.81200128</ele>
        <time>2020-05-21T09:06:27.000Z</time>
      </trkpt>
      <trkpt lat="47.21725" lon="4.94003">
        <ele>422.20600064</ele>
        <time>2020-05-21T09:06:30.000Z</time>
      </trkpt>
      <trkpt lat="47.21725" lon="4.94007">
        <ele>422.40600064</ele>
        <time>2020-05-21T09:06:32.000Z</time>
      </trkpt>
      <trkpt lat="47.21726" lon="4.94011">
        <ele>422.70600064</ele>
        <time>2020-05-21T09:06:35.000Z</time>
      </trkpt>
      <trkpt lat="47.21727" lon="4.94014">
        <ele>422.90600064</ele>
        <time>2020-05-21T09:06:37.000Z</time>
      </trkpt>
      <trkpt lat="47.21727" lon="4.94018">
        <ele>423.41200128</ele>
        <time>2020-05-21T09:06:40.000Z</time>
      </trkpt>
      <trkpt lat="47.21727" lon="4.9402">
        <ele>424.01200128</ele>
        <time>2020-05-21T09:06:43.000Z</time>
      </trkpt>
      <trkpt lat="47.21725" lon="4.9402">
        <ele>424.61200128</ele>
        <time>2020-05-21T09:06:46.000Z</time>
      </trkpt>
      <trkpt lat="47.21722" lon="4.94021">
        <ele>425.20600064</ele>
        <time>2020-05-21T09:06:50.000Z</time>
      </trkpt>
      <trkpt lat="47.2172" lon="4.94021">
        <ele>425.50600064</ele>
        <time>2020-05-21T09:06:53.000Z</time>
      </trkpt>
      <trkpt lat="47.21718" lon="4.94022">
        <ele>425.80600064</ele>
        <time>2020-05-21T09:06:56.000Z</time>
      </trkpt>
      <trkpt lat="47.21716" lon="4.94022">
        <ele>426.61800192</ele>
        <time>2020-05-21T09:07:00.000Z</time>
      </trkpt>
      <trkpt lat="47.21714" lon="4.94023">
        <ele>427.51800192</ele>
        <time>2020-05-21T09:07:03.000Z</time>
      </trkpt>
      <trkpt lat="47.21711" lon="4.94024">
        <ele>428.41800192</ele>
        <time>2020-05-21T09:07:06.000Z</time>
      </trkpt>
      <trkpt lat="47.21709" lon="4.94024">
        <ele>429</ele>
        <time>2020-05-21T09:07:08.000Z</time>
      </trkpt>
      <trkpt lat="47.21707" lon="4.94024">
        <ele>429</ele>
        <time>2020-05-21T09:07:10.000Z</time>
      </trkpt>
      <trkpt lat="47.21707" lon="4.94028">
        <ele>429</ele>
        <time>2020-05-21T09:07:14.000Z</time>
      </trkpt>
      <trkpt lat="47.21708" lon="4.94031">
        <ele>429</ele>
        <time>2020-05-21T09:07:17.000Z</time>
      </trkpt>
      <trkpt lat="47.21706" lon="4.94032">
        <ele>429.70600064</ele>
        <time>2020-05-21T09:07:35.000Z</time>
      </trkpt>
      <trkpt lat="47.21704" lon="4.94032">
        <ele>430.00600064</ele>
        <time>2020-05-21T09:07:38.000Z</time>
      </trkpt>
      <trkpt lat="47.21702" lon="4.94032">
        <ele>430.30600064</ele>
        <time>2020-05-21T09:07:41.000Z</time>
      </trkpt>
      <trkpt lat="47.21699" lon="4.94032">
        <ele>430.60600064</ele>
        <time>2020-05-21T09:07:44.000Z</time>
      </trkpt>
      <trkpt lat="47.21697" lon="4.94031">
        <ele>430.80600064</ele>
        <time>2020-05-21T09:07:46.000Z</time>
      </trkpt>
      <trkpt lat="47.21694" lon="4.94031">
        <ele>431.01200128</ele>
        <time>2020-05-21T09:07:48.000Z</time>
      </trkpt>
      <trkpt lat="47.21692" lon="4.9403">
        <ele>431.41200128</ele>
        <time>2020-05-21T09:07:50.000Z</time>
      </trkpt>
      <trkpt lat="47.2169" lon="4.9403">
        <ele>431.81200128</ele>
        <time>2020-05-21T09:07:52.000Z</time>
      </trkpt>
      <trkpt lat="47.21689" lon="4.94031">
        <ele>432.01200128</ele>
        <time>2020-05-21T09:07:53.000Z</time>
      </trkpt>
      <trkpt lat="47.21687" lon="4.94031">
        <ele>432.41200128</ele>
        <time>2020-05-21T09:07:55.000Z</time>
      </trkpt>
      <trkpt lat="47.21684" lon="4.94031">
        <ele>433.00600064</ele>
        <time>2020-05-21T09:07:58.000Z</time>
      </trkpt>
      <trkpt lat="47.21682" lon="4.94031">
        <ele>433.20600064</ele>
        <time>2020-05-21T09:08:00.000Z</time>
      </trkpt>
      <trkpt lat="47.21679" lon="4.94032">
        <ele>433.40600064</ele>
        <time>2020-05-21T09:08:02.000Z</time>
      </trkpt>
      <trkpt lat="47.21678" lon="4.94032">
        <ele>433.50600064</ele>
        <time>2020-05-21T09:08:03.000Z</time>
      </trkpt>
      <trkpt lat="47.21675" lon="4.94032">
        <ele>433.70600064</ele>
        <time>2020-05-21T09:08:05.000Z</time>
      </trkpt>
      <trkpt lat="47.21674" lon="4.94033">
        <ele>433.90600064</ele>
        <time>2020-05-21T09:08:07.000Z</time>
      </trkpt>
      <trkpt lat="47.21671" lon="4.94034">
        <ele>434.41200128</ele>
        <time>2020-05-21T09:08:10.000Z</time>
      </trkpt>
      <trkpt lat="47.2167" lon="4.94035">
        <ele>435.01200128</ele>
        <time>2020-05-21T09:08:13.000Z</time>
      </trkpt>
      <trkpt lat="47.21669" lon="4.94038">
        <ele>436.00600064</ele>
        <time>2020-05-21T09:08:18.000Z</time>
      </trkpt>
      <trkpt lat="47.21667" lon="4.94038">
        <ele>436.40600064</ele>
        <time>2020-05-21T09:08:22.000Z</time>
      </trkpt>
      <trkpt lat="47.21665" lon="4.94038">
        <ele>436.60600064</ele>
        <time>2020-05-21T09:08:24.000Z</time>
      </trkpt>
      <trkpt lat="47.21663" lon="4.94039">
        <ele>436.80600064</ele>
        <time>2020-05-21T09:08:26.000Z</time>
      </trkpt>
      <trkpt lat="47.21661" lon="4.94041">
        <ele>437.01200128</ele>
        <time>2020-05-21T09:08:28.000Z</time>
      </trkpt>
      <trkpt lat="47.21661" lon="4.94042">
        <ele>438.01200128</ele>
        <time>2020-05-21T09:08:33.000Z</time>
      </trkpt>
      <trkpt lat="47.21658" lon="4.94044">
        <ele>438.81200128</ele>
        <time>2020-05-21T09:08:37.000Z</time>
      </trkpt>
      <trkpt lat="47.21655" lon="4.94046">
        <ele>439</ele>
        <time>2020-05-21T09:08:39.000Z</time>
      </trkpt>
      <trkpt lat="47.21653" lon="4.94048">
        <ele>439</ele>
        <time>2020-05-21T09:08:41.000Z</time>
      </trkpt>
      <trkpt lat="47.21652" lon="4.94049">
        <ele>439</ele>
        <time>2020-05-21T09:08:43.000Z</time>
      </trkpt>
      <trkpt lat="47.2165" lon="4.9405">
        <ele>439</ele>
        <time>2020-05-21T09:08:45.000Z</time>
      </trkpt>
      <trkpt lat="47.21648" lon="4.94053">
        <ele>439.10291317877</ele>
        <time>2020-05-21T09:08:49.000Z</time>
      </trkpt>
      <trkpt lat="47.21649" lon="4.94057">
        <ele>439.49126245203</ele>
        <time>2020-05-21T09:08:53.000Z</time>
      </trkpt>
      <trkpt lat="47.21651" lon="4.9406">
        <ele>439.78252440698</ele>
        <time>2020-05-21T09:08:56.000Z</time>
      </trkpt>
      <trkpt lat="47.21652" lon="4.94062">
        <ele>440</ele>
        <time>2020-05-21T09:09:00.000Z</time>
      </trkpt>
      <trkpt lat="47.21652" lon="4.94065">
        <ele>440</ele>
        <time>2020-05-21T09:09:04.000Z</time>
      </trkpt>
      <trkpt lat="47.21652" lon="4.94068">
        <ele>440</ele>
        <time>2020-05-21T09:09:06.000Z</time>
      </trkpt>
      <trkpt lat="47.21653" lon="4.94071">
        <ele>440.00600064</ele>
        <time>2020-05-21T09:09:08.000Z</time>
      </trkpt>
      <trkpt lat="47.21653" lon="4.94074">
        <ele>440.20600064</ele>
        <time>2020-05-21T09:09:10.000Z</time>
      </trkpt>
      <trkpt lat="47.21653" lon="4.94077">
        <ele>440.40600064</ele>
        <time>2020-05-21T09:09:12.000Z</time>
      </trkpt>
      <trkpt lat="47.21653" lon="4.94081">
        <ele>440.60600064</ele>
        <time>2020-05-21T09:09:14.000Z</time>
      </trkpt>
      <trkpt lat="47.21653" lon="4.94084">
        <ele>440.80600064</ele>
        <time>2020-05-21T09:09:16.000Z</time>
      </trkpt>
      <trkpt lat="47.21653" lon="4.94087">
        <ele>441</ele>
        <time>2020-05-21T09:09:18.000Z</time>
      </trkpt>
      <trkpt lat="47.21653" lon="4.9409">
        <ele>441</ele>
        <time>2020-05-21T09:09:20.000Z</time>
      </trkpt>
      <trkpt lat="47.21654" lon="4.94093">
        <ele>441</ele>
        <time>2020-05-21T09:09:22.000Z</time>
      </trkpt>
      <trkpt lat="47.21654" lon="4.94096">
        <ele>441</ele>
        <time>2020-05-21T09:09:24.000Z</time>
      </trkpt>
      <trkpt lat="47.21654" lon="4.94099">
        <ele>441</ele>
        <time>2020-05-21T09:09:26.000Z</time>
      </trkpt>
      <trkpt lat="47.21654" lon="4.94103">
        <ele>440.99399936</ele>
        <time>2020-05-21T09:09:28.000Z</time>
      </trkpt>
      <trkpt lat="47.21654" lon="4.94106">
        <ele>440.79399936</ele>
        <time>2020-05-21T09:09:30.000Z</time>
      </trkpt>
      <trkpt lat="47.21655" lon="4.9411">
        <ele>440.49399936</ele>
        <time>2020-05-21T09:09:33.000Z</time>
      </trkpt>
      <trkpt lat="47.21656" lon="4.94113">
        <ele>440.29399936</ele>
        <time>2020-05-21T09:09:35.000Z</time>
      </trkpt>
      <trkpt lat="47.21657" lon="4.94117">
        <ele>440.09399936</ele>
        <time>2020-05-21T09:09:37.000Z</time>
      </trkpt>
      <trkpt lat="47.21657" lon="4.9412">
        <ele>440.10600064</ele>
        <time>2020-05-21T09:09:39.000Z</time>
      </trkpt>
      <trkpt lat="47.21657" lon="4.94124">
        <ele>440.30600064</ele>
        <time>2020-05-21T09:09:41.000Z</time>
      </trkpt>
      <trkpt lat="47.21658" lon="4.94128">
        <ele>440.50600064</ele>
        <time>2020-05-21T09:09:43.000Z</time>
      </trkpt>
      <trkpt lat="47.21658" lon="4.94132">
        <ele>440.70600064</ele>
        <time>2020-05-21T09:09:45.000Z</time>
      </trkpt>
      <trkpt lat="47.21659" lon="4.94136">
        <ele>441.00600064</ele>
        <time>2020-05-21T09:09:48.000Z</time>
      </trkpt>
      <trkpt lat="47.2166" lon="4.94138">
        <ele>441.20600064</ele>
        <time>2020-05-21T09:09:50.000Z</time>
      </trkpt>
      <trkpt lat="47.21661" lon="4.94142">
        <ele>441.40600064</ele>
        <time>2020-05-21T09:09:52.000Z</time>
      </trkpt>
      <trkpt lat="47.2166" lon="4.94144">
        <ele>441.50600064</ele>
        <time>2020-05-21T09:09:53.000Z</time>
      </trkpt>
      <trkpt lat="47.21661" lon="4.94149">
        <ele>441.70600064</ele>
        <time>2020-05-21T09:09:55.000Z</time>
      </trkpt>
      <trkpt lat="47.21661" lon="4.94153">
        <ele>441.90600064</ele>
        <time>2020-05-21T09:09:57.000Z</time>
      </trkpt>
      <trkpt lat="47.21662" lon="4.94156">
        <ele>442</ele>
        <time>2020-05-21T09:09:59.000Z</time>
      </trkpt>
      <trkpt lat="47.21663" lon="4.94159">
        <ele>442</ele>
        <time>2020-05-21T09:10:02.000Z</time>
      </trkpt>
      <trkpt lat="47.21664" lon="4.94162">
        <ele>442</ele>
        <time>2020-05-21T09:10:04.000Z</time>
      </trkpt>
      <trkpt lat="47.21664" lon="4.94166">
        <ele>442</ele>
        <time>2020-05-21T09:10:06.000Z</time>
      </trkpt>
      <trkpt lat="47.21664" lon="4.94169">
        <ele>442</ele>
        <time>2020-05-21T09:10:08.000Z</time>
      </trkpt>
      <trkpt lat="47.21665" lon="4.94174">
        <ele>442</ele>
        <time>2020-05-21T09:10:10.000Z</time>
      </trkpt>
      <trkpt lat="47.21665" lon="4.94178">
        <ele>442</ele>
        <time>2020-05-21T09:10:12.000Z</time>
      </trkpt>
      <trkpt lat="47.21666" lon="4.94181">
        <ele>442</ele>
        <time>2020-05-21T09:10:14.000Z</time>
      </trkpt>
      <trkpt lat="47.21667" lon="4.94186">
        <ele>442</ele>
        <time>2020-05-21T09:10:17.000Z</time>
      </trkpt>
      <trkpt lat="47.21667" lon="4.94188">
        <ele>442</ele>
        <time>2020-05-21T09:10:18.000Z</time>
      </trkpt>
      <trkpt lat="47.21668" lon="4.94192">
        <ele>442</ele>
        <time>2020-05-21T09:10:20.000Z</time>
      </trkpt>
      <trkpt lat="47.21668" lon="4.94195">
        <ele>442</ele>
        <time>2020-05-21T09:10:22.000Z</time>
      </trkpt>
      <trkpt lat="47.21669" lon="4.94199">
        <ele>442</ele>
        <time>2020-05-21T09:10:24.000Z</time>
      </trkpt>
      <trkpt lat="47.21669" lon="4.94202">
        <ele>442</ele>
        <time>2020-05-21T09:10:26.000Z</time>
      </trkpt>
      <trkpt lat="47.2167" lon="4.94205">
        <ele>442</ele>
        <time>2020-05-21T09:10:28.000Z</time>
      </trkpt>
      <trkpt lat="47.2167" lon="4.94208">
        <ele>442</ele>
        <time>2020-05-21T09:10:30.000Z</time>
      </trkpt>
      <trkpt lat="47.21671" lon="4.94212">
        <ele>442</ele>
        <time>2020-05-21T09:10:32.000Z</time>
      </trkpt>
      <trkpt lat="47.21672" lon="4.94215">
        <ele>442</ele>
        <time>2020-05-21T09:10:34.000Z</time>
      </trkpt>
      <trkpt lat="47.21672" lon="4.94218">
        <ele>442</ele>
        <time>2020-05-21T09:10:36.000Z</time>
      </trkpt>
      <trkpt lat="47.21672" lon="4.94221">
        <ele>442</ele>
        <time>2020-05-21T09:10:38.000Z</time>
      </trkpt>
      <trkpt lat="47.21673" lon="4.94225">
        <ele>442</ele>
        <time>2020-05-21T09:10:40.000Z</time>
      </trkpt>
      <trkpt lat="47.21673" lon="4.94228">
        <ele>442</ele>
        <time>2020-05-21T09:10:42.000Z</time>
      </trkpt>
      <trkpt lat="47.21674" lon="4.94232">
        <ele>442</ele>
        <time>2020-05-21T09:10:44.000Z</time>
      </trkpt>
      <trkpt lat="47.21673" lon="4.94236">
        <ele>442</ele>
        <time>2020-05-21T09:10:46.000Z</time>
      </trkpt>
      <trkpt lat="47.21673" lon="4.9424">
        <ele>442</ele>
        <time>2020-05-21T09:10:48.000Z</time>
      </trkpt>
      <trkpt lat="47.21674" lon="4.94243">
        <ele>442</ele>
        <time>2020-05-21T09:10:50.000Z</time>
      </trkpt>
      <trkpt lat="47.21674" lon="4.94245">
        <ele>442</ele>
        <time>2020-05-21T09:10:52.000Z</time>
      </trkpt>
      <trkpt lat="47.21674" lon="4.94249">
        <ele>442</ele>
        <time>2020-05-21T09:10:54.000Z</time>
      </trkpt>
      <trkpt lat="47.21676" lon="4.94253">
        <ele>442</ele>
        <time>2020-05-21T09:10:56.000Z</time>
      </trkpt>
      <trkpt lat="47.21676" lon="4.94256">
        <ele>442</ele>
        <time>2020-05-21T09:10:58.000Z</time>
      </trkpt>
      <trkpt lat="47.21676" lon="4.94259">
        <ele>442</ele>
        <time>2020-05-21T09:11:02.000Z</time>
      </trkpt>
      <trkpt lat="47.21677" lon="4.94263">
        <ele>442</ele>
        <time>2020-05-21T09:11:04.000Z</time>
      </trkpt>
      <trkpt lat="47.21678" lon="4.94267">
        <ele>442</ele>
        <time>2020-05-21T09:11:06.000Z</time>
      </trkpt>
      <trkpt lat="47.21679" lon="4.94269">
        <ele>442</ele>
        <time>2020-05-21T09:11:08.000Z</time>
      </trkpt>
      <trkpt lat="47.2168" lon="4.94272">
        <ele>442</ele>
        <time>2020-05-21T09:11:10.000Z</time>
      </trkpt>
      <trkpt lat="47.2168" lon="4.94276">
        <ele>442</ele>
        <time>2020-05-21T09:11:12.000Z</time>
      </trkpt>
      <trkpt lat="47.21681" lon="4.9428">
        <ele>442</ele>
        <time>2020-05-21T09:11:14.000Z</time>
      </trkpt>
      <trkpt lat="47.21681" lon="4.94284">
        <ele>442</ele>
        <time>2020-05-21T09:11:16.000Z</time>
      </trkpt>
      <trkpt lat="47.21682" lon="4.94287">
        <ele>442</ele>
        <time>2020-05-21T09:11:18.000Z</time>
      </trkpt>
      <trkpt lat="47.21682" lon="4.94291">
        <ele>442</ele>
        <time>2020-05-21T09:11:20.000Z</time>
      </trkpt>
      <trkpt lat="47.21682" lon="4.94295">
        <ele>442</ele>
        <time>2020-05-21T09:11:22.000Z</time>
      </trkpt>
      <trkpt lat="47.21682" lon="4.94298">
        <ele>442</ele>
        <time>2020-05-21T09:11:24.000Z</time>
      </trkpt>
      <trkpt lat="47.21682" lon="4.94302">
        <ele>442</ele>
        <time>2020-05-21T09:11:26.000Z</time>
      </trkpt>
      <trkpt lat="47.21683" lon="4.94306">
        <ele>442</ele>
        <time>2020-05-21T09:11:28.000Z</time>
      </trkpt>
      <trkpt lat="47.21684" lon="4.9431">
        <ele>442</ele>
        <time>2020-05-21T09:11:30.000Z</time>
      </trkpt>
      <trkpt lat="47.21684" lon="4.94314">
        <ele>442</ele>
        <time>2020-05-21T09:11:32.000Z</time>
      </trkpt>
      <trkpt lat="47.21685" lon="4.94318">
        <ele>442</ele>
        <time>2020-05-21T09:11:34.000Z</time>
      </trkpt>
      <trkpt lat="47.21686" lon="4.94322">
        <ele>442</ele>
        <time>2020-05-21T09:11:36.000Z</time>
      </trkpt>
      <trkpt lat="47.21687" lon="4.94325">
        <ele>442</ele>
        <time>2020-05-21T09:11:38.000Z</time>
      </trkpt>
      <trkpt lat="47.21687" lon="4.94328">
        <ele>442</ele>
        <time>2020-05-21T09:11:40.000Z</time>
      </trkpt>
      <trkpt lat="47.21688" lon="4.94331">
        <ele>442</ele>
        <time>2020-05-21T09:11:42.000Z</time>
      </trkpt>
      <trkpt lat="47.21689" lon="4.94335">
        <ele>442</ele>
        <time>2020-05-21T09:11:44.000Z</time>
      </trkpt>
      <trkpt lat="47.2169" lon="4.94338">
        <ele>442</ele>
        <time>2020-05-21T09:11:46.000Z</time>
      </trkpt>
      <trkpt lat="47.21691" lon="4.94341">
        <ele>442</ele>
        <time>2020-05-21T09:11:48.000Z</time>
      </trkpt>
      <trkpt lat="47.21691" lon="4.94345">
        <ele>442</ele>
        <time>2020-05-21T09:11:50.000Z</time>
      </trkpt>
      <trkpt lat="47.21691" lon="4.94349">
        <ele>442</ele>
        <time>2020-05-21T09:11:54.000Z</time>
      </trkpt>
      <trkpt lat="47.21692" lon="4.94352">
        <ele>442</ele>
        <time>2020-05-21T09:11:56.000Z</time>
      </trkpt>
      <trkpt lat="47.21692" lon="4.94356">
        <ele>442</ele>
        <time>2020-05-21T09:11:58.000Z</time>
      </trkpt>
      <trkpt lat="47.21693" lon="4.9436">
        <ele>442</ele>
        <time>2020-05-21T09:12:00.000Z</time>
      </trkpt>
      <trkpt lat="47.21693" lon="4.94363">
        <ele>442</ele>
        <time>2020-05-21T09:12:02.000Z</time>
      </trkpt>
      <trkpt lat="47.21693" lon="4.94367">
        <ele>442</ele>
        <time>2020-05-21T09:12:04.000Z</time>
      </trkpt>
      <trkpt lat="47.21694" lon="4.9437">
        <ele>442</ele>
        <time>2020-05-21T09:12:06.000Z</time>
      </trkpt>
      <trkpt lat="47.21695" lon="4.94374">
        <ele>442</ele>
        <time>2020-05-21T09:12:08.000Z</time>
      </trkpt>
      <trkpt lat="47.21696" lon="4.94379">
        <ele>442</ele>
        <time>2020-05-21T09:12:10.000Z</time>
      </trkpt>
      <trkpt lat="47.21696" lon="4.94383">
        <ele>442</ele>
        <time>2020-05-21T09:12:12.000Z</time>
      </trkpt>
      <trkpt lat="47.21697" lon="4.94386">
        <ele>442</ele>
        <time>2020-05-21T09:12:14.000Z</time>
      </trkpt>
      <trkpt lat="47.21697" lon="4.9439">
        <ele>442</ele>
        <time>2020-05-21T09:12:16.000Z</time>
      </trkpt>
      <trkpt lat="47.21698" lon="4.94393">
        <ele>442</ele>
        <time>2020-05-21T09:12:18.000Z</time>
      </trkpt>
      <trkpt lat="47.21698" lon="4.94396">
        <ele>442</ele>
        <time>2020-05-21T09:12:20.000Z</time>
      </trkpt>
      <trkpt lat="47.21699" lon="4.94399">
        <ele>442</ele>
        <time>2020-05-21T09:12:22.000Z</time>
      </trkpt>
      <trkpt lat="47.217" lon="4.94403">
        <ele>442</ele>
        <time>2020-05-21T09:12:24.000Z</time>
      </trkpt>
      <trkpt lat="47.21701" lon="4.94407">
        <ele>442</ele>
        <time>2020-05-21T09:12:26.000Z</time>
      </trkpt>
      <trkpt lat="47.21702" lon="4.94411">
        <ele>442</ele>
        <time>2020-05-21T09:12:28.000Z</time>
      </trkpt>
      <trkpt lat="47.21703" lon="4.94414">
        <ele>442</ele>
        <time>2020-05-21T09:12:30.000Z</time>
      </trkpt>
      <trkpt lat="47.21703" lon="4.94418">
        <ele>442</ele>
        <time>2020-05-21T09:12:32.000Z</time>
      </trkpt>
      <trkpt lat="47.21704" lon="4.9442">
        <ele>442</ele>
        <time>2020-05-21T09:12:34.000Z</time>
      </trkpt>
      <trkpt lat="47.21704" lon="4.94424">
        <ele>442</ele>
        <time>2020-05-21T09:12:36.000Z</time>
      </trkpt>
      <trkpt lat="47.21704" lon="4.94427">
        <ele>442.00600064</ele>
        <time>2020-05-21T09:12:38.000Z</time>
      </trkpt>
      <trkpt lat="47.21704" lon="4.94431">
        <ele>442.20600064</ele>
        <time>2020-05-21T09:12:40.000Z</time>
      </trkpt>
      <trkpt lat="47.21705" lon="4.94435">
        <ele>442.40600064</ele>
        <time>2020-05-21T09:12:42.000Z</time>
      </trkpt>
      <trkpt lat="47.21705" lon="4.94439">
        <ele>442.60600064</ele>
        <time>2020-05-21T09:12:44.000Z</time>
      </trkpt>
      <trkpt lat="47.21705" lon="4.94443">
        <ele>442.80600064</ele>
        <time>2020-05-21T09:12:46.000Z</time>
      </trkpt>
      <trkpt lat="47.21706" lon="4.94447">
        <ele>443</ele>
        <time>2020-05-21T09:12:50.000Z</time>
      </trkpt>
      <trkpt lat="47.21707" lon="4.94451">
        <ele>443</ele>
        <time>2020-05-21T09:12:52.000Z</time>
      </trkpt>
      <trkpt lat="47.21707" lon="4.94454">
        <ele>443</ele>
        <time>2020-05-21T09:12:54.000Z</time>
      </trkpt>
      <trkpt lat="47.21708" lon="4.94458">
        <ele>443</ele>
        <time>2020-05-21T09:12:56.000Z</time>
      </trkpt>
      <trkpt lat="47.21709" lon="4.94462">
        <ele>442.99399936</ele>
        <time>2020-05-21T09:12:58.000Z</time>
      </trkpt>
      <trkpt lat="47.21709" lon="4.94465">
        <ele>442.79399936</ele>
        <time>2020-05-21T09:13:00.000Z</time>
      </trkpt>
      <trkpt lat="47.2171" lon="4.94468">
        <ele>442.59399936</ele>
        <time>2020-05-21T09:13:02.000Z</time>
      </trkpt>
      <trkpt lat="47.2171" lon="4.94472">
        <ele>442.39399936</ele>
        <time>2020-05-21T09:13:04.000Z</time>
      </trkpt>
      <trkpt lat="47.21711" lon="4.94476">
        <ele>442.19399936</ele>
        <time>2020-05-21T09:13:06.000Z</time>
      </trkpt>
      <trkpt lat="47.21712" lon="4.9448">
        <ele>442</ele>
        <time>2020-05-21T09:13:08.000Z</time>
      </trkpt>
      <trkpt lat="47.21712" lon="4.94485">
        <ele>442</ele>
        <time>2020-05-21T09:13:10.000Z</time>
      </trkpt>
      <trkpt lat="47.21712" lon="4.94489">
        <ele>442</ele>
        <time>2020-05-21T09:13:12.000Z</time>
      </trkpt>
      <trkpt lat="47.21713" lon="4.94492">
        <ele>442</ele>
        <time>2020-05-21T09:13:14.000Z</time>
      </trkpt>
      <trkpt lat="47.21713" lon="4.94496">
        <ele>442</ele>
        <time>2020-05-21T09:13:16.000Z</time>
      </trkpt>
      <trkpt lat="47.21713" lon="4.945">
        <ele>442</ele>
        <time>2020-05-21T09:13:18.000Z</time>
      </trkpt>
      <trkpt lat="47.21714" lon="4.94503">
        <ele>442</ele>
        <time>2020-05-21T09:13:20.000Z</time>
      </trkpt>
      <trkpt lat="47.21715" lon="4.94507">
        <ele>442</ele>
        <time>2020-05-21T09:13:22.000Z</time>
      </trkpt>
      <trkpt lat="47.21716" lon="4.9451">
        <ele>442</ele>
        <time>2020-05-21T09:13:24.000Z</time>
      </trkpt>
      <trkpt lat="47.21716" lon="4.94513">
        <ele>442</ele>
        <time>2020-05-21T09:13:26.000Z</time>
      </trkpt>
      <trkpt lat="47.21717" lon="4.94516">
        <ele>442</ele>
        <time>2020-05-21T09:13:28.000Z</time>
      </trkpt>
      <trkpt lat="47.21717" lon="4.9452">
        <ele>442</ele>
        <time>2020-05-21T09:13:30.000Z</time>
      </trkpt>
      <trkpt lat="47.21717" lon="4.94524">
        <ele>442</ele>
        <time>2020-05-21T09:13:32.000Z</time>
      </trkpt>
      <trkpt lat="47.21718" lon="4.94528">
        <ele>442</ele>
        <time>2020-05-21T09:13:34.000Z</time>
      </trkpt>
      <trkpt lat="47.21718" lon="4.94531">
        <ele>442</ele>
        <time>2020-05-21T09:13:36.000Z</time>
      </trkpt>
      <trkpt lat="47.21719" lon="4.94534">
        <ele>442</ele>
        <time>2020-05-21T09:13:38.000Z</time>
      </trkpt>
      <trkpt lat="47.21719" lon="4.94538">
        <ele>442</ele>
        <time>2020-05-21T09:13:40.000Z</time>
      </trkpt>
      <trkpt lat="47.2172" lon="4.94541">
        <ele>442</ele>
        <time>2020-05-21T09:13:42.000Z</time>
      </trkpt>
      <trkpt lat="47.21721" lon="4.94544">
        <ele>442</ele>
        <time>2020-05-21T09:13:44.000Z</time>
      </trkpt>
      <trkpt lat="47.21722" lon="4.94547">
        <ele>442</ele>
        <time>2020-05-21T09:13:46.000Z</time>
      </trkpt>
      <trkpt lat="47.21722" lon="4.94551">
        <ele>442</ele>
        <time>2020-05-21T09:13:48.000Z</time>
      </trkpt>
      <trkpt lat="47.21723" lon="4.94554">
        <ele>442</ele>
        <time>2020-05-21T09:13:50.000Z</time>
      </trkpt>
      <trkpt lat="47.21723" lon="4.94557">
        <ele>442</ele>
        <time>2020-05-21T09:13:52.000Z</time>
      </trkpt>
      <trkpt lat="47.21725" lon="4.94561">
        <ele>442</ele>
        <time>2020-05-21T09:13:54.000Z</time>
      </trkpt>
      <trkpt lat="47.21725" lon="4.94564">
        <ele>442</ele>
        <time>2020-05-21T09:13:56.000Z</time>
      </trkpt>
      <trkpt lat="47.21725" lon="4.94567">
        <ele>442</ele>
        <time>2020-05-21T09:13:58.000Z</time>
      </trkpt>
      <trkpt lat="47.21725" lon="4.94571">
        <ele>442</ele>
        <time>2020-05-21T09:14:00.000Z</time>
      </trkpt>
      <trkpt lat="47.21726" lon="4.94575">
        <ele>442</ele>
        <time>2020-05-21T09:14:02.000Z</time>
      </trkpt>
      <trkpt lat="47.21727" lon="4.94579">
        <ele>442</ele>
        <time>2020-05-21T09:14:04.000Z</time>
      </trkpt>
      <trkpt lat="47.21727" lon="4.94583">
        <ele>442</ele>
        <time>2020-05-21T09:14:06.000Z</time>
      </trkpt>
      <trkpt lat="47.21727" lon="4.94586">
        <ele>442.00600064</ele>
        <time>2020-05-21T09:14:08.000Z</time>
      </trkpt>
      <trkpt lat="47.21728" lon="4.94589">
        <ele>442.20600064</ele>
        <time>2020-05-21T09:14:10.000Z</time>
      </trkpt>
      <trkpt lat="47.21728" lon="4.94593">
        <ele>442.40600064</ele>
        <time>2020-05-21T09:14:12.000Z</time>
      </trkpt>
      <trkpt lat="47.21729" lon="4.94597">
        <ele>442.60600064</ele>
        <time>2020-05-21T09:14:14.000Z</time>
      </trkpt>
      <trkpt lat="47.21729" lon="4.946">
        <ele>442.80600064</ele>
        <time>2020-05-21T09:14:16.000Z</time>
      </trkpt>
      <trkpt lat="47.21729" lon="4.94603">
        <ele>443</ele>
        <time>2020-05-21T09:14:18.000Z</time>
      </trkpt>
      <trkpt lat="47.2173" lon="4.94606">
        <ele>443</ele>
        <time>2020-05-21T09:14:20.000Z</time>
      </trkpt>
      <trkpt lat="47.21731" lon="4.94609">
        <ele>443</ele>
        <time>2020-05-21T09:14:22.000Z</time>
      </trkpt>
      <trkpt lat="47.21731" lon="4.94613">
        <ele>443</ele>
        <time>2020-05-21T09:14:24.000Z</time>
      </trkpt>
      <trkpt lat="47.21732" lon="4.94617">
        <ele>443</ele>
        <time>2020-05-21T09:14:26.000Z</time>
      </trkpt>
      <trkpt lat="47.21733" lon="4.94621">
        <ele>442.99399936</ele>
        <time>2020-05-21T09:14:28.000Z</time>
      </trkpt>
      <trkpt lat="47.21734" lon="4.94625">
        <ele>442.79399936</ele>
        <time>2020-05-21T09:14:30.000Z</time>
      </trkpt>
      <trkpt lat="47.21734" lon="4.94628">
        <ele>442.59399936</ele>
        <time>2020-05-21T09:14:32.000Z</time>
      </trkpt>
      <trkpt lat="47.21735" lon="4.94631">
        <ele>442.39399936</ele>
        <time>2020-05-21T09:14:34.000Z</time>
      </trkpt>
      <trkpt lat="47.21735" lon="4.94635">
        <ele>442.19399936</ele>
        <time>2020-05-21T09:14:36.000Z</time>
      </trkpt>
      <trkpt lat="47.21736" lon="4.94637">
        <ele>442</ele>
        <time>2020-05-21T09:14:38.000Z</time>
      </trkpt>
      <trkpt lat="47.21736" lon="4.9464">
        <ele>442</ele>
        <time>2020-05-21T09:14:40.000Z</time>
      </trkpt>
      <trkpt lat="47.21736" lon="4.94644">
        <ele>442</ele>
        <time>2020-05-21T09:14:42.000Z</time>
      </trkpt>
      <trkpt lat="47.21737" lon="4.94648">
        <ele>442</ele>
        <time>2020-05-21T09:14:44.000Z</time>
      </trkpt>
      <trkpt lat="47.21738" lon="4.94651">
        <ele>442</ele>
        <time>2020-05-21T09:14:46.000Z</time>
      </trkpt>
      <trkpt lat="47.21739" lon="4.94656">
        <ele>442</ele>
        <time>2020-05-21T09:14:48.000Z</time>
      </trkpt>
      <trkpt lat="47.2174" lon="4.9466">
        <ele>442</ele>
        <time>2020-05-21T09:14:50.000Z</time>
      </trkpt>
      <trkpt lat="47.2174" lon="4.94663">
        <ele>442</ele>
        <time>2020-05-21T09:14:52.000Z</time>
      </trkpt>
      <trkpt lat="47.2174" lon="4.94667">
        <ele>442</ele>
        <time>2020-05-21T09:14:54.000Z</time>
      </trkpt>
      <trkpt lat="47.21741" lon="4.94671">
        <ele>442</ele>
        <time>2020-05-21T09:14:56.000Z</time>
      </trkpt>
      <trkpt lat="47.21741" lon="4.94674">
        <ele>442</ele>
        <time>2020-05-21T09:14:58.000Z</time>
      </trkpt>
      <trkpt lat="47.21742" lon="4.94678">
        <ele>442</ele>
        <time>2020-05-21T09:15:00.000Z</time>
      </trkpt>
      <trkpt lat="47.21743" lon="4.94682">
        <ele>442</ele>
        <time>2020-05-21T09:15:02.000Z</time>
      </trkpt>
      <trkpt lat="47.21744" lon="4.94685">
        <ele>442</ele>
        <time>2020-05-21T09:15:04.000Z</time>
      </trkpt>
      <trkpt lat="47.21745" lon="4.94688">
        <ele>442</ele>
        <time>2020-05-21T09:15:06.000Z</time>
      </trkpt>
      <trkpt lat="47.21746" lon="4.94692">
        <ele>442</ele>
        <time>2020-05-21T09:15:08.000Z</time>
      </trkpt>
      <trkpt lat="47.21746" lon="4.94696">
        <ele>442</ele>
        <time>2020-05-21T09:15:10.000Z</time>
      </trkpt>
      <trkpt lat="47.21746" lon="4.94699">
        <ele>442</ele>
        <time>2020-05-21T09:15:12.000Z</time>
      </trkpt>
      <trkpt lat="47.21746" lon="4.94703">
        <ele>442</ele>
        <time>2020-05-21T09:15:14.000Z</time>
      </trkpt>
      <trkpt lat="47.21747" lon="4.94707">
        <ele>442</ele>
        <time>2020-05-21T09:15:16.000Z</time>
      </trkpt>
      <trkpt lat="47.21747" lon="4.9471">
        <ele>442</ele>
        <time>2020-05-21T09:15:18.000Z</time>
      </trkpt>
      <trkpt lat="47.21748" lon="4.94713">
        <ele>442</ele>
        <time>2020-05-21T09:15:20.000Z</time>
      </trkpt>
      <trkpt lat="47.21748" lon="4.94716">
        <ele>442</ele>
        <time>2020-05-21T09:15:22.000Z</time>
      </trkpt>
      <trkpt lat="47.21748" lon="4.94719">
        <ele>442</ele>
        <time>2020-05-21T09:15:24.000Z</time>
      </trkpt>
      <trkpt lat="47.21748" lon="4.94722">
        <ele>442</ele>
        <time>2020-05-21T09:15:26.000Z</time>
      </trkpt>
      <trkpt lat="47.21749" lon="4.94726">
        <ele>442</ele>
        <time>2020-05-21T09:15:28.000Z</time>
      </trkpt>
      <trkpt lat="47.2175" lon="4.9473">
        <ele>442</ele>
        <time>2020-05-21T09:15:30.000Z</time>
      </trkpt>
      <trkpt lat="47.21751" lon="4.94734">
        <ele>442</ele>
        <time>2020-05-21T09:15:32.000Z</time>
      </trkpt>
      <trkpt lat="47.21751" lon="4.94737">
        <ele>442</ele>
        <time>2020-05-21T09:15:34.000Z</time>
      </trkpt>
      <trkpt lat="47.21751" lon="4.94741">
        <ele>442</ele>
        <time>2020-05-21T09:15:36.000Z</time>
      </trkpt>
      <trkpt lat="47.21752" lon="4.94744">
        <ele>442</ele>
        <time>2020-05-21T09:15:38.000Z</time>
      </trkpt>
      <trkpt lat="47.21752" lon="4.94748">
        <ele>442</ele>
        <time>2020-05-21T09:15:40.000Z</time>
      </trkpt>
      <trkpt lat="47.21753" lon="4.94752">
        <ele>442</ele>
        <time>2020-05-21T09:15:43.000Z</time>
      </trkpt>
      <trkpt lat="47.21754" lon="4.94755">
        <ele>442</ele>
        <time>2020-05-21T09:15:45.000Z</time>
      </trkpt>
      <trkpt lat="47.21755" lon="4.94758">
        <ele>442</ele>
        <time>2020-05-21T09:15:47.000Z</time>
      </trkpt>
      <trkpt lat="47.21755" lon="4.94761">
        <ele>442</ele>
        <time>2020-05-21T09:15:49.000Z</time>
      </trkpt>
      <trkpt lat="47.21755" lon="4.94765">
        <ele>442</ele>
        <time>2020-05-21T09:15:52.000Z</time>
      </trkpt>
      <trkpt lat="47.21756" lon="4.94768">
        <ele>442</ele>
        <time>2020-05-21T09:15:54.000Z</time>
      </trkpt>
      <trkpt lat="47.21756" lon="4.94772">
        <ele>442</ele>
        <time>2020-05-21T09:15:56.000Z</time>
      </trkpt>
      <trkpt lat="47.21757" lon="4.94775">
        <ele>442</ele>
        <time>2020-05-21T09:15:58.000Z</time>
      </trkpt>
      <trkpt lat="47.21758" lon="4.94779">
        <ele>442</ele>
        <time>2020-05-21T09:16:00.000Z</time>
      </trkpt>
      <trkpt lat="47.21758" lon="4.94783">
        <ele>442</ele>
        <time>2020-05-21T09:16:02.000Z</time>
      </trkpt>
      <trkpt lat="47.21759" lon="4.94786">
        <ele>442</ele>
        <time>2020-05-21T09:16:04.000Z</time>
      </trkpt>
      <trkpt lat="47.21759" lon="4.94791">
        <ele>442</ele>
        <time>2020-05-21T09:16:06.000Z</time>
      </trkpt>
      <trkpt lat="47.21758" lon="4.94795">
        <ele>442</ele>
        <time>2020-05-21T09:16:08.000Z</time>
      </trkpt>
      <trkpt lat="47.2176" lon="4.94799">
        <ele>442</ele>
        <time>2020-05-21T09:16:10.000Z</time>
      </trkpt>
      <trkpt lat="47.21761" lon="4.94802">
        <ele>442</ele>
        <time>2020-05-21T09:16:12.000Z</time>
      </trkpt>
      <trkpt lat="47.21761" lon="4.94805">
        <ele>442</ele>
        <time>2020-05-21T09:16:14.000Z</time>
      </trkpt>
      <trkpt lat="47.21762" lon="4.94809">
        <ele>442</ele>
        <time>2020-05-21T09:16:16.000Z</time>
      </trkpt>
      <trkpt lat="47.21763" lon="4.94813">
        <ele>441.99399936</ele>
        <time>2020-05-21T09:16:18.000Z</time>
      </trkpt>
      <trkpt lat="47.21763" lon="4.94817">
        <ele>441.79399936</ele>
        <time>2020-05-21T09:16:20.000Z</time>
      </trkpt>
      <trkpt lat="47.21763" lon="4.94821">
        <ele>441.59399936</ele>
        <time>2020-05-21T09:16:22.000Z</time>
      </trkpt>
      <trkpt lat="47.21764" lon="4.94825">
        <ele>441.39399936</ele>
        <time>2020-05-21T09:16:24.000Z</time>
      </trkpt>
      <trkpt lat="47.21764" lon="4.94829">
        <ele>441.19399936</ele>
        <time>2020-05-21T09:16:26.000Z</time>
      </trkpt>
      <trkpt lat="47.21765" lon="4.94832">
        <ele>441.00600064</ele>
        <time>2020-05-21T09:16:28.000Z</time>
      </trkpt>
      <trkpt lat="47.21766" lon="4.94834">
        <ele>441.20600064</ele>
        <time>2020-05-21T09:16:30.000Z</time>
      </trkpt>
      <trkpt lat="47.21766" lon="4.94838">
        <ele>441.40600064</ele>
        <time>2020-05-21T09:16:32.000Z</time>
      </trkpt>
      <trkpt lat="47.21767" lon="4.94841">
        <ele>441.60600064</ele>
        <time>2020-05-21T09:16:34.000Z</time>
      </trkpt>
      <trkpt lat="47.21767" lon="4.94844">
        <ele>441.80600064</ele>
        <time>2020-05-21T09:16:36.000Z</time>
      </trkpt>
      <trkpt lat="47.21768" lon="4.94847">
        <ele>442</ele>
        <time>2020-05-21T09:16:38.000Z</time>
      </trkpt>
      <trkpt lat="47.21769" lon="4.9485">
        <ele>442</ele>
        <time>2020-05-21T09:16:40.000Z</time>
      </trkpt>
      <trkpt lat="47.21769" lon="4.94854">
        <ele>442</ele>
        <time>2020-05-21T09:16:42.000Z</time>
      </trkpt>
      <trkpt lat="47.21769" lon="4.94857">
        <ele>442</ele>
        <time>2020-05-21T09:16:44.000Z</time>
      </trkpt>
      <trkpt lat="47.2177" lon="4.9486">
        <ele>442</ele>
        <time>2020-05-21T09:16:46.000Z</time>
      </trkpt>
      <trkpt lat="47.2177" lon="4.94864">
        <ele>441.99399936</ele>
        <time>2020-05-21T09:16:48.000Z</time>
      </trkpt>
      <trkpt lat="47.2177" lon="4.94868">
        <ele>441.79399936</ele>
        <time>2020-05-21T09:16:50.000Z</time>
      </trkpt>
      <trkpt lat="47.21771" lon="4.94872">
        <ele>441.59399936</ele>
        <time>2020-05-21T09:16:52.000Z</time>
      </trkpt>
      <trkpt lat="47.21771" lon="4.94875">
        <ele>441.39399936</ele>
        <time>2020-05-21T09:16:54.000Z</time>
      </trkpt>
      <trkpt lat="47.21771" lon="4.94879">
        <ele>441.19399936</ele>
        <time>2020-05-21T09:16:56.000Z</time>
      </trkpt>
      <trkpt lat="47.21772" lon="4.94883">
        <ele>441</ele>
        <time>2020-05-21T09:16:58.000Z</time>
      </trkpt>
      <trkpt lat="47.21773" lon="4.94886">
        <ele>441</ele>
        <time>2020-05-21T09:17:00.000Z</time>
      </trkpt>
      <trkpt lat="47.21774" lon="4.94889">
        <ele>441</ele>
        <time>2020-05-21T09:17:02.000Z</time>
      </trkpt>
      <trkpt lat="47.21775" lon="4.94893">
        <ele>441</ele>
        <time>2020-05-21T09:17:04.000Z</time>
      </trkpt>
      <trkpt lat="47.21775" lon="4.94897">
        <ele>441</ele>
        <time>2020-05-21T09:17:06.000Z</time>
      </trkpt>
      <trkpt lat="47.21776" lon="4.949">
        <ele>441</ele>
        <time>2020-05-21T09:17:08.000Z</time>
      </trkpt>
      <trkpt lat="47.21776" lon="4.94904">
        <ele>441</ele>
        <time>2020-05-21T09:17:10.000Z</time>
      </trkpt>
      <trkpt lat="47.21777" lon="4.94908">
        <ele>441</ele>
        <time>2020-05-21T09:17:12.000Z</time>
      </trkpt>
      <trkpt lat="47.21778" lon="4.94911">
        <ele>441</ele>
        <time>2020-05-21T09:17:14.000Z</time>
      </trkpt>
      <trkpt lat="47.21779" lon="4.94914">
        <ele>441</ele>
        <time>2020-05-21T09:17:16.000Z</time>
      </trkpt>
      <trkpt lat="47.21779" lon="4.94918">
        <ele>441</ele>
        <time>2020-05-21T09:17:18.000Z</time>
      </trkpt>
      <trkpt lat="47.2178" lon="4.94922">
        <ele>441</ele>
        <time>2020-05-21T09:17:20.000Z</time>
      </trkpt>
      <trkpt lat="47.2178" lon="4.94925">
        <ele>441</ele>
        <time>2020-05-21T09:17:22.000Z</time>
      </trkpt>
      <trkpt lat="47.21781" lon="4.94929">
        <ele>441</ele>
        <time>2020-05-21T09:17:24.000Z</time>
      </trkpt>
      <trkpt lat="47.21781" lon="4.94932">
        <ele>441</ele>
        <time>2020-05-21T09:17:26.000Z</time>
      </trkpt>
      <trkpt lat="47.21781" lon="4.94936">
        <ele>440.99399936</ele>
        <time>2020-05-21T09:17:28.000Z</time>
      </trkpt>
      <trkpt lat="47.21781" lon="4.94939">
        <ele>440.79399936</ele>
        <time>2020-05-21T09:17:30.000Z</time>
      </trkpt>
      <trkpt lat="47.21782" lon="4.94942">
        <ele>440.59399936</ele>
        <time>2020-05-21T09:17:32.000Z</time>
      </trkpt>
      <trkpt lat="47.21783" lon="4.94946">
        <ele>440.39399936</ele>
        <time>2020-05-21T09:17:34.000Z</time>
      </trkpt>
      <trkpt lat="47.21784" lon="4.9495">
        <ele>440.19399936</ele>
        <time>2020-05-21T09:17:36.000Z</time>
      </trkpt>
      <trkpt lat="47.21785" lon="4.94953">
        <ele>439.99399936</ele>
        <time>2020-05-21T09:17:38.000Z</time>
      </trkpt>
      <trkpt lat="47.21785" lon="4.94957">
        <ele>439.69399936</ele>
        <time>2020-05-21T09:17:41.000Z</time>
      </trkpt>
      <trkpt lat="47.21785" lon="4.9496">
        <ele>439.49399936</ele>
        <time>2020-05-21T09:17:43.000Z</time>
      </trkpt>
      <trkpt lat="47.21785" lon="4.94964">
        <ele>439.29399936</ele>
        <time>2020-05-21T09:17:45.000Z</time>
      </trkpt>
      <trkpt lat="47.21786" lon="4.94968">
        <ele>439.09399936</ele>
        <time>2020-05-21T09:17:47.000Z</time>
      </trkpt>
      <trkpt lat="47.21786" lon="4.94971">
        <ele>439</ele>
        <time>2020-05-21T09:17:49.000Z</time>
      </trkpt>
      <trkpt lat="47.21787" lon="4.94974">
        <ele>439</ele>
        <time>2020-05-21T09:17:51.000Z</time>
      </trkpt>
      <trkpt lat="47.21786" lon="4.94976">
        <ele>439</ele>
        <time>2020-05-21T09:17:53.000Z</time>
      </trkpt>
      <trkpt lat="47.21787" lon="4.9498">
        <ele>439</ele>
        <time>2020-05-21T09:17:55.000Z</time>
      </trkpt>
      <trkpt lat="47.21789" lon="4.94983">
        <ele>439</ele>
        <time>2020-05-21T09:17:57.000Z</time>
      </trkpt>
      <trkpt lat="47.21789" lon="4.94986">
        <ele>438.89399936</ele>
        <time>2020-05-21T09:17:59.000Z</time>
      </trkpt>
      <trkpt lat="47.2179" lon="4.9499">
        <ele>438.69399936</ele>
        <time>2020-05-21T09:18:01.000Z</time>
      </trkpt>
      <trkpt lat="47.21789" lon="4.94993">
        <ele>438.49399936</ele>
        <time>2020-05-21T09:18:03.000Z</time>
      </trkpt>
      <trkpt lat="47.21789" lon="4.94996">
        <ele>438.29399936</ele>
        <time>2020-05-21T09:18:05.000Z</time>
      </trkpt>
      <trkpt lat="47.2179" lon="4.95">
        <ele>438.09399936</ele>
        <time>2020-05-21T09:18:07.000Z</time>
      </trkpt>
      <trkpt lat="47.2179" lon="4.95003">
        <ele>438.10600064</ele>
        <time>2020-05-21T09:18:09.000Z</time>
      </trkpt>
      <trkpt lat="47.21791" lon="4.95006">
        <ele>438.30600064</ele>
        <time>2020-05-21T09:18:11.000Z</time>
      </trkpt>
      <trkpt lat="47.21792" lon="4.95009">
        <ele>438.50600064</ele>
        <time>2020-05-21T09:18:13.000Z</time>
      </trkpt>
      <trkpt lat="47.21792" lon="4.95013">
        <ele>438.70600064</ele>
        <time>2020-05-21T09:18:15.000Z</time>
      </trkpt>
      <trkpt lat="47.21793" lon="4.95016">
        <ele>438.90600064</ele>
        <time>2020-05-21T09:18:17.000Z</time>
      </trkpt>
      <trkpt lat="47.21793" lon="4.9502">
        <ele>439</ele>
        <time>2020-05-21T09:18:19.000Z</time>
      </trkpt>
      <trkpt lat="47.21794" lon="4.95023">
        <ele>439</ele>
        <time>2020-05-21T09:18:21.000Z</time>
      </trkpt>
      <trkpt lat="47.21795" lon="4.95026">
        <ele>439</ele>
        <time>2020-05-21T09:18:23.000Z</time>
      </trkpt>
      <trkpt lat="47.21796" lon="4.95029">
        <ele>439</ele>
        <time>2020-05-21T09:18:25.000Z</time>
      </trkpt>
      <trkpt lat="47.21796" lon="4.95033">
        <ele>439</ele>
        <time>2020-05-21T09:18:27.000Z</time>
      </trkpt>
      <trkpt lat="47.21797" lon="4.95036">
        <ele>438.92070056012</ele>
        <time>2020-05-21T09:18:29.000Z</time>
      </trkpt>
      <trkpt lat="47.21798" lon="4.9504">
        <ele>438.71472713299</ele>
        <time>2020-05-21T09:18:31.000Z</time>
      </trkpt>
      <trkpt lat="47.21799" lon="4.95044">
        <ele>438.50875370587</ele>
        <time>2020-05-21T09:18:33.000Z</time>
      </trkpt>
      <trkpt lat="47.218" lon="4.95047">
        <ele>438.19979356519</ele>
        <time>2020-05-21T09:18:36.000Z</time>
      </trkpt>
      <trkpt lat="47.218" lon="4.95051">
        <ele>437.99399936</ele>
        <time>2020-05-21T09:18:38.000Z</time>
      </trkpt>
      <trkpt lat="47.218" lon="4.95055">
        <ele>437.79399936</ele>
        <time>2020-05-21T09:18:40.000Z</time>
      </trkpt>
      <trkpt lat="47.21801" lon="4.95058">
        <ele>437.59399936</ele>
        <time>2020-05-21T09:18:42.000Z</time>
      </trkpt>
      <trkpt lat="47.218" lon="4.95062">
        <ele>437.39399936</ele>
        <time>2020-05-21T09:18:44.000Z</time>
      </trkpt>
      <trkpt lat="47.21801" lon="4.95065">
        <ele>437.19399936</ele>
        <time>2020-05-21T09:18:46.000Z</time>
      </trkpt>
      <trkpt lat="47.21802" lon="4.95069">
        <ele>437</ele>
        <time>2020-05-21T09:18:48.000Z</time>
      </trkpt>
      <trkpt lat="47.21802" lon="4.95073">
        <ele>437</ele>
        <time>2020-05-21T09:18:50.000Z</time>
      </trkpt>
      <trkpt lat="47.21803" lon="4.95076">
        <ele>437</ele>
        <time>2020-05-21T09:18:52.000Z</time>
      </trkpt>
      <trkpt lat="47.21804" lon="4.95079">
        <ele>437</ele>
        <time>2020-05-21T09:18:54.000Z</time>
      </trkpt>
      <trkpt lat="47.21804" lon="4.95082">
        <ele>437</ele>
        <time>2020-05-21T09:18:56.000Z</time>
      </trkpt>
      <trkpt lat="47.21805" lon="4.95086">
        <ele>436.99399936</ele>
        <time>2020-05-21T09:18:58.000Z</time>
      </trkpt>
      <trkpt lat="47.21805" lon="4.95089">
        <ele>436.79399936</ele>
        <time>2020-05-21T09:19:00.000Z</time>
      </trkpt>
      <trkpt lat="47.21805" lon="4.95094">
        <ele>436.59399936</ele>
        <time>2020-05-21T09:19:02.000Z</time>
      </trkpt>
      <trkpt lat="47.21805" lon="4.95098">
        <ele>436.39399936</ele>
        <time>2020-05-21T09:19:04.000Z</time>
      </trkpt>
      <trkpt lat="47.21806" lon="4.951">
        <ele>436.19399936</ele>
        <time>2020-05-21T09:19:06.000Z</time>
      </trkpt>
      <trkpt lat="47.21806" lon="4.95104">
        <ele>435.99399936</ele>
        <time>2020-05-21T09:19:08.000Z</time>
      </trkpt>
      <trkpt lat="47.21806" lon="4.95108">
        <ele>435.79399936</ele>
        <time>2020-05-21T09:19:10.000Z</time>
      </trkpt>
      <trkpt lat="47.21807" lon="4.95111">
        <ele>435.59399936</ele>
        <time>2020-05-21T09:19:12.000Z</time>
      </trkpt>
      <trkpt lat="47.21809" lon="4.95115">
        <ele>435.39399936</ele>
        <time>2020-05-21T09:19:14.000Z</time>
      </trkpt>
      <trkpt lat="47.2181" lon="4.95119">
        <ele>435.19399936</ele>
        <time>2020-05-21T09:19:16.000Z</time>
      </trkpt>
      <trkpt lat="47.21811" lon="4.95123">
        <ele>435</ele>
        <time>2020-05-21T09:19:18.000Z</time>
      </trkpt>
      <trkpt lat="47.21811" lon="4.95127">
        <ele>435</ele>
        <time>2020-05-21T09:19:20.000Z</time>
      </trkpt>
      <trkpt lat="47.21811" lon="4.95131">
        <ele>435</ele>
        <time>2020-05-21T09:19:22.000Z</time>
      </trkpt>
      <trkpt lat="47.21812" lon="4.95135">
        <ele>435</ele>
        <time>2020-05-21T09:19:24.000Z</time>
      </trkpt>
      <trkpt lat="47.21812" lon="4.95138">
        <ele>435</ele>
        <time>2020-05-21T09:19:26.000Z</time>
      </trkpt>
      <trkpt lat="47.21813" lon="4.95141">
        <ele>434.90030176042</ele>
        <time>2020-05-21T09:19:29.000Z</time>
      </trkpt>
      <trkpt lat="47.21814" lon="4.95145">
        <ele>434.69889182643</ele>
        <time>2020-05-21T09:19:31.000Z</time>
      </trkpt>
      <trkpt lat="47.21815" lon="4.95149">
        <ele>434.49748189244</ele>
        <time>2020-05-21T09:19:33.000Z</time>
      </trkpt>
      <trkpt lat="47.21816" lon="4.95153">
        <ele>434.29607195845</ele>
        <time>2020-05-21T09:19:35.000Z</time>
      </trkpt>
      <trkpt lat="47.21816" lon="4.95156">
        <ele>434.09466202446</ele>
        <time>2020-05-21T09:19:37.000Z</time>
      </trkpt>
      <trkpt lat="47.21817" lon="4.95159">
        <ele>433.89399936</ele>
        <time>2020-05-21T09:19:39.000Z</time>
      </trkpt>
      <trkpt lat="47.21818" lon="4.95163">
        <ele>433.69399936</ele>
        <time>2020-05-21T09:19:41.000Z</time>
      </trkpt>
      <trkpt lat="47.21818" lon="4.95166">
        <ele>433.49399936</ele>
        <time>2020-05-21T09:19:43.000Z</time>
      </trkpt>
      <trkpt lat="47.21819" lon="4.9517">
        <ele>433.29399936</ele>
        <time>2020-05-21T09:19:45.000Z</time>
      </trkpt>
      <trkpt lat="47.2182" lon="4.95173">
        <ele>433.09399936</ele>
        <time>2020-05-21T09:19:47.000Z</time>
      </trkpt>
      <trkpt lat="47.2182" lon="4.95176">
        <ele>433</ele>
        <time>2020-05-21T09:19:49.000Z</time>
      </trkpt>
      <trkpt lat="47.2182" lon="4.95179">
        <ele>433</ele>
        <time>2020-05-21T09:19:51.000Z</time>
      </trkpt>
      <trkpt lat="47.2182" lon="4.95183">
        <ele>433</ele>
        <time>2020-05-21T09:19:53.000Z</time>
      </trkpt>
      <trkpt lat="47.21821" lon="4.95186">
        <ele>433</ele>
        <time>2020-05-21T09:19:55.000Z</time>
      </trkpt>
      <trkpt lat="47.21822" lon="4.9519">
        <ele>433</ele>
        <time>2020-05-21T09:19:57.000Z</time>
      </trkpt>
      <trkpt lat="47.21823" lon="4.95193">
        <ele>433</ele>
        <time>2020-05-21T09:19:59.000Z</time>
      </trkpt>
      <trkpt lat="47.21823" lon="4.95197">
        <ele>433</ele>
        <time>2020-05-21T09:20:01.000Z</time>
      </trkpt>
      <trkpt lat="47.21824" lon="4.952">
        <ele>433</ele>
        <time>2020-05-21T09:20:03.000Z</time>
      </trkpt>
      <trkpt lat="47.21825" lon="4.95203">
        <ele>433</ele>
        <time>2020-05-21T09:20:05.000Z</time>
      </trkpt>
      <trkpt lat="47.21825" lon="4.95206">
        <ele>433</ele>
        <time>2020-05-21T09:20:07.000Z</time>
      </trkpt>
      <trkpt lat="47.21826" lon="4.9521">
        <ele>433</ele>
        <time>2020-05-21T09:20:09.000Z</time>
      </trkpt>
      <trkpt lat="47.21826" lon="4.95214">
        <ele>433</ele>
        <time>2020-05-21T09:20:11.000Z</time>
      </trkpt>
      <trkpt lat="47.21826" lon="4.95218">
        <ele>433</ele>
        <time>2020-05-21T09:20:13.000Z</time>
      </trkpt>
      <trkpt lat="47.21826" lon="4.95221">
        <ele>433</ele>
        <time>2020-05-21T09:20:15.000Z</time>
      </trkpt>
      <trkpt lat="47.21827" lon="4.95224">
        <ele>433</ele>
        <time>2020-05-21T09:20:17.000Z</time>
      </trkpt>
      <trkpt lat="47.21828" lon="4.95227">
        <ele>433</ele>
        <time>2020-05-21T09:20:19.000Z</time>
      </trkpt>
      <trkpt lat="47.21828" lon="4.95231">
        <ele>433</ele>
        <time>2020-05-21T09:20:21.000Z</time>
      </trkpt>
      <trkpt lat="47.21829" lon="4.95235">
        <ele>433</ele>
        <time>2020-05-21T09:20:23.000Z</time>
      </trkpt>
      <trkpt lat="47.2183" lon="4.95238">
        <ele>433</ele>
        <time>2020-05-21T09:20:25.000Z</time>
      </trkpt>
      <trkpt lat="47.21831" lon="4.95242">
        <ele>433</ele>
        <time>2020-05-21T09:20:27.000Z</time>
      </trkpt>
      <trkpt lat="47.21831" lon="4.95245">
        <ele>432.89399936</ele>
        <time>2020-05-21T09:20:29.000Z</time>
      </trkpt>
      <trkpt lat="47.21831" lon="4.95248">
        <ele>432.59399936</ele>
        <time>2020-05-21T09:20:32.000Z</time>
      </trkpt>
      <trkpt lat="47.21832" lon="4.95251">
        <ele>432.29399936</ele>
        <time>2020-05-21T09:20:35.000Z</time>
      </trkpt>
      <trkpt lat="47.2183" lon="4.9525">
        <ele>431.79399936</ele>
        <time>2020-05-21T09:20:40.000Z</time>
      </trkpt>
      <trkpt lat="47.21828" lon="4.9525">
        <ele>431.39399936</ele>
        <time>2020-05-21T09:20:44.000Z</time>
      </trkpt>
      <trkpt lat="47.21826" lon="4.95252">
        <ele>431.09399936</ele>
        <time>2020-05-21T09:20:47.000Z</time>
      </trkpt>
      <trkpt lat="47.21824" lon="4.95253">
        <ele>431</ele>
        <time>2020-05-21T09:20:49.000Z</time>
      </trkpt>
      <trkpt lat="47.21822" lon="4.95254">
        <ele>431</ele>
        <time>2020-05-21T09:20:52.000Z</time>
      </trkpt>
      <trkpt lat="47.2182" lon="4.95255">
        <ele>431</ele>
        <time>2020-05-21T09:20:55.000Z</time>
      </trkpt>
      <trkpt lat="47.21817" lon="4.95256">
        <ele>431</ele>
        <time>2020-05-21T09:20:58.000Z</time>
      </trkpt>
      <trkpt lat="47.21815" lon="4.95257">
        <ele>431</ele>
        <time>2020-05-21T09:21:00.000Z</time>
      </trkpt>
      <trkpt lat="47.21813" lon="4.95259">
        <ele>431</ele>
        <time>2020-05-21T09:21:02.000Z</time>
      </trkpt>
      <trkpt lat="47.21811" lon="4.9526">
        <ele>431</ele>
        <time>2020-05-21T09:21:04.000Z</time>
      </trkpt>
      <trkpt lat="47.21809" lon="4.95261">
        <ele>431</ele>
        <time>2020-05-21T09:21:06.000Z</time>
      </trkpt>
      <trkpt lat="47.21807" lon="4.95263">
        <ele>431</ele>
        <time>2020-05-21T09:21:09.000Z</time>
      </trkpt>
      <trkpt lat="47.21805" lon="4.95263">
        <ele>431</ele>
        <time>2020-05-21T09:21:12.000Z</time>
      </trkpt>
      <trkpt lat="47.21803" lon="4.95265">
        <ele>431</ele>
        <time>2020-05-21T09:21:14.000Z</time>
      </trkpt>
      <trkpt lat="47.218" lon="4.95266">
        <ele>431</ele>
        <time>2020-05-21T09:21:16.000Z</time>
      </trkpt>
      <trkpt lat="47.21798" lon="4.95267">
        <ele>431</ele>
        <time>2020-05-21T09:21:18.000Z</time>
      </trkpt>
      <trkpt lat="47.21796" lon="4.95268">
        <ele>431</ele>
        <time>2020-05-21T09:21:20.000Z</time>
      </trkpt>
      <trkpt lat="47.21794" lon="4.9527">
        <ele>431</ele>
        <time>2020-05-21T09:21:22.000Z</time>
      </trkpt>
      <trkpt lat="47.21792" lon="4.95271">
        <ele>431</ele>
        <time>2020-05-21T09:21:25.000Z</time>
      </trkpt>
      <trkpt lat="47.2179" lon="4.95272">
        <ele>431</ele>
        <time>2020-05-21T09:21:27.000Z</time>
      </trkpt>
      <trkpt lat="47.21788" lon="4.95273">
        <ele>431.10231709366</ele>
        <time>2020-05-21T09:21:29.000Z</time>
      </trkpt>
      <trkpt lat="47.21786" lon="4.95274">
        <ele>431.58494197999</ele>
        <time>2020-05-21T09:21:34.000Z</time>
      </trkpt>
      <trkpt lat="47.21784" lon="4.95275">
        <ele>431.77799193453</ele>
        <time>2020-05-21T09:21:36.000Z</time>
      </trkpt>
      <trkpt lat="47.21782" lon="4.95276">
        <ele>431.97104188906</ele>
        <time>2020-05-21T09:21:38.000Z</time>
      </trkpt>
      <trkpt lat="47.2178" lon="4.95277">
        <ele>432</ele>
        <time>2020-05-21T09:21:40.000Z</time>
      </trkpt>
      <trkpt lat="47.21778" lon="4.95278">
        <ele>432</ele>
        <time>2020-05-21T09:21:41.000Z</time>
      </trkpt>
      <trkpt lat="47.21776" lon="4.95278">
        <ele>432</ele>
        <time>2020-05-21T09:21:43.000Z</time>
      </trkpt>
      <trkpt lat="47.21773" lon="4.95279">
        <ele>432</ele>
        <time>2020-05-21T09:21:45.000Z</time>
      </trkpt>
      <trkpt lat="47.21771" lon="4.95281">
        <ele>432</ele>
        <time>2020-05-21T09:21:47.000Z</time>
      </trkpt>
      <trkpt lat="47.21769" lon="4.95282">
        <ele>431.89399936</ele>
        <time>2020-05-21T09:21:49.000Z</time>
      </trkpt>
      <trkpt lat="47.21767" lon="4.95283">
        <ele>431.69399936</ele>
        <time>2020-05-21T09:21:51.000Z</time>
      </trkpt>
      <trkpt lat="47.21764" lon="4.95285">
        <ele>431.49399936</ele>
        <time>2020-05-21T09:21:53.000Z</time>
      </trkpt>
      <trkpt lat="47.21762" lon="4.95287">
        <ele>431.29399936</ele>
        <time>2020-05-21T09:21:55.000Z</time>
      </trkpt>
      <trkpt lat="47.2176" lon="4.95288">
        <ele>431.09399936</ele>
        <time>2020-05-21T09:21:57.000Z</time>
      </trkpt>
      <trkpt lat="47.21758" lon="4.9529">
        <ele>431</ele>
        <time>2020-05-21T09:21:59.000Z</time>
      </trkpt>
      <trkpt lat="47.21756" lon="4.95291">
        <ele>431</ele>
        <time>2020-05-21T09:22:01.000Z</time>
      </trkpt>
      <trkpt lat="47.21754" lon="4.95292">
        <ele>431</ele>
        <time>2020-05-21T09:22:03.000Z</time>
      </trkpt>
      <trkpt lat="47.21752" lon="4.95293">
        <ele>431</ele>
        <time>2020-05-21T09:22:05.000Z</time>
      </trkpt>
      <trkpt lat="47.2175" lon="4.95294">
        <ele>431</ele>
        <time>2020-05-21T09:22:07.000Z</time>
      </trkpt>
      <trkpt lat="47.21747" lon="4.95295">
        <ele>431</ele>
        <time>2020-05-21T09:22:09.000Z</time>
      </trkpt>
      <trkpt lat="47.21744" lon="4.95296">
        <ele>431</ele>
        <time>2020-05-21T09:22:11.000Z</time>
      </trkpt>
      <trkpt lat="47.21743" lon="4.95298">
        <ele>431</ele>
        <time>2020-05-21T09:22:13.000Z</time>
      </trkpt>
      <trkpt lat="47.21741" lon="4.95299">
        <ele>431</ele>
        <time>2020-05-21T09:22:15.000Z</time>
      </trkpt>
      <trkpt lat="47.21739" lon="4.953">
        <ele>431</ele>
        <time>2020-05-21T09:22:17.000Z</time>
      </trkpt>
      <trkpt lat="47.21736" lon="4.95301">
        <ele>431</ele>
        <time>2020-05-21T09:22:19.000Z</time>
      </trkpt>
      <trkpt lat="47.21735" lon="4.95302">
        <ele>431</ele>
        <time>2020-05-21T09:22:21.000Z</time>
      </trkpt>
      <trkpt lat="47.21733" lon="4.95303">
        <ele>431</ele>
        <time>2020-05-21T09:22:23.000Z</time>
      </trkpt>
      <trkpt lat="47.2173" lon="4.95304">
        <ele>431</ele>
        <time>2020-05-21T09:22:25.000Z</time>
      </trkpt>
      <trkpt lat="47.21728" lon="4.95305">
        <ele>431</ele>
        <time>2020-05-21T09:22:27.000Z</time>
      </trkpt>
      <trkpt lat="47.21725" lon="4.95307">
        <ele>431</ele>
        <time>2020-05-21T09:22:29.000Z</time>
      </trkpt>
      <trkpt lat="47.21722" lon="4.95308">
        <ele>431</ele>
        <time>2020-05-21T09:22:31.000Z</time>
      </trkpt>
      <trkpt lat="47.2172" lon="4.9531">
        <ele>431</ele>
        <time>2020-05-21T09:22:33.000Z</time>
      </trkpt>
      <trkpt lat="47.21718" lon="4.95312">
        <ele>431</ele>
        <time>2020-05-21T09:22:35.000Z</time>
      </trkpt>
      <trkpt lat="47.21717" lon="4.95314">
        <ele>431</ele>
        <time>2020-05-21T09:22:37.000Z</time>
      </trkpt>
      <trkpt lat="47.21715" lon="4.95315">
        <ele>430.79399936</ele>
        <time>2020-05-21T09:22:40.000Z</time>
      </trkpt>
      <trkpt lat="47.21712" lon="4.95315">
        <ele>430.59399936</ele>
        <time>2020-05-21T09:22:42.000Z</time>
      </trkpt>
      <trkpt lat="47.2171" lon="4.95316">
        <ele>430.39399936</ele>
        <time>2020-05-21T09:22:44.000Z</time>
      </trkpt>
      <trkpt lat="47.21708" lon="4.95317">
        <ele>430.09399936</ele>
        <time>2020-05-21T09:22:47.000Z</time>
      </trkpt>
      <trkpt lat="47.21706" lon="4.95318">
        <ele>429.89399936</ele>
        <time>2020-05-21T09:22:49.000Z</time>
      </trkpt>
      <trkpt lat="47.21704" lon="4.95319">
        <ele>429.69399936</ele>
        <time>2020-05-21T09:22:51.000Z</time>
      </trkpt>
      <trkpt lat="47.21701" lon="4.9532">
        <ele>429.49399936</ele>
        <time>2020-05-21T09:22:53.000Z</time>
      </trkpt>
      <trkpt lat="47.21699" lon="4.95321">
        <ele>429.29399936</ele>
        <time>2020-05-21T09:22:55.000Z</time>
      </trkpt>
      <trkpt lat="47.21696" lon="4.95322">
        <ele>429.09399936</ele>
        <time>2020-05-21T09:22:57.000Z</time>
      </trkpt>
      <trkpt lat="47.21694" lon="4.95323">
        <ele>429</ele>
        <time>2020-05-21T09:22:59.000Z</time>
      </trkpt>
      <trkpt lat="47.21691" lon="4.95324">
        <ele>429</ele>
        <time>2020-05-21T09:23:01.000Z</time>
      </trkpt>
      <trkpt lat="47.21688" lon="4.95326">
        <ele>429</ele>
        <time>2020-05-21T09:23:03.000Z</time>
      </trkpt>
      <trkpt lat="47.21687" lon="4.95327">
        <ele>429</ele>
        <time>2020-05-21T09:23:05.000Z</time>
      </trkpt>
      <trkpt lat="47.21684" lon="4.95328">
        <ele>429</ele>
        <time>2020-05-21T09:23:07.000Z</time>
      </trkpt>
      <trkpt lat="47.21682" lon="4.95329">
        <ele>429</ele>
        <time>2020-05-21T09:23:09.000Z</time>
      </trkpt>
      <trkpt lat="47.2168" lon="4.9533">
        <ele>429</ele>
        <time>2020-05-21T09:23:11.000Z</time>
      </trkpt>
      <trkpt lat="47.21677" lon="4.95332">
        <ele>429</ele>
        <time>2020-05-21T09:23:13.000Z</time>
      </trkpt>
      <trkpt lat="47.21675" lon="4.95333">
        <ele>429</ele>
        <time>2020-05-21T09:23:15.000Z</time>
      </trkpt>
      <trkpt lat="47.21672" lon="4.95333">
        <ele>429</ele>
        <time>2020-05-21T09:23:17.000Z</time>
      </trkpt>
      <trkpt lat="47.2167" lon="4.95334">
        <ele>429</ele>
        <time>2020-05-21T09:23:19.000Z</time>
      </trkpt>
      <trkpt lat="47.21667" lon="4.95335">
        <ele>429</ele>
        <time>2020-05-21T09:23:21.000Z</time>
      </trkpt>
      <trkpt lat="47.21665" lon="4.95336">
        <ele>429</ele>
        <time>2020-05-21T09:23:23.000Z</time>
      </trkpt>
      <trkpt lat="47.21663" lon="4.95338">
        <ele>429</ele>
        <time>2020-05-21T09:23:25.000Z</time>
      </trkpt>
      <trkpt lat="47.21661" lon="4.95339">
        <ele>429</ele>
        <time>2020-05-21T09:23:27.000Z</time>
      </trkpt>
      <trkpt lat="47.21658" lon="4.95341">
        <ele>428.78799872</ele>
        <time>2020-05-21T09:23:29.000Z</time>
      </trkpt>
      <trkpt lat="47.21656" lon="4.95342">
        <ele>428.38799872</ele>
        <time>2020-05-21T09:23:31.000Z</time>
      </trkpt>
      <trkpt lat="47.21654" lon="4.95344">
        <ele>427.98799872</ele>
        <time>2020-05-21T09:23:33.000Z</time>
      </trkpt>
      <trkpt lat="47.21652" lon="4.95346">
        <ele>427.58799872</ele>
        <time>2020-05-21T09:23:35.000Z</time>
      </trkpt>
      <trkpt lat="47.2165" lon="4.95347">
        <ele>427.18799872</ele>
        <time>2020-05-21T09:23:37.000Z</time>
      </trkpt>
      <trkpt lat="47.21648" lon="4.95349">
        <ele>427</ele>
        <time>2020-05-21T09:23:40.000Z</time>
      </trkpt>
      <trkpt lat="47.21646" lon="4.9535">
        <ele>427</ele>
        <time>2020-05-21T09:23:42.000Z</time>
      </trkpt>
      <trkpt lat="47.21643" lon="4.95351">
        <ele>427</ele>
        <time>2020-05-21T09:23:44.000Z</time>
      </trkpt>
      <trkpt lat="47.21641" lon="4.95352">
        <ele>427</ele>
        <time>2020-05-21T09:23:46.000Z</time>
      </trkpt>
      <trkpt lat="47.21639" lon="4.95353">
        <ele>427</ele>
        <time>2020-05-21T09:23:48.000Z</time>
      </trkpt>
      <trkpt lat="47.21636" lon="4.95354">
        <ele>427</ele>
        <time>2020-05-21T09:23:50.000Z</time>
      </trkpt>
      <trkpt lat="47.21635" lon="4.95354">
        <ele>427</ele>
        <time>2020-05-21T09:23:51.000Z</time>
      </trkpt>
      <trkpt lat="47.21631" lon="4.95355">
        <ele>427</ele>
        <time>2020-05-21T09:23:53.000Z</time>
      </trkpt>
      <trkpt lat="47.21629" lon="4.95357">
        <ele>427</ele>
        <time>2020-05-21T09:23:54.000Z</time>
      </trkpt>
      <trkpt lat="47.21626" lon="4.95358">
        <ele>427</ele>
        <time>2020-05-21T09:23:56.000Z</time>
      </trkpt>
      <trkpt lat="47.21625" lon="4.95359">
        <ele>427</ele>
        <time>2020-05-21T09:23:58.000Z</time>
      </trkpt>
      <trkpt lat="47.21623" lon="4.9536">
        <ele>427</ele>
        <time>2020-05-21T09:24:00.000Z</time>
      </trkpt>
      <trkpt lat="47.21621" lon="4.95362">
        <ele>427</ele>
        <time>2020-05-21T09:24:02.000Z</time>
      </trkpt>
      <trkpt lat="47.21618" lon="4.95363">
        <ele>427</ele>
        <time>2020-05-21T09:24:04.000Z</time>
      </trkpt>
      <trkpt lat="47.21616" lon="4.95365">
        <ele>427</ele>
        <time>2020-05-21T09:24:06.000Z</time>
      </trkpt>
      <trkpt lat="47.21614" lon="4.95367">
        <ele>426.99417413954</ele>
        <time>2020-05-21T09:24:08.000Z</time>
      </trkpt>
      <trkpt lat="47.21612" lon="4.95368">
        <ele>426.79999950291</ele>
        <time>2020-05-21T09:24:10.000Z</time>
      </trkpt>
      <trkpt lat="47.21609" lon="4.9537">
        <ele>426.60582486628</ele>
        <time>2020-05-21T09:24:12.000Z</time>
      </trkpt>
      <trkpt lat="47.21607" lon="4.95372">
        <ele>426.41165022965</ele>
        <time>2020-05-21T09:24:14.000Z</time>
      </trkpt>
      <trkpt lat="47.21605" lon="4.95373">
        <ele>426.21747559302</ele>
        <time>2020-05-21T09:24:16.000Z</time>
      </trkpt>
      <trkpt lat="47.21602" lon="4.95374">
        <ele>426.0233009564</ele>
        <time>2020-05-21T09:24:18.000Z</time>
      </trkpt>
      <trkpt lat="47.216" lon="4.95374">
        <ele>425.81855658132</ele>
        <time>2020-05-21T09:24:20.000Z</time>
      </trkpt>
      <trkpt lat="47.21598" lon="4.95374">
        <ele>425.61237087826</ele>
        <time>2020-05-21T09:24:22.000Z</time>
      </trkpt>
      <trkpt lat="47.21595" lon="4.95375">
        <ele>425.40618517522</ele>
        <time>2020-05-21T09:24:24.000Z</time>
      </trkpt>
      <trkpt lat="47.21593" lon="4.95377">
        <ele>425.19999947217</ele>
        <time>2020-05-21T09:24:26.000Z</time>
      </trkpt>
      <trkpt lat="47.21591" lon="4.95378">
        <ele>424.99399936</ele>
        <time>2020-05-21T09:24:28.000Z</time>
      </trkpt>
      <trkpt lat="47.21589" lon="4.95378">
        <ele>424.79399936</ele>
        <time>2020-05-21T09:24:30.000Z</time>
      </trkpt>
      <trkpt lat="47.21586" lon="4.9538">
        <ele>424.49399936</ele>
        <time>2020-05-21T09:24:33.000Z</time>
      </trkpt>
      <trkpt lat="47.21584" lon="4.95382">
        <ele>424.29399936</ele>
        <time>2020-05-21T09:24:35.000Z</time>
      </trkpt>
      <trkpt lat="47.21582" lon="4.95384">
        <ele>424.09399936</ele>
        <time>2020-05-21T09:24:37.000Z</time>
      </trkpt>
      <trkpt lat="47.2158" lon="4.95385">
        <ele>423.89708682123</ele>
        <time>2020-05-21T09:24:39.000Z</time>
      </trkpt>
      <trkpt lat="47.21578" lon="4.95386">
        <ele>423.7029121846</ele>
        <time>2020-05-21T09:24:41.000Z</time>
      </trkpt>
      <trkpt lat="47.21575" lon="4.95387">
        <ele>423.50873754797</ele>
        <time>2020-05-21T09:24:43.000Z</time>
      </trkpt>
      <trkpt lat="47.21573" lon="4.95388">
        <ele>423.31456291134</ele>
        <time>2020-05-21T09:24:45.000Z</time>
      </trkpt>
      <trkpt lat="47.2157" lon="4.95389">
        <ele>423.12038827471</ele>
        <time>2020-05-21T09:24:47.000Z</time>
      </trkpt>
      <trkpt lat="47.21568" lon="4.95391">
        <ele>423</ele>
        <time>2020-05-21T09:24:49.000Z</time>
      </trkpt>
      <trkpt lat="47.21566" lon="4.95392">
        <ele>423</ele>
        <time>2020-05-21T09:24:51.000Z</time>
      </trkpt>
      <trkpt lat="47.21563" lon="4.95394">
        <ele>423</ele>
        <time>2020-05-21T09:24:53.000Z</time>
      </trkpt>
      <trkpt lat="47.21561" lon="4.95395">
        <ele>423</ele>
        <time>2020-05-21T09:24:55.000Z</time>
      </trkpt>
      <trkpt lat="47.21559" lon="4.95396">
        <ele>423</ele>
        <time>2020-05-21T09:24:57.000Z</time>
      </trkpt>
      <trkpt lat="47.21557" lon="4.95398">
        <ele>422.78799872</ele>
        <time>2020-05-21T09:24:59.000Z</time>
      </trkpt>
      <trkpt lat="47.21555" lon="4.95398">
        <ele>422.38799872</ele>
        <time>2020-05-21T09:25:01.000Z</time>
      </trkpt>
      <trkpt lat="47.21553" lon="4.95399">
        <ele>421.98799872</ele>
        <time>2020-05-21T09:25:03.000Z</time>
      </trkpt>
      <trkpt lat="47.2155" lon="4.954">
        <ele>421.58799872</ele>
        <time>2020-05-21T09:25:05.000Z</time>
      </trkpt>
      <trkpt lat="47.21547" lon="4.95402">
        <ele>421.18799872</ele>
        <time>2020-05-21T09:25:07.000Z</time>
      </trkpt>
      <trkpt lat="47.21545" lon="4.95403">
        <ele>421</ele>
        <time>2020-05-21T09:25:09.000Z</time>
      </trkpt>
      <trkpt lat="47.21543" lon="4.95404">
        <ele>421</ele>
        <time>2020-05-21T09:25:11.000Z</time>
      </trkpt>
      <trkpt lat="47.21541" lon="4.95405">
        <ele>421</ele>
        <time>2020-05-21T09:25:13.000Z</time>
      </trkpt>
      <trkpt lat="47.21539" lon="4.95406">
        <ele>421</ele>
        <time>2020-05-21T09:25:15.000Z</time>
      </trkpt>
      <trkpt lat="47.21537" lon="4.95408">
        <ele>421</ele>
        <time>2020-05-21T09:25:17.000Z</time>
      </trkpt>
      <trkpt lat="47.21535" lon="4.95411">
        <ele>421</ele>
        <time>2020-05-21T09:25:19.000Z</time>
      </trkpt>
      <trkpt lat="47.21535" lon="4.95415">
        <ele>421</ele>
        <time>2020-05-21T09:25:21.000Z</time>
      </trkpt>
      <trkpt lat="47.21536" lon="4.95418">
        <ele>421</ele>
        <time>2020-05-21T09:25:23.000Z</time>
      </trkpt>
      <trkpt lat="47.21536" lon="4.95422">
        <ele>421</ele>
        <time>2020-05-21T09:25:26.000Z</time>
      </trkpt>
      <trkpt lat="47.21537" lon="4.95424">
        <ele>420.99399936</ele>
        <time>2020-05-21T09:25:28.000Z</time>
      </trkpt>
      <trkpt lat="47.21537" lon="4.95428">
        <ele>420.79399936</ele>
        <time>2020-05-21T09:25:30.000Z</time>
      </trkpt>
      <trkpt lat="47.21538" lon="4.95432">
        <ele>420.59399936</ele>
        <time>2020-05-21T09:25:32.000Z</time>
      </trkpt>
      <trkpt lat="47.21538" lon="4.95436">
        <ele>420.39399936</ele>
        <time>2020-05-21T09:25:34.000Z</time>
      </trkpt>
      <trkpt lat="47.21539" lon="4.9544">
        <ele>420.19399936</ele>
        <time>2020-05-21T09:25:36.000Z</time>
      </trkpt>
      <trkpt lat="47.2154" lon="4.95444">
        <ele>419.98799872</ele>
        <time>2020-05-21T09:25:38.000Z</time>
      </trkpt>
      <trkpt lat="47.2154" lon="4.95447">
        <ele>419.58799872</ele>
        <time>2020-05-21T09:25:40.000Z</time>
      </trkpt>
      <trkpt lat="47.21541" lon="4.95449">
        <ele>419.18799872</ele>
        <time>2020-05-21T09:25:42.000Z</time>
      </trkpt>
      <trkpt lat="47.21541" lon="4.95451">
        <ele>418.98799872</ele>
        <time>2020-05-21T09:25:43.000Z</time>
      </trkpt>
      <trkpt lat="47.21541" lon="4.95455">
        <ele>418.38799872</ele>
        <time>2020-05-21T09:25:46.000Z</time>
      </trkpt>
      <trkpt lat="47.21542" lon="4.95458">
        <ele>417.99399936</ele>
        <time>2020-05-21T09:25:48.000Z</time>
      </trkpt>
      <trkpt lat="47.21542" lon="4.95462">
        <ele>417.79399936</ele>
        <time>2020-05-21T09:25:50.000Z</time>
      </trkpt>
      <trkpt lat="47.21541" lon="4.95465">
        <ele>417.59399936</ele>
        <time>2020-05-21T09:25:52.000Z</time>
      </trkpt>
      <trkpt lat="47.21541" lon="4.95468">
        <ele>417.39399936</ele>
        <time>2020-05-21T09:25:54.000Z</time>
      </trkpt>
      <trkpt lat="47.21541" lon="4.95471">
        <ele>417.19399936</ele>
        <time>2020-05-21T09:25:56.000Z</time>
      </trkpt>
      <trkpt lat="47.21543" lon="4.95474">
        <ele>416.98799872</ele>
        <time>2020-05-21T09:25:58.000Z</time>
      </trkpt>
      <trkpt lat="47.21543" lon="4.95478">
        <ele>416.58799872</ele>
        <time>2020-05-21T09:26:00.000Z</time>
      </trkpt>
      <trkpt lat="47.21544" lon="4.95482">
        <ele>416.18799872</ele>
        <time>2020-05-21T09:26:02.000Z</time>
      </trkpt>
      <trkpt lat="47.21544" lon="4.95484">
        <ele>415.98799872</ele>
        <time>2020-05-21T09:26:03.000Z</time>
      </trkpt>
      <trkpt lat="47.21545" lon="4.95487">
        <ele>415.58799872</ele>
        <time>2020-05-21T09:26:05.000Z</time>
      </trkpt>
      <trkpt lat="47.21546" lon="4.9549">
        <ele>415.18799872</ele>
        <time>2020-05-21T09:26:07.000Z</time>
      </trkpt>
      <trkpt lat="47.21546" lon="4.95493">
        <ele>415.09399936</ele>
        <time>2020-05-21T09:26:27.000Z</time>
      </trkpt>
      <trkpt lat="47.21547" lon="4.95495">
        <ele>415</ele>
        <time>2020-05-21T09:26:29.000Z</time>
      </trkpt>
      <trkpt lat="47.21547" lon="4.95498">
        <ele>415</ele>
        <time>2020-05-21T09:26:31.000Z</time>
      </trkpt>
      <trkpt lat="47.21548" lon="4.95501">
        <ele>415</ele>
        <time>2020-05-21T09:26:33.000Z</time>
      </trkpt>
      <trkpt lat="47.21549" lon="4.95505">
        <ele>415</ele>
        <time>2020-05-21T09:26:35.000Z</time>
      </trkpt>
      <trkpt lat="47.2155" lon="4.95507">
        <ele>415</ele>
        <time>2020-05-21T09:26:37.000Z</time>
      </trkpt>
      <trkpt lat="47.21551" lon="4.9551">
        <ele>415</ele>
        <time>2020-05-21T09:26:39.000Z</time>
      </trkpt>
      <trkpt lat="47.21553" lon="4.95512">
        <ele>415</ele>
        <time>2020-05-21T09:26:41.000Z</time>
      </trkpt>
      <trkpt lat="47.21555" lon="4.95514">
        <ele>415</ele>
        <time>2020-05-21T09:26:45.000Z</time>
      </trkpt>
      <trkpt lat="47.21556" lon="4.95515">
        <ele>415</ele>
        <time>2020-05-21T09:26:57.000Z</time>
      </trkpt>
      <trkpt lat="47.21558" lon="4.95516">
        <ele>414.79399936</ele>
        <time>2020-05-21T09:27:00.000Z</time>
      </trkpt>
      <trkpt lat="47.2156" lon="4.95518">
        <ele>414.59399936</ele>
        <time>2020-05-21T09:27:02.000Z</time>
      </trkpt>
      <trkpt lat="47.21561" lon="4.95519">
        <ele>414.49399936</ele>
        <time>2020-05-21T09:27:03.000Z</time>
      </trkpt>
      <trkpt lat="47.21563" lon="4.95521">
        <ele>414.29399936</ele>
        <time>2020-05-21T09:27:05.000Z</time>
      </trkpt>
      <trkpt lat="47.21564" lon="4.95524">
        <ele>414.09399936</ele>
        <time>2020-05-21T09:27:07.000Z</time>
      </trkpt>
      <trkpt lat="47.21566" lon="4.95526">
        <ele>414.10600064</ele>
        <time>2020-05-21T09:27:09.000Z</time>
      </trkpt>
      <trkpt lat="47.21568" lon="4.95528">
        <ele>414.30600064</ele>
        <time>2020-05-21T09:27:11.000Z</time>
      </trkpt>
      <trkpt lat="47.21569" lon="4.95531">
        <ele>414.50600064</ele>
        <time>2020-05-21T09:27:13.000Z</time>
      </trkpt>
      <trkpt lat="47.21571" lon="4.95533">
        <ele>414.70600064</ele>
        <time>2020-05-21T09:27:15.000Z</time>
      </trkpt>
      <trkpt lat="47.21572" lon="4.95534">
        <ele>414.90600064</ele>
        <time>2020-05-21T09:27:17.000Z</time>
      </trkpt>
      <trkpt lat="47.21573" lon="4.95537">
        <ele>414.89399936</ele>
        <time>2020-05-21T09:27:19.000Z</time>
      </trkpt>
      <trkpt lat="47.21575" lon="4.9554">
        <ele>414.59399936</ele>
        <time>2020-05-21T09:27:22.000Z</time>
      </trkpt>
      <trkpt lat="47.21575" lon="4.95543">
        <ele>414.39399936</ele>
        <time>2020-05-21T09:27:24.000Z</time>
      </trkpt>
      <trkpt lat="47.21577" lon="4.95546">
        <ele>414.19399936</ele>
        <time>2020-05-21T09:27:26.000Z</time>
      </trkpt>
      <trkpt lat="47.21578" lon="4.95549">
        <ele>414</ele>
        <time>2020-05-21T09:27:28.000Z</time>
      </trkpt>
      <trkpt lat="47.21579" lon="4.95551">
        <ele>414</ele>
        <time>2020-05-21T09:27:30.000Z</time>
      </trkpt>
      <trkpt lat="47.21581" lon="4.95553">
        <ele>414</ele>
        <time>2020-05-21T09:27:32.000Z</time>
      </trkpt>
      <trkpt lat="47.21584" lon="4.95555">
        <ele>414</ele>
        <time>2020-05-21T09:27:34.000Z</time>
      </trkpt>
      <trkpt lat="47.21586" lon="4.95557">
        <ele>414</ele>
        <time>2020-05-21T09:27:36.000Z</time>
      </trkpt>
      <trkpt lat="47.21588" lon="4.95558">
        <ele>414</ele>
        <time>2020-05-21T09:27:38.000Z</time>
      </trkpt>
      <trkpt lat="47.2159" lon="4.95561">
        <ele>414</ele>
        <time>2020-05-21T09:27:42.000Z</time>
      </trkpt>
      <trkpt lat="47.2159" lon="4.95564">
        <ele>414</ele>
        <time>2020-05-21T09:27:44.000Z</time>
      </trkpt>
      <trkpt lat="47.21591" lon="4.95567">
        <ele>414</ele>
        <time>2020-05-21T09:27:46.000Z</time>
      </trkpt>
      <trkpt lat="47.21592" lon="4.95571">
        <ele>413.98833695937</ele>
        <time>2020-05-21T09:27:48.000Z</time>
      </trkpt>
      <trkpt lat="47.21592" lon="4.95574">
        <ele>413.5996104027</ele>
        <time>2020-05-21T09:27:50.000Z</time>
      </trkpt>
      <trkpt lat="47.21592" lon="4.95577">
        <ele>413.01652056768</ele>
        <time>2020-05-21T09:27:53.000Z</time>
      </trkpt>
      <trkpt lat="47.21593" lon="4.9558">
        <ele>412.627794011</ele>
        <time>2020-05-21T09:27:55.000Z</time>
      </trkpt>
      <trkpt lat="47.21594" lon="4.95583">
        <ele>412.23906745432</ele>
        <time>2020-05-21T09:27:57.000Z</time>
      </trkpt>
      <trkpt lat="47.21595" lon="4.95587">
        <ele>411.84140112023</ele>
        <time>2020-05-21T09:27:59.000Z</time>
      </trkpt>
      <trkpt lat="47.21594" lon="4.95592">
        <ele>411.42945426599</ele>
        <time>2020-05-21T09:28:01.000Z</time>
      </trkpt>
      <trkpt lat="47.21594" lon="4.95596">
        <ele>411.01750741175</ele>
        <time>2020-05-21T09:28:03.000Z</time>
      </trkpt>
      <trkpt lat="47.21594" lon="4.95599">
        <ele>410.60556055751</ele>
        <time>2020-05-21T09:28:05.000Z</time>
      </trkpt>
      <trkpt lat="47.21594" lon="4.95602">
        <ele>410.19361370326</ele>
        <time>2020-05-21T09:28:07.000Z</time>
      </trkpt>
      <trkpt lat="47.21594" lon="4.95606">
        <ele>409.89399936</ele>
        <time>2020-05-21T09:28:09.000Z</time>
      </trkpt>
      <trkpt lat="47.21594" lon="4.95609">
        <ele>409.69399936</ele>
        <time>2020-05-21T09:28:11.000Z</time>
      </trkpt>
      <trkpt lat="47.21593" lon="4.95612">
        <ele>409.49399936</ele>
        <time>2020-05-21T09:28:13.000Z</time>
      </trkpt>
      <trkpt lat="47.21593" lon="4.95615">
        <ele>409.29399936</ele>
        <time>2020-05-21T09:28:15.000Z</time>
      </trkpt>
      <trkpt lat="47.21593" lon="4.95618">
        <ele>409.19399936</ele>
        <time>2020-05-21T09:28:16.000Z</time>
      </trkpt>
      <trkpt lat="47.21594" lon="4.95622">
        <ele>409</ele>
        <time>2020-05-21T09:28:18.000Z</time>
      </trkpt>
      <trkpt lat="47.21595" lon="4.95626">
        <ele>409</ele>
        <time>2020-05-21T09:28:20.000Z</time>
      </trkpt>
      <trkpt lat="47.21595" lon="4.9563">
        <ele>409</ele>
        <time>2020-05-21T09:28:22.000Z</time>
      </trkpt>
      <trkpt lat="47.21594" lon="4.95632">
        <ele>409</ele>
        <time>2020-05-21T09:28:26.000Z</time>
      </trkpt>
      <trkpt lat="47.21594" lon="4.95635">
        <ele>408.98799872</ele>
        <time>2020-05-21T09:28:28.000Z</time>
      </trkpt>
      <trkpt lat="47.21593" lon="4.9564">
        <ele>408.58799872</ele>
        <time>2020-05-21T09:28:30.000Z</time>
      </trkpt>
      <trkpt lat="47.21592" lon="4.95644">
        <ele>408.18799872</ele>
        <time>2020-05-21T09:28:32.000Z</time>
      </trkpt>
      <trkpt lat="47.21591" lon="4.95646">
        <ele>407.98799872</ele>
        <time>2020-05-21T09:28:33.000Z</time>
      </trkpt>
      <trkpt lat="47.21592" lon="4.9565">
        <ele>406.99399936</ele>
        <time>2020-05-21T09:28:38.000Z</time>
      </trkpt>
      <trkpt lat="47.2159" lon="4.95652">
        <ele>406.29399936</ele>
        <time>2020-05-21T09:28:45.000Z</time>
      </trkpt>
      <trkpt lat="47.2159" lon="4.95655">
        <ele>406</ele>
        <time>2020-05-21T09:28:48.000Z</time>
      </trkpt>
      <trkpt lat="47.21588" lon="4.95657">
        <ele>406</ele>
        <time>2020-05-21T09:28:50.000Z</time>
      </trkpt>
      <trkpt lat="47.21586" lon="4.95658">
        <ele>406</ele>
        <time>2020-05-21T09:28:52.000Z</time>
      </trkpt>
      <trkpt lat="47.21584" lon="4.95661">
        <ele>406</ele>
        <time>2020-05-21T09:28:56.000Z</time>
      </trkpt>
      <trkpt lat="47.21584" lon="4.95665">
        <ele>405.99399936</ele>
        <time>2020-05-21T09:28:58.000Z</time>
      </trkpt>
      <trkpt lat="47.21584" lon="4.95668">
        <ele>405.79399936</ele>
        <time>2020-05-21T09:29:00.000Z</time>
      </trkpt>
      <trkpt lat="47.21585" lon="4.95672">
        <ele>405.59399936</ele>
        <time>2020-05-21T09:29:02.000Z</time>
      </trkpt>
      <trkpt lat="47.21586" lon="4.95675">
        <ele>405.39399936</ele>
        <time>2020-05-21T09:29:04.000Z</time>
      </trkpt>
      <trkpt lat="47.21587" lon="4.95679">
        <ele>405.09399936</ele>
        <time>2020-05-21T09:29:07.000Z</time>
      </trkpt>
      <trkpt lat="47.21587" lon="4.95682">
        <ele>404.59399936</ele>
        <time>2020-05-21T09:29:12.000Z</time>
      </trkpt>
      <trkpt lat="47.21587" lon="4.95685">
        <ele>403.99399936</ele>
        <time>2020-05-21T09:29:18.000Z</time>
      </trkpt>
      <trkpt lat="47.21589" lon="4.95686">
        <ele>403.79399936</ele>
        <time>2020-05-21T09:29:20.000Z</time>
      </trkpt>
      <trkpt lat="47.2159" lon="4.9569">
        <ele>403.59399936</ele>
        <time>2020-05-21T09:29:22.000Z</time>
      </trkpt>
      <trkpt lat="47.21592" lon="4.95693">
        <ele>403.49399936</ele>
        <time>2020-05-21T09:29:23.000Z</time>
      </trkpt>
      <trkpt lat="47.21594" lon="4.95696">
        <ele>403.29399936</ele>
        <time>2020-05-21T09:29:25.000Z</time>
      </trkpt>
      <trkpt lat="47.21595" lon="4.957">
        <ele>403.09399936</ele>
        <time>2020-05-21T09:29:27.000Z</time>
      </trkpt>
      <trkpt lat="47.21596" lon="4.95704">
        <ele>403</ele>
        <time>2020-05-21T09:29:29.000Z</time>
      </trkpt>
      <trkpt lat="47.21596" lon="4.95707">
        <ele>403</ele>
        <time>2020-05-21T09:29:31.000Z</time>
      </trkpt>
      <trkpt lat="47.21596" lon="4.9571">
        <ele>403</ele>
        <time>2020-05-21T09:29:33.000Z</time>
      </trkpt>
      <trkpt lat="47.21596" lon="4.95714">
        <ele>403</ele>
        <time>2020-05-21T09:29:35.000Z</time>
      </trkpt>
      <trkpt lat="47.21594" lon="4.95716">
        <ele>403</ele>
        <time>2020-05-21T09:29:37.000Z</time>
      </trkpt>
      <trkpt lat="47.21593" lon="4.95719">
        <ele>403</ele>
        <time>2020-05-21T09:29:39.000Z</time>
      </trkpt>
      <trkpt lat="47.21592" lon="4.95722">
        <ele>403</ele>
        <time>2020-05-21T09:29:42.000Z</time>
      </trkpt>
      <trkpt lat="47.21591" lon="4.95725">
        <ele>403</ele>
        <time>2020-05-21T09:29:45.000Z</time>
      </trkpt>
      <trkpt lat="47.2159" lon="4.95728">
        <ele>403</ele>
        <time>2020-05-21T09:29:47.000Z</time>
      </trkpt>
      <trkpt lat="47.2159" lon="4.95731">
        <ele>402.78799872</ele>
        <time>2020-05-21T09:29:49.000Z</time>
      </trkpt>
      <trkpt lat="47.2159" lon="4.95734">
        <ele>402.38799872</ele>
        <time>2020-05-21T09:29:51.000Z</time>
      </trkpt>
      <trkpt lat="47.21589" lon="4.95737">
        <ele>401.98799872</ele>
        <time>2020-05-21T09:29:53.000Z</time>
      </trkpt>
      <trkpt lat="47.21589" lon="4.95741">
        <ele>401.38799872</ele>
        <time>2020-05-21T09:29:56.000Z</time>
      </trkpt>
      <trkpt lat="47.21588" lon="4.95744">
        <ele>400.98199808</ele>
        <time>2020-05-21T09:29:58.000Z</time>
      </trkpt>
      <trkpt lat="47.21586" lon="4.95747">
        <ele>400.38199808</ele>
        <time>2020-05-21T09:30:00.000Z</time>
      </trkpt>
      <trkpt lat="47.21585" lon="4.95751">
        <ele>399.78199808</ele>
        <time>2020-05-21T09:30:02.000Z</time>
      </trkpt>
      <trkpt lat="47.21585" lon="4.95753">
        <ele>399.48199808</ele>
        <time>2020-05-21T09:30:03.000Z</time>
      </trkpt>
      <trkpt lat="47.21583" lon="4.95755">
        <ele>398.88199808</ele>
        <time>2020-05-21T09:30:05.000Z</time>
      </trkpt>
      <trkpt lat="47.21581" lon="4.95756">
        <ele>397.99399936</ele>
        <time>2020-05-21T09:30:08.000Z</time>
      </trkpt>
      <trkpt lat="47.21579" lon="4.95758">
        <ele>397.69399936</ele>
        <time>2020-05-21T09:30:11.000Z</time>
      </trkpt>
      <trkpt lat="47.21577" lon="4.9576">
        <ele>397.49399936</ele>
        <time>2020-05-21T09:30:13.000Z</time>
      </trkpt>
      <trkpt lat="47.21576" lon="4.95762">
        <ele>397.29399936</ele>
        <time>2020-05-21T09:30:15.000Z</time>
      </trkpt>
      <trkpt lat="47.21574" lon="4.95763">
        <ele>397.09399936</ele>
        <time>2020-05-21T09:30:17.000Z</time>
      </trkpt>
      <trkpt lat="47.21572" lon="4.95765">
        <ele>397</ele>
        <time>2020-05-21T09:30:19.000Z</time>
      </trkpt>
      <trkpt lat="47.2157" lon="4.95767">
        <ele>397</ele>
        <time>2020-05-21T09:30:21.000Z</time>
      </trkpt>
      <trkpt lat="47.21568" lon="4.95769">
        <ele>397</ele>
        <time>2020-05-21T09:30:23.000Z</time>
      </trkpt>
      <trkpt lat="47.21566" lon="4.95771">
        <ele>397</ele>
        <time>2020-05-21T09:30:25.000Z</time>
      </trkpt>
      <trkpt lat="47.21565" lon="4.95773">
        <ele>397</ele>
        <time>2020-05-21T09:30:27.000Z</time>
      </trkpt>
      <trkpt lat="47.21563" lon="4.95776">
        <ele>396.89399936</ele>
        <time>2020-05-21T09:30:29.000Z</time>
      </trkpt>
      <trkpt lat="47.21561" lon="4.95778">
        <ele>396.69399936</ele>
        <time>2020-05-21T09:30:31.000Z</time>
      </trkpt>
      <trkpt lat="47.21559" lon="4.9578">
        <ele>396.49399936</ele>
        <time>2020-05-21T09:30:33.000Z</time>
      </trkpt>
      <trkpt lat="47.21557" lon="4.95781">
        <ele>396.19399936</ele>
        <time>2020-05-21T09:30:36.000Z</time>
      </trkpt>
      <trkpt lat="47.21559" lon="4.95782">
        <ele>395</ele>
        <time>2020-05-21T09:30:53.000Z</time>
      </trkpt>
      <trkpt lat="47.21561" lon="4.95782">
        <ele>395</ele>
        <time>2020-05-21T09:30:55.000Z</time>
      </trkpt>
      <trkpt lat="47.21558" lon="4.95781">
        <ele>395</ele>
        <time>2020-05-21T09:31:00.000Z</time>
      </trkpt>
      <trkpt lat="47.21556" lon="4.95781">
        <ele>395</ele>
        <time>2020-05-21T09:31:06.000Z</time>
      </trkpt>
      <trkpt lat="47.21555" lon="4.9578">
        <ele>396</ele>
        <time>2020-05-21T09:31:27.000Z</time>
      </trkpt>
      <trkpt lat="47.21553" lon="4.95778">
        <ele>395.89698684052</ele>
        <time>2020-05-21T09:31:29.000Z</time>
      </trkpt>
      <trkpt lat="47.21551" lon="4.95778">
        <ele>395.3138970055</ele>
        <time>2020-05-21T09:31:35.000Z</time>
      </trkpt>
      <trkpt lat="47.21549" lon="4.95778">
        <ele>395.02235208799</ele>
        <time>2020-05-21T09:31:38.000Z</time>
      </trkpt>
      <trkpt lat="47.21547" lon="4.95778">
        <ele>395</ele>
        <time>2020-05-21T09:31:40.000Z</time>
      </trkpt>
      <trkpt lat="47.21545" lon="4.95778">
        <ele>395</ele>
        <time>2020-05-21T09:31:42.000Z</time>
      </trkpt>
      <trkpt lat="47.21543" lon="4.95778">
        <ele>395</ele>
        <time>2020-05-21T09:31:44.000Z</time>
      </trkpt>
      <trkpt lat="47.21541" lon="4.95778">
        <ele>395</ele>
        <time>2020-05-21T09:31:46.000Z</time>
      </trkpt>
      <trkpt lat="47.21538" lon="4.95778">
        <ele>395</ele>
        <time>2020-05-21T09:31:49.000Z</time>
      </trkpt>
      <trkpt lat="47.21536" lon="4.95777">
        <ele>395</ele>
        <time>2020-05-21T09:31:51.000Z</time>
      </trkpt>
      <trkpt lat="47.21534" lon="4.95776">
        <ele>395</ele>
        <time>2020-05-21T09:31:53.000Z</time>
      </trkpt>
      <trkpt lat="47.21532" lon="4.95776">
        <ele>395</ele>
        <time>2020-05-21T09:31:55.000Z</time>
      </trkpt>
      <trkpt lat="47.21529" lon="4.95775">
        <ele>395</ele>
        <time>2020-05-21T09:31:57.000Z</time>
      </trkpt>
      <trkpt lat="47.21527" lon="4.95775">
        <ele>395</ele>
        <time>2020-05-21T09:31:59.000Z</time>
      </trkpt>
      <trkpt lat="47.21525" lon="4.95773">
        <ele>395</ele>
        <time>2020-05-21T09:32:01.000Z</time>
      </trkpt>
      <trkpt lat="47.21523" lon="4.95773">
        <ele>395</ele>
        <time>2020-05-21T09:32:03.000Z</time>
      </trkpt>
      <trkpt lat="47.2152" lon="4.95771">
        <ele>395</ele>
        <time>2020-05-21T09:32:05.000Z</time>
      </trkpt>
      <trkpt lat="47.21518" lon="4.9577">
        <ele>395</ele>
        <time>2020-05-21T09:32:08.000Z</time>
      </trkpt>
      <trkpt lat="47.21517" lon="4.95768">
        <ele>395</ele>
        <time>2020-05-21T09:32:10.000Z</time>
      </trkpt>
      <trkpt lat="47.21515" lon="4.95767">
        <ele>395</ele>
        <time>2020-05-21T09:32:12.000Z</time>
      </trkpt>
      <trkpt lat="47.21513" lon="4.95764">
        <ele>395</ele>
        <time>2020-05-21T09:32:16.000Z</time>
      </trkpt>
      <trkpt lat="47.21511" lon="4.95761">
        <ele>395</ele>
        <time>2020-05-21T09:32:18.000Z</time>
      </trkpt>
      <trkpt lat="47.21509" lon="4.95759">
        <ele>395</ele>
        <time>2020-05-21T09:32:20.000Z</time>
      </trkpt>
      <trkpt lat="47.21506" lon="4.95757">
        <ele>395</ele>
        <time>2020-05-21T09:32:22.000Z</time>
      </trkpt>
      <trkpt lat="47.21503" lon="4.95755">
        <ele>395</ele>
        <time>2020-05-21T09:32:24.000Z</time>
      </trkpt>
      <trkpt lat="47.21501" lon="4.95754">
        <ele>395</ele>
        <time>2020-05-21T09:32:26.000Z</time>
      </trkpt>
      <trkpt lat="47.21498" lon="4.95753">
        <ele>395</ele>
        <time>2020-05-21T09:32:28.000Z</time>
      </trkpt>
      <trkpt lat="47.21496" lon="4.95752">
        <ele>395</ele>
        <time>2020-05-21T09:32:30.000Z</time>
      </trkpt>
      <trkpt lat="47.21493" lon="4.95752">
        <ele>395</ele>
        <time>2020-05-21T09:32:32.000Z</time>
      </trkpt>
      <trkpt lat="47.2149" lon="4.95752">
        <ele>395</ele>
        <time>2020-05-21T09:32:34.000Z</time>
      </trkpt>
      <trkpt lat="47.21488" lon="4.95752">
        <ele>395</ele>
        <time>2020-05-21T09:32:36.000Z</time>
      </trkpt>
      <trkpt lat="47.21485" lon="4.95752">
        <ele>395</ele>
        <time>2020-05-21T09:32:38.000Z</time>
      </trkpt>
      <trkpt lat="47.21482" lon="4.95751">
        <ele>395</ele>
        <time>2020-05-21T09:32:40.000Z</time>
      </trkpt>
      <trkpt lat="47.2148" lon="4.9575">
        <ele>395</ele>
        <time>2020-05-21T09:32:42.000Z</time>
      </trkpt>
      <trkpt lat="47.21477" lon="4.9575">
        <ele>395</ele>
        <time>2020-05-21T09:32:44.000Z</time>
      </trkpt>
      <trkpt lat="47.21475" lon="4.9575">
        <ele>395</ele>
        <time>2020-05-21T09:32:47.000Z</time>
      </trkpt>
      <trkpt lat="47.21473" lon="4.9575">
        <ele>394.89399936</ele>
        <time>2020-05-21T09:32:49.000Z</time>
      </trkpt>
      <trkpt lat="47.2147" lon="4.95748">
        <ele>394.69399936</ele>
        <time>2020-05-21T09:32:51.000Z</time>
      </trkpt>
      <trkpt lat="47.21467" lon="4.95746">
        <ele>394.49399936</ele>
        <time>2020-05-21T09:32:53.000Z</time>
      </trkpt>
      <trkpt lat="47.21465" lon="4.95746">
        <ele>394.29399936</ele>
        <time>2020-05-21T09:32:55.000Z</time>
      </trkpt>
      <trkpt lat="47.21463" lon="4.95746">
        <ele>394.09399936</ele>
        <time>2020-05-21T09:32:57.000Z</time>
      </trkpt>
      <trkpt lat="47.21461" lon="4.95746">
        <ele>393.89399936</ele>
        <time>2020-05-21T09:32:59.000Z</time>
      </trkpt>
      <trkpt lat="47.21458" lon="4.95745">
        <ele>393.69399936</ele>
        <time>2020-05-21T09:33:01.000Z</time>
      </trkpt>
      <trkpt lat="47.21456" lon="4.95745">
        <ele>393.49399936</ele>
        <time>2020-05-21T09:33:03.000Z</time>
      </trkpt>
      <trkpt lat="47.21453" lon="4.95746">
        <ele>393.29399936</ele>
        <time>2020-05-21T09:33:05.000Z</time>
      </trkpt>
      <trkpt lat="47.21451" lon="4.95747">
        <ele>393.09399936</ele>
        <time>2020-05-21T09:33:07.000Z</time>
      </trkpt>
      <trkpt lat="47.21449" lon="4.95746">
        <ele>392.79399936</ele>
        <time>2020-05-21T09:33:10.000Z</time>
      </trkpt>
      <trkpt lat="47.21446" lon="4.95746">
        <ele>392.59399936</ele>
        <time>2020-05-21T09:33:12.000Z</time>
      </trkpt>
      <trkpt lat="47.21443" lon="4.95745">
        <ele>392.39399936</ele>
        <time>2020-05-21T09:33:14.000Z</time>
      </trkpt>
      <trkpt lat="47.21441" lon="4.95746">
        <ele>392.19399936</ele>
        <time>2020-05-21T09:33:16.000Z</time>
      </trkpt>
      <trkpt lat="47.21438" lon="4.95745">
        <ele>391.99399936</ele>
        <time>2020-05-21T09:33:18.000Z</time>
      </trkpt>
      <trkpt lat="47.21436" lon="4.95745">
        <ele>391.79399936</ele>
        <time>2020-05-21T09:33:20.000Z</time>
      </trkpt>
      <trkpt lat="47.21434" lon="4.95744">
        <ele>391.59399936</ele>
        <time>2020-05-21T09:33:22.000Z</time>
      </trkpt>
      <trkpt lat="47.21432" lon="4.95744">
        <ele>391.49399936</ele>
        <time>2020-05-21T09:33:23.000Z</time>
      </trkpt>
      <trkpt lat="47.21429" lon="4.95743">
        <ele>391.29399936</ele>
        <time>2020-05-21T09:33:25.000Z</time>
      </trkpt>
      <trkpt lat="47.21427" lon="4.95743">
        <ele>391.09399936</ele>
        <time>2020-05-21T09:33:27.000Z</time>
      </trkpt>
      <trkpt lat="47.21425" lon="4.95743">
        <ele>390.89399936</ele>
        <time>2020-05-21T09:33:29.000Z</time>
      </trkpt>
      <trkpt lat="47.21423" lon="4.95743">
        <ele>390.69399936</ele>
        <time>2020-05-21T09:33:31.000Z</time>
      </trkpt>
      <trkpt lat="47.2142" lon="4.95743">
        <ele>390.49399936</ele>
        <time>2020-05-21T09:33:33.000Z</time>
      </trkpt>
      <trkpt lat="47.21418" lon="4.95742">
        <ele>390.29399936</ele>
        <time>2020-05-21T09:33:35.000Z</time>
      </trkpt>
      <trkpt lat="47.21415" lon="4.95741">
        <ele>390.09399936</ele>
        <time>2020-05-21T09:33:37.000Z</time>
      </trkpt>
      <trkpt lat="47.21412" lon="4.95741">
        <ele>389.89399936</ele>
        <time>2020-05-21T09:33:39.000Z</time>
      </trkpt>
      <trkpt lat="47.2141" lon="4.95741">
        <ele>389.69399936</ele>
        <time>2020-05-21T09:33:41.000Z</time>
      </trkpt>
      <trkpt lat="47.21406" lon="4.95741">
        <ele>389.49399936</ele>
        <time>2020-05-21T09:33:43.000Z</time>
      </trkpt>
      <trkpt lat="47.21404" lon="4.95741">
        <ele>389.29399936</ele>
        <time>2020-05-21T09:33:45.000Z</time>
      </trkpt>
      <trkpt lat="47.21402" lon="4.95741">
        <ele>389.09399936</ele>
        <time>2020-05-21T09:33:47.000Z</time>
      </trkpt>
      <trkpt lat="47.214" lon="4.95741">
        <ele>388.89399936</ele>
        <time>2020-05-21T09:33:49.000Z</time>
      </trkpt>
      <trkpt lat="47.21397" lon="4.95742">
        <ele>388.69399936</ele>
        <time>2020-05-21T09:33:51.000Z</time>
      </trkpt>
      <trkpt lat="47.21394" lon="4.95743">
        <ele>388.49399936</ele>
        <time>2020-05-21T09:33:53.000Z</time>
      </trkpt>
      <trkpt lat="47.21391" lon="4.95742">
        <ele>388.29399936</ele>
        <time>2020-05-21T09:33:55.000Z</time>
      </trkpt>
      <trkpt lat="47.21389" lon="4.95742">
        <ele>388.09399936</ele>
        <time>2020-05-21T09:33:57.000Z</time>
      </trkpt>
      <trkpt lat="47.21387" lon="4.95742">
        <ele>387.78799872</ele>
        <time>2020-05-21T09:33:59.000Z</time>
      </trkpt>
      <trkpt lat="47.21385" lon="4.95742">
        <ele>387.18799872</ele>
        <time>2020-05-21T09:34:02.000Z</time>
      </trkpt>
      <trkpt lat="47.21384" lon="4.95742">
        <ele>386.98799872</ele>
        <time>2020-05-21T09:34:03.000Z</time>
      </trkpt>
      <trkpt lat="47.21382" lon="4.95741">
        <ele>386.58799872</ele>
        <time>2020-05-21T09:34:05.000Z</time>
      </trkpt>
      <trkpt lat="47.2138" lon="4.95741">
        <ele>386.18799872</ele>
        <time>2020-05-21T09:34:07.000Z</time>
      </trkpt>
      <trkpt lat="47.21378" lon="4.95741">
        <ele>386</ele>
        <time>2020-05-21T09:34:10.000Z</time>
      </trkpt>
      <trkpt lat="47.21375" lon="4.9574">
        <ele>386</ele>
        <time>2020-05-21T09:34:12.000Z</time>
      </trkpt>
      <trkpt lat="47.21372" lon="4.95739">
        <ele>386</ele>
        <time>2020-05-21T09:34:14.000Z</time>
      </trkpt>
      <trkpt lat="47.21369" lon="4.95738">
        <ele>386</ele>
        <time>2020-05-21T09:34:16.000Z</time>
      </trkpt>
      <trkpt lat="47.21367" lon="4.95738">
        <ele>386</ele>
        <time>2020-05-21T09:34:18.000Z</time>
      </trkpt>
      <trkpt lat="47.21365" lon="4.95738">
        <ele>385.82300032</ele>
        <time>2020-05-21T09:34:20.000Z</time>
      </trkpt>
      <trkpt lat="47.21363" lon="4.95738">
        <ele>385.62300032</ele>
        <time>2020-05-21T09:34:22.000Z</time>
      </trkpt>
      <trkpt lat="47.21361" lon="4.95737">
        <ele>385.42300032</ele>
        <time>2020-05-21T09:34:24.000Z</time>
      </trkpt>
      <trkpt lat="47.21358" lon="4.95736">
        <ele>385.22300032</ele>
        <time>2020-05-21T09:34:26.000Z</time>
      </trkpt>
      <trkpt lat="47.21357" lon="4.95736">
        <ele>385.02300032</ele>
        <time>2020-05-21T09:34:28.000Z</time>
      </trkpt>
      <trkpt lat="47.21354" lon="4.95736">
        <ele>384.81901861367</ele>
        <time>2020-05-21T09:34:30.000Z</time>
      </trkpt>
      <trkpt lat="47.21352" lon="4.95736">
        <ele>384.61451950234</ele>
        <time>2020-05-21T09:34:32.000Z</time>
      </trkpt>
      <trkpt lat="47.2135" lon="4.95736">
        <ele>384.41002039101</ele>
        <time>2020-05-21T09:34:34.000Z</time>
      </trkpt>
      <trkpt lat="47.21347" lon="4.95736">
        <ele>384.20552127969</ele>
        <time>2020-05-21T09:34:36.000Z</time>
      </trkpt>
      <trkpt lat="47.21345" lon="4.95736">
        <ele>384.00102216836</ele>
        <time>2020-05-21T09:34:38.000Z</time>
      </trkpt>
      <trkpt lat="47.21342" lon="4.95737">
        <ele>383.59999948543</ele>
        <time>2020-05-21T09:34:40.000Z</time>
      </trkpt>
      <trkpt lat="47.2134" lon="4.95737">
        <ele>383.19798956447</ele>
        <time>2020-05-21T09:34:42.000Z</time>
      </trkpt>
      <trkpt lat="47.21339" lon="4.95737">
        <ele>382.99698460399</ele>
        <time>2020-05-21T09:34:43.000Z</time>
      </trkpt>
      <trkpt lat="47.21336" lon="4.95737">
        <ele>382.59497468302</ele>
        <time>2020-05-21T09:34:45.000Z</time>
      </trkpt>
      <trkpt lat="47.21334" lon="4.95736">
        <ele>382.19296476206</ele>
        <time>2020-05-21T09:34:47.000Z</time>
      </trkpt>
      <trkpt lat="47.21331" lon="4.95737">
        <ele>382</ele>
        <time>2020-05-21T09:34:49.000Z</time>
      </trkpt>
      <trkpt lat="47.2133" lon="4.95739">
        <ele>382</ele>
        <time>2020-05-21T09:34:51.000Z</time>
      </trkpt>
      <trkpt lat="47.21328" lon="4.95739">
        <ele>382</ele>
        <time>2020-05-21T09:34:53.000Z</time>
      </trkpt>
      <trkpt lat="47.21325" lon="4.9574">
        <ele>382</ele>
        <time>2020-05-21T09:34:55.000Z</time>
      </trkpt>
      <trkpt lat="47.21323" lon="4.9574">
        <ele>382</ele>
        <time>2020-05-21T09:34:57.000Z</time>
      </trkpt>
      <trkpt lat="47.2132" lon="4.95741">
        <ele>381.78799872</ele>
        <time>2020-05-21T09:34:59.000Z</time>
      </trkpt>
      <trkpt lat="47.21318" lon="4.95741">
        <ele>381.38799872</ele>
        <time>2020-05-21T09:35:01.000Z</time>
      </trkpt>
      <trkpt lat="47.21316" lon="4.95742">
        <ele>380.98799872</ele>
        <time>2020-05-21T09:35:03.000Z</time>
      </trkpt>
      <trkpt lat="47.21313" lon="4.95742">
        <ele>380.58799872</ele>
        <time>2020-05-21T09:35:05.000Z</time>
      </trkpt>
      <trkpt lat="47.21311" lon="4.95741">
        <ele>380.18799872</ele>
        <time>2020-05-21T09:35:07.000Z</time>
      </trkpt>
      <trkpt lat="47.21309" lon="4.9574">
        <ele>379.89399936</ele>
        <time>2020-05-21T09:35:09.000Z</time>
      </trkpt>
      <trkpt lat="47.21307" lon="4.95738">
        <ele>379.69399936</ele>
        <time>2020-05-21T09:35:11.000Z</time>
      </trkpt>
      <trkpt lat="47.21304" lon="4.95736">
        <ele>379.49399936</ele>
        <time>2020-05-21T09:35:13.000Z</time>
      </trkpt>
      <trkpt lat="47.21301" lon="4.95736">
        <ele>379.29399936</ele>
        <time>2020-05-21T09:35:15.000Z</time>
      </trkpt>
      <trkpt lat="47.21299" lon="4.95735">
        <ele>379.09399936</ele>
        <time>2020-05-21T09:35:17.000Z</time>
      </trkpt>
      <trkpt lat="47.21296" lon="4.95735">
        <ele>378.89399936</ele>
        <time>2020-05-21T09:35:19.000Z</time>
      </trkpt>
      <trkpt lat="47.21294" lon="4.95734">
        <ele>378.69399936</ele>
        <time>2020-05-21T09:35:21.000Z</time>
      </trkpt>
      <trkpt lat="47.21292" lon="4.95734">
        <ele>378.49399936</ele>
        <time>2020-05-21T09:35:23.000Z</time>
      </trkpt>
      <trkpt lat="47.2129" lon="4.95734">
        <ele>378.29399936</ele>
        <time>2020-05-21T09:35:25.000Z</time>
      </trkpt>
      <trkpt lat="47.21288" lon="4.95733">
        <ele>378.09399936</ele>
        <time>2020-05-21T09:35:27.000Z</time>
      </trkpt>
      <trkpt lat="47.21286" lon="4.95732">
        <ele>377.89399936</ele>
        <time>2020-05-21T09:35:29.000Z</time>
      </trkpt>
      <trkpt lat="47.21284" lon="4.95731">
        <ele>377.69399936</ele>
        <time>2020-05-21T09:35:31.000Z</time>
      </trkpt>
      <trkpt lat="47.21281" lon="4.9573">
        <ele>377.49399936</ele>
        <time>2020-05-21T09:35:33.000Z</time>
      </trkpt>
      <trkpt lat="47.21279" lon="4.95729">
        <ele>377.29399936</ele>
        <time>2020-05-21T09:35:35.000Z</time>
      </trkpt>
      <trkpt lat="47.21276" lon="4.95729">
        <ele>377.09399936</ele>
        <time>2020-05-21T09:35:37.000Z</time>
      </trkpt>
      <trkpt lat="47.21274" lon="4.95728">
        <ele>377</ele>
        <time>2020-05-21T09:35:39.000Z</time>
      </trkpt>
      <trkpt lat="47.21271" lon="4.95728">
        <ele>377</ele>
        <time>2020-05-21T09:35:41.000Z</time>
      </trkpt>
      <trkpt lat="47.21269" lon="4.95728">
        <ele>377</ele>
        <time>2020-05-21T09:35:43.000Z</time>
      </trkpt>
      <trkpt lat="47.21266" lon="4.95728">
        <ele>377</ele>
        <time>2020-05-21T09:35:46.000Z</time>
      </trkpt>
      <trkpt lat="47.21263" lon="4.95728">
        <ele>376.99399936</ele>
        <time>2020-05-21T09:35:48.000Z</time>
      </trkpt>
      <trkpt lat="47.2126" lon="4.95728">
        <ele>376.69399936</ele>
        <time>2020-05-21T09:35:51.000Z</time>
      </trkpt>
      <trkpt lat="47.21258" lon="4.95728">
        <ele>376.49399936</ele>
        <time>2020-05-21T09:35:53.000Z</time>
      </trkpt>
      <trkpt lat="47.21256" lon="4.95727">
        <ele>376.29399936</ele>
        <time>2020-05-21T09:35:55.000Z</time>
      </trkpt>
      <trkpt lat="47.21254" lon="4.95728">
        <ele>376.09399936</ele>
        <time>2020-05-21T09:35:57.000Z</time>
      </trkpt>
      <trkpt lat="47.21251" lon="4.95728">
        <ele>375.78799872</ele>
        <time>2020-05-21T09:35:59.000Z</time>
      </trkpt>
      <trkpt lat="47.21249" lon="4.95727">
        <ele>375.38799872</ele>
        <time>2020-05-21T09:36:01.000Z</time>
      </trkpt>
      <trkpt lat="47.21247" lon="4.95728">
        <ele>374.98799872</ele>
        <time>2020-05-21T09:36:03.000Z</time>
      </trkpt>
      <trkpt lat="47.21245" lon="4.95728">
        <ele>374.58799872</ele>
        <time>2020-05-21T09:36:05.000Z</time>
      </trkpt>
      <trkpt lat="47.21242" lon="4.95728">
        <ele>374.18799872</ele>
        <time>2020-05-21T09:36:07.000Z</time>
      </trkpt>
      <trkpt lat="47.21239" lon="4.95727">
        <ele>373.89399936</ele>
        <time>2020-05-21T09:36:09.000Z</time>
      </trkpt>
      <trkpt lat="47.21237" lon="4.95727">
        <ele>373.69399936</ele>
        <time>2020-05-21T09:36:11.000Z</time>
      </trkpt>
      <trkpt lat="47.21234" lon="4.95726">
        <ele>373.49399936</ele>
        <time>2020-05-21T09:36:13.000Z</time>
      </trkpt>
      <trkpt lat="47.21232" lon="4.95726">
        <ele>373.29399936</ele>
        <time>2020-05-21T09:36:15.000Z</time>
      </trkpt>
      <trkpt lat="47.21229" lon="4.95726">
        <ele>373.09399936</ele>
        <time>2020-05-21T09:36:17.000Z</time>
      </trkpt>
      <trkpt lat="47.21227" lon="4.95726">
        <ele>372.89399936</ele>
        <time>2020-05-21T09:36:19.000Z</time>
      </trkpt>
      <trkpt lat="47.21225" lon="4.95725">
        <ele>372.69399936</ele>
        <time>2020-05-21T09:36:21.000Z</time>
      </trkpt>
      <trkpt lat="47.21222" lon="4.95725">
        <ele>372.49399936</ele>
        <time>2020-05-21T09:36:23.000Z</time>
      </trkpt>
      <trkpt lat="47.2122" lon="4.95725">
        <ele>372.29399936</ele>
        <time>2020-05-21T09:36:25.000Z</time>
      </trkpt>
      <trkpt lat="47.21217" lon="4.95725">
        <ele>372.09399936</ele>
        <time>2020-05-21T09:36:27.000Z</time>
      </trkpt>
      <trkpt lat="47.21215" lon="4.95724">
        <ele>371.89399936</ele>
        <time>2020-05-21T09:36:29.000Z</time>
      </trkpt>
      <trkpt lat="47.21212" lon="4.95723">
        <ele>371.49399936</ele>
        <time>2020-05-21T09:36:33.000Z</time>
      </trkpt>
      <trkpt lat="47.2121" lon="4.95723">
        <ele>371.29399936</ele>
        <time>2020-05-21T09:36:35.000Z</time>
      </trkpt>
      <trkpt lat="47.21208" lon="4.95722">
        <ele>371.09399936</ele>
        <time>2020-05-21T09:36:37.000Z</time>
      </trkpt>
      <trkpt lat="47.21206" lon="4.95722">
        <ele>370.89577134716</ele>
        <time>2020-05-21T09:36:39.000Z</time>
      </trkpt>
      <trkpt lat="47.21203" lon="4.95722">
        <ele>370.69911469897</ele>
        <time>2020-05-21T09:36:41.000Z</time>
      </trkpt>
      <trkpt lat="47.212" lon="4.95722">
        <ele>370.50245805078</ele>
        <time>2020-05-21T09:36:43.000Z</time>
      </trkpt>
      <trkpt lat="47.21197" lon="4.95721">
        <ele>370.30580140259</ele>
        <time>2020-05-21T09:36:45.000Z</time>
      </trkpt>
      <trkpt lat="47.21195" lon="4.95721">
        <ele>370.1091447544</ele>
        <time>2020-05-21T09:36:47.000Z</time>
      </trkpt>
      <trkpt lat="47.21193" lon="4.9572">
        <ele>369.9094610713</ele>
        <time>2020-05-21T09:36:49.000Z</time>
      </trkpt>
      <trkpt lat="47.2119" lon="4.9572">
        <ele>369.706002073</ele>
        <time>2020-05-21T09:36:51.000Z</time>
      </trkpt>
      <trkpt lat="47.21188" lon="4.95719">
        <ele>369.50254307471</ele>
        <time>2020-05-21T09:36:53.000Z</time>
      </trkpt>
      <trkpt lat="47.21185" lon="4.95719">
        <ele>369.29908407642</ele>
        <time>2020-05-21T09:36:55.000Z</time>
      </trkpt>
      <trkpt lat="47.21182" lon="4.95718">
        <ele>369.09562507813</ele>
        <time>2020-05-21T09:36:57.000Z</time>
      </trkpt>
      <trkpt lat="47.21179" lon="4.95718">
        <ele>368.57599744</ele>
        <time>2020-05-21T09:36:59.000Z</time>
      </trkpt>
      <trkpt lat="47.21177" lon="4.95717">
        <ele>367.77599744</ele>
        <time>2020-05-21T09:37:01.000Z</time>
      </trkpt>
      <trkpt lat="47.21174" lon="4.95717">
        <ele>366.97599744</ele>
        <time>2020-05-21T09:37:03.000Z</time>
      </trkpt>
      <trkpt lat="47.21172" lon="4.95717">
        <ele>366.17599744</ele>
        <time>2020-05-21T09:37:05.000Z</time>
      </trkpt>
      <trkpt lat="47.21169" lon="4.95716">
        <ele>365.37599744</ele>
        <time>2020-05-21T09:37:07.000Z</time>
      </trkpt>
      <trkpt lat="47.21167" lon="4.95716">
        <ele>364.89399936</ele>
        <time>2020-05-21T09:37:09.000Z</time>
      </trkpt>
      <trkpt lat="47.21164" lon="4.95715">
        <ele>364.69399936</ele>
        <time>2020-05-21T09:37:11.000Z</time>
      </trkpt>
      <trkpt lat="47.21162" lon="4.95714">
        <ele>364.49399936</ele>
        <time>2020-05-21T09:37:13.000Z</time>
      </trkpt>
      <trkpt lat="47.21159" lon="4.95714">
        <ele>364.19399936</ele>
        <time>2020-05-21T09:37:16.000Z</time>
      </trkpt>
      <trkpt lat="47.21157" lon="4.95714">
        <ele>364</ele>
        <time>2020-05-21T09:37:18.000Z</time>
      </trkpt>
      <trkpt lat="47.21156" lon="4.95713">
        <ele>364</ele>
        <time>2020-05-21T09:37:20.000Z</time>
      </trkpt>
      <trkpt lat="47.21154" lon="4.95714">
        <ele>364</ele>
        <time>2020-05-21T09:37:22.000Z</time>
      </trkpt>
      <trkpt lat="47.21153" lon="4.95717">
        <ele>364</ele>
        <time>2020-05-21T09:37:25.000Z</time>
      </trkpt>
      <trkpt lat="47.21155" lon="4.95718">
        <ele>364</ele>
        <time>2020-05-21T09:37:27.000Z</time>
      </trkpt>
      <trkpt lat="47.21156" lon="4.95716">
        <ele>364</ele>
        <time>2020-05-21T09:37:30.000Z</time>
      </trkpt>
      <trkpt lat="47.21157" lon="4.95714">
        <ele>364</ele>
        <time>2020-05-21T09:37:33.000Z</time>
      </trkpt>
      <trkpt lat="47.21158" lon="4.95711">
        <ele>364</ele>
        <time>2020-05-21T09:38:22.000Z</time>
      </trkpt>
      <trkpt lat="47.21159" lon="4.95708">
        <ele>364</ele>
        <time>2020-05-21T09:38:24.000Z</time>
      </trkpt>
      <trkpt lat="47.2116" lon="4.95706">
        <ele>364</ele>
        <time>2020-05-21T09:38:26.000Z</time>
      </trkpt>
      <trkpt lat="47.21162" lon="4.95704">
        <ele>364</ele>
        <time>2020-05-21T09:38:29.000Z</time>
      </trkpt>
      <trkpt lat="47.21163" lon="4.957">
        <ele>364</ele>
        <time>2020-05-21T09:38:32.000Z</time>
      </trkpt>
      <trkpt lat="47.21164" lon="4.95698">
        <ele>364</ele>
        <time>2020-05-21T09:38:34.000Z</time>
      </trkpt>
      <trkpt lat="47.21165" lon="4.95695">
        <ele>364</ele>
        <time>2020-05-21T09:38:36.000Z</time>
      </trkpt>
      <trkpt lat="47.21167" lon="4.95693">
        <ele>364.01165172091</ele>
        <time>2020-05-21T09:38:38.000Z</time>
      </trkpt>
      <trkpt lat="47.21168" lon="4.9569">
        <ele>364.40000099417</ele>
        <time>2020-05-21T09:38:40.000Z</time>
      </trkpt>
      <trkpt lat="47.21169" lon="4.95687">
        <ele>364.78835026743</ele>
        <time>2020-05-21T09:38:42.000Z</time>
      </trkpt>
      <trkpt lat="47.21169" lon="4.95685">
        <ele>365.17669954069</ele>
        <time>2020-05-21T09:38:44.000Z</time>
      </trkpt>
      <trkpt lat="47.21171" lon="4.95682">
        <ele>365.56504881395</ele>
        <time>2020-05-21T09:38:46.000Z</time>
      </trkpt>
      <trkpt lat="47.21172" lon="4.95679">
        <ele>365.95339808721</ele>
        <time>2020-05-21T09:38:48.000Z</time>
      </trkpt>
      <trkpt lat="47.21174" lon="4.95676">
        <ele>367.13814508084</ele>
        <time>2020-05-21T09:38:51.000Z</time>
      </trkpt>
      <trkpt lat="47.21175" lon="4.95673">
        <ele>367.96288789304</ele>
        <time>2020-05-21T09:38:53.000Z</time>
      </trkpt>
      <trkpt lat="47.21176" lon="4.9567">
        <ele>369.20000211134</ele>
        <time>2020-05-21T09:38:56.000Z</time>
      </trkpt>
      <trkpt lat="47.21177" lon="4.95667">
        <ele>370</ele>
        <time>2020-05-21T09:38:58.000Z</time>
      </trkpt>
      <trkpt lat="47.21178" lon="4.95664">
        <ele>370</ele>
        <time>2020-05-21T09:39:00.000Z</time>
      </trkpt>
      <trkpt lat="47.21179" lon="4.95662">
        <ele>370</ele>
        <time>2020-05-21T09:39:02.000Z</time>
      </trkpt>
      <trkpt lat="47.21179" lon="4.95659">
        <ele>370</ele>
        <time>2020-05-21T09:39:04.000Z</time>
      </trkpt>
      <trkpt lat="47.2118" lon="4.95655">
        <ele>370</ele>
        <time>2020-05-21T09:39:07.000Z</time>
      </trkpt>
      <trkpt lat="47.21181" lon="4.95651">
        <ele>370.41200128</ele>
        <time>2020-05-21T09:39:10.000Z</time>
      </trkpt>
      <trkpt lat="47.21182" lon="4.95648">
        <ele>371.01200128</ele>
        <time>2020-05-21T09:39:13.000Z</time>
      </trkpt>
      <trkpt lat="47.21183" lon="4.95645">
        <ele>371.61200128</ele>
        <time>2020-05-21T09:39:16.000Z</time>
      </trkpt>
      <trkpt lat="47.21184" lon="4.95642">
        <ele>372.01200128</ele>
        <time>2020-05-21T09:39:18.000Z</time>
      </trkpt>
      <trkpt lat="47.21185" lon="4.95639">
        <ele>372.61200128</ele>
        <time>2020-05-21T09:39:21.000Z</time>
      </trkpt>
      <trkpt lat="47.21186" lon="4.95636">
        <ele>373.01200128</ele>
        <time>2020-05-21T09:39:23.000Z</time>
      </trkpt>
      <trkpt lat="47.21186" lon="4.95633">
        <ele>373.61200128</ele>
        <time>2020-05-21T09:39:26.000Z</time>
      </trkpt>
      <trkpt lat="47.21187" lon="4.95629">
        <ele>374.21200128</ele>
        <time>2020-05-21T09:39:29.000Z</time>
      </trkpt>
      <trkpt lat="47.21187" lon="4.95626">
        <ele>374.81200128</ele>
        <time>2020-05-21T09:39:32.000Z</time>
      </trkpt>
      <trkpt lat="47.21188" lon="4.95625">
        <ele>375.01200128</ele>
        <time>2020-05-21T09:39:33.000Z</time>
      </trkpt>
      <trkpt lat="47.21189" lon="4.95622">
        <ele>375.61200128</ele>
        <time>2020-05-21T09:39:36.000Z</time>
      </trkpt>
      <trkpt lat="47.21189" lon="4.95619">
        <ele>376.20600064</ele>
        <time>2020-05-21T09:39:40.000Z</time>
      </trkpt>
      <trkpt lat="47.21189" lon="4.95617">
        <ele>377</ele>
        <time>2020-05-21T09:39:51.000Z</time>
      </trkpt>
      <trkpt lat="47.2119" lon="4.95613">
        <ele>377</ele>
        <time>2020-05-21T09:39:54.000Z</time>
      </trkpt>
      <trkpt lat="47.21191" lon="4.95611">
        <ele>377</ele>
        <time>2020-05-21T09:39:56.000Z</time>
      </trkpt>
      <trkpt lat="47.21192" lon="4.95608">
        <ele>377.10600064</ele>
        <time>2020-05-21T09:39:59.000Z</time>
      </trkpt>
      <trkpt lat="47.21193" lon="4.95604">
        <ele>377.40600064</ele>
        <time>2020-05-21T09:40:02.000Z</time>
      </trkpt>
      <trkpt lat="47.21194" lon="4.95602">
        <ele>377.60600064</ele>
        <time>2020-05-21T09:40:04.000Z</time>
      </trkpt>
      <trkpt lat="47.21196" lon="4.95599">
        <ele>377.80600064</ele>
        <time>2020-05-21T09:40:06.000Z</time>
      </trkpt>
      <trkpt lat="47.21196" lon="4.95596">
        <ele>378.31800192</ele>
        <time>2020-05-21T09:40:09.000Z</time>
      </trkpt>
      <trkpt lat="47.21197" lon="4.95593">
        <ele>379.21800192</ele>
        <time>2020-05-21T09:40:12.000Z</time>
      </trkpt>
      <trkpt lat="47.21197" lon="4.95592">
        <ele>379.51800192</ele>
        <time>2020-05-21T09:40:13.000Z</time>
      </trkpt>
      <trkpt lat="47.21197" lon="4.95589">
        <ele>380.11800192</ele>
        <time>2020-05-21T09:40:15.000Z</time>
      </trkpt>
      <trkpt lat="47.21199" lon="4.95586">
        <ele>381</ele>
        <time>2020-05-21T09:40:18.000Z</time>
      </trkpt>
      <trkpt lat="47.212" lon="4.95583">
        <ele>381</ele>
        <time>2020-05-21T09:40:21.000Z</time>
      </trkpt>
      <trkpt lat="47.212" lon="4.95579">
        <ele>381</ele>
        <time>2020-05-21T09:40:24.000Z</time>
      </trkpt>
      <trkpt lat="47.21201" lon="4.95577">
        <ele>381</ele>
        <time>2020-05-21T09:40:26.000Z</time>
      </trkpt>
      <trkpt lat="47.21203" lon="4.95573">
        <ele>381.20602631896</ele>
        <time>2020-05-21T09:40:29.000Z</time>
      </trkpt>
      <trkpt lat="47.21204" lon="4.9557">
        <ele>381.78911615398</ele>
        <time>2020-05-21T09:40:32.000Z</time>
      </trkpt>
      <trkpt lat="47.21204" lon="4.95568">
        <ele>382.17784271066</ele>
        <time>2020-05-21T09:40:34.000Z</time>
      </trkpt>
      <trkpt lat="47.21205" lon="4.95565">
        <ele>382.95529582402</ele>
        <time>2020-05-21T09:40:38.000Z</time>
      </trkpt>
      <trkpt lat="47.21204" lon="4.95564">
        <ele>383.98249258825</ele>
        <time>2020-05-21T09:40:43.000Z</time>
      </trkpt>
      <trkpt lat="47.21202" lon="4.95565">
        <ele>385</ele>
        <time>2020-05-21T09:40:48.000Z</time>
      </trkpt>
      <trkpt lat="47.212" lon="4.95562">
        <ele>385</ele>
        <time>2020-05-21T09:40:52.000Z</time>
      </trkpt>
      <trkpt lat="47.21198" lon="4.95561">
        <ele>385</ele>
        <time>2020-05-21T09:40:54.000Z</time>
      </trkpt>
      <trkpt lat="47.21196" lon="4.9556">
        <ele>385</ele>
        <time>2020-05-21T09:40:56.000Z</time>
      </trkpt>
      <trkpt lat="47.21194" lon="4.95557">
        <ele>385</ele>
        <time>2020-05-21T09:40:58.000Z</time>
      </trkpt>
      <trkpt lat="47.21192" lon="4.95556">
        <ele>385</ele>
        <time>2020-05-21T09:41:00.000Z</time>
      </trkpt>
      <trkpt lat="47.21189" lon="4.95555">
        <ele>385</ele>
        <time>2020-05-21T09:41:03.000Z</time>
      </trkpt>
      <trkpt lat="47.21188" lon="4.95554">
        <ele>385</ele>
        <time>2020-05-21T09:41:05.000Z</time>
      </trkpt>
      <trkpt lat="47.21185" lon="4.95554">
        <ele>385</ele>
        <time>2020-05-21T09:41:07.000Z</time>
      </trkpt>
      <trkpt lat="47.21182" lon="4.95554">
        <ele>385</ele>
        <time>2020-05-21T09:41:09.000Z</time>
      </trkpt>
      <trkpt lat="47.2118" lon="4.95555">
        <ele>385</ele>
        <time>2020-05-21T09:41:11.000Z</time>
      </trkpt>
      <trkpt lat="47.21177" lon="4.95555">
        <ele>385</ele>
        <time>2020-05-21T09:41:13.000Z</time>
      </trkpt>
      <trkpt lat="47.21175" lon="4.95554">
        <ele>385</ele>
        <time>2020-05-21T09:41:15.000Z</time>
      </trkpt>
      <trkpt lat="47.21172" lon="4.95553">
        <ele>385</ele>
        <time>2020-05-21T09:41:17.000Z</time>
      </trkpt>
      <trkpt lat="47.2117" lon="4.95552">
        <ele>384.69399936</ele>
        <time>2020-05-21T09:41:21.000Z</time>
      </trkpt>
      <trkpt lat="47.21167" lon="4.95551">
        <ele>384.49399936</ele>
        <time>2020-05-21T09:41:23.000Z</time>
      </trkpt>
      <trkpt lat="47.21165" lon="4.95551">
        <ele>384.29399936</ele>
        <time>2020-05-21T09:41:25.000Z</time>
      </trkpt>
      <trkpt lat="47.21162" lon="4.9555">
        <ele>384.09399936</ele>
        <time>2020-05-21T09:41:27.000Z</time>
      </trkpt>
      <trkpt lat="47.2116" lon="4.95549">
        <ele>383.89399936</ele>
        <time>2020-05-21T09:41:29.000Z</time>
      </trkpt>
      <trkpt lat="47.21158" lon="4.95549">
        <ele>383.69399936</ele>
        <time>2020-05-21T09:41:31.000Z</time>
      </trkpt>
      <trkpt lat="47.21156" lon="4.95549">
        <ele>383.49399936</ele>
        <time>2020-05-21T09:41:33.000Z</time>
      </trkpt>
      <trkpt lat="47.21153" lon="4.95548">
        <ele>383.29399936</ele>
        <time>2020-05-21T09:41:35.000Z</time>
      </trkpt>
      <trkpt lat="47.21151" lon="4.95548">
        <ele>383.09399936</ele>
        <time>2020-05-21T09:41:37.000Z</time>
      </trkpt>
      <trkpt lat="47.21148" lon="4.95549">
        <ele>382.89399936</ele>
        <time>2020-05-21T09:41:39.000Z</time>
      </trkpt>
      <trkpt lat="47.21146" lon="4.95548">
        <ele>382.69399936</ele>
        <time>2020-05-21T09:41:41.000Z</time>
      </trkpt>
      <trkpt lat="47.21144" lon="4.95548">
        <ele>382.59399936</ele>
        <time>2020-05-21T09:41:42.000Z</time>
      </trkpt>
      <trkpt lat="47.21142" lon="4.95548">
        <ele>382.49399936</ele>
        <time>2020-05-21T09:41:43.000Z</time>
      </trkpt>
      <trkpt lat="47.2114" lon="4.95548">
        <ele>382.09399936</ele>
        <time>2020-05-21T09:41:47.000Z</time>
      </trkpt>
      <trkpt lat="47.21137" lon="4.95547">
        <ele>381.89399936</ele>
        <time>2020-05-21T09:41:49.000Z</time>
      </trkpt>
      <trkpt lat="47.21134" lon="4.95547">
        <ele>381.69399936</ele>
        <time>2020-05-21T09:41:51.000Z</time>
      </trkpt>
      <trkpt lat="47.21132" lon="4.95546">
        <ele>381.49399936</ele>
        <time>2020-05-21T09:41:53.000Z</time>
      </trkpt>
      <trkpt lat="47.21129" lon="4.95546">
        <ele>381.29399936</ele>
        <time>2020-05-21T09:41:55.000Z</time>
      </trkpt>
      <trkpt lat="47.21126" lon="4.95546">
        <ele>381.09399936</ele>
        <time>2020-05-21T09:41:57.000Z</time>
      </trkpt>
      <trkpt lat="47.21124" lon="4.95546">
        <ele>381</ele>
        <time>2020-05-21T09:41:59.000Z</time>
      </trkpt>
      <trkpt lat="47.21122" lon="4.95546">
        <ele>381</ele>
        <time>2020-05-21T09:42:01.000Z</time>
      </trkpt>
      <trkpt lat="47.21119" lon="4.95547">
        <ele>381</ele>
        <time>2020-05-21T09:42:03.000Z</time>
      </trkpt>
      <trkpt lat="47.21116" lon="4.95547">
        <ele>381</ele>
        <time>2020-05-21T09:42:05.000Z</time>
      </trkpt>
      <trkpt lat="47.21114" lon="4.95546">
        <ele>381</ele>
        <time>2020-05-21T09:42:07.000Z</time>
      </trkpt>
      <trkpt lat="47.21112" lon="4.95546">
        <ele>381</ele>
        <time>2020-05-21T09:42:09.000Z</time>
      </trkpt>
      <trkpt lat="47.2111" lon="4.95545">
        <ele>381</ele>
        <time>2020-05-21T09:42:11.000Z</time>
      </trkpt>
      <trkpt lat="47.21108" lon="4.95546">
        <ele>381</ele>
        <time>2020-05-21T09:42:13.000Z</time>
      </trkpt>
      <trkpt lat="47.21106" lon="4.95546">
        <ele>381</ele>
        <time>2020-05-21T09:42:15.000Z</time>
      </trkpt>
      <trkpt lat="47.21103" lon="4.95547">
        <ele>381</ele>
        <time>2020-05-21T09:42:17.000Z</time>
      </trkpt>
      <trkpt lat="47.211" lon="4.95547">
        <ele>380.89399936</ele>
        <time>2020-05-21T09:42:19.000Z</time>
      </trkpt>
      <trkpt lat="47.21098" lon="4.95547">
        <ele>380.69399936</ele>
        <time>2020-05-21T09:42:21.000Z</time>
      </trkpt>
      <trkpt lat="47.21095" lon="4.95546">
        <ele>380.49399936</ele>
        <time>2020-05-21T09:42:23.000Z</time>
      </trkpt>
      <trkpt lat="47.21093" lon="4.95544">
        <ele>380.29399936</ele>
        <time>2020-05-21T09:42:25.000Z</time>
      </trkpt>
      <trkpt lat="47.21091" lon="4.95544">
        <ele>380.09399936</ele>
        <time>2020-05-21T09:42:27.000Z</time>
      </trkpt>
      <trkpt lat="47.21088" lon="4.95544">
        <ele>379.89399936</ele>
        <time>2020-05-21T09:42:29.000Z</time>
      </trkpt>
      <trkpt lat="47.21086" lon="4.95544">
        <ele>379.69399936</ele>
        <time>2020-05-21T09:42:31.000Z</time>
      </trkpt>
      <trkpt lat="47.21083" lon="4.95544">
        <ele>379.49399936</ele>
        <time>2020-05-21T09:42:33.000Z</time>
      </trkpt>
      <trkpt lat="47.21081" lon="4.95545">
        <ele>379.29399936</ele>
        <time>2020-05-21T09:42:35.000Z</time>
      </trkpt>
      <trkpt lat="47.21079" lon="4.95545">
        <ele>379.09399936</ele>
        <time>2020-05-21T09:42:37.000Z</time>
      </trkpt>
      <trkpt lat="47.21075" lon="4.95545">
        <ele>379</ele>
        <time>2020-05-21T09:42:39.000Z</time>
      </trkpt>
      <trkpt lat="47.21073" lon="4.95544">
        <ele>379</ele>
        <time>2020-05-21T09:42:41.000Z</time>
      </trkpt>
      <trkpt lat="47.21071" lon="4.95544">
        <ele>379</ele>
        <time>2020-05-21T09:42:43.000Z</time>
      </trkpt>
      <trkpt lat="47.21068" lon="4.95544">
        <ele>379</ele>
        <time>2020-05-21T09:42:45.000Z</time>
      </trkpt>
      <trkpt lat="47.21066" lon="4.95543">
        <ele>379</ele>
        <time>2020-05-21T09:42:47.000Z</time>
      </trkpt>
      <trkpt lat="47.21063" lon="4.95543">
        <ele>378.89399936</ele>
        <time>2020-05-21T09:42:49.000Z</time>
      </trkpt>
      <trkpt lat="47.21061" lon="4.95543">
        <ele>378.69399936</ele>
        <time>2020-05-21T09:42:51.000Z</time>
      </trkpt>
      <trkpt lat="47.21058" lon="4.95543">
        <ele>378.49399936</ele>
        <time>2020-05-21T09:42:53.000Z</time>
      </trkpt>
      <trkpt lat="47.21055" lon="4.95543">
        <ele>378.29399936</ele>
        <time>2020-05-21T09:42:55.000Z</time>
      </trkpt>
      <trkpt lat="47.21053" lon="4.95543">
        <ele>378.09399936</ele>
        <time>2020-05-21T09:42:57.000Z</time>
      </trkpt>
      <trkpt lat="47.21051" lon="4.95544">
        <ele>377.78799872</ele>
        <time>2020-05-21T09:42:59.000Z</time>
      </trkpt>
      <trkpt lat="47.21049" lon="4.95543">
        <ele>377.38799872</ele>
        <time>2020-05-21T09:43:01.000Z</time>
      </trkpt>
      <trkpt lat="47.21047" lon="4.95542">
        <ele>376.98799872</ele>
        <time>2020-05-21T09:43:03.000Z</time>
      </trkpt>
      <trkpt lat="47.21045" lon="4.95542">
        <ele>376.58799872</ele>
        <time>2020-05-21T09:43:05.000Z</time>
      </trkpt>
      <trkpt lat="47.21042" lon="4.95542">
        <ele>376.18799872</ele>
        <time>2020-05-21T09:43:07.000Z</time>
      </trkpt>
      <trkpt lat="47.2104" lon="4.95542">
        <ele>376</ele>
        <time>2020-05-21T09:43:09.000Z</time>
      </trkpt>
      <trkpt lat="47.21038" lon="4.95541">
        <ele>376</ele>
        <time>2020-05-21T09:43:11.000Z</time>
      </trkpt>
      <trkpt lat="47.21036" lon="4.9554">
        <ele>376</ele>
        <time>2020-05-21T09:43:13.000Z</time>
      </trkpt>
      <trkpt lat="47.21034" lon="4.95539">
        <ele>376</ele>
        <time>2020-05-21T09:43:15.000Z</time>
      </trkpt>
      <trkpt lat="47.21032" lon="4.95539">
        <ele>376</ele>
        <time>2020-05-21T09:43:17.000Z</time>
      </trkpt>
      <trkpt lat="47.21031" lon="4.95541">
        <ele>374.77599744</ele>
        <time>2020-05-21T09:43:21.000Z</time>
      </trkpt>
      <trkpt lat="47.2103" lon="4.95545">
        <ele>373.97599744</ele>
        <time>2020-05-21T09:43:23.000Z</time>
      </trkpt>
      <trkpt lat="47.2103" lon="4.95548">
        <ele>373.17599744</ele>
        <time>2020-05-21T09:43:25.000Z</time>
      </trkpt>
      <trkpt lat="47.21031" lon="4.95551">
        <ele>372.37599744</ele>
        <time>2020-05-21T09:43:27.000Z</time>
      </trkpt>
      <trkpt lat="47.21031" lon="4.95552">
        <ele>372</ele>
        <time>2020-05-21T09:43:28.000Z</time>
      </trkpt>
      <trkpt lat="47.21032" lon="4.95555">
        <ele>372</ele>
        <time>2020-05-21T09:43:30.000Z</time>
      </trkpt>
      <trkpt lat="47.21033" lon="4.95558">
        <ele>372</ele>
        <time>2020-05-21T09:43:32.000Z</time>
      </trkpt>
      <trkpt lat="47.21034" lon="4.95562">
        <ele>372</ele>
        <time>2020-05-21T09:43:35.000Z</time>
      </trkpt>
      <trkpt lat="47.21035" lon="4.95564">
        <ele>372</ele>
        <time>2020-05-21T09:43:37.000Z</time>
      </trkpt>
      <trkpt lat="47.21036" lon="4.95567">
        <ele>372</ele>
        <time>2020-05-21T09:43:39.000Z</time>
      </trkpt>
      <trkpt lat="47.21035" lon="4.9557">
        <ele>372</ele>
        <time>2020-05-21T09:43:41.000Z</time>
      </trkpt>
      <trkpt lat="47.21034" lon="4.95572">
        <ele>372</ele>
        <time>2020-05-21T09:43:43.000Z</time>
      </trkpt>
      <trkpt lat="47.21033" lon="4.95575">
        <ele>372</ele>
        <time>2020-05-21T09:43:46.000Z</time>
      </trkpt>
      <trkpt lat="47.21033" lon="4.95579">
        <ele>371.68659773136</ele>
        <time>2020-05-21T09:43:49.000Z</time>
      </trkpt>
      <trkpt lat="47.21032" lon="4.95581">
        <ele>370.86185491916</ele>
        <time>2020-05-21T09:43:51.000Z</time>
      </trkpt>
      <trkpt lat="47.21032" lon="4.95584">
        <ele>370.03711210696</ele>
        <time>2020-05-21T09:43:53.000Z</time>
      </trkpt>
      <trkpt lat="47.21032" lon="4.95587">
        <ele>368.79999788866</ele>
        <time>2020-05-21T09:43:56.000Z</time>
      </trkpt>
      <trkpt lat="47.2103" lon="4.9559">
        <ele>367.98799872</ele>
        <time>2020-05-21T09:43:58.000Z</time>
      </trkpt>
      <trkpt lat="47.21029" lon="4.95592">
        <ele>367.38799872</ele>
        <time>2020-05-21T09:44:01.000Z</time>
      </trkpt>
      <trkpt lat="47.21027" lon="4.95592">
        <ele>366.98799872</ele>
        <time>2020-05-21T09:44:03.000Z</time>
      </trkpt>
      <trkpt lat="47.21027" lon="4.95594">
        <ele>364.98799872</ele>
        <time>2020-05-21T09:44:13.000Z</time>
      </trkpt>
      <trkpt lat="47.21024" lon="4.95596">
        <ele>363.49399936</ele>
        <time>2020-05-21T09:44:23.000Z</time>
      </trkpt>
      <trkpt lat="47.21022" lon="4.95598">
        <ele>363.39399936</ele>
        <time>2020-05-21T09:44:24.000Z</time>
      </trkpt>
      <trkpt lat="47.2102" lon="4.956">
        <ele>362.38799872</ele>
        <time>2020-05-21T09:44:31.000Z</time>
      </trkpt>
      <trkpt lat="47.2102" lon="4.95602">
        <ele>361.78799872</ele>
        <time>2020-05-21T09:44:34.000Z</time>
      </trkpt>
      <trkpt lat="47.2102" lon="4.95599">
        <ele>361</ele>
        <time>2020-05-21T09:45:06.000Z</time>
      </trkpt>
      <trkpt lat="47.21019" lon="4.95596">
        <ele>361</ele>
        <time>2020-05-21T09:45:09.000Z</time>
      </trkpt>
      <trkpt lat="47.21019" lon="4.95592">
        <ele>361</ele>
        <time>2020-05-21T09:45:11.000Z</time>
      </trkpt>
      <trkpt lat="47.21019" lon="4.95589">
        <ele>361</ele>
        <time>2020-05-21T09:45:13.000Z</time>
      </trkpt>
      <trkpt lat="47.21018" lon="4.95586">
        <ele>361</ele>
        <time>2020-05-21T09:45:15.000Z</time>
      </trkpt>
      <trkpt lat="47.21017" lon="4.95583">
        <ele>361</ele>
        <time>2020-05-21T09:45:17.000Z</time>
      </trkpt>
      <trkpt lat="47.21016" lon="4.9558">
        <ele>361.10600064</ele>
        <time>2020-05-21T09:45:19.000Z</time>
      </trkpt>
      <trkpt lat="47.21016" lon="4.95577">
        <ele>361.30600064</ele>
        <time>2020-05-21T09:45:21.000Z</time>
      </trkpt>
      <trkpt lat="47.21015" lon="4.95574">
        <ele>361.50600064</ele>
        <time>2020-05-21T09:45:23.000Z</time>
      </trkpt>
      <trkpt lat="47.21014" lon="4.9557">
        <ele>361.70600064</ele>
        <time>2020-05-21T09:45:25.000Z</time>
      </trkpt>
      <trkpt lat="47.21014" lon="4.95566">
        <ele>361.90600064</ele>
        <time>2020-05-21T09:45:27.000Z</time>
      </trkpt>
      <trkpt lat="47.21014" lon="4.95563">
        <ele>362</ele>
        <time>2020-05-21T09:45:29.000Z</time>
      </trkpt>
      <trkpt lat="47.21014" lon="4.95559">
        <ele>362</ele>
        <time>2020-05-21T09:45:31.000Z</time>
      </trkpt>
      <trkpt lat="47.21013" lon="4.95557">
        <ele>362</ele>
        <time>2020-05-21T09:45:33.000Z</time>
      </trkpt>
      <trkpt lat="47.21012" lon="4.95554">
        <ele>362</ele>
        <time>2020-05-21T09:45:35.000Z</time>
      </trkpt>
      <trkpt lat="47.21011" lon="4.9555">
        <ele>362</ele>
        <time>2020-05-21T09:45:37.000Z</time>
      </trkpt>
      <trkpt lat="47.21011" lon="4.95547">
        <ele>362.10600064</ele>
        <time>2020-05-21T09:45:39.000Z</time>
      </trkpt>
      <trkpt lat="47.2101" lon="4.95544">
        <ele>362.30600064</ele>
        <time>2020-05-21T09:45:41.000Z</time>
      </trkpt>
      <trkpt lat="47.21008" lon="4.95544">
        <ele>362.70600064</ele>
        <time>2020-05-21T09:45:45.000Z</time>
      </trkpt>
      <trkpt lat="47.21006" lon="4.95542">
        <ele>362.99399936</ele>
        <time>2020-05-21T09:45:48.000Z</time>
      </trkpt>
      <trkpt lat="47.21005" lon="4.9554">
        <ele>362.59399936</ele>
        <time>2020-05-21T09:45:52.000Z</time>
      </trkpt>
      <trkpt lat="47.21003" lon="4.9554">
        <ele>362.39399936</ele>
        <time>2020-05-21T09:45:54.000Z</time>
      </trkpt>
      <trkpt lat="47.21002" lon="4.95539">
        <ele>361.96399616</ele>
        <time>2020-05-21T09:45:58.000Z</time>
      </trkpt>
      <trkpt lat="47.21" lon="4.95539">
        <ele>360.16399616</ele>
        <time>2020-05-21T09:46:01.000Z</time>
      </trkpt>
      <trkpt lat="47.20997" lon="4.95538">
        <ele>358.96399616</ele>
        <time>2020-05-21T09:46:03.000Z</time>
      </trkpt>
      <trkpt lat="47.20994" lon="4.95539">
        <ele>357.76399616</ele>
        <time>2020-05-21T09:46:05.000Z</time>
      </trkpt>
      <trkpt lat="47.20992" lon="4.95538">
        <ele>356.56399616</ele>
        <time>2020-05-21T09:46:07.000Z</time>
      </trkpt>
      <trkpt lat="47.2099" lon="4.95538">
        <ele>355.79999950291</ele>
        <time>2020-05-21T09:46:10.000Z</time>
      </trkpt>
      <trkpt lat="47.20988" lon="4.95537">
        <ele>355.60582486628</ele>
        <time>2020-05-21T09:46:12.000Z</time>
      </trkpt>
      <trkpt lat="47.20987" lon="4.95536">
        <ele>355.41165022965</ele>
        <time>2020-05-21T09:46:14.000Z</time>
      </trkpt>
      <trkpt lat="47.20984" lon="4.95534">
        <ele>355.0233009564</ele>
        <time>2020-05-21T09:46:18.000Z</time>
      </trkpt>
      <trkpt lat="47.20982" lon="4.95533">
        <ele>354.63711316263</ele>
        <time>2020-05-21T09:46:20.000Z</time>
      </trkpt>
      <trkpt lat="47.20979" lon="4.95533">
        <ele>354.01855605348</ele>
        <time>2020-05-21T09:46:23.000Z</time>
      </trkpt>
      <trkpt lat="47.20978" lon="4.95533">
        <ele>353.60618464738</ele>
        <time>2020-05-21T09:46:25.000Z</time>
      </trkpt>
      <trkpt lat="47.20976" lon="4.95533">
        <ele>353.19381324128</ele>
        <time>2020-05-21T09:46:27.000Z</time>
      </trkpt>
      <trkpt lat="47.20973" lon="4.95533">
        <ele>352.57599744</ele>
        <time>2020-05-21T09:46:29.000Z</time>
      </trkpt>
      <trkpt lat="47.20971" lon="4.95533">
        <ele>351.37599744</ele>
        <time>2020-05-21T09:46:32.000Z</time>
      </trkpt>
      <trkpt lat="47.2097" lon="4.95534">
        <ele>350.97599744</ele>
        <time>2020-05-21T09:46:33.000Z</time>
      </trkpt>
      <trkpt lat="47.20968" lon="4.95534">
        <ele>350.17599744</ele>
        <time>2020-05-21T09:46:35.000Z</time>
      </trkpt>
      <trkpt lat="47.20966" lon="4.95533">
        <ele>349.37599744</ele>
        <time>2020-05-21T09:46:37.000Z</time>
      </trkpt>
      <trkpt lat="47.20964" lon="4.95532">
        <ele>348.68199808</ele>
        <time>2020-05-21T09:46:39.000Z</time>
      </trkpt>
      <trkpt lat="47.20962" lon="4.95531">
        <ele>348.08199808</ele>
        <time>2020-05-21T09:46:41.000Z</time>
      </trkpt>
      <trkpt lat="47.2096" lon="4.9553">
        <ele>347.48199808</ele>
        <time>2020-05-21T09:46:43.000Z</time>
      </trkpt>
      <trkpt lat="47.20958" lon="4.95528">
        <ele>346.28199808</ele>
        <time>2020-05-21T09:46:47.000Z</time>
      </trkpt>
      <trkpt lat="47.20957" lon="4.95528">
        <ele>345.69096052155</ele>
        <time>2020-05-21T09:46:49.000Z</time>
      </trkpt>
      <trkpt lat="47.20955" lon="4.95528">
        <ele>345.10787068654</ele>
        <time>2020-05-21T09:46:51.000Z</time>
      </trkpt>
      <trkpt lat="47.20953" lon="4.95527">
        <ele>344.52478085152</ele>
        <time>2020-05-21T09:46:53.000Z</time>
      </trkpt>
      <trkpt lat="47.20951" lon="4.95527">
        <ele>343.06705626397</ele>
        <time>2020-05-21T09:46:58.000Z</time>
      </trkpt>
      <trkpt lat="47.20949" lon="4.95526">
        <ele>342.63542769311</ele>
        <time>2020-05-21T09:47:00.000Z</time>
      </trkpt>
      <trkpt lat="47.20946" lon="4.95526">
        <ele>342.01750741175</ele>
        <time>2020-05-21T09:47:03.000Z</time>
      </trkpt>
      <trkpt lat="47.20944" lon="4.95525">
        <ele>341.39958713038</ele>
        <time>2020-05-21T09:47:06.000Z</time>
      </trkpt>
      <trkpt lat="47.20942" lon="4.95525">
        <ele>340.89399936</ele>
        <time>2020-05-21T09:47:09.000Z</time>
      </trkpt>
      <trkpt lat="47.20939" lon="4.95525">
        <ele>340.59399936</ele>
        <time>2020-05-21T09:47:12.000Z</time>
      </trkpt>
      <trkpt lat="47.20937" lon="4.95526">
        <ele>340.39399936</ele>
        <time>2020-05-21T09:47:14.000Z</time>
      </trkpt>
      <trkpt lat="47.20935" lon="4.95526">
        <ele>340.19399936</ele>
        <time>2020-05-21T09:47:16.000Z</time>
      </trkpt>
      <trkpt lat="47.20934" lon="4.95528">
        <ele>339.89399936</ele>
        <time>2020-05-21T09:47:19.000Z</time>
      </trkpt>
      <trkpt lat="47.20932" lon="4.95529">
        <ele>339.29399936</ele>
        <time>2020-05-21T09:47:25.000Z</time>
      </trkpt>
      <trkpt lat="47.2093" lon="4.95528">
        <ele>339</ele>
        <time>2020-05-21T09:47:35.000Z</time>
      </trkpt>
      <trkpt lat="47.20928" lon="4.95527">
        <ele>339</ele>
        <time>2020-05-21T09:47:40.000Z</time>
      </trkpt>
      <trkpt lat="47.20926" lon="4.95526">
        <ele>339</ele>
        <time>2020-05-21T09:47:45.000Z</time>
      </trkpt>
      <trkpt lat="47.20924" lon="4.95528">
        <ele>339.01200128</ele>
        <time>2020-05-21T09:47:48.000Z</time>
      </trkpt>
      <trkpt lat="47.20922" lon="4.95525">
        <ele>339.81200128</ele>
        <time>2020-05-21T09:47:52.000Z</time>
      </trkpt>
      <trkpt lat="47.20921" lon="4.95525">
        <ele>340.01200128</ele>
        <time>2020-05-21T09:47:53.000Z</time>
      </trkpt>
      <trkpt lat="47.20919" lon="4.95525">
        <ele>340.41200128</ele>
        <time>2020-05-21T09:47:55.000Z</time>
      </trkpt>
      <trkpt lat="47.20917" lon="4.95524">
        <ele>341.01800192</ele>
        <time>2020-05-21T09:47:58.000Z</time>
      </trkpt>
      <trkpt lat="47.20915" lon="4.95524">
        <ele>341.91800192</ele>
        <time>2020-05-21T09:48:01.000Z</time>
      </trkpt>
      <trkpt lat="47.20913" lon="4.95525">
        <ele>342.51800192</ele>
        <time>2020-05-21T09:48:03.000Z</time>
      </trkpt>
      <trkpt lat="47.20911" lon="4.95525">
        <ele>343.41800192</ele>
        <time>2020-05-21T09:48:06.000Z</time>
      </trkpt>
      <trkpt lat="47.20909" lon="4.95525">
        <ele>344.00600064</ele>
        <time>2020-05-21T09:48:08.000Z</time>
      </trkpt>
      <trkpt lat="47.20907" lon="4.95526">
        <ele>344.20600064</ele>
        <time>2020-05-21T09:48:10.000Z</time>
      </trkpt>
      <trkpt lat="47.20905" lon="4.95526">
        <ele>344.50600064</ele>
        <time>2020-05-21T09:48:13.000Z</time>
      </trkpt>
      <trkpt lat="47.20903" lon="4.95529">
        <ele>344.70600064</ele>
        <time>2020-05-21T09:48:15.000Z</time>
      </trkpt>
      <trkpt lat="47.20904" lon="4.95532">
        <ele>344.90600064</ele>
        <time>2020-05-21T09:48:17.000Z</time>
      </trkpt>
      <trkpt lat="47.20904" lon="4.95535">
        <ele>345.30600064</ele>
        <time>2020-05-21T09:48:21.000Z</time>
      </trkpt>
      <trkpt lat="47.20904" lon="4.9554">
        <ele>345.50600064</ele>
        <time>2020-05-21T09:48:23.000Z</time>
      </trkpt>
      <trkpt lat="47.20906" lon="4.95537">
        <ele>345.80600064</ele>
        <time>2020-05-21T09:48:26.000Z</time>
      </trkpt>
      <trkpt lat="47.20908" lon="4.95536">
        <ele>346</ele>
        <time>2020-05-21T09:48:29.000Z</time>
      </trkpt>
      <trkpt lat="47.20907" lon="4.95533">
        <ele>346</ele>
        <time>2020-05-21T09:48:35.000Z</time>
      </trkpt>
      <trkpt lat="47.20904" lon="4.9553">
        <ele>346.00600064</ele>
        <time>2020-05-21T09:48:38.000Z</time>
      </trkpt>
      <trkpt lat="47.20901" lon="4.95527">
        <ele>346.30600064</ele>
        <time>2020-05-21T09:48:41.000Z</time>
      </trkpt>
      <trkpt lat="47.209" lon="4.95529">
        <ele>346.80600064</ele>
        <time>2020-05-21T09:48:46.000Z</time>
      </trkpt>
      <trkpt lat="47.209" lon="4.95533">
        <ele>347.10536836239</ele>
        <time>2020-05-21T09:48:49.000Z</time>
      </trkpt>
      <trkpt lat="47.20898" lon="4.95535">
        <ele>347.20477187768</ele>
        <time>2020-05-21T09:48:50.000Z</time>
      </trkpt>
      <trkpt lat="47.20896" lon="4.95535">
        <ele>347.40357890826</ele>
        <time>2020-05-21T09:48:52.000Z</time>
      </trkpt>
      <trkpt lat="47.20894" lon="4.95533">
        <ele>347.60238593884</ele>
        <time>2020-05-21T09:48:54.000Z</time>
      </trkpt>
      <trkpt lat="47.20892" lon="4.95532">
        <ele>347.80119296942</ele>
        <time>2020-05-21T09:48:56.000Z</time>
      </trkpt>
      <trkpt lat="47.20889" lon="4.95531">
        <ele>348</ele>
        <time>2020-05-21T09:48:58.000Z</time>
      </trkpt>
      <trkpt lat="47.20887" lon="4.9553">
        <ele>348.60301488144</ele>
        <time>2020-05-21T09:49:00.000Z</time>
      </trkpt>
      <trkpt lat="47.20886" lon="4.95529">
        <ele>349.20602976289</ele>
        <time>2020-05-21T09:49:02.000Z</time>
      </trkpt>
      <trkpt lat="47.20884" lon="4.95528">
        <ele>349.50753720361</ele>
        <time>2020-05-21T09:49:03.000Z</time>
      </trkpt>
      <trkpt lat="47.20883" lon="4.95526">
        <ele>350.41205952577</ele>
        <time>2020-05-21T09:49:06.000Z</time>
      </trkpt>
      <trkpt lat="47.20882" lon="4.95525">
        <ele>351.20520508208</ele>
        <time>2020-05-21T09:49:10.000Z</time>
      </trkpt>
      <trkpt lat="47.20879" lon="4.95525">
        <ele>351.50550567096</ele>
        <time>2020-05-21T09:49:13.000Z</time>
      </trkpt>
      <trkpt lat="47.20877" lon="4.95525">
        <ele>351.70570606354</ele>
        <time>2020-05-21T09:49:15.000Z</time>
      </trkpt>
      <trkpt lat="47.20875" lon="4.95526">
        <ele>352.01200128</ele>
        <time>2020-05-21T09:49:18.000Z</time>
      </trkpt>
      <trkpt lat="47.20872" lon="4.95526">
        <ele>352.61200128</ele>
        <time>2020-05-21T09:49:21.000Z</time>
      </trkpt>
      <trkpt lat="47.20871" lon="4.95526">
        <ele>353.01200128</ele>
        <time>2020-05-21T09:49:23.000Z</time>
      </trkpt>
      <trkpt lat="47.20868" lon="4.95526">
        <ele>353.61200128</ele>
        <time>2020-05-21T09:49:26.000Z</time>
      </trkpt>
      <trkpt lat="47.20866" lon="4.95524">
        <ele>354.82400256</ele>
        <time>2020-05-21T09:49:30.000Z</time>
      </trkpt>
      <trkpt lat="47.20864" lon="4.95524">
        <ele>356.42400256</ele>
        <time>2020-05-21T09:49:34.000Z</time>
      </trkpt>
      <trkpt lat="47.20862" lon="4.95524">
        <ele>357.62400256</ele>
        <time>2020-05-21T09:49:37.000Z</time>
      </trkpt>
      <trkpt lat="47.2086" lon="4.95524">
        <ele>358.31768393109</ele>
        <time>2020-05-21T09:49:39.000Z</time>
      </trkpt>
      <trkpt lat="47.20858" lon="4.95524">
        <ele>359.5164839802</ele>
        <time>2020-05-21T09:49:43.000Z</time>
      </trkpt>
      <trkpt lat="47.20856" lon="4.95524">
        <ele>360.7152840293</ele>
        <time>2020-05-21T09:49:47.000Z</time>
      </trkpt>
      <trkpt lat="47.20855" lon="4.95524">
        <ele>361</ele>
        <time>2020-05-21T09:49:50.000Z</time>
      </trkpt>
      <trkpt lat="47.20852" lon="4.95524">
        <ele>361</ele>
        <time>2020-05-21T09:49:54.000Z</time>
      </trkpt>
      <trkpt lat="47.2085" lon="4.95523">
        <ele>361.01166304063</ele>
        <time>2020-05-21T09:49:58.000Z</time>
      </trkpt>
      <trkpt lat="47.20847" lon="4.95524">
        <ele>361.4003895973</ele>
        <time>2020-05-21T09:50:00.000Z</time>
      </trkpt>
      <trkpt lat="47.20845" lon="4.95524">
        <ele>361.98347943232</ele>
        <time>2020-05-21T09:50:03.000Z</time>
      </trkpt>
      <trkpt lat="47.20843" lon="4.95523">
        <ele>362.56656926734</ele>
        <time>2020-05-21T09:50:06.000Z</time>
      </trkpt>
      <trkpt lat="47.20841" lon="4.95522">
        <ele>363.15859887977</ele>
        <time>2020-05-21T09:50:09.000Z</time>
      </trkpt>
      <trkpt lat="47.20839" lon="4.95522">
        <ele>363.57054573401</ele>
        <time>2020-05-21T09:50:11.000Z</time>
      </trkpt>
      <trkpt lat="47.20839" lon="4.95522">
        <ele>364.18846601537</ele>
        <time>2020-05-21T09:50:14.000Z</time>
      </trkpt>
      <trkpt lat="47.20836" lon="4.95522">
        <ele>364.80638629674</ele>
        <time>2020-05-21T09:50:17.000Z</time>
      </trkpt>
      <trkpt lat="47.20834" lon="4.95521">
        <ele>365.82400256</ele>
        <time>2020-05-21T09:50:20.000Z</time>
      </trkpt>
      <trkpt lat="47.20833" lon="4.95521">
        <ele>367.02400256</ele>
        <time>2020-05-21T09:50:23.000Z</time>
      </trkpt>
      <trkpt lat="47.20831" lon="4.9552">
        <ele>368.62400256</ele>
        <time>2020-05-21T09:50:27.000Z</time>
      </trkpt>
      <trkpt lat="47.2083" lon="4.95519">
        <ele>369.42400256</ele>
        <time>2020-05-21T09:50:29.000Z</time>
      </trkpt>
      <trkpt lat="47.20827" lon="4.95519">
        <ele>371.02400256</ele>
        <time>2020-05-21T09:50:33.000Z</time>
      </trkpt>
      <trkpt lat="47.20825" lon="4.9552">
        <ele>372.22400256</ele>
        <time>2020-05-21T09:50:36.000Z</time>
      </trkpt>
      <trkpt lat="47.20824" lon="4.95519">
        <ele>373.00600064</ele>
        <time>2020-05-21T09:50:38.000Z</time>
      </trkpt>
      <trkpt lat="47.20822" lon="4.95519">
        <ele>373.30600064</ele>
        <time>2020-05-21T09:50:41.000Z</time>
      </trkpt>
      <trkpt lat="47.2082" lon="4.95519">
        <ele>373.60600064</ele>
        <time>2020-05-21T09:50:44.000Z</time>
      </trkpt>
      <trkpt lat="47.20818" lon="4.95518">
        <ele>374.01800192</ele>
        <time>2020-05-21T09:50:48.000Z</time>
      </trkpt>
      <trkpt lat="47.20816" lon="4.95518">
        <ele>374.91800192</ele>
        <time>2020-05-21T09:50:51.000Z</time>
      </trkpt>
      <trkpt lat="47.20814" lon="4.95519">
        <ele>375.51800192</ele>
        <time>2020-05-21T09:50:53.000Z</time>
      </trkpt>
      <trkpt lat="47.20811" lon="4.95519">
        <ele>376.11800192</ele>
        <time>2020-05-21T09:50:55.000Z</time>
      </trkpt>
      <trkpt lat="47.20809" lon="4.95519">
        <ele>376.71800192</ele>
        <time>2020-05-21T09:50:57.000Z</time>
      </trkpt>
      <trkpt lat="47.20807" lon="4.95519">
        <ele>377</ele>
        <time>2020-05-21T09:51:00.000Z</time>
      </trkpt>
      <trkpt lat="47.20805" lon="4.95519">
        <ele>377</ele>
        <time>2020-05-21T09:51:04.000Z</time>
      </trkpt>
      <trkpt lat="47.20803" lon="4.95519">
        <ele>377.41200128</ele>
        <time>2020-05-21T09:51:10.000Z</time>
      </trkpt>
      <trkpt lat="47.20802" lon="4.95521">
        <ele>378.01200128</ele>
        <time>2020-05-21T09:51:13.000Z</time>
      </trkpt>
      <trkpt lat="47.208" lon="4.95522">
        <ele>378.61200128</ele>
        <time>2020-05-21T09:51:16.000Z</time>
      </trkpt>
      <trkpt lat="47.20797" lon="4.95522">
        <ele>379.02400256</ele>
        <time>2020-05-21T09:51:18.000Z</time>
      </trkpt>
      <trkpt lat="47.20795" lon="4.95521">
        <ele>380.22400256</ele>
        <time>2020-05-21T09:51:21.000Z</time>
      </trkpt>
      <trkpt lat="47.20795" lon="4.9552">
        <ele>381.02400256</ele>
        <time>2020-05-21T09:51:23.000Z</time>
      </trkpt>
      <trkpt lat="47.20796" lon="4.95522">
        <ele>383</ele>
        <time>2020-05-21T09:51:50.000Z</time>
      </trkpt>
      <trkpt lat="47.20797" lon="4.95525">
        <ele>382.09399936</ele>
        <time>2020-05-21T09:52:07.000Z</time>
      </trkpt>
      <trkpt lat="47.20799" lon="4.95526">
        <ele>382</ele>
        <time>2020-05-21T09:52:17.000Z</time>
      </trkpt>
      <trkpt lat="47.20798" lon="4.95529">
        <ele>382</ele>
        <time>2020-05-21T09:52:31.000Z</time>
      </trkpt>
      <trkpt lat="47.20796" lon="4.95529">
        <ele>382</ele>
        <time>2020-05-21T09:52:34.000Z</time>
      </trkpt>
      <trkpt lat="47.20795" lon="4.95527">
        <ele>382.02400256</ele>
        <time>2020-05-21T09:52:38.000Z</time>
      </trkpt>
      <trkpt lat="47.20793" lon="4.95526">
        <ele>384.02400256</ele>
        <time>2020-05-21T09:52:43.000Z</time>
      </trkpt>
      <trkpt lat="47.20793" lon="4.95524">
        <ele>386.40600064</ele>
        <time>2020-05-21T09:52:52.000Z</time>
      </trkpt>
      <trkpt lat="47.2079" lon="4.95523">
        <ele>386.90600064</ele>
        <time>2020-05-21T09:52:57.000Z</time>
      </trkpt>
      <trkpt lat="47.20788" lon="4.95523">
        <ele>387.30600064</ele>
        <time>2020-05-21T09:53:01.000Z</time>
      </trkpt>
      <trkpt lat="47.20787" lon="4.95523">
        <ele>387.50600064</ele>
        <time>2020-05-21T09:53:03.000Z</time>
      </trkpt>
      <trkpt lat="47.20785" lon="4.95523">
        <ele>387.80600064</ele>
        <time>2020-05-21T09:53:06.000Z</time>
      </trkpt>
      <trkpt lat="47.20782" lon="4.95523">
        <ele>388.78835026743</ele>
        <time>2020-05-21T09:53:12.000Z</time>
      </trkpt>
      <trkpt lat="47.20781" lon="4.95523">
        <ele>389.37087417732</ele>
        <time>2020-05-21T09:53:15.000Z</time>
      </trkpt>
      <trkpt lat="47.20779" lon="4.95522">
        <ele>390.49072197326</ele>
        <time>2020-05-21T09:53:23.000Z</time>
      </trkpt>
      <trkpt lat="47.20778" lon="4.95523">
        <ele>392.01200128</ele>
        <time>2020-05-21T09:53:33.000Z</time>
      </trkpt>
      <trkpt lat="47.20777" lon="4.95525">
        <ele>392</ele>
        <time>2020-05-21T09:54:01.000Z</time>
      </trkpt>
      <trkpt lat="47.20776" lon="4.95527">
        <ele>392</ele>
        <time>2020-05-21T09:54:05.000Z</time>
      </trkpt>
      <trkpt lat="47.20774" lon="4.9553">
        <ele>392.00600064</ele>
        <time>2020-05-21T09:54:08.000Z</time>
      </trkpt>
      <trkpt lat="47.20772" lon="4.95531">
        <ele>392.30600064</ele>
        <time>2020-05-21T09:54:11.000Z</time>
      </trkpt>
      <trkpt lat="47.20771" lon="4.95533">
        <ele>392.60600064</ele>
        <time>2020-05-21T09:54:14.000Z</time>
      </trkpt>
      <trkpt lat="47.20771" lon="4.95535">
        <ele>392.39399936</ele>
        <time>2020-05-21T09:54:24.000Z</time>
      </trkpt>
      <trkpt lat="47.20773" lon="4.95536">
        <ele>393</ele>
        <time>2020-05-21T09:54:41.000Z</time>
      </trkpt>
      <trkpt lat="47.20771" lon="4.95537">
        <ele>392.99399936</ele>
        <time>2020-05-21T09:54:48.000Z</time>
      </trkpt>
      <trkpt lat="47.20769" lon="4.95538">
        <ele>392.79399936</ele>
        <time>2020-05-21T09:54:50.000Z</time>
      </trkpt>
      <trkpt lat="47.20767" lon="4.95539">
        <ele>392.59399936</ele>
        <time>2020-05-21T09:54:52.000Z</time>
      </trkpt>
      <trkpt lat="47.20764" lon="4.95539">
        <ele>392.39399936</ele>
        <time>2020-05-21T09:54:54.000Z</time>
      </trkpt>
      <trkpt lat="47.20762" lon="4.95539">
        <ele>392.19399936</ele>
        <time>2020-05-21T09:54:56.000Z</time>
      </trkpt>
      <trkpt lat="47.2076" lon="4.95537">
        <ele>392.01200128</ele>
        <time>2020-05-21T09:54:58.000Z</time>
      </trkpt>
      <trkpt lat="47.20758" lon="4.95536">
        <ele>392.61200128</ele>
        <time>2020-05-21T09:55:01.000Z</time>
      </trkpt>
      <trkpt lat="47.20756" lon="4.95535">
        <ele>393.01200128</ele>
        <time>2020-05-21T09:55:03.000Z</time>
      </trkpt>
      <trkpt lat="47.20754" lon="4.95532">
        <ele>393.61200128</ele>
        <time>2020-05-21T09:55:06.000Z</time>
      </trkpt>
      <trkpt lat="47.20752" lon="4.95531">
        <ele>394.10600064</ele>
        <time>2020-05-21T09:55:09.000Z</time>
      </trkpt>
      <trkpt lat="47.2075" lon="4.95532">
        <ele>394.40600064</ele>
        <time>2020-05-21T09:55:12.000Z</time>
      </trkpt>
      <trkpt lat="47.20749" lon="4.95533">
        <ele>394.60600064</ele>
        <time>2020-05-21T09:55:14.000Z</time>
      </trkpt>
      <trkpt lat="47.20747" lon="4.95535">
        <ele>394.90600064</ele>
        <time>2020-05-21T09:55:17.000Z</time>
      </trkpt>
      <trkpt lat="47.20745" lon="4.95536">
        <ele>395</ele>
        <time>2020-05-21T09:55:19.000Z</time>
      </trkpt>
      <trkpt lat="47.20742" lon="4.95537">
        <ele>395</ele>
        <time>2020-05-21T09:55:21.000Z</time>
      </trkpt>
      <trkpt lat="47.2074" lon="4.95538">
        <ele>395</ele>
        <time>2020-05-21T09:55:23.000Z</time>
      </trkpt>
      <trkpt lat="47.20738" lon="4.95539">
        <ele>395</ele>
        <time>2020-05-21T09:55:25.000Z</time>
      </trkpt>
      <trkpt lat="47.20736" lon="4.9554">
        <ele>395</ele>
        <time>2020-05-21T09:55:27.000Z</time>
      </trkpt>
      <trkpt lat="47.20734" lon="4.95541">
        <ele>394.79399936</ele>
        <time>2020-05-21T09:55:30.000Z</time>
      </trkpt>
      <trkpt lat="47.20731" lon="4.95541">
        <ele>394.49399936</ele>
        <time>2020-05-21T09:55:33.000Z</time>
      </trkpt>
      <trkpt lat="47.2073" lon="4.95541">
        <ele>394.09399936</ele>
        <time>2020-05-21T09:55:37.000Z</time>
      </trkpt>
      <trkpt lat="47.20727" lon="4.95542">
        <ele>394</ele>
        <time>2020-05-21T09:55:39.000Z</time>
      </trkpt>
      <trkpt lat="47.20725" lon="4.95544">
        <ele>394</ele>
        <time>2020-05-21T09:55:41.000Z</time>
      </trkpt>
      <trkpt lat="47.20722" lon="4.95544">
        <ele>394</ele>
        <time>2020-05-21T09:55:44.000Z</time>
      </trkpt>
      <trkpt lat="47.2072" lon="4.95546">
        <ele>394</ele>
        <time>2020-05-21T09:55:46.000Z</time>
      </trkpt>
      <trkpt lat="47.20718" lon="4.95547">
        <ele>394</ele>
        <time>2020-05-21T09:55:48.000Z</time>
      </trkpt>
      <trkpt lat="47.20715" lon="4.95549">
        <ele>394</ele>
        <time>2020-05-21T09:55:50.000Z</time>
      </trkpt>
      <trkpt lat="47.20712" lon="4.95549">
        <ele>394</ele>
        <time>2020-05-21T09:55:52.000Z</time>
      </trkpt>
      <trkpt lat="47.20709" lon="4.9555">
        <ele>394</ele>
        <time>2020-05-21T09:55:54.000Z</time>
      </trkpt>
      <trkpt lat="47.20707" lon="4.9555">
        <ele>394</ele>
        <time>2020-05-21T09:55:56.000Z</time>
      </trkpt>
      <trkpt lat="47.20705" lon="4.95552">
        <ele>394</ele>
        <time>2020-05-21T09:55:59.000Z</time>
      </trkpt>
      <trkpt lat="47.20703" lon="4.95552">
        <ele>394</ele>
        <time>2020-05-21T09:56:01.000Z</time>
      </trkpt>
      <trkpt lat="47.20701" lon="4.95552">
        <ele>394</ele>
        <time>2020-05-21T09:56:04.000Z</time>
      </trkpt>
      <trkpt lat="47.20698" lon="4.95552">
        <ele>394</ele>
        <time>2020-05-21T09:56:06.000Z</time>
      </trkpt>
      <trkpt lat="47.20696" lon="4.95552">
        <ele>394.00500468949</ele>
        <time>2020-05-21T09:56:08.000Z</time>
      </trkpt>
      <trkpt lat="47.20694" lon="4.95551">
        <ele>394.20520508208</ele>
        <time>2020-05-21T09:56:10.000Z</time>
      </trkpt>
      <trkpt lat="47.20692" lon="4.95552">
        <ele>394.40540547466</ele>
        <time>2020-05-21T09:56:12.000Z</time>
      </trkpt>
      <trkpt lat="47.20689" lon="4.95553">
        <ele>394.60560586725</ele>
        <time>2020-05-21T09:56:14.000Z</time>
      </trkpt>
      <trkpt lat="47.20688" lon="4.95554">
        <ele>394.80580625983</ele>
        <time>2020-05-21T09:56:16.000Z</time>
      </trkpt>
      <trkpt lat="47.20686" lon="4.95555">
        <ele>395</ele>
        <time>2020-05-21T09:56:18.000Z</time>
      </trkpt>
      <trkpt lat="47.20683" lon="4.95557">
        <ele>395</ele>
        <time>2020-05-21T09:56:21.000Z</time>
      </trkpt>
      <trkpt lat="47.20681" lon="4.95559">
        <ele>395</ele>
        <time>2020-05-21T09:56:24.000Z</time>
      </trkpt>
      <trkpt lat="47.20679" lon="4.9556">
        <ele>395</ele>
        <time>2020-05-21T09:56:27.000Z</time>
      </trkpt>
      <trkpt lat="47.20676" lon="4.95562">
        <ele>395</ele>
        <time>2020-05-21T09:56:29.000Z</time>
      </trkpt>
      <trkpt lat="47.20673" lon="4.95564">
        <ele>395</ele>
        <time>2020-05-21T09:56:31.000Z</time>
      </trkpt>
      <trkpt lat="47.20671" lon="4.95565">
        <ele>395</ele>
        <time>2020-05-21T09:56:33.000Z</time>
      </trkpt>
      <trkpt lat="47.20669" lon="4.95565">
        <ele>395</ele>
        <time>2020-05-21T09:56:35.000Z</time>
      </trkpt>
      <trkpt lat="47.20666" lon="4.95567">
        <ele>395</ele>
        <time>2020-05-21T09:56:37.000Z</time>
      </trkpt>
      <trkpt lat="47.20664" lon="4.95568">
        <ele>395</ele>
        <time>2020-05-21T09:56:39.000Z</time>
      </trkpt>
      <trkpt lat="47.20662" lon="4.95569">
        <ele>395</ele>
        <time>2020-05-21T09:56:41.000Z</time>
      </trkpt>
      <trkpt lat="47.2066" lon="4.95569">
        <ele>395</ele>
        <time>2020-05-21T09:56:43.000Z</time>
      </trkpt>
      <trkpt lat="47.20658" lon="4.95568">
        <ele>395</ele>
        <time>2020-05-21T09:56:45.000Z</time>
      </trkpt>
      <trkpt lat="47.20655" lon="4.95569">
        <ele>395</ele>
        <time>2020-05-21T09:56:47.000Z</time>
      </trkpt>
      <trkpt lat="47.20653" lon="4.95568">
        <ele>395</ele>
        <time>2020-05-21T09:56:49.000Z</time>
      </trkpt>
      <trkpt lat="47.2065" lon="4.95568">
        <ele>395</ele>
        <time>2020-05-21T09:56:51.000Z</time>
      </trkpt>
      <trkpt lat="47.20648" lon="4.95568">
        <ele>395</ele>
        <time>2020-05-21T09:56:53.000Z</time>
      </trkpt>
      <trkpt lat="47.20646" lon="4.95567">
        <ele>395</ele>
        <time>2020-05-21T09:56:55.000Z</time>
      </trkpt>
      <trkpt lat="47.20643" lon="4.95567">
        <ele>395</ele>
        <time>2020-05-21T09:56:57.000Z</time>
      </trkpt>
      <trkpt lat="47.20641" lon="4.95566">
        <ele>394.89399936</ele>
        <time>2020-05-21T09:56:59.000Z</time>
      </trkpt>
      <trkpt lat="47.20639" lon="4.95566">
        <ele>394.69399936</ele>
        <time>2020-05-21T09:57:01.000Z</time>
      </trkpt>
      <trkpt lat="47.20636" lon="4.95566">
        <ele>394.49399936</ele>
        <time>2020-05-21T09:57:03.000Z</time>
      </trkpt>
      <trkpt lat="47.20634" lon="4.95565">
        <ele>394.29399936</ele>
        <time>2020-05-21T09:57:05.000Z</time>
      </trkpt>
      <trkpt lat="47.20632" lon="4.95565">
        <ele>394.09399936</ele>
        <time>2020-05-21T09:57:07.000Z</time>
      </trkpt>
      <trkpt lat="47.2063" lon="4.95564">
        <ele>394.10600064</ele>
        <time>2020-05-21T09:57:09.000Z</time>
      </trkpt>
      <trkpt lat="47.20628" lon="4.95563">
        <ele>394.30600064</ele>
        <time>2020-05-21T09:57:11.000Z</time>
      </trkpt>
      <trkpt lat="47.20626" lon="4.95562">
        <ele>394.50600064</ele>
        <time>2020-05-21T09:57:13.000Z</time>
      </trkpt>
      <trkpt lat="47.20623" lon="4.9556">
        <ele>394.70600064</ele>
        <time>2020-05-21T09:57:15.000Z</time>
      </trkpt>
      <trkpt lat="47.20621" lon="4.95559">
        <ele>394.90600064</ele>
        <time>2020-05-21T09:57:17.000Z</time>
      </trkpt>
      <trkpt lat="47.2062" lon="4.95557">
        <ele>395</ele>
        <time>2020-05-21T09:57:19.000Z</time>
      </trkpt>
      <trkpt lat="47.20618" lon="4.95555">
        <ele>395</ele>
        <time>2020-05-21T09:57:21.000Z</time>
      </trkpt>
      <trkpt lat="47.20616" lon="4.95553">
        <ele>395</ele>
        <time>2020-05-21T09:57:23.000Z</time>
      </trkpt>
      <trkpt lat="47.20615" lon="4.95551">
        <ele>395</ele>
        <time>2020-05-21T09:57:25.000Z</time>
      </trkpt>
      <trkpt lat="47.20612" lon="4.95548">
        <ele>395</ele>
        <time>2020-05-21T09:57:28.000Z</time>
      </trkpt>
      <trkpt lat="47.20611" lon="4.95546">
        <ele>395</ele>
        <time>2020-05-21T09:57:30.000Z</time>
      </trkpt>
      <trkpt lat="47.20609" lon="4.95544">
        <ele>395</ele>
        <time>2020-05-21T09:57:32.000Z</time>
      </trkpt>
      <trkpt lat="47.20607" lon="4.95541">
        <ele>395</ele>
        <time>2020-05-21T09:57:35.000Z</time>
      </trkpt>
      <trkpt lat="47.20605" lon="4.95539">
        <ele>395</ele>
        <time>2020-05-21T09:57:37.000Z</time>
      </trkpt>
      <trkpt lat="47.20603" lon="4.95538">
        <ele>395</ele>
        <time>2020-05-21T09:57:39.000Z</time>
      </trkpt>
      <trkpt lat="47.20601" lon="4.95536">
        <ele>395</ele>
        <time>2020-05-21T09:57:41.000Z</time>
      </trkpt>
      <trkpt lat="47.20599" lon="4.95535">
        <ele>395</ele>
        <time>2020-05-21T09:57:43.000Z</time>
      </trkpt>
      <trkpt lat="47.20597" lon="4.95534">
        <ele>395</ele>
        <time>2020-05-21T09:57:45.000Z</time>
      </trkpt>
      <trkpt lat="47.20595" lon="4.95532">
        <ele>395</ele>
        <time>2020-05-21T09:57:47.000Z</time>
      </trkpt>
      <trkpt lat="47.20593" lon="4.95531">
        <ele>395.10600064</ele>
        <time>2020-05-21T09:57:49.000Z</time>
      </trkpt>
      <trkpt lat="47.20591" lon="4.9553">
        <ele>395.30600064</ele>
        <time>2020-05-21T09:57:51.000Z</time>
      </trkpt>
      <trkpt lat="47.20589" lon="4.95528">
        <ele>395.50600064</ele>
        <time>2020-05-21T09:57:53.000Z</time>
      </trkpt>
      <trkpt lat="47.20587" lon="4.95526">
        <ele>395.70600064</ele>
        <time>2020-05-21T09:57:55.000Z</time>
      </trkpt>
      <trkpt lat="47.20585" lon="4.95524">
        <ele>395.90600064</ele>
        <time>2020-05-21T09:57:57.000Z</time>
      </trkpt>
      <trkpt lat="47.20583" lon="4.95523">
        <ele>396.10600064</ele>
        <time>2020-05-21T09:57:59.000Z</time>
      </trkpt>
      <trkpt lat="47.20582" lon="4.95521">
        <ele>396.30600064</ele>
        <time>2020-05-21T09:58:01.000Z</time>
      </trkpt>
      <trkpt lat="47.20579" lon="4.95519">
        <ele>396.50600064</ele>
        <time>2020-05-21T09:58:03.000Z</time>
      </trkpt>
      <trkpt lat="47.20577" lon="4.95517">
        <ele>396.70600064</ele>
        <time>2020-05-21T09:58:05.000Z</time>
      </trkpt>
      <trkpt lat="47.20575" lon="4.95515">
        <ele>396.90600064</ele>
        <time>2020-05-21T09:58:07.000Z</time>
      </trkpt>
      <trkpt lat="47.20573" lon="4.95513">
        <ele>396.89399936</ele>
        <time>2020-05-21T09:58:09.000Z</time>
      </trkpt>
      <trkpt lat="47.20571" lon="4.95511">
        <ele>396.69399936</ele>
        <time>2020-05-21T09:58:11.000Z</time>
      </trkpt>
      <trkpt lat="47.2057" lon="4.95509">
        <ele>396.49399936</ele>
        <time>2020-05-21T09:58:13.000Z</time>
      </trkpt>
      <trkpt lat="47.20568" lon="4.95507">
        <ele>396.29399936</ele>
        <time>2020-05-21T09:58:15.000Z</time>
      </trkpt>
      <trkpt lat="47.20567" lon="4.95504">
        <ele>396.09399936</ele>
        <time>2020-05-21T09:58:17.000Z</time>
      </trkpt>
      <trkpt lat="47.20565" lon="4.955">
        <ele>396.20600064</ele>
        <time>2020-05-21T09:58:20.000Z</time>
      </trkpt>
      <trkpt lat="47.20564" lon="4.95498">
        <ele>396.40600064</ele>
        <time>2020-05-21T09:58:22.000Z</time>
      </trkpt>
      <trkpt lat="47.20562" lon="4.95495">
        <ele>396.60600064</ele>
        <time>2020-05-21T09:58:24.000Z</time>
      </trkpt>
      <trkpt lat="47.20561" lon="4.95493">
        <ele>396.80600064</ele>
        <time>2020-05-21T09:58:26.000Z</time>
      </trkpt>
      <trkpt lat="47.2056" lon="4.95491">
        <ele>397.00600064</ele>
        <time>2020-05-21T09:58:28.000Z</time>
      </trkpt>
      <trkpt lat="47.20558" lon="4.95488">
        <ele>397.20600064</ele>
        <time>2020-05-21T09:58:30.000Z</time>
      </trkpt>
      <trkpt lat="47.20556" lon="4.95486">
        <ele>397.40600064</ele>
        <time>2020-05-21T09:58:32.000Z</time>
      </trkpt>
      <trkpt lat="47.20555" lon="4.95485">
        <ele>397.60600064</ele>
        <time>2020-05-21T09:58:34.000Z</time>
      </trkpt>
      <trkpt lat="47.20553" lon="4.95484">
        <ele>397.80600064</ele>
        <time>2020-05-21T09:58:36.000Z</time>
      </trkpt>
      <trkpt lat="47.2055" lon="4.95484">
        <ele>397.99399936</ele>
        <time>2020-05-21T09:58:38.000Z</time>
      </trkpt>
      <trkpt lat="47.20548" lon="4.95484">
        <ele>397.79399936</ele>
        <time>2020-05-21T09:58:40.000Z</time>
      </trkpt>
      <trkpt lat="47.20545" lon="4.95485">
        <ele>397.59399936</ele>
        <time>2020-05-21T09:58:42.000Z</time>
      </trkpt>
      <trkpt lat="47.20543" lon="4.95485">
        <ele>397.39399936</ele>
        <time>2020-05-21T09:58:44.000Z</time>
      </trkpt>
      <trkpt lat="47.20541" lon="4.95484">
        <ele>397.19399936</ele>
        <time>2020-05-21T09:58:46.000Z</time>
      </trkpt>
      <trkpt lat="47.20538" lon="4.95482">
        <ele>396.89399936</ele>
        <time>2020-05-21T09:58:49.000Z</time>
      </trkpt>
      <trkpt lat="47.20536" lon="4.9548">
        <ele>396.69399936</ele>
        <time>2020-05-21T09:58:51.000Z</time>
      </trkpt>
      <trkpt lat="47.20533" lon="4.95478">
        <ele>396.49399936</ele>
        <time>2020-05-21T09:58:53.000Z</time>
      </trkpt>
      <trkpt lat="47.20531" lon="4.95476">
        <ele>396.29399936</ele>
        <time>2020-05-21T09:58:55.000Z</time>
      </trkpt>
      <trkpt lat="47.2053" lon="4.95474">
        <ele>396.09399936</ele>
        <time>2020-05-21T09:58:57.000Z</time>
      </trkpt>
      <trkpt lat="47.20528" lon="4.95472">
        <ele>396.10600064</ele>
        <time>2020-05-21T09:58:59.000Z</time>
      </trkpt>
      <trkpt lat="47.20525" lon="4.95471">
        <ele>396.30600064</ele>
        <time>2020-05-21T09:59:01.000Z</time>
      </trkpt>
      <trkpt lat="47.20523" lon="4.95471">
        <ele>396.50600064</ele>
        <time>2020-05-21T09:59:03.000Z</time>
      </trkpt>
      <trkpt lat="47.20521" lon="4.9547">
        <ele>396.70600064</ele>
        <time>2020-05-21T09:59:05.000Z</time>
      </trkpt>
      <trkpt lat="47.20519" lon="4.95468">
        <ele>396.90600064</ele>
        <time>2020-05-21T09:59:07.000Z</time>
      </trkpt>
      <trkpt lat="47.20517" lon="4.95467">
        <ele>397</ele>
        <time>2020-05-21T09:59:09.000Z</time>
      </trkpt>
      <trkpt lat="47.20515" lon="4.95465">
        <ele>397</ele>
        <time>2020-05-21T09:59:11.000Z</time>
      </trkpt>
      <trkpt lat="47.20512" lon="4.95462">
        <ele>397</ele>
        <time>2020-05-21T09:59:13.000Z</time>
      </trkpt>
      <trkpt lat="47.2051" lon="4.95462">
        <ele>397</ele>
        <time>2020-05-21T09:59:16.000Z</time>
      </trkpt>
      <trkpt lat="47.20508" lon="4.9546">
        <ele>397.10600064</ele>
        <time>2020-05-21T09:59:19.000Z</time>
      </trkpt>
      <trkpt lat="47.20506" lon="4.95458">
        <ele>397.30600064</ele>
        <time>2020-05-21T09:59:21.000Z</time>
      </trkpt>
      <trkpt lat="47.20504" lon="4.95456">
        <ele>397.50600064</ele>
        <time>2020-05-21T09:59:23.000Z</time>
      </trkpt>
      <trkpt lat="47.20502" lon="4.95455">
        <ele>397.70600064</ele>
        <time>2020-05-21T09:59:25.000Z</time>
      </trkpt>
      <trkpt lat="47.205" lon="4.95453">
        <ele>397.90600064</ele>
        <time>2020-05-21T09:59:27.000Z</time>
      </trkpt>
      <trkpt lat="47.20498" lon="4.95451">
        <ele>398</ele>
        <time>2020-05-21T09:59:29.000Z</time>
      </trkpt>
      <trkpt lat="47.20496" lon="4.9545">
        <ele>398</ele>
        <time>2020-05-21T09:59:32.000Z</time>
      </trkpt>
      <trkpt lat="47.20494" lon="4.95448">
        <ele>398</ele>
        <time>2020-05-21T09:59:34.000Z</time>
      </trkpt>
      <trkpt lat="47.20492" lon="4.95445">
        <ele>398</ele>
        <time>2020-05-21T09:59:36.000Z</time>
      </trkpt>
      <trkpt lat="47.20491" lon="4.95442">
        <ele>398</ele>
        <time>2020-05-21T09:59:38.000Z</time>
      </trkpt>
      <trkpt lat="47.2049" lon="4.9544">
        <ele>398</ele>
        <time>2020-05-21T09:59:40.000Z</time>
      </trkpt>
      <trkpt lat="47.20488" lon="4.95436">
        <ele>398</ele>
        <time>2020-05-21T09:59:42.000Z</time>
      </trkpt>
      <trkpt lat="47.20486" lon="4.95434">
        <ele>398</ele>
        <time>2020-05-21T09:59:44.000Z</time>
      </trkpt>
      <trkpt lat="47.20484" lon="4.95433">
        <ele>398</ele>
        <time>2020-05-21T09:59:46.000Z</time>
      </trkpt>
      <trkpt lat="47.20482" lon="4.95431">
        <ele>398.01200128</ele>
        <time>2020-05-21T09:59:48.000Z</time>
      </trkpt>
      <trkpt lat="47.2048" lon="4.9543">
        <ele>398.41200128</ele>
        <time>2020-05-21T09:59:50.000Z</time>
      </trkpt>
      <trkpt lat="47.20478" lon="4.95428">
        <ele>398.81200128</ele>
        <time>2020-05-21T09:59:52.000Z</time>
      </trkpt>
      <trkpt lat="47.20477" lon="4.95426">
        <ele>399.01200128</ele>
        <time>2020-05-21T09:59:53.000Z</time>
      </trkpt>
      <trkpt lat="47.20476" lon="4.95424">
        <ele>399.41200128</ele>
        <time>2020-05-21T09:59:55.000Z</time>
      </trkpt>
      <trkpt lat="47.20474" lon="4.95422">
        <ele>399.81200128</ele>
        <time>2020-05-21T09:59:57.000Z</time>
      </trkpt>
      <trkpt lat="47.20472" lon="4.95421">
        <ele>400.10600064</ele>
        <time>2020-05-21T09:59:59.000Z</time>
      </trkpt>
      <trkpt lat="47.2047" lon="4.95419">
        <ele>400.30600064</ele>
        <time>2020-05-21T10:00:01.000Z</time>
      </trkpt>
      <trkpt lat="47.20468" lon="4.95418">
        <ele>400.50600064</ele>
        <time>2020-05-21T10:00:03.000Z</time>
      </trkpt>
      <trkpt lat="47.20467" lon="4.95416">
        <ele>400.70600064</ele>
        <time>2020-05-21T10:00:05.000Z</time>
      </trkpt>
      <trkpt lat="47.20464" lon="4.95414">
        <ele>400.90600064</ele>
        <time>2020-05-21T10:00:07.000Z</time>
      </trkpt>
      <trkpt lat="47.20462" lon="4.95411">
        <ele>401</ele>
        <time>2020-05-21T10:00:09.000Z</time>
      </trkpt>
      <trkpt lat="47.2046" lon="4.95408">
        <ele>401</ele>
        <time>2020-05-21T10:00:11.000Z</time>
      </trkpt>
      <trkpt lat="47.20458" lon="4.95406">
        <ele>401</ele>
        <time>2020-05-21T10:00:13.000Z</time>
      </trkpt>
      <trkpt lat="47.20455" lon="4.95403">
        <ele>401</ele>
        <time>2020-05-21T10:00:15.000Z</time>
      </trkpt>
      <trkpt lat="47.20454" lon="4.954">
        <ele>401</ele>
        <time>2020-05-21T10:00:17.000Z</time>
      </trkpt>
      <trkpt lat="47.20452" lon="4.95398">
        <ele>401</ele>
        <time>2020-05-21T10:00:19.000Z</time>
      </trkpt>
      <trkpt lat="47.2045" lon="4.95396">
        <ele>401</ele>
        <time>2020-05-21T10:00:21.000Z</time>
      </trkpt>
      <trkpt lat="47.20448" lon="4.95394">
        <ele>401</ele>
        <time>2020-05-21T10:00:24.000Z</time>
      </trkpt>
      <trkpt lat="47.20446" lon="4.95391">
        <ele>401</ele>
        <time>2020-05-21T10:00:26.000Z</time>
      </trkpt>
      <trkpt lat="47.20445" lon="4.95388">
        <ele>401.00600064</ele>
        <time>2020-05-21T10:00:28.000Z</time>
      </trkpt>
      <trkpt lat="47.20443" lon="4.95386">
        <ele>401.20600064</ele>
        <time>2020-05-21T10:00:30.000Z</time>
      </trkpt>
      <trkpt lat="47.20441" lon="4.95384">
        <ele>401.40600064</ele>
        <time>2020-05-21T10:00:32.000Z</time>
      </trkpt>
      <trkpt lat="47.20439" lon="4.95382">
        <ele>401.60600064</ele>
        <time>2020-05-21T10:00:34.000Z</time>
      </trkpt>
      <trkpt lat="47.20437" lon="4.95381">
        <ele>401.80600064</ele>
        <time>2020-05-21T10:00:36.000Z</time>
      </trkpt>
      <trkpt lat="47.20434" lon="4.9538">
        <ele>401.99399936</ele>
        <time>2020-05-21T10:00:38.000Z</time>
      </trkpt>
      <trkpt lat="47.20432" lon="4.95379">
        <ele>401.79399936</ele>
        <time>2020-05-21T10:00:40.000Z</time>
      </trkpt>
      <trkpt lat="47.2043" lon="4.95379">
        <ele>401.59399936</ele>
        <time>2020-05-21T10:00:42.000Z</time>
      </trkpt>
      <trkpt lat="47.20427" lon="4.95379">
        <ele>401.39399936</ele>
        <time>2020-05-21T10:00:44.000Z</time>
      </trkpt>
      <trkpt lat="47.20424" lon="4.9538">
        <ele>401.19399936</ele>
        <time>2020-05-21T10:00:46.000Z</time>
      </trkpt>
      <trkpt lat="47.20422" lon="4.95381">
        <ele>400.99399936</ele>
        <time>2020-05-21T10:00:48.000Z</time>
      </trkpt>
      <trkpt lat="47.20419" lon="4.95382">
        <ele>400.79399936</ele>
        <time>2020-05-21T10:00:50.000Z</time>
      </trkpt>
      <trkpt lat="47.20417" lon="4.95382">
        <ele>400.59399936</ele>
        <time>2020-05-21T10:00:52.000Z</time>
      </trkpt>
      <trkpt lat="47.20415" lon="4.95383">
        <ele>400.39399936</ele>
        <time>2020-05-21T10:00:54.000Z</time>
      </trkpt>
      <trkpt lat="47.20412" lon="4.95382">
        <ele>400.09399936</ele>
        <time>2020-05-21T10:00:57.000Z</time>
      </trkpt>
      <trkpt lat="47.20409" lon="4.9538">
        <ele>399.79399936</ele>
        <time>2020-05-21T10:01:00.000Z</time>
      </trkpt>
      <trkpt lat="47.20406" lon="4.95381">
        <ele>399.59399936</ele>
        <time>2020-05-21T10:01:02.000Z</time>
      </trkpt>
      <trkpt lat="47.20404" lon="4.95382">
        <ele>399.39399936</ele>
        <time>2020-05-21T10:01:04.000Z</time>
      </trkpt>
      <trkpt lat="47.20402" lon="4.95384">
        <ele>399.19399936</ele>
        <time>2020-05-21T10:01:06.000Z</time>
      </trkpt>
      <trkpt lat="47.204" lon="4.95386">
        <ele>398.98799872</ele>
        <time>2020-05-21T10:01:08.000Z</time>
      </trkpt>
      <trkpt lat="47.20398" lon="4.95387">
        <ele>398.58799872</ele>
        <time>2020-05-21T10:01:10.000Z</time>
      </trkpt>
      <trkpt lat="47.20396" lon="4.95387">
        <ele>398.18799872</ele>
        <time>2020-05-21T10:01:12.000Z</time>
      </trkpt>
      <trkpt lat="47.20395" lon="4.95386">
        <ele>397.98799872</ele>
        <time>2020-05-21T10:01:13.000Z</time>
      </trkpt>
      <trkpt lat="47.20393" lon="4.95384">
        <ele>397.58799872</ele>
        <time>2020-05-21T10:01:15.000Z</time>
      </trkpt>
      <trkpt lat="47.20392" lon="4.95381">
        <ele>397.18799872</ele>
        <time>2020-05-21T10:01:17.000Z</time>
      </trkpt>
      <trkpt lat="47.2039" lon="4.95379">
        <ele>397.10600064</ele>
        <time>2020-05-21T10:01:19.000Z</time>
      </trkpt>
      <trkpt lat="47.20389" lon="4.95375">
        <ele>397.30600064</ele>
        <time>2020-05-21T10:01:21.000Z</time>
      </trkpt>
      <trkpt lat="47.20388" lon="4.95372">
        <ele>397.50600064</ele>
        <time>2020-05-21T10:01:23.000Z</time>
      </trkpt>
      <trkpt lat="47.20386" lon="4.95369">
        <ele>397.70600064</ele>
        <time>2020-05-21T10:01:25.000Z</time>
      </trkpt>
      <trkpt lat="47.20385" lon="4.95368">
        <ele>397.90600064</ele>
        <time>2020-05-21T10:01:27.000Z</time>
      </trkpt>
      <trkpt lat="47.20383" lon="4.95366">
        <ele>398</ele>
        <time>2020-05-21T10:01:29.000Z</time>
      </trkpt>
      <trkpt lat="47.20381" lon="4.95364">
        <ele>398</ele>
        <time>2020-05-21T10:01:31.000Z</time>
      </trkpt>
      <trkpt lat="47.2038" lon="4.95361">
        <ele>398</ele>
        <time>2020-05-21T10:01:33.000Z</time>
      </trkpt>
      <trkpt lat="47.20378" lon="4.95358">
        <ele>398</ele>
        <time>2020-05-21T10:01:35.000Z</time>
      </trkpt>
      <trkpt lat="47.20377" lon="4.95355">
        <ele>398</ele>
        <time>2020-05-21T10:01:37.000Z</time>
      </trkpt>
      <trkpt lat="47.20376" lon="4.95352">
        <ele>398</ele>
        <time>2020-05-21T10:01:39.000Z</time>
      </trkpt>
      <trkpt lat="47.20374" lon="4.95349">
        <ele>398</ele>
        <time>2020-05-21T10:01:41.000Z</time>
      </trkpt>
      <trkpt lat="47.20372" lon="4.95348">
        <ele>398</ele>
        <time>2020-05-21T10:01:43.000Z</time>
      </trkpt>
      <trkpt lat="47.2037" lon="4.95349">
        <ele>398.10600064</ele>
        <time>2020-05-21T10:01:49.000Z</time>
      </trkpt>
      <trkpt lat="47.20368" lon="4.95348">
        <ele>398.30600064</ele>
        <time>2020-05-21T10:01:51.000Z</time>
      </trkpt>
      <trkpt lat="47.20365" lon="4.95347">
        <ele>398.50600064</ele>
        <time>2020-05-21T10:01:53.000Z</time>
      </trkpt>
      <trkpt lat="47.20362" lon="4.95347">
        <ele>398.70600064</ele>
        <time>2020-05-21T10:01:55.000Z</time>
      </trkpt>
      <trkpt lat="47.2036" lon="4.95347">
        <ele>398.90600064</ele>
        <time>2020-05-21T10:01:57.000Z</time>
      </trkpt>
      <trkpt lat="47.20357" lon="4.95347">
        <ele>398.78799872</ele>
        <time>2020-05-21T10:01:59.000Z</time>
      </trkpt>
      <trkpt lat="47.20355" lon="4.95346">
        <ele>398.38799872</ele>
        <time>2020-05-21T10:02:01.000Z</time>
      </trkpt>
      <trkpt lat="47.20353" lon="4.95345">
        <ele>397.98799872</ele>
        <time>2020-05-21T10:02:03.000Z</time>
      </trkpt>
      <trkpt lat="47.20351" lon="4.95344">
        <ele>397.58799872</ele>
        <time>2020-05-21T10:02:05.000Z</time>
      </trkpt>
      <trkpt lat="47.20349" lon="4.95342">
        <ele>397.18799872</ele>
        <time>2020-05-21T10:02:07.000Z</time>
      </trkpt>
      <trkpt lat="47.20347" lon="4.95339">
        <ele>397</ele>
        <time>2020-05-21T10:02:09.000Z</time>
      </trkpt>
      <trkpt lat="47.20346" lon="4.95337">
        <ele>397</ele>
        <time>2020-05-21T10:02:11.000Z</time>
      </trkpt>
      <trkpt lat="47.20345" lon="4.95334">
        <ele>397</ele>
        <time>2020-05-21T10:02:13.000Z</time>
      </trkpt>
      <trkpt lat="47.20345" lon="4.95331">
        <ele>397</ele>
        <time>2020-05-21T10:02:15.000Z</time>
      </trkpt>
      <trkpt lat="47.20343" lon="4.95327">
        <ele>397</ele>
        <time>2020-05-21T10:02:17.000Z</time>
      </trkpt>
      <trkpt lat="47.20342" lon="4.95324">
        <ele>397.10600064</ele>
        <time>2020-05-21T10:02:19.000Z</time>
      </trkpt>
      <trkpt lat="47.20341" lon="4.95321">
        <ele>397.30600064</ele>
        <time>2020-05-21T10:02:21.000Z</time>
      </trkpt>
      <trkpt lat="47.20341" lon="4.95318">
        <ele>397.50600064</ele>
        <time>2020-05-21T10:02:23.000Z</time>
      </trkpt>
      <trkpt lat="47.2034" lon="4.95315">
        <ele>397.70600064</ele>
        <time>2020-05-21T10:02:25.000Z</time>
      </trkpt>
      <trkpt lat="47.20339" lon="4.95311">
        <ele>397.90600064</ele>
        <time>2020-05-21T10:02:27.000Z</time>
      </trkpt>
      <trkpt lat="47.20339" lon="4.95308">
        <ele>398.21200128</ele>
        <time>2020-05-21T10:02:29.000Z</time>
      </trkpt>
      <trkpt lat="47.20338" lon="4.95305">
        <ele>398.61200128</ele>
        <time>2020-05-21T10:02:31.000Z</time>
      </trkpt>
      <trkpt lat="47.20338" lon="4.95302">
        <ele>399.01200128</ele>
        <time>2020-05-21T10:02:33.000Z</time>
      </trkpt>
      <trkpt lat="47.20337" lon="4.95299">
        <ele>399.41200128</ele>
        <time>2020-05-21T10:02:35.000Z</time>
      </trkpt>
      <trkpt lat="47.20336" lon="4.95296">
        <ele>399.81200128</ele>
        <time>2020-05-21T10:02:37.000Z</time>
      </trkpt>
      <trkpt lat="47.20335" lon="4.95293">
        <ele>400</ele>
        <time>2020-05-21T10:02:39.000Z</time>
      </trkpt>
      <trkpt lat="47.20334" lon="4.9529">
        <ele>400</ele>
        <time>2020-05-21T10:02:41.000Z</time>
      </trkpt>
      <trkpt lat="47.20333" lon="4.95287">
        <ele>400</ele>
        <time>2020-05-21T10:02:43.000Z</time>
      </trkpt>
      <trkpt lat="47.20333" lon="4.95283">
        <ele>400</ele>
        <time>2020-05-21T10:02:45.000Z</time>
      </trkpt>
      <trkpt lat="47.20332" lon="4.9528">
        <ele>400</ele>
        <time>2020-05-21T10:02:47.000Z</time>
      </trkpt>
      <trkpt lat="47.20331" lon="4.95277">
        <ele>400.07926764228</ele>
        <time>2020-05-21T10:02:49.000Z</time>
      </trkpt>
      <trkpt lat="47.2033" lon="4.95274">
        <ele>400.2825196748</ele>
        <time>2020-05-21T10:02:51.000Z</time>
      </trkpt>
      <trkpt lat="47.20329" lon="4.95272">
        <ele>400.48577170732</ele>
        <time>2020-05-21T10:02:53.000Z</time>
      </trkpt>
      <trkpt lat="47.20327" lon="4.95271">
        <ele>400.89227577236</ele>
        <time>2020-05-21T10:02:57.000Z</time>
      </trkpt>
      <trkpt lat="47.20325" lon="4.95272">
        <ele>400.50600064</ele>
        <time>2020-05-21T10:03:13.000Z</time>
      </trkpt>
      <trkpt lat="47.20323" lon="4.95273">
        <ele>400.70600064</ele>
        <time>2020-05-21T10:03:15.000Z</time>
      </trkpt>
      <trkpt lat="47.20321" lon="4.95271">
        <ele>400.90600064</ele>
        <time>2020-05-21T10:03:17.000Z</time>
      </trkpt>
      <trkpt lat="47.2032" lon="4.95269">
        <ele>401</ele>
        <time>2020-05-21T10:03:19.000Z</time>
      </trkpt>
      <trkpt lat="47.20318" lon="4.95266">
        <ele>401</ele>
        <time>2020-05-21T10:03:21.000Z</time>
      </trkpt>
      <trkpt lat="47.20317" lon="4.95263">
        <ele>401</ele>
        <time>2020-05-21T10:03:23.000Z</time>
      </trkpt>
      <trkpt lat="47.20315" lon="4.95261">
        <ele>401</ele>
        <time>2020-05-21T10:03:25.000Z</time>
      </trkpt>
      <trkpt lat="47.20314" lon="4.95258">
        <ele>401</ele>
        <time>2020-05-21T10:03:27.000Z</time>
      </trkpt>
      <trkpt lat="47.20312" lon="4.95255">
        <ele>401.10600064</ele>
        <time>2020-05-21T10:03:29.000Z</time>
      </trkpt>
      <trkpt lat="47.20311" lon="4.95252">
        <ele>401.30600064</ele>
        <time>2020-05-21T10:03:31.000Z</time>
      </trkpt>
      <trkpt lat="47.2031" lon="4.95249">
        <ele>401.50600064</ele>
        <time>2020-05-21T10:03:33.000Z</time>
      </trkpt>
      <trkpt lat="47.20309" lon="4.95246">
        <ele>401.70600064</ele>
        <time>2020-05-21T10:03:35.000Z</time>
      </trkpt>
      <trkpt lat="47.20308" lon="4.95243">
        <ele>401.90600064</ele>
        <time>2020-05-21T10:03:37.000Z</time>
      </trkpt>
      <trkpt lat="47.20306" lon="4.95239">
        <ele>402</ele>
        <time>2020-05-21T10:03:39.000Z</time>
      </trkpt>
      <trkpt lat="47.20305" lon="4.95235">
        <ele>402</ele>
        <time>2020-05-21T10:03:41.000Z</time>
      </trkpt>
      <trkpt lat="47.20304" lon="4.95232">
        <ele>402</ele>
        <time>2020-05-21T10:03:43.000Z</time>
      </trkpt>
      <trkpt lat="47.20303" lon="4.95228">
        <ele>402</ele>
        <time>2020-05-21T10:03:45.000Z</time>
      </trkpt>
      <trkpt lat="47.20302" lon="4.95225">
        <ele>402</ele>
        <time>2020-05-21T10:03:47.000Z</time>
      </trkpt>
      <trkpt lat="47.20301" lon="4.95222">
        <ele>402.10600064</ele>
        <time>2020-05-21T10:03:49.000Z</time>
      </trkpt>
      <trkpt lat="47.203" lon="4.95221">
        <ele>403.50600064</ele>
        <time>2020-05-21T10:04:33.000Z</time>
      </trkpt>
      <trkpt lat="47.203" lon="4.95218">
        <ele>403</ele>
        <time>2020-05-21T10:04:48.000Z</time>
      </trkpt>
      <trkpt lat="47.20299" lon="4.95216">
        <ele>403</ele>
        <time>2020-05-21T10:04:50.000Z</time>
      </trkpt>
      <trkpt lat="47.20298" lon="4.95213">
        <ele>403</ele>
        <time>2020-05-21T10:04:52.000Z</time>
      </trkpt>
      <trkpt lat="47.20296" lon="4.9521">
        <ele>403</ele>
        <time>2020-05-21T10:04:54.000Z</time>
      </trkpt>
      <trkpt lat="47.20295" lon="4.95207">
        <ele>403</ele>
        <time>2020-05-21T10:04:56.000Z</time>
      </trkpt>
      <trkpt lat="47.20294" lon="4.95204">
        <ele>403.00600064</ele>
        <time>2020-05-21T10:04:58.000Z</time>
      </trkpt>
      <trkpt lat="47.20293" lon="4.95201">
        <ele>403.20600064</ele>
        <time>2020-05-21T10:05:00.000Z</time>
      </trkpt>
      <trkpt lat="47.20291" lon="4.95198">
        <ele>403.40600064</ele>
        <time>2020-05-21T10:05:02.000Z</time>
      </trkpt>
      <trkpt lat="47.2029" lon="4.95195">
        <ele>403.60600064</ele>
        <time>2020-05-21T10:05:04.000Z</time>
      </trkpt>
      <trkpt lat="47.20289" lon="4.95192">
        <ele>403.80600064</ele>
        <time>2020-05-21T10:05:06.000Z</time>
      </trkpt>
      <trkpt lat="47.20287" lon="4.95189">
        <ele>404</ele>
        <time>2020-05-21T10:05:08.000Z</time>
      </trkpt>
      <trkpt lat="47.20285" lon="4.95187">
        <ele>404</ele>
        <time>2020-05-21T10:05:10.000Z</time>
      </trkpt>
      <trkpt lat="47.20283" lon="4.95185">
        <ele>404</ele>
        <time>2020-05-21T10:05:12.000Z</time>
      </trkpt>
      <trkpt lat="47.20281" lon="4.95182">
        <ele>404</ele>
        <time>2020-05-21T10:05:14.000Z</time>
      </trkpt>
      <trkpt lat="47.20279" lon="4.9518">
        <ele>404</ele>
        <time>2020-05-21T10:05:16.000Z</time>
      </trkpt>
      <trkpt lat="47.20277" lon="4.95178">
        <ele>403.99399936</ele>
        <time>2020-05-21T10:05:18.000Z</time>
      </trkpt>
      <trkpt lat="47.20275" lon="4.95177">
        <ele>403.79399936</ele>
        <time>2020-05-21T10:05:20.000Z</time>
      </trkpt>
      <trkpt lat="47.20272" lon="4.95177">
        <ele>403.59399936</ele>
        <time>2020-05-21T10:05:22.000Z</time>
      </trkpt>
      <trkpt lat="47.20269" lon="4.95178">
        <ele>403.39399936</ele>
        <time>2020-05-21T10:05:24.000Z</time>
      </trkpt>
      <trkpt lat="47.20267" lon="4.95178">
        <ele>403.19399936</ele>
        <time>2020-05-21T10:05:26.000Z</time>
      </trkpt>
      <trkpt lat="47.20264" lon="4.95177">
        <ele>402.99399936</ele>
        <time>2020-05-21T10:05:28.000Z</time>
      </trkpt>
      <trkpt lat="47.20262" lon="4.95176">
        <ele>402.79399936</ele>
        <time>2020-05-21T10:05:30.000Z</time>
      </trkpt>
      <trkpt lat="47.2026" lon="4.95175">
        <ele>402.59399936</ele>
        <time>2020-05-21T10:05:32.000Z</time>
      </trkpt>
      <trkpt lat="47.20258" lon="4.95174">
        <ele>402.39399936</ele>
        <time>2020-05-21T10:05:34.000Z</time>
      </trkpt>
      <trkpt lat="47.20256" lon="4.95173">
        <ele>402.19399936</ele>
        <time>2020-05-21T10:05:36.000Z</time>
      </trkpt>
      <trkpt lat="47.20254" lon="4.95173">
        <ele>401.99399936</ele>
        <time>2020-05-21T10:05:38.000Z</time>
      </trkpt>
      <trkpt lat="47.20252" lon="4.95173">
        <ele>401.79399936</ele>
        <time>2020-05-21T10:05:40.000Z</time>
      </trkpt>
      <trkpt lat="47.2025" lon="4.95173">
        <ele>401.59399936</ele>
        <time>2020-05-21T10:05:42.000Z</time>
      </trkpt>
      <trkpt lat="47.20248" lon="4.95174">
        <ele>401.39399936</ele>
        <time>2020-05-21T10:05:44.000Z</time>
      </trkpt>
      <trkpt lat="47.20246" lon="4.95175">
        <ele>401.19399936</ele>
        <time>2020-05-21T10:05:46.000Z</time>
      </trkpt>
      <trkpt lat="47.20244" lon="4.95176">
        <ele>401</ele>
        <time>2020-05-21T10:05:48.000Z</time>
      </trkpt>
      <trkpt lat="47.20241" lon="4.95176">
        <ele>401</ele>
        <time>2020-05-21T10:05:50.000Z</time>
      </trkpt>
      <trkpt lat="47.20239" lon="4.95174">
        <ele>401</ele>
        <time>2020-05-21T10:05:52.000Z</time>
      </trkpt>
      <trkpt lat="47.20237" lon="4.95173">
        <ele>401</ele>
        <time>2020-05-21T10:05:54.000Z</time>
      </trkpt>
      <trkpt lat="47.20235" lon="4.95172">
        <ele>401</ele>
        <time>2020-05-21T10:05:56.000Z</time>
      </trkpt>
      <trkpt lat="47.20232" lon="4.9517">
        <ele>401</ele>
        <time>2020-05-21T10:05:58.000Z</time>
      </trkpt>
      <trkpt lat="47.2023" lon="4.95168">
        <ele>400.81771384656</ele>
        <time>2020-05-21T10:06:00.000Z</time>
      </trkpt>
      <trkpt lat="47.20227" lon="4.95166">
        <ele>400.61174041943</ele>
        <time>2020-05-21T10:06:02.000Z</time>
      </trkpt>
      <trkpt lat="47.20225" lon="4.95165">
        <ele>400.40576699231</ele>
        <time>2020-05-21T10:06:04.000Z</time>
      </trkpt>
      <trkpt lat="47.20223" lon="4.95164">
        <ele>400.19979356519</ele>
        <time>2020-05-21T10:06:06.000Z</time>
      </trkpt>
      <trkpt lat="47.20221" lon="4.95162">
        <ele>400</ele>
        <time>2020-05-21T10:06:08.000Z</time>
      </trkpt>
      <trkpt lat="47.20218" lon="4.9516">
        <ele>400</ele>
        <time>2020-05-21T10:06:10.000Z</time>
      </trkpt>
      <trkpt lat="47.20216" lon="4.95159">
        <ele>400</ele>
        <time>2020-05-21T10:06:12.000Z</time>
      </trkpt>
      <trkpt lat="47.20214" lon="4.95158">
        <ele>400</ele>
        <time>2020-05-21T10:06:14.000Z</time>
      </trkpt>
      <trkpt lat="47.20211" lon="4.95157">
        <ele>400</ele>
        <time>2020-05-21T10:06:16.000Z</time>
      </trkpt>
      <trkpt lat="47.20208" lon="4.95157">
        <ele>400</ele>
        <time>2020-05-21T10:06:18.000Z</time>
      </trkpt>
      <trkpt lat="47.20206" lon="4.95156">
        <ele>400</ele>
        <time>2020-05-21T10:06:20.000Z</time>
      </trkpt>
      <trkpt lat="47.20204" lon="4.95157">
        <ele>400</ele>
        <time>2020-05-21T10:06:22.000Z</time>
      </trkpt>
      <trkpt lat="47.20202" lon="4.95158">
        <ele>400</ele>
        <time>2020-05-21T10:06:24.000Z</time>
      </trkpt>
      <trkpt lat="47.20199" lon="4.95158">
        <ele>400</ele>
        <time>2020-05-21T10:06:26.000Z</time>
      </trkpt>
      <trkpt lat="47.20197" lon="4.95157">
        <ele>400</ele>
        <time>2020-05-21T10:06:28.000Z</time>
      </trkpt>
      <trkpt lat="47.20195" lon="4.95155">
        <ele>399.79879262699</ele>
        <time>2020-05-21T10:06:30.000Z</time>
      </trkpt>
      <trkpt lat="47.20194" lon="4.95153">
        <ele>399.59758525398</ele>
        <time>2020-05-21T10:06:32.000Z</time>
      </trkpt>
      <trkpt lat="47.20192" lon="4.95151">
        <ele>399.39637788097</ele>
        <time>2020-05-21T10:06:34.000Z</time>
      </trkpt>
      <trkpt lat="47.2019" lon="4.95148">
        <ele>399.19517050796</ele>
        <time>2020-05-21T10:06:36.000Z</time>
      </trkpt>
      <trkpt lat="47.20189" lon="4.95145">
        <ele>399</ele>
        <time>2020-05-21T10:06:38.000Z</time>
      </trkpt>
      <trkpt lat="47.20188" lon="4.95142">
        <ele>399</ele>
        <time>2020-05-21T10:06:40.000Z</time>
      </trkpt>
      <trkpt lat="47.20187" lon="4.95139">
        <ele>399</ele>
        <time>2020-05-21T10:06:42.000Z</time>
      </trkpt>
      <trkpt lat="47.20186" lon="4.95136">
        <ele>399</ele>
        <time>2020-05-21T10:06:44.000Z</time>
      </trkpt>
      <trkpt lat="47.20185" lon="4.95133">
        <ele>399</ele>
        <time>2020-05-21T10:06:46.000Z</time>
      </trkpt>
      <trkpt lat="47.20183" lon="4.95131">
        <ele>399</ele>
        <time>2020-05-21T10:06:48.000Z</time>
      </trkpt>
      <trkpt lat="47.20182" lon="4.95129">
        <ele>399</ele>
        <time>2020-05-21T10:06:50.000Z</time>
      </trkpt>
      <trkpt lat="47.20181" lon="4.95127">
        <ele>399</ele>
        <time>2020-05-21T10:06:52.000Z</time>
      </trkpt>
      <trkpt lat="47.20179" lon="4.95124">
        <ele>399</ele>
        <time>2020-05-21T10:06:54.000Z</time>
      </trkpt>
      <trkpt lat="47.20177" lon="4.95122">
        <ele>399</ele>
        <time>2020-05-21T10:06:56.000Z</time>
      </trkpt>
      <trkpt lat="47.20175" lon="4.95122">
        <ele>398.99399936</ele>
        <time>2020-05-21T10:06:58.000Z</time>
      </trkpt>
      <trkpt lat="47.20172" lon="4.9512">
        <ele>398.59399936</ele>
        <time>2020-05-21T10:07:02.000Z</time>
      </trkpt>
      <trkpt lat="47.2017" lon="4.95119">
        <ele>398.39399936</ele>
        <time>2020-05-21T10:07:04.000Z</time>
      </trkpt>
      <trkpt lat="47.20169" lon="4.95117">
        <ele>398.19399936</ele>
        <time>2020-05-21T10:07:06.000Z</time>
      </trkpt>
      <trkpt lat="47.20167" lon="4.95115">
        <ele>398</ele>
        <time>2020-05-21T10:07:08.000Z</time>
      </trkpt>
      <trkpt lat="47.20164" lon="4.95113">
        <ele>398</ele>
        <time>2020-05-21T10:07:10.000Z</time>
      </trkpt>
      <trkpt lat="47.20161" lon="4.95113">
        <ele>398</ele>
        <time>2020-05-21T10:07:12.000Z</time>
      </trkpt>
      <trkpt lat="47.20159" lon="4.95112">
        <ele>398</ele>
        <time>2020-05-21T10:07:14.000Z</time>
      </trkpt>
      <trkpt lat="47.20157" lon="4.95109">
        <ele>398</ele>
        <time>2020-05-21T10:07:16.000Z</time>
      </trkpt>
      <trkpt lat="47.20156" lon="4.95106">
        <ele>397.99399936</ele>
        <time>2020-05-21T10:07:18.000Z</time>
      </trkpt>
      <trkpt lat="47.20155" lon="4.95103">
        <ele>397.79399936</ele>
        <time>2020-05-21T10:07:20.000Z</time>
      </trkpt>
      <trkpt lat="47.20154" lon="4.951">
        <ele>397.59399936</ele>
        <time>2020-05-21T10:07:22.000Z</time>
      </trkpt>
      <trkpt lat="47.20153" lon="4.95096">
        <ele>397.39399936</ele>
        <time>2020-05-21T10:07:24.000Z</time>
      </trkpt>
      <trkpt lat="47.20152" lon="4.95092">
        <ele>397.19399936</ele>
        <time>2020-05-21T10:07:26.000Z</time>
      </trkpt>
      <trkpt lat="47.20152" lon="4.95089">
        <ele>397.00600064</ele>
        <time>2020-05-21T10:07:28.000Z</time>
      </trkpt>
      <trkpt lat="47.20152" lon="4.95086">
        <ele>397.20600064</ele>
        <time>2020-05-21T10:07:30.000Z</time>
      </trkpt>
      <trkpt lat="47.20152" lon="4.95083">
        <ele>397.40600064</ele>
        <time>2020-05-21T10:07:32.000Z</time>
      </trkpt>
      <trkpt lat="47.20152" lon="4.95079">
        <ele>397.60600064</ele>
        <time>2020-05-21T10:07:34.000Z</time>
      </trkpt>
      <trkpt lat="47.20151" lon="4.95076">
        <ele>397.80600064</ele>
        <time>2020-05-21T10:07:36.000Z</time>
      </trkpt>
      <trkpt lat="47.20151" lon="4.95073">
        <ele>398.00600064</ele>
        <time>2020-05-21T10:07:38.000Z</time>
      </trkpt>
      <trkpt lat="47.2015" lon="4.9507">
        <ele>398.20600064</ele>
        <time>2020-05-21T10:07:40.000Z</time>
      </trkpt>
      <trkpt lat="47.20149" lon="4.95066">
        <ele>398.40600064</ele>
        <time>2020-05-21T10:07:42.000Z</time>
      </trkpt>
      <trkpt lat="47.20149" lon="4.95063">
        <ele>398.60600064</ele>
        <time>2020-05-21T10:07:44.000Z</time>
      </trkpt>
      <trkpt lat="47.20148" lon="4.9506">
        <ele>398.80600064</ele>
        <time>2020-05-21T10:07:46.000Z</time>
      </trkpt>
      <trkpt lat="47.20147" lon="4.95056">
        <ele>399.00600064</ele>
        <time>2020-05-21T10:07:48.000Z</time>
      </trkpt>
      <trkpt lat="47.20146" lon="4.95053">
        <ele>399.20600064</ele>
        <time>2020-05-21T10:07:50.000Z</time>
      </trkpt>
      <trkpt lat="47.20146" lon="4.95049">
        <ele>399.40600064</ele>
        <time>2020-05-21T10:07:52.000Z</time>
      </trkpt>
      <trkpt lat="47.20145" lon="4.95046">
        <ele>399.60600064</ele>
        <time>2020-05-21T10:07:54.000Z</time>
      </trkpt>
      <trkpt lat="47.20144" lon="4.95043">
        <ele>399.80600064</ele>
        <time>2020-05-21T10:07:56.000Z</time>
      </trkpt>
      <trkpt lat="47.20142" lon="4.95041">
        <ele>400</ele>
        <time>2020-05-21T10:07:58.000Z</time>
      </trkpt>
      <trkpt lat="47.2014" lon="4.9504">
        <ele>400</ele>
        <time>2020-05-21T10:08:01.000Z</time>
      </trkpt>
      <trkpt lat="47.20138" lon="4.9504">
        <ele>400</ele>
        <time>2020-05-21T10:08:04.000Z</time>
      </trkpt>
      <trkpt lat="47.20136" lon="4.95041">
        <ele>400</ele>
        <time>2020-05-21T10:08:06.000Z</time>
      </trkpt>
      <trkpt lat="47.20133" lon="4.95041">
        <ele>400</ele>
        <time>2020-05-21T10:08:08.000Z</time>
      </trkpt>
      <trkpt lat="47.20131" lon="4.95039">
        <ele>400</ele>
        <time>2020-05-21T10:08:11.000Z</time>
      </trkpt>
      <trkpt lat="47.20129" lon="4.95037">
        <ele>400</ele>
        <time>2020-05-21T10:08:13.000Z</time>
      </trkpt>
      <trkpt lat="47.20128" lon="4.95035">
        <ele>400</ele>
        <time>2020-05-21T10:08:15.000Z</time>
      </trkpt>
      <trkpt lat="47.20126" lon="4.95034">
        <ele>400</ele>
        <time>2020-05-21T10:08:17.000Z</time>
      </trkpt>
      <trkpt lat="47.20125" lon="4.95031">
        <ele>399.79399936</ele>
        <time>2020-05-21T10:08:20.000Z</time>
      </trkpt>
      <trkpt lat="47.20125" lon="4.95028">
        <ele>399.59399936</ele>
        <time>2020-05-21T10:08:22.000Z</time>
      </trkpt>
      <trkpt lat="47.20124" lon="4.95026">
        <ele>399.39399936</ele>
        <time>2020-05-21T10:08:24.000Z</time>
      </trkpt>
      <trkpt lat="47.20122" lon="4.95024">
        <ele>399.19399936</ele>
        <time>2020-05-21T10:08:26.000Z</time>
      </trkpt>
      <trkpt lat="47.20121" lon="4.95021">
        <ele>399</ele>
        <time>2020-05-21T10:08:28.000Z</time>
      </trkpt>
      <trkpt lat="47.20119" lon="4.95019">
        <ele>399</ele>
        <time>2020-05-21T10:08:30.000Z</time>
      </trkpt>
      <trkpt lat="47.20118" lon="4.95017">
        <ele>399</ele>
        <time>2020-05-21T10:08:32.000Z</time>
      </trkpt>
      <trkpt lat="47.20116" lon="4.95017">
        <ele>399</ele>
        <time>2020-05-21T10:08:34.000Z</time>
      </trkpt>
      <trkpt lat="47.20114" lon="4.95015">
        <ele>399</ele>
        <time>2020-05-21T10:08:36.000Z</time>
      </trkpt>
      <trkpt lat="47.20112" lon="4.95014">
        <ele>398.99399936</ele>
        <time>2020-05-21T10:08:38.000Z</time>
      </trkpt>
      <trkpt lat="47.2011" lon="4.95013">
        <ele>398.79399936</ele>
        <time>2020-05-21T10:08:40.000Z</time>
      </trkpt>
      <trkpt lat="47.20108" lon="4.95012">
        <ele>397.99401134115</ele>
        <time>2020-05-21T10:08:48.000Z</time>
      </trkpt>
      <trkpt lat="47.20106" lon="4.95012">
        <ele>397.69461033478</ele>
        <time>2020-05-21T10:08:51.000Z</time>
      </trkpt>
      <trkpt lat="47.20104" lon="4.95011">
        <ele>397.39520932841</ele>
        <time>2020-05-21T10:08:54.000Z</time>
      </trkpt>
      <trkpt lat="47.20102" lon="4.95011">
        <ele>397.09580832204</ele>
        <time>2020-05-21T10:08:57.000Z</time>
      </trkpt>
      <trkpt lat="47.20101" lon="4.95008">
        <ele>396.20390219049</ele>
        <time>2020-05-21T10:09:00.000Z</time>
      </trkpt>
      <trkpt lat="47.20099" lon="4.95006">
        <ele>395.03317011767</ele>
        <time>2020-05-21T10:09:03.000Z</time>
      </trkpt>
      <trkpt lat="47.20098" lon="4.95003">
        <ele>393</ele>
        <time>2020-05-21T10:09:13.000Z</time>
      </trkpt>
      <trkpt lat="47.20098" lon="4.95">
        <ele>393</ele>
        <time>2020-05-21T10:09:15.000Z</time>
      </trkpt>
      <trkpt lat="47.20097" lon="4.94997">
        <ele>393</ele>
        <time>2020-05-21T10:09:17.000Z</time>
      </trkpt>
      <trkpt lat="47.20095" lon="4.94994">
        <ele>393</ele>
        <time>2020-05-21T10:09:20.000Z</time>
      </trkpt>
      <trkpt lat="47.20094" lon="4.94991">
        <ele>393</ele>
        <time>2020-05-21T10:09:23.000Z</time>
      </trkpt>
      <trkpt lat="47.20094" lon="4.94989">
        <ele>393</ele>
        <time>2020-05-21T10:09:25.000Z</time>
      </trkpt>
      <trkpt lat="47.20094" lon="4.94986">
        <ele>393</ele>
        <time>2020-05-21T10:09:27.000Z</time>
      </trkpt>
      <trkpt lat="47.20095" lon="4.94983">
        <ele>393.20600064</ele>
        <time>2020-05-21T10:09:30.000Z</time>
      </trkpt>
      <trkpt lat="47.20095" lon="4.9498">
        <ele>393.50600064</ele>
        <time>2020-05-21T10:09:33.000Z</time>
      </trkpt>
      <trkpt lat="47.20097" lon="4.94977">
        <ele>393.80600064</ele>
        <time>2020-05-21T10:09:36.000Z</time>
      </trkpt>
      <trkpt lat="47.20096" lon="4.94974">
        <ele>394.10600064</ele>
        <time>2020-05-21T10:09:39.000Z</time>
      </trkpt>
      <trkpt lat="47.20095" lon="4.94971">
        <ele>394.40600064</ele>
        <time>2020-05-21T10:09:42.000Z</time>
      </trkpt>
      <trkpt lat="47.20094" lon="4.94969">
        <ele>394.60600064</ele>
        <time>2020-05-21T10:09:44.000Z</time>
      </trkpt>
      <trkpt lat="47.20092" lon="4.94967">
        <ele>394.80600064</ele>
        <time>2020-05-21T10:09:46.000Z</time>
      </trkpt>
      <trkpt lat="47.20091" lon="4.94965">
        <ele>395</ele>
        <time>2020-05-21T10:09:48.000Z</time>
      </trkpt>
      <trkpt lat="47.2009" lon="4.94962">
        <ele>395</ele>
        <time>2020-05-21T10:09:50.000Z</time>
      </trkpt>
      <trkpt lat="47.20088" lon="4.94961">
        <ele>395</ele>
        <time>2020-05-21T10:09:55.000Z</time>
      </trkpt>
      <trkpt lat="47.20086" lon="4.94958">
        <ele>395</ele>
        <time>2020-05-21T10:09:58.000Z</time>
      </trkpt>
      <trkpt lat="47.20085" lon="4.94956">
        <ele>394.70528390244</ele>
        <time>2020-05-21T10:10:01.000Z</time>
      </trkpt>
      <trkpt lat="47.20084" lon="4.94955">
        <ele>394.50203186992</ele>
        <time>2020-05-21T10:10:03.000Z</time>
      </trkpt>
      <trkpt lat="47.20084" lon="4.94952">
        <ele>394</ele>
        <time>2020-05-21T10:10:11.000Z</time>
      </trkpt>
      <trkpt lat="47.20083" lon="4.94948">
        <ele>394</ele>
        <time>2020-05-21T10:10:13.000Z</time>
      </trkpt>
      <trkpt lat="47.20082" lon="4.94946">
        <ele>394</ele>
        <time>2020-05-21T10:10:15.000Z</time>
      </trkpt>
      <trkpt lat="47.2008" lon="4.94943">
        <ele>393.99399936</ele>
        <time>2020-05-21T10:10:18.000Z</time>
      </trkpt>
      <trkpt lat="47.20078" lon="4.94942">
        <ele>393.79399936</ele>
        <time>2020-05-21T10:10:20.000Z</time>
      </trkpt>
      <trkpt lat="47.2008" lon="4.94943">
        <ele>393.09399936</ele>
        <time>2020-05-21T10:10:27.000Z</time>
      </trkpt>
      <trkpt lat="47.20082" lon="4.94942">
        <ele>393</ele>
        <time>2020-05-21T10:10:29.000Z</time>
      </trkpt>
      <trkpt lat="47.20083" lon="4.94939">
        <ele>393</ele>
        <time>2020-05-21T10:10:31.000Z</time>
      </trkpt>
      <trkpt lat="47.20082" lon="4.94935">
        <ele>393</ele>
        <time>2020-05-21T10:10:33.000Z</time>
      </trkpt>
      <trkpt lat="47.20082" lon="4.94932">
        <ele>393</ele>
        <time>2020-05-21T10:10:35.000Z</time>
      </trkpt>
      <trkpt lat="47.20082" lon="4.94928">
        <ele>393.00600064</ele>
        <time>2020-05-21T10:10:38.000Z</time>
      </trkpt>
      <trkpt lat="47.20082" lon="4.94925">
        <ele>393.20600064</ele>
        <time>2020-05-21T10:10:40.000Z</time>
      </trkpt>
      <trkpt lat="47.20083" lon="4.94923">
        <ele>393.40600064</ele>
        <time>2020-05-21T10:10:42.000Z</time>
      </trkpt>
      <trkpt lat="47.20083" lon="4.9492">
        <ele>393.60600064</ele>
        <time>2020-05-21T10:10:44.000Z</time>
      </trkpt>
      <trkpt lat="47.20083" lon="4.94917">
        <ele>393.90600064</ele>
        <time>2020-05-21T10:10:47.000Z</time>
      </trkpt>
      <trkpt lat="47.20083" lon="4.94914">
        <ele>394</ele>
        <time>2020-05-21T10:10:50.000Z</time>
      </trkpt>
      <trkpt lat="47.20083" lon="4.94911">
        <ele>394</ele>
        <time>2020-05-21T10:10:52.000Z</time>
      </trkpt>
      <trkpt lat="47.20082" lon="4.94908">
        <ele>394</ele>
        <time>2020-05-21T10:10:54.000Z</time>
      </trkpt>
      <trkpt lat="47.20082" lon="4.94905">
        <ele>394</ele>
        <time>2020-05-21T10:10:56.000Z</time>
      </trkpt>
      <trkpt lat="47.20083" lon="4.94902">
        <ele>393.89399936</ele>
        <time>2020-05-21T10:10:59.000Z</time>
      </trkpt>
      <trkpt lat="47.20084" lon="4.949">
        <ele>393.59399936</ele>
        <time>2020-05-21T10:11:02.000Z</time>
      </trkpt>
      <trkpt lat="47.20083" lon="4.94898">
        <ele>393.19399936</ele>
        <time>2020-05-21T10:11:06.000Z</time>
      </trkpt>
      <trkpt lat="47.20081" lon="4.94897">
        <ele>392.98799872</ele>
        <time>2020-05-21T10:11:08.000Z</time>
      </trkpt>
      <trkpt lat="47.2008" lon="4.94896">
        <ele>391.98799872</ele>
        <time>2020-05-21T10:11:13.000Z</time>
      </trkpt>
      <trkpt lat="47.2008" lon="4.94893">
        <ele>390.17599744</ele>
        <time>2020-05-21T10:11:20.000Z</time>
      </trkpt>
      <trkpt lat="47.20082" lon="4.9489">
        <ele>388.97599744</ele>
        <time>2020-05-21T10:11:23.000Z</time>
      </trkpt>
      <trkpt lat="47.20083" lon="4.94886">
        <ele>387.77599744</ele>
        <time>2020-05-21T10:11:26.000Z</time>
      </trkpt>
      <trkpt lat="47.20082" lon="4.94881">
        <ele>387</ele>
        <time>2020-05-21T10:11:35.000Z</time>
      </trkpt>
      <trkpt lat="47.20079" lon="4.9488">
        <ele>387</ele>
        <time>2020-05-21T10:11:37.000Z</time>
      </trkpt>
      <trkpt lat="47.20077" lon="4.9488">
        <ele>386.69399936</ele>
        <time>2020-05-21T10:11:41.000Z</time>
      </trkpt>
      <trkpt lat="47.20076" lon="4.94879">
        <ele>386.19399936</ele>
        <time>2020-05-21T10:11:46.000Z</time>
      </trkpt>
      <trkpt lat="47.20074" lon="4.9488">
        <ele>386</ele>
        <time>2020-05-21T10:11:56.000Z</time>
      </trkpt>
      <trkpt lat="47.20072" lon="4.94881">
        <ele>385.18799872</ele>
        <time>2020-05-21T10:12:02.000Z</time>
      </trkpt>
      <trkpt lat="47.20074" lon="4.94881">
        <ele>384.79399936</ele>
        <time>2020-05-21T10:13:20.000Z</time>
      </trkpt>
      <trkpt lat="47.20073" lon="4.94882">
        <ele>384</ele>
        <time>2020-05-21T10:14:27.000Z</time>
      </trkpt>
      <trkpt lat="47.20071" lon="4.94883">
        <ele>384</ele>
        <time>2020-05-21T10:14:49.000Z</time>
      </trkpt>
      <trkpt lat="47.20073" lon="4.94883">
        <ele>382</ele>
        <time>2020-05-21T10:16:19.000Z</time>
      </trkpt>
      <trkpt lat="47.20078" lon="4.94881">
        <ele>384</ele>
        <time>2020-05-21T10:17:25.000Z</time>
      </trkpt>
      <trkpt lat="47.20076" lon="4.94881">
        <ele>384</ele>
        <time>2020-05-21T10:17:31.000Z</time>
      </trkpt>
      <trkpt lat="47.20073" lon="4.9488">
        <ele>384</ele>
        <time>2020-05-21T10:17:57.000Z</time>
      </trkpt>
      <trkpt lat="47.20071" lon="4.94881">
        <ele>384</ele>
        <time>2020-05-21T10:18:27.000Z</time>
      </trkpt>
      <trkpt lat="47.20071" lon="4.94884">
        <ele>384.10600064</ele>
        <time>2020-05-21T10:21:09.000Z</time>
      </trkpt>
      <trkpt lat="47.20072" lon="4.94883">
        <ele>384.29399936</ele>
        <time>2020-05-21T10:22:35.000Z</time>
      </trkpt>
      <trkpt lat="47.20073" lon="4.9488">
        <ele>383</ele>
        <time>2020-05-21T10:22:54.000Z</time>
      </trkpt>
      <trkpt lat="47.20074" lon="4.94882">
        <ele>383.21042161791</ele>
        <time>2020-05-21T10:23:14.000Z</time>
      </trkpt>
      <trkpt lat="47.20079" lon="4.94883">
        <ele>384</ele>
        <time>2020-05-21T10:23:44.000Z</time>
      </trkpt>
      <trkpt lat="47.20081" lon="4.94882">
        <ele>384</ele>
        <time>2020-05-21T10:23:59.000Z</time>
      </trkpt>
      <trkpt lat="47.20079" lon="4.94883">
        <ele>383.49399936</ele>
        <time>2020-05-21T10:24:13.000Z</time>
      </trkpt>
      <trkpt lat="47.20078" lon="4.94885">
        <ele>383.79399936</ele>
        <time>2020-05-21T10:25:20.000Z</time>
      </trkpt>
      <trkpt lat="47.20077" lon="4.94887">
        <ele>382.49399936</ele>
        <time>2020-05-21T10:25:33.000Z</time>
      </trkpt>
      <trkpt lat="47.20075" lon="4.94887">
        <ele>382.09399936</ele>
        <time>2020-05-21T10:25:37.000Z</time>
      </trkpt>
      <trkpt lat="47.20067" lon="4.94894">
        <ele>379.98799872</ele>
        <time>2020-05-21T10:26:08.000Z</time>
      </trkpt>
      <trkpt lat="47.20058" lon="4.94899">
        <ele>378.78799872</ele>
        <time>2020-05-21T10:26:14.000Z</time>
      </trkpt>
      <trkpt lat="47.20052" lon="4.94909">
        <ele>377.38799872</ele>
        <time>2020-05-21T10:26:21.000Z</time>
      </trkpt>
      <trkpt lat="47.20054" lon="4.949">
        <ele>369.59399936</ele>
        <time>2020-05-21T10:26:42.000Z</time>
      </trkpt>
      <trkpt lat="47.20057" lon="4.94913">
        <ele>369</ele>
        <time>2020-05-21T10:26:52.000Z</time>
      </trkpt>
      <trkpt lat="47.20054" lon="4.94928">
        <ele>367.98799872</ele>
        <time>2020-05-21T10:27:03.000Z</time>
      </trkpt>
      <trkpt lat="47.20055" lon="4.94942">
        <ele>366.38799872</ele>
        <time>2020-05-21T10:27:11.000Z</time>
      </trkpt>
      <trkpt lat="47.20057" lon="4.94956">
        <ele>363.60878427496</ele>
        <time>2020-05-21T10:27:52.000Z</time>
      </trkpt>
      <trkpt lat="47.20052" lon="4.94967">
        <ele>362.40350914401</ele>
        <time>2020-05-21T10:28:00.000Z</time>
      </trkpt>
      <trkpt lat="47.2005" lon="4.94981">
        <ele>360</ele>
        <time>2020-05-21T10:28:11.000Z</time>
      </trkpt>
      <trkpt lat="47.20052" lon="4.94994">
        <ele>359.98799872</ele>
        <time>2020-05-21T10:28:18.000Z</time>
      </trkpt>
      <trkpt lat="47.20046" lon="4.94988">
        <ele>353.29399936</ele>
        <time>2020-05-21T10:28:45.000Z</time>
      </trkpt>
      <trkpt lat="47.2004" lon="4.94979">
        <ele>353.00600064</ele>
        <time>2020-05-21T10:28:58.000Z</time>
      </trkpt>
      <trkpt lat="47.20035" lon="4.94966">
        <ele>354.61200128</ele>
        <time>2020-05-21T10:29:11.000Z</time>
      </trkpt>
      <trkpt lat="47.20027" lon="4.94959">
        <ele>356.70600064</ele>
        <time>2020-05-21T10:29:25.000Z</time>
      </trkpt>
      <trkpt lat="47.20018" lon="4.94957">
        <ele>358.61200128</ele>
        <time>2020-05-21T10:29:36.000Z</time>
      </trkpt>
      <trkpt lat="47.20011" lon="4.94949">
        <ele>362.30600064</ele>
        <time>2020-05-21T10:29:51.000Z</time>
      </trkpt>
      <trkpt lat="47.20003" lon="4.94955">
        <ele>364.95910482287</ele>
        <time>2020-05-21T10:30:08.000Z</time>
      </trkpt>
      <trkpt lat="47.19994" lon="4.94953">
        <ele>368.01200128</ele>
        <time>2020-05-21T10:30:23.000Z</time>
      </trkpt>
      <trkpt lat="47.19984" lon="4.94954">
        <ele>369.30600064</ele>
        <time>2020-05-21T10:30:31.000Z</time>
      </trkpt>
      <trkpt lat="47.19987" lon="4.94946">
        <ele>372.41200128</ele>
        <time>2020-05-21T10:30:55.000Z</time>
      </trkpt>
      <trkpt lat="47.19988" lon="4.94944">
        <ele>373.91800192</ele>
        <time>2020-05-21T10:31:01.000Z</time>
      </trkpt>
      <trkpt lat="47.19987" lon="4.94942">
        <ele>375.41800192</ele>
        <time>2020-05-21T10:31:06.000Z</time>
      </trkpt>
      <trkpt lat="47.1998" lon="4.94933">
        <ele>378.30460941378</ele>
        <time>2020-05-21T10:31:31.000Z</time>
      </trkpt>
      <trkpt lat="47.19971" lon="4.94929">
        <ele>380.95719725174</ele>
        <time>2020-05-21T10:31:48.000Z</time>
      </trkpt>
      <trkpt lat="47.19967" lon="4.94921">
        <ele>387.50600064</ele>
        <time>2020-05-21T10:32:13.000Z</time>
      </trkpt>
      <trkpt lat="47.19964" lon="4.94908">
        <ele>389.01200128</ele>
        <time>2020-05-21T10:32:28.000Z</time>
      </trkpt>
      <trkpt lat="47.19964" lon="4.94905">
        <ele>391.01200128</ele>
        <time>2020-05-21T10:32:38.000Z</time>
      </trkpt>
      <trkpt lat="47.19962" lon="4.94907">
        <ele>392.01200128</ele>
        <time>2020-05-21T10:32:43.000Z</time>
      </trkpt>
      <trkpt lat="47.19961" lon="4.94909">
        <ele>393.00600064</ele>
        <time>2020-05-21T10:32:48.000Z</time>
      </trkpt>
      <trkpt lat="47.19961" lon="4.94912">
        <ele>393</ele>
        <time>2020-05-21T10:33:26.000Z</time>
      </trkpt>
      <trkpt lat="47.19962" lon="4.94913">
        <ele>393</ele>
        <time>2020-05-21T10:33:30.000Z</time>
      </trkpt>
      <trkpt lat="47.19961" lon="4.94915">
        <ele>393</ele>
        <time>2020-05-21T10:33:46.000Z</time>
      </trkpt>
      <trkpt lat="47.19958" lon="4.94914">
        <ele>393.30600064</ele>
        <time>2020-05-21T10:33:51.000Z</time>
      </trkpt>
      <trkpt lat="47.19957" lon="4.94915">
        <ele>393.50600064</ele>
        <time>2020-05-21T10:33:53.000Z</time>
      </trkpt>
      <trkpt lat="47.19948" lon="4.9492">
        <ele>398.0300032</ele>
        <time>2020-05-21T10:34:06.000Z</time>
      </trkpt>
      <trkpt lat="47.19947" lon="4.94918">
        <ele>399.41200128</ele>
        <time>2020-05-21T10:34:10.000Z</time>
      </trkpt>
      <trkpt lat="47.19948" lon="4.94915">
        <ele>400.21200128</ele>
        <time>2020-05-21T10:34:14.000Z</time>
      </trkpt>
      <trkpt lat="47.19946" lon="4.94915">
        <ele>400.81200128</ele>
        <time>2020-05-21T10:34:17.000Z</time>
      </trkpt>
      <trkpt lat="47.19946" lon="4.94914">
        <ele>401.41245333858</ele>
        <time>2020-05-21T10:34:19.000Z</time>
      </trkpt>
      <trkpt lat="47.19944" lon="4.94914">
        <ele>402.96887163409</ele>
        <time>2020-05-21T10:34:23.000Z</time>
      </trkpt>
      <trkpt lat="47.19941" lon="4.94914">
        <ele>404.5252899296</ele>
        <time>2020-05-21T10:34:27.000Z</time>
      </trkpt>
      <trkpt lat="47.19939" lon="4.94914">
        <ele>405</ele>
        <time>2020-05-21T10:34:29.000Z</time>
      </trkpt>
      <trkpt lat="47.19939" lon="4.94917">
        <ele>405</ele>
        <time>2020-05-21T10:34:33.000Z</time>
      </trkpt>
      <trkpt lat="47.19939" lon="4.9492">
        <ele>405</ele>
        <time>2020-05-21T10:34:37.000Z</time>
      </trkpt>
      <trkpt lat="47.1994" lon="4.94922">
        <ele>405</ele>
        <time>2020-05-21T10:34:49.000Z</time>
      </trkpt>
      <trkpt lat="47.1994" lon="4.94919">
        <ele>405</ele>
        <time>2020-05-21T10:34:53.000Z</time>
      </trkpt>
      <trkpt lat="47.19942" lon="4.94917">
        <ele>405</ele>
        <time>2020-05-21T10:34:56.000Z</time>
      </trkpt>
      <trkpt lat="47.19942" lon="4.94914">
        <ele>405</ele>
        <time>2020-05-21T10:35:00.000Z</time>
      </trkpt>
      <trkpt lat="47.19941" lon="4.94917">
        <ele>405</ele>
        <time>2020-05-21T10:35:17.000Z</time>
      </trkpt>
      <trkpt lat="47.19939" lon="4.94919">
        <ele>405</ele>
        <time>2020-05-21T10:35:19.000Z</time>
      </trkpt>
      <trkpt lat="47.19938" lon="4.94921">
        <ele>405</ele>
        <time>2020-05-21T10:35:21.000Z</time>
      </trkpt>
      <trkpt lat="47.19937" lon="4.94923">
        <ele>405</ele>
        <time>2020-05-21T10:35:23.000Z</time>
      </trkpt>
      <trkpt lat="47.19936" lon="4.94926">
        <ele>405</ele>
        <time>2020-05-21T10:35:25.000Z</time>
      </trkpt>
      <trkpt lat="47.19935" lon="4.9493">
        <ele>404.99399936</ele>
        <time>2020-05-21T10:35:28.000Z</time>
      </trkpt>
      <trkpt lat="47.19934" lon="4.94933">
        <ele>404.79399936</ele>
        <time>2020-05-21T10:35:30.000Z</time>
      </trkpt>
      <trkpt lat="47.19933" lon="4.94935">
        <ele>404.59399936</ele>
        <time>2020-05-21T10:35:32.000Z</time>
      </trkpt>
      <trkpt lat="47.19934" lon="4.94933">
        <ele>404.19399936</ele>
        <time>2020-05-21T10:35:36.000Z</time>
      </trkpt>
      <trkpt lat="47.19935" lon="4.94935">
        <ele>404.50600064</ele>
        <time>2020-05-21T10:35:43.000Z</time>
      </trkpt>
      <trkpt lat="47.19933" lon="4.94938">
        <ele>404.70600064</ele>
        <time>2020-05-21T10:35:45.000Z</time>
      </trkpt>
      <trkpt lat="47.19931" lon="4.94942">
        <ele>404.90600064</ele>
        <time>2020-05-21T10:35:47.000Z</time>
      </trkpt>
      <trkpt lat="47.1993" lon="4.94944">
        <ele>405</ele>
        <time>2020-05-21T10:35:49.000Z</time>
      </trkpt>
      <trkpt lat="47.1993" lon="4.94947">
        <ele>405</ele>
        <time>2020-05-21T10:35:51.000Z</time>
      </trkpt>
      <trkpt lat="47.19929" lon="4.94951">
        <ele>405</ele>
        <time>2020-05-21T10:35:53.000Z</time>
      </trkpt>
      <trkpt lat="47.19927" lon="4.94955">
        <ele>405</ele>
        <time>2020-05-21T10:35:55.000Z</time>
      </trkpt>
      <trkpt lat="47.19925" lon="4.94957">
        <ele>405</ele>
        <time>2020-05-21T10:35:57.000Z</time>
      </trkpt>
      <trkpt lat="47.19924" lon="4.9496">
        <ele>405</ele>
        <time>2020-05-21T10:35:59.000Z</time>
      </trkpt>
      <trkpt lat="47.19922" lon="4.94962">
        <ele>405</ele>
        <time>2020-05-21T10:36:01.000Z</time>
      </trkpt>
      <trkpt lat="47.19921" lon="4.94963">
        <ele>405</ele>
        <time>2020-05-21T10:36:03.000Z</time>
      </trkpt>
      <trkpt lat="47.1992" lon="4.94966">
        <ele>405</ele>
        <time>2020-05-21T10:36:05.000Z</time>
      </trkpt>
      <trkpt lat="47.19918" lon="4.94969">
        <ele>405</ele>
        <time>2020-05-21T10:36:07.000Z</time>
      </trkpt>
      <trkpt lat="47.19916" lon="4.94971">
        <ele>405</ele>
        <time>2020-05-21T10:36:09.000Z</time>
      </trkpt>
      <trkpt lat="47.19913" lon="4.94973">
        <ele>405</ele>
        <time>2020-05-21T10:36:11.000Z</time>
      </trkpt>
      <trkpt lat="47.19911" lon="4.94975">
        <ele>405</ele>
        <time>2020-05-21T10:36:13.000Z</time>
      </trkpt>
      <trkpt lat="47.19909" lon="4.94978">
        <ele>405</ele>
        <time>2020-05-21T10:36:15.000Z</time>
      </trkpt>
      <trkpt lat="47.19908" lon="4.94981">
        <ele>405</ele>
        <time>2020-05-21T10:36:17.000Z</time>
      </trkpt>
      <trkpt lat="47.19906" lon="4.94984">
        <ele>405</ele>
        <time>2020-05-21T10:36:19.000Z</time>
      </trkpt>
      <trkpt lat="47.19905" lon="4.94987">
        <ele>405</ele>
        <time>2020-05-21T10:36:21.000Z</time>
      </trkpt>
      <trkpt lat="47.19904" lon="4.9499">
        <ele>405</ele>
        <time>2020-05-21T10:36:23.000Z</time>
      </trkpt>
      <trkpt lat="47.19902" lon="4.94992">
        <ele>405</ele>
        <time>2020-05-21T10:36:25.000Z</time>
      </trkpt>
      <trkpt lat="47.19901" lon="4.94995">
        <ele>405</ele>
        <time>2020-05-21T10:36:28.000Z</time>
      </trkpt>
      <trkpt lat="47.19899" lon="4.94998">
        <ele>405</ele>
        <time>2020-05-21T10:36:30.000Z</time>
      </trkpt>
      <trkpt lat="47.19898" lon="4.95">
        <ele>405</ele>
        <time>2020-05-21T10:36:32.000Z</time>
      </trkpt>
      <trkpt lat="47.19896" lon="4.95001">
        <ele>405</ele>
        <time>2020-05-21T10:36:34.000Z</time>
      </trkpt>
      <trkpt lat="47.19893" lon="4.95002">
        <ele>405</ele>
        <time>2020-05-21T10:36:36.000Z</time>
      </trkpt>
      <trkpt lat="47.19892" lon="4.95002">
        <ele>405.00600064</ele>
        <time>2020-05-21T10:36:38.000Z</time>
      </trkpt>
      <trkpt lat="47.19889" lon="4.95004">
        <ele>405.20600064</ele>
        <time>2020-05-21T10:36:40.000Z</time>
      </trkpt>
      <trkpt lat="47.19887" lon="4.95007">
        <ele>405.40600064</ele>
        <time>2020-05-21T10:36:42.000Z</time>
      </trkpt>
      <trkpt lat="47.19885" lon="4.95008">
        <ele>405.50600064</ele>
        <time>2020-05-21T10:36:43.000Z</time>
      </trkpt>
      <trkpt lat="47.19884" lon="4.9501">
        <ele>405.70600064</ele>
        <time>2020-05-21T10:36:45.000Z</time>
      </trkpt>
      <trkpt lat="47.19882" lon="4.95012">
        <ele>405.90600064</ele>
        <time>2020-05-21T10:36:47.000Z</time>
      </trkpt>
      <trkpt lat="47.1988" lon="4.95014">
        <ele>406</ele>
        <time>2020-05-21T10:36:49.000Z</time>
      </trkpt>
      <trkpt lat="47.19878" lon="4.95017">
        <ele>406</ele>
        <time>2020-05-21T10:36:51.000Z</time>
      </trkpt>
      <trkpt lat="47.19876" lon="4.95019">
        <ele>406</ele>
        <time>2020-05-21T10:36:53.000Z</time>
      </trkpt>
      <trkpt lat="47.19874" lon="4.95021">
        <ele>406</ele>
        <time>2020-05-21T10:36:55.000Z</time>
      </trkpt>
      <trkpt lat="47.19872" lon="4.95022">
        <ele>406</ele>
        <time>2020-05-21T10:36:57.000Z</time>
      </trkpt>
      <trkpt lat="47.19869" lon="4.95024">
        <ele>405.89399936</ele>
        <time>2020-05-21T10:36:59.000Z</time>
      </trkpt>
      <trkpt lat="47.19867" lon="4.95024">
        <ele>405.69399936</ele>
        <time>2020-05-21T10:37:01.000Z</time>
      </trkpt>
      <trkpt lat="47.19864" lon="4.95025">
        <ele>405.49399936</ele>
        <time>2020-05-21T10:37:03.000Z</time>
      </trkpt>
      <trkpt lat="47.19862" lon="4.95026">
        <ele>405.29399936</ele>
        <time>2020-05-21T10:37:05.000Z</time>
      </trkpt>
      <trkpt lat="47.1986" lon="4.95027">
        <ele>405.09399936</ele>
        <time>2020-05-21T10:37:07.000Z</time>
      </trkpt>
      <trkpt lat="47.19858" lon="4.9503">
        <ele>405</ele>
        <time>2020-05-21T10:37:09.000Z</time>
      </trkpt>
      <trkpt lat="47.19856" lon="4.95032">
        <ele>405</ele>
        <time>2020-05-21T10:37:11.000Z</time>
      </trkpt>
      <trkpt lat="47.19853" lon="4.95034">
        <ele>405</ele>
        <time>2020-05-21T10:37:14.000Z</time>
      </trkpt>
      <trkpt lat="47.19852" lon="4.95035">
        <ele>405</ele>
        <time>2020-05-21T10:37:16.000Z</time>
      </trkpt>
      <trkpt lat="47.1985" lon="4.95038">
        <ele>405</ele>
        <time>2020-05-21T10:37:18.000Z</time>
      </trkpt>
      <trkpt lat="47.19848" lon="4.9504">
        <ele>405</ele>
        <time>2020-05-21T10:37:20.000Z</time>
      </trkpt>
      <trkpt lat="47.19846" lon="4.95042">
        <ele>405</ele>
        <time>2020-05-21T10:37:22.000Z</time>
      </trkpt>
      <trkpt lat="47.19845" lon="4.95045">
        <ele>405</ele>
        <time>2020-05-21T10:37:25.000Z</time>
      </trkpt>
      <trkpt lat="47.19843" lon="4.95047">
        <ele>405</ele>
        <time>2020-05-21T10:37:27.000Z</time>
      </trkpt>
      <trkpt lat="47.19841" lon="4.95048">
        <ele>405.10321383347</ele>
        <time>2020-05-21T10:37:29.000Z</time>
      </trkpt>
      <trkpt lat="47.19839" lon="4.9505">
        <ele>405.29795573968</ele>
        <time>2020-05-21T10:37:31.000Z</time>
      </trkpt>
      <trkpt lat="47.19837" lon="4.95052">
        <ele>405.4926976459</ele>
        <time>2020-05-21T10:37:33.000Z</time>
      </trkpt>
      <trkpt lat="47.19835" lon="4.95054">
        <ele>405.68743955211</ele>
        <time>2020-05-21T10:37:35.000Z</time>
      </trkpt>
      <trkpt lat="47.19833" lon="4.95055">
        <ele>405.88218145833</ele>
        <time>2020-05-21T10:37:37.000Z</time>
      </trkpt>
      <trkpt lat="47.1983" lon="4.95055">
        <ele>406</ele>
        <time>2020-05-21T10:37:39.000Z</time>
      </trkpt>
      <trkpt lat="47.19828" lon="4.95056">
        <ele>406</ele>
        <time>2020-05-21T10:37:41.000Z</time>
      </trkpt>
      <trkpt lat="47.19825" lon="4.95057">
        <ele>406</ele>
        <time>2020-05-21T10:37:43.000Z</time>
      </trkpt>
      <trkpt lat="47.19822" lon="4.95057">
        <ele>406</ele>
        <time>2020-05-21T10:37:45.000Z</time>
      </trkpt>
      <trkpt lat="47.19819" lon="4.95057">
        <ele>406</ele>
        <time>2020-05-21T10:37:47.000Z</time>
      </trkpt>
      <trkpt lat="47.19817" lon="4.95057">
        <ele>406</ele>
        <time>2020-05-21T10:37:49.000Z</time>
      </trkpt>
      <trkpt lat="47.19815" lon="4.95058">
        <ele>406</ele>
        <time>2020-05-21T10:37:51.000Z</time>
      </trkpt>
      <trkpt lat="47.19812" lon="4.95059">
        <ele>406</ele>
        <time>2020-05-21T10:37:53.000Z</time>
      </trkpt>
      <trkpt lat="47.1981" lon="4.95059">
        <ele>406</ele>
        <time>2020-05-21T10:37:55.000Z</time>
      </trkpt>
      <trkpt lat="47.19808" lon="4.9506">
        <ele>406</ele>
        <time>2020-05-21T10:37:57.000Z</time>
      </trkpt>
      <trkpt lat="47.19805" lon="4.9506">
        <ele>405.79399936</ele>
        <time>2020-05-21T10:38:00.000Z</time>
      </trkpt>
      <trkpt lat="47.19803" lon="4.9506">
        <ele>405.59399936</ele>
        <time>2020-05-21T10:38:02.000Z</time>
      </trkpt>
      <trkpt lat="47.198" lon="4.95061">
        <ele>405.39399936</ele>
        <time>2020-05-21T10:38:04.000Z</time>
      </trkpt>
      <trkpt lat="47.19798" lon="4.95062">
        <ele>405.19399936</ele>
        <time>2020-05-21T10:38:06.000Z</time>
      </trkpt>
      <trkpt lat="47.19795" lon="4.95063">
        <ele>405.00600064</ele>
        <time>2020-05-21T10:38:08.000Z</time>
      </trkpt>
      <trkpt lat="47.19794" lon="4.95064">
        <ele>405.20600064</ele>
        <time>2020-05-21T10:38:10.000Z</time>
      </trkpt>
      <trkpt lat="47.19791" lon="4.95064">
        <ele>405.40600064</ele>
        <time>2020-05-21T10:38:12.000Z</time>
      </trkpt>
      <trkpt lat="47.19789" lon="4.95064">
        <ele>405.60600064</ele>
        <time>2020-05-21T10:38:14.000Z</time>
      </trkpt>
      <trkpt lat="47.19787" lon="4.95064">
        <ele>405.80600064</ele>
        <time>2020-05-21T10:38:16.000Z</time>
      </trkpt>
      <trkpt lat="47.19784" lon="4.95063">
        <ele>406</ele>
        <time>2020-05-21T10:38:18.000Z</time>
      </trkpt>
      <trkpt lat="47.19781" lon="4.95061">
        <ele>406</ele>
        <time>2020-05-21T10:38:20.000Z</time>
      </trkpt>
      <trkpt lat="47.19779" lon="4.95061">
        <ele>406</ele>
        <time>2020-05-21T10:38:22.000Z</time>
      </trkpt>
      <trkpt lat="47.19777" lon="4.95062">
        <ele>406</ele>
        <time>2020-05-21T10:38:24.000Z</time>
      </trkpt>
      <trkpt lat="47.19774" lon="4.95063">
        <ele>406</ele>
        <time>2020-05-21T10:38:27.000Z</time>
      </trkpt>
      <trkpt lat="47.19773" lon="4.95062">
        <ele>406.10600064</ele>
        <time>2020-05-21T10:38:29.000Z</time>
      </trkpt>
      <trkpt lat="47.1977" lon="4.95061">
        <ele>406.40600064</ele>
        <time>2020-05-21T10:38:32.000Z</time>
      </trkpt>
      <trkpt lat="47.19767" lon="4.9506">
        <ele>406.60600064</ele>
        <time>2020-05-21T10:38:34.000Z</time>
      </trkpt>
      <trkpt lat="47.19765" lon="4.95061">
        <ele>406.80600064</ele>
        <time>2020-05-21T10:38:36.000Z</time>
      </trkpt>
      <trkpt lat="47.19763" lon="4.95061">
        <ele>407</ele>
        <time>2020-05-21T10:38:38.000Z</time>
      </trkpt>
      <trkpt lat="47.1976" lon="4.95062">
        <ele>407</ele>
        <time>2020-05-21T10:38:40.000Z</time>
      </trkpt>
      <trkpt lat="47.19758" lon="4.95063">
        <ele>407</ele>
        <time>2020-05-21T10:38:42.000Z</time>
      </trkpt>
      <trkpt lat="47.19755" lon="4.95064">
        <ele>407</ele>
        <time>2020-05-21T10:38:44.000Z</time>
      </trkpt>
      <trkpt lat="47.19753" lon="4.95064">
        <ele>407</ele>
        <time>2020-05-21T10:38:46.000Z</time>
      </trkpt>
      <trkpt lat="47.1975" lon="4.95065">
        <ele>407</ele>
        <time>2020-05-21T10:38:48.000Z</time>
      </trkpt>
      <trkpt lat="47.19747" lon="4.95064">
        <ele>407</ele>
        <time>2020-05-21T10:38:50.000Z</time>
      </trkpt>
      <trkpt lat="47.19745" lon="4.95062">
        <ele>407</ele>
        <time>2020-05-21T10:38:52.000Z</time>
      </trkpt>
      <trkpt lat="47.19743" lon="4.95061">
        <ele>407</ele>
        <time>2020-05-21T10:38:54.000Z</time>
      </trkpt>
      <trkpt lat="47.19741" lon="4.95059">
        <ele>407</ele>
        <time>2020-05-21T10:38:56.000Z</time>
      </trkpt>
      <trkpt lat="47.19739" lon="4.95058">
        <ele>407</ele>
        <time>2020-05-21T10:38:58.000Z</time>
      </trkpt>
      <trkpt lat="47.19736" lon="4.95059">
        <ele>407</ele>
        <time>2020-05-21T10:39:00.000Z</time>
      </trkpt>
      <trkpt lat="47.19734" lon="4.95059">
        <ele>407</ele>
        <time>2020-05-21T10:39:02.000Z</time>
      </trkpt>
      <trkpt lat="47.19732" lon="4.95058">
        <ele>407</ele>
        <time>2020-05-21T10:39:04.000Z</time>
      </trkpt>
      <trkpt lat="47.1973" lon="4.95056">
        <ele>407</ele>
        <time>2020-05-21T10:39:06.000Z</time>
      </trkpt>
      <trkpt lat="47.19727" lon="4.95054">
        <ele>407.20600064</ele>
        <time>2020-05-21T10:39:10.000Z</time>
      </trkpt>
      <trkpt lat="47.19724" lon="4.95053">
        <ele>407.40600064</ele>
        <time>2020-05-21T10:39:12.000Z</time>
      </trkpt>
      <trkpt lat="47.19721" lon="4.95052">
        <ele>407.60600064</ele>
        <time>2020-05-21T10:39:14.000Z</time>
      </trkpt>
      <trkpt lat="47.19719" lon="4.95051">
        <ele>407.80600064</ele>
        <time>2020-05-21T10:39:16.000Z</time>
      </trkpt>
      <trkpt lat="47.19716" lon="4.9505">
        <ele>408</ele>
        <time>2020-05-21T10:39:18.000Z</time>
      </trkpt>
      <trkpt lat="47.19714" lon="4.95048">
        <ele>408</ele>
        <time>2020-05-21T10:39:20.000Z</time>
      </trkpt>
      <trkpt lat="47.19712" lon="4.95047">
        <ele>408</ele>
        <time>2020-05-21T10:39:22.000Z</time>
      </trkpt>
      <trkpt lat="47.19711" lon="4.95043">
        <ele>408</ele>
        <time>2020-05-21T10:39:25.000Z</time>
      </trkpt>
      <trkpt lat="47.1971" lon="4.9504">
        <ele>408</ele>
        <time>2020-05-21T10:39:27.000Z</time>
      </trkpt>
      <trkpt lat="47.19709" lon="4.95037">
        <ele>408.10600064</ele>
        <time>2020-05-21T10:39:29.000Z</time>
      </trkpt>
      <trkpt lat="47.19708" lon="4.95035">
        <ele>408.30600064</ele>
        <time>2020-05-21T10:39:31.000Z</time>
      </trkpt>
      <trkpt lat="47.19707" lon="4.95033">
        <ele>408.50600064</ele>
        <time>2020-05-21T10:39:33.000Z</time>
      </trkpt>
      <trkpt lat="47.19706" lon="4.95031">
        <ele>408.70600064</ele>
        <time>2020-05-21T10:39:35.000Z</time>
      </trkpt>
      <trkpt lat="47.19704" lon="4.95028">
        <ele>408.90600064</ele>
        <time>2020-05-21T10:39:37.000Z</time>
      </trkpt>
      <trkpt lat="47.19702" lon="4.95026">
        <ele>409</ele>
        <time>2020-05-21T10:39:39.000Z</time>
      </trkpt>
      <trkpt lat="47.197" lon="4.95024">
        <ele>409</ele>
        <time>2020-05-21T10:39:41.000Z</time>
      </trkpt>
      <trkpt lat="47.19698" lon="4.95021">
        <ele>409</ele>
        <time>2020-05-21T10:39:43.000Z</time>
      </trkpt>
      <trkpt lat="47.19696" lon="4.95018">
        <ele>409</ele>
        <time>2020-05-21T10:39:45.000Z</time>
      </trkpt>
      <trkpt lat="47.19695" lon="4.95015">
        <ele>409</ele>
        <time>2020-05-21T10:39:47.000Z</time>
      </trkpt>
      <trkpt lat="47.19695" lon="4.95011">
        <ele>409.20600064</ele>
        <time>2020-05-21T10:39:50.000Z</time>
      </trkpt>
      <trkpt lat="47.19696" lon="4.95008">
        <ele>409.40600064</ele>
        <time>2020-05-21T10:39:52.000Z</time>
      </trkpt>
      <trkpt lat="47.19696" lon="4.95006">
        <ele>409.60600064</ele>
        <time>2020-05-21T10:39:54.000Z</time>
      </trkpt>
      <trkpt lat="47.19697" lon="4.95003">
        <ele>409.80600064</ele>
        <time>2020-05-21T10:39:56.000Z</time>
      </trkpt>
      <trkpt lat="47.19698" lon="4.94999">
        <ele>410.00600064</ele>
        <time>2020-05-21T10:39:58.000Z</time>
      </trkpt>
      <trkpt lat="47.19699" lon="4.94997">
        <ele>410.20600064</ele>
        <time>2020-05-21T10:40:00.000Z</time>
      </trkpt>
      <trkpt lat="47.197" lon="4.94994">
        <ele>410.40600064</ele>
        <time>2020-05-21T10:40:02.000Z</time>
      </trkpt>
      <trkpt lat="47.197" lon="4.94991">
        <ele>410.60600064</ele>
        <time>2020-05-21T10:40:04.000Z</time>
      </trkpt>
      <trkpt lat="47.19701" lon="4.94988">
        <ele>410.80600064</ele>
        <time>2020-05-21T10:40:06.000Z</time>
      </trkpt>
      <trkpt lat="47.19702" lon="4.94985">
        <ele>411.00600064</ele>
        <time>2020-05-21T10:40:08.000Z</time>
      </trkpt>
      <trkpt lat="47.19703" lon="4.94982">
        <ele>411.20600064</ele>
        <time>2020-05-21T10:40:10.000Z</time>
      </trkpt>
      <trkpt lat="47.19705" lon="4.94978">
        <ele>411.40600064</ele>
        <time>2020-05-21T10:40:12.000Z</time>
      </trkpt>
      <trkpt lat="47.19706" lon="4.94975">
        <ele>411.60600064</ele>
        <time>2020-05-21T10:40:14.000Z</time>
      </trkpt>
      <trkpt lat="47.19707" lon="4.94972">
        <ele>411.80600064</ele>
        <time>2020-05-21T10:40:16.000Z</time>
      </trkpt>
      <trkpt lat="47.19708" lon="4.94969">
        <ele>412.00585427744</ele>
        <time>2020-05-21T10:40:18.000Z</time>
      </trkpt>
      <trkpt lat="47.1971" lon="4.94966">
        <ele>412.20097604592</ele>
        <time>2020-05-21T10:40:20.000Z</time>
      </trkpt>
      <trkpt lat="47.19711" lon="4.94963">
        <ele>412.39609781439</ele>
        <time>2020-05-21T10:40:22.000Z</time>
      </trkpt>
      <trkpt lat="47.19711" lon="4.9496">
        <ele>412.59121958286</ele>
        <time>2020-05-21T10:40:24.000Z</time>
      </trkpt>
      <trkpt lat="47.19711" lon="4.94956">
        <ele>412.78634135133</ele>
        <time>2020-05-21T10:40:26.000Z</time>
      </trkpt>
      <trkpt lat="47.19711" lon="4.94952">
        <ele>412.9814631198</ele>
        <time>2020-05-21T10:40:28.000Z</time>
      </trkpt>
      <trkpt lat="47.19712" lon="4.94949">
        <ele>413</ele>
        <time>2020-05-21T10:40:30.000Z</time>
      </trkpt>
      <trkpt lat="47.19713" lon="4.94946">
        <ele>413</ele>
        <time>2020-05-21T10:40:32.000Z</time>
      </trkpt>
      <trkpt lat="47.19713" lon="4.94943">
        <ele>413</ele>
        <time>2020-05-21T10:40:34.000Z</time>
      </trkpt>
      <trkpt lat="47.19714" lon="4.9494">
        <ele>413</ele>
        <time>2020-05-21T10:40:36.000Z</time>
      </trkpt>
      <trkpt lat="47.19715" lon="4.94937">
        <ele>413.00780488049</ele>
        <time>2020-05-21T10:40:38.000Z</time>
      </trkpt>
      <trkpt lat="47.19717" lon="4.94934">
        <ele>413.39804890476</ele>
        <time>2020-05-21T10:40:40.000Z</time>
      </trkpt>
      <trkpt lat="47.19718" lon="4.9493">
        <ele>413.78829292903</ele>
        <time>2020-05-21T10:40:42.000Z</time>
      </trkpt>
      <trkpt lat="47.19718" lon="4.94929">
        <ele>413.98341494116</ele>
        <time>2020-05-21T10:40:43.000Z</time>
      </trkpt>
      <trkpt lat="47.19718" lon="4.94925">
        <ele>414.37365896544</ele>
        <time>2020-05-21T10:40:45.000Z</time>
      </trkpt>
      <trkpt lat="47.19718" lon="4.94922">
        <ele>414.76390298971</ele>
        <time>2020-05-21T10:40:47.000Z</time>
      </trkpt>
      <trkpt lat="47.19717" lon="4.94918">
        <ele>415</ele>
        <time>2020-05-21T10:40:49.000Z</time>
      </trkpt>
      <trkpt lat="47.19717" lon="4.94915">
        <ele>415</ele>
        <time>2020-05-21T10:40:51.000Z</time>
      </trkpt>
      <trkpt lat="47.19717" lon="4.94912">
        <ele>415</ele>
        <time>2020-05-21T10:40:53.000Z</time>
      </trkpt>
      <trkpt lat="47.19718" lon="4.94909">
        <ele>415</ele>
        <time>2020-05-21T10:40:56.000Z</time>
      </trkpt>
      <trkpt lat="47.19717" lon="4.94905">
        <ele>415</ele>
        <time>2020-05-21T10:40:59.000Z</time>
      </trkpt>
      <trkpt lat="47.19717" lon="4.94901">
        <ele>415</ele>
        <time>2020-05-21T10:41:01.000Z</time>
      </trkpt>
      <trkpt lat="47.19716" lon="4.94899">
        <ele>415</ele>
        <time>2020-05-21T10:41:03.000Z</time>
      </trkpt>
      <trkpt lat="47.19718" lon="4.94897">
        <ele>415</ele>
        <time>2020-05-21T10:41:07.000Z</time>
      </trkpt>
      <trkpt lat="47.1972" lon="4.94895">
        <ele>415</ele>
        <time>2020-05-21T10:41:09.000Z</time>
      </trkpt>
      <trkpt lat="47.19721" lon="4.94891">
        <ele>415</ele>
        <time>2020-05-21T10:41:11.000Z</time>
      </trkpt>
      <trkpt lat="47.19722" lon="4.94888">
        <ele>415</ele>
        <time>2020-05-21T10:41:13.000Z</time>
      </trkpt>
      <trkpt lat="47.19723" lon="4.94886">
        <ele>415</ele>
        <time>2020-05-21T10:41:15.000Z</time>
      </trkpt>
      <trkpt lat="47.19723" lon="4.94881">
        <ele>415.00600064</ele>
        <time>2020-05-21T10:41:18.000Z</time>
      </trkpt>
      <trkpt lat="47.19724" lon="4.94879">
        <ele>415.20600064</ele>
        <time>2020-05-21T10:41:20.000Z</time>
      </trkpt>
      <trkpt lat="47.19724" lon="4.94875">
        <ele>415.40600064</ele>
        <time>2020-05-21T10:41:22.000Z</time>
      </trkpt>
      <trkpt lat="47.19724" lon="4.94872">
        <ele>415.60600064</ele>
        <time>2020-05-21T10:41:24.000Z</time>
      </trkpt>
      <trkpt lat="47.19724" lon="4.94869">
        <ele>415.80600064</ele>
        <time>2020-05-21T10:41:26.000Z</time>
      </trkpt>
      <trkpt lat="47.19724" lon="4.94865">
        <ele>416.00600064</ele>
        <time>2020-05-21T10:41:28.000Z</time>
      </trkpt>
      <trkpt lat="47.19725" lon="4.94861">
        <ele>416.20600064</ele>
        <time>2020-05-21T10:41:30.000Z</time>
      </trkpt>
      <trkpt lat="47.19725" lon="4.94858">
        <ele>416.40600064</ele>
        <time>2020-05-21T10:41:32.000Z</time>
      </trkpt>
      <trkpt lat="47.19726" lon="4.94855">
        <ele>416.60600064</ele>
        <time>2020-05-21T10:41:34.000Z</time>
      </trkpt>
      <trkpt lat="47.19727" lon="4.94852">
        <ele>416.80600064</ele>
        <time>2020-05-21T10:41:36.000Z</time>
      </trkpt>
      <trkpt lat="47.19727" lon="4.94848">
        <ele>417.10600064</ele>
        <time>2020-05-21T10:41:39.000Z</time>
      </trkpt>
      <trkpt lat="47.19727" lon="4.94845">
        <ele>417.30600064</ele>
        <time>2020-05-21T10:41:41.000Z</time>
      </trkpt>
      <trkpt lat="47.19727" lon="4.94841">
        <ele>417.50600064</ele>
        <time>2020-05-21T10:41:43.000Z</time>
      </trkpt>
      <trkpt lat="47.19728" lon="4.94838">
        <ele>417.70600064</ele>
        <time>2020-05-21T10:41:45.000Z</time>
      </trkpt>
      <trkpt lat="47.19729" lon="4.94835">
        <ele>417.90600064</ele>
        <time>2020-05-21T10:41:47.000Z</time>
      </trkpt>
      <trkpt lat="47.19729" lon="4.94831">
        <ele>418.10600064</ele>
        <time>2020-05-21T10:41:49.000Z</time>
      </trkpt>
      <trkpt lat="47.19729" lon="4.94828">
        <ele>418.30600064</ele>
        <time>2020-05-21T10:41:51.000Z</time>
      </trkpt>
      <trkpt lat="47.19729" lon="4.94825">
        <ele>418.50600064</ele>
        <time>2020-05-21T10:41:53.000Z</time>
      </trkpt>
      <trkpt lat="47.1973" lon="4.94822">
        <ele>418.70600064</ele>
        <time>2020-05-21T10:41:55.000Z</time>
      </trkpt>
      <trkpt lat="47.19731" lon="4.94818">
        <ele>418.90600064</ele>
        <time>2020-05-21T10:41:57.000Z</time>
      </trkpt>
      <trkpt lat="47.19731" lon="4.94813">
        <ele>419.10600064</ele>
        <time>2020-05-21T10:41:59.000Z</time>
      </trkpt>
      <trkpt lat="47.1973" lon="4.9481">
        <ele>419.30600064</ele>
        <time>2020-05-21T10:42:01.000Z</time>
      </trkpt>
      <trkpt lat="47.19729" lon="4.94806">
        <ele>419.50600064</ele>
        <time>2020-05-21T10:42:03.000Z</time>
      </trkpt>
      <trkpt lat="47.19729" lon="4.94803">
        <ele>419.70600064</ele>
        <time>2020-05-21T10:42:05.000Z</time>
      </trkpt>
      <trkpt lat="47.19727" lon="4.948">
        <ele>419.90600064</ele>
        <time>2020-05-21T10:42:07.000Z</time>
      </trkpt>
      <trkpt lat="47.19725" lon="4.94799">
        <ele>420</ele>
        <time>2020-05-21T10:42:09.000Z</time>
      </trkpt>
      <trkpt lat="47.19723" lon="4.94799">
        <ele>420</ele>
        <time>2020-05-21T10:42:11.000Z</time>
      </trkpt>
      <trkpt lat="47.1972" lon="4.94798">
        <ele>420</ele>
        <time>2020-05-21T10:42:13.000Z</time>
      </trkpt>
      <trkpt lat="47.19718" lon="4.94796">
        <ele>420</ele>
        <time>2020-05-21T10:42:15.000Z</time>
      </trkpt>
      <trkpt lat="47.19716" lon="4.94794">
        <ele>420</ele>
        <time>2020-05-21T10:42:17.000Z</time>
      </trkpt>
      <trkpt lat="47.19714" lon="4.94792">
        <ele>420</ele>
        <time>2020-05-21T10:42:19.000Z</time>
      </trkpt>
      <trkpt lat="47.19712" lon="4.94791">
        <ele>420</ele>
        <time>2020-05-21T10:42:21.000Z</time>
      </trkpt>
      <trkpt lat="47.1971" lon="4.9479">
        <ele>420</ele>
        <time>2020-05-21T10:42:23.000Z</time>
      </trkpt>
      <trkpt lat="47.19708" lon="4.94788">
        <ele>420</ele>
        <time>2020-05-21T10:42:25.000Z</time>
      </trkpt>
      <trkpt lat="47.19706" lon="4.94787">
        <ele>420</ele>
        <time>2020-05-21T10:42:27.000Z</time>
      </trkpt>
      <trkpt lat="47.19704" lon="4.94787">
        <ele>420</ele>
        <time>2020-05-21T10:42:30.000Z</time>
      </trkpt>
      <trkpt lat="47.19701" lon="4.94786">
        <ele>420</ele>
        <time>2020-05-21T10:42:34.000Z</time>
      </trkpt>
      <trkpt lat="47.19699" lon="4.94786">
        <ele>420</ele>
        <time>2020-05-21T10:42:36.000Z</time>
      </trkpt>
      <trkpt lat="47.19697" lon="4.94787">
        <ele>420</ele>
        <time>2020-05-21T10:42:38.000Z</time>
      </trkpt>
      <trkpt lat="47.19694" lon="4.94788">
        <ele>420</ele>
        <time>2020-05-21T10:42:40.000Z</time>
      </trkpt>
      <trkpt lat="47.19693" lon="4.94789">
        <ele>420</ele>
        <time>2020-05-21T10:42:42.000Z</time>
      </trkpt>
      <trkpt lat="47.1969" lon="4.9479">
        <ele>420</ele>
        <time>2020-05-21T10:42:44.000Z</time>
      </trkpt>
      <trkpt lat="47.19688" lon="4.94791">
        <ele>420</ele>
        <time>2020-05-21T10:42:46.000Z</time>
      </trkpt>
      <trkpt lat="47.19686" lon="4.94794">
        <ele>419.99399936</ele>
        <time>2020-05-21T10:42:48.000Z</time>
      </trkpt>
      <trkpt lat="47.19684" lon="4.94795">
        <ele>419.79399936</ele>
        <time>2020-05-21T10:42:50.000Z</time>
      </trkpt>
      <trkpt lat="47.19682" lon="4.94796">
        <ele>419.59399936</ele>
        <time>2020-05-21T10:42:52.000Z</time>
      </trkpt>
      <trkpt lat="47.1968" lon="4.94797">
        <ele>419.39399936</ele>
        <time>2020-05-21T10:42:54.000Z</time>
      </trkpt>
      <trkpt lat="47.19678" lon="4.94798">
        <ele>419.19399936</ele>
        <time>2020-05-21T10:42:56.000Z</time>
      </trkpt>
      <trkpt lat="47.19676" lon="4.948">
        <ele>418.99399936</ele>
        <time>2020-05-21T10:42:58.000Z</time>
      </trkpt>
      <trkpt lat="47.19673" lon="4.948">
        <ele>418.79399936</ele>
        <time>2020-05-21T10:43:00.000Z</time>
      </trkpt>
      <trkpt lat="47.19671" lon="4.94802">
        <ele>418.59399936</ele>
        <time>2020-05-21T10:43:02.000Z</time>
      </trkpt>
      <trkpt lat="47.19668" lon="4.94804">
        <ele>418.39399936</ele>
        <time>2020-05-21T10:43:04.000Z</time>
      </trkpt>
      <trkpt lat="47.19666" lon="4.94806">
        <ele>418.19399936</ele>
        <time>2020-05-21T10:43:06.000Z</time>
      </trkpt>
      <trkpt lat="47.19664" lon="4.94808">
        <ele>418</ele>
        <time>2020-05-21T10:43:08.000Z</time>
      </trkpt>
      <trkpt lat="47.19662" lon="4.9481">
        <ele>418</ele>
        <time>2020-05-21T10:43:10.000Z</time>
      </trkpt>
      <trkpt lat="47.1966" lon="4.94811">
        <ele>418</ele>
        <time>2020-05-21T10:43:12.000Z</time>
      </trkpt>
      <trkpt lat="47.19659" lon="4.94813">
        <ele>418</ele>
        <time>2020-05-21T10:43:14.000Z</time>
      </trkpt>
      <trkpt lat="47.19657" lon="4.94816">
        <ele>418</ele>
        <time>2020-05-21T10:43:17.000Z</time>
      </trkpt>
      <trkpt lat="47.19655" lon="4.94818">
        <ele>417.89399936</ele>
        <time>2020-05-21T10:43:19.000Z</time>
      </trkpt>
      <trkpt lat="47.19652" lon="4.9482">
        <ele>417.69399936</ele>
        <time>2020-05-21T10:43:21.000Z</time>
      </trkpt>
      <trkpt lat="47.1965" lon="4.94821">
        <ele>417.49399936</ele>
        <time>2020-05-21T10:43:23.000Z</time>
      </trkpt>
      <trkpt lat="47.19648" lon="4.94822">
        <ele>417.29399936</ele>
        <time>2020-05-21T10:43:25.000Z</time>
      </trkpt>
      <trkpt lat="47.19646" lon="4.94823">
        <ele>417.09399936</ele>
        <time>2020-05-21T10:43:27.000Z</time>
      </trkpt>
      <trkpt lat="47.19643" lon="4.94825">
        <ele>416.89399936</ele>
        <time>2020-05-21T10:43:29.000Z</time>
      </trkpt>
      <trkpt lat="47.1964" lon="4.94825">
        <ele>416.69399936</ele>
        <time>2020-05-21T10:43:31.000Z</time>
      </trkpt>
      <trkpt lat="47.19638" lon="4.94825">
        <ele>416.49399936</ele>
        <time>2020-05-21T10:43:33.000Z</time>
      </trkpt>
      <trkpt lat="47.19635" lon="4.94825">
        <ele>416.29399936</ele>
        <time>2020-05-21T10:43:35.000Z</time>
      </trkpt>
      <trkpt lat="47.19633" lon="4.94825">
        <ele>416.09399936</ele>
        <time>2020-05-21T10:43:37.000Z</time>
      </trkpt>
      <trkpt lat="47.19631" lon="4.94825">
        <ele>416.10600064</ele>
        <time>2020-05-21T10:43:39.000Z</time>
      </trkpt>
      <trkpt lat="47.19628" lon="4.94825">
        <ele>416.30600064</ele>
        <time>2020-05-21T10:43:41.000Z</time>
      </trkpt>
      <trkpt lat="47.19626" lon="4.94825">
        <ele>416.50600064</ele>
        <time>2020-05-21T10:43:43.000Z</time>
      </trkpt>
      <trkpt lat="47.19624" lon="4.94825">
        <ele>416.70600064</ele>
        <time>2020-05-21T10:43:45.000Z</time>
      </trkpt>
      <trkpt lat="47.19622" lon="4.94825">
        <ele>416.90600064</ele>
        <time>2020-05-21T10:43:47.000Z</time>
      </trkpt>
      <trkpt lat="47.19619" lon="4.94826">
        <ele>417</ele>
        <time>2020-05-21T10:43:49.000Z</time>
      </trkpt>
      <trkpt lat="47.19617" lon="4.94826">
        <ele>417</ele>
        <time>2020-05-21T10:43:51.000Z</time>
      </trkpt>
      <trkpt lat="47.19615" lon="4.94826">
        <ele>417</ele>
        <time>2020-05-21T10:43:53.000Z</time>
      </trkpt>
      <trkpt lat="47.19612" lon="4.94827">
        <ele>417</ele>
        <time>2020-05-21T10:43:55.000Z</time>
      </trkpt>
      <trkpt lat="47.1961" lon="4.94827">
        <ele>417</ele>
        <time>2020-05-21T10:43:57.000Z</time>
      </trkpt>
      <trkpt lat="47.19607" lon="4.94828">
        <ele>416.87029405228</ele>
        <time>2020-05-21T10:43:59.000Z</time>
      </trkpt>
      <trkpt lat="47.19606" lon="4.94828">
        <ele>416.45188345022</ele>
        <time>2020-05-21T10:44:01.000Z</time>
      </trkpt>
      <trkpt lat="47.19604" lon="4.94829">
        <ele>416.03347284816</ele>
        <time>2020-05-21T10:44:03.000Z</time>
      </trkpt>
      <trkpt lat="47.19602" lon="4.9483">
        <ele>415.40585694508</ele>
        <time>2020-05-21T10:44:06.000Z</time>
      </trkpt>
      <trkpt lat="47.196" lon="4.9483">
        <ele>415</ele>
        <time>2020-05-21T10:44:08.000Z</time>
      </trkpt>
      <trkpt lat="47.19598" lon="4.94831">
        <ele>415</ele>
        <time>2020-05-21T10:44:10.000Z</time>
      </trkpt>
      <trkpt lat="47.19595" lon="4.94831">
        <ele>415</ele>
        <time>2020-05-21T10:44:12.000Z</time>
      </trkpt>
      <trkpt lat="47.19591" lon="4.94832">
        <ele>415</ele>
        <time>2020-05-21T10:44:14.000Z</time>
      </trkpt>
      <trkpt lat="47.19588" lon="4.94835">
        <ele>415</ele>
        <time>2020-05-21T10:44:16.000Z</time>
      </trkpt>
      <trkpt lat="47.19586" lon="4.94837">
        <ele>414.99399936</ele>
        <time>2020-05-21T10:44:18.000Z</time>
      </trkpt>
      <trkpt lat="47.19584" lon="4.94839">
        <ele>414.69399936</ele>
        <time>2020-05-21T10:44:21.000Z</time>
      </trkpt>
      <trkpt lat="47.19582" lon="4.94841">
        <ele>414.49399936</ele>
        <time>2020-05-21T10:44:23.000Z</time>
      </trkpt>
      <trkpt lat="47.19579" lon="4.94842">
        <ele>414.29399936</ele>
        <time>2020-05-21T10:44:25.000Z</time>
      </trkpt>
      <trkpt lat="47.19577" lon="4.94845">
        <ele>414.09399936</ele>
        <time>2020-05-21T10:44:27.000Z</time>
      </trkpt>
      <trkpt lat="47.19575" lon="4.94847">
        <ele>414</ele>
        <time>2020-05-21T10:44:29.000Z</time>
      </trkpt>
      <trkpt lat="47.19574" lon="4.94848">
        <ele>414</ele>
        <time>2020-05-21T10:44:31.000Z</time>
      </trkpt>
      <trkpt lat="47.19572" lon="4.94849">
        <ele>414</ele>
        <time>2020-05-21T10:44:33.000Z</time>
      </trkpt>
      <trkpt lat="47.1957" lon="4.94846">
        <ele>414</ele>
        <time>2020-05-21T10:44:36.000Z</time>
      </trkpt>
      <trkpt lat="47.19568" lon="4.94845">
        <ele>414</ele>
        <time>2020-05-21T10:44:40.000Z</time>
      </trkpt>
      <trkpt lat="47.19566" lon="4.94844">
        <ele>414</ele>
        <time>2020-05-21T10:44:42.000Z</time>
      </trkpt>
      <trkpt lat="47.19564" lon="4.94843">
        <ele>414</ele>
        <time>2020-05-21T10:44:44.000Z</time>
      </trkpt>
      <trkpt lat="47.1956" lon="4.94844">
        <ele>414</ele>
        <time>2020-05-21T10:44:46.000Z</time>
      </trkpt>
      <trkpt lat="47.19558" lon="4.94844">
        <ele>414</ele>
        <time>2020-05-21T10:44:47.000Z</time>
      </trkpt>
      <trkpt lat="47.19556" lon="4.94845">
        <ele>413.89678616653</ele>
        <time>2020-05-21T10:44:49.000Z</time>
      </trkpt>
      <trkpt lat="47.19554" lon="4.94844">
        <ele>413.70204426032</ele>
        <time>2020-05-21T10:44:51.000Z</time>
      </trkpt>
      <trkpt lat="47.19552" lon="4.94842">
        <ele>413.5073023541</ele>
        <time>2020-05-21T10:44:53.000Z</time>
      </trkpt>
      <trkpt lat="47.1955" lon="4.9484">
        <ele>413.21518949478</ele>
        <time>2020-05-21T10:44:56.000Z</time>
      </trkpt>
      <trkpt lat="47.19547" lon="4.94838">
        <ele>413.02044758857</ele>
        <time>2020-05-21T10:44:58.000Z</time>
      </trkpt>
      <trkpt lat="47.19544" lon="4.94837">
        <ele>412.81603249859</ele>
        <time>2020-05-21T10:45:00.000Z</time>
      </trkpt>
      <trkpt lat="47.19542" lon="4.94837">
        <ele>412.61048258515</ele>
        <time>2020-05-21T10:45:02.000Z</time>
      </trkpt>
      <trkpt lat="47.1954" lon="4.94836">
        <ele>412.50770762843</ele>
        <time>2020-05-21T10:45:03.000Z</time>
      </trkpt>
      <trkpt lat="47.19537" lon="4.94836">
        <ele>412.302157715</ele>
        <time>2020-05-21T10:45:05.000Z</time>
      </trkpt>
      <trkpt lat="47.19535" lon="4.94836">
        <ele>412.09660780156</ele>
        <time>2020-05-21T10:45:07.000Z</time>
      </trkpt>
      <trkpt lat="47.19533" lon="4.94834">
        <ele>412</ele>
        <time>2020-05-21T10:45:09.000Z</time>
      </trkpt>
      <trkpt lat="47.19531" lon="4.94832">
        <ele>412</ele>
        <time>2020-05-21T10:45:11.000Z</time>
      </trkpt>
      <trkpt lat="47.1953" lon="4.9483">
        <ele>412</ele>
        <time>2020-05-21T10:45:13.000Z</time>
      </trkpt>
      <trkpt lat="47.19529" lon="4.94828">
        <ele>412</ele>
        <time>2020-05-21T10:45:15.000Z</time>
      </trkpt>
      <trkpt lat="47.19528" lon="4.94826">
        <ele>412</ele>
        <time>2020-05-21T10:45:17.000Z</time>
      </trkpt>
      <trkpt lat="47.19526" lon="4.94822">
        <ele>412</ele>
        <time>2020-05-21T10:45:19.000Z</time>
      </trkpt>
      <trkpt lat="47.19524" lon="4.9482">
        <ele>412</ele>
        <time>2020-05-21T10:45:21.000Z</time>
      </trkpt>
      <trkpt lat="47.19522" lon="4.94818">
        <ele>412</ele>
        <time>2020-05-21T10:45:23.000Z</time>
      </trkpt>
      <trkpt lat="47.1952" lon="4.94817">
        <ele>412</ele>
        <time>2020-05-21T10:45:25.000Z</time>
      </trkpt>
      <trkpt lat="47.19517" lon="4.94816">
        <ele>412</ele>
        <time>2020-05-21T10:45:27.000Z</time>
      </trkpt>
      <trkpt lat="47.19514" lon="4.94815">
        <ele>412.10600064</ele>
        <time>2020-05-21T10:45:29.000Z</time>
      </trkpt>
      <trkpt lat="47.19511" lon="4.94815">
        <ele>412.30600064</ele>
        <time>2020-05-21T10:45:31.000Z</time>
      </trkpt>
      <trkpt lat="47.19509" lon="4.94814">
        <ele>412.50600064</ele>
        <time>2020-05-21T10:45:33.000Z</time>
      </trkpt>
      <trkpt lat="47.19508" lon="4.94812">
        <ele>412.70600064</ele>
        <time>2020-05-21T10:45:35.000Z</time>
      </trkpt>
      <trkpt lat="47.19507" lon="4.9481">
        <ele>412.90600064</ele>
        <time>2020-05-21T10:45:37.000Z</time>
      </trkpt>
      <trkpt lat="47.19506" lon="4.94806">
        <ele>413</ele>
        <time>2020-05-21T10:45:40.000Z</time>
      </trkpt>
      <trkpt lat="47.19504" lon="4.94804">
        <ele>413</ele>
        <time>2020-05-21T10:45:42.000Z</time>
      </trkpt>
      <trkpt lat="47.19502" lon="4.94802">
        <ele>413</ele>
        <time>2020-05-21T10:45:44.000Z</time>
      </trkpt>
      <trkpt lat="47.195" lon="4.94801">
        <ele>413</ele>
        <time>2020-05-21T10:45:45.000Z</time>
      </trkpt>
      <trkpt lat="47.19498" lon="4.94799">
        <ele>413</ele>
        <time>2020-05-21T10:45:46.000Z</time>
      </trkpt>
      <trkpt lat="47.19496" lon="4.94798">
        <ele>413</ele>
        <time>2020-05-21T10:45:47.000Z</time>
      </trkpt>
      <trkpt lat="47.19494" lon="4.94796">
        <ele>413</ele>
        <time>2020-05-21T10:45:49.000Z</time>
      </trkpt>
      <trkpt lat="47.19491" lon="4.94794">
        <ele>413</ele>
        <time>2020-05-21T10:45:51.000Z</time>
      </trkpt>
      <trkpt lat="47.1949" lon="4.94791">
        <ele>413</ele>
        <time>2020-05-21T10:45:53.000Z</time>
      </trkpt>
      <trkpt lat="47.19489" lon="4.94789">
        <ele>413</ele>
        <time>2020-05-21T10:45:55.000Z</time>
      </trkpt>
      <trkpt lat="47.19487" lon="4.94787">
        <ele>413</ele>
        <time>2020-05-21T10:45:58.000Z</time>
      </trkpt>
      <trkpt lat="47.19485" lon="4.94786">
        <ele>413</ele>
        <time>2020-05-21T10:46:00.000Z</time>
      </trkpt>
      <trkpt lat="47.19483" lon="4.94784">
        <ele>413</ele>
        <time>2020-05-21T10:46:01.000Z</time>
      </trkpt>
      <trkpt lat="47.1948" lon="4.94783">
        <ele>413</ele>
        <time>2020-05-21T10:46:03.000Z</time>
      </trkpt>
      <trkpt lat="47.19478" lon="4.94781">
        <ele>413</ele>
        <time>2020-05-21T10:46:06.000Z</time>
      </trkpt>
      <trkpt lat="47.19476" lon="4.94779">
        <ele>413</ele>
        <time>2020-05-21T10:46:08.000Z</time>
      </trkpt>
      <trkpt lat="47.19474" lon="4.94777">
        <ele>413</ele>
        <time>2020-05-21T10:46:10.000Z</time>
      </trkpt>
      <trkpt lat="47.1947" lon="4.94776">
        <ele>413</ele>
        <time>2020-05-21T10:46:12.000Z</time>
      </trkpt>
      <trkpt lat="47.19467" lon="4.94775">
        <ele>413</ele>
        <time>2020-05-21T10:46:14.000Z</time>
      </trkpt>
      <trkpt lat="47.19464" lon="4.94775">
        <ele>413</ele>
        <time>2020-05-21T10:46:16.000Z</time>
      </trkpt>
      <trkpt lat="47.19461" lon="4.94775">
        <ele>413</ele>
        <time>2020-05-21T10:46:18.000Z</time>
      </trkpt>
      <trkpt lat="47.19458" lon="4.94775">
        <ele>413</ele>
        <time>2020-05-21T10:46:20.000Z</time>
      </trkpt>
      <trkpt lat="47.19456" lon="4.94775">
        <ele>413</ele>
        <time>2020-05-21T10:46:22.000Z</time>
      </trkpt>
      <trkpt lat="47.19454" lon="4.94773">
        <ele>413</ele>
        <time>2020-05-21T10:46:25.000Z</time>
      </trkpt>
      <trkpt lat="47.19452" lon="4.94771">
        <ele>412.99399936</ele>
        <time>2020-05-21T10:46:28.000Z</time>
      </trkpt>
      <trkpt lat="47.19449" lon="4.94769">
        <ele>412.79399936</ele>
        <time>2020-05-21T10:46:30.000Z</time>
      </trkpt>
      <trkpt lat="47.19447" lon="4.94768">
        <ele>412.59399936</ele>
        <time>2020-05-21T10:46:32.000Z</time>
      </trkpt>
      <trkpt lat="47.19445" lon="4.94767">
        <ele>412.39399936</ele>
        <time>2020-05-21T10:46:34.000Z</time>
      </trkpt>
      <trkpt lat="47.19442" lon="4.94765">
        <ele>412.19399936</ele>
        <time>2020-05-21T10:46:36.000Z</time>
      </trkpt>
      <trkpt lat="47.1944" lon="4.94763">
        <ele>411.99399936</ele>
        <time>2020-05-21T10:46:38.000Z</time>
      </trkpt>
      <trkpt lat="47.19438" lon="4.94762">
        <ele>411.79399936</ele>
        <time>2020-05-21T10:46:40.000Z</time>
      </trkpt>
      <trkpt lat="47.19435" lon="4.94761">
        <ele>411.59399936</ele>
        <time>2020-05-21T10:46:42.000Z</time>
      </trkpt>
      <trkpt lat="47.19433" lon="4.94761">
        <ele>411.39399936</ele>
        <time>2020-05-21T10:46:44.000Z</time>
      </trkpt>
      <trkpt lat="47.19431" lon="4.9476">
        <ele>411.19399936</ele>
        <time>2020-05-21T10:46:46.000Z</time>
      </trkpt>
      <trkpt lat="47.19429" lon="4.94759">
        <ele>411</ele>
        <time>2020-05-21T10:46:48.000Z</time>
      </trkpt>
      <trkpt lat="47.19426" lon="4.94758">
        <ele>411</ele>
        <time>2020-05-21T10:46:50.000Z</time>
      </trkpt>
      <trkpt lat="47.19423" lon="4.94758">
        <ele>411</ele>
        <time>2020-05-21T10:46:52.000Z</time>
      </trkpt>
      <trkpt lat="47.19421" lon="4.94757">
        <ele>411</ele>
        <time>2020-05-21T10:46:54.000Z</time>
      </trkpt>
      <trkpt lat="47.1942" lon="4.94755">
        <ele>411</ele>
        <time>2020-05-21T10:46:57.000Z</time>
      </trkpt>
      <trkpt lat="47.19418" lon="4.94752">
        <ele>410.89678616653</ele>
        <time>2020-05-21T10:46:59.000Z</time>
      </trkpt>
      <trkpt lat="47.19416" lon="4.9475">
        <ele>410.70204426032</ele>
        <time>2020-05-21T10:47:01.000Z</time>
      </trkpt>
      <trkpt lat="47.19414" lon="4.94748">
        <ele>410.5073023541</ele>
        <time>2020-05-21T10:47:03.000Z</time>
      </trkpt>
      <trkpt lat="47.19411" lon="4.94747">
        <ele>410.31256044789</ele>
        <time>2020-05-21T10:47:05.000Z</time>
      </trkpt>
      <trkpt lat="47.1941" lon="4.94744">
        <ele>410.11781854167</ele>
        <time>2020-05-21T10:47:07.000Z</time>
      </trkpt>
      <trkpt lat="47.19407" lon="4.94742">
        <ele>410.08119254469</ele>
        <time>2020-05-21T10:47:09.000Z</time>
      </trkpt>
      <trkpt lat="47.19406" lon="4.94738">
        <ele>410.28674245813</ele>
        <time>2020-05-21T10:47:11.000Z</time>
      </trkpt>
      <trkpt lat="47.19405" lon="4.94736">
        <ele>410.49229237157</ele>
        <time>2020-05-21T10:47:13.000Z</time>
      </trkpt>
      <trkpt lat="47.19404" lon="4.94733">
        <ele>410.80061724172</ele>
        <time>2020-05-21T10:47:16.000Z</time>
      </trkpt>
      <trkpt lat="47.19402" lon="4.9473">
        <ele>411</ele>
        <time>2020-05-21T10:47:18.000Z</time>
      </trkpt>
      <trkpt lat="47.19401" lon="4.94727">
        <ele>411</ele>
        <time>2020-05-21T10:47:20.000Z</time>
      </trkpt>
      <trkpt lat="47.19401" lon="4.94723">
        <ele>411</ele>
        <time>2020-05-21T10:47:22.000Z</time>
      </trkpt>
      <trkpt lat="47.194" lon="4.9472">
        <ele>411</ele>
        <time>2020-05-21T10:47:24.000Z</time>
      </trkpt>
      <trkpt lat="47.19399" lon="4.94718">
        <ele>411</ele>
        <time>2020-05-21T10:47:26.000Z</time>
      </trkpt>
      <trkpt lat="47.19397" lon="4.94717">
        <ele>411</ele>
        <time>2020-05-21T10:47:28.000Z</time>
      </trkpt>
      <trkpt lat="47.19395" lon="4.94714">
        <ele>411</ele>
        <time>2020-05-21T10:47:31.000Z</time>
      </trkpt>
      <trkpt lat="47.19394" lon="4.94711">
        <ele>411</ele>
        <time>2020-05-21T10:47:33.000Z</time>
      </trkpt>
      <trkpt lat="47.19393" lon="4.94708">
        <ele>411</ele>
        <time>2020-05-21T10:47:35.000Z</time>
      </trkpt>
      <trkpt lat="47.19393" lon="4.94704">
        <ele>411.00600064</ele>
        <time>2020-05-21T10:47:38.000Z</time>
      </trkpt>
      <trkpt lat="47.19392" lon="4.947">
        <ele>411.20600064</ele>
        <time>2020-05-21T10:47:40.000Z</time>
      </trkpt>
      <trkpt lat="47.1939" lon="4.94697">
        <ele>411.40600064</ele>
        <time>2020-05-21T10:47:42.000Z</time>
      </trkpt>
      <trkpt lat="47.19387" lon="4.94694">
        <ele>411.60600064</ele>
        <time>2020-05-21T10:47:44.000Z</time>
      </trkpt>
      <trkpt lat="47.19385" lon="4.94692">
        <ele>411.80600064</ele>
        <time>2020-05-21T10:47:46.000Z</time>
      </trkpt>
      <trkpt lat="47.19383" lon="4.94691">
        <ele>412</ele>
        <time>2020-05-21T10:47:48.000Z</time>
      </trkpt>
      <trkpt lat="47.19382" lon="4.94689">
        <ele>412</ele>
        <time>2020-05-21T10:47:49.000Z</time>
      </trkpt>
      <trkpt lat="47.1938" lon="4.94685">
        <ele>412</ele>
        <time>2020-05-21T10:47:51.000Z</time>
      </trkpt>
      <trkpt lat="47.19378" lon="4.94682">
        <ele>412</ele>
        <time>2020-05-21T10:47:53.000Z</time>
      </trkpt>
      <trkpt lat="47.19376" lon="4.9468">
        <ele>412</ele>
        <time>2020-05-21T10:47:55.000Z</time>
      </trkpt>
      <trkpt lat="47.19374" lon="4.94679">
        <ele>412</ele>
        <time>2020-05-21T10:47:57.000Z</time>
      </trkpt>
      <trkpt lat="47.19371" lon="4.94677">
        <ele>411.89399936</ele>
        <time>2020-05-21T10:47:59.000Z</time>
      </trkpt>
      <trkpt lat="47.1937" lon="4.94674">
        <ele>411.69399936</ele>
        <time>2020-05-21T10:48:01.000Z</time>
      </trkpt>
      <trkpt lat="47.19369" lon="4.9467">
        <ele>411.49399936</ele>
        <time>2020-05-21T10:48:03.000Z</time>
      </trkpt>
      <trkpt lat="47.19367" lon="4.94667">
        <ele>411.29399936</ele>
        <time>2020-05-21T10:48:05.000Z</time>
      </trkpt>
      <trkpt lat="47.19365" lon="4.94664">
        <ele>411.09399936</ele>
        <time>2020-05-21T10:48:07.000Z</time>
      </trkpt>
      <trkpt lat="47.19363" lon="4.94663">
        <ele>411</ele>
        <time>2020-05-21T10:48:09.000Z</time>
      </trkpt>
      <trkpt lat="47.19361" lon="4.9466">
        <ele>411</ele>
        <time>2020-05-21T10:48:11.000Z</time>
      </trkpt>
      <trkpt lat="47.19359" lon="4.94658">
        <ele>411</ele>
        <time>2020-05-21T10:48:13.000Z</time>
      </trkpt>
      <trkpt lat="47.19357" lon="4.94655">
        <ele>411</ele>
        <time>2020-05-21T10:48:15.000Z</time>
      </trkpt>
      <trkpt lat="47.19355" lon="4.94653">
        <ele>411</ele>
        <time>2020-05-21T10:48:17.000Z</time>
      </trkpt>
      <trkpt lat="47.19352" lon="4.94651">
        <ele>411</ele>
        <time>2020-05-21T10:48:19.000Z</time>
      </trkpt>
      <trkpt lat="47.1935" lon="4.94648">
        <ele>411</ele>
        <time>2020-05-21T10:48:21.000Z</time>
      </trkpt>
      <trkpt lat="47.19348" lon="4.94645">
        <ele>411</ele>
        <time>2020-05-21T10:48:23.000Z</time>
      </trkpt>
      <trkpt lat="47.19346" lon="4.94643">
        <ele>411</ele>
        <time>2020-05-21T10:48:25.000Z</time>
      </trkpt>
      <trkpt lat="47.19344" lon="4.94642">
        <ele>411</ele>
        <time>2020-05-21T10:48:27.000Z</time>
      </trkpt>
      <trkpt lat="47.19341" lon="4.94641">
        <ele>411</ele>
        <time>2020-05-21T10:48:29.000Z</time>
      </trkpt>
      <trkpt lat="47.1934" lon="4.94639">
        <ele>411</ele>
        <time>2020-05-21T10:48:31.000Z</time>
      </trkpt>
      <trkpt lat="47.19337" lon="4.94637">
        <ele>411</ele>
        <time>2020-05-21T10:48:33.000Z</time>
      </trkpt>
      <trkpt lat="47.19336" lon="4.94634">
        <ele>411</ele>
        <time>2020-05-21T10:48:35.000Z</time>
      </trkpt>
      <trkpt lat="47.19334" lon="4.94631">
        <ele>411</ele>
        <time>2020-05-21T10:48:36.000Z</time>
      </trkpt>
      <trkpt lat="47.19332" lon="4.94628">
        <ele>410.99399936</ele>
        <time>2020-05-21T10:48:38.000Z</time>
      </trkpt>
      <trkpt lat="47.1933" lon="4.94625">
        <ele>410.79399936</ele>
        <time>2020-05-21T10:48:40.000Z</time>
      </trkpt>
      <trkpt lat="47.19328" lon="4.94623">
        <ele>410.59399936</ele>
        <time>2020-05-21T10:48:42.000Z</time>
      </trkpt>
      <trkpt lat="47.19327" lon="4.9462">
        <ele>410.39399936</ele>
        <time>2020-05-21T10:48:44.000Z</time>
      </trkpt>
      <trkpt lat="47.19325" lon="4.94618">
        <ele>410.19399936</ele>
        <time>2020-05-21T10:48:46.000Z</time>
      </trkpt>
      <trkpt lat="47.19324" lon="4.94615">
        <ele>410.00600064</ele>
        <time>2020-05-21T10:48:48.000Z</time>
      </trkpt>
      <trkpt lat="47.19322" lon="4.94613">
        <ele>410.20600064</ele>
        <time>2020-05-21T10:48:50.000Z</time>
      </trkpt>
      <trkpt lat="47.19321" lon="4.9461">
        <ele>410.40600064</ele>
        <time>2020-05-21T10:48:52.000Z</time>
      </trkpt>
      <trkpt lat="47.1932" lon="4.94606">
        <ele>410.60600064</ele>
        <time>2020-05-21T10:48:54.000Z</time>
      </trkpt>
      <trkpt lat="47.1932" lon="4.94602">
        <ele>410.80600064</ele>
        <time>2020-05-21T10:48:56.000Z</time>
      </trkpt>
      <trkpt lat="47.19318" lon="4.94599">
        <ele>411</ele>
        <time>2020-05-21T10:48:59.000Z</time>
      </trkpt>
      <trkpt lat="47.19316" lon="4.94596">
        <ele>411</ele>
        <time>2020-05-21T10:49:02.000Z</time>
      </trkpt>
      <trkpt lat="47.19314" lon="4.94592">
        <ele>411</ele>
        <time>2020-05-21T10:49:04.000Z</time>
      </trkpt>
      <trkpt lat="47.19313" lon="4.94589">
        <ele>411</ele>
        <time>2020-05-21T10:49:06.000Z</time>
      </trkpt>
      <trkpt lat="47.19312" lon="4.94586">
        <ele>411</ele>
        <time>2020-05-21T10:49:08.000Z</time>
      </trkpt>
      <trkpt lat="47.19312" lon="4.94582">
        <ele>411</ele>
        <time>2020-05-21T10:49:10.000Z</time>
      </trkpt>
      <trkpt lat="47.19311" lon="4.9458">
        <ele>411</ele>
        <time>2020-05-21T10:49:12.000Z</time>
      </trkpt>
      <trkpt lat="47.1931" lon="4.94577">
        <ele>411</ele>
        <time>2020-05-21T10:49:14.000Z</time>
      </trkpt>
      <trkpt lat="47.19309" lon="4.94573">
        <ele>411</ele>
        <time>2020-05-21T10:49:16.000Z</time>
      </trkpt>
      <trkpt lat="47.19309" lon="4.9457">
        <ele>411</ele>
        <time>2020-05-21T10:49:18.000Z</time>
      </trkpt>
      <trkpt lat="47.19309" lon="4.94568">
        <ele>411</ele>
        <time>2020-05-21T10:49:19.000Z</time>
      </trkpt>
      <trkpt lat="47.19309" lon="4.94565">
        <ele>411</ele>
        <time>2020-05-21T10:49:21.000Z</time>
      </trkpt>
      <trkpt lat="47.19309" lon="4.94561">
        <ele>411</ele>
        <time>2020-05-21T10:49:24.000Z</time>
      </trkpt>
      <trkpt lat="47.19309" lon="4.94558">
        <ele>411</ele>
        <time>2020-05-21T10:49:26.000Z</time>
      </trkpt>
      <trkpt lat="47.19309" lon="4.94554">
        <ele>411</ele>
        <time>2020-05-21T10:49:28.000Z</time>
      </trkpt>
      <trkpt lat="47.19309" lon="4.9455">
        <ele>411</ele>
        <time>2020-05-21T10:49:30.000Z</time>
      </trkpt>
      <trkpt lat="47.19309" lon="4.94546">
        <ele>411</ele>
        <time>2020-05-21T10:49:32.000Z</time>
      </trkpt>
      <trkpt lat="47.19309" lon="4.94543">
        <ele>411</ele>
        <time>2020-05-21T10:49:34.000Z</time>
      </trkpt>
      <trkpt lat="47.19308" lon="4.9454">
        <ele>411</ele>
        <time>2020-05-21T10:49:37.000Z</time>
      </trkpt>
      <trkpt lat="47.19307" lon="4.94535">
        <ele>411</ele>
        <time>2020-05-21T10:49:39.000Z</time>
      </trkpt>
      <trkpt lat="47.19306" lon="4.94531">
        <ele>411</ele>
        <time>2020-05-21T10:49:41.000Z</time>
      </trkpt>
      <trkpt lat="47.19307" lon="4.94526">
        <ele>411</ele>
        <time>2020-05-21T10:49:43.000Z</time>
      </trkpt>
      <trkpt lat="47.19307" lon="4.94524">
        <ele>411</ele>
        <time>2020-05-21T10:49:45.000Z</time>
      </trkpt>
      <trkpt lat="47.19307" lon="4.9452">
        <ele>411</ele>
        <time>2020-05-21T10:49:47.000Z</time>
      </trkpt>
      <trkpt lat="47.19306" lon="4.94518">
        <ele>411.10600064</ele>
        <time>2020-05-21T10:49:49.000Z</time>
      </trkpt>
      <trkpt lat="47.19304" lon="4.94515">
        <ele>411.30600064</ele>
        <time>2020-05-21T10:49:51.000Z</time>
      </trkpt>
      <trkpt lat="47.19303" lon="4.94513">
        <ele>411.50600064</ele>
        <time>2020-05-21T10:49:53.000Z</time>
      </trkpt>
      <trkpt lat="47.193" lon="4.94511">
        <ele>411.70600064</ele>
        <time>2020-05-21T10:49:55.000Z</time>
      </trkpt>
      <trkpt lat="47.19298" lon="4.94511">
        <ele>411.90600064</ele>
        <time>2020-05-21T10:49:57.000Z</time>
      </trkpt>
      <trkpt lat="47.19296" lon="4.94511">
        <ele>412</ele>
        <time>2020-05-21T10:49:59.000Z</time>
      </trkpt>
      <trkpt lat="47.19293" lon="4.94511">
        <ele>412</ele>
        <time>2020-05-21T10:50:01.000Z</time>
      </trkpt>
      <trkpt lat="47.19291" lon="4.94511">
        <ele>412</ele>
        <time>2020-05-21T10:50:03.000Z</time>
      </trkpt>
      <trkpt lat="47.19288" lon="4.94511">
        <ele>412</ele>
        <time>2020-05-21T10:50:05.000Z</time>
      </trkpt>
      <trkpt lat="47.19285" lon="4.94511">
        <ele>412</ele>
        <time>2020-05-21T10:50:07.000Z</time>
      </trkpt>
      <trkpt lat="47.19283" lon="4.94511">
        <ele>411.79961052189</ele>
        <time>2020-05-21T10:50:10.000Z</time>
      </trkpt>
      <trkpt lat="47.1928" lon="4.94513">
        <ele>411.60505823495</ele>
        <time>2020-05-21T10:50:12.000Z</time>
      </trkpt>
      <trkpt lat="47.19277" lon="4.94513">
        <ele>411.41050594801</ele>
        <time>2020-05-21T10:50:14.000Z</time>
      </trkpt>
      <trkpt lat="47.19274" lon="4.94513">
        <ele>411.21595366107</ele>
        <time>2020-05-21T10:50:16.000Z</time>
      </trkpt>
      <trkpt lat="47.19272" lon="4.94512">
        <ele>410.91975363918</ele>
        <time>2020-05-21T10:50:19.000Z</time>
      </trkpt>
      <trkpt lat="47.19271" lon="4.9451">
        <ele>410.71399205135</ele>
        <time>2020-05-21T10:50:21.000Z</time>
      </trkpt>
      <trkpt lat="47.19269" lon="4.94507">
        <ele>410.50823046351</ele>
        <time>2020-05-21T10:50:23.000Z</time>
      </trkpt>
      <trkpt lat="47.19267" lon="4.94505">
        <ele>410.30246887568</ele>
        <time>2020-05-21T10:50:25.000Z</time>
      </trkpt>
      <trkpt lat="47.19264" lon="4.94504">
        <ele>410.09670728784</ele>
        <time>2020-05-21T10:50:27.000Z</time>
      </trkpt>
      <trkpt lat="47.19262" lon="4.94503">
        <ele>409.89399936</ele>
        <time>2020-05-21T10:50:29.000Z</time>
      </trkpt>
      <trkpt lat="47.1926" lon="4.945">
        <ele>409.69399936</ele>
        <time>2020-05-21T10:50:31.000Z</time>
      </trkpt>
      <trkpt lat="47.19259" lon="4.94498">
        <ele>409.49399936</ele>
        <time>2020-05-21T10:50:33.000Z</time>
      </trkpt>
      <trkpt lat="47.19257" lon="4.94495">
        <ele>409.29399936</ele>
        <time>2020-05-21T10:50:35.000Z</time>
      </trkpt>
      <trkpt lat="47.19255" lon="4.94492">
        <ele>409.09399936</ele>
        <time>2020-05-21T10:50:37.000Z</time>
      </trkpt>
      <trkpt lat="47.19253" lon="4.94489">
        <ele>408.89399936</ele>
        <time>2020-05-21T10:50:39.000Z</time>
      </trkpt>
      <trkpt lat="47.19252" lon="4.94486">
        <ele>408.69399936</ele>
        <time>2020-05-21T10:50:41.000Z</time>
      </trkpt>
      <trkpt lat="47.1925" lon="4.94483">
        <ele>408.49399936</ele>
        <time>2020-05-21T10:50:43.000Z</time>
      </trkpt>
      <trkpt lat="47.19249" lon="4.94479">
        <ele>408.29399936</ele>
        <time>2020-05-21T10:50:45.000Z</time>
      </trkpt>
      <trkpt lat="47.19246" lon="4.94477">
        <ele>408.09399936</ele>
        <time>2020-05-21T10:50:47.000Z</time>
      </trkpt>
      <trkpt lat="47.19244" lon="4.94476">
        <ele>408</ele>
        <time>2020-05-21T10:50:49.000Z</time>
      </trkpt>
      <trkpt lat="47.19241" lon="4.94474">
        <ele>408</ele>
        <time>2020-05-21T10:50:51.000Z</time>
      </trkpt>
      <trkpt lat="47.1924" lon="4.94473">
        <ele>408</ele>
        <time>2020-05-21T10:50:53.000Z</time>
      </trkpt>
      <trkpt lat="47.19238" lon="4.9447">
        <ele>408</ele>
        <time>2020-05-21T10:50:55.000Z</time>
      </trkpt>
      <trkpt lat="47.19236" lon="4.94468">
        <ele>408</ele>
        <time>2020-05-21T10:50:57.000Z</time>
      </trkpt>
      <trkpt lat="47.19235" lon="4.94465">
        <ele>407.89399936</ele>
        <time>2020-05-21T10:50:59.000Z</time>
      </trkpt>
      <trkpt lat="47.19234" lon="4.94461">
        <ele>407.69399936</ele>
        <time>2020-05-21T10:51:01.000Z</time>
      </trkpt>
      <trkpt lat="47.19232" lon="4.94459">
        <ele>407.49399936</ele>
        <time>2020-05-21T10:51:03.000Z</time>
      </trkpt>
      <trkpt lat="47.1923" lon="4.94456">
        <ele>407.29399936</ele>
        <time>2020-05-21T10:51:05.000Z</time>
      </trkpt>
      <trkpt lat="47.19228" lon="4.94454">
        <ele>407.09399936</ele>
        <time>2020-05-21T10:51:07.000Z</time>
      </trkpt>
      <trkpt lat="47.19226" lon="4.94452">
        <ele>407</ele>
        <time>2020-05-21T10:51:09.000Z</time>
      </trkpt>
      <trkpt lat="47.19225" lon="4.9445">
        <ele>407</ele>
        <time>2020-05-21T10:51:11.000Z</time>
      </trkpt>
      <trkpt lat="47.19223" lon="4.94447">
        <ele>407</ele>
        <time>2020-05-21T10:51:13.000Z</time>
      </trkpt>
      <trkpt lat="47.19221" lon="4.94445">
        <ele>407</ele>
        <time>2020-05-21T10:51:16.000Z</time>
      </trkpt>
      <trkpt lat="47.1922" lon="4.94442">
        <ele>406.99399936</ele>
        <time>2020-05-21T10:51:18.000Z</time>
      </trkpt>
      <trkpt lat="47.19218" lon="4.9444">
        <ele>406.79399936</ele>
        <time>2020-05-21T10:51:20.000Z</time>
      </trkpt>
      <trkpt lat="47.19216" lon="4.94439">
        <ele>406.59399936</ele>
        <time>2020-05-21T10:51:22.000Z</time>
      </trkpt>
      <trkpt lat="47.19213" lon="4.94436">
        <ele>406.39399936</ele>
        <time>2020-05-21T10:51:24.000Z</time>
      </trkpt>
      <trkpt lat="47.19211" lon="4.94435">
        <ele>406.19399936</ele>
        <time>2020-05-21T10:51:26.000Z</time>
      </trkpt>
      <trkpt lat="47.1921" lon="4.94433">
        <ele>406</ele>
        <time>2020-05-21T10:51:28.000Z</time>
      </trkpt>
      <trkpt lat="47.19208" lon="4.9443">
        <ele>406</ele>
        <time>2020-05-21T10:51:30.000Z</time>
      </trkpt>
      <trkpt lat="47.19207" lon="4.94429">
        <ele>406</ele>
        <time>2020-05-21T10:51:32.000Z</time>
      </trkpt>
      <trkpt lat="47.19205" lon="4.94427">
        <ele>406</ele>
        <time>2020-05-21T10:51:34.000Z</time>
      </trkpt>
      <trkpt lat="47.19203" lon="4.94424">
        <ele>406</ele>
        <time>2020-05-21T10:51:36.000Z</time>
      </trkpt>
      <trkpt lat="47.19202" lon="4.94422">
        <ele>406</ele>
        <time>2020-05-21T10:51:38.000Z</time>
      </trkpt>
      <trkpt lat="47.192" lon="4.9442">
        <ele>406</ele>
        <time>2020-05-21T10:51:40.000Z</time>
      </trkpt>
      <trkpt lat="47.19199" lon="4.94418">
        <ele>406</ele>
        <time>2020-05-21T10:51:42.000Z</time>
      </trkpt>
      <trkpt lat="47.19197" lon="4.94415">
        <ele>406</ele>
        <time>2020-05-21T10:51:44.000Z</time>
      </trkpt>
      <trkpt lat="47.19196" lon="4.94412">
        <ele>406</ele>
        <time>2020-05-21T10:51:46.000Z</time>
      </trkpt>
      <trkpt lat="47.19195" lon="4.94409">
        <ele>406</ele>
        <time>2020-05-21T10:51:48.000Z</time>
      </trkpt>
      <trkpt lat="47.19194" lon="4.94406">
        <ele>405.81603249859</ele>
        <time>2020-05-21T10:51:50.000Z</time>
      </trkpt>
      <trkpt lat="47.19193" lon="4.94404">
        <ele>405.61048258515</ele>
        <time>2020-05-21T10:51:52.000Z</time>
      </trkpt>
      <trkpt lat="47.19192" lon="4.94401">
        <ele>405.40493267172</ele>
        <time>2020-05-21T10:51:54.000Z</time>
      </trkpt>
      <trkpt lat="47.19191" lon="4.94398">
        <ele>405.19938275828</ele>
        <time>2020-05-21T10:51:56.000Z</time>
      </trkpt>
      <trkpt lat="47.1919" lon="4.94394">
        <ele>405</ele>
        <time>2020-05-21T10:51:58.000Z</time>
      </trkpt>
      <trkpt lat="47.1919" lon="4.94391">
        <ele>405</ele>
        <time>2020-05-21T10:52:00.000Z</time>
      </trkpt>
      <trkpt lat="47.19189" lon="4.94388">
        <ele>405</ele>
        <time>2020-05-21T10:52:02.000Z</time>
      </trkpt>
      <trkpt lat="47.19188" lon="4.94385">
        <ele>405</ele>
        <time>2020-05-21T10:52:04.000Z</time>
      </trkpt>
      <trkpt lat="47.19188" lon="4.94382">
        <ele>405</ele>
        <time>2020-05-21T10:52:06.000Z</time>
      </trkpt>
      <trkpt lat="47.19187" lon="4.94379">
        <ele>405.00600064</ele>
        <time>2020-05-21T10:52:08.000Z</time>
      </trkpt>
      <trkpt lat="47.19185" lon="4.94375">
        <ele>405.20600064</ele>
        <time>2020-05-21T10:52:10.000Z</time>
      </trkpt>
      <trkpt lat="47.19184" lon="4.94373">
        <ele>405.40600064</ele>
        <time>2020-05-21T10:52:12.000Z</time>
      </trkpt>
      <trkpt lat="47.19182" lon="4.9437">
        <ele>405.60600064</ele>
        <time>2020-05-21T10:52:14.000Z</time>
      </trkpt>
      <trkpt lat="47.19182" lon="4.94368">
        <ele>405.80600064</ele>
        <time>2020-05-21T10:52:16.000Z</time>
      </trkpt>
      <trkpt lat="47.1918" lon="4.94364">
        <ele>406</ele>
        <time>2020-05-21T10:52:18.000Z</time>
      </trkpt>
      <trkpt lat="47.19179" lon="4.9436">
        <ele>406</ele>
        <time>2020-05-21T10:52:20.000Z</time>
      </trkpt>
      <trkpt lat="47.19177" lon="4.94357">
        <ele>406</ele>
        <time>2020-05-21T10:52:22.000Z</time>
      </trkpt>
      <trkpt lat="47.19176" lon="4.94354">
        <ele>406</ele>
        <time>2020-05-21T10:52:24.000Z</time>
      </trkpt>
      <trkpt lat="47.19176" lon="4.94351">
        <ele>406</ele>
        <time>2020-05-21T10:52:26.000Z</time>
      </trkpt>
      <trkpt lat="47.19175" lon="4.94349">
        <ele>406</ele>
        <time>2020-05-21T10:52:28.000Z</time>
      </trkpt>
      <trkpt lat="47.19174" lon="4.94345">
        <ele>406</ele>
        <time>2020-05-21T10:52:30.000Z</time>
      </trkpt>
      <trkpt lat="47.19173" lon="4.94341">
        <ele>406</ele>
        <time>2020-05-21T10:52:32.000Z</time>
      </trkpt>
      <trkpt lat="47.19172" lon="4.94337">
        <ele>406</ele>
        <time>2020-05-21T10:52:34.000Z</time>
      </trkpt>
      <trkpt lat="47.19171" lon="4.94334">
        <ele>406</ele>
        <time>2020-05-21T10:52:36.000Z</time>
      </trkpt>
      <trkpt lat="47.19171" lon="4.94331">
        <ele>406</ele>
        <time>2020-05-21T10:52:38.000Z</time>
      </trkpt>
      <trkpt lat="47.1917" lon="4.94328">
        <ele>406</ele>
        <time>2020-05-21T10:52:40.000Z</time>
      </trkpt>
      <trkpt lat="47.1917" lon="4.94324">
        <ele>406</ele>
        <time>2020-05-21T10:52:42.000Z</time>
      </trkpt>
      <trkpt lat="47.19169" lon="4.94321">
        <ele>406</ele>
        <time>2020-05-21T10:52:44.000Z</time>
      </trkpt>
      <trkpt lat="47.19168" lon="4.94318">
        <ele>406</ele>
        <time>2020-05-21T10:52:46.000Z</time>
      </trkpt>
      <trkpt lat="47.19168" lon="4.94315">
        <ele>406.00600064</ele>
        <time>2020-05-21T10:52:48.000Z</time>
      </trkpt>
      <trkpt lat="47.19168" lon="4.94313">
        <ele>406.20600064</ele>
        <time>2020-05-21T10:52:50.000Z</time>
      </trkpt>
      <trkpt lat="47.19169" lon="4.94309">
        <ele>406.40600064</ele>
        <time>2020-05-21T10:52:52.000Z</time>
      </trkpt>
      <trkpt lat="47.19169" lon="4.94305">
        <ele>406.60600064</ele>
        <time>2020-05-21T10:52:54.000Z</time>
      </trkpt>
      <trkpt lat="47.19169" lon="4.94301">
        <ele>406.80600064</ele>
        <time>2020-05-21T10:52:56.000Z</time>
      </trkpt>
      <trkpt lat="47.1917" lon="4.94298">
        <ele>407</ele>
        <time>2020-05-21T10:52:58.000Z</time>
      </trkpt>
      <trkpt lat="47.1917" lon="4.94295">
        <ele>407</ele>
        <time>2020-05-21T10:53:00.000Z</time>
      </trkpt>
      <trkpt lat="47.1917" lon="4.94291">
        <ele>407</ele>
        <time>2020-05-21T10:53:02.000Z</time>
      </trkpt>
      <trkpt lat="47.1917" lon="4.94286">
        <ele>407</ele>
        <time>2020-05-21T10:53:04.000Z</time>
      </trkpt>
      <trkpt lat="47.19169" lon="4.94283">
        <ele>407</ele>
        <time>2020-05-21T10:53:06.000Z</time>
      </trkpt>
      <trkpt lat="47.19168" lon="4.94279">
        <ele>407</ele>
        <time>2020-05-21T10:53:08.000Z</time>
      </trkpt>
      <trkpt lat="47.19168" lon="4.94276">
        <ele>407</ele>
        <time>2020-05-21T10:53:10.000Z</time>
      </trkpt>
      <trkpt lat="47.19167" lon="4.94272">
        <ele>407</ele>
        <time>2020-05-21T10:53:12.000Z</time>
      </trkpt>
      <trkpt lat="47.19166" lon="4.94269">
        <ele>407</ele>
        <time>2020-05-21T10:53:14.000Z</time>
      </trkpt>
      <trkpt lat="47.19165" lon="4.94264">
        <ele>407</ele>
        <time>2020-05-21T10:53:16.000Z</time>
      </trkpt>
      <trkpt lat="47.19163" lon="4.94261">
        <ele>406.99416280883</ele>
        <time>2020-05-21T10:53:18.000Z</time>
      </trkpt>
      <trkpt lat="47.19162" lon="4.94258">
        <ele>406.79961052189</ele>
        <time>2020-05-21T10:53:20.000Z</time>
      </trkpt>
      <trkpt lat="47.19162" lon="4.94255">
        <ele>406.60505823495</ele>
        <time>2020-05-21T10:53:22.000Z</time>
      </trkpt>
      <trkpt lat="47.19161" lon="4.94252">
        <ele>406.41050594801</ele>
        <time>2020-05-21T10:53:24.000Z</time>
      </trkpt>
      <trkpt lat="47.19161" lon="4.94249">
        <ele>406.21595366107</ele>
        <time>2020-05-21T10:53:26.000Z</time>
      </trkpt>
      <trkpt lat="47.19159" lon="4.94246">
        <ele>406.02140137413</ele>
        <time>2020-05-21T10:53:28.000Z</time>
      </trkpt>
      <trkpt lat="47.19158" lon="4.94243">
        <ele>406</ele>
        <time>2020-05-21T10:53:30.000Z</time>
      </trkpt>
      <trkpt lat="47.19157" lon="4.9424">
        <ele>406</ele>
        <time>2020-05-21T10:53:32.000Z</time>
      </trkpt>
      <trkpt lat="47.19157" lon="4.94237">
        <ele>406</ele>
        <time>2020-05-21T10:53:34.000Z</time>
      </trkpt>
      <trkpt lat="47.19156" lon="4.94234">
        <ele>406</ele>
        <time>2020-05-21T10:53:36.000Z</time>
      </trkpt>
      <trkpt lat="47.19155" lon="4.94231">
        <ele>405.99399936</ele>
        <time>2020-05-21T10:53:38.000Z</time>
      </trkpt>
      <trkpt lat="47.19155" lon="4.94228">
        <ele>405.79399936</ele>
        <time>2020-05-21T10:53:40.000Z</time>
      </trkpt>
      <trkpt lat="47.19154" lon="4.94225">
        <ele>405.59399936</ele>
        <time>2020-05-21T10:53:42.000Z</time>
      </trkpt>
      <trkpt lat="47.19152" lon="4.94222">
        <ele>405.39399936</ele>
        <time>2020-05-21T10:53:44.000Z</time>
      </trkpt>
      <trkpt lat="47.19151" lon="4.94219">
        <ele>405.19399936</ele>
        <time>2020-05-21T10:53:46.000Z</time>
      </trkpt>
      <trkpt lat="47.1915" lon="4.94216">
        <ele>405</ele>
        <time>2020-05-21T10:53:48.000Z</time>
      </trkpt>
      <trkpt lat="47.19148" lon="4.94213">
        <ele>405</ele>
        <time>2020-05-21T10:53:50.000Z</time>
      </trkpt>
      <trkpt lat="47.19147" lon="4.9421">
        <ele>405</ele>
        <time>2020-05-21T10:53:52.000Z</time>
      </trkpt>
      <trkpt lat="47.19145" lon="4.94207">
        <ele>405</ele>
        <time>2020-05-21T10:53:54.000Z</time>
      </trkpt>
      <trkpt lat="47.19143" lon="4.94204">
        <ele>405</ele>
        <time>2020-05-21T10:53:56.000Z</time>
      </trkpt>
      <trkpt lat="47.19142" lon="4.94201">
        <ele>404.99401134115</ele>
        <time>2020-05-21T10:53:58.000Z</time>
      </trkpt>
      <trkpt lat="47.19141" lon="4.94198">
        <ele>404.69461033478</ele>
        <time>2020-05-21T10:54:01.000Z</time>
      </trkpt>
      <trkpt lat="47.1914" lon="4.94196">
        <ele>404.49500966387</ele>
        <time>2020-05-21T10:54:03.000Z</time>
      </trkpt>
      <trkpt lat="47.19139" lon="4.94193">
        <ele>404.29540899295</ele>
        <time>2020-05-21T10:54:05.000Z</time>
      </trkpt>
      <trkpt lat="47.19138" lon="4.94189">
        <ele>404.09580832204</ele>
        <time>2020-05-21T10:54:07.000Z</time>
      </trkpt>
      <trkpt lat="47.19137" lon="4.94186">
        <ele>403.89579151634</ele>
        <time>2020-05-21T10:54:09.000Z</time>
      </trkpt>
      <trkpt lat="47.19137" lon="4.94183">
        <ele>403.69539058622</ele>
        <time>2020-05-21T10:54:11.000Z</time>
      </trkpt>
      <trkpt lat="47.19137" lon="4.94179">
        <ele>403.49498965611</ele>
        <time>2020-05-21T10:54:13.000Z</time>
      </trkpt>
      <trkpt lat="47.19135" lon="4.94176">
        <ele>403.29458872599</ele>
        <time>2020-05-21T10:54:15.000Z</time>
      </trkpt>
      <trkpt lat="47.19134" lon="4.94172">
        <ele>403.09418779587</ele>
        <time>2020-05-21T10:54:17.000Z</time>
      </trkpt>
      <trkpt lat="47.19132" lon="4.94168">
        <ele>403</ele>
        <time>2020-05-21T10:54:19.000Z</time>
      </trkpt>
      <trkpt lat="47.19131" lon="4.94165">
        <ele>403</ele>
        <time>2020-05-21T10:54:21.000Z</time>
      </trkpt>
      <trkpt lat="47.1913" lon="4.94161">
        <ele>403</ele>
        <time>2020-05-21T10:54:23.000Z</time>
      </trkpt>
      <trkpt lat="47.19129" lon="4.94158">
        <ele>403</ele>
        <time>2020-05-21T10:54:25.000Z</time>
      </trkpt>
      <trkpt lat="47.19128" lon="4.94154">
        <ele>403</ele>
        <time>2020-05-21T10:54:27.000Z</time>
      </trkpt>
      <trkpt lat="47.19127" lon="4.94151">
        <ele>402.89489511421</ele>
        <time>2020-05-21T10:54:29.000Z</time>
      </trkpt>
      <trkpt lat="47.19127" lon="4.94148">
        <ele>402.69469472163</ele>
        <time>2020-05-21T10:54:31.000Z</time>
      </trkpt>
      <trkpt lat="47.19126" lon="4.94144">
        <ele>402.49449432904</ele>
        <time>2020-05-21T10:54:33.000Z</time>
      </trkpt>
      <trkpt lat="47.19125" lon="4.9414">
        <ele>402.29429393646</ele>
        <time>2020-05-21T10:54:35.000Z</time>
      </trkpt>
      <trkpt lat="47.19125" lon="4.94137">
        <ele>402.09409354387</ele>
        <time>2020-05-21T10:54:37.000Z</time>
      </trkpt>
      <trkpt lat="47.19125" lon="4.94133">
        <ele>401.89399936</ele>
        <time>2020-05-21T10:54:39.000Z</time>
      </trkpt>
      <trkpt lat="47.19125" lon="4.94129">
        <ele>401.69399936</ele>
        <time>2020-05-21T10:54:41.000Z</time>
      </trkpt>
      <trkpt lat="47.19124" lon="4.94126">
        <ele>401.49399936</ele>
        <time>2020-05-21T10:54:43.000Z</time>
      </trkpt>
      <trkpt lat="47.19123" lon="4.94123">
        <ele>401.29399936</ele>
        <time>2020-05-21T10:54:45.000Z</time>
      </trkpt>
      <trkpt lat="47.19121" lon="4.9412">
        <ele>401.09399936</ele>
        <time>2020-05-21T10:54:47.000Z</time>
      </trkpt>
      <trkpt lat="47.19119" lon="4.94117">
        <ele>400.89399936</ele>
        <time>2020-05-21T10:54:49.000Z</time>
      </trkpt>
      <trkpt lat="47.19118" lon="4.94114">
        <ele>400.69399936</ele>
        <time>2020-05-21T10:54:51.000Z</time>
      </trkpt>
      <trkpt lat="47.19117" lon="4.94111">
        <ele>400.49399936</ele>
        <time>2020-05-21T10:54:53.000Z</time>
      </trkpt>
      <trkpt lat="47.19115" lon="4.94108">
        <ele>400.29399936</ele>
        <time>2020-05-21T10:54:55.000Z</time>
      </trkpt>
      <trkpt lat="47.19115" lon="4.94105">
        <ele>400.09399936</ele>
        <time>2020-05-21T10:54:57.000Z</time>
      </trkpt>
      <trkpt lat="47.19116" lon="4.94102">
        <ele>400.10600064</ele>
        <time>2020-05-21T10:54:59.000Z</time>
      </trkpt>
      <trkpt lat="47.19117" lon="4.941">
        <ele>400.30600064</ele>
        <time>2020-05-21T10:55:01.000Z</time>
      </trkpt>
      <trkpt lat="47.19118" lon="4.94097">
        <ele>400.50600064</ele>
        <time>2020-05-21T10:55:03.000Z</time>
      </trkpt>
      <trkpt lat="47.19119" lon="4.94094">
        <ele>400.70600064</ele>
        <time>2020-05-21T10:55:05.000Z</time>
      </trkpt>
      <trkpt lat="47.19119" lon="4.94091">
        <ele>400.90600064</ele>
        <time>2020-05-21T10:55:07.000Z</time>
      </trkpt>
      <trkpt lat="47.1912" lon="4.94088">
        <ele>401</ele>
        <time>2020-05-21T10:55:09.000Z</time>
      </trkpt>
      <trkpt lat="47.1912" lon="4.94084">
        <ele>401</ele>
        <time>2020-05-21T10:55:11.000Z</time>
      </trkpt>
      <trkpt lat="47.19121" lon="4.9408">
        <ele>401</ele>
        <time>2020-05-21T10:55:14.000Z</time>
      </trkpt>
      <trkpt lat="47.19121" lon="4.94077">
        <ele>401</ele>
        <time>2020-05-21T10:55:16.000Z</time>
      </trkpt>
      <trkpt lat="47.19121" lon="4.94073">
        <ele>401</ele>
        <time>2020-05-21T10:55:18.000Z</time>
      </trkpt>
      <trkpt lat="47.19122" lon="4.94069">
        <ele>401</ele>
        <time>2020-05-21T10:55:20.000Z</time>
      </trkpt>
      <trkpt lat="47.19122" lon="4.94065">
        <ele>401</ele>
        <time>2020-05-21T10:55:22.000Z</time>
      </trkpt>
      <trkpt lat="47.19123" lon="4.94062">
        <ele>401</ele>
        <time>2020-05-21T10:55:24.000Z</time>
      </trkpt>
      <trkpt lat="47.19124" lon="4.94058">
        <ele>401</ele>
        <time>2020-05-21T10:55:26.000Z</time>
      </trkpt>
      <trkpt lat="47.19124" lon="4.94055">
        <ele>400.99399936</ele>
        <time>2020-05-21T10:55:28.000Z</time>
      </trkpt>
      <trkpt lat="47.19124" lon="4.94051">
        <ele>400.79399936</ele>
        <time>2020-05-21T10:55:30.000Z</time>
      </trkpt>
      <trkpt lat="47.19125" lon="4.94048">
        <ele>400.59399936</ele>
        <time>2020-05-21T10:55:32.000Z</time>
      </trkpt>
      <trkpt lat="47.19126" lon="4.94045">
        <ele>400.49399936</ele>
        <time>2020-05-21T10:55:33.000Z</time>
      </trkpt>
      <trkpt lat="47.19126" lon="4.94042">
        <ele>400.29399936</ele>
        <time>2020-05-21T10:55:35.000Z</time>
      </trkpt>
      <trkpt lat="47.19126" lon="4.94038">
        <ele>400.09399936</ele>
        <time>2020-05-21T10:55:37.000Z</time>
      </trkpt>
      <trkpt lat="47.19126" lon="4.94035">
        <ele>400</ele>
        <time>2020-05-21T10:55:39.000Z</time>
      </trkpt>
      <trkpt lat="47.19126" lon="4.94031">
        <ele>400</ele>
        <time>2020-05-21T10:55:41.000Z</time>
      </trkpt>
      <trkpt lat="47.19125" lon="4.94028">
        <ele>400</ele>
        <time>2020-05-21T10:55:43.000Z</time>
      </trkpt>
      <trkpt lat="47.19125" lon="4.94024">
        <ele>400</ele>
        <time>2020-05-21T10:55:45.000Z</time>
      </trkpt>
      <trkpt lat="47.19124" lon="4.94021">
        <ele>400</ele>
        <time>2020-05-21T10:55:47.000Z</time>
      </trkpt>
      <trkpt lat="47.19122" lon="4.94018">
        <ele>399.78799872</ele>
        <time>2020-05-21T10:55:49.000Z</time>
      </trkpt>
      <trkpt lat="47.19121" lon="4.94015">
        <ele>399.38799872</ele>
        <time>2020-05-21T10:55:51.000Z</time>
      </trkpt>
      <trkpt lat="47.19119" lon="4.94013">
        <ele>398.98799872</ele>
        <time>2020-05-21T10:55:53.000Z</time>
      </trkpt>
      <trkpt lat="47.19119" lon="4.9401">
        <ele>398.58799872</ele>
        <time>2020-05-21T10:55:55.000Z</time>
      </trkpt>
      <trkpt lat="47.19117" lon="4.94006">
        <ele>398.18799872</ele>
        <time>2020-05-21T10:55:57.000Z</time>
      </trkpt>
      <trkpt lat="47.19115" lon="4.94003">
        <ele>397.68199808</ele>
        <time>2020-05-21T10:55:59.000Z</time>
      </trkpt>
      <trkpt lat="47.19114" lon="4.94">
        <ele>397.08199808</ele>
        <time>2020-05-21T10:56:01.000Z</time>
      </trkpt>
      <trkpt lat="47.19113" lon="4.93997">
        <ele>396.48199808</ele>
        <time>2020-05-21T10:56:03.000Z</time>
      </trkpt>
      <trkpt lat="47.19112" lon="4.93995">
        <ele>395.88199808</ele>
        <time>2020-05-21T10:56:05.000Z</time>
      </trkpt>
      <trkpt lat="47.1911" lon="4.93992">
        <ele>395.28199808</ele>
        <time>2020-05-21T10:56:07.000Z</time>
      </trkpt>
      <trkpt lat="47.19109" lon="4.9399">
        <ele>394.89399936</ele>
        <time>2020-05-21T10:56:09.000Z</time>
      </trkpt>
      <trkpt lat="47.19107" lon="4.93987">
        <ele>394.69399936</ele>
        <time>2020-05-21T10:56:11.000Z</time>
      </trkpt>
      <trkpt lat="47.19105" lon="4.93987">
        <ele>394.09399936</ele>
        <time>2020-05-21T10:56:17.000Z</time>
      </trkpt>
      <trkpt lat="47.19104" lon="4.93984">
        <ele>393.79399936</ele>
        <time>2020-05-21T10:56:20.000Z</time>
      </trkpt>
      <trkpt lat="47.19104" lon="4.93981">
        <ele>393.49399936</ele>
        <time>2020-05-21T10:56:23.000Z</time>
      </trkpt>
      <trkpt lat="47.19103" lon="4.93977">
        <ele>393.19399936</ele>
        <time>2020-05-21T10:56:26.000Z</time>
      </trkpt>
      <trkpt lat="47.19102" lon="4.93975">
        <ele>392.98832561765</ele>
        <time>2020-05-21T10:56:28.000Z</time>
      </trkpt>
      <trkpt lat="47.19101" lon="4.93972">
        <ele>392.59922104377</ele>
        <time>2020-05-21T10:56:30.000Z</time>
      </trkpt>
      <trkpt lat="47.191" lon="4.93969">
        <ele>392.21011646989</ele>
        <time>2020-05-21T10:56:32.000Z</time>
      </trkpt>
      <trkpt lat="47.19099" lon="4.93968">
        <ele>392.01556418296</ele>
        <time>2020-05-21T10:56:33.000Z</time>
      </trkpt>
      <trkpt lat="47.191" lon="4.93965">
        <ele>390</ele>
        <time>2020-05-21T10:56:51.000Z</time>
      </trkpt>
      <trkpt lat="47.19101" lon="4.93962">
        <ele>390</ele>
        <time>2020-05-21T10:56:54.000Z</time>
      </trkpt>
      <trkpt lat="47.19102" lon="4.93959">
        <ele>390</ele>
        <time>2020-05-21T10:56:56.000Z</time>
      </trkpt>
      <trkpt lat="47.19103" lon="4.93956">
        <ele>390</ele>
        <time>2020-05-21T10:56:58.000Z</time>
      </trkpt>
      <trkpt lat="47.19102" lon="4.93953">
        <ele>390</ele>
        <time>2020-05-21T10:57:00.000Z</time>
      </trkpt>
      <trkpt lat="47.191" lon="4.93951">
        <ele>390</ele>
        <time>2020-05-21T10:57:02.000Z</time>
      </trkpt>
      <trkpt lat="47.19099" lon="4.93949">
        <ele>390</ele>
        <time>2020-05-21T10:57:04.000Z</time>
      </trkpt>
      <trkpt lat="47.19097" lon="4.93948">
        <ele>390</ele>
        <time>2020-05-21T10:57:06.000Z</time>
      </trkpt>
      <trkpt lat="47.19096" lon="4.93945">
        <ele>390</ele>
        <time>2020-05-21T10:57:08.000Z</time>
      </trkpt>
      <trkpt lat="47.19094" lon="4.93942">
        <ele>390</ele>
        <time>2020-05-21T10:57:11.000Z</time>
      </trkpt>
      <trkpt lat="47.19093" lon="4.9394">
        <ele>390</ele>
        <time>2020-05-21T10:57:13.000Z</time>
      </trkpt>
      <trkpt lat="47.19091" lon="4.93938">
        <ele>390</ele>
        <time>2020-05-21T10:57:16.000Z</time>
      </trkpt>
      <trkpt lat="47.19089" lon="4.93936">
        <ele>389.96399616</ele>
        <time>2020-05-21T10:57:18.000Z</time>
      </trkpt>
      <trkpt lat="47.19087" lon="4.93935">
        <ele>388.76399616</ele>
        <time>2020-05-21T10:57:20.000Z</time>
      </trkpt>
      <trkpt lat="47.19085" lon="4.93935">
        <ele>387.56399616</ele>
        <time>2020-05-21T10:57:22.000Z</time>
      </trkpt>
      <trkpt lat="47.19084" lon="4.93934">
        <ele>386.96399616</ele>
        <time>2020-05-21T10:57:23.000Z</time>
      </trkpt>
      <trkpt lat="47.19082" lon="4.93933">
        <ele>385.16399616</ele>
        <time>2020-05-21T10:57:26.000Z</time>
      </trkpt>
      <trkpt lat="47.19081" lon="4.93932">
        <ele>383.98799872</ele>
        <time>2020-05-21T10:57:28.000Z</time>
      </trkpt>
      <trkpt lat="47.19078" lon="4.93931">
        <ele>383.58799872</ele>
        <time>2020-05-21T10:57:30.000Z</time>
      </trkpt>
      <trkpt lat="47.19077" lon="4.93929">
        <ele>382.98799872</ele>
        <time>2020-05-21T10:57:33.000Z</time>
      </trkpt>
      <trkpt lat="47.19075" lon="4.93928">
        <ele>382.18799872</ele>
        <time>2020-05-21T10:57:37.000Z</time>
      </trkpt>
      <trkpt lat="47.19073" lon="4.93927">
        <ele>382.61200128</ele>
        <time>2020-05-21T10:57:41.000Z</time>
      </trkpt>
      <trkpt lat="47.19073" lon="4.93925">
        <ele>383.41200128</ele>
        <time>2020-05-21T10:57:45.000Z</time>
      </trkpt>
      <trkpt lat="47.19071" lon="4.93923">
        <ele>384</ele>
        <time>2020-05-21T10:58:01.000Z</time>
      </trkpt>
      <trkpt lat="47.19069" lon="4.93924">
        <ele>384</ele>
        <time>2020-05-21T10:58:17.000Z</time>
      </trkpt>
      <trkpt lat="47.19071" lon="4.93925">
        <ele>384.19399936</ele>
        <time>2020-05-21T10:59:06.000Z</time>
      </trkpt>
      <trkpt lat="47.19073" lon="4.93926">
        <ele>384</ele>
        <time>2020-05-21T10:59:10.000Z</time>
      </trkpt>
      <trkpt lat="47.19073" lon="4.93929">
        <ele>383.89421100569</ele>
        <time>2020-05-21T10:59:19.000Z</time>
      </trkpt>
      <trkpt lat="47.19075" lon="4.93928">
        <ele>382.79179185848</ele>
        <time>2020-05-21T10:59:29.000Z</time>
      </trkpt>
      <trkpt lat="47.19076" lon="4.93929">
        <ele>381.19019076991</ele>
        <time>2020-05-21T10:59:37.000Z</time>
      </trkpt>
      <trkpt lat="47.19078" lon="4.93928">
        <ele>380.60039023806</ele>
        <time>2020-05-21T10:59:40.000Z</time>
      </trkpt>
      <trkpt lat="47.19081" lon="4.93927">
        <ele>380.21052644711</ele>
        <time>2020-05-21T10:59:42.000Z</time>
      </trkpt>
      <trkpt lat="47.19082" lon="4.93925">
        <ele>379</ele>
        <time>2020-05-21T10:59:51.000Z</time>
      </trkpt>
      <trkpt lat="47.19081" lon="4.93923">
        <ele>379</ele>
        <time>2020-05-21T10:59:57.000Z</time>
      </trkpt>
      <trkpt lat="47.19081" lon="4.93922">
        <ele>377.18318239825</ele>
        <time>2020-05-21T11:00:04.000Z</time>
      </trkpt>
      <trkpt lat="47.19074" lon="4.93915">
        <ele>371.58799872</ele>
        <time>2020-05-21T11:01:05.000Z</time>
      </trkpt>
      <trkpt lat="47.19071" lon="4.9393">
        <ele>368</ele>
        <time>2020-05-21T11:01:33.000Z</time>
      </trkpt>
      <trkpt lat="47.19066" lon="4.93917">
        <ele>369</ele>
        <time>2020-05-21T11:02:17.000Z</time>
      </trkpt>
      <trkpt lat="47.19064" lon="4.93905">
        <ele>366.59399936</ele>
        <time>2020-05-21T11:02:42.000Z</time>
      </trkpt>
      <trkpt lat="47.19065" lon="4.93891">
        <ele>365</ele>
        <time>2020-05-21T11:03:16.000Z</time>
      </trkpt>
      <trkpt lat="47.19057" lon="4.93897">
        <ele>365</ele>
        <time>2020-05-21T11:03:23.000Z</time>
      </trkpt>
      <trkpt lat="47.19051" lon="4.93891">
        <ele>364.18799872</ele>
        <time>2020-05-21T11:03:32.000Z</time>
      </trkpt>
      <trkpt lat="47.19051" lon="4.9389">
        <ele>363.78799872</ele>
        <time>2020-05-21T11:03:34.000Z</time>
      </trkpt>
      <trkpt lat="47.19049" lon="4.93889">
        <ele>362.98199808</ele>
        <time>2020-05-21T11:03:38.000Z</time>
      </trkpt>
      <trkpt lat="47.19047" lon="4.93888">
        <ele>362.08199808</ele>
        <time>2020-05-21T11:03:41.000Z</time>
      </trkpt>
      <trkpt lat="47.19047" lon="4.93887">
        <ele>361.48199808</ele>
        <time>2020-05-21T11:03:43.000Z</time>
      </trkpt>
      <trkpt lat="47.19048" lon="4.93889">
        <ele>360</ele>
        <time>2020-05-21T11:03:57.000Z</time>
      </trkpt>
      <trkpt lat="47.19048" lon="4.93891">
        <ele>358.17599744</ele>
        <time>2020-05-21T11:04:30.000Z</time>
      </trkpt>
      <trkpt lat="47.19048" lon="4.93893">
        <ele>356.97599744</ele>
        <time>2020-05-21T11:04:33.000Z</time>
      </trkpt>
      <trkpt lat="47.19043" lon="4.93892">
        <ele>353.29399936</ele>
        <time>2020-05-21T11:04:55.000Z</time>
      </trkpt>
      <trkpt lat="47.19042" lon="4.9389">
        <ele>352.19399936</ele>
        <time>2020-05-21T11:05:06.000Z</time>
      </trkpt>
      <trkpt lat="47.1904" lon="4.93892">
        <ele>351.79133732283</ele>
        <time>2020-05-21T11:05:09.000Z</time>
      </trkpt>
      <trkpt lat="47.19039" lon="4.9389">
        <ele>351.20078614173</ele>
        <time>2020-05-21T11:05:12.000Z</time>
      </trkpt>
      <trkpt lat="47.19038" lon="4.93888">
        <ele>350.80708535433</ele>
        <time>2020-05-21T11:05:14.000Z</time>
      </trkpt>
      <trkpt lat="47.19036" lon="4.93885">
        <ele>350.21653417323</ele>
        <time>2020-05-21T11:05:17.000Z</time>
      </trkpt>
      <trkpt lat="47.19041" lon="4.93889">
        <ele>348.09490532357</ele>
        <time>2020-05-21T11:05:37.000Z</time>
      </trkpt>
      <trkpt lat="47.19039" lon="4.93888">
        <ele>348</ele>
        <time>2020-05-21T11:05:39.000Z</time>
      </trkpt>
      <trkpt lat="47.19037" lon="4.93888">
        <ele>348</ele>
        <time>2020-05-21T11:05:41.000Z</time>
      </trkpt>
      <trkpt lat="47.19035" lon="4.93888">
        <ele>348</ele>
        <time>2020-05-21T11:05:45.000Z</time>
      </trkpt>
      <trkpt lat="47.19035" lon="4.9389">
        <ele>347.39399936</ele>
        <time>2020-05-21T11:05:54.000Z</time>
      </trkpt>
      <trkpt lat="47.19036" lon="4.93893">
        <ele>346.98832561765</ele>
        <time>2020-05-21T11:05:58.000Z</time>
      </trkpt>
      <trkpt lat="47.19035" lon="4.93891">
        <ele>346.01556418296</ele>
        <time>2020-05-21T11:06:03.000Z</time>
      </trkpt>
      <trkpt lat="47.19034" lon="4.93894">
        <ele>345.2373550352</ele>
        <time>2020-05-21T11:06:07.000Z</time>
      </trkpt>
      <trkpt lat="47.19032" lon="4.93895">
        <ele>344.83950727836</ele>
        <time>2020-05-21T11:06:09.000Z</time>
      </trkpt>
      <trkpt lat="47.1903" lon="4.93896">
        <ele>344.01646092703</ele>
        <time>2020-05-21T11:06:13.000Z</time>
      </trkpt>
      <trkpt lat="47.19028" lon="4.93896">
        <ele>342.38199808</ele>
        <time>2020-05-21T11:06:20.000Z</time>
      </trkpt>
      <trkpt lat="47.19027" lon="4.93895">
        <ele>340.88199808</ele>
        <time>2020-05-21T11:06:25.000Z</time>
      </trkpt>
      <trkpt lat="47.19029" lon="4.93893">
        <ele>340.30600064</ele>
        <time>2020-05-21T11:06:31.000Z</time>
      </trkpt>
      <trkpt lat="47.19026" lon="4.93892">
        <ele>339.78799872</ele>
        <time>2020-05-21T11:06:44.000Z</time>
      </trkpt>
      <trkpt lat="47.19027" lon="4.93887">
        <ele>337.98799872</ele>
        <time>2020-05-21T11:06:53.000Z</time>
      </trkpt>
      <trkpt lat="47.19029" lon="4.9389">
        <ele>337.58799872</ele>
        <time>2020-05-21T11:06:55.000Z</time>
      </trkpt>
      <trkpt lat="47.19029" lon="4.93893">
        <ele>337.38799872</ele>
        <time>2020-05-21T11:06:56.000Z</time>
      </trkpt>
      <trkpt lat="47.19031" lon="4.93898">
        <ele>337.18799872</ele>
        <time>2020-05-21T11:06:57.000Z</time>
      </trkpt>
      <trkpt lat="47.19032" lon="4.93901">
        <ele>336.99399936</ele>
        <time>2020-05-21T11:06:58.000Z</time>
      </trkpt>
      <trkpt lat="47.19034" lon="4.93902">
        <ele>336.79399936</ele>
        <time>2020-05-21T11:07:00.000Z</time>
      </trkpt>
      <trkpt lat="47.19035" lon="4.93903">
        <ele>336.49399936</ele>
        <time>2020-05-21T11:07:03.000Z</time>
      </trkpt>
      <trkpt lat="47.19037" lon="4.93904">
        <ele>336.10600064</ele>
        <time>2020-05-21T11:07:09.000Z</time>
      </trkpt>
      <trkpt lat="47.19038" lon="4.93905">
        <ele>336.70600064</ele>
        <time>2020-05-21T11:07:15.000Z</time>
      </trkpt>
      <trkpt lat="47.19036" lon="4.93907">
        <ele>337</ele>
        <time>2020-05-21T11:07:20.000Z</time>
      </trkpt>
      <trkpt lat="47.19038" lon="4.93907">
        <ele>337</ele>
        <time>2020-05-21T11:07:26.000Z</time>
      </trkpt>
      <trkpt lat="47.1904" lon="4.93904">
        <ele>336.89399936</ele>
        <time>2020-05-21T11:07:29.000Z</time>
      </trkpt>
      <trkpt lat="47.19041" lon="4.93902">
        <ele>336.59399936</ele>
        <time>2020-05-21T11:07:32.000Z</time>
      </trkpt>
      <trkpt lat="47.19043" lon="4.93902">
        <ele>336.29399936</ele>
        <time>2020-05-21T11:07:35.000Z</time>
      </trkpt>
      <trkpt lat="47.19041" lon="4.93902">
        <ele>336.09399936</ele>
        <time>2020-05-21T11:08:07.000Z</time>
      </trkpt>
      <trkpt lat="47.19039" lon="4.93904">
        <ele>336.30600064</ele>
        <time>2020-05-21T11:08:11.000Z</time>
      </trkpt>
      <trkpt lat="47.19038" lon="4.93906">
        <ele>336.99399936</ele>
        <time>2020-05-21T11:08:18.000Z</time>
      </trkpt>
      <trkpt lat="47.19036" lon="4.93905">
        <ele>336.49399936</ele>
        <time>2020-05-21T11:08:23.000Z</time>
      </trkpt>
      <trkpt lat="47.19034" lon="4.93904">
        <ele>335.4699968</ele>
        <time>2020-05-21T11:08:29.000Z</time>
      </trkpt>
      <trkpt lat="47.19032" lon="4.93903">
        <ele>333.4699968</ele>
        <time>2020-05-21T11:08:33.000Z</time>
      </trkpt>
      <trkpt lat="47.19028" lon="4.93912">
        <ele>327.59399936</ele>
        <time>2020-05-21T11:09:02.000Z</time>
      </trkpt>
      <trkpt lat="47.19029" lon="4.93925">
        <ele>325</ele>
        <time>2020-05-21T11:09:49.000Z</time>
      </trkpt>
      <trkpt lat="47.19025" lon="4.93937">
        <ele>324.99399936</ele>
        <time>2020-05-21T11:09:58.000Z</time>
      </trkpt>
      <trkpt lat="47.19019" lon="4.93947">
        <ele>324.49399936</ele>
        <time>2020-05-21T11:10:03.000Z</time>
      </trkpt>
      <trkpt lat="47.19015" lon="4.9396">
        <ele>323.18799872</ele>
        <time>2020-05-21T11:10:12.000Z</time>
      </trkpt>
      <trkpt lat="47.19013" lon="4.93972">
        <ele>321.19399936</ele>
        <time>2020-05-21T11:10:26.000Z</time>
      </trkpt>
      <trkpt lat="47.19008" lon="4.93983">
        <ele>320.89399936</ele>
        <time>2020-05-21T11:10:39.000Z</time>
      </trkpt>
      <trkpt lat="47.18998" lon="4.93989">
        <ele>320.19399936</ele>
        <time>2020-05-21T11:10:46.000Z</time>
      </trkpt>
      <trkpt lat="47.18993" lon="4.94">
        <ele>318.62378128731</ele>
        <time>2020-05-21T11:10:55.000Z</time>
      </trkpt>
      <trkpt lat="47.1899" lon="4.94012">
        <ele>317.19917811856</ele>
        <time>2020-05-21T11:11:06.000Z</time>
      </trkpt>
      <trkpt lat="47.18985" lon="4.94024">
        <ele>317</ele>
        <time>2020-05-21T11:11:15.000Z</time>
      </trkpt>
      <trkpt lat="47.18978" lon="4.94034">
        <ele>316.39399936</ele>
        <time>2020-05-21T11:11:24.000Z</time>
      </trkpt>
      <trkpt lat="47.18977" lon="4.94049">
        <ele>315</ele>
        <time>2020-05-21T11:11:38.000Z</time>
      </trkpt>
      <trkpt lat="47.18975" lon="4.94063">
        <ele>314.89399936</ele>
        <time>2020-05-21T11:11:49.000Z</time>
      </trkpt>
      <trkpt lat="47.18969" lon="4.94073">
        <ele>313.98799872</ele>
        <time>2020-05-21T11:11:58.000Z</time>
      </trkpt>
      <trkpt lat="47.18967" lon="4.94086">
        <ele>311.99399936</ele>
        <time>2020-05-21T11:12:08.000Z</time>
      </trkpt>
      <trkpt lat="47.18964" lon="4.941">
        <ele>311.19399936</ele>
        <time>2020-05-21T11:12:16.000Z</time>
      </trkpt>
      <trkpt lat="47.18962" lon="4.94115">
        <ele>311</ele>
        <time>2020-05-21T11:12:23.000Z</time>
      </trkpt>
      <trkpt lat="47.18958" lon="4.94126">
        <ele>310.81622155813</ele>
        <time>2020-05-21T11:12:30.000Z</time>
      </trkpt>
      <trkpt lat="47.18955" lon="4.94131">
        <ele>310.40554420991</ele>
        <time>2020-05-21T11:12:34.000Z</time>
      </trkpt>
      <trkpt lat="47.18953" lon="4.94132">
        <ele>310.09753619874</ele>
        <time>2020-05-21T11:12:37.000Z</time>
      </trkpt>
      <trkpt lat="47.18951" lon="4.94134">
        <ele>309.79479491792</ele>
        <time>2020-05-21T11:12:40.000Z</time>
      </trkpt>
      <trkpt lat="47.1896" lon="4.94129">
        <ele>308.09399936</ele>
        <time>2020-05-21T11:13:07.000Z</time>
      </trkpt>
      <trkpt lat="47.18956" lon="4.94129">
        <ele>308</ele>
        <time>2020-05-21T11:13:11.000Z</time>
      </trkpt>
      <trkpt lat="47.18951" lon="4.94126">
        <ele>308</ele>
        <time>2020-05-21T11:13:15.000Z</time>
      </trkpt>
      <trkpt lat="47.18949" lon="4.94126">
        <ele>308</ele>
        <time>2020-05-21T11:13:18.000Z</time>
      </trkpt>
      <trkpt lat="47.1895" lon="4.94123">
        <ele>308</ele>
        <time>2020-05-21T11:13:21.000Z</time>
      </trkpt>
      <trkpt lat="47.18954" lon="4.94118">
        <ele>308</ele>
        <time>2020-05-21T11:13:35.000Z</time>
      </trkpt>
      <trkpt lat="47.18948" lon="4.94123">
        <ele>309</ele>
        <time>2020-05-21T11:14:35.000Z</time>
      </trkpt>
      <trkpt lat="47.18945" lon="4.94126">
        <ele>308.99399936</ele>
        <time>2020-05-21T11:14:38.000Z</time>
      </trkpt>
      <trkpt lat="47.18944" lon="4.94127">
        <ele>308.79399936</ele>
        <time>2020-05-21T11:14:40.000Z</time>
      </trkpt>
      <trkpt lat="47.18937" lon="4.94138">
        <ele>308</ele>
        <time>2020-05-21T11:14:51.000Z</time>
      </trkpt>
      <trkpt lat="47.18928" lon="4.94141">
        <ele>308</ele>
        <time>2020-05-21T11:15:01.000Z</time>
      </trkpt>
      <trkpt lat="47.18919" lon="4.94145">
        <ele>308</ele>
        <time>2020-05-21T11:15:10.000Z</time>
      </trkpt>
      <trkpt lat="47.1891" lon="4.9415">
        <ele>308</ele>
        <time>2020-05-21T11:15:17.000Z</time>
      </trkpt>
      <trkpt lat="47.18909" lon="4.94152">
        <ele>307.89399936</ele>
        <time>2020-05-21T11:15:19.000Z</time>
      </trkpt>
      <trkpt lat="47.18907" lon="4.94153">
        <ele>307.69399936</ele>
        <time>2020-05-21T11:15:21.000Z</time>
      </trkpt>
      <trkpt lat="47.18905" lon="4.94155">
        <ele>307.49399936</ele>
        <time>2020-05-21T11:15:23.000Z</time>
      </trkpt>
      <trkpt lat="47.18903" lon="4.94158">
        <ele>307.09399936</ele>
        <time>2020-05-21T11:15:27.000Z</time>
      </trkpt>
      <trkpt lat="47.189" lon="4.94158">
        <ele>306.89688666535</ele>
        <time>2020-05-21T11:15:29.000Z</time>
      </trkpt>
      <trkpt lat="47.18898" lon="4.94159">
        <ele>306.70233437842</ele>
        <time>2020-05-21T11:15:31.000Z</time>
      </trkpt>
      <trkpt lat="47.18897" lon="4.94161">
        <ele>306.50778209148</ele>
        <time>2020-05-21T11:15:33.000Z</time>
      </trkpt>
      <trkpt lat="47.18887" lon="4.94163">
        <ele>305.4053496696</ele>
        <time>2020-05-21T11:15:44.000Z</time>
      </trkpt>
      <trkpt lat="47.18878" lon="4.9417">
        <ele>305</ele>
        <time>2020-05-21T11:15:52.000Z</time>
      </trkpt>
      <trkpt lat="47.18873" lon="4.94183">
        <ele>305</ele>
        <time>2020-05-21T11:16:08.000Z</time>
      </trkpt>
      <trkpt lat="47.18865" lon="4.94174">
        <ele>305</ele>
        <time>2020-05-21T11:16:15.000Z</time>
      </trkpt>
      <trkpt lat="47.18873" lon="4.94167">
        <ele>305</ele>
        <time>2020-05-21T11:16:29.000Z</time>
      </trkpt>
      <trkpt lat="47.18873" lon="4.94171">
        <ele>305</ele>
        <time>2020-05-21T11:16:41.000Z</time>
      </trkpt>
      <trkpt lat="47.18871" lon="4.94169">
        <ele>305</ele>
        <time>2020-05-21T11:16:43.000Z</time>
      </trkpt>
      <trkpt lat="47.1887" lon="4.94169">
        <ele>305.00091847246</ele>
        <time>2020-05-21T11:16:46.000Z</time>
      </trkpt>
      <trkpt lat="47.1888" lon="4.94163">
        <ele>313</ele>
        <time>2020-05-21T12:00:19.000Z</time>
      </trkpt>
      <trkpt lat="47.18869" lon="4.94145">
        <ele>314</ele>
        <time>2020-05-21T12:00:52.000Z</time>
      </trkpt>
      <trkpt lat="47.18869" lon="4.94131">
        <ele>314</ele>
        <time>2020-05-21T12:00:58.000Z</time>
      </trkpt>
      <trkpt lat="47.18866" lon="4.94117">
        <ele>314</ele>
        <time>2020-05-21T12:01:07.000Z</time>
      </trkpt>
      <trkpt lat="47.18864" lon="4.94104">
        <ele>314.81200128</ele>
        <time>2020-05-21T12:01:12.000Z</time>
      </trkpt>
      <trkpt lat="47.18864" lon="4.9409">
        <ele>316.10422865284</ele>
        <time>2020-05-21T12:01:19.000Z</time>
      </trkpt>
      <trkpt lat="47.18865" lon="4.94086">
        <ele>316.49754194922</ele>
        <time>2020-05-21T12:01:23.000Z</time>
      </trkpt>
      <trkpt lat="47.18863" lon="4.94084">
        <ele>316.69419859741</ele>
        <time>2020-05-21T12:01:25.000Z</time>
      </trkpt>
      <trkpt lat="47.18859" lon="4.94088">
        <ele>316.9891835697</ele>
        <time>2020-05-21T12:01:28.000Z</time>
      </trkpt>
      <trkpt lat="47.18856" lon="4.94092">
        <ele>317</ele>
        <time>2020-05-21T12:01:30.000Z</time>
      </trkpt>
      <trkpt lat="47.18854" lon="4.94095">
        <ele>317</ele>
        <time>2020-05-21T12:01:31.000Z</time>
      </trkpt>
      <trkpt lat="47.18861" lon="4.94082">
        <ele>317</ele>
        <time>2020-05-21T12:01:48.000Z</time>
      </trkpt>
      <trkpt lat="47.18872" lon="4.94084">
        <ele>317.69753112432</ele>
        <time>2020-05-21T12:01:55.000Z</time>
      </trkpt>
      <trkpt lat="47.18872" lon="4.9408">
        <ele>317.89399936</ele>
        <time>2020-05-21T12:01:59.000Z</time>
      </trkpt>
      <trkpt lat="47.18871" lon="4.94083">
        <ele>317.21200128</ele>
        <time>2020-05-21T12:02:09.000Z</time>
      </trkpt>
      <trkpt lat="47.1887" lon="4.94087">
        <ele>318.01200128</ele>
        <time>2020-05-21T12:02:13.000Z</time>
      </trkpt>
      <trkpt lat="47.18876" lon="4.9409">
        <ele>320.61200128</ele>
        <time>2020-05-21T12:02:26.000Z</time>
      </trkpt>
      <trkpt lat="47.18875" lon="4.9408">
        <ele>322.62400256</ele>
        <time>2020-05-21T12:02:32.000Z</time>
      </trkpt>
      <trkpt lat="47.18876" lon="4.94076">
        <ele>323.42400256</ele>
        <time>2020-05-21T12:02:34.000Z</time>
      </trkpt>
      <trkpt lat="47.18877" lon="4.94076">
        <ele>325</ele>
        <time>2020-05-21T12:02:38.000Z</time>
      </trkpt>
      <trkpt lat="47.18877" lon="4.94073">
        <ele>325</ele>
        <time>2020-05-21T12:02:46.000Z</time>
      </trkpt>
      <trkpt lat="47.18881" lon="4.94074">
        <ele>326.51800192</ele>
        <time>2020-05-21T12:02:53.000Z</time>
      </trkpt>
      <trkpt lat="47.18881" lon="4.94071">
        <ele>328.00600064</ele>
        <time>2020-05-21T12:02:58.000Z</time>
      </trkpt>
      <trkpt lat="47.18881" lon="4.94065">
        <ele>328.60600064</ele>
        <time>2020-05-21T12:03:04.000Z</time>
      </trkpt>
      <trkpt lat="47.1888" lon="4.94062">
        <ele>328.90600064</ele>
        <time>2020-05-21T12:03:07.000Z</time>
      </trkpt>
      <trkpt lat="47.18881" lon="4.9406">
        <ele>329</ele>
        <time>2020-05-21T12:03:12.000Z</time>
      </trkpt>
      <trkpt lat="47.18881" lon="4.94057">
        <ele>329.21200128</ele>
        <time>2020-05-21T12:03:19.000Z</time>
      </trkpt>
      <trkpt lat="47.18881" lon="4.94055">
        <ele>330.01200128</ele>
        <time>2020-05-21T12:03:23.000Z</time>
      </trkpt>
      <trkpt lat="47.18882" lon="4.94053">
        <ele>330.81200128</ele>
        <time>2020-05-21T12:03:27.000Z</time>
      </trkpt>
      <trkpt lat="47.18878" lon="4.94064">
        <ele>333</ele>
        <time>2020-05-21T12:03:41.000Z</time>
      </trkpt>
      <trkpt lat="47.18879" lon="4.94066">
        <ele>333</ele>
        <time>2020-05-21T12:03:46.000Z</time>
      </trkpt>
      <trkpt lat="47.18881" lon="4.94065">
        <ele>333</ele>
        <time>2020-05-21T12:03:48.000Z</time>
      </trkpt>
      <trkpt lat="47.18881" lon="4.94066">
        <ele>333.59506732828</ele>
        <time>2020-05-21T12:03:54.000Z</time>
      </trkpt>
      <trkpt lat="47.18881" lon="4.94064">
        <ele>335.81200128</ele>
        <time>2020-05-21T12:04:07.000Z</time>
      </trkpt>
      <trkpt lat="47.18884" lon="4.9406">
        <ele>336</ele>
        <time>2020-05-21T12:04:11.000Z</time>
      </trkpt>
      <trkpt lat="47.18886" lon="4.94058">
        <ele>336</ele>
        <time>2020-05-21T12:04:15.000Z</time>
      </trkpt>
      <trkpt lat="47.18888" lon="4.9406">
        <ele>337.01200128</ele>
        <time>2020-05-21T12:04:23.000Z</time>
      </trkpt>
      <trkpt lat="47.18891" lon="4.94059">
        <ele>337.81200128</ele>
        <time>2020-05-21T12:04:27.000Z</time>
      </trkpt>
      <trkpt lat="47.18893" lon="4.94059">
        <ele>339.62400256</ele>
        <time>2020-05-21T12:04:32.000Z</time>
      </trkpt>
      <trkpt lat="47.18893" lon="4.94058">
        <ele>340.02400256</ele>
        <time>2020-05-21T12:04:33.000Z</time>
      </trkpt>
      <trkpt lat="47.18893" lon="4.94057">
        <ele>342</ele>
        <time>2020-05-21T12:04:40.000Z</time>
      </trkpt>
      <trkpt lat="47.18894" lon="4.94054">
        <ele>342</ele>
        <time>2020-05-21T12:04:44.000Z</time>
      </trkpt>
      <trkpt lat="47.18896" lon="4.94053">
        <ele>342.01170855489</ele>
        <time>2020-05-21T12:04:48.000Z</time>
      </trkpt>
      <trkpt lat="47.18899" lon="4.94051">
        <ele>342.79219562877</ele>
        <time>2020-05-21T12:04:52.000Z</time>
      </trkpt>
      <trkpt lat="47.189" lon="4.94049">
        <ele>343.37756093419</ele>
        <time>2020-05-21T12:04:55.000Z</time>
      </trkpt>
      <trkpt lat="47.18902" lon="4.94049">
        <ele>345.15282033508</ele>
        <time>2020-05-21T12:05:01.000Z</time>
      </trkpt>
      <trkpt lat="47.18902" lon="4.9405">
        <ele>345.97333396349</ele>
        <time>2020-05-21T12:05:03.000Z</time>
      </trkpt>
      <trkpt lat="47.18901" lon="4.94053">
        <ele>347.61436122029</ele>
        <time>2020-05-21T12:05:07.000Z</time>
      </trkpt>
      <trkpt lat="47.18903" lon="4.94053">
        <ele>348</ele>
        <time>2020-05-21T12:05:11.000Z</time>
      </trkpt>
      <trkpt lat="47.18903" lon="4.9405">
        <ele>348</ele>
        <time>2020-05-21T12:05:30.000Z</time>
      </trkpt>
      <trkpt lat="47.18904" lon="4.94053">
        <ele>347</ele>
        <time>2020-05-21T12:05:57.000Z</time>
      </trkpt>
      <trkpt lat="47.18906" lon="4.94053">
        <ele>347</ele>
        <time>2020-05-21T12:06:05.000Z</time>
      </trkpt>
      <trkpt lat="47.18909" lon="4.94053">
        <ele>347</ele>
        <time>2020-05-21T12:06:09.000Z</time>
      </trkpt>
      <trkpt lat="47.18911" lon="4.94051">
        <ele>347</ele>
        <time>2020-05-21T12:06:14.000Z</time>
      </trkpt>
      <trkpt lat="47.18911" lon="4.94047">
        <ele>347</ele>
        <time>2020-05-21T12:06:17.000Z</time>
      </trkpt>
      <trkpt lat="47.18913" lon="4.94045">
        <ele>347.81200128</ele>
        <time>2020-05-21T12:06:22.000Z</time>
      </trkpt>
      <trkpt lat="47.18914" lon="4.94044">
        <ele>348.21200128</ele>
        <time>2020-05-21T12:06:24.000Z</time>
      </trkpt>
      <trkpt lat="47.18916" lon="4.94044">
        <ele>349.42400256</ele>
        <time>2020-05-21T12:06:29.000Z</time>
      </trkpt>
      <trkpt lat="47.18917" lon="4.94044">
        <ele>351.02400256</ele>
        <time>2020-05-21T12:06:33.000Z</time>
      </trkpt>
      <trkpt lat="47.18916" lon="4.94041">
        <ele>353</ele>
        <time>2020-05-21T12:06:38.000Z</time>
      </trkpt>
      <trkpt lat="47.18914" lon="4.94039">
        <ele>353</ele>
        <time>2020-05-21T12:06:42.000Z</time>
      </trkpt>
      <trkpt lat="47.18913" lon="4.94037">
        <ele>353</ele>
        <time>2020-05-21T12:06:45.000Z</time>
      </trkpt>
      <trkpt lat="47.18912" lon="4.94034">
        <ele>353.41285533387</ele>
        <time>2020-05-21T12:06:49.000Z</time>
      </trkpt>
      <trkpt lat="47.18911" lon="4.94032">
        <ele>354.97079058359</ele>
        <time>2020-05-21T12:06:53.000Z</time>
      </trkpt>
      <trkpt lat="47.18909" lon="4.94031">
        <ele>356.91820964574</ele>
        <time>2020-05-21T12:06:58.000Z</time>
      </trkpt>
      <trkpt lat="47.18907" lon="4.9403">
        <ele>357.38951741485</ele>
        <time>2020-05-21T12:07:02.000Z</time>
      </trkpt>
      <trkpt lat="47.18906" lon="4.94028">
        <ele>357.50600064</ele>
        <time>2020-05-21T12:07:23.000Z</time>
      </trkpt>
      <trkpt lat="47.18905" lon="4.94026">
        <ele>358.21200128</ele>
        <time>2020-05-21T12:07:29.000Z</time>
      </trkpt>
      <trkpt lat="47.18903" lon="4.94025">
        <ele>359.01200128</ele>
        <time>2020-05-21T12:07:33.000Z</time>
      </trkpt>
      <trkpt lat="47.18904" lon="4.94026">
        <ele>361</ele>
        <time>2020-05-21T12:07:55.000Z</time>
      </trkpt>
      <trkpt lat="47.18903" lon="4.94028">
        <ele>361</ele>
        <time>2020-05-21T12:07:58.000Z</time>
      </trkpt>
      <trkpt lat="47.18903" lon="4.94034">
        <ele>361</ele>
        <time>2020-05-21T12:08:10.000Z</time>
      </trkpt>
      <trkpt lat="47.18903" lon="4.94037">
        <ele>361</ele>
        <time>2020-05-21T12:08:14.000Z</time>
      </trkpt>
      <trkpt lat="47.18903" lon="4.9404">
        <ele>360.59399936</ele>
        <time>2020-05-21T12:08:22.000Z</time>
      </trkpt>
      <trkpt lat="47.18901" lon="4.94043">
        <ele>360</ele>
        <time>2020-05-21T12:08:32.000Z</time>
      </trkpt>
      <trkpt lat="47.18903" lon="4.94036">
        <ele>360</ele>
        <time>2020-05-21T12:08:42.000Z</time>
      </trkpt>
      <trkpt lat="47.18904" lon="4.94033">
        <ele>360</ele>
        <time>2020-05-21T12:08:44.000Z</time>
      </trkpt>
      <trkpt lat="47.18906" lon="4.94032">
        <ele>360</ele>
        <time>2020-05-21T12:08:49.000Z</time>
      </trkpt>
      <trkpt lat="47.18907" lon="4.94029">
        <ele>360</ele>
        <time>2020-05-21T12:08:52.000Z</time>
      </trkpt>
      <trkpt lat="47.18905" lon="4.9403">
        <ele>360</ele>
        <time>2020-05-21T12:09:05.000Z</time>
      </trkpt>
      <trkpt lat="47.18905" lon="4.94027">
        <ele>362.01200128</ele>
        <time>2020-05-21T12:09:23.000Z</time>
      </trkpt>
      <trkpt lat="47.1891" lon="4.9403">
        <ele>363</ele>
        <time>2020-05-21T12:09:33.000Z</time>
      </trkpt>
      <trkpt lat="47.18913" lon="4.9403">
        <ele>363</ele>
        <time>2020-05-21T12:09:34.000Z</time>
      </trkpt>
      <trkpt lat="47.18911" lon="4.94031">
        <ele>363</ele>
        <time>2020-05-21T12:09:39.000Z</time>
      </trkpt>
      <trkpt lat="47.18908" lon="4.94029">
        <ele>363</ele>
        <time>2020-05-21T12:09:42.000Z</time>
      </trkpt>
      <trkpt lat="47.18906" lon="4.94028">
        <ele>363</ele>
        <time>2020-05-21T12:09:46.000Z</time>
      </trkpt>
      <trkpt lat="47.18905" lon="4.94026">
        <ele>363.20600064</ele>
        <time>2020-05-21T12:09:50.000Z</time>
      </trkpt>
      <trkpt lat="47.18904" lon="4.94026">
        <ele>364</ele>
        <time>2020-05-21T12:09:59.000Z</time>
      </trkpt>
      <trkpt lat="47.18903" lon="4.94023">
        <ele>364</ele>
        <time>2020-05-21T12:10:07.000Z</time>
      </trkpt>
      <trkpt lat="47.18903" lon="4.94022">
        <ele>366</ele>
        <time>2020-05-21T12:10:23.000Z</time>
      </trkpt>
      <trkpt lat="47.18904" lon="4.94023">
        <ele>366</ele>
        <time>2020-05-21T12:10:34.000Z</time>
      </trkpt>
      <trkpt lat="47.18905" lon="4.94026">
        <ele>366</ele>
        <time>2020-05-21T12:10:37.000Z</time>
      </trkpt>
      <trkpt lat="47.18904" lon="4.94028">
        <ele>366.90600064</ele>
        <time>2020-05-21T12:10:47.000Z</time>
      </trkpt>
      <trkpt lat="47.18903" lon="4.94025">
        <ele>366.41200128</ele>
        <time>2020-05-21T12:11:00.000Z</time>
      </trkpt>
      <trkpt lat="47.18903" lon="4.94024">
        <ele>367.41200128</ele>
        <time>2020-05-21T12:11:05.000Z</time>
      </trkpt>
      <trkpt lat="47.18903" lon="4.94021">
        <ele>367</ele>
        <time>2020-05-21T12:11:22.000Z</time>
      </trkpt>
      <trkpt lat="47.18905" lon="4.94022">
        <ele>368</ele>
        <time>2020-05-21T12:11:42.000Z</time>
      </trkpt>
      <trkpt lat="47.18904" lon="4.94021">
        <ele>368</ele>
        <time>2020-05-21T12:11:52.000Z</time>
      </trkpt>
      <trkpt lat="47.18903" lon="4.94019">
        <ele>368.90600064</ele>
        <time>2020-05-21T12:12:07.000Z</time>
      </trkpt>
      <trkpt lat="47.18901" lon="4.94022">
        <ele>369</ele>
        <time>2020-05-21T12:12:31.000Z</time>
      </trkpt>
      <trkpt lat="47.18903" lon="4.9402">
        <ele>369</ele>
        <time>2020-05-21T12:12:37.000Z</time>
      </trkpt>
      <trkpt lat="47.18902" lon="4.94017">
        <ele>369</ele>
        <time>2020-05-21T12:12:40.000Z</time>
      </trkpt>
      <trkpt lat="47.18902" lon="4.94015">
        <ele>369</ele>
        <time>2020-05-21T12:12:45.000Z</time>
      </trkpt>
      <trkpt lat="47.18904" lon="4.94014">
        <ele>368.90600064</ele>
        <time>2020-05-21T12:13:07.000Z</time>
      </trkpt>
      <trkpt lat="47.18906" lon="4.94017">
        <ele>368</ele>
        <time>2020-05-21T12:13:30.000Z</time>
      </trkpt>
      <trkpt lat="47.18905" lon="4.94021">
        <ele>368</ele>
        <time>2020-05-21T12:13:38.000Z</time>
      </trkpt>
      <trkpt lat="47.18906" lon="4.94019">
        <ele>368</ele>
        <time>2020-05-21T12:13:52.000Z</time>
      </trkpt>
      <trkpt lat="47.18905" lon="4.94021">
        <ele>368.79399936</ele>
        <time>2020-05-21T12:15:00.000Z</time>
      </trkpt>
      <trkpt lat="47.18903" lon="4.94019">
        <ele>368.19399936</ele>
        <time>2020-05-21T12:15:06.000Z</time>
      </trkpt>
      <trkpt lat="47.18904" lon="4.94017">
        <ele>368</ele>
        <time>2020-05-21T12:15:17.000Z</time>
      </trkpt>
      <trkpt lat="47.18906" lon="4.94016">
        <ele>368</ele>
        <time>2020-05-21T12:15:28.000Z</time>
      </trkpt>
      <trkpt lat="47.18908" lon="4.94019">
        <ele>368</ele>
        <time>2020-05-21T12:15:40.000Z</time>
      </trkpt>
      <trkpt lat="47.18906" lon="4.94021">
        <ele>367.40600064</ele>
        <time>2020-05-21T12:16:02.000Z</time>
      </trkpt>
      <trkpt lat="47.18905" lon="4.94025">
        <ele>367.5073023541</ele>
        <time>2020-05-21T12:16:23.000Z</time>
      </trkpt>
      <trkpt lat="47.18903" lon="4.94023">
        <ele>367.80061724172</ele>
        <time>2020-05-21T12:16:36.000Z</time>
      </trkpt>
      <trkpt lat="47.18904" lon="4.94022">
        <ele>368.90600064</ele>
        <time>2020-05-21T12:16:57.000Z</time>
      </trkpt>
      <trkpt lat="47.18905" lon="4.94019">
        <ele>369</ele>
        <time>2020-05-21T12:16:59.000Z</time>
      </trkpt>
      <trkpt lat="47.18903" lon="4.94016">
        <ele>369</ele>
        <time>2020-05-21T12:17:03.000Z</time>
      </trkpt>
      <trkpt lat="47.18902" lon="4.94013">
        <ele>369</ele>
        <time>2020-05-21T12:17:07.000Z</time>
      </trkpt>
      <trkpt lat="47.18902" lon="4.94014">
        <ele>370.21200128</ele>
        <time>2020-05-21T12:17:14.000Z</time>
      </trkpt>
      <trkpt lat="47.189" lon="4.94016">
        <ele>370.58799872</ele>
        <time>2020-05-21T12:17:20.000Z</time>
      </trkpt>
      <trkpt lat="47.18901" lon="4.94018">
        <ele>369.58799872</ele>
        <time>2020-05-21T12:17:25.000Z</time>
      </trkpt>
      <trkpt lat="47.18902" lon="4.94019">
        <ele>367.98799872</ele>
        <time>2020-05-21T12:17:33.000Z</time>
      </trkpt>
      <trkpt lat="47.18903" lon="4.9402">
        <ele>366</ele>
        <time>2020-05-21T12:18:03.000Z</time>
      </trkpt>
      <trkpt lat="47.18905" lon="4.94021">
        <ele>366.50600064</ele>
        <time>2020-05-21T12:18:13.000Z</time>
      </trkpt>
      <trkpt lat="47.18903" lon="4.94018">
        <ele>367</ele>
        <time>2020-05-21T12:18:57.000Z</time>
      </trkpt>
      <trkpt lat="47.18902" lon="4.94016">
        <ele>368.01200128</ele>
        <time>2020-05-21T12:19:03.000Z</time>
      </trkpt>
      <trkpt lat="47.18901" lon="4.94014">
        <ele>369</ele>
        <time>2020-05-21T12:19:13.000Z</time>
      </trkpt>
      <trkpt lat="47.18902" lon="4.94012">
        <ele>369.98539529179</ele>
        <time>2020-05-21T12:19:33.000Z</time>
      </trkpt>
      <trkpt lat="47.18904" lon="4.94011">
        <ele>370.56962101044</ele>
        <time>2020-05-21T12:19:36.000Z</time>
      </trkpt>
      <trkpt lat="47.18905" lon="4.94009">
        <ele>371.5591185192</ele>
        <time>2020-05-21T12:19:41.000Z</time>
      </trkpt>
      <trkpt lat="47.18906" lon="4.94009">
        <ele>371.95991986538</ele>
        <time>2020-05-21T12:19:43.000Z</time>
      </trkpt>
      <trkpt lat="47.18905" lon="4.94008">
        <ele>374</ele>
        <time>2020-05-21T12:21:01.000Z</time>
      </trkpt>
      <trkpt lat="47.18903" lon="4.94007">
        <ele>374</ele>
        <time>2020-05-21T12:21:04.000Z</time>
      </trkpt>
      <trkpt lat="47.18905" lon="4.94007">
        <ele>373.09399936</ele>
        <time>2020-05-21T12:21:17.000Z</time>
      </trkpt>
      <trkpt lat="47.18905" lon="4.94004">
        <ele>373.30600064</ele>
        <time>2020-05-21T12:21:21.000Z</time>
      </trkpt>
      <trkpt lat="47.18905" lon="4.94001">
        <ele>373.50600064</ele>
        <time>2020-05-21T12:21:23.000Z</time>
      </trkpt>
      <trkpt lat="47.18907" lon="4.93999">
        <ele>373.90600064</ele>
        <time>2020-05-21T12:21:27.000Z</time>
      </trkpt>
      <trkpt lat="47.18908" lon="4.93998">
        <ele>374</ele>
        <time>2020-05-21T12:21:29.000Z</time>
      </trkpt>
      <trkpt lat="47.1891" lon="4.93998">
        <ele>374</ele>
        <time>2020-05-21T12:21:31.000Z</time>
      </trkpt>
      <trkpt lat="47.18912" lon="4.93995">
        <ele>374</ele>
        <time>2020-05-21T12:21:36.000Z</time>
      </trkpt>
      <trkpt lat="47.18913" lon="4.93992">
        <ele>374</ele>
        <time>2020-05-21T12:21:39.000Z</time>
      </trkpt>
      <trkpt lat="47.18914" lon="4.93989">
        <ele>374</ele>
        <time>2020-05-21T12:21:42.000Z</time>
      </trkpt>
      <trkpt lat="47.18916" lon="4.93987">
        <ele>374</ele>
        <time>2020-05-21T12:21:45.000Z</time>
      </trkpt>
      <trkpt lat="47.18917" lon="4.93985">
        <ele>374.10600064</ele>
        <time>2020-05-21T12:21:49.000Z</time>
      </trkpt>
      <trkpt lat="47.18919" lon="4.93983">
        <ele>374.50600064</ele>
        <time>2020-05-21T12:21:53.000Z</time>
      </trkpt>
      <trkpt lat="47.1892" lon="4.9398">
        <ele>374.80600064</ele>
        <time>2020-05-21T12:21:56.000Z</time>
      </trkpt>
      <trkpt lat="47.18921" lon="4.93978">
        <ele>375.10600064</ele>
        <time>2020-05-21T12:21:59.000Z</time>
      </trkpt>
      <trkpt lat="47.18922" lon="4.93974">
        <ele>375.40600064</ele>
        <time>2020-05-21T12:22:02.000Z</time>
      </trkpt>
      <trkpt lat="47.18923" lon="4.93972">
        <ele>375.60600064</ele>
        <time>2020-05-21T12:22:04.000Z</time>
      </trkpt>
      <trkpt lat="47.18924" lon="4.93969">
        <ele>375.90600064</ele>
        <time>2020-05-21T12:22:07.000Z</time>
      </trkpt>
      <trkpt lat="47.18924" lon="4.93966">
        <ele>376</ele>
        <time>2020-05-21T12:22:10.000Z</time>
      </trkpt>
      <trkpt lat="47.18926" lon="4.93965">
        <ele>376</ele>
        <time>2020-05-21T12:22:15.000Z</time>
      </trkpt>
      <trkpt lat="47.18927" lon="4.93962">
        <ele>376.01200128</ele>
        <time>2020-05-21T12:22:18.000Z</time>
      </trkpt>
      <trkpt lat="47.18928" lon="4.93959">
        <ele>376.61200128</ele>
        <time>2020-05-21T12:22:21.000Z</time>
      </trkpt>
      <trkpt lat="47.1893" lon="4.93959">
        <ele>377.41200128</ele>
        <time>2020-05-21T12:22:25.000Z</time>
      </trkpt>
      <trkpt lat="47.18928" lon="4.93956">
        <ele>378</ele>
        <time>2020-05-21T12:22:37.000Z</time>
      </trkpt>
      <trkpt lat="47.18928" lon="4.93953">
        <ele>377.79941521342</ele>
        <time>2020-05-21T12:22:40.000Z</time>
      </trkpt>
      <trkpt lat="47.18928" lon="4.93949">
        <ele>377.5073023541</ele>
        <time>2020-05-21T12:22:43.000Z</time>
      </trkpt>
      <trkpt lat="47.18928" lon="4.93945">
        <ele>377.21518949478</ele>
        <time>2020-05-21T12:22:46.000Z</time>
      </trkpt>
      <trkpt lat="47.18928" lon="4.93942">
        <ele>377.02044758857</ele>
        <time>2020-05-21T12:22:48.000Z</time>
      </trkpt>
      <trkpt lat="47.18928" lon="4.9394">
        <ele>377.38951741485</ele>
        <time>2020-05-21T12:22:52.000Z</time>
      </trkpt>
      <trkpt lat="47.1893" lon="4.93938">
        <ele>377.697842285</ele>
        <time>2020-05-21T12:22:55.000Z</time>
      </trkpt>
      <trkpt lat="47.18931" lon="4.93935">
        <ele>377.99399936</ele>
        <time>2020-05-21T12:22:58.000Z</time>
      </trkpt>
      <trkpt lat="47.18933" lon="4.93933">
        <ele>377.79399936</ele>
        <time>2020-05-21T12:23:00.000Z</time>
      </trkpt>
      <trkpt lat="47.18934" lon="4.9393">
        <ele>377.49399936</ele>
        <time>2020-05-21T12:23:03.000Z</time>
      </trkpt>
      <trkpt lat="47.18936" lon="4.93929">
        <ele>377.29399936</ele>
        <time>2020-05-21T12:23:05.000Z</time>
      </trkpt>
      <trkpt lat="47.18938" lon="4.93927">
        <ele>377.00600064</ele>
        <time>2020-05-21T12:23:08.000Z</time>
      </trkpt>
      <trkpt lat="47.18939" lon="4.93924">
        <ele>377.20600064</ele>
        <time>2020-05-21T12:23:10.000Z</time>
      </trkpt>
      <trkpt lat="47.1894" lon="4.9392">
        <ele>377.50600064</ele>
        <time>2020-05-21T12:23:13.000Z</time>
      </trkpt>
      <trkpt lat="47.18942" lon="4.93917">
        <ele>377.70600064</ele>
        <time>2020-05-21T12:23:15.000Z</time>
      </trkpt>
      <trkpt lat="47.18943" lon="4.93913">
        <ele>377.90600064</ele>
        <time>2020-05-21T12:23:17.000Z</time>
      </trkpt>
      <trkpt lat="47.18943" lon="4.9391">
        <ele>378</ele>
        <time>2020-05-21T12:23:20.000Z</time>
      </trkpt>
      <trkpt lat="47.18943" lon="4.93907">
        <ele>378</ele>
        <time>2020-05-21T12:23:23.000Z</time>
      </trkpt>
      <trkpt lat="47.18944" lon="4.93902">
        <ele>378</ele>
        <time>2020-05-21T12:23:26.000Z</time>
      </trkpt>
      <trkpt lat="47.18945" lon="4.93899">
        <ele>378.00600064</ele>
        <time>2020-05-21T12:23:28.000Z</time>
      </trkpt>
      <trkpt lat="47.18945" lon="4.93896">
        <ele>378.20600064</ele>
        <time>2020-05-21T12:23:30.000Z</time>
      </trkpt>
      <trkpt lat="47.18946" lon="4.93893">
        <ele>378.40600064</ele>
        <time>2020-05-21T12:23:32.000Z</time>
      </trkpt>
      <trkpt lat="47.18946" lon="4.9389">
        <ele>378.60600064</ele>
        <time>2020-05-21T12:23:34.000Z</time>
      </trkpt>
      <trkpt lat="47.18946" lon="4.93888">
        <ele>378.80600064</ele>
        <time>2020-05-21T12:23:36.000Z</time>
      </trkpt>
      <trkpt lat="47.18948" lon="4.93885">
        <ele>379.00600064</ele>
        <time>2020-05-21T12:23:38.000Z</time>
      </trkpt>
      <trkpt lat="47.18948" lon="4.93883">
        <ele>379.20600064</ele>
        <time>2020-05-21T12:23:40.000Z</time>
      </trkpt>
      <trkpt lat="47.1895" lon="4.9388">
        <ele>379.40600064</ele>
        <time>2020-05-21T12:23:42.000Z</time>
      </trkpt>
      <trkpt lat="47.18951" lon="4.93878">
        <ele>379.60600064</ele>
        <time>2020-05-21T12:23:44.000Z</time>
      </trkpt>
      <trkpt lat="47.18952" lon="4.93875">
        <ele>379.80600064</ele>
        <time>2020-05-21T12:23:46.000Z</time>
      </trkpt>
      <trkpt lat="47.18952" lon="4.93871">
        <ele>380.10600064</ele>
        <time>2020-05-21T12:23:49.000Z</time>
      </trkpt>
      <trkpt lat="47.18952" lon="4.93868">
        <ele>380.30600064</ele>
        <time>2020-05-21T12:23:51.000Z</time>
      </trkpt>
      <trkpt lat="47.18952" lon="4.93865">
        <ele>380.50600064</ele>
        <time>2020-05-21T12:23:53.000Z</time>
      </trkpt>
      <trkpt lat="47.18952" lon="4.93862">
        <ele>380.70600064</ele>
        <time>2020-05-21T12:23:55.000Z</time>
      </trkpt>
      <trkpt lat="47.18952" lon="4.93859">
        <ele>380.90600064</ele>
        <time>2020-05-21T12:23:57.000Z</time>
      </trkpt>
      <trkpt lat="47.18952" lon="4.93856">
        <ele>381.20600064</ele>
        <time>2020-05-21T12:24:00.000Z</time>
      </trkpt>
      <trkpt lat="47.18953" lon="4.93852">
        <ele>381.40600064</ele>
        <time>2020-05-21T12:24:02.000Z</time>
      </trkpt>
      <trkpt lat="47.18953" lon="4.93848">
        <ele>381.70600064</ele>
        <time>2020-05-21T12:24:05.000Z</time>
      </trkpt>
      <trkpt lat="47.18953" lon="4.93845">
        <ele>381.90600064</ele>
        <time>2020-05-21T12:24:07.000Z</time>
      </trkpt>
      <trkpt lat="47.18953" lon="4.93841">
        <ele>382.10600064</ele>
        <time>2020-05-21T12:24:09.000Z</time>
      </trkpt>
      <trkpt lat="47.18952" lon="4.93839">
        <ele>382.30600064</ele>
        <time>2020-05-21T12:24:11.000Z</time>
      </trkpt>
      <trkpt lat="47.18952" lon="4.93836">
        <ele>382.50600064</ele>
        <time>2020-05-21T12:24:13.000Z</time>
      </trkpt>
      <trkpt lat="47.18953" lon="4.93833">
        <ele>382.70600064</ele>
        <time>2020-05-21T12:24:15.000Z</time>
      </trkpt>
      <trkpt lat="47.18954" lon="4.9383">
        <ele>382.90600064</ele>
        <time>2020-05-21T12:24:17.000Z</time>
      </trkpt>
      <trkpt lat="47.18955" lon="4.93826">
        <ele>383</ele>
        <time>2020-05-21T12:24:20.000Z</time>
      </trkpt>
      <trkpt lat="47.18955" lon="4.93823">
        <ele>383</ele>
        <time>2020-05-21T12:24:22.000Z</time>
      </trkpt>
      <trkpt lat="47.18954" lon="4.93819">
        <ele>383</ele>
        <time>2020-05-21T12:24:25.000Z</time>
      </trkpt>
      <trkpt lat="47.18953" lon="4.93816">
        <ele>383</ele>
        <time>2020-05-21T12:24:27.000Z</time>
      </trkpt>
      <trkpt lat="47.18954" lon="4.93814">
        <ele>383.10600064</ele>
        <time>2020-05-21T12:24:29.000Z</time>
      </trkpt>
      <trkpt lat="47.18955" lon="4.93811">
        <ele>383.30600064</ele>
        <time>2020-05-21T12:24:31.000Z</time>
      </trkpt>
      <trkpt lat="47.18956" lon="4.93808">
        <ele>383.60600064</ele>
        <time>2020-05-21T12:24:34.000Z</time>
      </trkpt>
      <trkpt lat="47.18957" lon="4.93806">
        <ele>383.80600064</ele>
        <time>2020-05-21T12:24:36.000Z</time>
      </trkpt>
      <trkpt lat="47.18957" lon="4.93803">
        <ele>384.00600064</ele>
        <time>2020-05-21T12:24:38.000Z</time>
      </trkpt>
      <trkpt lat="47.18958" lon="4.93799">
        <ele>384.30600064</ele>
        <time>2020-05-21T12:24:41.000Z</time>
      </trkpt>
      <trkpt lat="47.18958" lon="4.93796">
        <ele>384.50600064</ele>
        <time>2020-05-21T12:24:43.000Z</time>
      </trkpt>
      <trkpt lat="47.18957" lon="4.93793">
        <ele>384.70600064</ele>
        <time>2020-05-21T12:24:45.000Z</time>
      </trkpt>
      <trkpt lat="47.18958" lon="4.93789">
        <ele>385.00600064</ele>
        <time>2020-05-21T12:24:48.000Z</time>
      </trkpt>
      <trkpt lat="47.18959" lon="4.93786">
        <ele>385.20600064</ele>
        <time>2020-05-21T12:24:50.000Z</time>
      </trkpt>
      <trkpt lat="47.18959" lon="4.93784">
        <ele>385.50600064</ele>
        <time>2020-05-21T12:24:53.000Z</time>
      </trkpt>
      <trkpt lat="47.18957" lon="4.93782">
        <ele>386</ele>
        <time>2020-05-21T12:24:59.000Z</time>
      </trkpt>
      <trkpt lat="47.18956" lon="4.9378">
        <ele>386</ele>
        <time>2020-05-21T12:25:01.000Z</time>
      </trkpt>
      <trkpt lat="47.18956" lon="4.93777">
        <ele>386</ele>
        <time>2020-05-21T12:25:04.000Z</time>
      </trkpt>
      <trkpt lat="47.18955" lon="4.93773">
        <ele>386</ele>
        <time>2020-05-21T12:25:07.000Z</time>
      </trkpt>
      <trkpt lat="47.18955" lon="4.93769">
        <ele>386.41200128</ele>
        <time>2020-05-21T12:25:10.000Z</time>
      </trkpt>
      <trkpt lat="47.18956" lon="4.93766">
        <ele>387.01200128</ele>
        <time>2020-05-21T12:25:13.000Z</time>
      </trkpt>
      <trkpt lat="47.18956" lon="4.93762">
        <ele>387.61200128</ele>
        <time>2020-05-21T12:25:16.000Z</time>
      </trkpt>
      <trkpt lat="47.18957" lon="4.93759">
        <ele>388.00600064</ele>
        <time>2020-05-21T12:25:18.000Z</time>
      </trkpt>
      <trkpt lat="47.18958" lon="4.93757">
        <ele>388.20600064</ele>
        <time>2020-05-21T12:25:20.000Z</time>
      </trkpt>
      <trkpt lat="47.18959" lon="4.93754">
        <ele>388.40600064</ele>
        <time>2020-05-21T12:25:22.000Z</time>
      </trkpt>
      <trkpt lat="47.18959" lon="4.93752">
        <ele>388.60600064</ele>
        <time>2020-05-21T12:25:24.000Z</time>
      </trkpt>
      <trkpt lat="47.18961" lon="4.9375">
        <ele>388.80600064</ele>
        <time>2020-05-21T12:25:26.000Z</time>
      </trkpt>
      <trkpt lat="47.18962" lon="4.93748">
        <ele>389</ele>
        <time>2020-05-21T12:25:28.000Z</time>
      </trkpt>
      <trkpt lat="47.18963" lon="4.93744">
        <ele>389</ele>
        <time>2020-05-21T12:25:30.000Z</time>
      </trkpt>
      <trkpt lat="47.18963" lon="4.93741">
        <ele>389</ele>
        <time>2020-05-21T12:25:32.000Z</time>
      </trkpt>
      <trkpt lat="47.18962" lon="4.93739">
        <ele>389</ele>
        <time>2020-05-21T12:25:34.000Z</time>
      </trkpt>
      <trkpt lat="47.18961" lon="4.93735">
        <ele>389</ele>
        <time>2020-05-21T12:25:36.000Z</time>
      </trkpt>
      <trkpt lat="47.18962" lon="4.93733">
        <ele>389</ele>
        <time>2020-05-21T12:25:38.000Z</time>
      </trkpt>
      <trkpt lat="47.18962" lon="4.93729">
        <ele>389</ele>
        <time>2020-05-21T12:25:41.000Z</time>
      </trkpt>
      <trkpt lat="47.18962" lon="4.93726">
        <ele>389</ele>
        <time>2020-05-21T12:25:43.000Z</time>
      </trkpt>
      <trkpt lat="47.18962" lon="4.93722">
        <ele>389</ele>
        <time>2020-05-21T12:25:46.000Z</time>
      </trkpt>
      <trkpt lat="47.18962" lon="4.93719">
        <ele>389.00584288036</ele>
        <time>2020-05-21T12:25:48.000Z</time>
      </trkpt>
      <trkpt lat="47.18962" lon="4.93716">
        <ele>389.20058478658</ele>
        <time>2020-05-21T12:25:50.000Z</time>
      </trkpt>
      <trkpt lat="47.18963" lon="4.93714">
        <ele>389.4926976459</ele>
        <time>2020-05-21T12:25:53.000Z</time>
      </trkpt>
      <trkpt lat="47.18965" lon="4.93712">
        <ele>389.78481050522</ele>
        <time>2020-05-21T12:25:56.000Z</time>
      </trkpt>
      <trkpt lat="47.18968" lon="4.9371">
        <ele>390.08119254469</ele>
        <time>2020-05-21T12:25:59.000Z</time>
      </trkpt>
      <trkpt lat="47.1897" lon="4.93708">
        <ele>390.28674245813</ele>
        <time>2020-05-21T12:26:01.000Z</time>
      </trkpt>
      <trkpt lat="47.18971" lon="4.93706">
        <ele>390.49229237157</ele>
        <time>2020-05-21T12:26:03.000Z</time>
      </trkpt>
      <trkpt lat="47.18973" lon="4.93704">
        <ele>390.697842285</ele>
        <time>2020-05-21T12:26:05.000Z</time>
      </trkpt>
      <trkpt lat="47.18974" lon="4.93702">
        <ele>390.90339219844</ele>
        <time>2020-05-21T12:26:07.000Z</time>
      </trkpt>
      <trkpt lat="47.18975" lon="4.93698">
        <ele>391.40551307087</ele>
        <time>2020-05-21T12:26:10.000Z</time>
      </trkpt>
      <trkpt lat="47.18976" lon="4.93695">
        <ele>391.79921385827</ele>
        <time>2020-05-21T12:26:12.000Z</time>
      </trkpt>
      <trkpt lat="47.18976" lon="4.93693">
        <ele>392.19291464567</ele>
        <time>2020-05-21T12:26:14.000Z</time>
      </trkpt>
      <trkpt lat="47.18978" lon="4.9369">
        <ele>392.58661543307</ele>
        <time>2020-05-21T12:26:16.000Z</time>
      </trkpt>
      <trkpt lat="47.18978" lon="4.93686">
        <ele>392.98031622047</ele>
        <time>2020-05-21T12:26:18.000Z</time>
      </trkpt>
      <trkpt lat="47.18979" lon="4.93683">
        <ele>393</ele>
        <time>2020-05-21T12:26:20.000Z</time>
      </trkpt>
      <trkpt lat="47.1898" lon="4.93681">
        <ele>393</ele>
        <time>2020-05-21T12:26:22.000Z</time>
      </trkpt>
      <trkpt lat="47.18981" lon="4.93678">
        <ele>393</ele>
        <time>2020-05-21T12:26:24.000Z</time>
      </trkpt>
      <trkpt lat="47.18981" lon="4.93676">
        <ele>393</ele>
        <time>2020-05-21T12:26:26.000Z</time>
      </trkpt>
      <trkpt lat="47.18982" lon="4.93672">
        <ele>393</ele>
        <time>2020-05-21T12:26:29.000Z</time>
      </trkpt>
      <trkpt lat="47.18982" lon="4.93669">
        <ele>393</ele>
        <time>2020-05-21T12:26:31.000Z</time>
      </trkpt>
      <trkpt lat="47.18983" lon="4.93666">
        <ele>393</ele>
        <time>2020-05-21T12:26:33.000Z</time>
      </trkpt>
      <trkpt lat="47.18985" lon="4.93662">
        <ele>393</ele>
        <time>2020-05-21T12:26:35.000Z</time>
      </trkpt>
      <trkpt lat="47.18985" lon="4.9366">
        <ele>393</ele>
        <time>2020-05-21T12:26:37.000Z</time>
      </trkpt>
      <trkpt lat="47.18986" lon="4.93657">
        <ele>393.20600064</ele>
        <time>2020-05-21T12:26:40.000Z</time>
      </trkpt>
      <trkpt lat="47.18988" lon="4.93655">
        <ele>393.40600064</ele>
        <time>2020-05-21T12:26:42.000Z</time>
      </trkpt>
      <trkpt lat="47.1899" lon="4.93653">
        <ele>393.60600064</ele>
        <time>2020-05-21T12:26:44.000Z</time>
      </trkpt>
      <trkpt lat="47.18992" lon="4.9365">
        <ele>393.90600064</ele>
        <time>2020-05-21T12:26:47.000Z</time>
      </trkpt>
      <trkpt lat="47.18993" lon="4.93647">
        <ele>394.10600064</ele>
        <time>2020-05-21T12:26:49.000Z</time>
      </trkpt>
      <trkpt lat="47.18995" lon="4.93644">
        <ele>394.30600064</ele>
        <time>2020-05-21T12:26:51.000Z</time>
      </trkpt>
      <trkpt lat="47.18996" lon="4.93641">
        <ele>394.50600064</ele>
        <time>2020-05-21T12:26:53.000Z</time>
      </trkpt>
      <trkpt lat="47.18996" lon="4.93639">
        <ele>394.70600064</ele>
        <time>2020-05-21T12:26:55.000Z</time>
      </trkpt>
      <trkpt lat="47.18997" lon="4.93635">
        <ele>394.90600064</ele>
        <time>2020-05-21T12:26:57.000Z</time>
      </trkpt>
      <trkpt lat="47.18998" lon="4.93632">
        <ele>395</ele>
        <time>2020-05-21T12:26:59.000Z</time>
      </trkpt>
      <trkpt lat="47.18998" lon="4.93629">
        <ele>395</ele>
        <time>2020-05-21T12:27:02.000Z</time>
      </trkpt>
      <trkpt lat="47.18999" lon="4.93627">
        <ele>395</ele>
        <time>2020-05-21T12:27:04.000Z</time>
      </trkpt>
      <trkpt lat="47.18999" lon="4.93623">
        <ele>395</ele>
        <time>2020-05-21T12:27:06.000Z</time>
      </trkpt>
      <trkpt lat="47.19" lon="4.93621">
        <ele>395</ele>
        <time>2020-05-21T12:27:08.000Z</time>
      </trkpt>
      <trkpt lat="47.19002" lon="4.93618">
        <ele>395</ele>
        <time>2020-05-21T12:27:10.000Z</time>
      </trkpt>
      <trkpt lat="47.19003" lon="4.93615">
        <ele>395</ele>
        <time>2020-05-21T12:27:12.000Z</time>
      </trkpt>
      <trkpt lat="47.19005" lon="4.93612">
        <ele>395</ele>
        <time>2020-05-21T12:27:14.000Z</time>
      </trkpt>
      <trkpt lat="47.19006" lon="4.93609">
        <ele>395</ele>
        <time>2020-05-21T12:27:16.000Z</time>
      </trkpt>
      <trkpt lat="47.19007" lon="4.93606">
        <ele>395</ele>
        <time>2020-05-21T12:27:18.000Z</time>
      </trkpt>
      <trkpt lat="47.19008" lon="4.93603">
        <ele>395</ele>
        <time>2020-05-21T12:27:20.000Z</time>
      </trkpt>
      <trkpt lat="47.19008" lon="4.936">
        <ele>395</ele>
        <time>2020-05-21T12:27:22.000Z</time>
      </trkpt>
      <trkpt lat="47.1901" lon="4.93598">
        <ele>395</ele>
        <time>2020-05-21T12:27:24.000Z</time>
      </trkpt>
      <trkpt lat="47.19009" lon="4.93594">
        <ele>395</ele>
        <time>2020-05-21T12:27:26.000Z</time>
      </trkpt>
      <trkpt lat="47.19011" lon="4.93591">
        <ele>395.10420848366</ele>
        <time>2020-05-21T12:27:29.000Z</time>
      </trkpt>
      <trkpt lat="47.19012" lon="4.93589">
        <ele>395.30460941378</ele>
        <time>2020-05-21T12:27:31.000Z</time>
      </trkpt>
      <trkpt lat="47.19014" lon="4.93587">
        <ele>395.50501034389</ele>
        <time>2020-05-21T12:27:33.000Z</time>
      </trkpt>
      <trkpt lat="47.19016" lon="4.93586">
        <ele>395.70541127401</ele>
        <time>2020-05-21T12:27:35.000Z</time>
      </trkpt>
      <trkpt lat="47.19019" lon="4.93583">
        <ele>396</ele>
        <time>2020-05-21T12:27:38.000Z</time>
      </trkpt>
      <trkpt lat="47.19021" lon="4.93581">
        <ele>396</ele>
        <time>2020-05-21T12:27:40.000Z</time>
      </trkpt>
      <trkpt lat="47.19022" lon="4.93578">
        <ele>396</ele>
        <time>2020-05-21T12:27:42.000Z</time>
      </trkpt>
      <trkpt lat="47.19024" lon="4.93575">
        <ele>396</ele>
        <time>2020-05-21T12:27:44.000Z</time>
      </trkpt>
      <trkpt lat="47.19027" lon="4.93572">
        <ele>396</ele>
        <time>2020-05-21T12:27:46.000Z</time>
      </trkpt>
      <trkpt lat="47.19029" lon="4.9357">
        <ele>396</ele>
        <time>2020-05-21T12:27:48.000Z</time>
      </trkpt>
      <trkpt lat="47.1903" lon="4.93567">
        <ele>396</ele>
        <time>2020-05-21T12:27:50.000Z</time>
      </trkpt>
      <trkpt lat="47.19032" lon="4.93566">
        <ele>396</ele>
        <time>2020-05-21T12:27:52.000Z</time>
      </trkpt>
      <trkpt lat="47.19032" lon="4.93562">
        <ele>396</ele>
        <time>2020-05-21T12:27:55.000Z</time>
      </trkpt>
      <trkpt lat="47.19033" lon="4.93559">
        <ele>396</ele>
        <time>2020-05-21T12:27:57.000Z</time>
      </trkpt>
      <trkpt lat="47.19035" lon="4.93556">
        <ele>396</ele>
        <time>2020-05-21T12:27:59.000Z</time>
      </trkpt>
      <trkpt lat="47.19035" lon="4.93552">
        <ele>396</ele>
        <time>2020-05-21T12:28:01.000Z</time>
      </trkpt>
      <trkpt lat="47.19036" lon="4.93548">
        <ele>396</ele>
        <time>2020-05-21T12:28:03.000Z</time>
      </trkpt>
      <trkpt lat="47.19038" lon="4.93545">
        <ele>396</ele>
        <time>2020-05-21T12:28:05.000Z</time>
      </trkpt>
      <trkpt lat="47.1904" lon="4.93543">
        <ele>396</ele>
        <time>2020-05-21T12:28:07.000Z</time>
      </trkpt>
      <trkpt lat="47.19041" lon="4.9354">
        <ele>396</ele>
        <time>2020-05-21T12:28:09.000Z</time>
      </trkpt>
      <trkpt lat="47.19043" lon="4.93537">
        <ele>396</ele>
        <time>2020-05-21T12:28:11.000Z</time>
      </trkpt>
      <trkpt lat="47.19045" lon="4.93533">
        <ele>396</ele>
        <time>2020-05-21T12:28:13.000Z</time>
      </trkpt>
      <trkpt lat="47.19045" lon="4.9353">
        <ele>396</ele>
        <time>2020-05-21T12:28:15.000Z</time>
      </trkpt>
      <trkpt lat="47.19046" lon="4.93528">
        <ele>396</ele>
        <time>2020-05-21T12:28:17.000Z</time>
      </trkpt>
      <trkpt lat="47.19047" lon="4.93525">
        <ele>396</ele>
        <time>2020-05-21T12:28:19.000Z</time>
      </trkpt>
      <trkpt lat="47.19049" lon="4.93523">
        <ele>396</ele>
        <time>2020-05-21T12:28:21.000Z</time>
      </trkpt>
      <trkpt lat="47.1905" lon="4.9352">
        <ele>396</ele>
        <time>2020-05-21T12:28:23.000Z</time>
      </trkpt>
      <trkpt lat="47.19051" lon="4.93518">
        <ele>396</ele>
        <time>2020-05-21T12:28:25.000Z</time>
      </trkpt>
      <trkpt lat="47.19052" lon="4.93515">
        <ele>396</ele>
        <time>2020-05-21T12:28:27.000Z</time>
      </trkpt>
      <trkpt lat="47.19053" lon="4.93512">
        <ele>396</ele>
        <time>2020-05-21T12:28:29.000Z</time>
      </trkpt>
      <trkpt lat="47.19054" lon="4.93509">
        <ele>396</ele>
        <time>2020-05-21T12:28:31.000Z</time>
      </trkpt>
      <trkpt lat="47.19055" lon="4.93506">
        <ele>396</ele>
        <time>2020-05-21T12:28:33.000Z</time>
      </trkpt>
      <trkpt lat="47.19056" lon="4.93502">
        <ele>396</ele>
        <time>2020-05-21T12:28:36.000Z</time>
      </trkpt>
      <trkpt lat="47.19056" lon="4.935">
        <ele>396</ele>
        <time>2020-05-21T12:28:38.000Z</time>
      </trkpt>
      <trkpt lat="47.19058" lon="4.93497">
        <ele>396</ele>
        <time>2020-05-21T12:28:40.000Z</time>
      </trkpt>
      <trkpt lat="47.1906" lon="4.93493">
        <ele>396</ele>
        <time>2020-05-21T12:28:42.000Z</time>
      </trkpt>
      <trkpt lat="47.19062" lon="4.9349">
        <ele>396</ele>
        <time>2020-05-21T12:28:44.000Z</time>
      </trkpt>
      <trkpt lat="47.19063" lon="4.93487">
        <ele>396</ele>
        <time>2020-05-21T12:28:46.000Z</time>
      </trkpt>
      <trkpt lat="47.19065" lon="4.93483">
        <ele>396.00600123916</ele>
        <time>2020-05-21T12:28:48.000Z</time>
      </trkpt>
      <trkpt lat="47.19066" lon="4.9348">
        <ele>396.20602120916</ele>
        <time>2020-05-21T12:28:50.000Z</time>
      </trkpt>
      <trkpt lat="47.19067" lon="4.93477">
        <ele>396.40604117915</ele>
        <time>2020-05-21T12:28:52.000Z</time>
      </trkpt>
      <trkpt lat="47.19068" lon="4.93474">
        <ele>396.60606114914</ele>
        <time>2020-05-21T12:28:54.000Z</time>
      </trkpt>
      <trkpt lat="47.19068" lon="4.9347">
        <ele>396.90609110414</ele>
        <time>2020-05-21T12:28:57.000Z</time>
      </trkpt>
      <trkpt lat="47.19069" lon="4.93465">
        <ele>396.5990657417</ele>
        <time>2020-05-21T12:29:00.000Z</time>
      </trkpt>
      <trkpt lat="47.19069" lon="4.93462">
        <ele>396.20999895419</ele>
        <time>2020-05-21T12:29:02.000Z</time>
      </trkpt>
      <trkpt lat="47.19069" lon="4.9346">
        <ele>396.01546556043</ele>
        <time>2020-05-21T12:29:03.000Z</time>
      </trkpt>
      <trkpt lat="47.19068" lon="4.93457">
        <ele>395.62639877291</ele>
        <time>2020-05-21T12:29:05.000Z</time>
      </trkpt>
      <trkpt lat="47.19067" lon="4.93454">
        <ele>395.2373319854</ele>
        <time>2020-05-21T12:29:07.000Z</time>
      </trkpt>
      <trkpt lat="47.19066" lon="4.93452">
        <ele>394.91974539573</ele>
        <time>2020-05-21T12:29:09.000Z</time>
      </trkpt>
      <trkpt lat="47.19064" lon="4.9345">
        <ele>394.71396267068</ele>
        <time>2020-05-21T12:29:11.000Z</time>
      </trkpt>
      <trkpt lat="47.19063" lon="4.93448">
        <ele>394.50817994563</ele>
        <time>2020-05-21T12:29:13.000Z</time>
      </trkpt>
      <trkpt lat="47.19061" lon="4.93445">
        <ele>394.30239722058</ele>
        <time>2020-05-21T12:29:15.000Z</time>
      </trkpt>
      <trkpt lat="47.19059" lon="4.93442">
        <ele>394.09661449553</ele>
        <time>2020-05-21T12:29:17.000Z</time>
      </trkpt>
      <trkpt lat="47.19057" lon="4.93442">
        <ele>393.89389952</ele>
        <time>2020-05-21T12:29:19.000Z</time>
      </trkpt>
      <trkpt lat="47.19055" lon="4.93442">
        <ele>393.59389952</ele>
        <time>2020-05-21T12:29:22.000Z</time>
      </trkpt>
      <trkpt lat="47.19054" lon="4.93442">
        <ele>393.49389952</ele>
        <time>2020-05-21T12:29:23.000Z</time>
      </trkpt>
      <trkpt lat="47.19052" lon="4.93443">
        <ele>393.29389952</ele>
        <time>2020-05-21T12:29:25.000Z</time>
      </trkpt>
      <trkpt lat="47.19049" lon="4.93445">
        <ele>393.09389952</ele>
        <time>2020-05-21T12:29:27.000Z</time>
      </trkpt>
      <trkpt lat="47.19048" lon="4.93446">
        <ele>392.78779904</ele>
        <time>2020-05-21T12:29:29.000Z</time>
      </trkpt>
      <trkpt lat="47.19045" lon="4.93448">
        <ele>392.18779904</ele>
        <time>2020-05-21T12:29:32.000Z</time>
      </trkpt>
      <trkpt lat="47.19044" lon="4.93448">
        <ele>391.98779904</ele>
        <time>2020-05-21T12:29:33.000Z</time>
      </trkpt>
      <trkpt lat="47.19042" lon="4.93449">
        <ele>391.58779904</ele>
        <time>2020-05-21T12:29:35.000Z</time>
      </trkpt>
      <trkpt lat="47.1904" lon="4.9345">
        <ele>391.18779904</ele>
        <time>2020-05-21T12:29:37.000Z</time>
      </trkpt>
      <trkpt lat="47.19038" lon="4.93453">
        <ele>390.58779904</ele>
        <time>2020-05-21T12:29:40.000Z</time>
      </trkpt>
      <trkpt lat="47.19037" lon="4.93454">
        <ele>390.18779904</ele>
        <time>2020-05-21T12:29:42.000Z</time>
      </trkpt>
      <trkpt lat="47.19036" lon="4.93455">
        <ele>389.98779904</ele>
        <time>2020-05-21T12:29:43.000Z</time>
      </trkpt>
      <trkpt lat="47.19035" lon="4.93457">
        <ele>389.58779904</ele>
        <time>2020-05-21T12:29:45.000Z</time>
      </trkpt>
      <trkpt lat="47.19033" lon="4.93459">
        <ele>388.98779904</ele>
        <time>2020-05-21T12:29:48.000Z</time>
      </trkpt>
      <trkpt lat="47.19031" lon="4.93461">
        <ele>388.38779904</ele>
        <time>2020-05-21T12:29:51.000Z</time>
      </trkpt>
      <trkpt lat="47.19029" lon="4.93463">
        <ele>387.98779904</ele>
        <time>2020-05-21T12:29:53.000Z</time>
      </trkpt>
      <trkpt lat="47.19027" lon="4.93464">
        <ele>387.38779904</ele>
        <time>2020-05-21T12:29:56.000Z</time>
      </trkpt>
      <trkpt lat="47.19025" lon="4.93466">
        <ele>386.89389952</ele>
        <time>2020-05-21T12:29:59.000Z</time>
      </trkpt>
      <trkpt lat="47.19023" lon="4.93468">
        <ele>386.59389952</ele>
        <time>2020-05-21T12:30:02.000Z</time>
      </trkpt>
      <trkpt lat="47.19023" lon="4.93469">
        <ele>386.39389952</ele>
        <time>2020-05-21T12:30:04.000Z</time>
      </trkpt>
      <trkpt lat="47.19023" lon="4.93473">
        <ele>385.99389952</ele>
        <time>2020-05-21T12:30:18.000Z</time>
      </trkpt>
      <trkpt lat="47.19023" lon="4.93475">
        <ele>385.29389952</ele>
        <time>2020-05-21T12:30:25.000Z</time>
      </trkpt>
      <trkpt lat="47.19021" lon="4.93477">
        <ele>384.89389952</ele>
        <time>2020-05-21T12:30:29.000Z</time>
      </trkpt>
      <trkpt lat="47.19019" lon="4.93478">
        <ele>384.49389952</ele>
        <time>2020-05-21T12:30:33.000Z</time>
      </trkpt>
      <trkpt lat="47.19017" lon="4.93479">
        <ele>384.19389952</ele>
        <time>2020-05-21T12:30:36.000Z</time>
      </trkpt>
      <trkpt lat="47.19015" lon="4.9348">
        <ele>383.89389952</ele>
        <time>2020-05-21T12:30:39.000Z</time>
      </trkpt>
      <trkpt lat="47.19012" lon="4.9348">
        <ele>383.69389952</ele>
        <time>2020-05-21T12:30:41.000Z</time>
      </trkpt>
      <trkpt lat="47.1901" lon="4.93481">
        <ele>383.49389952</ele>
        <time>2020-05-21T12:30:43.000Z</time>
      </trkpt>
      <trkpt lat="47.19008" lon="4.93483">
        <ele>383.29389952</ele>
        <time>2020-05-21T12:30:45.000Z</time>
      </trkpt>
      <trkpt lat="47.19006" lon="4.93486">
        <ele>383.09389952</ele>
        <time>2020-05-21T12:30:47.000Z</time>
      </trkpt>
      <trkpt lat="47.19005" lon="4.93488">
        <ele>383</ele>
        <time>2020-05-21T12:30:49.000Z</time>
      </trkpt>
      <trkpt lat="47.19003" lon="4.93489">
        <ele>383</ele>
        <time>2020-05-21T12:30:51.000Z</time>
      </trkpt>
      <trkpt lat="47.19001" lon="4.93491">
        <ele>383</ele>
        <time>2020-05-21T12:30:53.000Z</time>
      </trkpt>
      <trkpt lat="47.18999" lon="4.93493">
        <ele>383</ele>
        <time>2020-05-21T12:30:55.000Z</time>
      </trkpt>
      <trkpt lat="47.18997" lon="4.93495">
        <ele>383</ele>
        <time>2020-05-21T12:30:57.000Z</time>
      </trkpt>
      <trkpt lat="47.18995" lon="4.93496">
        <ele>382.78779904</ele>
        <time>2020-05-21T12:30:59.000Z</time>
      </trkpt>
      <trkpt lat="47.18993" lon="4.93498">
        <ele>382.38779904</ele>
        <time>2020-05-21T12:31:01.000Z</time>
      </trkpt>
      <trkpt lat="47.18991" lon="4.93498">
        <ele>381.98779904</ele>
        <time>2020-05-21T12:31:03.000Z</time>
      </trkpt>
      <trkpt lat="47.18989" lon="4.935">
        <ele>381.38779904</ele>
        <time>2020-05-21T12:31:06.000Z</time>
      </trkpt>
      <trkpt lat="47.18987" lon="4.93502">
        <ele>380.78779904</ele>
        <time>2020-05-21T12:31:09.000Z</time>
      </trkpt>
      <trkpt lat="47.18984" lon="4.93503">
        <ele>380.38779904</ele>
        <time>2020-05-21T12:31:11.000Z</time>
      </trkpt>
      <trkpt lat="47.18982" lon="4.93505">
        <ele>379.98779904</ele>
        <time>2020-05-21T12:31:13.000Z</time>
      </trkpt>
      <trkpt lat="47.1898" lon="4.93506">
        <ele>379.58779904</ele>
        <time>2020-05-21T12:31:15.000Z</time>
      </trkpt>
      <trkpt lat="47.18977" lon="4.93508">
        <ele>379.18779904</ele>
        <time>2020-05-21T12:31:17.000Z</time>
      </trkpt>
      <trkpt lat="47.18975" lon="4.93509">
        <ele>378.89389952</ele>
        <time>2020-05-21T12:31:19.000Z</time>
      </trkpt>
      <trkpt lat="47.18973" lon="4.93512">
        <ele>378.69389952</ele>
        <time>2020-05-21T12:31:21.000Z</time>
      </trkpt>
      <trkpt lat="47.18971" lon="4.93513">
        <ele>378.49389952</ele>
        <time>2020-05-21T12:31:23.000Z</time>
      </trkpt>
      <trkpt lat="47.18968" lon="4.93515">
        <ele>378.29389952</ele>
        <time>2020-05-21T12:31:25.000Z</time>
      </trkpt>
      <trkpt lat="47.18967" lon="4.93517">
        <ele>377.98812096378</ele>
        <time>2020-05-21T12:31:28.000Z</time>
      </trkpt>
      <trkpt lat="47.18965" lon="4.93519">
        <ele>377.5986750114</ele>
        <time>2020-05-21T12:31:30.000Z</time>
      </trkpt>
      <trkpt lat="47.18963" lon="4.9352">
        <ele>377.20922905902</ele>
        <time>2020-05-21T12:31:32.000Z</time>
      </trkpt>
      <trkpt lat="47.18962" lon="4.93521">
        <ele>377.01450608283</ele>
        <time>2020-05-21T12:31:33.000Z</time>
      </trkpt>
      <trkpt lat="47.1896" lon="4.93522">
        <ele>376.43033715426</ele>
        <time>2020-05-21T12:31:36.000Z</time>
      </trkpt>
      <trkpt lat="47.18958" lon="4.93524">
        <ele>376.04089120189</ele>
        <time>2020-05-21T12:31:38.000Z</time>
      </trkpt>
      <trkpt lat="47.18956" lon="4.93526">
        <ele>375.81601361965</ele>
        <time>2020-05-21T12:31:40.000Z</time>
      </trkpt>
      <trkpt lat="47.18954" lon="4.93528">
        <ele>375.61044261247</ele>
        <time>2020-05-21T12:31:42.000Z</time>
      </trkpt>
      <trkpt lat="47.18952" lon="4.9353">
        <ele>375.30208610169</ele>
        <time>2020-05-21T12:31:45.000Z</time>
      </trkpt>
      <trkpt lat="47.1895" lon="4.9353">
        <ele>374.99389952</ele>
        <time>2020-05-21T12:31:48.000Z</time>
      </trkpt>
      <trkpt lat="47.18948" lon="4.9353">
        <ele>374.69389952</ele>
        <time>2020-05-21T12:31:51.000Z</time>
      </trkpt>
      <trkpt lat="47.18948" lon="4.93532">
        <ele>374.49389952</ele>
        <time>2020-05-21T12:31:53.000Z</time>
      </trkpt>
      <trkpt lat="47.18947" lon="4.93536">
        <ele>374.09389952</ele>
        <time>2020-05-21T12:31:57.000Z</time>
      </trkpt>
      <trkpt lat="47.18946" lon="4.93538">
        <ele>374</ele>
        <time>2020-05-21T12:31:59.000Z</time>
      </trkpt>
      <trkpt lat="47.18948" lon="4.93541">
        <ele>374</ele>
        <time>2020-05-21T12:32:04.000Z</time>
      </trkpt>
      <trkpt lat="47.18945" lon="4.9354">
        <ele>374</ele>
        <time>2020-05-21T12:32:07.000Z</time>
      </trkpt>
      <trkpt lat="47.18943" lon="4.93541">
        <ele>374</ele>
        <time>2020-05-21T12:32:09.000Z</time>
      </trkpt>
      <trkpt lat="47.18941" lon="4.93542">
        <ele>374</ele>
        <time>2020-05-21T12:32:12.000Z</time>
      </trkpt>
      <trkpt lat="47.18939" lon="4.93542">
        <ele>374</ele>
        <time>2020-05-21T12:32:14.000Z</time>
      </trkpt>
      <trkpt lat="47.18937" lon="4.93542">
        <ele>374</ele>
        <time>2020-05-21T12:32:16.000Z</time>
      </trkpt>
      <trkpt lat="47.18936" lon="4.93543">
        <ele>374</ele>
        <time>2020-05-21T12:32:18.000Z</time>
      </trkpt>
      <trkpt lat="47.18934" lon="4.93544">
        <ele>373.81685403321</ele>
        <time>2020-05-21T12:32:20.000Z</time>
      </trkpt>
      <trkpt lat="47.18932" lon="4.93545">
        <ele>373.50817994563</ele>
        <time>2020-05-21T12:32:23.000Z</time>
      </trkpt>
      <trkpt lat="47.18929" lon="4.93546">
        <ele>373.19950585806</ele>
        <time>2020-05-21T12:32:26.000Z</time>
      </trkpt>
      <trkpt lat="47.18927" lon="4.93549">
        <ele>372.98779904</ele>
        <time>2020-05-21T12:32:28.000Z</time>
      </trkpt>
      <trkpt lat="47.18925" lon="4.93552">
        <ele>372.58779904</ele>
        <time>2020-05-21T12:32:30.000Z</time>
      </trkpt>
      <trkpt lat="47.18922" lon="4.93554">
        <ele>372.18779904</ele>
        <time>2020-05-21T12:32:32.000Z</time>
      </trkpt>
      <trkpt lat="47.18921" lon="4.93555">
        <ele>371.98779904</ele>
        <time>2020-05-21T12:32:33.000Z</time>
      </trkpt>
      <trkpt lat="47.18919" lon="4.93557">
        <ele>371.58779904</ele>
        <time>2020-05-21T12:32:35.000Z</time>
      </trkpt>
      <trkpt lat="47.18917" lon="4.93559">
        <ele>371.18779904</ele>
        <time>2020-05-21T12:32:37.000Z</time>
      </trkpt>
      <trkpt lat="47.18915" lon="4.93562">
        <ele>370.79389952</ele>
        <time>2020-05-21T12:32:40.000Z</time>
      </trkpt>
      <trkpt lat="47.18914" lon="4.93565">
        <ele>370.59389952</ele>
        <time>2020-05-21T12:32:42.000Z</time>
      </trkpt>
      <trkpt lat="47.18913" lon="4.93566">
        <ele>370.49389952</ele>
        <time>2020-05-21T12:32:43.000Z</time>
      </trkpt>
      <trkpt lat="47.18911" lon="4.93569">
        <ele>370.29389952</ele>
        <time>2020-05-21T12:32:45.000Z</time>
      </trkpt>
      <trkpt lat="47.18911" lon="4.93573">
        <ele>370.09389952</ele>
        <time>2020-05-21T12:32:47.000Z</time>
      </trkpt>
      <trkpt lat="47.1891" lon="4.93575">
        <ele>369.57559808</ele>
        <time>2020-05-21T12:32:49.000Z</time>
      </trkpt>
      <trkpt lat="47.18909" lon="4.93578">
        <ele>368.77559808</ele>
        <time>2020-05-21T12:32:51.000Z</time>
      </trkpt>
      <trkpt lat="47.18908" lon="4.93581">
        <ele>367.97559808</ele>
        <time>2020-05-21T12:32:53.000Z</time>
      </trkpt>
      <trkpt lat="47.18907" lon="4.93585">
        <ele>366.77559808</ele>
        <time>2020-05-21T12:32:56.000Z</time>
      </trkpt>
      <trkpt lat="47.18906" lon="4.93588">
        <ele>365.99389952</ele>
        <time>2020-05-21T12:32:58.000Z</time>
      </trkpt>
      <trkpt lat="47.18905" lon="4.93591">
        <ele>365.79389952</ele>
        <time>2020-05-21T12:33:00.000Z</time>
      </trkpt>
      <trkpt lat="47.18905" lon="4.93595">
        <ele>365.59389952</ele>
        <time>2020-05-21T12:33:02.000Z</time>
      </trkpt>
      <trkpt lat="47.18905" lon="4.93597">
        <ele>365.39389952</ele>
        <time>2020-05-21T12:33:04.000Z</time>
      </trkpt>
      <trkpt lat="47.18905" lon="4.936">
        <ele>365.09389952</ele>
        <time>2020-05-21T12:33:07.000Z</time>
      </trkpt>
      <trkpt lat="47.18904" lon="4.93603">
        <ele>365</ele>
        <time>2020-05-21T12:33:09.000Z</time>
      </trkpt>
      <trkpt lat="47.18903" lon="4.93606">
        <ele>365</ele>
        <time>2020-05-21T12:33:12.000Z</time>
      </trkpt>
      <trkpt lat="47.18902" lon="4.93609">
        <ele>365</ele>
        <time>2020-05-21T12:33:14.000Z</time>
      </trkpt>
      <trkpt lat="47.18899" lon="4.93615">
        <ele>364.89389952</ele>
        <time>2020-05-21T12:33:19.000Z</time>
      </trkpt>
      <trkpt lat="47.18895" lon="4.93624">
        <ele>364.29389952</ele>
        <time>2020-05-21T12:33:25.000Z</time>
      </trkpt>
      <trkpt lat="47.18893" lon="4.93626">
        <ele>364.09389952</ele>
        <time>2020-05-21T12:33:27.000Z</time>
      </trkpt>
      <trkpt lat="47.18893" lon="4.93629">
        <ele>363.89389952</ele>
        <time>2020-05-21T12:33:29.000Z</time>
      </trkpt>
      <trkpt lat="47.18893" lon="4.93632">
        <ele>363.69389952</ele>
        <time>2020-05-21T12:33:31.000Z</time>
      </trkpt>
      <trkpt lat="47.18889" lon="4.93645">
        <ele>362.79389952</ele>
        <time>2020-05-21T12:33:40.000Z</time>
      </trkpt>
      <trkpt lat="47.18887" lon="4.9365">
        <ele>362.39389952</ele>
        <time>2020-05-21T12:33:44.000Z</time>
      </trkpt>
      <trkpt lat="47.18886" lon="4.93654">
        <ele>362.19389952</ele>
        <time>2020-05-21T12:33:46.000Z</time>
      </trkpt>
      <trkpt lat="47.18885" lon="4.93657">
        <ele>361.98169856</ele>
        <time>2020-05-21T12:33:48.000Z</time>
      </trkpt>
      <trkpt lat="47.18884" lon="4.93659">
        <ele>361.68169856</ele>
        <time>2020-05-21T12:33:49.000Z</time>
      </trkpt>
      <trkpt lat="47.18882" lon="4.93666">
        <ele>360.78169856</ele>
        <time>2020-05-21T12:33:52.000Z</time>
      </trkpt>
      <trkpt lat="47.18881" lon="4.93667">
        <ele>360.48169856</ele>
        <time>2020-05-21T12:33:53.000Z</time>
      </trkpt>
      <trkpt lat="47.18881" lon="4.9367">
        <ele>359.88169856</ele>
        <time>2020-05-21T12:33:55.000Z</time>
      </trkpt>
      <trkpt lat="47.1888" lon="4.93673">
        <ele>359.28169856</ele>
        <time>2020-05-21T12:33:57.000Z</time>
      </trkpt>
      <trkpt lat="47.18879" lon="4.93675">
        <ele>358.78779904</ele>
        <time>2020-05-21T12:33:59.000Z</time>
      </trkpt>
      <trkpt lat="47.18879" lon="4.93678">
        <ele>358.38779904</ele>
        <time>2020-05-21T12:34:01.000Z</time>
      </trkpt>
      <trkpt lat="47.18878" lon="4.93682">
        <ele>357.98779904</ele>
        <time>2020-05-21T12:34:03.000Z</time>
      </trkpt>
      <trkpt lat="47.18877" lon="4.93684">
        <ele>357.58779904</ele>
        <time>2020-05-21T12:34:05.000Z</time>
      </trkpt>
      <trkpt lat="47.18875" lon="4.93687">
        <ele>357</ele>
        <time>2020-05-21T12:34:10.000Z</time>
      </trkpt>
      <trkpt lat="47.18874" lon="4.93691">
        <ele>357</ele>
        <time>2020-05-21T12:34:12.000Z</time>
      </trkpt>
      <trkpt lat="47.18874" lon="4.93694">
        <ele>357</ele>
        <time>2020-05-21T12:34:14.000Z</time>
      </trkpt>
      <trkpt lat="47.18874" lon="4.93698">
        <ele>357</ele>
        <time>2020-05-21T12:34:16.000Z</time>
      </trkpt>
      <trkpt lat="47.18873" lon="4.93701">
        <ele>356.98779904</ele>
        <time>2020-05-21T12:34:18.000Z</time>
      </trkpt>
      <trkpt lat="47.18873" lon="4.93704">
        <ele>356.58779904</ele>
        <time>2020-05-21T12:34:20.000Z</time>
      </trkpt>
      <trkpt lat="47.18872" lon="4.93708">
        <ele>355.98779904</ele>
        <time>2020-05-21T12:34:23.000Z</time>
      </trkpt>
      <trkpt lat="47.1887" lon="4.9372">
        <ele>354.78779904</ele>
        <time>2020-05-21T12:34:29.000Z</time>
      </trkpt>
      <trkpt lat="47.18869" lon="4.93723">
        <ele>354.58779904</ele>
        <time>2020-05-21T12:34:30.000Z</time>
      </trkpt>
      <trkpt lat="47.18868" lon="4.9373">
        <ele>353.78779904</ele>
        <time>2020-05-21T12:34:34.000Z</time>
      </trkpt>
      <trkpt lat="47.18869" lon="4.93739">
        <ele>353</ele>
        <time>2020-05-21T12:34:41.000Z</time>
      </trkpt>
      <trkpt lat="47.18868" lon="4.93742">
        <ele>353</ele>
        <time>2020-05-21T12:34:43.000Z</time>
      </trkpt>
      <trkpt lat="47.18867" lon="4.93744">
        <ele>353</ele>
        <time>2020-05-21T12:34:45.000Z</time>
      </trkpt>
      <trkpt lat="47.18867" lon="4.93747">
        <ele>353</ele>
        <time>2020-05-21T12:34:47.000Z</time>
      </trkpt>
      <trkpt lat="47.18868" lon="4.93749">
        <ele>352.98779904</ele>
        <time>2020-05-21T12:34:48.000Z</time>
      </trkpt>
      <trkpt lat="47.18869" lon="4.93752">
        <ele>352.78779904</ele>
        <time>2020-05-21T12:34:49.000Z</time>
      </trkpt>
      <trkpt lat="47.18869" lon="4.93756">
        <ele>352.18779904</ele>
        <time>2020-05-21T12:34:52.000Z</time>
      </trkpt>
      <trkpt lat="47.18869" lon="4.93758">
        <ele>351.98779904</ele>
        <time>2020-05-21T12:34:53.000Z</time>
      </trkpt>
      <trkpt lat="47.18869" lon="4.93763">
        <ele>351.38779904</ele>
        <time>2020-05-21T12:34:56.000Z</time>
      </trkpt>
      <trkpt lat="47.18866" lon="4.93777">
        <ele>349.48169856</ele>
        <time>2020-05-21T12:35:03.000Z</time>
      </trkpt>
      <trkpt lat="47.18866" lon="4.9378">
        <ele>348.88169856</ele>
        <time>2020-05-21T12:35:05.000Z</time>
      </trkpt>
      <trkpt lat="47.18869" lon="4.93785">
        <ele>347.99389952</ele>
        <time>2020-05-21T12:35:08.000Z</time>
      </trkpt>
      <trkpt lat="47.1887" lon="4.93788">
        <ele>347.79389952</ele>
        <time>2020-05-21T12:35:10.000Z</time>
      </trkpt>
      <trkpt lat="47.18871" lon="4.93792">
        <ele>347.59389952</ele>
        <time>2020-05-21T12:35:12.000Z</time>
      </trkpt>
      <trkpt lat="47.18871" lon="4.93795">
        <ele>347.39389952</ele>
        <time>2020-05-21T12:35:14.000Z</time>
      </trkpt>
      <trkpt lat="47.18872" lon="4.93799">
        <ele>347.09389952</ele>
        <time>2020-05-21T12:35:17.000Z</time>
      </trkpt>
      <trkpt lat="47.18873" lon="4.93813">
        <ele>346.21745451473</ele>
        <time>2020-05-21T12:35:26.000Z</time>
      </trkpt>
      <trkpt lat="47.18874" lon="4.93824">
        <ele>344.60618464738</ele>
        <time>2020-05-21T12:35:35.000Z</time>
      </trkpt>
      <trkpt lat="47.18875" lon="4.93827">
        <ele>343.97599744</ele>
        <time>2020-05-21T12:35:38.000Z</time>
      </trkpt>
      <trkpt lat="47.18875" lon="4.9384">
        <ele>340.37599744</ele>
        <time>2020-05-21T12:35:47.000Z</time>
      </trkpt>
      <trkpt lat="47.18875" lon="4.93854">
        <ele>337.28199808</ele>
        <time>2020-05-21T12:35:57.000Z</time>
      </trkpt>
      <trkpt lat="47.18873" lon="4.93866">
        <ele>335.38799872</ele>
        <time>2020-05-21T12:36:06.000Z</time>
      </trkpt>
      <trkpt lat="47.18866" lon="4.93877">
        <ele>333.78799872</ele>
        <time>2020-05-21T12:36:19.000Z</time>
      </trkpt>
      <trkpt lat="47.18868" lon="4.9389">
        <ele>331.57599744</ele>
        <time>2020-05-21T12:36:29.000Z</time>
      </trkpt>
      <trkpt lat="47.18867" lon="4.93905">
        <ele>327.98799872</ele>
        <time>2020-05-21T12:36:38.000Z</time>
      </trkpt>
      <trkpt lat="47.18868" lon="4.93919">
        <ele>326.58799872</ele>
        <time>2020-05-21T12:36:45.000Z</time>
      </trkpt>
      <trkpt lat="47.18867" lon="4.93934">
        <ele>325.39399936</ele>
        <time>2020-05-21T12:37:04.000Z</time>
      </trkpt>
      <trkpt lat="47.18861" lon="4.93946">
        <ele>324.38799872</ele>
        <time>2020-05-21T12:37:11.000Z</time>
      </trkpt>
      <trkpt lat="47.18862" lon="4.93961">
        <ele>322.49399936</ele>
        <time>2020-05-21T12:37:23.000Z</time>
      </trkpt>
      <trkpt lat="47.18863" lon="4.93974">
        <ele>320.78799872</ele>
        <time>2020-05-21T12:37:34.000Z</time>
      </trkpt>
      <trkpt lat="47.18861" lon="4.93988">
        <ele>319.49399936</ele>
        <time>2020-05-21T12:37:43.000Z</time>
      </trkpt>
      <trkpt lat="47.18857" lon="4.94002">
        <ele>317.98799872</ele>
        <time>2020-05-21T12:37:53.000Z</time>
      </trkpt>
      <trkpt lat="47.18861" lon="4.94015">
        <ele>316.38199808</ele>
        <time>2020-05-21T12:38:00.000Z</time>
      </trkpt>
      <trkpt lat="47.18858" lon="4.94028">
        <ele>313.8941053563</ele>
        <time>2020-05-21T12:38:09.000Z</time>
      </trkpt>
      <trkpt lat="47.18857" lon="4.94042">
        <ele>313.09490532357</ele>
        <time>2020-05-21T12:38:17.000Z</time>
      </trkpt>
      <trkpt lat="47.18856" lon="4.94055">
        <ele>311.58858787292</ele>
        <time>2020-05-21T12:38:25.000Z</time>
      </trkpt>
      <trkpt lat="47.18853" lon="4.94069">
        <ele>310.50826028384</ele>
        <time>2020-05-21T12:38:33.000Z</time>
      </trkpt>
      <trkpt lat="47.18848" lon="4.94079">
        <ele>310</ele>
        <time>2020-05-21T12:38:43.000Z</time>
      </trkpt>
      <trkpt lat="47.18851" lon="4.94093">
        <ele>308.82101189602</ele>
        <time>2020-05-21T12:38:54.000Z</time>
      </trkpt>
      <trkpt lat="47.18854" lon="4.94106">
        <ele>307.45061853579</ele>
        <time>2020-05-21T12:39:00.000Z</time>
      </trkpt>
      <trkpt lat="47.18856" lon="4.9412">
        <ele>305</ele>
        <time>2020-05-21T12:39:09.000Z</time>
      </trkpt>
      <trkpt lat="47.18859" lon="4.94133">
        <ele>305</ele>
        <time>2020-05-21T12:39:17.000Z</time>
      </trkpt>
      <trkpt lat="47.18859" lon="4.9414">
        <ele>305</ele>
        <time>2020-05-21T12:39:22.000Z</time>
      </trkpt>
      <trkpt lat="47.18859" lon="4.94143">
        <ele>305</ele>
        <time>2020-05-21T12:39:23.000Z</time>
      </trkpt>
      <trkpt lat="47.18859" lon="4.94147">
        <ele>305</ele>
        <time>2020-05-21T12:39:25.000Z</time>
      </trkpt>
      <trkpt lat="47.1886" lon="4.94151">
        <ele>305</ele>
        <time>2020-05-21T12:39:27.000Z</time>
      </trkpt>
      <trkpt lat="47.18861" lon="4.94154">
        <ele>304.89421100569</ele>
        <time>2020-05-21T12:39:29.000Z</time>
      </trkpt>
      <trkpt lat="47.18862" lon="4.94158">
        <ele>304.09580832204</ele>
        <time>2020-05-21T12:39:37.000Z</time>
      </trkpt>
      <trkpt lat="47.18868" lon="4.94169">
        <ele>303.29458872599</ele>
        <time>2020-05-21T12:39:45.000Z</time>
      </trkpt>
      <trkpt lat="47.18867" lon="4.94173">
        <ele>303.09418779587</ele>
        <time>2020-05-21T12:39:47.000Z</time>
      </trkpt>
      <trkpt lat="47.18863" lon="4.94184">
        <ele>303</ele>
        <time>2020-05-21T12:39:54.000Z</time>
      </trkpt>
      <trkpt lat="47.18861" lon="4.94185">
        <ele>303</ele>
        <time>2020-05-21T12:39:57.000Z</time>
      </trkpt>
      <trkpt lat="47.1886" lon="4.94187">
        <ele>302.58799872</ele>
        <time>2020-05-21T12:40:00.000Z</time>
      </trkpt>
      <trkpt lat="47.18858" lon="4.94188">
        <ele>301.98799872</ele>
        <time>2020-05-21T12:40:03.000Z</time>
      </trkpt>
      <trkpt lat="47.18858" lon="4.94191">
        <ele>301.38799872</ele>
        <time>2020-05-21T12:40:06.000Z</time>
      </trkpt>
      <trkpt lat="47.18857" lon="4.94196">
        <ele>301</ele>
        <time>2020-05-21T12:40:08.000Z</time>
      </trkpt>
      <trkpt lat="47.18857" lon="4.94201">
        <ele>301</ele>
        <time>2020-05-21T12:40:10.000Z</time>
      </trkpt>
      <trkpt lat="47.18857" lon="4.94209">
        <ele>301</ele>
        <time>2020-05-21T12:40:13.000Z</time>
      </trkpt>
      <trkpt lat="47.18856" lon="4.94211">
        <ele>301</ele>
        <time>2020-05-21T12:40:15.000Z</time>
      </trkpt>
      <trkpt lat="47.18855" lon="4.94215">
        <ele>301</ele>
        <time>2020-05-21T12:40:17.000Z</time>
      </trkpt>
      <trkpt lat="47.18857" lon="4.94215">
        <ele>300.79399936</ele>
        <time>2020-05-21T12:40:20.000Z</time>
      </trkpt>
      <trkpt lat="47.18855" lon="4.94216">
        <ele>300.39399936</ele>
        <time>2020-05-21T12:40:24.000Z</time>
      </trkpt>
      <trkpt lat="47.18853" lon="4.94219">
        <ele>300.19399936</ele>
        <time>2020-05-21T12:40:26.000Z</time>
      </trkpt>
      <trkpt lat="47.18852" lon="4.94221">
        <ele>300</ele>
        <time>2020-05-21T12:40:28.000Z</time>
      </trkpt>
      <trkpt lat="47.18849" lon="4.94225">
        <ele>300</ele>
        <time>2020-05-21T12:40:30.000Z</time>
      </trkpt>
      <trkpt lat="47.18847" lon="4.94228">
        <ele>300</ele>
        <time>2020-05-21T12:40:32.000Z</time>
      </trkpt>
      <trkpt lat="47.18846" lon="4.9423">
        <ele>300</ele>
        <time>2020-05-21T12:40:34.000Z</time>
      </trkpt>
      <trkpt lat="47.18844" lon="4.9423">
        <ele>299.99399936</ele>
        <time>2020-05-21T12:40:38.000Z</time>
      </trkpt>
      <trkpt lat="47.18841" lon="4.94228">
        <ele>299.79399936</ele>
        <time>2020-05-21T12:40:40.000Z</time>
      </trkpt>
      <trkpt lat="47.1884" lon="4.94229">
        <ele>299.39399936</ele>
        <time>2020-05-21T12:40:44.000Z</time>
      </trkpt>
      <trkpt lat="47.18838" lon="4.94228">
        <ele>299.41200128</ele>
        <time>2020-05-21T12:40:50.000Z</time>
      </trkpt>
      <trkpt lat="47.18837" lon="4.94227">
        <ele>300.01200128</ele>
        <time>2020-05-21T12:40:53.000Z</time>
      </trkpt>
      <trkpt lat="47.18834" lon="4.94226">
        <ele>301.61800192</ele>
        <time>2020-05-21T12:41:00.000Z</time>
      </trkpt>
      <trkpt lat="47.18832" lon="4.94228">
        <ele>302.21800192</ele>
        <time>2020-05-21T12:41:02.000Z</time>
      </trkpt>
      <trkpt lat="47.18832" lon="4.9423">
        <ele>302.51800192</ele>
        <time>2020-05-21T12:41:03.000Z</time>
      </trkpt>
      <trkpt lat="47.1883" lon="4.94231">
        <ele>303.71800192</ele>
        <time>2020-05-21T12:41:07.000Z</time>
      </trkpt>
      <trkpt lat="47.1883" lon="4.94232">
        <ele>305.21200128</ele>
        <time>2020-05-21T12:41:14.000Z</time>
      </trkpt>
      <trkpt lat="47.18827" lon="4.94231">
        <ele>306.21200128</ele>
        <time>2020-05-21T12:41:19.000Z</time>
      </trkpt>
      <trkpt lat="47.18825" lon="4.9423">
        <ele>306.61200128</ele>
        <time>2020-05-21T12:41:21.000Z</time>
      </trkpt>
      <trkpt lat="47.18824" lon="4.94229">
        <ele>307.21200128</ele>
        <time>2020-05-21T12:41:24.000Z</time>
      </trkpt>
      <trkpt lat="47.18822" lon="4.94229">
        <ele>308.21200128</ele>
        <time>2020-05-21T12:41:29.000Z</time>
      </trkpt>
      <trkpt lat="47.18821" lon="4.94229">
        <ele>309.01200128</ele>
        <time>2020-05-21T12:41:33.000Z</time>
      </trkpt>
      <trkpt lat="47.1882" lon="4.94227">
        <ele>309.81200128</ele>
        <time>2020-05-21T12:41:37.000Z</time>
      </trkpt>
      <trkpt lat="47.18818" lon="4.94226">
        <ele>310.49173971616</ele>
        <time>2020-05-21T12:41:43.000Z</time>
      </trkpt>
      <trkpt lat="47.18816" lon="4.94226">
        <ele>310.97764791201</ele>
        <time>2020-05-21T12:41:48.000Z</time>
      </trkpt>
      <trkpt lat="47.18814" lon="4.94225">
        <ele>312.94129790283</ele>
        <time>2020-05-21T12:41:52.000Z</time>
      </trkpt>
      <trkpt lat="47.18813" lon="4.94226">
        <ele>313.45623147063</ele>
        <time>2020-05-21T12:41:53.000Z</time>
      </trkpt>
      <trkpt lat="47.18811" lon="4.94229">
        <ele>316.40600064</ele>
        <time>2020-05-21T12:42:02.000Z</time>
      </trkpt>
      <trkpt lat="47.18809" lon="4.9423">
        <ele>316.60600064</ele>
        <time>2020-05-21T12:42:04.000Z</time>
      </trkpt>
      <trkpt lat="47.18807" lon="4.94229">
        <ele>317.10600064</ele>
        <time>2020-05-21T12:42:09.000Z</time>
      </trkpt>
      <trkpt lat="47.18805" lon="4.94228">
        <ele>317.30600064</ele>
        <time>2020-05-21T12:42:11.000Z</time>
      </trkpt>
      <trkpt lat="47.18803" lon="4.94226">
        <ele>317.50600064</ele>
        <time>2020-05-21T12:42:13.000Z</time>
      </trkpt>
      <trkpt lat="47.18802" lon="4.94224">
        <ele>317.70600064</ele>
        <time>2020-05-21T12:42:15.000Z</time>
      </trkpt>
      <trkpt lat="47.188" lon="4.94224">
        <ele>318.41200128</ele>
        <time>2020-05-21T12:42:20.000Z</time>
      </trkpt>
      <trkpt lat="47.18799" lon="4.94225">
        <ele>319.01200128</ele>
        <time>2020-05-21T12:42:23.000Z</time>
      </trkpt>
      <trkpt lat="47.18791" lon="4.94232">
        <ele>321.21200128</ele>
        <time>2020-05-21T12:42:34.000Z</time>
      </trkpt>
      <trkpt lat="47.18793" lon="4.94229">
        <ele>322.70459100705</ele>
        <time>2020-05-21T12:42:45.000Z</time>
      </trkpt>
      <trkpt lat="47.18791" lon="4.94228">
        <ele>322.90419167796</ele>
        <time>2020-05-21T12:42:47.000Z</time>
      </trkpt>
      <trkpt lat="47.18792" lon="4.94226">
        <ele>323.70541127401</ele>
        <time>2020-05-21T12:42:55.000Z</time>
      </trkpt>
      <trkpt lat="47.18791" lon="4.94224">
        <ele>325.0300032</ele>
        <time>2020-05-21T12:43:00.000Z</time>
      </trkpt>
      <trkpt lat="47.18789" lon="4.94223">
        <ele>326.0300032</ele>
        <time>2020-05-21T12:43:02.000Z</time>
      </trkpt>
      <trkpt lat="47.18786" lon="4.94222">
        <ele>326.5300032</ele>
        <time>2020-05-21T12:43:03.000Z</time>
      </trkpt>
      <trkpt lat="47.18784" lon="4.94222">
        <ele>327.0300032</ele>
        <time>2020-05-21T12:43:04.000Z</time>
      </trkpt>
      <trkpt lat="47.18782" lon="4.94223">
        <ele>329.00598269002</ele>
        <time>2020-05-21T12:43:08.000Z</time>
      </trkpt>
      <trkpt lat="47.1878" lon="4.94223">
        <ele>329.20538442101</ele>
        <time>2020-05-21T12:43:10.000Z</time>
      </trkpt>
      <trkpt lat="47.18778" lon="4.94224">
        <ele>329.40478615201</ele>
        <time>2020-05-21T12:43:12.000Z</time>
      </trkpt>
      <trkpt lat="47.18777" lon="4.94227">
        <ele>329.70388874851</ele>
        <time>2020-05-21T12:43:15.000Z</time>
      </trkpt>
      <trkpt lat="47.18776" lon="4.94226">
        <ele>330.50400801346</ele>
        <time>2020-05-21T12:43:23.000Z</time>
      </trkpt>
      <trkpt lat="47.18774" lon="4.94227">
        <ele>330.90480935964</ele>
        <time>2020-05-21T12:43:27.000Z</time>
      </trkpt>
      <trkpt lat="47.18768" lon="4.94225">
        <ele>333.61800192</ele>
        <time>2020-05-21T12:43:40.000Z</time>
      </trkpt>
      <trkpt lat="47.18767" lon="4.94225">
        <ele>334.51800192</ele>
        <time>2020-05-21T12:43:43.000Z</time>
      </trkpt>
      <trkpt lat="47.18765" lon="4.94226">
        <ele>336.41200128</ele>
        <time>2020-05-21T12:43:50.000Z</time>
      </trkpt>
      <trkpt lat="47.18763" lon="4.94226">
        <ele>337.21200128</ele>
        <time>2020-05-21T12:43:54.000Z</time>
      </trkpt>
      <trkpt lat="47.18761" lon="4.94224">
        <ele>338.00600064</ele>
        <time>2020-05-21T12:43:58.000Z</time>
      </trkpt>
      <trkpt lat="47.18758" lon="4.94223">
        <ele>338.30600064</ele>
        <time>2020-05-21T12:44:01.000Z</time>
      </trkpt>
      <trkpt lat="47.18757" lon="4.94223">
        <ele>338.50600064</ele>
        <time>2020-05-21T12:44:03.000Z</time>
      </trkpt>
      <trkpt lat="47.18751" lon="4.94221">
        <ele>340.21200128</ele>
        <time>2020-05-21T12:44:14.000Z</time>
      </trkpt>
      <trkpt lat="47.18749" lon="4.9422">
        <ele>340.81200128</ele>
        <time>2020-05-21T12:44:17.000Z</time>
      </trkpt>
      <trkpt lat="47.18747" lon="4.94219">
        <ele>341.61800192</ele>
        <time>2020-05-21T12:44:20.000Z</time>
      </trkpt>
      <trkpt lat="47.18746" lon="4.94218">
        <ele>342.51800192</ele>
        <time>2020-05-21T12:44:23.000Z</time>
      </trkpt>
      <trkpt lat="47.18744" lon="4.94218">
        <ele>343.41800192</ele>
        <time>2020-05-21T12:44:26.000Z</time>
      </trkpt>
      <trkpt lat="47.18742" lon="4.94219">
        <ele>344.10600064</ele>
        <time>2020-05-21T12:44:29.000Z</time>
      </trkpt>
      <trkpt lat="47.18739" lon="4.94218">
        <ele>344.30600064</ele>
        <time>2020-05-21T12:44:31.000Z</time>
      </trkpt>
      <trkpt lat="47.18738" lon="4.94216">
        <ele>344.70600064</ele>
        <time>2020-05-21T12:44:35.000Z</time>
      </trkpt>
      <trkpt lat="47.18737" lon="4.94215">
        <ele>346.01200128</ele>
        <time>2020-05-21T12:44:43.000Z</time>
      </trkpt>
      <trkpt lat="47.18735" lon="4.94215">
        <ele>347.02330344183</ele>
        <time>2020-05-21T12:44:48.000Z</time>
      </trkpt>
      <trkpt lat="47.18732" lon="4.94215">
        <ele>348.57670053487</ele>
        <time>2020-05-21T12:44:52.000Z</time>
      </trkpt>
      <trkpt lat="47.18731" lon="4.94215">
        <ele>348.96504980812</ele>
        <time>2020-05-21T12:44:53.000Z</time>
      </trkpt>
      <trkpt lat="47.18722" lon="4.94214">
        <ele>353</ele>
        <time>2020-05-21T12:45:08.000Z</time>
      </trkpt>
      <trkpt lat="47.18713" lon="4.94216">
        <ele>355.41200128</ele>
        <time>2020-05-21T12:45:30.000Z</time>
      </trkpt>
      <trkpt lat="47.18711" lon="4.94217">
        <ele>356.61200128</ele>
        <time>2020-05-21T12:45:36.000Z</time>
      </trkpt>
      <trkpt lat="47.18706" lon="4.94214">
        <ele>359.61800192</ele>
        <time>2020-05-21T12:45:50.000Z</time>
      </trkpt>
      <trkpt lat="47.18697" lon="4.94216">
        <ele>364.11800192</ele>
        <time>2020-05-21T12:46:05.000Z</time>
      </trkpt>
      <trkpt lat="47.1869" lon="4.94214">
        <ele>369.01200128</ele>
        <time>2020-05-21T12:46:33.000Z</time>
      </trkpt>
      <trkpt lat="47.1869" lon="4.9421">
        <ele>370.21200128</ele>
        <time>2020-05-21T12:46:39.000Z</time>
      </trkpt>
      <trkpt lat="47.18688" lon="4.9421">
        <ele>371.01200128</ele>
        <time>2020-05-21T12:46:43.000Z</time>
      </trkpt>
      <trkpt lat="47.18687" lon="4.94211">
        <ele>371.81200128</ele>
        <time>2020-05-21T12:46:47.000Z</time>
      </trkpt>
      <trkpt lat="47.18686" lon="4.94213">
        <ele>372.10600064</ele>
        <time>2020-05-21T12:46:49.000Z</time>
      </trkpt>
      <trkpt lat="47.18684" lon="4.94215">
        <ele>372.50600064</ele>
        <time>2020-05-21T12:46:53.000Z</time>
      </trkpt>
      <trkpt lat="47.18685" lon="4.94213">
        <ele>373.01200128</ele>
        <time>2020-05-21T12:46:58.000Z</time>
      </trkpt>
      <trkpt lat="47.18684" lon="4.94211">
        <ele>374.01200128</ele>
        <time>2020-05-21T12:47:03.000Z</time>
      </trkpt>
      <trkpt lat="47.18682" lon="4.9421">
        <ele>374.61200128</ele>
        <time>2020-05-21T12:47:06.000Z</time>
      </trkpt>
      <trkpt lat="47.1868" lon="4.94211">
        <ele>375.21200128</ele>
        <time>2020-05-21T12:47:09.000Z</time>
      </trkpt>
      <trkpt lat="47.18679" lon="4.94213">
        <ele>375.81200128</ele>
        <time>2020-05-21T12:47:12.000Z</time>
      </trkpt>
      <trkpt lat="47.18678" lon="4.94214">
        <ele>376.41200128</ele>
        <time>2020-05-21T12:47:15.000Z</time>
      </trkpt>
      <trkpt lat="47.18677" lon="4.94213">
        <ele>378.51800192</ele>
        <time>2020-05-21T12:47:23.000Z</time>
      </trkpt>
      <trkpt lat="47.18675" lon="4.94212">
        <ele>379.71800192</ele>
        <time>2020-05-21T12:47:27.000Z</time>
      </trkpt>
      <trkpt lat="47.18674" lon="4.94212">
        <ele>380.61200128</ele>
        <time>2020-05-21T12:47:31.000Z</time>
      </trkpt>
      <trkpt lat="47.18673" lon="4.94211">
        <ele>381.61200128</ele>
        <time>2020-05-21T12:47:36.000Z</time>
      </trkpt>
      <trkpt lat="47.18671" lon="4.9421">
        <ele>382.41200128</ele>
        <time>2020-05-21T12:47:40.000Z</time>
      </trkpt>
      <trkpt lat="47.1867" lon="4.94211">
        <ele>383.01200128</ele>
        <time>2020-05-21T12:47:43.000Z</time>
      </trkpt>
      <trkpt lat="47.18668" lon="4.94212">
        <ele>384.00600064</ele>
        <time>2020-05-21T12:47:48.000Z</time>
      </trkpt>
      <trkpt lat="47.18666" lon="4.94213">
        <ele>384.40600064</ele>
        <time>2020-05-21T12:47:52.000Z</time>
      </trkpt>
      <trkpt lat="47.18665" lon="4.94213">
        <ele>384.70600064</ele>
        <time>2020-05-21T12:47:55.000Z</time>
      </trkpt>
      <trkpt lat="47.18662" lon="4.94214">
        <ele>385.41205263793</ele>
        <time>2020-05-21T12:47:59.000Z</time>
      </trkpt>
      <trkpt lat="47.18661" lon="4.94216">
        <ele>386.18950575129</ele>
        <time>2020-05-21T12:48:01.000Z</time>
      </trkpt>
      <trkpt lat="47.1866" lon="4.94216">
        <ele>386.96695886464</ele>
        <time>2020-05-21T12:48:03.000Z</time>
      </trkpt>
      <trkpt lat="47.18658" lon="4.94216">
        <ele>388.52186509136</ele>
        <time>2020-05-21T12:48:07.000Z</time>
      </trkpt>
      <trkpt lat="47.18657" lon="4.94215">
        <ele>389</ele>
        <time>2020-05-21T12:48:09.000Z</time>
      </trkpt>
      <trkpt lat="47.18655" lon="4.94215">
        <ele>389</ele>
        <time>2020-05-21T12:48:12.000Z</time>
      </trkpt>
      <trkpt lat="47.18652" lon="4.94215">
        <ele>389</ele>
        <time>2020-05-21T12:48:15.000Z</time>
      </trkpt>
      <trkpt lat="47.1865" lon="4.94214">
        <ele>389</ele>
        <time>2020-05-21T12:48:17.000Z</time>
      </trkpt>
      <trkpt lat="47.18648" lon="4.94215">
        <ele>389.20520508208</ele>
        <time>2020-05-21T12:48:20.000Z</time>
      </trkpt>
      <trkpt lat="47.18649" lon="4.94217">
        <ele>389.50550567096</ele>
        <time>2020-05-21T12:48:23.000Z</time>
      </trkpt>
      <trkpt lat="47.1865" lon="4.94215">
        <ele>390.30600064</ele>
        <time>2020-05-21T12:48:31.000Z</time>
      </trkpt>
      <trkpt lat="47.18651" lon="4.94213">
        <ele>390.60600064</ele>
        <time>2020-05-21T12:48:34.000Z</time>
      </trkpt>
      <trkpt lat="47.1865" lon="4.94215">
        <ele>391</ele>
        <time>2020-05-21T12:48:45.000Z</time>
      </trkpt>
      <trkpt lat="47.1865" lon="4.94213">
        <ele>391</ele>
        <time>2020-05-21T12:48:57.000Z</time>
      </trkpt>
      <trkpt lat="47.1865" lon="4.94215">
        <ele>390.00600064</ele>
        <time>2020-05-21T12:49:08.000Z</time>
      </trkpt>
      <trkpt lat="47.18648" lon="4.94218">
        <ele>390.40600064</ele>
        <time>2020-05-21T12:49:12.000Z</time>
      </trkpt>
      <trkpt lat="47.18649" lon="4.94216">
        <ele>391</ele>
        <time>2020-05-21T12:49:22.000Z</time>
      </trkpt>
      <trkpt lat="47.1865" lon="4.94214">
        <ele>390.99443803893</ele>
        <time>2020-05-21T12:49:29.000Z</time>
      </trkpt>
      <trkpt lat="47.1855" lon="4.94382">
        <ele>387.00100110458</ele>
        <time>2020-05-21T12:55:28.000Z</time>
      </trkpt>
      <trkpt lat="47.18548" lon="4.94382">
        <ele>387</ele>
        <time>2020-05-21T12:55:30.000Z</time>
      </trkpt>
      <trkpt lat="47.18545" lon="4.94381">
        <ele>387</ele>
        <time>2020-05-21T12:55:32.000Z</time>
      </trkpt>
      <trkpt lat="47.18543" lon="4.9438">
        <ele>387</ele>
        <time>2020-05-21T12:55:34.000Z</time>
      </trkpt>
      <trkpt lat="47.1854" lon="4.94378">
        <ele>387</ele>
        <time>2020-05-21T12:55:36.000Z</time>
      </trkpt>
      <trkpt lat="47.18538" lon="4.94377">
        <ele>387</ele>
        <time>2020-05-21T12:55:39.000Z</time>
      </trkpt>
      <trkpt lat="47.18536" lon="4.94377">
        <ele>387</ele>
        <time>2020-05-21T12:55:41.000Z</time>
      </trkpt>
      <trkpt lat="47.18533" lon="4.94376">
        <ele>387</ele>
        <time>2020-05-21T12:55:43.000Z</time>
      </trkpt>
      <trkpt lat="47.18531" lon="4.94374">
        <ele>387</ele>
        <time>2020-05-21T12:55:45.000Z</time>
      </trkpt>
      <trkpt lat="47.18528" lon="4.94373">
        <ele>387</ele>
        <time>2020-05-21T12:55:47.000Z</time>
      </trkpt>
      <trkpt lat="47.18526" lon="4.94372">
        <ele>387</ele>
        <time>2020-05-21T12:55:49.000Z</time>
      </trkpt>
      <trkpt lat="47.18524" lon="4.94371">
        <ele>387</ele>
        <time>2020-05-21T12:55:51.000Z</time>
      </trkpt>
      <trkpt lat="47.18521" lon="4.94371">
        <ele>387</ele>
        <time>2020-05-21T12:55:53.000Z</time>
      </trkpt>
      <trkpt lat="47.18519" lon="4.9437">
        <ele>387</ele>
        <time>2020-05-21T12:55:55.000Z</time>
      </trkpt>
      <trkpt lat="47.18517" lon="4.9437">
        <ele>386.99400064</ele>
        <time>2020-05-21T12:55:57.000Z</time>
      </trkpt>
      <trkpt lat="47.18515" lon="4.94369">
        <ele>386.79400064</ele>
        <time>2020-05-21T12:55:59.000Z</time>
      </trkpt>
      <trkpt lat="47.18513" lon="4.94369">
        <ele>386.59400064</ele>
        <time>2020-05-21T12:56:01.000Z</time>
      </trkpt>
      <trkpt lat="47.1851" lon="4.94368">
        <ele>386.39400064</ele>
        <time>2020-05-21T12:56:03.000Z</time>
      </trkpt>
      <trkpt lat="47.18507" lon="4.94367">
        <ele>386.19400064</ele>
        <time>2020-05-21T12:56:05.000Z</time>
      </trkpt>
      <trkpt lat="47.18504" lon="4.94367">
        <ele>386.00599936</ele>
        <time>2020-05-21T12:56:07.000Z</time>
      </trkpt>
      <trkpt lat="47.18502" lon="4.94368">
        <ele>386.20599936</ele>
        <time>2020-05-21T12:56:09.000Z</time>
      </trkpt>
      <trkpt lat="47.185" lon="4.94367">
        <ele>386.40599936</ele>
        <time>2020-05-21T12:56:11.000Z</time>
      </trkpt>
      <trkpt lat="47.18498" lon="4.94367">
        <ele>386.60599936</ele>
        <time>2020-05-21T12:56:13.000Z</time>
      </trkpt>
      <trkpt lat="47.18495" lon="4.94366">
        <ele>386.80599936</ele>
        <time>2020-05-21T12:56:15.000Z</time>
      </trkpt>
      <trkpt lat="47.18493" lon="4.94366">
        <ele>386.90599936</ele>
        <time>2020-05-21T12:56:16.000Z</time>
      </trkpt>
      <trkpt lat="47.1849" lon="4.94365">
        <ele>387</ele>
        <time>2020-05-21T12:56:18.000Z</time>
      </trkpt>
      <trkpt lat="47.18487" lon="4.94365">
        <ele>387</ele>
        <time>2020-05-21T12:56:20.000Z</time>
      </trkpt>
      <trkpt lat="47.18485" lon="4.94364">
        <ele>387</ele>
        <time>2020-05-21T12:56:22.000Z</time>
      </trkpt>
      <trkpt lat="47.18482" lon="4.94364">
        <ele>387</ele>
        <time>2020-05-21T12:56:24.000Z</time>
      </trkpt>
      <trkpt lat="47.1848" lon="4.94363">
        <ele>387</ele>
        <time>2020-05-21T12:56:26.000Z</time>
      </trkpt>
      <trkpt lat="47.18477" lon="4.94363">
        <ele>387</ele>
        <time>2020-05-21T12:56:28.000Z</time>
      </trkpt>
      <trkpt lat="47.18474" lon="4.94363">
        <ele>387</ele>
        <time>2020-05-21T12:56:30.000Z</time>
      </trkpt>
      <trkpt lat="47.18472" lon="4.94363">
        <ele>387</ele>
        <time>2020-05-21T12:56:32.000Z</time>
      </trkpt>
      <trkpt lat="47.1847" lon="4.94363">
        <ele>387</ele>
        <time>2020-05-21T12:56:34.000Z</time>
      </trkpt>
      <trkpt lat="47.18467" lon="4.94362">
        <ele>387</ele>
        <time>2020-05-21T12:56:36.000Z</time>
      </trkpt>
      <trkpt lat="47.18464" lon="4.94362">
        <ele>387</ele>
        <time>2020-05-21T12:56:38.000Z</time>
      </trkpt>
      <trkpt lat="47.18462" lon="4.94362">
        <ele>387</ele>
        <time>2020-05-21T12:56:40.000Z</time>
      </trkpt>
      <trkpt lat="47.18459" lon="4.94362">
        <ele>387</ele>
        <time>2020-05-21T12:56:42.000Z</time>
      </trkpt>
      <trkpt lat="47.18457" lon="4.94362">
        <ele>387</ele>
        <time>2020-05-21T12:56:44.000Z</time>
      </trkpt>
      <trkpt lat="47.18455" lon="4.94361">
        <ele>387</ele>
        <time>2020-05-21T12:56:46.000Z</time>
      </trkpt>
      <trkpt lat="47.18452" lon="4.94361">
        <ele>386.89400064</ele>
        <time>2020-05-21T12:56:48.000Z</time>
      </trkpt>
      <trkpt lat="47.1845" lon="4.94361">
        <ele>386.69400064</ele>
        <time>2020-05-21T12:56:50.000Z</time>
      </trkpt>
      <trkpt lat="47.18447" lon="4.94361">
        <ele>386.49400064</ele>
        <time>2020-05-21T12:56:52.000Z</time>
      </trkpt>
      <trkpt lat="47.18445" lon="4.94362">
        <ele>386.29400064</ele>
        <time>2020-05-21T12:56:54.000Z</time>
      </trkpt>
      <trkpt lat="47.18442" lon="4.94362">
        <ele>386.09400064</ele>
        <time>2020-05-21T12:56:56.000Z</time>
      </trkpt>
      <trkpt lat="47.1844" lon="4.94362">
        <ele>386</ele>
        <time>2020-05-21T12:56:58.000Z</time>
      </trkpt>
      <trkpt lat="47.18438" lon="4.94362">
        <ele>386</ele>
        <time>2020-05-21T12:57:00.000Z</time>
      </trkpt>
      <trkpt lat="47.18436" lon="4.94361">
        <ele>386</ele>
        <time>2020-05-21T12:57:02.000Z</time>
      </trkpt>
      <trkpt lat="47.18433" lon="4.94361">
        <ele>386</ele>
        <time>2020-05-21T12:57:04.000Z</time>
      </trkpt>
      <trkpt lat="47.18431" lon="4.94361">
        <ele>386</ele>
        <time>2020-05-21T12:57:06.000Z</time>
      </trkpt>
      <trkpt lat="47.18429" lon="4.9436">
        <ele>386</ele>
        <time>2020-05-21T12:57:08.000Z</time>
      </trkpt>
      <trkpt lat="47.18427" lon="4.9436">
        <ele>386</ele>
        <time>2020-05-21T12:57:10.000Z</time>
      </trkpt>
      <trkpt lat="47.18425" lon="4.9436">
        <ele>386</ele>
        <time>2020-05-21T12:57:12.000Z</time>
      </trkpt>
      <trkpt lat="47.18423" lon="4.9436">
        <ele>386</ele>
        <time>2020-05-21T12:57:14.000Z</time>
      </trkpt>
      <trkpt lat="47.1842" lon="4.9436">
        <ele>385.99400064</ele>
        <time>2020-05-21T12:57:17.000Z</time>
      </trkpt>
      <trkpt lat="47.18418" lon="4.94358">
        <ele>385.39400064</ele>
        <time>2020-05-21T12:57:23.000Z</time>
      </trkpt>
      <trkpt lat="47.18416" lon="4.94358">
        <ele>385</ele>
        <time>2020-05-21T12:57:27.000Z</time>
      </trkpt>
      <trkpt lat="47.18413" lon="4.94357">
        <ele>385</ele>
        <time>2020-05-21T12:57:29.000Z</time>
      </trkpt>
      <trkpt lat="47.1841" lon="4.94357">
        <ele>385</ele>
        <time>2020-05-21T12:57:31.000Z</time>
      </trkpt>
      <trkpt lat="47.18408" lon="4.94356">
        <ele>385</ele>
        <time>2020-05-21T12:57:33.000Z</time>
      </trkpt>
      <trkpt lat="47.18405" lon="4.94355">
        <ele>385</ele>
        <time>2020-05-21T12:57:35.000Z</time>
      </trkpt>
      <trkpt lat="47.18403" lon="4.94355">
        <ele>385</ele>
        <time>2020-05-21T12:57:37.000Z</time>
      </trkpt>
      <trkpt lat="47.18401" lon="4.94354">
        <ele>385</ele>
        <time>2020-05-21T12:57:39.000Z</time>
      </trkpt>
      <trkpt lat="47.18399" lon="4.94353">
        <ele>385</ele>
        <time>2020-05-21T12:57:41.000Z</time>
      </trkpt>
      <trkpt lat="47.18397" lon="4.94351">
        <ele>385</ele>
        <time>2020-05-21T12:57:42.000Z</time>
      </trkpt>
      <trkpt lat="47.18395" lon="4.9435">
        <ele>385</ele>
        <time>2020-05-21T12:57:44.000Z</time>
      </trkpt>
      <trkpt lat="47.18393" lon="4.94349">
        <ele>385</ele>
        <time>2020-05-21T12:57:46.000Z</time>
      </trkpt>
      <trkpt lat="47.1839" lon="4.94348">
        <ele>385</ele>
        <time>2020-05-21T12:57:48.000Z</time>
      </trkpt>
      <trkpt lat="47.18388" lon="4.94347">
        <ele>385</ele>
        <time>2020-05-21T12:57:50.000Z</time>
      </trkpt>
      <trkpt lat="47.18385" lon="4.94345">
        <ele>385</ele>
        <time>2020-05-21T12:57:52.000Z</time>
      </trkpt>
      <trkpt lat="47.18382" lon="4.94344">
        <ele>385</ele>
        <time>2020-05-21T12:57:54.000Z</time>
      </trkpt>
      <trkpt lat="47.1838" lon="4.94341">
        <ele>385</ele>
        <time>2020-05-21T12:57:56.000Z</time>
      </trkpt>
      <trkpt lat="47.18378" lon="4.9434">
        <ele>385</ele>
        <time>2020-05-21T12:57:58.000Z</time>
      </trkpt>
      <trkpt lat="47.18376" lon="4.9434">
        <ele>385</ele>
        <time>2020-05-21T12:58:00.000Z</time>
      </trkpt>
      <trkpt lat="47.18374" lon="4.94339">
        <ele>385</ele>
        <time>2020-05-21T12:58:02.000Z</time>
      </trkpt>
      <trkpt lat="47.18372" lon="4.94338">
        <ele>385</ele>
        <time>2020-05-21T12:58:04.000Z</time>
      </trkpt>
      <trkpt lat="47.1837" lon="4.94336">
        <ele>385</ele>
        <time>2020-05-21T12:58:06.000Z</time>
      </trkpt>
      <trkpt lat="47.18367" lon="4.94334">
        <ele>385</ele>
        <time>2020-05-21T12:58:08.000Z</time>
      </trkpt>
      <trkpt lat="47.18366" lon="4.94334">
        <ele>385</ele>
        <time>2020-05-21T12:58:10.000Z</time>
      </trkpt>
      <trkpt lat="47.18364" lon="4.94334">
        <ele>385</ele>
        <time>2020-05-21T12:58:12.000Z</time>
      </trkpt>
      <trkpt lat="47.18361" lon="4.94333">
        <ele>385</ele>
        <time>2020-05-21T12:58:14.000Z</time>
      </trkpt>
      <trkpt lat="47.18359" lon="4.94331">
        <ele>385</ele>
        <time>2020-05-21T12:58:16.000Z</time>
      </trkpt>
      <trkpt lat="47.18357" lon="4.9433">
        <ele>385</ele>
        <time>2020-05-21T12:58:18.000Z</time>
      </trkpt>
      <trkpt lat="47.18354" lon="4.94329">
        <ele>385</ele>
        <time>2020-05-21T12:58:20.000Z</time>
      </trkpt>
      <trkpt lat="47.18352" lon="4.94328">
        <ele>385</ele>
        <time>2020-05-21T12:58:22.000Z</time>
      </trkpt>
      <trkpt lat="47.18349" lon="4.94327">
        <ele>385</ele>
        <time>2020-05-21T12:58:24.000Z</time>
      </trkpt>
      <trkpt lat="47.18346" lon="4.94326">
        <ele>385</ele>
        <time>2020-05-21T12:58:26.000Z</time>
      </trkpt>
      <trkpt lat="47.18343" lon="4.94325">
        <ele>385</ele>
        <time>2020-05-21T12:58:28.000Z</time>
      </trkpt>
      <trkpt lat="47.18341" lon="4.94324">
        <ele>385</ele>
        <time>2020-05-21T12:58:30.000Z</time>
      </trkpt>
      <trkpt lat="47.18338" lon="4.94324">
        <ele>385</ele>
        <time>2020-05-21T12:58:33.000Z</time>
      </trkpt>
      <trkpt lat="47.18336" lon="4.94324">
        <ele>385</ele>
        <time>2020-05-21T12:58:36.000Z</time>
      </trkpt>
      <trkpt lat="47.18333" lon="4.94323">
        <ele>385</ele>
        <time>2020-05-21T12:58:38.000Z</time>
      </trkpt>
      <trkpt lat="47.1833" lon="4.94323">
        <ele>385</ele>
        <time>2020-05-21T12:58:40.000Z</time>
      </trkpt>
      <trkpt lat="47.18328" lon="4.94322">
        <ele>385</ele>
        <time>2020-05-21T12:58:42.000Z</time>
      </trkpt>
      <trkpt lat="47.18325" lon="4.94322">
        <ele>385</ele>
        <time>2020-05-21T12:58:44.000Z</time>
      </trkpt>
      <trkpt lat="47.18323" lon="4.94321">
        <ele>385</ele>
        <time>2020-05-21T12:58:46.000Z</time>
      </trkpt>
      <trkpt lat="47.1832" lon="4.9432">
        <ele>385</ele>
        <time>2020-05-21T12:58:48.000Z</time>
      </trkpt>
      <trkpt lat="47.18318" lon="4.94318">
        <ele>385</ele>
        <time>2020-05-21T12:58:50.000Z</time>
      </trkpt>
      <trkpt lat="47.18316" lon="4.94317">
        <ele>385</ele>
        <time>2020-05-21T12:58:52.000Z</time>
      </trkpt>
      <trkpt lat="47.18314" lon="4.94315">
        <ele>385</ele>
        <time>2020-05-21T12:58:54.000Z</time>
      </trkpt>
      <trkpt lat="47.18311" lon="4.94314">
        <ele>385</ele>
        <time>2020-05-21T12:58:56.000Z</time>
      </trkpt>
      <trkpt lat="47.18309" lon="4.94313">
        <ele>385.07835046377</ele>
        <time>2020-05-21T12:58:58.000Z</time>
      </trkpt>
      <trkpt lat="47.18307" lon="4.94312">
        <ele>385.28453589474</ele>
        <time>2020-05-21T12:59:00.000Z</time>
      </trkpt>
      <trkpt lat="47.18305" lon="4.9431">
        <ele>385.49072132571</ele>
        <time>2020-05-21T12:59:02.000Z</time>
      </trkpt>
      <trkpt lat="47.18303" lon="4.94308">
        <ele>385.69690675668</ele>
        <time>2020-05-21T12:59:04.000Z</time>
      </trkpt>
      <trkpt lat="47.18301" lon="4.94307">
        <ele>385.90309218765</ele>
        <time>2020-05-21T12:59:06.000Z</time>
      </trkpt>
      <trkpt lat="47.18299" lon="4.94306">
        <ele>386</ele>
        <time>2020-05-21T12:59:08.000Z</time>
      </trkpt>
      <trkpt lat="47.18297" lon="4.94306">
        <ele>386</ele>
        <time>2020-05-21T12:59:10.000Z</time>
      </trkpt>
      <trkpt lat="47.18295" lon="4.94307">
        <ele>386</ele>
        <time>2020-05-21T12:59:12.000Z</time>
      </trkpt>
      <trkpt lat="47.18293" lon="4.94308">
        <ele>386</ele>
        <time>2020-05-21T12:59:14.000Z</time>
      </trkpt>
      <trkpt lat="47.1829" lon="4.94309">
        <ele>386</ele>
        <time>2020-05-21T12:59:16.000Z</time>
      </trkpt>
      <trkpt lat="47.18289" lon="4.9431">
        <ele>386.10599936</ele>
        <time>2020-05-21T12:59:18.000Z</time>
      </trkpt>
      <trkpt lat="47.18288" lon="4.94312">
        <ele>386.90599936</ele>
        <time>2020-05-21T12:59:26.000Z</time>
      </trkpt>
      <trkpt lat="47.18287" lon="4.94313">
        <ele>387</ele>
        <time>2020-05-21T12:59:29.000Z</time>
      </trkpt>
      <trkpt lat="47.18284" lon="4.94313">
        <ele>387</ele>
        <time>2020-05-21T12:59:31.000Z</time>
      </trkpt>
      <trkpt lat="47.18282" lon="4.94313">
        <ele>387</ele>
        <time>2020-05-21T12:59:33.000Z</time>
      </trkpt>
      <trkpt lat="47.1828" lon="4.94313">
        <ele>387</ele>
        <time>2020-05-21T12:59:35.000Z</time>
      </trkpt>
      <trkpt lat="47.18277" lon="4.94314">
        <ele>386.99400064</ele>
        <time>2020-05-21T12:59:37.000Z</time>
      </trkpt>
      <trkpt lat="47.18275" lon="4.94314">
        <ele>386.79400064</ele>
        <time>2020-05-21T12:59:39.000Z</time>
      </trkpt>
      <trkpt lat="47.18273" lon="4.94314">
        <ele>386.59400064</ele>
        <time>2020-05-21T12:59:41.000Z</time>
      </trkpt>
      <trkpt lat="47.18271" lon="4.94315">
        <ele>386.39400064</ele>
        <time>2020-05-21T12:59:43.000Z</time>
      </trkpt>
      <trkpt lat="47.18269" lon="4.94316">
        <ele>386.19400064</ele>
        <time>2020-05-21T12:59:45.000Z</time>
      </trkpt>
      <trkpt lat="47.18266" lon="4.94316">
        <ele>386.00599936</ele>
        <time>2020-05-21T12:59:47.000Z</time>
      </trkpt>
      <trkpt lat="47.18264" lon="4.94317">
        <ele>386.30599936</ele>
        <time>2020-05-21T12:59:50.000Z</time>
      </trkpt>
      <trkpt lat="47.18261" lon="4.94318">
        <ele>386.50599936</ele>
        <time>2020-05-21T12:59:52.000Z</time>
      </trkpt>
      <trkpt lat="47.18259" lon="4.94319">
        <ele>386.70599936</ele>
        <time>2020-05-21T12:59:54.000Z</time>
      </trkpt>
      <trkpt lat="47.18256" lon="4.9432">
        <ele>386.90599936</ele>
        <time>2020-05-21T12:59:56.000Z</time>
      </trkpt>
      <trkpt lat="47.18254" lon="4.9432">
        <ele>387</ele>
        <time>2020-05-21T12:59:58.000Z</time>
      </trkpt>
      <trkpt lat="47.18252" lon="4.94321">
        <ele>387</ele>
        <time>2020-05-21T13:00:00.000Z</time>
      </trkpt>
      <trkpt lat="47.18249" lon="4.94322">
        <ele>387</ele>
        <time>2020-05-21T13:00:02.000Z</time>
      </trkpt>
      <trkpt lat="47.18246" lon="4.94323">
        <ele>387</ele>
        <time>2020-05-21T13:00:04.000Z</time>
      </trkpt>
      <trkpt lat="47.18243" lon="4.94324">
        <ele>387</ele>
        <time>2020-05-21T13:00:06.000Z</time>
      </trkpt>
      <trkpt lat="47.1824" lon="4.94326">
        <ele>387</ele>
        <time>2020-05-21T13:00:08.000Z</time>
      </trkpt>
      <trkpt lat="47.18238" lon="4.94327">
        <ele>387</ele>
        <time>2020-05-21T13:00:10.000Z</time>
      </trkpt>
      <trkpt lat="47.18235" lon="4.94328">
        <ele>387</ele>
        <time>2020-05-21T13:00:12.000Z</time>
      </trkpt>
      <trkpt lat="47.18233" lon="4.94329">
        <ele>387</ele>
        <time>2020-05-21T13:00:14.000Z</time>
      </trkpt>
      <trkpt lat="47.18231" lon="4.9433">
        <ele>387</ele>
        <time>2020-05-21T13:00:16.000Z</time>
      </trkpt>
      <trkpt lat="47.18228" lon="4.94332">
        <ele>386.89400064</ele>
        <time>2020-05-21T13:00:18.000Z</time>
      </trkpt>
      <trkpt lat="47.18227" lon="4.94334">
        <ele>386.69400064</ele>
        <time>2020-05-21T13:00:20.000Z</time>
      </trkpt>
      <trkpt lat="47.18225" lon="4.94335">
        <ele>386.49400064</ele>
        <time>2020-05-21T13:00:22.000Z</time>
      </trkpt>
      <trkpt lat="47.18223" lon="4.94336">
        <ele>386.29400064</ele>
        <time>2020-05-21T13:00:24.000Z</time>
      </trkpt>
      <trkpt lat="47.18221" lon="4.94337">
        <ele>386.09400064</ele>
        <time>2020-05-21T13:00:26.000Z</time>
      </trkpt>
      <trkpt lat="47.18219" lon="4.94339">
        <ele>386</ele>
        <time>2020-05-21T13:00:28.000Z</time>
      </trkpt>
      <trkpt lat="47.18216" lon="4.9434">
        <ele>386</ele>
        <time>2020-05-21T13:00:30.000Z</time>
      </trkpt>
      <trkpt lat="47.18214" lon="4.9434">
        <ele>386</ele>
        <time>2020-05-21T13:00:32.000Z</time>
      </trkpt>
      <trkpt lat="47.18212" lon="4.94341">
        <ele>386</ele>
        <time>2020-05-21T13:00:34.000Z</time>
      </trkpt>
      <trkpt lat="47.1821" lon="4.94342">
        <ele>386</ele>
        <time>2020-05-21T13:00:36.000Z</time>
      </trkpt>
      <trkpt lat="47.18208" lon="4.94343">
        <ele>386</ele>
        <time>2020-05-21T13:00:38.000Z</time>
      </trkpt>
      <trkpt lat="47.18205" lon="4.94344">
        <ele>386</ele>
        <time>2020-05-21T13:00:40.000Z</time>
      </trkpt>
      <trkpt lat="47.18203" lon="4.94345">
        <ele>386</ele>
        <time>2020-05-21T13:00:42.000Z</time>
      </trkpt>
      <trkpt lat="47.18201" lon="4.94346">
        <ele>386</ele>
        <time>2020-05-21T13:00:44.000Z</time>
      </trkpt>
      <trkpt lat="47.18199" lon="4.94347">
        <ele>386</ele>
        <time>2020-05-21T13:00:46.000Z</time>
      </trkpt>
      <trkpt lat="47.18197" lon="4.94348">
        <ele>385.89400064</ele>
        <time>2020-05-21T13:00:48.000Z</time>
      </trkpt>
      <trkpt lat="47.18194" lon="4.94349">
        <ele>385.69400064</ele>
        <time>2020-05-21T13:00:50.000Z</time>
      </trkpt>
      <trkpt lat="47.18191" lon="4.9435">
        <ele>385.49400064</ele>
        <time>2020-05-21T13:00:52.000Z</time>
      </trkpt>
      <trkpt lat="47.18189" lon="4.94351">
        <ele>385.29400064</ele>
        <time>2020-05-21T13:00:54.000Z</time>
      </trkpt>
      <trkpt lat="47.18187" lon="4.94352">
        <ele>385.09400064</ele>
        <time>2020-05-21T13:00:56.000Z</time>
      </trkpt>
      <trkpt lat="47.18185" lon="4.94354">
        <ele>384.89400064</ele>
        <time>2020-05-21T13:00:58.000Z</time>
      </trkpt>
      <trkpt lat="47.18183" lon="4.94355">
        <ele>384.69400064</ele>
        <time>2020-05-21T13:01:00.000Z</time>
      </trkpt>
      <trkpt lat="47.18182" lon="4.94357">
        <ele>384.49400064</ele>
        <time>2020-05-21T13:01:02.000Z</time>
      </trkpt>
      <trkpt lat="47.1818" lon="4.94359">
        <ele>384.29400064</ele>
        <time>2020-05-21T13:01:04.000Z</time>
      </trkpt>
      <trkpt lat="47.18177" lon="4.9436">
        <ele>384.09400064</ele>
        <time>2020-05-21T13:01:06.000Z</time>
      </trkpt>
      <trkpt lat="47.18175" lon="4.94361">
        <ele>384</ele>
        <time>2020-05-21T13:01:08.000Z</time>
      </trkpt>
      <trkpt lat="47.18173" lon="4.94363">
        <ele>384</ele>
        <time>2020-05-21T13:01:10.000Z</time>
      </trkpt>
      <trkpt lat="47.18171" lon="4.94364">
        <ele>384</ele>
        <time>2020-05-21T13:01:12.000Z</time>
      </trkpt>
      <trkpt lat="47.18168" lon="4.94365">
        <ele>384</ele>
        <time>2020-05-21T13:01:14.000Z</time>
      </trkpt>
      <trkpt lat="47.18165" lon="4.94366">
        <ele>384</ele>
        <time>2020-05-21T13:01:16.000Z</time>
      </trkpt>
      <trkpt lat="47.18163" lon="4.94368">
        <ele>383.89400064</ele>
        <time>2020-05-21T13:01:18.000Z</time>
      </trkpt>
      <trkpt lat="47.18161" lon="4.94369">
        <ele>383.69400064</ele>
        <time>2020-05-21T13:01:20.000Z</time>
      </trkpt>
      <trkpt lat="47.18159" lon="4.94371">
        <ele>383.49400064</ele>
        <time>2020-05-21T13:01:22.000Z</time>
      </trkpt>
      <trkpt lat="47.18157" lon="4.94372">
        <ele>383.29400064</ele>
        <time>2020-05-21T13:01:24.000Z</time>
      </trkpt>
      <trkpt lat="47.18155" lon="4.94374">
        <ele>383.09400064</ele>
        <time>2020-05-21T13:01:26.000Z</time>
      </trkpt>
      <trkpt lat="47.18153" lon="4.94375">
        <ele>383</ele>
        <time>2020-05-21T13:01:28.000Z</time>
      </trkpt>
      <trkpt lat="47.18151" lon="4.94375">
        <ele>383</ele>
        <time>2020-05-21T13:01:30.000Z</time>
      </trkpt>
      <trkpt lat="47.18148" lon="4.94377">
        <ele>383</ele>
        <time>2020-05-21T13:01:32.000Z</time>
      </trkpt>
      <trkpt lat="47.18146" lon="4.94379">
        <ele>383</ele>
        <time>2020-05-21T13:01:34.000Z</time>
      </trkpt>
      <trkpt lat="47.18144" lon="4.9438">
        <ele>383</ele>
        <time>2020-05-21T13:01:36.000Z</time>
      </trkpt>
      <trkpt lat="47.18142" lon="4.94381">
        <ele>382.89400064</ele>
        <time>2020-05-21T13:01:38.000Z</time>
      </trkpt>
      <trkpt lat="47.1814" lon="4.94383">
        <ele>382.69400064</ele>
        <time>2020-05-21T13:01:40.000Z</time>
      </trkpt>
      <trkpt lat="47.18138" lon="4.94384">
        <ele>382.49400064</ele>
        <time>2020-05-21T13:01:42.000Z</time>
      </trkpt>
      <trkpt lat="47.18136" lon="4.94385">
        <ele>382.29400064</ele>
        <time>2020-05-21T13:01:44.000Z</time>
      </trkpt>
      <trkpt lat="47.18134" lon="4.94388">
        <ele>382.09400064</ele>
        <time>2020-05-21T13:01:46.000Z</time>
      </trkpt>
      <trkpt lat="47.18131" lon="4.94389">
        <ele>381.89400064</ele>
        <time>2020-05-21T13:01:48.000Z</time>
      </trkpt>
      <trkpt lat="47.18128" lon="4.9439">
        <ele>381.69400064</ele>
        <time>2020-05-21T13:01:50.000Z</time>
      </trkpt>
      <trkpt lat="47.18126" lon="4.94391">
        <ele>381.49400064</ele>
        <time>2020-05-21T13:01:52.000Z</time>
      </trkpt>
      <trkpt lat="47.18124" lon="4.94392">
        <ele>381.29400064</ele>
        <time>2020-05-21T13:01:54.000Z</time>
      </trkpt>
      <trkpt lat="47.18121" lon="4.94393">
        <ele>381.09400064</ele>
        <time>2020-05-21T13:01:56.000Z</time>
      </trkpt>
      <trkpt lat="47.18119" lon="4.94395">
        <ele>381.1030120437</ele>
        <time>2020-05-21T13:01:58.000Z</time>
      </trkpt>
      <trkpt lat="47.18117" lon="4.94396">
        <ele>381.29737556381</ele>
        <time>2020-05-21T13:02:00.000Z</time>
      </trkpt>
      <trkpt lat="47.18114" lon="4.94398">
        <ele>381.49173908392</ele>
        <time>2020-05-21T13:02:02.000Z</time>
      </trkpt>
      <trkpt lat="47.18112" lon="4.944">
        <ele>381.68610260404</ele>
        <time>2020-05-21T13:02:04.000Z</time>
      </trkpt>
      <trkpt lat="47.1811" lon="4.94401">
        <ele>381.88046612415</ele>
        <time>2020-05-21T13:02:06.000Z</time>
      </trkpt>
      <trkpt lat="47.18108" lon="4.94402">
        <ele>382</ele>
        <time>2020-05-21T13:02:08.000Z</time>
      </trkpt>
      <trkpt lat="47.18106" lon="4.94403">
        <ele>382</ele>
        <time>2020-05-21T13:02:10.000Z</time>
      </trkpt>
      <trkpt lat="47.18104" lon="4.94405">
        <ele>382</ele>
        <time>2020-05-21T13:02:12.000Z</time>
      </trkpt>
      <trkpt lat="47.18102" lon="4.94407">
        <ele>382</ele>
        <time>2020-05-21T13:02:14.000Z</time>
      </trkpt>
      <trkpt lat="47.181" lon="4.94408">
        <ele>382</ele>
        <time>2020-05-21T13:02:16.000Z</time>
      </trkpt>
      <trkpt lat="47.18098" lon="4.94408">
        <ele>381.89400064</ele>
        <time>2020-05-21T13:02:18.000Z</time>
      </trkpt>
      <trkpt lat="47.18096" lon="4.94409">
        <ele>381.69400064</ele>
        <time>2020-05-21T13:02:20.000Z</time>
      </trkpt>
      <trkpt lat="47.18094" lon="4.9441">
        <ele>381.39400064</ele>
        <time>2020-05-21T13:02:23.000Z</time>
      </trkpt>
      <trkpt lat="47.18091" lon="4.94411">
        <ele>381.09400064</ele>
        <time>2020-05-21T13:02:26.000Z</time>
      </trkpt>
      <trkpt lat="47.18089" lon="4.94412">
        <ele>381</ele>
        <time>2020-05-21T13:02:28.000Z</time>
      </trkpt>
      <trkpt lat="47.18087" lon="4.94413">
        <ele>381</ele>
        <time>2020-05-21T13:02:30.000Z</time>
      </trkpt>
      <trkpt lat="47.18085" lon="4.94414">
        <ele>381</ele>
        <time>2020-05-21T13:02:32.000Z</time>
      </trkpt>
      <trkpt lat="47.18084" lon="4.94416">
        <ele>381</ele>
        <time>2020-05-21T13:02:34.000Z</time>
      </trkpt>
      <trkpt lat="47.18082" lon="4.94417">
        <ele>381</ele>
        <time>2020-05-21T13:02:36.000Z</time>
      </trkpt>
      <trkpt lat="47.1808" lon="4.94419">
        <ele>381</ele>
        <time>2020-05-21T13:02:38.000Z</time>
      </trkpt>
      <trkpt lat="47.18078" lon="4.9442">
        <ele>381</ele>
        <time>2020-05-21T13:02:40.000Z</time>
      </trkpt>
      <trkpt lat="47.18076" lon="4.94421">
        <ele>381</ele>
        <time>2020-05-21T13:02:42.000Z</time>
      </trkpt>
      <trkpt lat="47.18074" lon="4.94423">
        <ele>381</ele>
        <time>2020-05-21T13:02:44.000Z</time>
      </trkpt>
      <trkpt lat="47.18072" lon="4.94425">
        <ele>381</ele>
        <time>2020-05-21T13:02:46.000Z</time>
      </trkpt>
      <trkpt lat="47.1807" lon="4.94427">
        <ele>381</ele>
        <time>2020-05-21T13:02:48.000Z</time>
      </trkpt>
      <trkpt lat="47.18067" lon="4.94428">
        <ele>381</ele>
        <time>2020-05-21T13:02:50.000Z</time>
      </trkpt>
      <trkpt lat="47.18065" lon="4.9443">
        <ele>381</ele>
        <time>2020-05-21T13:02:52.000Z</time>
      </trkpt>
      <trkpt lat="47.18063" lon="4.94432">
        <ele>381</ele>
        <time>2020-05-21T13:02:54.000Z</time>
      </trkpt>
      <trkpt lat="47.18061" lon="4.94434">
        <ele>381</ele>
        <time>2020-05-21T13:02:56.000Z</time>
      </trkpt>
      <trkpt lat="47.18059" lon="4.94436">
        <ele>381</ele>
        <time>2020-05-21T13:02:58.000Z</time>
      </trkpt>
      <trkpt lat="47.18057" lon="4.94437">
        <ele>381</ele>
        <time>2020-05-21T13:03:00.000Z</time>
      </trkpt>
      <trkpt lat="47.18055" lon="4.94439">
        <ele>381</ele>
        <time>2020-05-21T13:03:02.000Z</time>
      </trkpt>
      <trkpt lat="47.18053" lon="4.9444">
        <ele>381</ele>
        <time>2020-05-21T13:03:04.000Z</time>
      </trkpt>
      <trkpt lat="47.18051" lon="4.94441">
        <ele>381</ele>
        <time>2020-05-21T13:03:06.000Z</time>
      </trkpt>
      <trkpt lat="47.18049" lon="4.94442">
        <ele>380.89400064</ele>
        <time>2020-05-21T13:03:08.000Z</time>
      </trkpt>
      <trkpt lat="47.18047" lon="4.94443">
        <ele>380.69400064</ele>
        <time>2020-05-21T13:03:10.000Z</time>
      </trkpt>
      <trkpt lat="47.18045" lon="4.94445">
        <ele>380.49400064</ele>
        <time>2020-05-21T13:03:12.000Z</time>
      </trkpt>
      <trkpt lat="47.18043" lon="4.94446">
        <ele>380.29400064</ele>
        <time>2020-05-21T13:03:14.000Z</time>
      </trkpt>
      <trkpt lat="47.18041" lon="4.94447">
        <ele>380.09400064</ele>
        <time>2020-05-21T13:03:16.000Z</time>
      </trkpt>
      <trkpt lat="47.18039" lon="4.94449">
        <ele>379.89400064</ele>
        <time>2020-05-21T13:03:18.000Z</time>
      </trkpt>
      <trkpt lat="47.18036" lon="4.9445">
        <ele>379.69400064</ele>
        <time>2020-05-21T13:03:20.000Z</time>
      </trkpt>
      <trkpt lat="47.18035" lon="4.94451">
        <ele>379.49400064</ele>
        <time>2020-05-21T13:03:22.000Z</time>
      </trkpt>
      <trkpt lat="47.18032" lon="4.94452">
        <ele>379.29400064</ele>
        <time>2020-05-21T13:03:24.000Z</time>
      </trkpt>
      <trkpt lat="47.1803" lon="4.94452">
        <ele>379.09400064</ele>
        <time>2020-05-21T13:03:26.000Z</time>
      </trkpt>
      <trkpt lat="47.18028" lon="4.94454">
        <ele>379.10599936</ele>
        <time>2020-05-21T13:03:28.000Z</time>
      </trkpt>
      <trkpt lat="47.18026" lon="4.94455">
        <ele>379.30599936</ele>
        <time>2020-05-21T13:03:30.000Z</time>
      </trkpt>
      <trkpt lat="47.18024" lon="4.94456">
        <ele>379.50599936</ele>
        <time>2020-05-21T13:03:32.000Z</time>
      </trkpt>
      <trkpt lat="47.18022" lon="4.94457">
        <ele>379.70599936</ele>
        <time>2020-05-21T13:03:34.000Z</time>
      </trkpt>
      <trkpt lat="47.18019" lon="4.94458">
        <ele>379.90599936</ele>
        <time>2020-05-21T13:03:36.000Z</time>
      </trkpt>
      <trkpt lat="47.18017" lon="4.9446">
        <ele>380</ele>
        <time>2020-05-21T13:03:38.000Z</time>
      </trkpt>
      <trkpt lat="47.18014" lon="4.94461">
        <ele>380</ele>
        <time>2020-05-21T13:03:40.000Z</time>
      </trkpt>
      <trkpt lat="47.18012" lon="4.94462">
        <ele>380</ele>
        <time>2020-05-21T13:03:42.000Z</time>
      </trkpt>
      <trkpt lat="47.1801" lon="4.94463">
        <ele>380</ele>
        <time>2020-05-21T13:03:44.000Z</time>
      </trkpt>
      <trkpt lat="47.18008" lon="4.94465">
        <ele>380</ele>
        <time>2020-05-21T13:03:46.000Z</time>
      </trkpt>
      <trkpt lat="47.18005" lon="4.94467">
        <ele>380</ele>
        <time>2020-05-21T13:03:48.000Z</time>
      </trkpt>
      <trkpt lat="47.18003" lon="4.94468">
        <ele>380</ele>
        <time>2020-05-21T13:03:50.000Z</time>
      </trkpt>
      <trkpt lat="47.18001" lon="4.94469">
        <ele>380</ele>
        <time>2020-05-21T13:03:52.000Z</time>
      </trkpt>
      <trkpt lat="47.17999" lon="4.94471">
        <ele>380</ele>
        <time>2020-05-21T13:03:54.000Z</time>
      </trkpt>
      <trkpt lat="47.17997" lon="4.94472">
        <ele>380</ele>
        <time>2020-05-21T13:03:56.000Z</time>
      </trkpt>
      <trkpt lat="47.17994" lon="4.94473">
        <ele>379.89400064</ele>
        <time>2020-05-21T13:03:58.000Z</time>
      </trkpt>
      <trkpt lat="47.17992" lon="4.94475">
        <ele>379.69400064</ele>
        <time>2020-05-21T13:04:00.000Z</time>
      </trkpt>
      <trkpt lat="47.17989" lon="4.94476">
        <ele>379.49400064</ele>
        <time>2020-05-21T13:04:02.000Z</time>
      </trkpt>
      <trkpt lat="47.17987" lon="4.94477">
        <ele>379.29400064</ele>
        <time>2020-05-21T13:04:04.000Z</time>
      </trkpt>
      <trkpt lat="47.17985" lon="4.94478">
        <ele>379.09400064</ele>
        <time>2020-05-21T13:04:06.000Z</time>
      </trkpt>
      <trkpt lat="47.17983" lon="4.94479">
        <ele>379</ele>
        <time>2020-05-21T13:04:08.000Z</time>
      </trkpt>
      <trkpt lat="47.17981" lon="4.94481">
        <ele>379</ele>
        <time>2020-05-21T13:04:10.000Z</time>
      </trkpt>
      <trkpt lat="47.17979" lon="4.94482">
        <ele>379</ele>
        <time>2020-05-21T13:04:13.000Z</time>
      </trkpt>
      <trkpt lat="47.17977" lon="4.94483">
        <ele>379</ele>
        <time>2020-05-21T13:04:15.000Z</time>
      </trkpt>
      <trkpt lat="47.17975" lon="4.94483">
        <ele>378.98800128</ele>
        <time>2020-05-21T13:04:17.000Z</time>
      </trkpt>
      <trkpt lat="47.17973" lon="4.94485">
        <ele>378.58800128</ele>
        <time>2020-05-21T13:04:19.000Z</time>
      </trkpt>
      <trkpt lat="47.1797" lon="4.94484">
        <ele>378.18800128</ele>
        <time>2020-05-21T13:04:21.000Z</time>
      </trkpt>
      <trkpt lat="47.17968" lon="4.94484">
        <ele>377.78800128</ele>
        <time>2020-05-21T13:04:23.000Z</time>
      </trkpt>
      <trkpt lat="47.17965" lon="4.94484">
        <ele>377.38800128</ele>
        <time>2020-05-21T13:04:25.000Z</time>
      </trkpt>
      <trkpt lat="47.17963" lon="4.94484">
        <ele>377</ele>
        <time>2020-05-21T13:04:27.000Z</time>
      </trkpt>
      <trkpt lat="47.1796" lon="4.94484">
        <ele>377</ele>
        <time>2020-05-21T13:04:29.000Z</time>
      </trkpt>
      <trkpt lat="47.17958" lon="4.94483">
        <ele>377</ele>
        <time>2020-05-21T13:04:31.000Z</time>
      </trkpt>
      <trkpt lat="47.17956" lon="4.94483">
        <ele>377</ele>
        <time>2020-05-21T13:04:33.000Z</time>
      </trkpt>
      <trkpt lat="47.17954" lon="4.94481">
        <ele>377</ele>
        <time>2020-05-21T13:04:35.000Z</time>
      </trkpt>
      <trkpt lat="47.17952" lon="4.9448">
        <ele>377</ele>
        <time>2020-05-21T13:04:37.000Z</time>
      </trkpt>
      <trkpt lat="47.17951" lon="4.94478">
        <ele>377</ele>
        <time>2020-05-21T13:04:39.000Z</time>
      </trkpt>
      <trkpt lat="47.1795" lon="4.94476">
        <ele>377</ele>
        <time>2020-05-21T13:04:41.000Z</time>
      </trkpt>
      <trkpt lat="47.17948" lon="4.94473">
        <ele>377</ele>
        <time>2020-05-21T13:04:43.000Z</time>
      </trkpt>
      <trkpt lat="47.17947" lon="4.94471">
        <ele>377</ele>
        <time>2020-05-21T13:04:45.000Z</time>
      </trkpt>
      <trkpt lat="47.17946" lon="4.94468">
        <ele>377.01199872</ele>
        <time>2020-05-21T13:04:47.000Z</time>
      </trkpt>
      <trkpt lat="47.17946" lon="4.94465">
        <ele>377.41199872</ele>
        <time>2020-05-21T13:04:49.000Z</time>
      </trkpt>
      <trkpt lat="47.17945" lon="4.94462">
        <ele>377.81199872</ele>
        <time>2020-05-21T13:04:51.000Z</time>
      </trkpt>
      <trkpt lat="47.17944" lon="4.94459">
        <ele>378.21199872</ele>
        <time>2020-05-21T13:04:53.000Z</time>
      </trkpt>
      <trkpt lat="47.17944" lon="4.94456">
        <ele>378.61199872</ele>
        <time>2020-05-21T13:04:55.000Z</time>
      </trkpt>
      <trkpt lat="47.17943" lon="4.94454">
        <ele>379.00599936</ele>
        <time>2020-05-21T13:04:57.000Z</time>
      </trkpt>
      <trkpt lat="47.17943" lon="4.9445">
        <ele>379.20599936</ele>
        <time>2020-05-21T13:04:59.000Z</time>
      </trkpt>
      <trkpt lat="47.17943" lon="4.94448">
        <ele>379.40599936</ele>
        <time>2020-05-21T13:05:01.000Z</time>
      </trkpt>
      <trkpt lat="47.17942" lon="4.94444">
        <ele>379.60599936</ele>
        <time>2020-05-21T13:05:03.000Z</time>
      </trkpt>
      <trkpt lat="47.17941" lon="4.94441">
        <ele>379.80599936</ele>
        <time>2020-05-21T13:05:05.000Z</time>
      </trkpt>
      <trkpt lat="47.1794" lon="4.94438">
        <ele>380.00581897729</ele>
        <time>2020-05-21T13:05:07.000Z</time>
      </trkpt>
      <trkpt lat="47.1794" lon="4.94435">
        <ele>380.19980557887</ele>
        <time>2020-05-21T13:05:09.000Z</time>
      </trkpt>
      <trkpt lat="47.17939" lon="4.94432">
        <ele>380.39379218045</ele>
        <time>2020-05-21T13:05:11.000Z</time>
      </trkpt>
      <trkpt lat="47.17938" lon="4.94429">
        <ele>380.58777878202</ele>
        <time>2020-05-21T13:05:13.000Z</time>
      </trkpt>
      <trkpt lat="47.17938" lon="4.94426">
        <ele>380.7817653836</ele>
        <time>2020-05-21T13:05:15.000Z</time>
      </trkpt>
      <trkpt lat="47.17937" lon="4.94423">
        <ele>380.97575198518</ele>
        <time>2020-05-21T13:05:17.000Z</time>
      </trkpt>
      <trkpt lat="47.17936" lon="4.94419">
        <ele>381.18059870653</ele>
        <time>2020-05-21T13:05:19.000Z</time>
      </trkpt>
      <trkpt lat="47.17935" lon="4.94417">
        <ele>381.38699685086</ele>
        <time>2020-05-21T13:05:21.000Z</time>
      </trkpt>
      <trkpt lat="47.17933" lon="4.94414">
        <ele>381.59339499519</ele>
        <time>2020-05-21T13:05:23.000Z</time>
      </trkpt>
      <trkpt lat="47.17932" lon="4.94412">
        <ele>381.79979313952</ele>
        <time>2020-05-21T13:05:25.000Z</time>
      </trkpt>
      <trkpt lat="47.17931" lon="4.94408">
        <ele>382</ele>
        <time>2020-05-21T13:05:28.000Z</time>
      </trkpt>
      <trkpt lat="47.1793" lon="4.94405">
        <ele>382</ele>
        <time>2020-05-21T13:05:30.000Z</time>
      </trkpt>
      <trkpt lat="47.17929" lon="4.94402">
        <ele>382</ele>
        <time>2020-05-21T13:05:33.000Z</time>
      </trkpt>
      <trkpt lat="47.17929" lon="4.94399">
        <ele>382</ele>
        <time>2020-05-21T13:05:36.000Z</time>
      </trkpt>
      <trkpt lat="47.17928" lon="4.94396">
        <ele>382.21199872</ele>
        <time>2020-05-21T13:05:38.000Z</time>
      </trkpt>
      <trkpt lat="47.17928" lon="4.94393">
        <ele>382.61199872</ele>
        <time>2020-05-21T13:05:40.000Z</time>
      </trkpt>
      <trkpt lat="47.17929" lon="4.9439">
        <ele>383.01199872</ele>
        <time>2020-05-21T13:05:42.000Z</time>
      </trkpt>
      <trkpt lat="47.17929" lon="4.94388">
        <ele>383.21199872</ele>
        <time>2020-05-21T13:05:43.000Z</time>
      </trkpt>
      <trkpt lat="47.17929" lon="4.94385">
        <ele>383.61199872</ele>
        <time>2020-05-21T13:05:45.000Z</time>
      </trkpt>
      <trkpt lat="47.1793" lon="4.94382">
        <ele>384.00599936</ele>
        <time>2020-05-21T13:05:47.000Z</time>
      </trkpt>
      <trkpt lat="47.1793" lon="4.9438">
        <ele>384.20599936</ele>
        <time>2020-05-21T13:05:49.000Z</time>
      </trkpt>
      <trkpt lat="47.1793" lon="4.94376">
        <ele>384.40599936</ele>
        <time>2020-05-21T13:05:51.000Z</time>
      </trkpt>
      <trkpt lat="47.1793" lon="4.94374">
        <ele>384.60599936</ele>
        <time>2020-05-21T13:05:53.000Z</time>
      </trkpt>
      <trkpt lat="47.17929" lon="4.94371">
        <ele>384.80599936</ele>
        <time>2020-05-21T13:05:55.000Z</time>
      </trkpt>
      <trkpt lat="47.17929" lon="4.94368">
        <ele>385</ele>
        <time>2020-05-21T13:05:57.000Z</time>
      </trkpt>
      <trkpt lat="47.17928" lon="4.94365">
        <ele>385</ele>
        <time>2020-05-21T13:05:59.000Z</time>
      </trkpt>
      <trkpt lat="47.17928" lon="4.94361">
        <ele>385</ele>
        <time>2020-05-21T13:06:08.000Z</time>
      </trkpt>
      <trkpt lat="47.17926" lon="4.94358">
        <ele>385</ele>
        <time>2020-05-21T13:06:10.000Z</time>
      </trkpt>
      <trkpt lat="47.17925" lon="4.94355">
        <ele>385</ele>
        <time>2020-05-21T13:06:12.000Z</time>
      </trkpt>
      <trkpt lat="47.17924" lon="4.94351">
        <ele>385</ele>
        <time>2020-05-21T13:06:14.000Z</time>
      </trkpt>
      <trkpt lat="47.17924" lon="4.94348">
        <ele>385</ele>
        <time>2020-05-21T13:06:16.000Z</time>
      </trkpt>
      <trkpt lat="47.17922" lon="4.94346">
        <ele>385.10599936</ele>
        <time>2020-05-21T13:06:18.000Z</time>
      </trkpt>
      <trkpt lat="47.17921" lon="4.94345">
        <ele>385.60599936</ele>
        <time>2020-05-21T13:06:23.000Z</time>
      </trkpt>
      <trkpt lat="47.1792" lon="4.94342">
        <ele>385.80599936</ele>
        <time>2020-05-21T13:06:25.000Z</time>
      </trkpt>
      <trkpt lat="47.1792" lon="4.94339">
        <ele>386.10599936</ele>
        <time>2020-05-21T13:06:28.000Z</time>
      </trkpt>
      <trkpt lat="47.1792" lon="4.94336">
        <ele>386.30599936</ele>
        <time>2020-05-21T13:06:30.000Z</time>
      </trkpt>
      <trkpt lat="47.1792" lon="4.94332">
        <ele>386.60599936</ele>
        <time>2020-05-21T13:06:33.000Z</time>
      </trkpt>
      <trkpt lat="47.17921" lon="4.94329">
        <ele>386.80599936</ele>
        <time>2020-05-21T13:06:35.000Z</time>
      </trkpt>
      <trkpt lat="47.17921" lon="4.94325">
        <ele>387.10599936</ele>
        <time>2020-05-21T13:06:38.000Z</time>
      </trkpt>
      <trkpt lat="47.17921" lon="4.94322">
        <ele>387.30599936</ele>
        <time>2020-05-21T13:06:40.000Z</time>
      </trkpt>
      <trkpt lat="47.17919" lon="4.9432">
        <ele>387.50599936</ele>
        <time>2020-05-21T13:06:42.000Z</time>
      </trkpt>
      <trkpt lat="47.17918" lon="4.94318">
        <ele>387.70599936</ele>
        <time>2020-05-21T13:06:44.000Z</time>
      </trkpt>
      <trkpt lat="47.17917" lon="4.94314">
        <ele>387.90599936</ele>
        <time>2020-05-21T13:06:46.000Z</time>
      </trkpt>
      <trkpt lat="47.17917" lon="4.94312">
        <ele>388</ele>
        <time>2020-05-21T13:06:48.000Z</time>
      </trkpt>
      <trkpt lat="47.17916" lon="4.94309">
        <ele>388</ele>
        <time>2020-05-21T13:06:50.000Z</time>
      </trkpt>
      <trkpt lat="47.17916" lon="4.94306">
        <ele>388</ele>
        <time>2020-05-21T13:06:52.000Z</time>
      </trkpt>
      <trkpt lat="47.17916" lon="4.94303">
        <ele>388</ele>
        <time>2020-05-21T13:06:54.000Z</time>
      </trkpt>
      <trkpt lat="47.17915" lon="4.94301">
        <ele>388</ele>
        <time>2020-05-21T13:06:56.000Z</time>
      </trkpt>
      <trkpt lat="47.17913" lon="4.94298">
        <ele>388.21199872</ele>
        <time>2020-05-21T13:06:58.000Z</time>
      </trkpt>
      <trkpt lat="47.17912" lon="4.94296">
        <ele>388.61199872</ele>
        <time>2020-05-21T13:07:00.000Z</time>
      </trkpt>
      <trkpt lat="47.1791" lon="4.94294">
        <ele>389.01199872</ele>
        <time>2020-05-21T13:07:02.000Z</time>
      </trkpt>
      <trkpt lat="47.1791" lon="4.94292">
        <ele>389.21199872</ele>
        <time>2020-05-21T13:07:03.000Z</time>
      </trkpt>
      <trkpt lat="47.17908" lon="4.94289">
        <ele>389.61199872</ele>
        <time>2020-05-21T13:07:05.000Z</time>
      </trkpt>
      <trkpt lat="47.17907" lon="4.94286">
        <ele>390</ele>
        <time>2020-05-21T13:07:07.000Z</time>
      </trkpt>
      <trkpt lat="47.17906" lon="4.94283">
        <ele>390</ele>
        <time>2020-05-21T13:07:09.000Z</time>
      </trkpt>
      <trkpt lat="47.17904" lon="4.9428">
        <ele>390</ele>
        <time>2020-05-21T13:07:11.000Z</time>
      </trkpt>
      <trkpt lat="47.17903" lon="4.94277">
        <ele>390</ele>
        <time>2020-05-21T13:07:13.000Z</time>
      </trkpt>
      <trkpt lat="47.17902" lon="4.94274">
        <ele>390</ele>
        <time>2020-05-21T13:07:15.000Z</time>
      </trkpt>
      <trkpt lat="47.17901" lon="4.94271">
        <ele>390</ele>
        <time>2020-05-21T13:07:17.000Z</time>
      </trkpt>
      <trkpt lat="47.179" lon="4.94267">
        <ele>390</ele>
        <time>2020-05-21T13:07:19.000Z</time>
      </trkpt>
      <trkpt lat="47.17899" lon="4.94264">
        <ele>390</ele>
        <time>2020-05-21T13:07:21.000Z</time>
      </trkpt>
      <trkpt lat="47.17898" lon="4.94262">
        <ele>390</ele>
        <time>2020-05-21T13:07:23.000Z</time>
      </trkpt>
      <trkpt lat="47.17897" lon="4.9426">
        <ele>390</ele>
        <time>2020-05-21T13:07:25.000Z</time>
      </trkpt>
      <trkpt lat="47.17896" lon="4.94257">
        <ele>390.00590488189</ele>
        <time>2020-05-21T13:07:27.000Z</time>
      </trkpt>
      <trkpt lat="47.17895" lon="4.94254">
        <ele>390.20275527559</ele>
        <time>2020-05-21T13:07:29.000Z</time>
      </trkpt>
      <trkpt lat="47.17893" lon="4.9425">
        <ele>390.49803086614</ele>
        <time>2020-05-21T13:07:32.000Z</time>
      </trkpt>
      <trkpt lat="47.17892" lon="4.94247">
        <ele>390.69488125984</ele>
        <time>2020-05-21T13:07:34.000Z</time>
      </trkpt>
      <trkpt lat="47.17891" lon="4.94245">
        <ele>390.89173165354</ele>
        <time>2020-05-21T13:07:36.000Z</time>
      </trkpt>
      <trkpt lat="47.1789" lon="4.94242">
        <ele>391.09146276423</ele>
        <time>2020-05-21T13:07:38.000Z</time>
      </trkpt>
      <trkpt lat="47.17889" lon="4.9424">
        <ele>391.29471479675</ele>
        <time>2020-05-21T13:07:40.000Z</time>
      </trkpt>
      <trkpt lat="47.17889" lon="4.94237">
        <ele>391.49796682927</ele>
        <time>2020-05-21T13:07:42.000Z</time>
      </trkpt>
      <trkpt lat="47.17888" lon="4.94234">
        <ele>391.70121886179</ele>
        <time>2020-05-21T13:07:44.000Z</time>
      </trkpt>
      <trkpt lat="47.17888" lon="4.94231">
        <ele>391.90447089431</ele>
        <time>2020-05-21T13:07:46.000Z</time>
      </trkpt>
      <trkpt lat="47.17887" lon="4.94227">
        <ele>392</ele>
        <time>2020-05-21T13:07:48.000Z</time>
      </trkpt>
      <trkpt lat="47.17886" lon="4.94224">
        <ele>392</ele>
        <time>2020-05-21T13:07:50.000Z</time>
      </trkpt>
      <trkpt lat="47.17885" lon="4.9422">
        <ele>392</ele>
        <time>2020-05-21T13:07:53.000Z</time>
      </trkpt>
      <trkpt lat="47.17883" lon="4.94221">
        <ele>392</ele>
        <time>2020-05-21T13:07:56.000Z</time>
      </trkpt>
      <trkpt lat="47.17881" lon="4.94223">
        <ele>392</ele>
        <time>2020-05-21T13:07:58.000Z</time>
      </trkpt>
      <trkpt lat="47.17879" lon="4.94223">
        <ele>392</ele>
        <time>2020-05-21T13:08:00.000Z</time>
      </trkpt>
      <trkpt lat="47.17877" lon="4.94221">
        <ele>392</ele>
        <time>2020-05-21T13:08:02.000Z</time>
      </trkpt>
      <trkpt lat="47.17875" lon="4.9422">
        <ele>392</ele>
        <time>2020-05-21T13:08:04.000Z</time>
      </trkpt>
      <trkpt lat="47.17873" lon="4.94219">
        <ele>392</ele>
        <time>2020-05-21T13:08:06.000Z</time>
      </trkpt>
      <trkpt lat="47.17871" lon="4.94218">
        <ele>392</ele>
        <time>2020-05-21T13:08:08.000Z</time>
      </trkpt>
      <trkpt lat="47.17869" lon="4.94216">
        <ele>392</ele>
        <time>2020-05-21T13:08:10.000Z</time>
      </trkpt>
      <trkpt lat="47.17867" lon="4.94214">
        <ele>392</ele>
        <time>2020-05-21T13:08:12.000Z</time>
      </trkpt>
      <trkpt lat="47.17865" lon="4.94213">
        <ele>392</ele>
        <time>2020-05-21T13:08:14.000Z</time>
      </trkpt>
      <trkpt lat="47.17863" lon="4.94212">
        <ele>392</ele>
        <time>2020-05-21T13:08:16.000Z</time>
      </trkpt>
      <trkpt lat="47.1786" lon="4.9421">
        <ele>392</ele>
        <time>2020-05-21T13:08:18.000Z</time>
      </trkpt>
      <trkpt lat="47.17858" lon="4.94209">
        <ele>392</ele>
        <time>2020-05-21T13:08:20.000Z</time>
      </trkpt>
      <trkpt lat="47.17856" lon="4.94207">
        <ele>392</ele>
        <time>2020-05-21T13:08:22.000Z</time>
      </trkpt>
      <trkpt lat="47.17854" lon="4.94206">
        <ele>392</ele>
        <time>2020-05-21T13:08:24.000Z</time>
      </trkpt>
      <trkpt lat="47.17852" lon="4.94205">
        <ele>392</ele>
        <time>2020-05-21T13:08:26.000Z</time>
      </trkpt>
      <trkpt lat="47.1785" lon="4.94203">
        <ele>392</ele>
        <time>2020-05-21T13:08:28.000Z</time>
      </trkpt>
      <trkpt lat="47.17847" lon="4.94202">
        <ele>392</ele>
        <time>2020-05-21T13:08:30.000Z</time>
      </trkpt>
      <trkpt lat="47.17845" lon="4.94201">
        <ele>392</ele>
        <time>2020-05-21T13:08:32.000Z</time>
      </trkpt>
      <trkpt lat="47.17843" lon="4.94199">
        <ele>392</ele>
        <time>2020-05-21T13:08:34.000Z</time>
      </trkpt>
      <trkpt lat="47.1784" lon="4.94198">
        <ele>392</ele>
        <time>2020-05-21T13:08:36.000Z</time>
      </trkpt>
      <trkpt lat="47.17838" lon="4.94197">
        <ele>392</ele>
        <time>2020-05-21T13:08:38.000Z</time>
      </trkpt>
      <trkpt lat="47.17836" lon="4.94196">
        <ele>392</ele>
        <time>2020-05-21T13:08:40.000Z</time>
      </trkpt>
      <trkpt lat="47.17834" lon="4.94195">
        <ele>392</ele>
        <time>2020-05-21T13:08:42.000Z</time>
      </trkpt>
      <trkpt lat="47.17831" lon="4.94193">
        <ele>392</ele>
        <time>2020-05-21T13:08:44.000Z</time>
      </trkpt>
      <trkpt lat="47.17829" lon="4.94192">
        <ele>392</ele>
        <time>2020-05-21T13:08:46.000Z</time>
      </trkpt>
      <trkpt lat="47.17827" lon="4.9419">
        <ele>392</ele>
        <time>2020-05-21T13:08:48.000Z</time>
      </trkpt>
      <trkpt lat="47.17825" lon="4.94189">
        <ele>392</ele>
        <time>2020-05-21T13:08:50.000Z</time>
      </trkpt>
      <trkpt lat="47.17823" lon="4.94187">
        <ele>392</ele>
        <time>2020-05-21T13:08:52.000Z</time>
      </trkpt>
      <trkpt lat="47.17821" lon="4.94185">
        <ele>392</ele>
        <time>2020-05-21T13:08:54.000Z</time>
      </trkpt>
      <trkpt lat="47.1782" lon="4.94183">
        <ele>392</ele>
        <time>2020-05-21T13:08:56.000Z</time>
      </trkpt>
      <trkpt lat="47.17818" lon="4.94181">
        <ele>391.89400064</ele>
        <time>2020-05-21T13:08:58.000Z</time>
      </trkpt>
      <trkpt lat="47.17817" lon="4.94178">
        <ele>391.69400064</ele>
        <time>2020-05-21T13:09:00.000Z</time>
      </trkpt>
      <trkpt lat="47.17815" lon="4.94176">
        <ele>391.49400064</ele>
        <time>2020-05-21T13:09:02.000Z</time>
      </trkpt>
      <trkpt lat="47.17813" lon="4.94173">
        <ele>391.19400064</ele>
        <time>2020-05-21T13:09:05.000Z</time>
      </trkpt>
      <trkpt lat="47.17811" lon="4.94171">
        <ele>391</ele>
        <time>2020-05-21T13:09:07.000Z</time>
      </trkpt>
      <trkpt lat="47.1781" lon="4.94168">
        <ele>391</ele>
        <time>2020-05-21T13:09:09.000Z</time>
      </trkpt>
      <trkpt lat="47.17808" lon="4.94166">
        <ele>391</ele>
        <time>2020-05-21T13:09:11.000Z</time>
      </trkpt>
      <trkpt lat="47.17806" lon="4.94163">
        <ele>391</ele>
        <time>2020-05-21T13:09:13.000Z</time>
      </trkpt>
      <trkpt lat="47.17805" lon="4.9416">
        <ele>391</ele>
        <time>2020-05-21T13:09:15.000Z</time>
      </trkpt>
      <trkpt lat="47.17803" lon="4.94159">
        <ele>391</ele>
        <time>2020-05-21T13:09:18.000Z</time>
      </trkpt>
      <trkpt lat="47.17801" lon="4.94155">
        <ele>391</ele>
        <time>2020-05-21T13:09:22.000Z</time>
      </trkpt>
      <trkpt lat="47.17801" lon="4.94152">
        <ele>391</ele>
        <time>2020-05-21T13:09:24.000Z</time>
      </trkpt>
      <trkpt lat="47.178" lon="4.9415">
        <ele>391</ele>
        <time>2020-05-21T13:09:26.000Z</time>
      </trkpt>
      <trkpt lat="47.17798" lon="4.94148">
        <ele>391</ele>
        <time>2020-05-21T13:09:28.000Z</time>
      </trkpt>
      <trkpt lat="47.17796" lon="4.94145">
        <ele>391</ele>
        <time>2020-05-21T13:09:30.000Z</time>
      </trkpt>
      <trkpt lat="47.17795" lon="4.94143">
        <ele>391</ele>
        <time>2020-05-21T13:09:32.000Z</time>
      </trkpt>
      <trkpt lat="47.17793" lon="4.94142">
        <ele>391</ele>
        <time>2020-05-21T13:09:34.000Z</time>
      </trkpt>
      <trkpt lat="47.1779" lon="4.94141">
        <ele>391</ele>
        <time>2020-05-21T13:09:36.000Z</time>
      </trkpt>
      <trkpt lat="47.17788" lon="4.9414">
        <ele>391</ele>
        <time>2020-05-21T13:09:38.000Z</time>
      </trkpt>
      <trkpt lat="47.17786" lon="4.94139">
        <ele>391</ele>
        <time>2020-05-21T13:09:40.000Z</time>
      </trkpt>
      <trkpt lat="47.17783" lon="4.9414">
        <ele>391</ele>
        <time>2020-05-21T13:09:42.000Z</time>
      </trkpt>
      <trkpt lat="47.17781" lon="4.94141">
        <ele>391</ele>
        <time>2020-05-21T13:09:44.000Z</time>
      </trkpt>
      <trkpt lat="47.17779" lon="4.94142">
        <ele>391</ele>
        <time>2020-05-21T13:09:46.000Z</time>
      </trkpt>
      <trkpt lat="47.17776" lon="4.94141">
        <ele>390.89400064</ele>
        <time>2020-05-21T13:09:48.000Z</time>
      </trkpt>
      <trkpt lat="47.17773" lon="4.94141">
        <ele>390.69400064</ele>
        <time>2020-05-21T13:09:50.000Z</time>
      </trkpt>
      <trkpt lat="47.17771" lon="4.94141">
        <ele>390.49400064</ele>
        <time>2020-05-21T13:09:52.000Z</time>
      </trkpt>
      <trkpt lat="47.17769" lon="4.94142">
        <ele>390.29400064</ele>
        <time>2020-05-21T13:09:54.000Z</time>
      </trkpt>
      <trkpt lat="47.17767" lon="4.94145">
        <ele>390.09400064</ele>
        <time>2020-05-21T13:09:56.000Z</time>
      </trkpt>
      <trkpt lat="47.17767" lon="4.94148">
        <ele>389.89400064</ele>
        <time>2020-05-21T13:09:58.000Z</time>
      </trkpt>
      <trkpt lat="47.17766" lon="4.94152">
        <ele>389.49400064</ele>
        <time>2020-05-21T13:10:02.000Z</time>
      </trkpt>
      <trkpt lat="47.17765" lon="4.94153">
        <ele>389.39400064</ele>
        <time>2020-05-21T13:10:03.000Z</time>
      </trkpt>
      <trkpt lat="47.17763" lon="4.94154">
        <ele>389.19400064</ele>
        <time>2020-05-21T13:10:05.000Z</time>
      </trkpt>
      <trkpt lat="47.17761" lon="4.94154">
        <ele>389</ele>
        <time>2020-05-21T13:10:07.000Z</time>
      </trkpt>
      <trkpt lat="47.17759" lon="4.94154">
        <ele>389</ele>
        <time>2020-05-21T13:10:09.000Z</time>
      </trkpt>
      <trkpt lat="47.17758" lon="4.94153">
        <ele>389</ele>
        <time>2020-05-21T13:10:11.000Z</time>
      </trkpt>
      <trkpt lat="47.17755" lon="4.94152">
        <ele>389</ele>
        <time>2020-05-21T13:10:13.000Z</time>
      </trkpt>
      <trkpt lat="47.17753" lon="4.94152">
        <ele>389</ele>
        <time>2020-05-21T13:10:16.000Z</time>
      </trkpt>
      <trkpt lat="47.17751" lon="4.94152">
        <ele>388.89400064</ele>
        <time>2020-05-21T13:10:18.000Z</time>
      </trkpt>
      <trkpt lat="47.17752" lon="4.94155">
        <ele>387.89410649961</ele>
        <time>2020-05-21T13:10:28.000Z</time>
      </trkpt>
      <trkpt lat="47.1775" lon="4.94155">
        <ele>387.59440610411</ele>
        <time>2020-05-21T13:10:31.000Z</time>
      </trkpt>
      <trkpt lat="47.17748" lon="4.94154">
        <ele>387.39460584043</ele>
        <time>2020-05-21T13:10:33.000Z</time>
      </trkpt>
      <trkpt lat="47.17745" lon="4.94151">
        <ele>387.09490544493</ele>
        <time>2020-05-21T13:10:36.000Z</time>
      </trkpt>
      <trkpt lat="47.17743" lon="4.9415">
        <ele>386.78979049777</ele>
        <time>2020-05-21T13:10:38.000Z</time>
      </trkpt>
      <trkpt lat="47.17741" lon="4.94149">
        <ele>386.38939022562</ele>
        <time>2020-05-21T13:10:40.000Z</time>
      </trkpt>
      <trkpt lat="47.17739" lon="4.94148">
        <ele>385.98898995348</ele>
        <time>2020-05-21T13:10:42.000Z</time>
      </trkpt>
      <trkpt lat="47.17738" lon="4.94147">
        <ele>385.58858968133</ele>
        <time>2020-05-21T13:10:44.000Z</time>
      </trkpt>
      <trkpt lat="47.17736" lon="4.94147">
        <ele>385.18818940919</ele>
        <time>2020-05-21T13:10:46.000Z</time>
      </trkpt>
      <trkpt lat="47.17734" lon="4.94147">
        <ele>384.68200192</ele>
        <time>2020-05-21T13:10:48.000Z</time>
      </trkpt>
      <trkpt lat="47.17732" lon="4.94148">
        <ele>384.08200192</ele>
        <time>2020-05-21T13:10:50.000Z</time>
      </trkpt>
      <trkpt lat="47.1773" lon="4.94148">
        <ele>383.48200192</ele>
        <time>2020-05-21T13:10:52.000Z</time>
      </trkpt>
      <trkpt lat="47.17729" lon="4.94147">
        <ele>383.18200192</ele>
        <time>2020-05-21T13:10:53.000Z</time>
      </trkpt>
      <trkpt lat="47.17727" lon="4.94147">
        <ele>382.58200192</ele>
        <time>2020-05-21T13:10:55.000Z</time>
      </trkpt>
      <trkpt lat="47.17725" lon="4.94146">
        <ele>381.98200192</ele>
        <time>2020-05-21T13:10:57.000Z</time>
      </trkpt>
      <trkpt lat="47.17723" lon="4.94146">
        <ele>381.38200192</ele>
        <time>2020-05-21T13:10:59.000Z</time>
      </trkpt>
      <trkpt lat="47.17721" lon="4.94146">
        <ele>380.78200192</ele>
        <time>2020-05-21T13:11:01.000Z</time>
      </trkpt>
      <trkpt lat="47.17719" lon="4.94145">
        <ele>380.18200192</ele>
        <time>2020-05-21T13:11:03.000Z</time>
      </trkpt>
      <trkpt lat="47.17716" lon="4.94146">
        <ele>379.28200192</ele>
        <time>2020-05-21T13:11:06.000Z</time>
      </trkpt>
      <trkpt lat="47.17715" lon="4.94146">
        <ele>378.89400064</ele>
        <time>2020-05-21T13:11:08.000Z</time>
      </trkpt>
      <trkpt lat="47.17712" lon="4.94145">
        <ele>378.49400064</ele>
        <time>2020-05-21T13:11:12.000Z</time>
      </trkpt>
      <trkpt lat="47.17711" lon="4.94144">
        <ele>378.29400064</ele>
        <time>2020-05-21T13:11:14.000Z</time>
      </trkpt>
      <trkpt lat="47.17709" lon="4.94142">
        <ele>377.97600256</ele>
        <time>2020-05-21T13:11:17.000Z</time>
      </trkpt>
      <trkpt lat="47.17706" lon="4.94141">
        <ele>376.37600256</ele>
        <time>2020-05-21T13:11:21.000Z</time>
      </trkpt>
      <trkpt lat="47.17704" lon="4.94141">
        <ele>375.57600256</ele>
        <time>2020-05-21T13:11:23.000Z</time>
      </trkpt>
      <trkpt lat="47.17702" lon="4.9414">
        <ele>374.37600256</ele>
        <time>2020-05-21T13:11:26.000Z</time>
      </trkpt>
      <trkpt lat="47.17701" lon="4.94138">
        <ele>373.69066296114</ele>
        <time>2020-05-21T13:11:28.000Z</time>
      </trkpt>
      <trkpt lat="47.17699" lon="4.94136">
        <ele>372.81517548971</ele>
        <time>2020-05-21T13:11:31.000Z</time>
      </trkpt>
      <trkpt lat="47.17697" lon="4.94136">
        <ele>372.23151717543</ele>
        <time>2020-05-21T13:11:33.000Z</time>
      </trkpt>
      <trkpt lat="47.17695" lon="4.94135">
        <ele>371.64785886115</ele>
        <time>2020-05-21T13:11:35.000Z</time>
      </trkpt>
      <trkpt lat="47.17693" lon="4.94134">
        <ele>371.06420054686</ele>
        <time>2020-05-21T13:11:37.000Z</time>
      </trkpt>
      <trkpt lat="47.17692" lon="4.94134">
        <ele>370.63374402141</ele>
        <time>2020-05-21T13:11:39.000Z</time>
      </trkpt>
      <trkpt lat="47.1769" lon="4.94135">
        <ele>370.22222192958</ele>
        <time>2020-05-21T13:11:41.000Z</time>
      </trkpt>
      <trkpt lat="47.17688" lon="4.94136">
        <ele>369.60493879185</ele>
        <time>2020-05-21T13:11:44.000Z</time>
      </trkpt>
      <trkpt lat="47.17686" lon="4.94135">
        <ele>368.68200192</ele>
        <time>2020-05-21T13:11:48.000Z</time>
      </trkpt>
      <trkpt lat="47.17685" lon="4.94133">
        <ele>367.18200192</ele>
        <time>2020-05-21T13:11:53.000Z</time>
      </trkpt>
      <trkpt lat="47.17685" lon="4.9413">
        <ele>366.58200192</ele>
        <time>2020-05-21T13:11:55.000Z</time>
      </trkpt>
      <trkpt lat="47.17685" lon="4.94127">
        <ele>365.97600256</ele>
        <time>2020-05-21T13:11:57.000Z</time>
      </trkpt>
      <trkpt lat="47.17686" lon="4.94126">
        <ele>365.17600256</ele>
        <time>2020-05-21T13:11:59.000Z</time>
      </trkpt>
      <trkpt lat="47.17685" lon="4.94122">
        <ele>363.97600256</ele>
        <time>2020-05-21T13:12:02.000Z</time>
      </trkpt>
      <trkpt lat="47.17685" lon="4.94121">
        <ele>363.57600256</ele>
        <time>2020-05-21T13:12:03.000Z</time>
      </trkpt>
      <trkpt lat="47.17683" lon="4.94118">
        <ele>362.77600256</ele>
        <time>2020-05-21T13:12:05.000Z</time>
      </trkpt>
      <trkpt lat="47.17683" lon="4.94115">
        <ele>361.98201989435</ele>
        <time>2020-05-21T13:12:07.000Z</time>
      </trkpt>
      <trkpt lat="47.17683" lon="4.94113">
        <ele>361.68231949884</ele>
        <time>2020-05-21T13:12:08.000Z</time>
      </trkpt>
      <trkpt lat="47.17682" lon="4.94111">
        <ele>361.08291870783</ele>
        <time>2020-05-21T13:12:10.000Z</time>
      </trkpt>
      <trkpt lat="47.17682" lon="4.94108">
        <ele>360.48351791681</ele>
        <time>2020-05-21T13:12:12.000Z</time>
      </trkpt>
      <trkpt lat="47.17682" lon="4.94105">
        <ele>359.88411712579</ele>
        <time>2020-05-21T13:12:14.000Z</time>
      </trkpt>
      <trkpt lat="47.17682" lon="4.94101">
        <ele>359.28471633477</ele>
        <time>2020-05-21T13:12:16.000Z</time>
      </trkpt>
      <trkpt lat="47.17682" lon="4.94098">
        <ele>358.78979049777</ele>
        <time>2020-05-21T13:12:18.000Z</time>
      </trkpt>
      <trkpt lat="47.17683" lon="4.94095">
        <ele>358.38939022562</ele>
        <time>2020-05-21T13:12:20.000Z</time>
      </trkpt>
      <trkpt lat="47.17684" lon="4.94092">
        <ele>357.98898995348</ele>
        <time>2020-05-21T13:12:22.000Z</time>
      </trkpt>
      <trkpt lat="47.17684" lon="4.94089">
        <ele>357.58858968133</ele>
        <time>2020-05-21T13:12:24.000Z</time>
      </trkpt>
      <trkpt lat="47.17682" lon="4.94087">
        <ele>357.18818940919</ele>
        <time>2020-05-21T13:12:26.000Z</time>
      </trkpt>
      <trkpt lat="47.1768" lon="4.94084">
        <ele>356.57600256</ele>
        <time>2020-05-21T13:12:28.000Z</time>
      </trkpt>
      <trkpt lat="47.17679" lon="4.94084">
        <ele>355.77600256</ele>
        <time>2020-05-21T13:12:30.000Z</time>
      </trkpt>
      <trkpt lat="47.17676" lon="4.94084">
        <ele>354.57600256</ele>
        <time>2020-05-21T13:12:33.000Z</time>
      </trkpt>
      <trkpt lat="47.17674" lon="4.94084">
        <ele>353.77600256</ele>
        <time>2020-05-21T13:12:35.000Z</time>
      </trkpt>
      <trkpt lat="47.17674" lon="4.94081">
        <ele>352.68200192</ele>
        <time>2020-05-21T13:12:38.000Z</time>
      </trkpt>
      <trkpt lat="47.17672" lon="4.94081">
        <ele>352.08200192</ele>
        <time>2020-05-21T13:12:40.000Z</time>
      </trkpt>
      <trkpt lat="47.1767" lon="4.94081">
        <ele>351.48200192</ele>
        <time>2020-05-21T13:12:42.000Z</time>
      </trkpt>
      <trkpt lat="47.17667" lon="4.9408">
        <ele>350.88200192</ele>
        <time>2020-05-21T13:12:44.000Z</time>
      </trkpt>
      <trkpt lat="47.17665" lon="4.9408">
        <ele>349.97600256</ele>
        <time>2020-05-21T13:12:47.000Z</time>
      </trkpt>
      <trkpt lat="47.17664" lon="4.9408">
        <ele>349.57600256</ele>
        <time>2020-05-21T13:12:48.000Z</time>
      </trkpt>
      <trkpt lat="47.17661" lon="4.9408">
        <ele>348.37600256</ele>
        <time>2020-05-21T13:12:51.000Z</time>
      </trkpt>
      <trkpt lat="47.1766" lon="4.94076">
        <ele>346.77600256</ele>
        <time>2020-05-21T13:12:55.000Z</time>
      </trkpt>
      <trkpt lat="47.1766" lon="4.94074">
        <ele>345.98800128</ele>
        <time>2020-05-21T13:12:57.000Z</time>
      </trkpt>
      <trkpt lat="47.1766" lon="4.94071">
        <ele>345.58800128</ele>
        <time>2020-05-21T13:12:59.000Z</time>
      </trkpt>
      <trkpt lat="47.17659" lon="4.94068">
        <ele>344.98800128</ele>
        <time>2020-05-21T13:13:02.000Z</time>
      </trkpt>
      <trkpt lat="47.17658" lon="4.94066">
        <ele>344.58800128</ele>
        <time>2020-05-21T13:13:04.000Z</time>
      </trkpt>
      <trkpt lat="47.17658" lon="4.94063">
        <ele>344.18800128</ele>
        <time>2020-05-21T13:13:06.000Z</time>
      </trkpt>
      <trkpt lat="47.17658" lon="4.9406">
        <ele>343.68200192</ele>
        <time>2020-05-21T13:13:08.000Z</time>
      </trkpt>
      <trkpt lat="47.17657" lon="4.94056">
        <ele>343.08200192</ele>
        <time>2020-05-21T13:13:10.000Z</time>
      </trkpt>
      <trkpt lat="47.17657" lon="4.94053">
        <ele>342.48200192</ele>
        <time>2020-05-21T13:13:12.000Z</time>
      </trkpt>
      <trkpt lat="47.17656" lon="4.94052">
        <ele>342.18200192</ele>
        <time>2020-05-21T13:13:13.000Z</time>
      </trkpt>
      <trkpt lat="47.17655" lon="4.94049">
        <ele>341.58200192</ele>
        <time>2020-05-21T13:13:15.000Z</time>
      </trkpt>
      <trkpt lat="47.17653" lon="4.94046">
        <ele>340.4700032</ele>
        <time>2020-05-21T13:13:18.000Z</time>
      </trkpt>
      <trkpt lat="47.1765" lon="4.94046">
        <ele>339.4700032</ele>
        <time>2020-05-21T13:13:20.000Z</time>
      </trkpt>
      <trkpt lat="47.17648" lon="4.94046">
        <ele>338.4700032</ele>
        <time>2020-05-21T13:13:22.000Z</time>
      </trkpt>
      <trkpt lat="47.17646" lon="4.94046">
        <ele>337.9700032</ele>
        <time>2020-05-21T13:13:23.000Z</time>
      </trkpt>
      <trkpt lat="47.17644" lon="4.94044">
        <ele>336.4700032</ele>
        <time>2020-05-21T13:13:26.000Z</time>
      </trkpt>
      <trkpt lat="47.17643" lon="4.94044">
        <ele>335.68200192</ele>
        <time>2020-05-21T13:13:28.000Z</time>
      </trkpt>
      <trkpt lat="47.17641" lon="4.94043">
        <ele>335.08200192</ele>
        <time>2020-05-21T13:13:30.000Z</time>
      </trkpt>
      <trkpt lat="47.17639" lon="4.94041">
        <ele>334.48200192</ele>
        <time>2020-05-21T13:13:32.000Z</time>
      </trkpt>
      <trkpt lat="47.17639" lon="4.94039">
        <ele>334.18200192</ele>
        <time>2020-05-21T13:13:33.000Z</time>
      </trkpt>
      <trkpt lat="47.17639" lon="4.94036">
        <ele>333.58200192</ele>
        <time>2020-05-21T13:13:35.000Z</time>
      </trkpt>
      <trkpt lat="47.17638" lon="4.94033">
        <ele>332.89400064</ele>
        <time>2020-05-21T13:13:38.000Z</time>
      </trkpt>
      <trkpt lat="47.17635" lon="4.94032">
        <ele>332.69400064</ele>
        <time>2020-05-21T13:13:40.000Z</time>
      </trkpt>
      <trkpt lat="47.17633" lon="4.9403">
        <ele>332.49400064</ele>
        <time>2020-05-21T13:13:42.000Z</time>
      </trkpt>
      <trkpt lat="47.17631" lon="4.94028">
        <ele>332.29400064</ele>
        <time>2020-05-21T13:13:44.000Z</time>
      </trkpt>
      <trkpt lat="47.17629" lon="4.94027">
        <ele>332.09400064</ele>
        <time>2020-05-21T13:13:46.000Z</time>
      </trkpt>
      <trkpt lat="47.17626" lon="4.94028">
        <ele>330.76400384</ele>
        <time>2020-05-21T13:13:49.000Z</time>
      </trkpt>
      <trkpt lat="47.17624" lon="4.94029">
        <ele>329.56400384</ele>
        <time>2020-05-21T13:13:51.000Z</time>
      </trkpt>
      <trkpt lat="47.17623" lon="4.9403">
        <ele>328.36400384</ele>
        <time>2020-05-21T13:13:53.000Z</time>
      </trkpt>
      <trkpt lat="47.17621" lon="4.94031">
        <ele>326.56400384</ele>
        <time>2020-05-21T13:13:56.000Z</time>
      </trkpt>
      <trkpt lat="47.1762" lon="4.94032">
        <ele>325.78800128</ele>
        <time>2020-05-21T13:13:58.000Z</time>
      </trkpt>
      <trkpt lat="47.17618" lon="4.94034">
        <ele>324.78800128</ele>
        <time>2020-05-21T13:14:03.000Z</time>
      </trkpt>
      <trkpt lat="47.17617" lon="4.94035">
        <ele>324.18800128</ele>
        <time>2020-05-21T13:14:06.000Z</time>
      </trkpt>
      <trkpt lat="47.17615" lon="4.94034">
        <ele>323.38800128</ele>
        <time>2020-05-21T13:14:10.000Z</time>
      </trkpt>
      <trkpt lat="47.17614" lon="4.94031">
        <ele>322.78800128</ele>
        <time>2020-05-21T13:14:13.000Z</time>
      </trkpt>
      <trkpt lat="47.17614" lon="4.94028">
        <ele>321.9700032</ele>
        <time>2020-05-21T13:14:17.000Z</time>
      </trkpt>
      <trkpt lat="47.17614" lon="4.94025">
        <ele>320.4700032</ele>
        <time>2020-05-21T13:14:20.000Z</time>
      </trkpt>
      <trkpt lat="47.17613" lon="4.94022">
        <ele>319.4700032</ele>
        <time>2020-05-21T13:14:22.000Z</time>
      </trkpt>
      <trkpt lat="47.17613" lon="4.94021">
        <ele>318.9700032</ele>
        <time>2020-05-21T13:14:23.000Z</time>
      </trkpt>
      <trkpt lat="47.17612" lon="4.94017">
        <ele>316.98800128</ele>
        <time>2020-05-21T13:14:27.000Z</time>
      </trkpt>
      <trkpt lat="47.17612" lon="4.94016">
        <ele>316.78800128</ele>
        <time>2020-05-21T13:14:28.000Z</time>
      </trkpt>
      <trkpt lat="47.17611" lon="4.94012">
        <ele>316.18800128</ele>
        <time>2020-05-21T13:14:31.000Z</time>
      </trkpt>
      <trkpt lat="47.17609" lon="4.9401">
        <ele>315.78800128</ele>
        <time>2020-05-21T13:14:33.000Z</time>
      </trkpt>
      <trkpt lat="47.17609" lon="4.94006">
        <ele>315.18800128</ele>
        <time>2020-05-21T13:14:36.000Z</time>
      </trkpt>
      <trkpt lat="47.17608" lon="4.94004">
        <ele>314.96501829816</ele>
        <time>2020-05-21T13:14:37.000Z</time>
      </trkpt>
      <trkpt lat="47.17606" lon="4.94001">
        <ele>313.79883717748</ele>
        <time>2020-05-21T13:14:39.000Z</time>
      </trkpt>
      <trkpt lat="47.17604" lon="4.94001">
        <ele>312.6326560568</ele>
        <time>2020-05-21T13:14:41.000Z</time>
      </trkpt>
      <trkpt lat="47.17603" lon="4.94002">
        <ele>311.46647493612</ele>
        <time>2020-05-21T13:14:43.000Z</time>
      </trkpt>
      <trkpt lat="47.17602" lon="4.93999">
        <ele>308.76210199395</ele>
        <time>2020-05-21T13:14:48.000Z</time>
      </trkpt>
      <trkpt lat="47.17602" lon="4.93996">
        <ele>308.14418252715</ele>
        <time>2020-05-21T13:14:50.000Z</time>
      </trkpt>
      <trkpt lat="47.17601" lon="4.93983">
        <ele>302.9700032</ele>
        <time>2020-05-21T13:15:03.000Z</time>
      </trkpt>
      <trkpt lat="47.17593" lon="4.93981">
        <ele>300.99400064</ele>
        <time>2020-05-21T13:15:07.000Z</time>
      </trkpt>
      <trkpt lat="47.17584" lon="4.93986">
        <ele>300</ele>
        <time>2020-05-21T13:15:27.000Z</time>
      </trkpt>
      <trkpt lat="47.17588" lon="4.93991">
        <ele>300</ele>
        <time>2020-05-21T13:15:36.000Z</time>
      </trkpt>
      <trkpt lat="47.17589" lon="4.93988">
        <ele>300</ele>
        <time>2020-05-21T13:15:46.000Z</time>
      </trkpt>
      <trkpt lat="47.17591" lon="4.93985">
        <ele>300</ele>
        <time>2020-05-21T13:15:51.000Z</time>
      </trkpt>
      <trkpt lat="47.17592" lon="4.93983">
        <ele>300</ele>
        <time>2020-05-21T13:15:53.000Z</time>
      </trkpt>
      <trkpt lat="47.17589" lon="4.93987">
        <ele>301</ele>
        <time>2020-05-21T13:16:07.000Z</time>
      </trkpt>
      <trkpt lat="47.17587" lon="4.93989">
        <ele>301</ele>
        <time>2020-05-21T13:16:11.000Z</time>
      </trkpt>
      <trkpt lat="47.17585" lon="4.9399">
        <ele>300.49400064</ele>
        <time>2020-05-21T13:16:22.000Z</time>
      </trkpt>
      <trkpt lat="47.17592" lon="4.93988">
        <ele>300</ele>
        <time>2020-05-21T13:16:41.000Z</time>
      </trkpt>
      <trkpt lat="47.17594" lon="4.9399">
        <ele>300</ele>
        <time>2020-05-21T13:16:54.000Z</time>
      </trkpt>
      <trkpt lat="47.17592" lon="4.9399">
        <ele>300.01199872</ele>
        <time>2020-05-21T13:17:12.000Z</time>
      </trkpt>
      <trkpt lat="47.17594" lon="4.93989">
        <ele>300.49400064</ele>
        <time>2020-05-21T13:17:42.000Z</time>
      </trkpt>
      <trkpt lat="47.17585" lon="4.93987">
        <ele>300</ele>
        <time>2020-05-21T13:18:04.000Z</time>
      </trkpt>
      <trkpt lat="47.17587" lon="4.93983">
        <ele>300</ele>
        <time>2020-05-21T13:18:07.000Z</time>
      </trkpt>
      <trkpt lat="47.17589" lon="4.93969">
        <ele>300</ele>
        <time>2020-05-21T13:18:13.000Z</time>
      </trkpt>
      <trkpt lat="47.17596" lon="4.93958">
        <ele>300</ele>
        <time>2020-05-21T13:18:19.000Z</time>
      </trkpt>
      <trkpt lat="47.17601" lon="4.93947">
        <ele>300</ele>
        <time>2020-05-21T13:18:28.000Z</time>
      </trkpt>
      <trkpt lat="47.17604" lon="4.93934">
        <ele>300.20599936</ele>
        <time>2020-05-21T13:18:39.000Z</time>
      </trkpt>
      <trkpt lat="47.17603" lon="4.9392">
        <ele>301.01199872</ele>
        <time>2020-05-21T13:18:47.000Z</time>
      </trkpt>
      <trkpt lat="47.17608" lon="4.93908">
        <ele>303</ele>
        <time>2020-05-21T13:18:57.000Z</time>
      </trkpt>
      <trkpt lat="47.17615" lon="4.93899">
        <ele>303</ele>
        <time>2020-05-21T13:19:05.000Z</time>
      </trkpt>
      <trkpt lat="47.17618" lon="4.93885">
        <ele>303</ele>
        <time>2020-05-21T13:19:16.000Z</time>
      </trkpt>
      <trkpt lat="47.17621" lon="4.93871">
        <ele>303</ele>
        <time>2020-05-21T13:19:26.000Z</time>
      </trkpt>
      <trkpt lat="47.17624" lon="4.93858">
        <ele>303.80599936</ele>
        <time>2020-05-21T13:19:35.000Z</time>
      </trkpt>
      <trkpt lat="47.17629" lon="4.93846">
        <ele>304</ele>
        <time>2020-05-21T13:19:43.000Z</time>
      </trkpt>
      <trkpt lat="47.17631" lon="4.93833">
        <ele>306</ele>
        <time>2020-05-21T13:20:00.000Z</time>
      </trkpt>
      <trkpt lat="47.17636" lon="4.9382">
        <ele>306.10599936</ele>
        <time>2020-05-21T13:20:08.000Z</time>
      </trkpt>
      <trkpt lat="47.17642" lon="4.93808">
        <ele>307.00599936</ele>
        <time>2020-05-21T13:20:17.000Z</time>
      </trkpt>
      <trkpt lat="47.17645" lon="4.93793">
        <ele>307.90599936</ele>
        <time>2020-05-21T13:20:26.000Z</time>
      </trkpt>
      <trkpt lat="47.17649" lon="4.93781">
        <ele>308</ele>
        <time>2020-05-21T13:20:33.000Z</time>
      </trkpt>
      <trkpt lat="47.17653" lon="4.93768">
        <ele>308.40480935964</ele>
        <time>2020-05-21T13:20:41.000Z</time>
      </trkpt>
      <trkpt lat="47.17657" lon="4.93756">
        <ele>309</ele>
        <time>2020-05-21T13:20:53.000Z</time>
      </trkpt>
      <trkpt lat="47.17662" lon="4.93745">
        <ele>309.49173908392</ele>
        <time>2020-05-21T13:21:02.000Z</time>
      </trkpt>
      <trkpt lat="47.17666" lon="4.9373">
        <ele>310.38825906875</ele>
        <time>2020-05-21T13:21:11.000Z</time>
      </trkpt>
      <trkpt lat="47.17666" lon="4.93716">
        <ele>311.41199872</ele>
        <time>2020-05-21T13:21:19.000Z</time>
      </trkpt>
      <trkpt lat="47.17672" lon="4.93703">
        <ele>313</ele>
        <time>2020-05-21T13:21:30.000Z</time>
      </trkpt>
      <trkpt lat="47.17676" lon="4.93691">
        <ele>313.21199872</ele>
        <time>2020-05-21T13:21:38.000Z</time>
      </trkpt>
      <trkpt lat="47.17682" lon="4.93679">
        <ele>315</ele>
        <time>2020-05-21T13:21:48.000Z</time>
      </trkpt>
      <trkpt lat="47.17685" lon="4.93666">
        <ele>315</ele>
        <time>2020-05-21T13:21:56.000Z</time>
      </trkpt>
      <trkpt lat="47.1769" lon="4.93655">
        <ele>315</ele>
        <time>2020-05-21T13:22:06.000Z</time>
      </trkpt>
      <trkpt lat="47.1769" lon="4.93641">
        <ele>315.80580522737</ele>
        <time>2020-05-21T13:22:15.000Z</time>
      </trkpt>
      <trkpt lat="47.17688" lon="4.93627">
        <ele>317.70599936</ele>
        <time>2020-05-21T13:22:34.000Z</time>
      </trkpt>
      <trkpt lat="47.17692" lon="4.93615">
        <ele>318.70599936</ele>
        <time>2020-05-21T13:22:44.000Z</time>
      </trkpt>
      <trkpt lat="47.17698" lon="4.93603">
        <ele>320</ele>
        <time>2020-05-21T13:22:57.000Z</time>
      </trkpt>
      <trkpt lat="47.17703" lon="4.93593">
        <ele>320.00599936</ele>
        <time>2020-05-21T13:23:07.000Z</time>
      </trkpt>
      <trkpt lat="47.17709" lon="4.93583">
        <ele>322.81799808</ele>
        <time>2020-05-21T13:23:23.000Z</time>
      </trkpt>
      <trkpt lat="47.17717" lon="4.93586">
        <ele>327.9776478842</ele>
        <time>2020-05-21T13:24:37.000Z</time>
      </trkpt>
      <trkpt lat="47.17726" lon="4.93585">
        <ele>330.21199872</ele>
        <time>2020-05-21T13:24:53.000Z</time>
      </trkpt>
      <trkpt lat="47.17729" lon="4.93587">
        <ele>333.20599936</ele>
        <time>2020-05-21T13:25:09.000Z</time>
      </trkpt>
      <trkpt lat="47.17731" lon="4.93586">
        <ele>333.60599936</ele>
        <time>2020-05-21T13:25:13.000Z</time>
      </trkpt>
      <trkpt lat="47.17733" lon="4.93584">
        <ele>334.21199872</ele>
        <time>2020-05-21T13:25:18.000Z</time>
      </trkpt>
      <trkpt lat="47.1774" lon="4.93592">
        <ele>336.70599936</ele>
        <time>2020-05-21T13:25:34.000Z</time>
      </trkpt>
      <trkpt lat="47.17741" lon="4.93602">
        <ele>340.21799808</ele>
        <time>2020-05-21T13:25:51.000Z</time>
      </trkpt>
      <trkpt lat="47.17743" lon="4.93602">
        <ele>340.81799808</ele>
        <time>2020-05-21T13:25:53.000Z</time>
      </trkpt>
      <trkpt lat="47.17744" lon="4.93598">
        <ele>342</ele>
        <time>2020-05-21T13:26:06.000Z</time>
      </trkpt>
      <trkpt lat="47.17746" lon="4.93595">
        <ele>342</ele>
        <time>2020-05-21T13:26:17.000Z</time>
      </trkpt>
      <trkpt lat="47.17748" lon="4.93594">
        <ele>342.61199872</ele>
        <time>2020-05-21T13:26:30.000Z</time>
      </trkpt>
      <trkpt lat="47.1775" lon="4.93596">
        <ele>343.01199872</ele>
        <time>2020-05-21T13:26:32.000Z</time>
      </trkpt>
      <trkpt lat="47.17751" lon="4.93597">
        <ele>343.21199872</ele>
        <time>2020-05-21T13:26:33.000Z</time>
      </trkpt>
      <trkpt lat="47.17753" lon="4.93598">
        <ele>344.01199872</ele>
        <time>2020-05-21T13:26:37.000Z</time>
      </trkpt>
      <trkpt lat="47.17755" lon="4.93601">
        <ele>344.81199872</ele>
        <time>2020-05-21T13:26:41.000Z</time>
      </trkpt>
      <trkpt lat="47.17756" lon="4.93602">
        <ele>345.21199872</ele>
        <time>2020-05-21T13:26:43.000Z</time>
      </trkpt>
      <trkpt lat="47.17758" lon="4.93603">
        <ele>345.81199872</ele>
        <time>2020-05-21T13:26:46.000Z</time>
      </trkpt>
      <trkpt lat="47.1776" lon="4.93604">
        <ele>346.20599936</ele>
        <time>2020-05-21T13:26:49.000Z</time>
      </trkpt>
      <trkpt lat="47.17762" lon="4.93604">
        <ele>346.50599936</ele>
        <time>2020-05-21T13:26:52.000Z</time>
      </trkpt>
      <trkpt lat="47.17763" lon="4.93605">
        <ele>346.70599936</ele>
        <time>2020-05-21T13:26:54.000Z</time>
      </trkpt>
      <trkpt lat="47.17765" lon="4.93606">
        <ele>347.41199872</ele>
        <time>2020-05-21T13:26:59.000Z</time>
      </trkpt>
      <trkpt lat="47.17767" lon="4.93606">
        <ele>348.01199872</ele>
        <time>2020-05-21T13:27:02.000Z</time>
      </trkpt>
      <trkpt lat="47.17768" lon="4.93605">
        <ele>348.41199872</ele>
        <time>2020-05-21T13:27:04.000Z</time>
      </trkpt>
      <trkpt lat="47.17771" lon="4.93605">
        <ele>349.01199872</ele>
        <time>2020-05-21T13:27:07.000Z</time>
      </trkpt>
      <trkpt lat="47.17772" lon="4.93605">
        <ele>350.21199872</ele>
        <time>2020-05-21T13:27:13.000Z</time>
      </trkpt>
      <trkpt lat="47.17772" lon="4.93606">
        <ele>352.76504777634</ele>
        <time>2020-05-21T13:27:23.000Z</time>
      </trkpt>
      <trkpt lat="47.17774" lon="4.93605">
        <ele>354</ele>
        <time>2020-05-21T13:27:31.000Z</time>
      </trkpt>
      <trkpt lat="47.17776" lon="4.93604">
        <ele>354</ele>
        <time>2020-05-21T13:27:36.000Z</time>
      </trkpt>
      <trkpt lat="47.17775" lon="4.93603">
        <ele>355.21199872</ele>
        <time>2020-05-21T13:27:43.000Z</time>
      </trkpt>
      <trkpt lat="47.17773" lon="4.93602">
        <ele>355.61199872</ele>
        <time>2020-05-21T13:27:45.000Z</time>
      </trkpt>
      <trkpt lat="47.17774" lon="4.93605">
        <ele>356.41199872</ele>
        <time>2020-05-21T13:27:49.000Z</time>
      </trkpt>
      <trkpt lat="47.17774" lon="4.93608">
        <ele>357.01199872</ele>
        <time>2020-05-21T13:27:52.000Z</time>
      </trkpt>
      <trkpt lat="47.17774" lon="4.93609">
        <ele>357.41199872</ele>
        <time>2020-05-21T13:27:54.000Z</time>
      </trkpt>
      <trkpt lat="47.17776" lon="4.93611">
        <ele>358.10599936</ele>
        <time>2020-05-21T13:27:58.000Z</time>
      </trkpt>
      <trkpt lat="47.17778" lon="4.9361">
        <ele>358.50599936</ele>
        <time>2020-05-21T13:28:02.000Z</time>
      </trkpt>
      <trkpt lat="47.17779" lon="4.9361">
        <ele>358.80599936</ele>
        <time>2020-05-21T13:28:05.000Z</time>
      </trkpt>
      <trkpt lat="47.17781" lon="4.93612">
        <ele>359.41199872</ele>
        <time>2020-05-21T13:28:09.000Z</time>
      </trkpt>
      <trkpt lat="47.17781" lon="4.93616">
        <ele>361.31799808</ele>
        <time>2020-05-21T13:28:18.000Z</time>
      </trkpt>
      <trkpt lat="47.1778" lon="4.93618">
        <ele>362.21799808</ele>
        <time>2020-05-21T13:28:21.000Z</time>
      </trkpt>
      <trkpt lat="47.1778" lon="4.9362">
        <ele>363.41799808</ele>
        <time>2020-05-21T13:28:25.000Z</time>
      </trkpt>
      <trkpt lat="47.1778" lon="4.93622">
        <ele>364.10599936</ele>
        <time>2020-05-21T13:28:38.000Z</time>
      </trkpt>
      <trkpt lat="47.17782" lon="4.93622">
        <ele>364.40599936</ele>
        <time>2020-05-21T13:28:41.000Z</time>
      </trkpt>
      <trkpt lat="47.17783" lon="4.93625">
        <ele>364.70599936</ele>
        <time>2020-05-21T13:28:44.000Z</time>
      </trkpt>
      <trkpt lat="47.17785" lon="4.93625">
        <ele>365.20599936</ele>
        <time>2020-05-21T13:28:49.000Z</time>
      </trkpt>
      <trkpt lat="47.17787" lon="4.93626">
        <ele>365.60599936</ele>
        <time>2020-05-21T13:28:53.000Z</time>
      </trkpt>
      <trkpt lat="47.17789" lon="4.93625">
        <ele>366.01199872</ele>
        <time>2020-05-21T13:28:57.000Z</time>
      </trkpt>
      <trkpt lat="47.17791" lon="4.93624">
        <ele>367.01199872</ele>
        <time>2020-05-21T13:29:02.000Z</time>
      </trkpt>
      <trkpt lat="47.17792" lon="4.93624">
        <ele>367.61199872</ele>
        <time>2020-05-21T13:29:05.000Z</time>
      </trkpt>
      <trkpt lat="47.17794" lon="4.93624">
        <ele>368.61199872</ele>
        <time>2020-05-21T13:29:10.000Z</time>
      </trkpt>
      <trkpt lat="47.17795" lon="4.93625">
        <ele>369.41199872</ele>
        <time>2020-05-21T13:29:14.000Z</time>
      </trkpt>
      <trkpt lat="47.17796" lon="4.93628">
        <ele>370.30599936</ele>
        <time>2020-05-21T13:29:20.000Z</time>
      </trkpt>
      <trkpt lat="47.17797" lon="4.93629">
        <ele>370.60599936</ele>
        <time>2020-05-21T13:29:23.000Z</time>
      </trkpt>
      <trkpt lat="47.17796" lon="4.93632">
        <ele>371.21199872</ele>
        <time>2020-05-21T13:29:28.000Z</time>
      </trkpt>
      <trkpt lat="47.17796" lon="4.93635">
        <ele>372.21199872</ele>
        <time>2020-05-21T13:29:33.000Z</time>
      </trkpt>
      <trkpt lat="47.17797" lon="4.93637">
        <ele>373.20117125</ele>
        <time>2020-05-21T13:29:39.000Z</time>
      </trkpt>
      <trkpt lat="47.17797" lon="4.93639">
        <ele>373.6894525</ele>
        <time>2020-05-21T13:29:44.000Z</time>
      </trkpt>
      <trkpt lat="47.17799" lon="4.93641">
        <ele>374.16803147541</ele>
        <time>2020-05-21T13:29:48.000Z</time>
      </trkpt>
      <trkpt lat="47.17802" lon="4.93641">
        <ele>375.19262163934</ele>
        <time>2020-05-21T13:29:53.000Z</time>
      </trkpt>
      <trkpt lat="47.17804" lon="4.93642">
        <ele>375.60245770492</ele>
        <time>2020-05-21T13:29:55.000Z</time>
      </trkpt>
      <trkpt lat="47.17806" lon="4.93643">
        <ele>376.21199872</ele>
        <time>2020-05-21T13:29:58.000Z</time>
      </trkpt>
      <trkpt lat="47.17808" lon="4.93641">
        <ele>377.01199872</ele>
        <time>2020-05-21T13:30:02.000Z</time>
      </trkpt>
      <trkpt lat="47.17809" lon="4.93642">
        <ele>378.00599936</ele>
        <time>2020-05-21T13:30:07.000Z</time>
      </trkpt>
      <trkpt lat="47.17811" lon="4.93642">
        <ele>378.60599936</ele>
        <time>2020-05-21T13:30:13.000Z</time>
      </trkpt>
      <trkpt lat="47.17811" lon="4.93645">
        <ele>379.41199872</ele>
        <time>2020-05-21T13:30:19.000Z</time>
      </trkpt>
      <trkpt lat="47.17812" lon="4.93648">
        <ele>380.01199872</ele>
        <time>2020-05-21T13:30:22.000Z</time>
      </trkpt>
      <trkpt lat="47.17813" lon="4.93649">
        <ele>380.41199872</ele>
        <time>2020-05-21T13:30:24.000Z</time>
      </trkpt>
      <trkpt lat="47.17811" lon="4.93647">
        <ele>381</ele>
        <time>2020-05-21T13:30:38.000Z</time>
      </trkpt>
      <trkpt lat="47.1781" lon="4.93646">
        <ele>381</ele>
        <time>2020-05-21T13:31:39.000Z</time>
      </trkpt>
      <trkpt lat="47.17809" lon="4.93643">
        <ele>380</ele>
        <time>2020-05-21T13:33:04.000Z</time>
      </trkpt>
      <trkpt lat="47.17808" lon="4.93641">
        <ele>380</ele>
        <time>2020-05-21T13:33:57.000Z</time>
      </trkpt>
      <trkpt lat="47.17809" lon="4.93644">
        <ele>380</ele>
        <time>2020-05-21T13:34:03.000Z</time>
      </trkpt>
      <trkpt lat="47.17809" lon="4.93647">
        <ele>380.18661245494</ele>
        <time>2020-05-21T13:34:08.000Z</time>
      </trkpt>
      <trkpt lat="47.1781" lon="4.9365">
        <ele>381.2008105796</ele>
        <time>2020-05-21T13:34:13.000Z</time>
      </trkpt>
      <trkpt lat="47.17811" lon="4.93653">
        <ele>381.80932945439</ele>
        <time>2020-05-21T13:34:16.000Z</time>
      </trkpt>
      <trkpt lat="47.17813" lon="4.93653">
        <ele>382.31799808</ele>
        <time>2020-05-21T13:34:18.000Z</time>
      </trkpt>
      <trkpt lat="47.17813" lon="4.93653">
        <ele>383.81799808</ele>
        <time>2020-05-21T13:34:23.000Z</time>
      </trkpt>
      <trkpt lat="47.17812" lon="4.93652">
        <ele>383</ele>
        <time>2020-05-21T13:35:48.000Z</time>
      </trkpt>
      <trkpt lat="47.17857" lon="4.93614">
        <ele>397.98415026205</ele>
        <time>2020-05-21T13:43:41.000Z</time>
      </trkpt>
      <trkpt lat="47.17856" lon="4.93612">
        <ele>398</ele>
        <time>2020-05-21T13:43:43.000Z</time>
      </trkpt>
      <trkpt lat="47.17855" lon="4.93609">
        <ele>398</ele>
        <time>2020-05-21T13:43:45.000Z</time>
      </trkpt>
      <trkpt lat="47.17854" lon="4.93606">
        <ele>398</ele>
        <time>2020-05-21T13:43:47.000Z</time>
      </trkpt>
      <trkpt lat="47.17853" lon="4.93603">
        <ele>398</ele>
        <time>2020-05-21T13:43:49.000Z</time>
      </trkpt>
      <trkpt lat="47.17853" lon="4.936">
        <ele>397.98833943272</ele>
        <time>2020-05-21T13:43:51.000Z</time>
      </trkpt>
      <trkpt lat="47.17852" lon="4.93597">
        <ele>397.59961239249</ele>
        <time>2020-05-21T13:43:53.000Z</time>
      </trkpt>
      <trkpt lat="47.17852" lon="4.93594">
        <ele>397.21088535227</ele>
        <time>2020-05-21T13:43:55.000Z</time>
      </trkpt>
      <trkpt lat="47.17851" lon="4.93591">
        <ele>396.62779479193</ele>
        <time>2020-05-21T13:43:58.000Z</time>
      </trkpt>
      <trkpt lat="47.1785" lon="4.93588">
        <ele>396.2390677517</ele>
        <time>2020-05-21T13:44:00.000Z</time>
      </trkpt>
      <trkpt lat="47.17849" lon="4.93585">
        <ele>395.64493533238</ele>
        <time>2020-05-21T13:44:03.000Z</time>
      </trkpt>
      <trkpt lat="47.17849" lon="4.93581">
        <ele>395.04312972297</ele>
        <time>2020-05-21T13:44:06.000Z</time>
      </trkpt>
      <trkpt lat="47.17848" lon="4.93578">
        <ele>394.64192598337</ele>
        <time>2020-05-21T13:44:08.000Z</time>
      </trkpt>
      <trkpt lat="47.17848" lon="4.93575">
        <ele>394.24072224376</ele>
        <time>2020-05-21T13:44:10.000Z</time>
      </trkpt>
      <trkpt lat="47.17846" lon="4.93572">
        <ele>394</ele>
        <time>2020-05-21T13:44:12.000Z</time>
      </trkpt>
      <trkpt lat="47.17845" lon="4.9357">
        <ele>394</ele>
        <time>2020-05-21T13:44:14.000Z</time>
      </trkpt>
      <trkpt lat="47.17844" lon="4.93567">
        <ele>394</ele>
        <time>2020-05-21T13:44:16.000Z</time>
      </trkpt>
      <trkpt lat="47.17842" lon="4.93564">
        <ele>394</ele>
        <time>2020-05-21T13:44:18.000Z</time>
      </trkpt>
      <trkpt lat="47.1784" lon="4.93561">
        <ele>393.78800128</ele>
        <time>2020-05-21T13:44:22.000Z</time>
      </trkpt>
      <trkpt lat="47.17839" lon="4.9356">
        <ele>393.58800128</ele>
        <time>2020-05-21T13:44:23.000Z</time>
      </trkpt>
      <trkpt lat="47.17837" lon="4.93557">
        <ele>393.18800128</ele>
        <time>2020-05-21T13:44:25.000Z</time>
      </trkpt>
      <trkpt lat="47.17835" lon="4.93555">
        <ele>392.78800128</ele>
        <time>2020-05-21T13:44:27.000Z</time>
      </trkpt>
      <trkpt lat="47.17833" lon="4.93555">
        <ele>392.38800128</ele>
        <time>2020-05-21T13:44:29.000Z</time>
      </trkpt>
      <trkpt lat="47.17831" lon="4.93555">
        <ele>391.98800128</ele>
        <time>2020-05-21T13:44:31.000Z</time>
      </trkpt>
      <trkpt lat="47.17829" lon="4.93554">
        <ele>391.58800128</ele>
        <time>2020-05-21T13:44:33.000Z</time>
      </trkpt>
      <trkpt lat="47.17831" lon="4.93557">
        <ele>390.78800128</ele>
        <time>2020-05-21T13:44:37.000Z</time>
      </trkpt>
      <trkpt lat="47.17833" lon="4.93557">
        <ele>390.18800128</ele>
        <time>2020-05-21T13:44:40.000Z</time>
      </trkpt>
      <trkpt lat="47.17835" lon="4.93556">
        <ele>390</ele>
        <time>2020-05-21T13:44:43.000Z</time>
      </trkpt>
      <trkpt lat="47.17837" lon="4.93557">
        <ele>390</ele>
        <time>2020-05-21T13:44:50.000Z</time>
      </trkpt>
      <trkpt lat="47.1784" lon="4.93554">
        <ele>390.20599936</ele>
        <time>2020-05-21T13:44:53.000Z</time>
      </trkpt>
      <trkpt lat="47.17841" lon="4.93552">
        <ele>390.40599936</ele>
        <time>2020-05-21T13:44:55.000Z</time>
      </trkpt>
      <trkpt lat="47.17842" lon="4.93549">
        <ele>390.70599936</ele>
        <time>2020-05-21T13:44:58.000Z</time>
      </trkpt>
      <trkpt lat="47.17843" lon="4.93546">
        <ele>390.90599936</ele>
        <time>2020-05-21T13:45:00.000Z</time>
      </trkpt>
      <trkpt lat="47.17844" lon="4.93543">
        <ele>390.78800128</ele>
        <time>2020-05-21T13:45:02.000Z</time>
      </trkpt>
      <trkpt lat="47.17844" lon="4.93541">
        <ele>390.38800128</ele>
        <time>2020-05-21T13:45:04.000Z</time>
      </trkpt>
      <trkpt lat="47.17845" lon="4.93538">
        <ele>389.98800128</ele>
        <time>2020-05-21T13:45:06.000Z</time>
      </trkpt>
      <trkpt lat="47.17845" lon="4.93535">
        <ele>389.58800128</ele>
        <time>2020-05-21T13:45:08.000Z</time>
      </trkpt>
      <trkpt lat="47.17845" lon="4.93532">
        <ele>389.18800128</ele>
        <time>2020-05-21T13:45:10.000Z</time>
      </trkpt>
      <trkpt lat="47.17845" lon="4.93529">
        <ele>389</ele>
        <time>2020-05-21T13:45:12.000Z</time>
      </trkpt>
      <trkpt lat="47.17845" lon="4.93526">
        <ele>389</ele>
        <time>2020-05-21T13:45:14.000Z</time>
      </trkpt>
      <trkpt lat="47.17845" lon="4.93523">
        <ele>389</ele>
        <time>2020-05-21T13:45:16.000Z</time>
      </trkpt>
      <trkpt lat="47.17846" lon="4.9352">
        <ele>389</ele>
        <time>2020-05-21T13:45:18.000Z</time>
      </trkpt>
      <trkpt lat="47.17847" lon="4.93516">
        <ele>389</ele>
        <time>2020-05-21T13:45:20.000Z</time>
      </trkpt>
      <trkpt lat="47.17848" lon="4.93513">
        <ele>388.89400064</ele>
        <time>2020-05-21T13:45:22.000Z</time>
      </trkpt>
      <trkpt lat="47.17848" lon="4.93511">
        <ele>388.69400064</ele>
        <time>2020-05-21T13:45:24.000Z</time>
      </trkpt>
      <trkpt lat="47.1785" lon="4.93508">
        <ele>388.39400064</ele>
        <time>2020-05-21T13:45:27.000Z</time>
      </trkpt>
      <trkpt lat="47.17851" lon="4.93505">
        <ele>388.09400064</ele>
        <time>2020-05-21T13:45:30.000Z</time>
      </trkpt>
      <trkpt lat="47.17852" lon="4.93502">
        <ele>387.79400064</ele>
        <time>2020-05-21T13:45:33.000Z</time>
      </trkpt>
      <trkpt lat="47.17853" lon="4.93499">
        <ele>387.49400064</ele>
        <time>2020-05-21T13:45:36.000Z</time>
      </trkpt>
      <trkpt lat="47.17854" lon="4.93496">
        <ele>387.29400064</ele>
        <time>2020-05-21T13:45:38.000Z</time>
      </trkpt>
      <trkpt lat="47.17855" lon="4.93493">
        <ele>386.98800128</ele>
        <time>2020-05-21T13:45:41.000Z</time>
      </trkpt>
      <trkpt lat="47.17856" lon="4.9349">
        <ele>386.58800128</ele>
        <time>2020-05-21T13:45:43.000Z</time>
      </trkpt>
      <trkpt lat="47.17857" lon="4.93487">
        <ele>385.98800128</ele>
        <time>2020-05-21T13:45:46.000Z</time>
      </trkpt>
      <trkpt lat="47.17858" lon="4.93484">
        <ele>385.38800128</ele>
        <time>2020-05-21T13:45:49.000Z</time>
      </trkpt>
      <trkpt lat="47.17859" lon="4.93482">
        <ele>384.89400064</ele>
        <time>2020-05-21T13:45:52.000Z</time>
      </trkpt>
      <trkpt lat="47.17859" lon="4.93479">
        <ele>384.59400064</ele>
        <time>2020-05-21T13:45:55.000Z</time>
      </trkpt>
      <trkpt lat="47.1786" lon="4.93476">
        <ele>384.19400064</ele>
        <time>2020-05-21T13:45:59.000Z</time>
      </trkpt>
      <trkpt lat="47.17861" lon="4.93473">
        <ele>383.98200192</ele>
        <time>2020-05-21T13:46:01.000Z</time>
      </trkpt>
      <trkpt lat="47.17863" lon="4.9347">
        <ele>383.38200192</ele>
        <time>2020-05-21T13:46:03.000Z</time>
      </trkpt>
      <trkpt lat="47.17863" lon="4.93467">
        <ele>382.78200192</ele>
        <time>2020-05-21T13:46:05.000Z</time>
      </trkpt>
      <trkpt lat="47.17864" lon="4.93464">
        <ele>381.88200192</ele>
        <time>2020-05-21T13:46:08.000Z</time>
      </trkpt>
      <trkpt lat="47.17865" lon="4.93462">
        <ele>381.28200192</ele>
        <time>2020-05-21T13:46:10.000Z</time>
      </trkpt>
      <trkpt lat="47.17865" lon="4.93458">
        <ele>380.79843494227</ele>
        <time>2020-05-21T13:46:13.000Z</time>
      </trkpt>
      <trkpt lat="47.17866" lon="4.93455">
        <ele>380.50489268408</ele>
        <time>2020-05-21T13:46:16.000Z</time>
      </trkpt>
      <trkpt lat="47.17868" lon="4.93453">
        <ele>380.21135042589</ele>
        <time>2020-05-21T13:46:19.000Z</time>
      </trkpt>
      <trkpt lat="47.17869" lon="4.9345">
        <ele>380.0156555871</ele>
        <time>2020-05-21T13:46:21.000Z</time>
      </trkpt>
      <trkpt lat="47.1787" lon="4.9345">
        <ele>379.63383072918</ele>
        <time>2020-05-21T13:46:23.000Z</time>
      </trkpt>
      <trkpt lat="47.17876" lon="4.93437">
        <ele>378.04179042127</ele>
        <time>2020-05-21T13:46:31.000Z</time>
      </trkpt>
      <trkpt lat="47.17873" lon="4.93424">
        <ele>376.60431726604</ele>
        <time>2020-05-21T13:46:38.000Z</time>
      </trkpt>
      <trkpt lat="47.17873" lon="4.93422">
        <ele>376</ele>
        <time>2020-05-21T13:46:41.000Z</time>
      </trkpt>
      <trkpt lat="47.17872" lon="4.9342">
        <ele>376</ele>
        <time>2020-05-21T13:46:42.000Z</time>
      </trkpt>
      <trkpt lat="47.1787" lon="4.93418">
        <ele>376</ele>
        <time>2020-05-21T13:46:43.000Z</time>
      </trkpt>
      <trkpt lat="47.17869" lon="4.93418">
        <ele>375.79400064</ele>
        <time>2020-05-21T13:46:53.000Z</time>
      </trkpt>
      <trkpt lat="47.17864" lon="4.93416">
        <ele>375.29400064</ele>
        <time>2020-05-21T13:46:58.000Z</time>
      </trkpt>
      <trkpt lat="47.17862" lon="4.93416">
        <ele>375</ele>
        <time>2020-05-21T13:47:01.000Z</time>
      </trkpt>
      <trkpt lat="47.1786" lon="4.93417">
        <ele>375</ele>
        <time>2020-05-21T13:47:03.000Z</time>
      </trkpt>
      <trkpt lat="47.17861" lon="4.93419">
        <ele>375.1831279893</ele>
        <time>2020-05-21T13:47:13.000Z</time>
      </trkpt>
      <trkpt lat="47.17863" lon="4.93419">
        <ele>375.49176955816</ele>
        <time>2020-05-21T13:47:16.000Z</time>
      </trkpt>
      <trkpt lat="47.17865" lon="4.9342">
        <ele>375.80041112703</ele>
        <time>2020-05-21T13:47:19.000Z</time>
      </trkpt>
      <trkpt lat="47.17865" lon="4.93422">
        <ele>375.89400064</ele>
        <time>2020-05-21T13:47:32.000Z</time>
      </trkpt>
      <trkpt lat="47.17862" lon="4.93427">
        <ele>375.59400064</ele>
        <time>2020-05-21T13:47:35.000Z</time>
      </trkpt>
      <trkpt lat="47.17863" lon="4.93424">
        <ele>375.29400064</ele>
        <time>2020-05-21T13:47:38.000Z</time>
      </trkpt>
      <trkpt lat="47.17867" lon="4.93424">
        <ele>375.40599936</ele>
        <time>2020-05-21T13:47:45.000Z</time>
      </trkpt>
      <trkpt lat="47.17868" lon="4.93421">
        <ele>375.80599936</ele>
        <time>2020-05-21T13:47:49.000Z</time>
      </trkpt>
      <trkpt lat="47.1787" lon="4.93418">
        <ele>375.90599936</ele>
        <time>2020-05-21T13:47:50.000Z</time>
      </trkpt>
      <trkpt lat="47.17872" lon="4.93416">
        <ele>376</ele>
        <time>2020-05-21T13:47:55.000Z</time>
      </trkpt>
      <trkpt lat="47.1787" lon="4.93419">
        <ele>376</ele>
        <time>2020-05-21T13:48:02.000Z</time>
      </trkpt>
      <trkpt lat="47.17869" lon="4.9342">
        <ele>376</ele>
        <time>2020-05-21T13:48:07.000Z</time>
      </trkpt>
      <trkpt lat="47.17868" lon="4.93423">
        <ele>376</ele>
        <time>2020-05-21T13:48:09.000Z</time>
      </trkpt>
      <trkpt lat="47.17866" lon="4.93423">
        <ele>376</ele>
        <time>2020-05-21T13:48:11.000Z</time>
      </trkpt>
      <trkpt lat="47.17864" lon="4.93424">
        <ele>376</ele>
        <time>2020-05-21T13:48:14.000Z</time>
      </trkpt>
      <trkpt lat="47.17864" lon="4.93427">
        <ele>376</ele>
        <time>2020-05-21T13:48:19.000Z</time>
      </trkpt>
      <trkpt lat="47.17864" lon="4.93427">
        <ele>373.79400064</ele>
        <time>2020-05-21T13:49:03.000Z</time>
      </trkpt>
      <trkpt lat="47.17863" lon="4.93426">
        <ele>374.20436444444</ele>
        <time>2020-05-21T13:49:43.000Z</time>
      </trkpt>
      <trkpt lat="47.17865" lon="4.93426">
        <ele>375.20599936</ele>
        <time>2020-05-21T13:50:53.000Z</time>
      </trkpt>
      <trkpt lat="47.17864" lon="4.93428">
        <ele>375.20599936</ele>
        <time>2020-05-21T13:51:13.000Z</time>
      </trkpt>
      <trkpt lat="47.17863" lon="4.93428">
        <ele>375.0715602622</ele>
        <time>2020-05-21T13:51:56.000Z</time>
      </trkpt>
      <trkpt lat="47.17863" lon="4.93426">
        <ele>378.99581489632</ele>
        <time>2020-05-21T13:59:35.000Z</time>
      </trkpt>
      <trkpt lat="47.17863" lon="4.93423">
        <ele>378.09947147567</ele>
        <time>2020-05-21T13:59:44.000Z</time>
      </trkpt>
      <trkpt lat="47.17862" lon="4.9342">
        <ele>378</ele>
        <time>2020-05-21T13:59:51.000Z</time>
      </trkpt>
      <trkpt lat="47.17862" lon="4.93418">
        <ele>378</ele>
        <time>2020-05-21T14:00:16.000Z</time>
      </trkpt>
      <trkpt lat="47.1786" lon="4.93416">
        <ele>378</ele>
        <time>2020-05-21T14:00:20.000Z</time>
      </trkpt>
      <trkpt lat="47.17858" lon="4.93415">
        <ele>378</ele>
        <time>2020-05-21T14:00:23.000Z</time>
      </trkpt>
      <trkpt lat="47.17856" lon="4.93413">
        <ele>378.10599936</ele>
        <time>2020-05-21T14:00:26.000Z</time>
      </trkpt>
      <trkpt lat="47.17854" lon="4.93412">
        <ele>378.40599936</ele>
        <time>2020-05-21T14:00:29.000Z</time>
      </trkpt>
      <trkpt lat="47.17852" lon="4.93411">
        <ele>378.60599936</ele>
        <time>2020-05-21T14:00:31.000Z</time>
      </trkpt>
      <trkpt lat="47.17851" lon="4.9341">
        <ele>378.80599936</ele>
        <time>2020-05-21T14:00:33.000Z</time>
      </trkpt>
      <trkpt lat="47.17847" lon="4.93408">
        <ele>379.10599936</ele>
        <time>2020-05-21T14:00:36.000Z</time>
      </trkpt>
      <trkpt lat="47.17844" lon="4.93408">
        <ele>379.40599936</ele>
        <time>2020-05-21T14:00:39.000Z</time>
      </trkpt>
      <trkpt lat="47.17843" lon="4.93406">
        <ele>379.70599936</ele>
        <time>2020-05-21T14:00:42.000Z</time>
      </trkpt>
      <trkpt lat="47.1784" lon="4.93404">
        <ele>380.10599936</ele>
        <time>2020-05-21T14:00:46.000Z</time>
      </trkpt>
      <trkpt lat="47.17838" lon="4.93401">
        <ele>380.30599936</ele>
        <time>2020-05-21T14:00:48.000Z</time>
      </trkpt>
      <trkpt lat="47.17836" lon="4.934">
        <ele>380.70599936</ele>
        <time>2020-05-21T14:00:52.000Z</time>
      </trkpt>
      <trkpt lat="47.17835" lon="4.93401">
        <ele>381</ele>
        <time>2020-05-21T14:00:55.000Z</time>
      </trkpt>
      <trkpt lat="47.17833" lon="4.93401">
        <ele>381</ele>
        <time>2020-05-21T14:00:58.000Z</time>
      </trkpt>
      <trkpt lat="47.17831" lon="4.934">
        <ele>381</ele>
        <time>2020-05-21T14:01:00.000Z</time>
      </trkpt>
      <trkpt lat="47.17828" lon="4.93399">
        <ele>381</ele>
        <time>2020-05-21T14:01:03.000Z</time>
      </trkpt>
      <trkpt lat="47.17826" lon="4.93398">
        <ele>381.21199872</ele>
        <time>2020-05-21T14:01:06.000Z</time>
      </trkpt>
      <trkpt lat="47.17824" lon="4.93398">
        <ele>381.61199872</ele>
        <time>2020-05-21T14:01:08.000Z</time>
      </trkpt>
      <trkpt lat="47.17822" lon="4.93397">
        <ele>382.41199872</ele>
        <time>2020-05-21T14:01:12.000Z</time>
      </trkpt>
      <trkpt lat="47.17821" lon="4.93396">
        <ele>382.61199872</ele>
        <time>2020-05-21T14:01:13.000Z</time>
      </trkpt>
      <trkpt lat="47.17817" lon="4.93396">
        <ele>383</ele>
        <time>2020-05-21T14:01:15.000Z</time>
      </trkpt>
      <trkpt lat="47.17815" lon="4.93396">
        <ele>383</ele>
        <time>2020-05-21T14:01:17.000Z</time>
      </trkpt>
      <trkpt lat="47.17813" lon="4.93396">
        <ele>383</ele>
        <time>2020-05-21T14:01:20.000Z</time>
      </trkpt>
      <trkpt lat="47.17811" lon="4.93396">
        <ele>383</ele>
        <time>2020-05-21T14:01:23.000Z</time>
      </trkpt>
      <trkpt lat="47.17808" lon="4.93396">
        <ele>383.20579363222</ele>
        <time>2020-05-21T14:01:27.000Z</time>
      </trkpt>
      <trkpt lat="47.17807" lon="4.93396">
        <ele>383.60539415957</ele>
        <time>2020-05-21T14:01:31.000Z</time>
      </trkpt>
      <trkpt lat="47.17805" lon="4.93397">
        <ele>384.00500468308</ele>
        <time>2020-05-21T14:01:35.000Z</time>
      </trkpt>
      <trkpt lat="47.17803" lon="4.93397">
        <ele>384.20520481915</ele>
        <time>2020-05-21T14:01:37.000Z</time>
      </trkpt>
      <trkpt lat="47.178" lon="4.93397">
        <ele>384.50550502326</ele>
        <time>2020-05-21T14:01:40.000Z</time>
      </trkpt>
      <trkpt lat="47.17798" lon="4.93396">
        <ele>384.70570515933</ele>
        <time>2020-05-21T14:01:42.000Z</time>
      </trkpt>
      <trkpt lat="47.17796" lon="4.93396">
        <ele>384.90590529541</ele>
        <time>2020-05-21T14:01:44.000Z</time>
      </trkpt>
      <trkpt lat="47.17793" lon="4.93396">
        <ele>385.10599936</ele>
        <time>2020-05-21T14:01:46.000Z</time>
      </trkpt>
      <trkpt lat="47.17792" lon="4.93397">
        <ele>385.30599936</ele>
        <time>2020-05-21T14:01:48.000Z</time>
      </trkpt>
      <trkpt lat="47.17789" lon="4.93397">
        <ele>385.60599936</ele>
        <time>2020-05-21T14:01:51.000Z</time>
      </trkpt>
      <trkpt lat="47.17787" lon="4.93396">
        <ele>385.80599936</ele>
        <time>2020-05-21T14:01:53.000Z</time>
      </trkpt>
      <trkpt lat="47.17785" lon="4.93396">
        <ele>386.00599936</ele>
        <time>2020-05-21T14:01:55.000Z</time>
      </trkpt>
      <trkpt lat="47.17783" lon="4.93397">
        <ele>386.20599936</ele>
        <time>2020-05-21T14:01:57.000Z</time>
      </trkpt>
      <trkpt lat="47.1778" lon="4.93396">
        <ele>386.50599936</ele>
        <time>2020-05-21T14:02:00.000Z</time>
      </trkpt>
      <trkpt lat="47.17778" lon="4.93397">
        <ele>386.80599936</ele>
        <time>2020-05-21T14:02:03.000Z</time>
      </trkpt>
      <trkpt lat="47.17776" lon="4.93396">
        <ele>387</ele>
        <time>2020-05-21T14:02:05.000Z</time>
      </trkpt>
      <trkpt lat="47.17774" lon="4.93397">
        <ele>387</ele>
        <time>2020-05-21T14:02:08.000Z</time>
      </trkpt>
      <trkpt lat="47.17772" lon="4.93398">
        <ele>387</ele>
        <time>2020-05-21T14:02:14.000Z</time>
      </trkpt>
      <trkpt lat="47.1777" lon="4.93398">
        <ele>387</ele>
        <time>2020-05-21T14:02:17.000Z</time>
      </trkpt>
      <trkpt lat="47.17768" lon="4.93398">
        <ele>387</ele>
        <time>2020-05-21T14:02:19.000Z</time>
      </trkpt>
      <trkpt lat="47.17765" lon="4.93399">
        <ele>387</ele>
        <time>2020-05-21T14:02:22.000Z</time>
      </trkpt>
      <trkpt lat="47.17763" lon="4.93399">
        <ele>387</ele>
        <time>2020-05-21T14:02:24.000Z</time>
      </trkpt>
      <trkpt lat="47.17761" lon="4.93399">
        <ele>387</ele>
        <time>2020-05-21T14:02:26.000Z</time>
      </trkpt>
      <trkpt lat="47.17759" lon="4.93399">
        <ele>387</ele>
        <time>2020-05-21T14:02:28.000Z</time>
      </trkpt>
      <trkpt lat="47.17756" lon="4.93398">
        <ele>387</ele>
        <time>2020-05-21T14:02:30.000Z</time>
      </trkpt>
      <trkpt lat="47.17753" lon="4.93397">
        <ele>387</ele>
        <time>2020-05-21T14:02:32.000Z</time>
      </trkpt>
      <trkpt lat="47.17752" lon="4.93396">
        <ele>387</ele>
        <time>2020-05-21T14:02:34.000Z</time>
      </trkpt>
      <trkpt lat="47.17749" lon="4.93395">
        <ele>387.10599936</ele>
        <time>2020-05-21T14:02:36.000Z</time>
      </trkpt>
      <trkpt lat="47.17746" lon="4.93394">
        <ele>387.30599936</ele>
        <time>2020-05-21T14:02:38.000Z</time>
      </trkpt>
      <trkpt lat="47.17743" lon="4.93393">
        <ele>387.50599936</ele>
        <time>2020-05-21T14:02:40.000Z</time>
      </trkpt>
      <trkpt lat="47.17741" lon="4.93391">
        <ele>387.70599936</ele>
        <time>2020-05-21T14:02:42.000Z</time>
      </trkpt>
      <trkpt lat="47.17739" lon="4.93392">
        <ele>387.90599936</ele>
        <time>2020-05-21T14:02:44.000Z</time>
      </trkpt>
      <trkpt lat="47.17736" lon="4.93391">
        <ele>388.21199872</ele>
        <time>2020-05-21T14:02:46.000Z</time>
      </trkpt>
      <trkpt lat="47.17734" lon="4.93392">
        <ele>388.61199872</ele>
        <time>2020-05-21T14:02:48.000Z</time>
      </trkpt>
      <trkpt lat="47.17732" lon="4.93392">
        <ele>389.01199872</ele>
        <time>2020-05-21T14:02:50.000Z</time>
      </trkpt>
      <trkpt lat="47.1773" lon="4.93392">
        <ele>389.41199872</ele>
        <time>2020-05-21T14:02:52.000Z</time>
      </trkpt>
      <trkpt lat="47.17729" lon="4.93392">
        <ele>389.61199872</ele>
        <time>2020-05-21T14:02:53.000Z</time>
      </trkpt>
      <trkpt lat="47.17726" lon="4.93392">
        <ele>390.20642543152</ele>
        <time>2020-05-21T14:02:56.000Z</time>
      </trkpt>
      <trkpt lat="47.17724" lon="4.93391">
        <ele>390.79065187831</ele>
        <time>2020-05-21T14:02:59.000Z</time>
      </trkpt>
      <trkpt lat="47.17722" lon="4.93391">
        <ele>391.56962047404</ele>
        <time>2020-05-21T14:03:03.000Z</time>
      </trkpt>
      <trkpt lat="47.1772" lon="4.93391">
        <ele>391.9591047719</ele>
        <time>2020-05-21T14:03:05.000Z</time>
      </trkpt>
      <trkpt lat="47.17718" lon="4.93391">
        <ele>392.18396725939</ele>
        <time>2020-05-21T14:03:07.000Z</time>
      </trkpt>
      <trkpt lat="47.17716" lon="4.93391">
        <ele>392.49229172395</ele>
        <time>2020-05-21T14:03:10.000Z</time>
      </trkpt>
      <trkpt lat="47.17714" lon="4.9339">
        <ele>392.69784136698</ele>
        <time>2020-05-21T14:03:12.000Z</time>
      </trkpt>
      <trkpt lat="47.17711" lon="4.93388">
        <ele>393.00599936</ele>
        <time>2020-05-21T14:03:15.000Z</time>
      </trkpt>
      <trkpt lat="47.17708" lon="4.93387">
        <ele>393.20599936</ele>
        <time>2020-05-21T14:03:17.000Z</time>
      </trkpt>
      <trkpt lat="47.17706" lon="4.93386">
        <ele>393.40599936</ele>
        <time>2020-05-21T14:03:19.000Z</time>
      </trkpt>
      <trkpt lat="47.17704" lon="4.93385">
        <ele>393.70599936</ele>
        <time>2020-05-21T14:03:22.000Z</time>
      </trkpt>
      <trkpt lat="47.17702" lon="4.93383">
        <ele>394</ele>
        <time>2020-05-21T14:03:25.000Z</time>
      </trkpt>
      <trkpt lat="47.177" lon="4.93383">
        <ele>394</ele>
        <time>2020-05-21T14:03:29.000Z</time>
      </trkpt>
      <trkpt lat="47.17698" lon="4.93382">
        <ele>394</ele>
        <time>2020-05-21T14:03:31.000Z</time>
      </trkpt>
      <trkpt lat="47.17696" lon="4.93381">
        <ele>394</ele>
        <time>2020-05-21T14:03:33.000Z</time>
      </trkpt>
      <trkpt lat="47.17694" lon="4.93382">
        <ele>394.01197477811</ele>
        <time>2020-05-21T14:03:35.000Z</time>
      </trkpt>
      <trkpt lat="47.17691" lon="4.93382">
        <ele>394.41117662989</ele>
        <time>2020-05-21T14:03:37.000Z</time>
      </trkpt>
      <trkpt lat="47.17689" lon="4.93381">
        <ele>394.81037848168</ele>
        <time>2020-05-21T14:03:39.000Z</time>
      </trkpt>
      <trkpt lat="47.17687" lon="4.93381">
        <ele>395.20958033346</ele>
        <time>2020-05-21T14:03:41.000Z</time>
      </trkpt>
      <trkpt lat="47.17686" lon="4.93382">
        <ele>395.60878218525</ele>
        <time>2020-05-21T14:03:43.000Z</time>
      </trkpt>
      <trkpt lat="47.17684" lon="4.93381">
        <ele>396</ele>
        <time>2020-05-21T14:03:46.000Z</time>
      </trkpt>
      <trkpt lat="47.17682" lon="4.9338">
        <ele>396</ele>
        <time>2020-05-21T14:03:48.000Z</time>
      </trkpt>
      <trkpt lat="47.17679" lon="4.9338">
        <ele>396</ele>
        <time>2020-05-21T14:03:50.000Z</time>
      </trkpt>
      <trkpt lat="47.17676" lon="4.93378">
        <ele>396</ele>
        <time>2020-05-21T14:03:52.000Z</time>
      </trkpt>
      <trkpt lat="47.17673" lon="4.93377">
        <ele>396</ele>
        <time>2020-05-21T14:03:54.000Z</time>
      </trkpt>
      <trkpt lat="47.17671" lon="4.93377">
        <ele>396.10599936</ele>
        <time>2020-05-21T14:03:56.000Z</time>
      </trkpt>
      <trkpt lat="47.17669" lon="4.93377">
        <ele>396.30599936</ele>
        <time>2020-05-21T14:03:58.000Z</time>
      </trkpt>
      <trkpt lat="47.17667" lon="4.93377">
        <ele>396.50599936</ele>
        <time>2020-05-21T14:04:00.000Z</time>
      </trkpt>
      <trkpt lat="47.17665" lon="4.93378">
        <ele>396.70599936</ele>
        <time>2020-05-21T14:04:02.000Z</time>
      </trkpt>
      <trkpt lat="47.17663" lon="4.93377">
        <ele>396.90599936</ele>
        <time>2020-05-21T14:04:04.000Z</time>
      </trkpt>
      <trkpt lat="47.17661" lon="4.93377">
        <ele>397.41199872</ele>
        <time>2020-05-21T14:04:07.000Z</time>
      </trkpt>
      <trkpt lat="47.17658" lon="4.93377">
        <ele>397.81199872</ele>
        <time>2020-05-21T14:04:09.000Z</time>
      </trkpt>
      <trkpt lat="47.17656" lon="4.93377">
        <ele>398.21199872</ele>
        <time>2020-05-21T14:04:11.000Z</time>
      </trkpt>
      <trkpt lat="47.17653" lon="4.93377">
        <ele>398.61199872</ele>
        <time>2020-05-21T14:04:13.000Z</time>
      </trkpt>
      <trkpt lat="47.17651" lon="4.93376">
        <ele>399</ele>
        <time>2020-05-21T14:04:15.000Z</time>
      </trkpt>
      <trkpt lat="47.17649" lon="4.93376">
        <ele>399</ele>
        <time>2020-05-21T14:04:17.000Z</time>
      </trkpt>
      <trkpt lat="47.17647" lon="4.93376">
        <ele>399</ele>
        <time>2020-05-21T14:04:20.000Z</time>
      </trkpt>
      <trkpt lat="47.17645" lon="4.93376">
        <ele>399</ele>
        <time>2020-05-21T14:04:22.000Z</time>
      </trkpt>
      <trkpt lat="47.17643" lon="4.93376">
        <ele>399</ele>
        <time>2020-05-21T14:04:24.000Z</time>
      </trkpt>
      <trkpt lat="47.17638" lon="4.93374">
        <ele>399.41199872</ele>
        <time>2020-05-21T14:04:27.000Z</time>
      </trkpt>
      <trkpt lat="47.17636" lon="4.93374">
        <ele>399.81199872</ele>
        <time>2020-05-21T14:04:29.000Z</time>
      </trkpt>
      <trkpt lat="47.17634" lon="4.93375">
        <ele>400.21199872</ele>
        <time>2020-05-21T14:04:31.000Z</time>
      </trkpt>
      <trkpt lat="47.17632" lon="4.93374">
        <ele>400.61199872</ele>
        <time>2020-05-21T14:04:33.000Z</time>
      </trkpt>
      <trkpt lat="47.1763" lon="4.93374">
        <ele>401</ele>
        <time>2020-05-21T14:04:35.000Z</time>
      </trkpt>
      <trkpt lat="47.17628" lon="4.93373">
        <ele>401</ele>
        <time>2020-05-21T14:04:37.000Z</time>
      </trkpt>
      <trkpt lat="47.17625" lon="4.93373">
        <ele>401</ele>
        <time>2020-05-21T14:04:40.000Z</time>
      </trkpt>
      <trkpt lat="47.17622" lon="4.93371">
        <ele>401</ele>
        <time>2020-05-21T14:04:42.000Z</time>
      </trkpt>
      <trkpt lat="47.1762" lon="4.9337">
        <ele>402.61199872</ele>
        <time>2020-05-21T14:04:53.000Z</time>
      </trkpt>
      <trkpt lat="47.17618" lon="4.93369">
        <ele>402.99400064</ele>
        <time>2020-05-21T14:04:55.000Z</time>
      </trkpt>
      <trkpt lat="47.17616" lon="4.93369">
        <ele>402.49400064</ele>
        <time>2020-05-21T14:05:00.000Z</time>
      </trkpt>
      <trkpt lat="47.17613" lon="4.93368">
        <ele>402.19400064</ele>
        <time>2020-05-21T14:05:03.000Z</time>
      </trkpt>
      <trkpt lat="47.17611" lon="4.93367">
        <ele>402.01199872</ele>
        <time>2020-05-21T14:05:05.000Z</time>
      </trkpt>
      <trkpt lat="47.17609" lon="4.93367">
        <ele>402.41199872</ele>
        <time>2020-05-21T14:05:07.000Z</time>
      </trkpt>
      <trkpt lat="47.17607" lon="4.93365">
        <ele>402.81199872</ele>
        <time>2020-05-21T14:05:09.000Z</time>
      </trkpt>
      <trkpt lat="47.17606" lon="4.93364">
        <ele>404.10599936</ele>
        <time>2020-05-21T14:05:16.000Z</time>
      </trkpt>
      <trkpt lat="47.17604" lon="4.93362">
        <ele>404.40599936</ele>
        <time>2020-05-21T14:05:19.000Z</time>
      </trkpt>
      <trkpt lat="47.17602" lon="4.9336">
        <ele>404.60599936</ele>
        <time>2020-05-21T14:05:21.000Z</time>
      </trkpt>
      <trkpt lat="47.17601" lon="4.93359">
        <ele>404.80599936</ele>
        <time>2020-05-21T14:05:23.000Z</time>
      </trkpt>
      <trkpt lat="47.17599" lon="4.9336">
        <ele>405</ele>
        <time>2020-05-21T14:05:29.000Z</time>
      </trkpt>
      <trkpt lat="47.17597" lon="4.93362">
        <ele>405</ele>
        <time>2020-05-21T14:05:36.000Z</time>
      </trkpt>
      <trkpt lat="47.17597" lon="4.93359">
        <ele>405</ele>
        <time>2020-05-21T14:05:41.000Z</time>
      </trkpt>
      <trkpt lat="47.17596" lon="4.93356">
        <ele>405</ele>
        <time>2020-05-21T14:05:43.000Z</time>
      </trkpt>
      <trkpt lat="47.17595" lon="4.93354">
        <ele>405</ele>
        <time>2020-05-21T14:05:52.000Z</time>
      </trkpt>
      <trkpt lat="47.17593" lon="4.93351">
        <ele>405</ele>
        <time>2020-05-21T14:05:56.000Z</time>
      </trkpt>
      <trkpt lat="47.17591" lon="4.93349">
        <ele>405</ele>
        <time>2020-05-21T14:05:59.000Z</time>
      </trkpt>
      <trkpt lat="47.17589" lon="4.93346">
        <ele>405</ele>
        <time>2020-05-21T14:06:02.000Z</time>
      </trkpt>
      <trkpt lat="47.17587" lon="4.93343">
        <ele>405</ele>
        <time>2020-05-21T14:06:04.000Z</time>
      </trkpt>
      <trkpt lat="47.17586" lon="4.93341">
        <ele>405</ele>
        <time>2020-05-21T14:06:06.000Z</time>
      </trkpt>
      <trkpt lat="47.17585" lon="4.93338">
        <ele>405</ele>
        <time>2020-05-21T14:06:08.000Z</time>
      </trkpt>
      <trkpt lat="47.17584" lon="4.93334">
        <ele>405</ele>
        <time>2020-05-21T14:06:10.000Z</time>
      </trkpt>
      <trkpt lat="47.17583" lon="4.93331">
        <ele>405</ele>
        <time>2020-05-21T14:06:12.000Z</time>
      </trkpt>
      <trkpt lat="47.17581" lon="4.93327">
        <ele>405</ele>
        <time>2020-05-21T14:06:14.000Z</time>
      </trkpt>
      <trkpt lat="47.1758" lon="4.93325">
        <ele>405</ele>
        <time>2020-05-21T14:06:16.000Z</time>
      </trkpt>
      <trkpt lat="47.17579" lon="4.93322">
        <ele>405</ele>
        <time>2020-05-21T14:06:18.000Z</time>
      </trkpt>
      <trkpt lat="47.17577" lon="4.93319">
        <ele>405</ele>
        <time>2020-05-21T14:06:20.000Z</time>
      </trkpt>
      <trkpt lat="47.17576" lon="4.93317">
        <ele>405</ele>
        <time>2020-05-21T14:06:22.000Z</time>
      </trkpt>
      <trkpt lat="47.17575" lon="4.93314">
        <ele>405</ele>
        <time>2020-05-21T14:06:24.000Z</time>
      </trkpt>
      <trkpt lat="47.17574" lon="4.93312">
        <ele>405.90599936</ele>
        <time>2020-05-21T14:06:34.000Z</time>
      </trkpt>
      <trkpt lat="47.1757" lon="4.9331">
        <ele>406.30599936</ele>
        <time>2020-05-21T14:06:38.000Z</time>
      </trkpt>
      <trkpt lat="47.17568" lon="4.93311">
        <ele>407</ele>
        <time>2020-05-21T14:06:59.000Z</time>
      </trkpt>
      <trkpt lat="47.17569" lon="4.93313">
        <ele>407</ele>
        <time>2020-05-21T14:07:07.000Z</time>
      </trkpt>
      <trkpt lat="47.17572" lon="4.93314">
        <ele>407</ele>
        <time>2020-05-21T14:07:29.000Z</time>
      </trkpt>
      <trkpt lat="47.17573" lon="4.93317">
        <ele>407</ele>
        <time>2020-05-21T14:07:40.000Z</time>
      </trkpt>
      <trkpt lat="47.17574" lon="4.9332">
        <ele>407</ele>
        <time>2020-05-21T14:07:43.000Z</time>
      </trkpt>
      <trkpt lat="47.17575" lon="4.93322">
        <ele>406.99400064</ele>
        <time>2020-05-21T14:07:45.000Z</time>
      </trkpt>
      <trkpt lat="47.17577" lon="4.93325">
        <ele>406.79400064</ele>
        <time>2020-05-21T14:07:47.000Z</time>
      </trkpt>
      <trkpt lat="47.17581" lon="4.9333">
        <ele>406.29400064</ele>
        <time>2020-05-21T14:07:52.000Z</time>
      </trkpt>
      <trkpt lat="47.17582" lon="4.93333">
        <ele>406.09400064</ele>
        <time>2020-05-21T14:07:54.000Z</time>
      </trkpt>
      <trkpt lat="47.17583" lon="4.93337">
        <ele>406</ele>
        <time>2020-05-21T14:07:56.000Z</time>
      </trkpt>
      <trkpt lat="47.17584" lon="4.9334">
        <ele>406</ele>
        <time>2020-05-21T14:07:58.000Z</time>
      </trkpt>
      <trkpt lat="47.17585" lon="4.93343">
        <ele>406</ele>
        <time>2020-05-21T14:08:00.000Z</time>
      </trkpt>
      <trkpt lat="47.17587" lon="4.93345">
        <ele>406</ele>
        <time>2020-05-21T14:08:02.000Z</time>
      </trkpt>
      <trkpt lat="47.17588" lon="4.93348">
        <ele>406</ele>
        <time>2020-05-21T14:08:04.000Z</time>
      </trkpt>
      <trkpt lat="47.17589" lon="4.93351">
        <ele>406</ele>
        <time>2020-05-21T14:08:06.000Z</time>
      </trkpt>
      <trkpt lat="47.1759" lon="4.93354">
        <ele>406</ele>
        <time>2020-05-21T14:08:08.000Z</time>
      </trkpt>
      <trkpt lat="47.17591" lon="4.93357">
        <ele>406</ele>
        <time>2020-05-21T14:08:10.000Z</time>
      </trkpt>
      <trkpt lat="47.17592" lon="4.93359">
        <ele>406</ele>
        <time>2020-05-21T14:08:12.000Z</time>
      </trkpt>
      <trkpt lat="47.17591" lon="4.93363">
        <ele>405.99400064</ele>
        <time>2020-05-21T14:08:15.000Z</time>
      </trkpt>
      <trkpt lat="47.17591" lon="4.93366">
        <ele>405.79400064</ele>
        <time>2020-05-21T14:08:17.000Z</time>
      </trkpt>
      <trkpt lat="47.1759" lon="4.93369">
        <ele>405.59400064</ele>
        <time>2020-05-21T14:08:19.000Z</time>
      </trkpt>
      <trkpt lat="47.17588" lon="4.93371">
        <ele>405.29400064</ele>
        <time>2020-05-21T14:08:22.000Z</time>
      </trkpt>
      <trkpt lat="47.17587" lon="4.93373">
        <ele>405.09400064</ele>
        <time>2020-05-21T14:08:24.000Z</time>
      </trkpt>
      <trkpt lat="47.17586" lon="4.93376">
        <ele>405</ele>
        <time>2020-05-21T14:08:26.000Z</time>
      </trkpt>
      <trkpt lat="47.17584" lon="4.93379">
        <ele>405</ele>
        <time>2020-05-21T14:08:28.000Z</time>
      </trkpt>
      <trkpt lat="47.17583" lon="4.93382">
        <ele>405</ele>
        <time>2020-05-21T14:08:30.000Z</time>
      </trkpt>
      <trkpt lat="47.17582" lon="4.93385">
        <ele>405</ele>
        <time>2020-05-21T14:08:32.000Z</time>
      </trkpt>
      <trkpt lat="47.1758" lon="4.93387">
        <ele>405</ele>
        <time>2020-05-21T14:08:34.000Z</time>
      </trkpt>
      <trkpt lat="47.17579" lon="4.93389">
        <ele>404.89400064</ele>
        <time>2020-05-21T14:08:36.000Z</time>
      </trkpt>
      <trkpt lat="47.17578" lon="4.93392">
        <ele>404.69400064</ele>
        <time>2020-05-21T14:08:38.000Z</time>
      </trkpt>
      <trkpt lat="47.17576" lon="4.93396">
        <ele>404.39400064</ele>
        <time>2020-05-21T14:08:41.000Z</time>
      </trkpt>
      <trkpt lat="47.17575" lon="4.93399">
        <ele>404.19400064</ele>
        <time>2020-05-21T14:08:43.000Z</time>
      </trkpt>
      <trkpt lat="47.17575" lon="4.93402">
        <ele>404</ele>
        <time>2020-05-21T14:08:45.000Z</time>
      </trkpt>
      <trkpt lat="47.17574" lon="4.93406">
        <ele>404</ele>
        <time>2020-05-21T14:08:47.000Z</time>
      </trkpt>
      <trkpt lat="47.17572" lon="4.93409">
        <ele>404</ele>
        <time>2020-05-21T14:08:50.000Z</time>
      </trkpt>
      <trkpt lat="47.17571" lon="4.9341">
        <ele>404</ele>
        <time>2020-05-21T14:08:52.000Z</time>
      </trkpt>
      <trkpt lat="47.1757" lon="4.93415">
        <ele>404</ele>
        <time>2020-05-21T14:08:55.000Z</time>
      </trkpt>
      <trkpt lat="47.17569" lon="4.93418">
        <ele>404</ele>
        <time>2020-05-21T14:08:57.000Z</time>
      </trkpt>
      <trkpt lat="47.17567" lon="4.93421">
        <ele>404</ele>
        <time>2020-05-21T14:08:59.000Z</time>
      </trkpt>
      <trkpt lat="47.17567" lon="4.93423">
        <ele>404</ele>
        <time>2020-05-21T14:09:01.000Z</time>
      </trkpt>
      <trkpt lat="47.17566" lon="4.93426">
        <ele>404</ele>
        <time>2020-05-21T14:09:03.000Z</time>
      </trkpt>
      <trkpt lat="47.17566" lon="4.93429">
        <ele>404</ele>
        <time>2020-05-21T14:09:05.000Z</time>
      </trkpt>
      <trkpt lat="47.17564" lon="4.93434">
        <ele>404</ele>
        <time>2020-05-21T14:09:08.000Z</time>
      </trkpt>
      <trkpt lat="47.17562" lon="4.93436">
        <ele>404</ele>
        <time>2020-05-21T14:09:10.000Z</time>
      </trkpt>
      <trkpt lat="47.17561" lon="4.93439">
        <ele>404</ele>
        <time>2020-05-21T14:09:12.000Z</time>
      </trkpt>
      <trkpt lat="47.1756" lon="4.93442">
        <ele>404</ele>
        <time>2020-05-21T14:09:14.000Z</time>
      </trkpt>
      <trkpt lat="47.1756" lon="4.93444">
        <ele>403.89688765371</ele>
        <time>2020-05-21T14:09:16.000Z</time>
      </trkpt>
      <trkpt lat="47.17559" lon="4.93447">
        <ele>403.60505849657</ele>
        <time>2020-05-21T14:09:19.000Z</time>
      </trkpt>
      <trkpt lat="47.17557" lon="4.93448">
        <ele>403</ele>
        <time>2020-05-21T14:09:27.000Z</time>
      </trkpt>
      <trkpt lat="47.17556" lon="4.93452">
        <ele>403</ele>
        <time>2020-05-21T14:09:30.000Z</time>
      </trkpt>
      <trkpt lat="47.17556" lon="4.93455">
        <ele>403</ele>
        <time>2020-05-21T14:09:34.000Z</time>
      </trkpt>
      <trkpt lat="47.17556" lon="4.93458">
        <ele>403</ele>
        <time>2020-05-21T14:09:38.000Z</time>
      </trkpt>
      <trkpt lat="47.17555" lon="4.93461">
        <ele>403</ele>
        <time>2020-05-21T14:09:40.000Z</time>
      </trkpt>
      <trkpt lat="47.17554" lon="4.93464">
        <ele>403</ele>
        <time>2020-05-21T14:09:42.000Z</time>
      </trkpt>
      <trkpt lat="47.17554" lon="4.93467">
        <ele>403</ele>
        <time>2020-05-21T14:09:44.000Z</time>
      </trkpt>
      <trkpt lat="47.17553" lon="4.93469">
        <ele>402.89400064</ele>
        <time>2020-05-21T14:09:46.000Z</time>
      </trkpt>
      <trkpt lat="47.17552" lon="4.93472">
        <ele>402.69400064</ele>
        <time>2020-05-21T14:09:48.000Z</time>
      </trkpt>
      <trkpt lat="47.17552" lon="4.93476">
        <ele>402.49400064</ele>
        <time>2020-05-21T14:09:50.000Z</time>
      </trkpt>
      <trkpt lat="47.17551" lon="4.93478">
        <ele>402.29400064</ele>
        <time>2020-05-21T14:09:52.000Z</time>
      </trkpt>
      <trkpt lat="47.1755" lon="4.93482">
        <ele>402.09400064</ele>
        <time>2020-05-21T14:09:54.000Z</time>
      </trkpt>
      <trkpt lat="47.17549" lon="4.93485">
        <ele>402.20599936</ele>
        <time>2020-05-21T14:09:57.000Z</time>
      </trkpt>
      <trkpt lat="47.17548" lon="4.93489">
        <ele>402.40599936</ele>
        <time>2020-05-21T14:09:59.000Z</time>
      </trkpt>
      <trkpt lat="47.17547" lon="4.93492">
        <ele>402.60599936</ele>
        <time>2020-05-21T14:10:01.000Z</time>
      </trkpt>
      <trkpt lat="47.17546" lon="4.93495">
        <ele>402.80599936</ele>
        <time>2020-05-21T14:10:03.000Z</time>
      </trkpt>
      <trkpt lat="47.17546" lon="4.93498">
        <ele>403</ele>
        <time>2020-05-21T14:10:05.000Z</time>
      </trkpt>
      <trkpt lat="47.17545" lon="4.93502">
        <ele>403</ele>
        <time>2020-05-21T14:10:07.000Z</time>
      </trkpt>
      <trkpt lat="47.17544" lon="4.93505">
        <ele>403</ele>
        <time>2020-05-21T14:10:09.000Z</time>
      </trkpt>
      <trkpt lat="47.17543" lon="4.93509">
        <ele>403</ele>
        <time>2020-05-21T14:10:11.000Z</time>
      </trkpt>
      <trkpt lat="47.17542" lon="4.93512">
        <ele>403</ele>
        <time>2020-05-21T14:10:13.000Z</time>
      </trkpt>
      <trkpt lat="47.17541" lon="4.93514">
        <ele>402.99400064</ele>
        <time>2020-05-21T14:10:15.000Z</time>
      </trkpt>
      <trkpt lat="47.1754" lon="4.93517">
        <ele>402.79400064</ele>
        <time>2020-05-21T14:10:17.000Z</time>
      </trkpt>
      <trkpt lat="47.1754" lon="4.93521">
        <ele>402.59400064</ele>
        <time>2020-05-21T14:10:19.000Z</time>
      </trkpt>
      <trkpt lat="47.17539" lon="4.93525">
        <ele>402.39400064</ele>
        <time>2020-05-21T14:10:21.000Z</time>
      </trkpt>
      <trkpt lat="47.17538" lon="4.93528">
        <ele>402.19400064</ele>
        <time>2020-05-21T14:10:23.000Z</time>
      </trkpt>
      <trkpt lat="47.17537" lon="4.93531">
        <ele>401.99400064</ele>
        <time>2020-05-21T14:10:25.000Z</time>
      </trkpt>
      <trkpt lat="47.17536" lon="4.93534">
        <ele>401.79400064</ele>
        <time>2020-05-21T14:10:27.000Z</time>
      </trkpt>
      <trkpt lat="47.17536" lon="4.93538">
        <ele>401.59400064</ele>
        <time>2020-05-21T14:10:29.000Z</time>
      </trkpt>
      <trkpt lat="47.17535" lon="4.93542">
        <ele>401.39400064</ele>
        <time>2020-05-21T14:10:31.000Z</time>
      </trkpt>
      <trkpt lat="47.17534" lon="4.93545">
        <ele>401.19400064</ele>
        <time>2020-05-21T14:10:33.000Z</time>
      </trkpt>
      <trkpt lat="47.17534" lon="4.9355">
        <ele>401</ele>
        <time>2020-05-21T14:10:35.000Z</time>
      </trkpt>
      <trkpt lat="47.17533" lon="4.93553">
        <ele>401</ele>
        <time>2020-05-21T14:10:37.000Z</time>
      </trkpt>
      <trkpt lat="47.17531" lon="4.93555">
        <ele>401</ele>
        <time>2020-05-21T14:10:39.000Z</time>
      </trkpt>
      <trkpt lat="47.17531" lon="4.93559">
        <ele>401</ele>
        <time>2020-05-21T14:10:42.000Z</time>
      </trkpt>
      <trkpt lat="47.17529" lon="4.93561">
        <ele>401</ele>
        <time>2020-05-21T14:10:44.000Z</time>
      </trkpt>
      <trkpt lat="47.17528" lon="4.93563">
        <ele>401</ele>
        <time>2020-05-21T14:10:46.000Z</time>
      </trkpt>
      <trkpt lat="47.17526" lon="4.93566">
        <ele>401</ele>
        <time>2020-05-21T14:10:49.000Z</time>
      </trkpt>
      <trkpt lat="47.17525" lon="4.93569">
        <ele>401</ele>
        <time>2020-05-21T14:10:51.000Z</time>
      </trkpt>
      <trkpt lat="47.17524" lon="4.93573">
        <ele>401</ele>
        <time>2020-05-21T14:10:53.000Z</time>
      </trkpt>
      <trkpt lat="47.17523" lon="4.93575">
        <ele>401</ele>
        <time>2020-05-21T14:10:55.000Z</time>
      </trkpt>
      <trkpt lat="47.17521" lon="4.93578">
        <ele>401</ele>
        <time>2020-05-21T14:10:57.000Z</time>
      </trkpt>
      <trkpt lat="47.1752" lon="4.93581">
        <ele>401</ele>
        <time>2020-05-21T14:10:59.000Z</time>
      </trkpt>
      <trkpt lat="47.1752" lon="4.93584">
        <ele>401</ele>
        <time>2020-05-21T14:11:01.000Z</time>
      </trkpt>
      <trkpt lat="47.1752" lon="4.93588">
        <ele>401</ele>
        <time>2020-05-21T14:11:03.000Z</time>
      </trkpt>
      <trkpt lat="47.17519" lon="4.9359">
        <ele>401</ele>
        <time>2020-05-21T14:11:05.000Z</time>
      </trkpt>
      <trkpt lat="47.17518" lon="4.93593">
        <ele>401</ele>
        <time>2020-05-21T14:11:07.000Z</time>
      </trkpt>
      <trkpt lat="47.17517" lon="4.93595">
        <ele>401</ele>
        <time>2020-05-21T14:11:09.000Z</time>
      </trkpt>
      <trkpt lat="47.17516" lon="4.93598">
        <ele>401</ele>
        <time>2020-05-21T14:11:11.000Z</time>
      </trkpt>
      <trkpt lat="47.17514" lon="4.936">
        <ele>401</ele>
        <time>2020-05-21T14:11:13.000Z</time>
      </trkpt>
      <trkpt lat="47.17512" lon="4.93603">
        <ele>401</ele>
        <time>2020-05-21T14:11:15.000Z</time>
      </trkpt>
      <trkpt lat="47.17511" lon="4.93605">
        <ele>401</ele>
        <time>2020-05-21T14:11:17.000Z</time>
      </trkpt>
      <trkpt lat="47.1751" lon="4.93608">
        <ele>401</ele>
        <time>2020-05-21T14:11:19.000Z</time>
      </trkpt>
      <trkpt lat="47.17509" lon="4.93611">
        <ele>401</ele>
        <time>2020-05-21T14:11:21.000Z</time>
      </trkpt>
      <trkpt lat="47.17507" lon="4.93614">
        <ele>401</ele>
        <time>2020-05-21T14:11:23.000Z</time>
      </trkpt>
      <trkpt lat="47.17506" lon="4.93618">
        <ele>401</ele>
        <time>2020-05-21T14:11:25.000Z</time>
      </trkpt>
      <trkpt lat="47.17505" lon="4.9362">
        <ele>401</ele>
        <time>2020-05-21T14:11:27.000Z</time>
      </trkpt>
      <trkpt lat="47.17503" lon="4.93622">
        <ele>401</ele>
        <time>2020-05-21T14:11:29.000Z</time>
      </trkpt>
      <trkpt lat="47.17502" lon="4.93624">
        <ele>401</ele>
        <time>2020-05-21T14:11:31.000Z</time>
      </trkpt>
      <trkpt lat="47.175" lon="4.93625">
        <ele>401</ele>
        <time>2020-05-21T14:11:33.000Z</time>
      </trkpt>
      <trkpt lat="47.17498" lon="4.93627">
        <ele>401</ele>
        <time>2020-05-21T14:11:35.000Z</time>
      </trkpt>
      <trkpt lat="47.17496" lon="4.93629">
        <ele>401</ele>
        <time>2020-05-21T14:11:38.000Z</time>
      </trkpt>
      <trkpt lat="47.17495" lon="4.93631">
        <ele>401</ele>
        <time>2020-05-21T14:11:41.000Z</time>
      </trkpt>
      <trkpt lat="47.17492" lon="4.93633">
        <ele>401</ele>
        <time>2020-05-21T14:11:43.000Z</time>
      </trkpt>
      <trkpt lat="47.1749" lon="4.93634">
        <ele>401</ele>
        <time>2020-05-21T14:11:45.000Z</time>
      </trkpt>
      <trkpt lat="47.17488" lon="4.93636">
        <ele>401</ele>
        <time>2020-05-21T14:11:47.000Z</time>
      </trkpt>
      <trkpt lat="47.17486" lon="4.93639">
        <ele>401</ele>
        <time>2020-05-21T14:11:49.000Z</time>
      </trkpt>
      <trkpt lat="47.17485" lon="4.93642">
        <ele>401</ele>
        <time>2020-05-21T14:11:51.000Z</time>
      </trkpt>
      <trkpt lat="47.17483" lon="4.93645">
        <ele>401</ele>
        <time>2020-05-21T14:11:53.000Z</time>
      </trkpt>
      <trkpt lat="47.17482" lon="4.93647">
        <ele>401</ele>
        <time>2020-05-21T14:11:55.000Z</time>
      </trkpt>
      <trkpt lat="47.1748" lon="4.93649">
        <ele>401</ele>
        <time>2020-05-21T14:11:57.000Z</time>
      </trkpt>
      <trkpt lat="47.17479" lon="4.93651">
        <ele>401</ele>
        <time>2020-05-21T14:11:59.000Z</time>
      </trkpt>
      <trkpt lat="47.17477" lon="4.93654">
        <ele>401</ele>
        <time>2020-05-21T14:12:01.000Z</time>
      </trkpt>
      <trkpt lat="47.17476" lon="4.93656">
        <ele>401</ele>
        <time>2020-05-21T14:12:03.000Z</time>
      </trkpt>
      <trkpt lat="47.17474" lon="4.93658">
        <ele>401</ele>
        <time>2020-05-21T14:12:05.000Z</time>
      </trkpt>
      <trkpt lat="47.17472" lon="4.93661">
        <ele>401</ele>
        <time>2020-05-21T14:12:07.000Z</time>
      </trkpt>
      <trkpt lat="47.1747" lon="4.93663">
        <ele>401</ele>
        <time>2020-05-21T14:12:09.000Z</time>
      </trkpt>
      <trkpt lat="47.17469" lon="4.93666">
        <ele>401</ele>
        <time>2020-05-21T14:12:11.000Z</time>
      </trkpt>
      <trkpt lat="47.17467" lon="4.93668">
        <ele>401</ele>
        <time>2020-05-21T14:12:13.000Z</time>
      </trkpt>
      <trkpt lat="47.17465" lon="4.93671">
        <ele>401</ele>
        <time>2020-05-21T14:12:15.000Z</time>
      </trkpt>
      <trkpt lat="47.17464" lon="4.93674">
        <ele>401</ele>
        <time>2020-05-21T14:12:17.000Z</time>
      </trkpt>
      <trkpt lat="47.17462" lon="4.93676">
        <ele>401</ele>
        <time>2020-05-21T14:12:19.000Z</time>
      </trkpt>
      <trkpt lat="47.1746" lon="4.93678">
        <ele>401</ele>
        <time>2020-05-21T14:12:21.000Z</time>
      </trkpt>
      <trkpt lat="47.17459" lon="4.93681">
        <ele>401</ele>
        <time>2020-05-21T14:12:23.000Z</time>
      </trkpt>
      <trkpt lat="47.17457" lon="4.93684">
        <ele>401</ele>
        <time>2020-05-21T14:12:25.000Z</time>
      </trkpt>
      <trkpt lat="47.17455" lon="4.93686">
        <ele>401</ele>
        <time>2020-05-21T14:12:27.000Z</time>
      </trkpt>
      <trkpt lat="47.17453" lon="4.93689">
        <ele>401</ele>
        <time>2020-05-21T14:12:29.000Z</time>
      </trkpt>
      <trkpt lat="47.17451" lon="4.93692">
        <ele>401</ele>
        <time>2020-05-21T14:12:31.000Z</time>
      </trkpt>
      <trkpt lat="47.17449" lon="4.93693">
        <ele>401</ele>
        <time>2020-05-21T14:12:33.000Z</time>
      </trkpt>
      <trkpt lat="47.17447" lon="4.93695">
        <ele>401</ele>
        <time>2020-05-21T14:12:35.000Z</time>
      </trkpt>
      <trkpt lat="47.17445" lon="4.93698">
        <ele>401</ele>
        <time>2020-05-21T14:12:37.000Z</time>
      </trkpt>
      <trkpt lat="47.17443" lon="4.937">
        <ele>401</ele>
        <time>2020-05-21T14:12:39.000Z</time>
      </trkpt>
      <trkpt lat="47.17442" lon="4.93702">
        <ele>401</ele>
        <time>2020-05-21T14:12:41.000Z</time>
      </trkpt>
      <trkpt lat="47.1744" lon="4.93704">
        <ele>401</ele>
        <time>2020-05-21T14:12:43.000Z</time>
      </trkpt>
      <trkpt lat="47.17438" lon="4.93707">
        <ele>401</ele>
        <time>2020-05-21T14:12:45.000Z</time>
      </trkpt>
      <trkpt lat="47.17436" lon="4.93709">
        <ele>401</ele>
        <time>2020-05-21T14:12:47.000Z</time>
      </trkpt>
      <trkpt lat="47.17434" lon="4.9371">
        <ele>401</ele>
        <time>2020-05-21T14:12:49.000Z</time>
      </trkpt>
      <trkpt lat="47.17433" lon="4.93713">
        <ele>401</ele>
        <time>2020-05-21T14:12:52.000Z</time>
      </trkpt>
      <trkpt lat="47.17432" lon="4.93715">
        <ele>401</ele>
        <time>2020-05-21T14:12:54.000Z</time>
      </trkpt>
      <trkpt lat="47.1743" lon="4.93718">
        <ele>401</ele>
        <time>2020-05-21T14:12:56.000Z</time>
      </trkpt>
      <trkpt lat="47.17428" lon="4.9372">
        <ele>401</ele>
        <time>2020-05-21T14:12:58.000Z</time>
      </trkpt>
      <trkpt lat="47.17425" lon="4.93722">
        <ele>401</ele>
        <time>2020-05-21T14:13:00.000Z</time>
      </trkpt>
      <trkpt lat="47.17424" lon="4.93724">
        <ele>401</ele>
        <time>2020-05-21T14:13:02.000Z</time>
      </trkpt>
      <trkpt lat="47.17422" lon="4.93726">
        <ele>401</ele>
        <time>2020-05-21T14:13:04.000Z</time>
      </trkpt>
      <trkpt lat="47.17421" lon="4.93728">
        <ele>401</ele>
        <time>2020-05-21T14:13:06.000Z</time>
      </trkpt>
      <trkpt lat="47.17419" lon="4.9373">
        <ele>401</ele>
        <time>2020-05-21T14:13:08.000Z</time>
      </trkpt>
      <trkpt lat="47.17417" lon="4.93733">
        <ele>401</ele>
        <time>2020-05-21T14:13:10.000Z</time>
      </trkpt>
      <trkpt lat="47.17414" lon="4.93735">
        <ele>401</ele>
        <time>2020-05-21T14:13:12.000Z</time>
      </trkpt>
      <trkpt lat="47.17413" lon="4.93737">
        <ele>401</ele>
        <time>2020-05-21T14:13:14.000Z</time>
      </trkpt>
      <trkpt lat="47.17411" lon="4.93739">
        <ele>400.89400064</ele>
        <time>2020-05-21T14:13:16.000Z</time>
      </trkpt>
      <trkpt lat="47.17409" lon="4.93742">
        <ele>400.69400064</ele>
        <time>2020-05-21T14:13:18.000Z</time>
      </trkpt>
      <trkpt lat="47.17407" lon="4.93744">
        <ele>400.49400064</ele>
        <time>2020-05-21T14:13:20.000Z</time>
      </trkpt>
      <trkpt lat="47.17406" lon="4.93746">
        <ele>400.29400064</ele>
        <time>2020-05-21T14:13:22.000Z</time>
      </trkpt>
      <trkpt lat="47.17404" lon="4.93748">
        <ele>400.09400064</ele>
        <time>2020-05-21T14:13:24.000Z</time>
      </trkpt>
      <trkpt lat="47.17402" lon="4.9375">
        <ele>400</ele>
        <time>2020-05-21T14:13:26.000Z</time>
      </trkpt>
      <trkpt lat="47.174" lon="4.93752">
        <ele>400</ele>
        <time>2020-05-21T14:13:28.000Z</time>
      </trkpt>
      <trkpt lat="47.17399" lon="4.93755">
        <ele>400</ele>
        <time>2020-05-21T14:13:30.000Z</time>
      </trkpt>
      <trkpt lat="47.17397" lon="4.93757">
        <ele>400</ele>
        <time>2020-05-21T14:13:32.000Z</time>
      </trkpt>
      <trkpt lat="47.17395" lon="4.9376">
        <ele>400</ele>
        <time>2020-05-21T14:13:34.000Z</time>
      </trkpt>
      <trkpt lat="47.17394" lon="4.93762">
        <ele>400</ele>
        <time>2020-05-21T14:13:36.000Z</time>
      </trkpt>
      <trkpt lat="47.17392" lon="4.93764">
        <ele>400</ele>
        <time>2020-05-21T14:13:38.000Z</time>
      </trkpt>
      <trkpt lat="47.1739" lon="4.93766">
        <ele>400</ele>
        <time>2020-05-21T14:13:40.000Z</time>
      </trkpt>
      <trkpt lat="47.17388" lon="4.93769">
        <ele>400</ele>
        <time>2020-05-21T14:13:42.000Z</time>
      </trkpt>
      <trkpt lat="47.17387" lon="4.93771">
        <ele>400</ele>
        <time>2020-05-21T14:13:44.000Z</time>
      </trkpt>
      <trkpt lat="47.17385" lon="4.93774">
        <ele>400</ele>
        <time>2020-05-21T14:13:46.000Z</time>
      </trkpt>
      <trkpt lat="47.17383" lon="4.93776">
        <ele>400</ele>
        <time>2020-05-21T14:13:48.000Z</time>
      </trkpt>
      <trkpt lat="47.17381" lon="4.93778">
        <ele>400</ele>
        <time>2020-05-21T14:13:50.000Z</time>
      </trkpt>
      <trkpt lat="47.1738" lon="4.9378">
        <ele>400</ele>
        <time>2020-05-21T14:13:52.000Z</time>
      </trkpt>
      <trkpt lat="47.17376" lon="4.9378">
        <ele>400</ele>
        <time>2020-05-21T14:13:54.000Z</time>
      </trkpt>
      <trkpt lat="47.17375" lon="4.93782">
        <ele>399.89688765371</ele>
        <time>2020-05-21T14:13:56.000Z</time>
      </trkpt>
      <trkpt lat="47.17372" lon="4.93784">
        <ele>399.70233488229</ele>
        <time>2020-05-21T14:13:58.000Z</time>
      </trkpt>
      <trkpt lat="47.17371" lon="4.93786">
        <ele>399.50778211086</ele>
        <time>2020-05-21T14:14:00.000Z</time>
      </trkpt>
      <trkpt lat="47.17369" lon="4.93788">
        <ele>399.31322933943</ele>
        <time>2020-05-21T14:14:02.000Z</time>
      </trkpt>
      <trkpt lat="47.17368" lon="4.93791">
        <ele>399.118676568</ele>
        <time>2020-05-21T14:14:04.000Z</time>
      </trkpt>
      <trkpt lat="47.17366" lon="4.93793">
        <ele>399</ele>
        <time>2020-05-21T14:14:06.000Z</time>
      </trkpt>
      <trkpt lat="47.17364" lon="4.93795">
        <ele>399</ele>
        <time>2020-05-21T14:14:08.000Z</time>
      </trkpt>
      <trkpt lat="47.17362" lon="4.93796">
        <ele>399</ele>
        <time>2020-05-21T14:14:10.000Z</time>
      </trkpt>
      <trkpt lat="47.1736" lon="4.93797">
        <ele>399</ele>
        <time>2020-05-21T14:14:12.000Z</time>
      </trkpt>
      <trkpt lat="47.17357" lon="4.93799">
        <ele>399</ele>
        <time>2020-05-21T14:14:14.000Z</time>
      </trkpt>
      <trkpt lat="47.17356" lon="4.93801">
        <ele>399</ele>
        <time>2020-05-21T14:14:16.000Z</time>
      </trkpt>
      <trkpt lat="47.17354" lon="4.93803">
        <ele>399</ele>
        <time>2020-05-21T14:14:18.000Z</time>
      </trkpt>
      <trkpt lat="47.17352" lon="4.93804">
        <ele>399</ele>
        <time>2020-05-21T14:14:20.000Z</time>
      </trkpt>
      <trkpt lat="47.1735" lon="4.93806">
        <ele>399</ele>
        <time>2020-05-21T14:14:22.000Z</time>
      </trkpt>
      <trkpt lat="47.17347" lon="4.93807">
        <ele>399</ele>
        <time>2020-05-21T14:14:24.000Z</time>
      </trkpt>
      <trkpt lat="47.17345" lon="4.93808">
        <ele>398.89400064</ele>
        <time>2020-05-21T14:14:26.000Z</time>
      </trkpt>
      <trkpt lat="47.17342" lon="4.9381">
        <ele>398.69400064</ele>
        <time>2020-05-21T14:14:28.000Z</time>
      </trkpt>
      <trkpt lat="47.17341" lon="4.93812">
        <ele>398.49400064</ele>
        <time>2020-05-21T14:14:30.000Z</time>
      </trkpt>
      <trkpt lat="47.17339" lon="4.93814">
        <ele>398.29400064</ele>
        <time>2020-05-21T14:14:32.000Z</time>
      </trkpt>
      <trkpt lat="47.17337" lon="4.93816">
        <ele>398.09400064</ele>
        <time>2020-05-21T14:14:34.000Z</time>
      </trkpt>
      <trkpt lat="47.17335" lon="4.93818">
        <ele>398.10599936</ele>
        <time>2020-05-21T14:14:36.000Z</time>
      </trkpt>
      <trkpt lat="47.17333" lon="4.93819">
        <ele>398.30599936</ele>
        <time>2020-05-21T14:14:38.000Z</time>
      </trkpt>
      <trkpt lat="47.17331" lon="4.93821">
        <ele>398.50599936</ele>
        <time>2020-05-21T14:14:40.000Z</time>
      </trkpt>
      <trkpt lat="47.17329" lon="4.93823">
        <ele>398.70599936</ele>
        <time>2020-05-21T14:14:42.000Z</time>
      </trkpt>
      <trkpt lat="47.17328" lon="4.93825">
        <ele>398.90599936</ele>
        <time>2020-05-21T14:14:44.000Z</time>
      </trkpt>
      <trkpt lat="47.17326" lon="4.93827">
        <ele>399</ele>
        <time>2020-05-21T14:14:46.000Z</time>
      </trkpt>
      <trkpt lat="47.17325" lon="4.93829">
        <ele>399</ele>
        <time>2020-05-21T14:14:48.000Z</time>
      </trkpt>
      <trkpt lat="47.17323" lon="4.93831">
        <ele>399</ele>
        <time>2020-05-21T14:14:50.000Z</time>
      </trkpt>
      <trkpt lat="47.17321" lon="4.93833">
        <ele>399</ele>
        <time>2020-05-21T14:14:52.000Z</time>
      </trkpt>
      <trkpt lat="47.1732" lon="4.93835">
        <ele>399</ele>
        <time>2020-05-21T14:14:54.000Z</time>
      </trkpt>
      <trkpt lat="47.17318" lon="4.93837">
        <ele>398.89400064</ele>
        <time>2020-05-21T14:14:56.000Z</time>
      </trkpt>
      <trkpt lat="47.17316" lon="4.93839">
        <ele>398.69400064</ele>
        <time>2020-05-21T14:14:58.000Z</time>
      </trkpt>
      <trkpt lat="47.17314" lon="4.93841">
        <ele>398.49400064</ele>
        <time>2020-05-21T14:15:00.000Z</time>
      </trkpt>
      <trkpt lat="47.17313" lon="4.93843">
        <ele>398.29400064</ele>
        <time>2020-05-21T14:15:02.000Z</time>
      </trkpt>
      <trkpt lat="47.17311" lon="4.93845">
        <ele>398.09400064</ele>
        <time>2020-05-21T14:15:04.000Z</time>
      </trkpt>
      <trkpt lat="47.17309" lon="4.93848">
        <ele>398</ele>
        <time>2020-05-21T14:15:06.000Z</time>
      </trkpt>
      <trkpt lat="47.17308" lon="4.9385">
        <ele>398</ele>
        <time>2020-05-21T14:15:08.000Z</time>
      </trkpt>
      <trkpt lat="47.17306" lon="4.93851">
        <ele>398</ele>
        <time>2020-05-21T14:15:10.000Z</time>
      </trkpt>
      <trkpt lat="47.17304" lon="4.93853">
        <ele>398</ele>
        <time>2020-05-21T14:15:12.000Z</time>
      </trkpt>
      <trkpt lat="47.17302" lon="4.93856">
        <ele>398</ele>
        <time>2020-05-21T14:15:14.000Z</time>
      </trkpt>
      <trkpt lat="47.173" lon="4.93858">
        <ele>397.89400064</ele>
        <time>2020-05-21T14:15:16.000Z</time>
      </trkpt>
      <trkpt lat="47.17299" lon="4.93861">
        <ele>397.69400064</ele>
        <time>2020-05-21T14:15:18.000Z</time>
      </trkpt>
      <trkpt lat="47.17298" lon="4.93863">
        <ele>397.49400064</ele>
        <time>2020-05-21T14:15:20.000Z</time>
      </trkpt>
      <trkpt lat="47.17298" lon="4.93866">
        <ele>397.29400064</ele>
        <time>2020-05-21T14:15:22.000Z</time>
      </trkpt>
      <trkpt lat="47.17296" lon="4.93868">
        <ele>397.09400064</ele>
        <time>2020-05-21T14:15:24.000Z</time>
      </trkpt>
      <trkpt lat="47.17294" lon="4.9387">
        <ele>397</ele>
        <time>2020-05-21T14:15:26.000Z</time>
      </trkpt>
      <trkpt lat="47.17293" lon="4.93872">
        <ele>397</ele>
        <time>2020-05-21T14:15:28.000Z</time>
      </trkpt>
      <trkpt lat="47.1729" lon="4.93873">
        <ele>397</ele>
        <time>2020-05-21T14:15:31.000Z</time>
      </trkpt>
      <trkpt lat="47.17289" lon="4.93875">
        <ele>397</ele>
        <time>2020-05-21T14:15:33.000Z</time>
      </trkpt>
      <trkpt lat="47.17287" lon="4.93878">
        <ele>397</ele>
        <time>2020-05-21T14:15:35.000Z</time>
      </trkpt>
      <trkpt lat="47.17286" lon="4.93881">
        <ele>397</ele>
        <time>2020-05-21T14:15:37.000Z</time>
      </trkpt>
      <trkpt lat="47.17284" lon="4.93883">
        <ele>397</ele>
        <time>2020-05-21T14:15:39.000Z</time>
      </trkpt>
      <trkpt lat="47.17282" lon="4.93885">
        <ele>397</ele>
        <time>2020-05-21T14:15:41.000Z</time>
      </trkpt>
      <trkpt lat="47.1728" lon="4.93887">
        <ele>397</ele>
        <time>2020-05-21T14:15:43.000Z</time>
      </trkpt>
      <trkpt lat="47.17278" lon="4.93889">
        <ele>396.89849281657</ele>
        <time>2020-05-21T14:15:46.000Z</time>
      </trkpt>
      <trkpt lat="47.17276" lon="4.93892">
        <ele>396.69748785608</ele>
        <time>2020-05-21T14:15:48.000Z</time>
      </trkpt>
      <trkpt lat="47.17274" lon="4.93895">
        <ele>396.39598041536</ele>
        <time>2020-05-21T14:15:51.000Z</time>
      </trkpt>
      <trkpt lat="47.17273" lon="4.93897">
        <ele>396.19497545488</ele>
        <time>2020-05-21T14:15:53.000Z</time>
      </trkpt>
      <trkpt lat="47.17271" lon="4.939">
        <ele>396</ele>
        <time>2020-05-21T14:15:55.000Z</time>
      </trkpt>
      <trkpt lat="47.17269" lon="4.93903">
        <ele>396</ele>
        <time>2020-05-21T14:15:57.000Z</time>
      </trkpt>
      <trkpt lat="47.17267" lon="4.93905">
        <ele>396</ele>
        <time>2020-05-21T14:15:59.000Z</time>
      </trkpt>
      <trkpt lat="47.17265" lon="4.93907">
        <ele>396</ele>
        <time>2020-05-21T14:16:01.000Z</time>
      </trkpt>
      <trkpt lat="47.17262" lon="4.93908">
        <ele>396</ele>
        <time>2020-05-21T14:16:03.000Z</time>
      </trkpt>
      <trkpt lat="47.1726" lon="4.9391">
        <ele>396</ele>
        <time>2020-05-21T14:16:05.000Z</time>
      </trkpt>
      <trkpt lat="47.17258" lon="4.93913">
        <ele>396</ele>
        <time>2020-05-21T14:16:07.000Z</time>
      </trkpt>
      <trkpt lat="47.17256" lon="4.93915">
        <ele>396</ele>
        <time>2020-05-21T14:16:09.000Z</time>
      </trkpt>
      <trkpt lat="47.17254" lon="4.93917">
        <ele>396</ele>
        <time>2020-05-21T14:16:11.000Z</time>
      </trkpt>
      <trkpt lat="47.17252" lon="4.93919">
        <ele>396</ele>
        <time>2020-05-21T14:16:13.000Z</time>
      </trkpt>
      <trkpt lat="47.1725" lon="4.9392">
        <ele>396</ele>
        <time>2020-05-21T14:16:15.000Z</time>
      </trkpt>
      <trkpt lat="47.17248" lon="4.93922">
        <ele>396</ele>
        <time>2020-05-21T14:16:17.000Z</time>
      </trkpt>
      <trkpt lat="47.17246" lon="4.93924">
        <ele>396</ele>
        <time>2020-05-21T14:16:19.000Z</time>
      </trkpt>
      <trkpt lat="47.17244" lon="4.93927">
        <ele>396</ele>
        <time>2020-05-21T14:16:21.000Z</time>
      </trkpt>
      <trkpt lat="47.17242" lon="4.93929">
        <ele>396</ele>
        <time>2020-05-21T14:16:23.000Z</time>
      </trkpt>
      <trkpt lat="47.1724" lon="4.93932">
        <ele>396</ele>
        <time>2020-05-21T14:16:25.000Z</time>
      </trkpt>
      <trkpt lat="47.17238" lon="4.93934">
        <ele>396</ele>
        <time>2020-05-21T14:16:27.000Z</time>
      </trkpt>
      <trkpt lat="47.17236" lon="4.93936">
        <ele>396</ele>
        <time>2020-05-21T14:16:29.000Z</time>
      </trkpt>
      <trkpt lat="47.17234" lon="4.93938">
        <ele>396</ele>
        <time>2020-05-21T14:16:31.000Z</time>
      </trkpt>
      <trkpt lat="47.17232" lon="4.9394">
        <ele>396</ele>
        <time>2020-05-21T14:16:33.000Z</time>
      </trkpt>
      <trkpt lat="47.1723" lon="4.93941">
        <ele>396</ele>
        <time>2020-05-21T14:16:35.000Z</time>
      </trkpt>
      <trkpt lat="47.17227" lon="4.93941">
        <ele>396</ele>
        <time>2020-05-21T14:16:37.000Z</time>
      </trkpt>
      <trkpt lat="47.17225" lon="4.93941">
        <ele>396</ele>
        <time>2020-05-21T14:16:39.000Z</time>
      </trkpt>
      <trkpt lat="47.17223" lon="4.93941">
        <ele>396</ele>
        <time>2020-05-21T14:16:41.000Z</time>
      </trkpt>
      <trkpt lat="47.1722" lon="4.9394">
        <ele>396</ele>
        <time>2020-05-21T14:16:43.000Z</time>
      </trkpt>
      <trkpt lat="47.17218" lon="4.93939">
        <ele>396</ele>
        <time>2020-05-21T14:16:45.000Z</time>
      </trkpt>
      <trkpt lat="47.17216" lon="4.93937">
        <ele>396</ele>
        <time>2020-05-21T14:16:47.000Z</time>
      </trkpt>
      <trkpt lat="47.17214" lon="4.93936">
        <ele>396</ele>
        <time>2020-05-21T14:16:49.000Z</time>
      </trkpt>
      <trkpt lat="47.17212" lon="4.93935">
        <ele>396</ele>
        <time>2020-05-21T14:16:51.000Z</time>
      </trkpt>
      <trkpt lat="47.1721" lon="4.93933">
        <ele>396</ele>
        <time>2020-05-21T14:16:53.000Z</time>
      </trkpt>
      <trkpt lat="47.17209" lon="4.9393">
        <ele>396</ele>
        <time>2020-05-21T14:16:55.000Z</time>
      </trkpt>
      <trkpt lat="47.17208" lon="4.93928">
        <ele>396</ele>
        <time>2020-05-21T14:16:57.000Z</time>
      </trkpt>
      <trkpt lat="47.17206" lon="4.93926">
        <ele>396</ele>
        <time>2020-05-21T14:16:59.000Z</time>
      </trkpt>
      <trkpt lat="47.17204" lon="4.93924">
        <ele>396</ele>
        <time>2020-05-21T14:17:01.000Z</time>
      </trkpt>
      <trkpt lat="47.17203" lon="4.93922">
        <ele>396</ele>
        <time>2020-05-21T14:17:03.000Z</time>
      </trkpt>
      <trkpt lat="47.17201" lon="4.9392">
        <ele>396.00599936</ele>
        <time>2020-05-21T14:17:05.000Z</time>
      </trkpt>
      <trkpt lat="47.17199" lon="4.93917">
        <ele>396.20599936</ele>
        <time>2020-05-21T14:17:07.000Z</time>
      </trkpt>
      <trkpt lat="47.17198" lon="4.93915">
        <ele>396.40599936</ele>
        <time>2020-05-21T14:17:09.000Z</time>
      </trkpt>
      <trkpt lat="47.17197" lon="4.93913">
        <ele>396.60599936</ele>
        <time>2020-05-21T14:17:11.000Z</time>
      </trkpt>
      <trkpt lat="47.17195" lon="4.93911">
        <ele>396.80599936</ele>
        <time>2020-05-21T14:17:13.000Z</time>
      </trkpt>
      <trkpt lat="47.17194" lon="4.93909">
        <ele>397.00599936</ele>
        <time>2020-05-21T14:17:15.000Z</time>
      </trkpt>
      <trkpt lat="47.17192" lon="4.93907">
        <ele>397.20599936</ele>
        <time>2020-05-21T14:17:17.000Z</time>
      </trkpt>
      <trkpt lat="47.17191" lon="4.93905">
        <ele>397.40599936</ele>
        <time>2020-05-21T14:17:19.000Z</time>
      </trkpt>
      <trkpt lat="47.17189" lon="4.93903">
        <ele>397.60599936</ele>
        <time>2020-05-21T14:17:21.000Z</time>
      </trkpt>
      <trkpt lat="47.17187" lon="4.93901">
        <ele>397.80599936</ele>
        <time>2020-05-21T14:17:23.000Z</time>
      </trkpt>
      <trkpt lat="47.17186" lon="4.93899">
        <ele>398</ele>
        <time>2020-05-21T14:17:25.000Z</time>
      </trkpt>
      <trkpt lat="47.17184" lon="4.93896">
        <ele>398</ele>
        <time>2020-05-21T14:17:27.000Z</time>
      </trkpt>
      <trkpt lat="47.17183" lon="4.93894">
        <ele>398</ele>
        <time>2020-05-21T14:17:29.000Z</time>
      </trkpt>
      <trkpt lat="47.17181" lon="4.93891">
        <ele>398</ele>
        <time>2020-05-21T14:17:31.000Z</time>
      </trkpt>
      <trkpt lat="47.1718" lon="4.93889">
        <ele>398</ele>
        <time>2020-05-21T14:17:33.000Z</time>
      </trkpt>
      <trkpt lat="47.17178" lon="4.93886">
        <ele>398.00599936</ele>
        <time>2020-05-21T14:17:35.000Z</time>
      </trkpt>
      <trkpt lat="47.17176" lon="4.93884">
        <ele>398.30599936</ele>
        <time>2020-05-21T14:17:38.000Z</time>
      </trkpt>
      <trkpt lat="47.17175" lon="4.93882">
        <ele>398.50599936</ele>
        <time>2020-05-21T14:17:40.000Z</time>
      </trkpt>
      <trkpt lat="47.17173" lon="4.9388">
        <ele>398.70599936</ele>
        <time>2020-05-21T14:17:42.000Z</time>
      </trkpt>
      <trkpt lat="47.17171" lon="4.93877">
        <ele>398.90599936</ele>
        <time>2020-05-21T14:17:44.000Z</time>
      </trkpt>
      <trkpt lat="47.17169" lon="4.93874">
        <ele>399</ele>
        <time>2020-05-21T14:17:47.000Z</time>
      </trkpt>
      <trkpt lat="47.17167" lon="4.93872">
        <ele>399</ele>
        <time>2020-05-21T14:17:50.000Z</time>
      </trkpt>
      <trkpt lat="47.17165" lon="4.93869">
        <ele>399</ele>
        <time>2020-05-21T14:17:52.000Z</time>
      </trkpt>
      <trkpt lat="47.17164" lon="4.93867">
        <ele>399</ele>
        <time>2020-05-21T14:17:54.000Z</time>
      </trkpt>
      <trkpt lat="47.17162" lon="4.93865">
        <ele>399</ele>
        <time>2020-05-21T14:17:56.000Z</time>
      </trkpt>
      <trkpt lat="47.1716" lon="4.93863">
        <ele>399</ele>
        <time>2020-05-21T14:17:58.000Z</time>
      </trkpt>
      <trkpt lat="47.17158" lon="4.93861">
        <ele>399</ele>
        <time>2020-05-21T14:18:00.000Z</time>
      </trkpt>
      <trkpt lat="47.17156" lon="4.93859">
        <ele>399</ele>
        <time>2020-05-21T14:18:02.000Z</time>
      </trkpt>
      <trkpt lat="47.17155" lon="4.93857">
        <ele>399</ele>
        <time>2020-05-21T14:18:04.000Z</time>
      </trkpt>
      <trkpt lat="47.17153" lon="4.93854">
        <ele>399</ele>
        <time>2020-05-21T14:18:06.000Z</time>
      </trkpt>
      <trkpt lat="47.1715" lon="4.93852">
        <ele>399</ele>
        <time>2020-05-21T14:18:08.000Z</time>
      </trkpt>
      <trkpt lat="47.17149" lon="4.93849">
        <ele>399</ele>
        <time>2020-05-21T14:18:10.000Z</time>
      </trkpt>
      <trkpt lat="47.17146" lon="4.93847">
        <ele>399</ele>
        <time>2020-05-21T14:18:12.000Z</time>
      </trkpt>
      <trkpt lat="47.17145" lon="4.93844">
        <ele>399</ele>
        <time>2020-05-21T14:18:14.000Z</time>
      </trkpt>
      <trkpt lat="47.17143" lon="4.93842">
        <ele>399.10599936</ele>
        <time>2020-05-21T14:18:16.000Z</time>
      </trkpt>
      <trkpt lat="47.17141" lon="4.9384">
        <ele>399.30599936</ele>
        <time>2020-05-21T14:18:18.000Z</time>
      </trkpt>
      <trkpt lat="47.17139" lon="4.93838">
        <ele>399.50599936</ele>
        <time>2020-05-21T14:18:20.000Z</time>
      </trkpt>
      <trkpt lat="47.17138" lon="4.93836">
        <ele>399.70599936</ele>
        <time>2020-05-21T14:18:22.000Z</time>
      </trkpt>
      <trkpt lat="47.17136" lon="4.93833">
        <ele>399.90599936</ele>
        <time>2020-05-21T14:18:24.000Z</time>
      </trkpt>
      <trkpt lat="47.17135" lon="4.93831">
        <ele>400.10599936</ele>
        <time>2020-05-21T14:18:26.000Z</time>
      </trkpt>
      <trkpt lat="47.17133" lon="4.93829">
        <ele>400.30599936</ele>
        <time>2020-05-21T14:18:28.000Z</time>
      </trkpt>
      <trkpt lat="47.17131" lon="4.93827">
        <ele>400.50599936</ele>
        <time>2020-05-21T14:18:30.000Z</time>
      </trkpt>
      <trkpt lat="47.17129" lon="4.93825">
        <ele>400.70599936</ele>
        <time>2020-05-21T14:18:32.000Z</time>
      </trkpt>
      <trkpt lat="47.17127" lon="4.93823">
        <ele>400.90599936</ele>
        <time>2020-05-21T14:18:34.000Z</time>
      </trkpt>
      <trkpt lat="47.17125" lon="4.93822">
        <ele>401</ele>
        <time>2020-05-21T14:18:36.000Z</time>
      </trkpt>
      <trkpt lat="47.17123" lon="4.9382">
        <ele>401</ele>
        <time>2020-05-21T14:18:38.000Z</time>
      </trkpt>
      <trkpt lat="47.17122" lon="4.93817">
        <ele>401</ele>
        <time>2020-05-21T14:18:40.000Z</time>
      </trkpt>
      <trkpt lat="47.1712" lon="4.93815">
        <ele>401</ele>
        <time>2020-05-21T14:18:42.000Z</time>
      </trkpt>
      <trkpt lat="47.17119" lon="4.93813">
        <ele>401</ele>
        <time>2020-05-21T14:18:44.000Z</time>
      </trkpt>
      <trkpt lat="47.17117" lon="4.9381">
        <ele>401.10321271576</ele>
        <time>2020-05-21T14:18:46.000Z</time>
      </trkpt>
      <trkpt lat="47.17115" lon="4.93808">
        <ele>401.29795486469</ele>
        <time>2020-05-21T14:18:48.000Z</time>
      </trkpt>
      <trkpt lat="47.17114" lon="4.93807">
        <ele>401.49269701362</ele>
        <time>2020-05-21T14:18:50.000Z</time>
      </trkpt>
      <trkpt lat="47.17112" lon="4.93805">
        <ele>401.68743916255</ele>
        <time>2020-05-21T14:18:52.000Z</time>
      </trkpt>
      <trkpt lat="47.1711" lon="4.93802">
        <ele>401.88218131148</ele>
        <time>2020-05-21T14:18:54.000Z</time>
      </trkpt>
      <trkpt lat="47.17107" lon="4.938">
        <ele>402</ele>
        <time>2020-05-21T14:18:56.000Z</time>
      </trkpt>
      <trkpt lat="47.17106" lon="4.93799">
        <ele>402</ele>
        <time>2020-05-21T14:18:58.000Z</time>
      </trkpt>
      <trkpt lat="47.17104" lon="4.93797">
        <ele>402</ele>
        <time>2020-05-21T14:19:00.000Z</time>
      </trkpt>
      <trkpt lat="47.17102" lon="4.93795">
        <ele>402</ele>
        <time>2020-05-21T14:19:02.000Z</time>
      </trkpt>
      <trkpt lat="47.171" lon="4.93793">
        <ele>402</ele>
        <time>2020-05-21T14:19:04.000Z</time>
      </trkpt>
      <trkpt lat="47.17098" lon="4.93791">
        <ele>402.21199872</ele>
        <time>2020-05-21T14:19:06.000Z</time>
      </trkpt>
      <trkpt lat="47.17095" lon="4.93788">
        <ele>402.61199872</ele>
        <time>2020-05-21T14:19:08.000Z</time>
      </trkpt>
      <trkpt lat="47.17093" lon="4.93787">
        <ele>403.01199872</ele>
        <time>2020-05-21T14:19:10.000Z</time>
      </trkpt>
      <trkpt lat="47.17092" lon="4.93785">
        <ele>403.41199872</ele>
        <time>2020-05-21T14:19:12.000Z</time>
      </trkpt>
      <trkpt lat="47.17091" lon="4.93784">
        <ele>403.61199872</ele>
        <time>2020-05-21T14:19:13.000Z</time>
      </trkpt>
      <trkpt lat="47.17089" lon="4.93782">
        <ele>403.99400064</ele>
        <time>2020-05-21T14:19:15.000Z</time>
      </trkpt>
      <trkpt lat="47.17086" lon="4.93779">
        <ele>403.79400064</ele>
        <time>2020-05-21T14:19:17.000Z</time>
      </trkpt>
      <trkpt lat="47.17084" lon="4.93777">
        <ele>403.59400064</ele>
        <time>2020-05-21T14:19:19.000Z</time>
      </trkpt>
      <trkpt lat="47.17082" lon="4.93775">
        <ele>403.39400064</ele>
        <time>2020-05-21T14:19:21.000Z</time>
      </trkpt>
      <trkpt lat="47.17081" lon="4.93773">
        <ele>403.19400064</ele>
        <time>2020-05-21T14:19:23.000Z</time>
      </trkpt>
      <trkpt lat="47.17079" lon="4.9377">
        <ele>403</ele>
        <time>2020-05-21T14:19:25.000Z</time>
      </trkpt>
      <trkpt lat="47.17077" lon="4.93768">
        <ele>403</ele>
        <time>2020-05-21T14:19:27.000Z</time>
      </trkpt>
      <trkpt lat="47.17076" lon="4.93766">
        <ele>403</ele>
        <time>2020-05-21T14:19:30.000Z</time>
      </trkpt>
      <trkpt lat="47.17074" lon="4.93765">
        <ele>403</ele>
        <time>2020-05-21T14:19:41.000Z</time>
      </trkpt>
      <trkpt lat="47.17072" lon="4.93762">
        <ele>403</ele>
        <time>2020-05-21T14:19:44.000Z</time>
      </trkpt>
      <trkpt lat="47.1707" lon="4.9376">
        <ele>403</ele>
        <time>2020-05-21T14:19:46.000Z</time>
      </trkpt>
      <trkpt lat="47.17068" lon="4.93758">
        <ele>403</ele>
        <time>2020-05-21T14:19:48.000Z</time>
      </trkpt>
      <trkpt lat="47.17067" lon="4.93756">
        <ele>403</ele>
        <time>2020-05-21T14:19:50.000Z</time>
      </trkpt>
      <trkpt lat="47.17065" lon="4.93754">
        <ele>403</ele>
        <time>2020-05-21T14:19:52.000Z</time>
      </trkpt>
      <trkpt lat="47.17063" lon="4.93752">
        <ele>403</ele>
        <time>2020-05-21T14:19:54.000Z</time>
      </trkpt>
      <trkpt lat="47.17061" lon="4.9375">
        <ele>403</ele>
        <time>2020-05-21T14:19:56.000Z</time>
      </trkpt>
      <trkpt lat="47.1706" lon="4.93747">
        <ele>403</ele>
        <time>2020-05-21T14:19:58.000Z</time>
      </trkpt>
      <trkpt lat="47.17058" lon="4.93745">
        <ele>403</ele>
        <time>2020-05-21T14:20:00.000Z</time>
      </trkpt>
      <trkpt lat="47.17057" lon="4.93742">
        <ele>403</ele>
        <time>2020-05-21T14:20:02.000Z</time>
      </trkpt>
      <trkpt lat="47.17055" lon="4.9374">
        <ele>403</ele>
        <time>2020-05-21T14:20:04.000Z</time>
      </trkpt>
      <trkpt lat="47.17053" lon="4.93738">
        <ele>403.10321271576</ele>
        <time>2020-05-21T14:20:06.000Z</time>
      </trkpt>
      <trkpt lat="47.17051" lon="4.93736">
        <ele>403.39532593916</ele>
        <time>2020-05-21T14:20:09.000Z</time>
      </trkpt>
      <trkpt lat="47.17049" lon="4.93734">
        <ele>403.59006808809</ele>
        <time>2020-05-21T14:20:11.000Z</time>
      </trkpt>
      <trkpt lat="47.17047" lon="4.93731">
        <ele>403.78481023702</ele>
        <time>2020-05-21T14:20:13.000Z</time>
      </trkpt>
      <trkpt lat="47.17044" lon="4.93728">
        <ele>403.97955238595</ele>
        <time>2020-05-21T14:20:15.000Z</time>
      </trkpt>
      <trkpt lat="47.17042" lon="4.93726">
        <ele>404</ele>
        <time>2020-05-21T14:20:17.000Z</time>
      </trkpt>
      <trkpt lat="47.1704" lon="4.93725">
        <ele>404</ele>
        <time>2020-05-21T14:20:19.000Z</time>
      </trkpt>
      <trkpt lat="47.17038" lon="4.93723">
        <ele>404</ele>
        <time>2020-05-21T14:20:21.000Z</time>
      </trkpt>
      <trkpt lat="47.17036" lon="4.9372">
        <ele>404</ele>
        <time>2020-05-21T14:20:23.000Z</time>
      </trkpt>
      <trkpt lat="47.17034" lon="4.93718">
        <ele>403.99400064</ele>
        <time>2020-05-21T14:20:25.000Z</time>
      </trkpt>
      <trkpt lat="47.17032" lon="4.93715">
        <ele>403.79400064</ele>
        <time>2020-05-21T14:20:27.000Z</time>
      </trkpt>
      <trkpt lat="47.1703" lon="4.93714">
        <ele>403.59400064</ele>
        <time>2020-05-21T14:20:29.000Z</time>
      </trkpt>
      <trkpt lat="47.17028" lon="4.93712">
        <ele>403.39400064</ele>
        <time>2020-05-21T14:20:31.000Z</time>
      </trkpt>
      <trkpt lat="47.17026" lon="4.93709">
        <ele>403.19400064</ele>
        <time>2020-05-21T14:20:33.000Z</time>
      </trkpt>
      <trkpt lat="47.17024" lon="4.93707">
        <ele>403</ele>
        <time>2020-05-21T14:20:35.000Z</time>
      </trkpt>
      <trkpt lat="47.17022" lon="4.93705">
        <ele>403</ele>
        <time>2020-05-21T14:20:37.000Z</time>
      </trkpt>
      <trkpt lat="47.1702" lon="4.93703">
        <ele>403</ele>
        <time>2020-05-21T14:20:39.000Z</time>
      </trkpt>
      <trkpt lat="47.17017" lon="4.93701">
        <ele>403</ele>
        <time>2020-05-21T14:20:41.000Z</time>
      </trkpt>
      <trkpt lat="47.17015" lon="4.93699">
        <ele>403</ele>
        <time>2020-05-21T14:20:43.000Z</time>
      </trkpt>
      <trkpt lat="47.17013" lon="4.93697">
        <ele>403</ele>
        <time>2020-05-21T14:20:45.000Z</time>
      </trkpt>
      <trkpt lat="47.17011" lon="4.93695">
        <ele>403</ele>
        <time>2020-05-21T14:20:47.000Z</time>
      </trkpt>
      <trkpt lat="47.17008" lon="4.93693">
        <ele>403</ele>
        <time>2020-05-21T14:20:49.000Z</time>
      </trkpt>
      <trkpt lat="47.17006" lon="4.93691">
        <ele>403</ele>
        <time>2020-05-21T14:20:51.000Z</time>
      </trkpt>
      <trkpt lat="47.17004" lon="4.93689">
        <ele>403</ele>
        <time>2020-05-21T14:20:53.000Z</time>
      </trkpt>
      <trkpt lat="47.17002" lon="4.93687">
        <ele>402.98800128</ele>
        <time>2020-05-21T14:20:55.000Z</time>
      </trkpt>
      <trkpt lat="47.17" lon="4.93685">
        <ele>402.58800128</ele>
        <time>2020-05-21T14:20:57.000Z</time>
      </trkpt>
      <trkpt lat="47.16998" lon="4.93683">
        <ele>402.18800128</ele>
        <time>2020-05-21T14:20:59.000Z</time>
      </trkpt>
      <trkpt lat="47.16995" lon="4.93681">
        <ele>401.78800128</ele>
        <time>2020-05-21T14:21:01.000Z</time>
      </trkpt>
      <trkpt lat="47.16993" lon="4.93679">
        <ele>401.38800128</ele>
        <time>2020-05-21T14:21:03.000Z</time>
      </trkpt>
      <trkpt lat="47.16991" lon="4.93677">
        <ele>401.00589907757</ele>
        <time>2020-05-21T14:21:05.000Z</time>
      </trkpt>
      <trkpt lat="47.16989" lon="4.93676">
        <ele>401.20255597327</ele>
        <time>2020-05-21T14:21:07.000Z</time>
      </trkpt>
      <trkpt lat="47.16987" lon="4.93674">
        <ele>401.39921286898</ele>
        <time>2020-05-21T14:21:09.000Z</time>
      </trkpt>
      <trkpt lat="47.16985" lon="4.93672">
        <ele>401.59586976468</ele>
        <time>2020-05-21T14:21:11.000Z</time>
      </trkpt>
      <trkpt lat="47.16983" lon="4.93669">
        <ele>401.79252666038</ele>
        <time>2020-05-21T14:21:13.000Z</time>
      </trkpt>
      <trkpt lat="47.16982" lon="4.93667">
        <ele>401.98918355608</ele>
        <time>2020-05-21T14:21:15.000Z</time>
      </trkpt>
      <trkpt lat="47.1698" lon="4.93666">
        <ele>402</ele>
        <time>2020-05-21T14:21:17.000Z</time>
      </trkpt>
      <trkpt lat="47.16977" lon="4.93664">
        <ele>402</ele>
        <time>2020-05-21T14:21:19.000Z</time>
      </trkpt>
      <trkpt lat="47.16975" lon="4.93662">
        <ele>402</ele>
        <time>2020-05-21T14:21:21.000Z</time>
      </trkpt>
      <trkpt lat="47.16973" lon="4.9366">
        <ele>402</ele>
        <time>2020-05-21T14:21:23.000Z</time>
      </trkpt>
      <trkpt lat="47.1697" lon="4.93658">
        <ele>402</ele>
        <time>2020-05-21T14:21:25.000Z</time>
      </trkpt>
      <trkpt lat="47.16969" lon="4.93657">
        <ele>402</ele>
        <time>2020-05-21T14:21:27.000Z</time>
      </trkpt>
      <trkpt lat="47.16966" lon="4.93655">
        <ele>402</ele>
        <time>2020-05-21T14:21:29.000Z</time>
      </trkpt>
      <trkpt lat="47.16965" lon="4.93654">
        <ele>402</ele>
        <time>2020-05-21T14:21:31.000Z</time>
      </trkpt>
      <trkpt lat="47.16963" lon="4.93652">
        <ele>402</ele>
        <time>2020-05-21T14:21:33.000Z</time>
      </trkpt>
      <trkpt lat="47.16961" lon="4.93651">
        <ele>402</ele>
        <time>2020-05-21T14:21:35.000Z</time>
      </trkpt>
      <trkpt lat="47.16959" lon="4.9365">
        <ele>401.81603274061</ele>
        <time>2020-05-21T14:21:37.000Z</time>
      </trkpt>
      <trkpt lat="47.16957" lon="4.93648">
        <ele>401.61048309757</ele>
        <time>2020-05-21T14:21:39.000Z</time>
      </trkpt>
      <trkpt lat="47.16955" lon="4.93647">
        <ele>401.40493345454</ele>
        <time>2020-05-21T14:21:41.000Z</time>
      </trkpt>
      <trkpt lat="47.16952" lon="4.93645">
        <ele>401.1993838115</ele>
        <time>2020-05-21T14:21:43.000Z</time>
      </trkpt>
      <trkpt lat="47.16949" lon="4.93643">
        <ele>400.99400064</ele>
        <time>2020-05-21T14:21:45.000Z</time>
      </trkpt>
      <trkpt lat="47.16947" lon="4.93641">
        <ele>400.79400064</ele>
        <time>2020-05-21T14:21:47.000Z</time>
      </trkpt>
      <trkpt lat="47.16944" lon="4.9364">
        <ele>400.59400064</ele>
        <time>2020-05-21T14:21:49.000Z</time>
      </trkpt>
      <trkpt lat="47.16942" lon="4.93638">
        <ele>400.39400064</ele>
        <time>2020-05-21T14:21:51.000Z</time>
      </trkpt>
      <trkpt lat="47.1694" lon="4.93638">
        <ele>400.19400064</ele>
        <time>2020-05-21T14:21:53.000Z</time>
      </trkpt>
      <trkpt lat="47.16938" lon="4.93636">
        <ele>399.99415835871</ele>
        <time>2020-05-21T14:21:55.000Z</time>
      </trkpt>
      <trkpt lat="47.16935" lon="4.93634">
        <ele>399.79941620978</ele>
        <time>2020-05-21T14:21:57.000Z</time>
      </trkpt>
      <trkpt lat="47.16933" lon="4.93633">
        <ele>399.60467406084</ele>
        <time>2020-05-21T14:21:59.000Z</time>
      </trkpt>
      <trkpt lat="47.16931" lon="4.93632">
        <ele>399.40993191191</ele>
        <time>2020-05-21T14:22:01.000Z</time>
      </trkpt>
      <trkpt lat="47.16929" lon="4.93631">
        <ele>399.21518976298</ele>
        <time>2020-05-21T14:22:03.000Z</time>
      </trkpt>
      <trkpt lat="47.16926" lon="4.93629">
        <ele>399.02044761405</ele>
        <time>2020-05-21T14:22:05.000Z</time>
      </trkpt>
      <trkpt lat="47.16925" lon="4.93627">
        <ele>399</ele>
        <time>2020-05-21T14:22:07.000Z</time>
      </trkpt>
      <trkpt lat="47.16923" lon="4.93625">
        <ele>399</ele>
        <time>2020-05-21T14:22:09.000Z</time>
      </trkpt>
      <trkpt lat="47.16921" lon="4.93623">
        <ele>399</ele>
        <time>2020-05-21T14:22:11.000Z</time>
      </trkpt>
      <trkpt lat="47.16919" lon="4.93621">
        <ele>399</ele>
        <time>2020-05-21T14:22:13.000Z</time>
      </trkpt>
      <trkpt lat="47.16917" lon="4.93618">
        <ele>399.00599936</ele>
        <time>2020-05-21T14:22:15.000Z</time>
      </trkpt>
      <trkpt lat="47.16915" lon="4.93616">
        <ele>399.20599936</ele>
        <time>2020-05-21T14:22:17.000Z</time>
      </trkpt>
      <trkpt lat="47.16914" lon="4.93615">
        <ele>399.40599936</ele>
        <time>2020-05-21T14:22:19.000Z</time>
      </trkpt>
      <trkpt lat="47.16912" lon="4.93612">
        <ele>399.60599936</ele>
        <time>2020-05-21T14:22:21.000Z</time>
      </trkpt>
      <trkpt lat="47.1691" lon="4.9361">
        <ele>399.80599936</ele>
        <time>2020-05-21T14:22:23.000Z</time>
      </trkpt>
      <trkpt lat="47.16907" lon="4.93608">
        <ele>400</ele>
        <time>2020-05-21T14:22:25.000Z</time>
      </trkpt>
      <trkpt lat="47.16905" lon="4.93606">
        <ele>400</ele>
        <time>2020-05-21T14:22:27.000Z</time>
      </trkpt>
      <trkpt lat="47.16903" lon="4.93603">
        <ele>400</ele>
        <time>2020-05-21T14:22:29.000Z</time>
      </trkpt>
      <trkpt lat="47.16901" lon="4.936">
        <ele>400</ele>
        <time>2020-05-21T14:22:32.000Z</time>
      </trkpt>
      <trkpt lat="47.169" lon="4.93598">
        <ele>400</ele>
        <time>2020-05-21T14:22:34.000Z</time>
      </trkpt>
      <trkpt lat="47.16898" lon="4.93596">
        <ele>400</ele>
        <time>2020-05-21T14:22:36.000Z</time>
      </trkpt>
      <trkpt lat="47.16896" lon="4.93593">
        <ele>400</ele>
        <time>2020-05-21T14:22:38.000Z</time>
      </trkpt>
      <trkpt lat="47.16894" lon="4.93591">
        <ele>400</ele>
        <time>2020-05-21T14:22:40.000Z</time>
      </trkpt>
      <trkpt lat="47.16892" lon="4.93588">
        <ele>400</ele>
        <time>2020-05-21T14:22:42.000Z</time>
      </trkpt>
      <trkpt lat="47.16891" lon="4.93585">
        <ele>400</ele>
        <time>2020-05-21T14:22:44.000Z</time>
      </trkpt>
      <trkpt lat="47.16889" lon="4.93582">
        <ele>399.89400064</ele>
        <time>2020-05-21T14:22:46.000Z</time>
      </trkpt>
      <trkpt lat="47.16887" lon="4.9358">
        <ele>399.69400064</ele>
        <time>2020-05-21T14:22:48.000Z</time>
      </trkpt>
      <trkpt lat="47.16885" lon="4.93577">
        <ele>399.49400064</ele>
        <time>2020-05-21T14:22:50.000Z</time>
      </trkpt>
      <trkpt lat="47.16884" lon="4.93575">
        <ele>399.29400064</ele>
        <time>2020-05-21T14:22:52.000Z</time>
      </trkpt>
      <trkpt lat="47.16882" lon="4.93572">
        <ele>399.09400064</ele>
        <time>2020-05-21T14:22:54.000Z</time>
      </trkpt>
      <trkpt lat="47.1688" lon="4.93569">
        <ele>399</ele>
        <time>2020-05-21T14:22:56.000Z</time>
      </trkpt>
      <trkpt lat="47.16878" lon="4.93566">
        <ele>399</ele>
        <time>2020-05-21T14:22:58.000Z</time>
      </trkpt>
      <trkpt lat="47.16876" lon="4.93564">
        <ele>399</ele>
        <time>2020-05-21T14:23:00.000Z</time>
      </trkpt>
      <trkpt lat="47.16875" lon="4.93562">
        <ele>399</ele>
        <time>2020-05-21T14:23:02.000Z</time>
      </trkpt>
      <trkpt lat="47.16873" lon="4.93559">
        <ele>399</ele>
        <time>2020-05-21T14:23:04.000Z</time>
      </trkpt>
      <trkpt lat="47.16872" lon="4.93556">
        <ele>399</ele>
        <time>2020-05-21T14:23:06.000Z</time>
      </trkpt>
      <trkpt lat="47.1687" lon="4.93554">
        <ele>399</ele>
        <time>2020-05-21T14:23:08.000Z</time>
      </trkpt>
      <trkpt lat="47.16867" lon="4.93551">
        <ele>399</ele>
        <time>2020-05-21T14:23:10.000Z</time>
      </trkpt>
      <trkpt lat="47.16866" lon="4.93548">
        <ele>399</ele>
        <time>2020-05-21T14:23:12.000Z</time>
      </trkpt>
      <trkpt lat="47.16864" lon="4.93545">
        <ele>399</ele>
        <time>2020-05-21T14:23:14.000Z</time>
      </trkpt>
      <trkpt lat="47.16863" lon="4.93542">
        <ele>399</ele>
        <time>2020-05-21T14:23:16.000Z</time>
      </trkpt>
      <trkpt lat="47.16861" lon="4.93539">
        <ele>399</ele>
        <time>2020-05-21T14:23:18.000Z</time>
      </trkpt>
      <trkpt lat="47.16859" lon="4.93537">
        <ele>399</ele>
        <time>2020-05-21T14:23:19.000Z</time>
      </trkpt>
      <trkpt lat="47.16857" lon="4.93534">
        <ele>399</ele>
        <time>2020-05-21T14:23:21.000Z</time>
      </trkpt>
      <trkpt lat="47.16856" lon="4.93531">
        <ele>399</ele>
        <time>2020-05-21T14:23:24.000Z</time>
      </trkpt>
      <trkpt lat="47.16855" lon="4.93528">
        <ele>398.89400064</ele>
        <time>2020-05-21T14:23:26.000Z</time>
      </trkpt>
      <trkpt lat="47.16854" lon="4.93525">
        <ele>398.69400064</ele>
        <time>2020-05-21T14:23:28.000Z</time>
      </trkpt>
      <trkpt lat="47.16853" lon="4.93523">
        <ele>398.49400064</ele>
        <time>2020-05-21T14:23:30.000Z</time>
      </trkpt>
      <trkpt lat="47.16852" lon="4.9352">
        <ele>398.29400064</ele>
        <time>2020-05-21T14:23:32.000Z</time>
      </trkpt>
      <trkpt lat="47.16851" lon="4.93517">
        <ele>398.09400064</ele>
        <time>2020-05-21T14:23:34.000Z</time>
      </trkpt>
      <trkpt lat="47.1685" lon="4.93513">
        <ele>398</ele>
        <time>2020-05-21T14:23:36.000Z</time>
      </trkpt>
      <trkpt lat="47.1685" lon="4.9351">
        <ele>398</ele>
        <time>2020-05-21T14:23:38.000Z</time>
      </trkpt>
      <trkpt lat="47.16849" lon="4.93507">
        <ele>398</ele>
        <time>2020-05-21T14:23:40.000Z</time>
      </trkpt>
      <trkpt lat="47.16848" lon="4.93504">
        <ele>398</ele>
        <time>2020-05-21T14:23:42.000Z</time>
      </trkpt>
      <trkpt lat="47.16847" lon="4.93501">
        <ele>398</ele>
        <time>2020-05-21T14:23:44.000Z</time>
      </trkpt>
      <trkpt lat="47.16846" lon="4.93498">
        <ele>398</ele>
        <time>2020-05-21T14:23:46.000Z</time>
      </trkpt>
      <trkpt lat="47.16845" lon="4.93495">
        <ele>398</ele>
        <time>2020-05-21T14:23:48.000Z</time>
      </trkpt>
      <trkpt lat="47.16843" lon="4.93492">
        <ele>398</ele>
        <time>2020-05-21T14:23:50.000Z</time>
      </trkpt>
      <trkpt lat="47.16842" lon="4.93489">
        <ele>398</ele>
        <time>2020-05-21T14:23:52.000Z</time>
      </trkpt>
      <trkpt lat="47.16841" lon="4.93486">
        <ele>398</ele>
        <time>2020-05-21T14:23:54.000Z</time>
      </trkpt>
      <trkpt lat="47.1684" lon="4.93483">
        <ele>398</ele>
        <time>2020-05-21T14:23:56.000Z</time>
      </trkpt>
      <trkpt lat="47.16839" lon="4.9348">
        <ele>398</ele>
        <time>2020-05-21T14:23:58.000Z</time>
      </trkpt>
      <trkpt lat="47.16838" lon="4.93476">
        <ele>398</ele>
        <time>2020-05-21T14:24:00.000Z</time>
      </trkpt>
      <trkpt lat="47.16837" lon="4.93473">
        <ele>398</ele>
        <time>2020-05-21T14:24:02.000Z</time>
      </trkpt>
      <trkpt lat="47.16836" lon="4.93469">
        <ele>398</ele>
        <time>2020-05-21T14:24:04.000Z</time>
      </trkpt>
      <trkpt lat="47.16835" lon="4.93465">
        <ele>398</ele>
        <time>2020-05-21T14:24:06.000Z</time>
      </trkpt>
      <trkpt lat="47.16834" lon="4.93461">
        <ele>398</ele>
        <time>2020-05-21T14:24:08.000Z</time>
      </trkpt>
      <trkpt lat="47.16833" lon="4.93458">
        <ele>398</ele>
        <time>2020-05-21T14:24:10.000Z</time>
      </trkpt>
      <trkpt lat="47.16832" lon="4.93455">
        <ele>398</ele>
        <time>2020-05-21T14:24:12.000Z</time>
      </trkpt>
      <trkpt lat="47.16832" lon="4.93451">
        <ele>398</ele>
        <time>2020-05-21T14:24:14.000Z</time>
      </trkpt>
      <trkpt lat="47.16831" lon="4.93448">
        <ele>397.89400064</ele>
        <time>2020-05-21T14:24:16.000Z</time>
      </trkpt>
      <trkpt lat="47.1683" lon="4.93444">
        <ele>397.69400064</ele>
        <time>2020-05-21T14:24:18.000Z</time>
      </trkpt>
      <trkpt lat="47.1683" lon="4.9344">
        <ele>397.49400064</ele>
        <time>2020-05-21T14:24:20.000Z</time>
      </trkpt>
      <trkpt lat="47.16829" lon="4.93437">
        <ele>397.29400064</ele>
        <time>2020-05-21T14:24:22.000Z</time>
      </trkpt>
      <trkpt lat="47.16829" lon="4.93435">
        <ele>397.09400064</ele>
        <time>2020-05-21T14:24:24.000Z</time>
      </trkpt>
      <trkpt lat="47.16829" lon="4.93432">
        <ele>397</ele>
        <time>2020-05-21T14:24:26.000Z</time>
      </trkpt>
      <trkpt lat="47.16829" lon="4.93428">
        <ele>397</ele>
        <time>2020-05-21T14:24:28.000Z</time>
      </trkpt>
      <trkpt lat="47.16828" lon="4.93425">
        <ele>397</ele>
        <time>2020-05-21T14:24:30.000Z</time>
      </trkpt>
      <trkpt lat="47.16828" lon="4.93421">
        <ele>397</ele>
        <time>2020-05-21T14:24:32.000Z</time>
      </trkpt>
      <trkpt lat="47.16827" lon="4.93418">
        <ele>397</ele>
        <time>2020-05-21T14:24:34.000Z</time>
      </trkpt>
      <trkpt lat="47.16827" lon="4.93415">
        <ele>397</ele>
        <time>2020-05-21T14:24:36.000Z</time>
      </trkpt>
      <trkpt lat="47.16826" lon="4.93411">
        <ele>397</ele>
        <time>2020-05-21T14:24:38.000Z</time>
      </trkpt>
      <trkpt lat="47.16827" lon="4.93408">
        <ele>397</ele>
        <time>2020-05-21T14:24:40.000Z</time>
      </trkpt>
      <trkpt lat="47.16826" lon="4.93404">
        <ele>397</ele>
        <time>2020-05-21T14:24:42.000Z</time>
      </trkpt>
      <trkpt lat="47.16826" lon="4.934">
        <ele>397</ele>
        <time>2020-05-21T14:24:44.000Z</time>
      </trkpt>
      <trkpt lat="47.16826" lon="4.93396">
        <ele>397</ele>
        <time>2020-05-21T14:24:46.000Z</time>
      </trkpt>
      <trkpt lat="47.16825" lon="4.93393">
        <ele>397</ele>
        <time>2020-05-21T14:24:48.000Z</time>
      </trkpt>
      <trkpt lat="47.16826" lon="4.93389">
        <ele>397</ele>
        <time>2020-05-21T14:24:50.000Z</time>
      </trkpt>
      <trkpt lat="47.16826" lon="4.93385">
        <ele>397</ele>
        <time>2020-05-21T14:24:52.000Z</time>
      </trkpt>
      <trkpt lat="47.16825" lon="4.93382">
        <ele>397</ele>
        <time>2020-05-21T14:24:54.000Z</time>
      </trkpt>
      <trkpt lat="47.16825" lon="4.93378">
        <ele>396.89400064</ele>
        <time>2020-05-21T14:24:56.000Z</time>
      </trkpt>
      <trkpt lat="47.16825" lon="4.93375">
        <ele>396.69400064</ele>
        <time>2020-05-21T14:24:58.000Z</time>
      </trkpt>
      <trkpt lat="47.16825" lon="4.93371">
        <ele>396.49400064</ele>
        <time>2020-05-21T14:25:00.000Z</time>
      </trkpt>
      <trkpt lat="47.16824" lon="4.93368">
        <ele>396.29400064</ele>
        <time>2020-05-21T14:25:02.000Z</time>
      </trkpt>
      <trkpt lat="47.16824" lon="4.93365">
        <ele>396.09400064</ele>
        <time>2020-05-21T14:25:04.000Z</time>
      </trkpt>
      <trkpt lat="47.16824" lon="4.93362">
        <ele>396</ele>
        <time>2020-05-21T14:25:06.000Z</time>
      </trkpt>
      <trkpt lat="47.16824" lon="4.93358">
        <ele>396</ele>
        <time>2020-05-21T14:25:09.000Z</time>
      </trkpt>
      <trkpt lat="47.16825" lon="4.93356">
        <ele>396</ele>
        <time>2020-05-21T14:25:12.000Z</time>
      </trkpt>
      <trkpt lat="47.16826" lon="4.93353">
        <ele>396</ele>
        <time>2020-05-21T14:25:14.000Z</time>
      </trkpt>
      <trkpt lat="47.16827" lon="4.9335">
        <ele>395.91880756212</ele>
        <time>2020-05-21T14:25:16.000Z</time>
      </trkpt>
      <trkpt lat="47.16827" lon="4.93347">
        <ele>395.71325791909</ele>
        <time>2020-05-21T14:25:18.000Z</time>
      </trkpt>
      <trkpt lat="47.16826" lon="4.93343">
        <ele>395.50770827605</ele>
        <time>2020-05-21T14:25:20.000Z</time>
      </trkpt>
      <trkpt lat="47.16826" lon="4.93339">
        <ele>395.30215863302</ele>
        <time>2020-05-21T14:25:22.000Z</time>
      </trkpt>
      <trkpt lat="47.16825" lon="4.93335">
        <ele>395.09660898998</ele>
        <time>2020-05-21T14:25:24.000Z</time>
      </trkpt>
      <trkpt lat="47.16825" lon="4.93331">
        <ele>395</ele>
        <time>2020-05-21T14:25:26.000Z</time>
      </trkpt>
      <trkpt lat="47.16824" lon="4.93327">
        <ele>395</ele>
        <time>2020-05-21T14:25:28.000Z</time>
      </trkpt>
      <trkpt lat="47.16824" lon="4.93323">
        <ele>395</ele>
        <time>2020-05-21T14:25:30.000Z</time>
      </trkpt>
      <trkpt lat="47.16823" lon="4.9332">
        <ele>395</ele>
        <time>2020-05-21T14:25:32.000Z</time>
      </trkpt>
      <trkpt lat="47.16823" lon="4.93317">
        <ele>395</ele>
        <time>2020-05-21T14:25:34.000Z</time>
      </trkpt>
      <trkpt lat="47.16823" lon="4.93314">
        <ele>395</ele>
        <time>2020-05-21T14:25:36.000Z</time>
      </trkpt>
      <trkpt lat="47.16823" lon="4.9331">
        <ele>395</ele>
        <time>2020-05-21T14:25:38.000Z</time>
      </trkpt>
      <trkpt lat="47.16822" lon="4.93306">
        <ele>395</ele>
        <time>2020-05-21T14:25:40.000Z</time>
      </trkpt>
      <trkpt lat="47.16822" lon="4.93302">
        <ele>395</ele>
        <time>2020-05-21T14:25:42.000Z</time>
      </trkpt>
      <trkpt lat="47.16821" lon="4.93299">
        <ele>395</ele>
        <time>2020-05-21T14:25:44.000Z</time>
      </trkpt>
      <trkpt lat="47.16821" lon="4.93295">
        <ele>395</ele>
        <time>2020-05-21T14:25:46.000Z</time>
      </trkpt>
      <trkpt lat="47.16821" lon="4.93292">
        <ele>395</ele>
        <time>2020-05-21T14:25:48.000Z</time>
      </trkpt>
      <trkpt lat="47.1682" lon="4.93288">
        <ele>395</ele>
        <time>2020-05-21T14:25:50.000Z</time>
      </trkpt>
      <trkpt lat="47.1682" lon="4.93285">
        <ele>395</ele>
        <time>2020-05-21T14:25:52.000Z</time>
      </trkpt>
      <trkpt lat="47.16819" lon="4.93281">
        <ele>395</ele>
        <time>2020-05-21T14:25:54.000Z</time>
      </trkpt>
      <trkpt lat="47.16818" lon="4.93277">
        <ele>394.89400064</ele>
        <time>2020-05-21T14:25:56.000Z</time>
      </trkpt>
      <trkpt lat="47.16818" lon="4.93273">
        <ele>394.69400064</ele>
        <time>2020-05-21T14:25:58.000Z</time>
      </trkpt>
      <trkpt lat="47.16817" lon="4.9327">
        <ele>394.49400064</ele>
        <time>2020-05-21T14:26:00.000Z</time>
      </trkpt>
      <trkpt lat="47.16816" lon="4.93267">
        <ele>394.29400064</ele>
        <time>2020-05-21T14:26:02.000Z</time>
      </trkpt>
      <trkpt lat="47.16815" lon="4.93264">
        <ele>394.09400064</ele>
        <time>2020-05-21T14:26:04.000Z</time>
      </trkpt>
      <trkpt lat="47.16815" lon="4.93261">
        <ele>394</ele>
        <time>2020-05-21T14:26:06.000Z</time>
      </trkpt>
      <trkpt lat="47.16814" lon="4.93258">
        <ele>394</ele>
        <time>2020-05-21T14:26:08.000Z</time>
      </trkpt>
      <trkpt lat="47.16813" lon="4.93255">
        <ele>394</ele>
        <time>2020-05-21T14:26:10.000Z</time>
      </trkpt>
      <trkpt lat="47.16812" lon="4.93251">
        <ele>394</ele>
        <time>2020-05-21T14:26:12.000Z</time>
      </trkpt>
      <trkpt lat="47.16811" lon="4.93248">
        <ele>394</ele>
        <time>2020-05-21T14:26:14.000Z</time>
      </trkpt>
      <trkpt lat="47.1681" lon="4.93244">
        <ele>393.89400064</ele>
        <time>2020-05-21T14:26:16.000Z</time>
      </trkpt>
      <trkpt lat="47.16809" lon="4.93241">
        <ele>393.69400064</ele>
        <time>2020-05-21T14:26:18.000Z</time>
      </trkpt>
      <trkpt lat="47.16808" lon="4.93237">
        <ele>393.49400064</ele>
        <time>2020-05-21T14:26:20.000Z</time>
      </trkpt>
      <trkpt lat="47.16807" lon="4.93234">
        <ele>393.29400064</ele>
        <time>2020-05-21T14:26:22.000Z</time>
      </trkpt>
      <trkpt lat="47.16807" lon="4.93233">
        <ele>393.19400064</ele>
        <time>2020-05-21T14:26:23.000Z</time>
      </trkpt>
      <trkpt lat="47.16806" lon="4.93229">
        <ele>392.98800128</ele>
        <time>2020-05-21T14:26:25.000Z</time>
      </trkpt>
      <trkpt lat="47.16805" lon="4.93224">
        <ele>392.58800128</ele>
        <time>2020-05-21T14:26:27.000Z</time>
      </trkpt>
      <trkpt lat="47.16806" lon="4.9322">
        <ele>392.18800128</ele>
        <time>2020-05-21T14:26:29.000Z</time>
      </trkpt>
      <trkpt lat="47.16805" lon="4.93217">
        <ele>391.78800128</ele>
        <time>2020-05-21T14:26:31.000Z</time>
      </trkpt>
      <trkpt lat="47.16805" lon="4.93214">
        <ele>391.38800128</ele>
        <time>2020-05-21T14:26:33.000Z</time>
      </trkpt>
      <trkpt lat="47.16805" lon="4.9321">
        <ele>391</ele>
        <time>2020-05-21T14:26:35.000Z</time>
      </trkpt>
      <trkpt lat="47.16806" lon="4.93206">
        <ele>391</ele>
        <time>2020-05-21T14:26:37.000Z</time>
      </trkpt>
      <trkpt lat="47.16805" lon="4.93202">
        <ele>391</ele>
        <time>2020-05-21T14:26:39.000Z</time>
      </trkpt>
      <trkpt lat="47.16804" lon="4.93199">
        <ele>391</ele>
        <time>2020-05-21T14:26:41.000Z</time>
      </trkpt>
      <trkpt lat="47.16804" lon="4.93196">
        <ele>391</ele>
        <time>2020-05-21T14:26:43.000Z</time>
      </trkpt>
      <trkpt lat="47.16804" lon="4.93192">
        <ele>391</ele>
        <time>2020-05-21T14:26:45.000Z</time>
      </trkpt>
      <trkpt lat="47.16804" lon="4.93188">
        <ele>391</ele>
        <time>2020-05-21T14:26:47.000Z</time>
      </trkpt>
      <trkpt lat="47.16804" lon="4.93185">
        <ele>391</ele>
        <time>2020-05-21T14:26:49.000Z</time>
      </trkpt>
      <trkpt lat="47.16805" lon="4.93181">
        <ele>391</ele>
        <time>2020-05-21T14:26:51.000Z</time>
      </trkpt>
      <trkpt lat="47.16805" lon="4.93178">
        <ele>391</ele>
        <time>2020-05-21T14:26:53.000Z</time>
      </trkpt>
      <trkpt lat="47.16805" lon="4.93174">
        <ele>390.98800128</ele>
        <time>2020-05-21T14:26:55.000Z</time>
      </trkpt>
      <trkpt lat="47.16806" lon="4.93171">
        <ele>390.58800128</ele>
        <time>2020-05-21T14:26:57.000Z</time>
      </trkpt>
      <trkpt lat="47.16807" lon="4.93167">
        <ele>390.18800128</ele>
        <time>2020-05-21T14:26:59.000Z</time>
      </trkpt>
      <trkpt lat="47.16808" lon="4.93164">
        <ele>389.78800128</ele>
        <time>2020-05-21T14:27:01.000Z</time>
      </trkpt>
      <trkpt lat="47.16809" lon="4.9316">
        <ele>389.38800128</ele>
        <time>2020-05-21T14:27:03.000Z</time>
      </trkpt>
      <trkpt lat="47.1681" lon="4.93157">
        <ele>389</ele>
        <time>2020-05-21T14:27:05.000Z</time>
      </trkpt>
      <trkpt lat="47.16811" lon="4.93154">
        <ele>389</ele>
        <time>2020-05-21T14:27:07.000Z</time>
      </trkpt>
      <trkpt lat="47.16812" lon="4.93151">
        <ele>389</ele>
        <time>2020-05-21T14:27:09.000Z</time>
      </trkpt>
      <trkpt lat="47.16812" lon="4.93147">
        <ele>389</ele>
        <time>2020-05-21T14:27:11.000Z</time>
      </trkpt>
      <trkpt lat="47.16811" lon="4.93144">
        <ele>389</ele>
        <time>2020-05-21T14:27:13.000Z</time>
      </trkpt>
      <trkpt lat="47.16812" lon="4.93141">
        <ele>388.99400064</ele>
        <time>2020-05-21T14:27:15.000Z</time>
      </trkpt>
      <trkpt lat="47.16813" lon="4.93138">
        <ele>388.79400064</ele>
        <time>2020-05-21T14:27:17.000Z</time>
      </trkpt>
      <trkpt lat="47.16813" lon="4.93135">
        <ele>388.59400064</ele>
        <time>2020-05-21T14:27:19.000Z</time>
      </trkpt>
      <trkpt lat="47.16812" lon="4.93132">
        <ele>388.39400064</ele>
        <time>2020-05-21T14:27:21.000Z</time>
      </trkpt>
      <trkpt lat="47.16812" lon="4.93128">
        <ele>388.19400064</ele>
        <time>2020-05-21T14:27:23.000Z</time>
      </trkpt>
      <trkpt lat="47.16812" lon="4.93125">
        <ele>387.89400064</ele>
        <time>2020-05-21T14:27:26.000Z</time>
      </trkpt>
      <trkpt lat="47.16811" lon="4.93122">
        <ele>387.69400064</ele>
        <time>2020-05-21T14:27:28.000Z</time>
      </trkpt>
      <trkpt lat="47.16812" lon="4.93118">
        <ele>387.39400064</ele>
        <time>2020-05-21T14:27:31.000Z</time>
      </trkpt>
      <trkpt lat="47.1681" lon="4.93117">
        <ele>387.19400064</ele>
        <time>2020-05-21T14:27:33.000Z</time>
      </trkpt>
      <trkpt lat="47.16808" lon="4.93116">
        <ele>387</ele>
        <time>2020-05-21T14:27:37.000Z</time>
      </trkpt>
      <trkpt lat="47.1681" lon="4.93115">
        <ele>387</ele>
        <time>2020-05-21T14:28:09.000Z</time>
      </trkpt>
      <trkpt lat="47.16811" lon="4.93112">
        <ele>387</ele>
        <time>2020-05-21T14:28:18.000Z</time>
      </trkpt>
      <trkpt lat="47.16813" lon="4.93111">
        <ele>387</ele>
        <time>2020-05-21T14:28:45.000Z</time>
      </trkpt>
      <trkpt lat="47.16812" lon="4.93108">
        <ele>387</ele>
        <time>2020-05-21T14:30:30.000Z</time>
      </trkpt>
      <trkpt lat="47.16811" lon="4.93105">
        <ele>387</ele>
        <time>2020-05-21T14:30:33.000Z</time>
      </trkpt>
      <trkpt lat="47.16811" lon="4.93103">
        <ele>387</ele>
        <time>2020-05-21T14:30:35.000Z</time>
      </trkpt>
      <trkpt lat="47.1681" lon="4.931">
        <ele>386.81771408685</ele>
        <time>2020-05-21T14:30:37.000Z</time>
      </trkpt>
      <trkpt lat="47.16809" lon="4.93097">
        <ele>386.50875435345</ele>
        <time>2020-05-21T14:30:40.000Z</time>
      </trkpt>
      <trkpt lat="47.16807" lon="4.93094">
        <ele>386.19979462005</ele>
        <time>2020-05-21T14:30:43.000Z</time>
      </trkpt>
      <trkpt lat="47.16806" lon="4.9309">
        <ele>385.78800128</ele>
        <time>2020-05-21T14:30:46.000Z</time>
      </trkpt>
      <trkpt lat="47.16806" lon="4.93086">
        <ele>385.38800128</ele>
        <time>2020-05-21T14:30:48.000Z</time>
      </trkpt>
      <trkpt lat="47.16806" lon="4.93083">
        <ele>384.98800128</ele>
        <time>2020-05-21T14:30:50.000Z</time>
      </trkpt>
      <trkpt lat="47.16805" lon="4.9308">
        <ele>384.58800128</ele>
        <time>2020-05-21T14:30:52.000Z</time>
      </trkpt>
      <trkpt lat="47.16805" lon="4.93078">
        <ele>384.38800128</ele>
        <time>2020-05-21T14:30:53.000Z</time>
      </trkpt>
      <trkpt lat="47.16804" lon="4.93074">
        <ele>383.98800128</ele>
        <time>2020-05-21T14:30:55.000Z</time>
      </trkpt>
      <trkpt lat="47.16803" lon="4.9307">
        <ele>383.58800128</ele>
        <time>2020-05-21T14:30:57.000Z</time>
      </trkpt>
      <trkpt lat="47.16802" lon="4.93067">
        <ele>383.18800128</ele>
        <time>2020-05-21T14:30:59.000Z</time>
      </trkpt>
      <trkpt lat="47.16802" lon="4.93064">
        <ele>382.78800128</ele>
        <time>2020-05-21T14:31:01.000Z</time>
      </trkpt>
      <trkpt lat="47.16801" lon="4.93061">
        <ele>382.38800128</ele>
        <time>2020-05-21T14:31:03.000Z</time>
      </trkpt>
      <trkpt lat="47.16801" lon="4.93059">
        <ele>382</ele>
        <time>2020-05-21T14:31:05.000Z</time>
      </trkpt>
      <trkpt lat="47.168" lon="4.93055">
        <ele>382</ele>
        <time>2020-05-21T14:31:07.000Z</time>
      </trkpt>
      <trkpt lat="47.16799" lon="4.93052">
        <ele>382</ele>
        <time>2020-05-21T14:31:09.000Z</time>
      </trkpt>
      <trkpt lat="47.16799" lon="4.93049">
        <ele>382</ele>
        <time>2020-05-21T14:31:11.000Z</time>
      </trkpt>
      <trkpt lat="47.16798" lon="4.93046">
        <ele>382</ele>
        <time>2020-05-21T14:31:13.000Z</time>
      </trkpt>
      <trkpt lat="47.16797" lon="4.93043">
        <ele>381.99400064</ele>
        <time>2020-05-21T14:31:15.000Z</time>
      </trkpt>
      <trkpt lat="47.16797" lon="4.9304">
        <ele>381.79400064</ele>
        <time>2020-05-21T14:31:17.000Z</time>
      </trkpt>
      <trkpt lat="47.16796" lon="4.93037">
        <ele>381.59400064</ele>
        <time>2020-05-21T14:31:19.000Z</time>
      </trkpt>
      <trkpt lat="47.16796" lon="4.93034">
        <ele>381.39400064</ele>
        <time>2020-05-21T14:31:21.000Z</time>
      </trkpt>
      <trkpt lat="47.16795" lon="4.9303">
        <ele>381.19400064</ele>
        <time>2020-05-21T14:31:23.000Z</time>
      </trkpt>
      <trkpt lat="47.16794" lon="4.93027">
        <ele>380.99416971636</ele>
        <time>2020-05-21T14:31:25.000Z</time>
      </trkpt>
      <trkpt lat="47.16794" lon="4.93024">
        <ele>380.79980619625</ele>
        <time>2020-05-21T14:31:27.000Z</time>
      </trkpt>
      <trkpt lat="47.16793" lon="4.93021">
        <ele>380.60544267613</ele>
        <time>2020-05-21T14:31:29.000Z</time>
      </trkpt>
      <trkpt lat="47.16793" lon="4.93018">
        <ele>380.41107915602</ele>
        <time>2020-05-21T14:31:31.000Z</time>
      </trkpt>
      <trkpt lat="47.16792" lon="4.93015">
        <ele>380.21671563591</ele>
        <time>2020-05-21T14:31:33.000Z</time>
      </trkpt>
      <trkpt lat="47.16792" lon="4.93012">
        <ele>380.0223521158</ele>
        <time>2020-05-21T14:31:35.000Z</time>
      </trkpt>
      <trkpt lat="47.16792" lon="4.93008">
        <ele>379.81771408685</ele>
        <time>2020-05-21T14:31:37.000Z</time>
      </trkpt>
      <trkpt lat="47.16792" lon="4.93005">
        <ele>379.61174093125</ele>
        <time>2020-05-21T14:31:39.000Z</time>
      </trkpt>
      <trkpt lat="47.16791" lon="4.93002">
        <ele>379.40576777565</ele>
        <time>2020-05-21T14:31:41.000Z</time>
      </trkpt>
      <trkpt lat="47.16791" lon="4.92999">
        <ele>379.19979462005</ele>
        <time>2020-05-21T14:31:43.000Z</time>
      </trkpt>
      <trkpt lat="47.16791" lon="4.92996">
        <ele>378.99400064</ele>
        <time>2020-05-21T14:31:45.000Z</time>
      </trkpt>
      <trkpt lat="47.1679" lon="4.92993">
        <ele>378.79400064</ele>
        <time>2020-05-21T14:31:47.000Z</time>
      </trkpt>
      <trkpt lat="47.16789" lon="4.92991">
        <ele>378.59400064</ele>
        <time>2020-05-21T14:31:49.000Z</time>
      </trkpt>
      <trkpt lat="47.16789" lon="4.92988">
        <ele>378.39400064</ele>
        <time>2020-05-21T14:31:51.000Z</time>
      </trkpt>
      <trkpt lat="47.16788" lon="4.92985">
        <ele>378.19400064</ele>
        <time>2020-05-21T14:31:53.000Z</time>
      </trkpt>
      <trkpt lat="47.16787" lon="4.92982">
        <ele>377.79397591261</ele>
        <time>2020-05-21T14:31:56.000Z</time>
      </trkpt>
      <trkpt lat="47.16786" lon="4.92979">
        <ele>377.40524887238</ele>
        <time>2020-05-21T14:31:58.000Z</time>
      </trkpt>
      <trkpt lat="47.16785" lon="4.92976">
        <ele>377.01652183215</ele>
        <time>2020-05-21T14:32:00.000Z</time>
      </trkpt>
      <trkpt lat="47.16784" lon="4.92973">
        <ele>376.62779479193</ele>
        <time>2020-05-21T14:32:02.000Z</time>
      </trkpt>
      <trkpt lat="47.16783" lon="4.92971">
        <ele>376.43343127181</ele>
        <time>2020-05-21T14:32:03.000Z</time>
      </trkpt>
      <trkpt lat="47.16782" lon="4.92968">
        <ele>376.04470423159</ele>
        <time>2020-05-21T14:32:05.000Z</time>
      </trkpt>
      <trkpt lat="47.16781" lon="4.92964">
        <ele>376</ele>
        <time>2020-05-21T14:32:07.000Z</time>
      </trkpt>
      <trkpt lat="47.1678" lon="4.92961">
        <ele>376</ele>
        <time>2020-05-21T14:32:09.000Z</time>
      </trkpt>
      <trkpt lat="47.1678" lon="4.92957">
        <ele>376</ele>
        <time>2020-05-21T14:32:11.000Z</time>
      </trkpt>
      <trkpt lat="47.16779" lon="4.92954">
        <ele>376</ele>
        <time>2020-05-21T14:32:13.000Z</time>
      </trkpt>
      <trkpt lat="47.16779" lon="4.92951">
        <ele>376</ele>
        <time>2020-05-21T14:32:15.000Z</time>
      </trkpt>
      <trkpt lat="47.16779" lon="4.92947">
        <ele>376</ele>
        <time>2020-05-21T14:32:17.000Z</time>
      </trkpt>
      <trkpt lat="47.16778" lon="4.92944">
        <ele>376</ele>
        <time>2020-05-21T14:32:19.000Z</time>
      </trkpt>
      <trkpt lat="47.16778" lon="4.9294">
        <ele>376</ele>
        <time>2020-05-21T14:32:21.000Z</time>
      </trkpt>
      <trkpt lat="47.16778" lon="4.92936">
        <ele>376</ele>
        <time>2020-05-21T14:32:23.000Z</time>
      </trkpt>
      <trkpt lat="47.16777" lon="4.92933">
        <ele>375.99706713679</ele>
        <time>2020-05-21T14:32:25.000Z</time>
      </trkpt>
      <trkpt lat="47.16778" lon="4.92929">
        <ele>375.70381209656</ele>
        <time>2020-05-21T14:32:28.000Z</time>
      </trkpt>
      <trkpt lat="47.16778" lon="4.92926">
        <ele>375.5083087364</ele>
        <time>2020-05-21T14:32:30.000Z</time>
      </trkpt>
      <trkpt lat="47.16778" lon="4.92923">
        <ele>375.31280537625</ele>
        <time>2020-05-21T14:32:32.000Z</time>
      </trkpt>
      <trkpt lat="47.16779" lon="4.92919">
        <ele>375.11730201609</ele>
        <time>2020-05-21T14:32:34.000Z</time>
      </trkpt>
      <trkpt lat="47.16779" lon="4.92915">
        <ele>374.8151951933</ele>
        <time>2020-05-21T14:32:37.000Z</time>
      </trkpt>
      <trkpt lat="47.16779" lon="4.92912">
        <ele>374.60985651919</ele>
        <time>2020-05-21T14:32:39.000Z</time>
      </trkpt>
      <trkpt lat="47.16779" lon="4.92909">
        <ele>374.40451784508</ele>
        <time>2020-05-21T14:32:41.000Z</time>
      </trkpt>
      <trkpt lat="47.16779" lon="4.92905">
        <ele>374.19917917097</ele>
        <time>2020-05-21T14:32:43.000Z</time>
      </trkpt>
      <trkpt lat="47.16778" lon="4.92902">
        <ele>374</ele>
        <time>2020-05-21T14:32:45.000Z</time>
      </trkpt>
      <trkpt lat="47.16777" lon="4.92898">
        <ele>374</ele>
        <time>2020-05-21T14:32:47.000Z</time>
      </trkpt>
      <trkpt lat="47.16774" lon="4.92894">
        <ele>374</ele>
        <time>2020-05-21T14:32:49.000Z</time>
      </trkpt>
      <trkpt lat="47.16773" lon="4.92891">
        <ele>374</ele>
        <time>2020-05-21T14:32:51.000Z</time>
      </trkpt>
      <trkpt lat="47.16771" lon="4.92887">
        <ele>374</ele>
        <time>2020-05-21T14:32:53.000Z</time>
      </trkpt>
      <trkpt lat="47.1677" lon="4.92883">
        <ele>373.99400064</ele>
        <time>2020-05-21T14:32:55.000Z</time>
      </trkpt>
      <trkpt lat="47.16768" lon="4.92881">
        <ele>373.79400064</ele>
        <time>2020-05-21T14:32:57.000Z</time>
      </trkpt>
      <trkpt lat="47.16766" lon="4.92879">
        <ele>373.49400064</ele>
        <time>2020-05-21T14:33:00.000Z</time>
      </trkpt>
      <trkpt lat="47.16765" lon="4.92878">
        <ele>373.29400064</ele>
        <time>2020-05-21T14:33:02.000Z</time>
      </trkpt>
      <trkpt lat="47.16762" lon="4.92878">
        <ele>373</ele>
        <time>2020-05-21T14:33:05.000Z</time>
      </trkpt>
      <trkpt lat="47.1676" lon="4.92879">
        <ele>373</ele>
        <time>2020-05-21T14:33:15.000Z</time>
      </trkpt>
      <trkpt lat="47.16759" lon="4.9288">
        <ele>373</ele>
        <time>2020-05-21T14:33:22.000Z</time>
      </trkpt>
      <trkpt lat="47.16759" lon="4.92883">
        <ele>373</ele>
        <time>2020-05-21T14:33:29.000Z</time>
      </trkpt>
      <trkpt lat="47.1676" lon="4.92886">
        <ele>373</ele>
        <time>2020-05-21T14:33:31.000Z</time>
      </trkpt>
      <trkpt lat="47.16761" lon="4.92888">
        <ele>373</ele>
        <time>2020-05-21T14:33:33.000Z</time>
      </trkpt>
      <trkpt lat="47.16762" lon="4.92886">
        <ele>374</ele>
        <time>2020-05-21T14:33:52.000Z</time>
      </trkpt>
      <trkpt lat="47.16763" lon="4.92883">
        <ele>373.89400064</ele>
        <time>2020-05-21T14:33:56.000Z</time>
      </trkpt>
      <trkpt lat="47.16764" lon="4.92885">
        <ele>373</ele>
        <time>2020-05-21T14:34:13.000Z</time>
      </trkpt>
      <trkpt lat="47.16766" lon="4.92884">
        <ele>373.00583596057</ele>
        <time>2020-05-21T14:34:15.000Z</time>
      </trkpt>
      <trkpt lat="47.16767" lon="4.92881">
        <ele>373.200388732</ele>
        <time>2020-05-21T14:34:17.000Z</time>
      </trkpt>
      <trkpt lat="47.16767" lon="4.92878">
        <ele>373.39494150343</ele>
        <time>2020-05-21T14:34:19.000Z</time>
      </trkpt>
      <trkpt lat="47.16767" lon="4.92875">
        <ele>373.58949427486</ele>
        <time>2020-05-21T14:34:21.000Z</time>
      </trkpt>
      <trkpt lat="47.16769" lon="4.92872">
        <ele>373.78404704628</ele>
        <time>2020-05-21T14:34:23.000Z</time>
      </trkpt>
      <trkpt lat="47.1677" lon="4.92869">
        <ele>373.97859981771</ele>
        <time>2020-05-21T14:34:25.000Z</time>
      </trkpt>
      <trkpt lat="47.16771" lon="4.92866">
        <ele>374.1831279893</ele>
        <time>2020-05-21T14:34:27.000Z</time>
      </trkpt>
      <trkpt lat="47.16772" lon="4.92863">
        <ele>374.38888903521</ele>
        <time>2020-05-21T14:34:29.000Z</time>
      </trkpt>
      <trkpt lat="47.16774" lon="4.9286">
        <ele>374.59465008112</ele>
        <time>2020-05-21T14:34:31.000Z</time>
      </trkpt>
      <trkpt lat="47.16775" lon="4.92857">
        <ele>374.80041112703</ele>
        <time>2020-05-21T14:34:33.000Z</time>
      </trkpt>
      <trkpt lat="47.16776" lon="4.92854">
        <ele>375.00583596057</ele>
        <time>2020-05-21T14:34:35.000Z</time>
      </trkpt>
      <trkpt lat="47.16777" lon="4.92851">
        <ele>375.200388732</ele>
        <time>2020-05-21T14:34:37.000Z</time>
      </trkpt>
      <trkpt lat="47.16779" lon="4.92848">
        <ele>375.39494150343</ele>
        <time>2020-05-21T14:34:39.000Z</time>
      </trkpt>
      <trkpt lat="47.1678" lon="4.92845">
        <ele>375.58949427486</ele>
        <time>2020-05-21T14:34:41.000Z</time>
      </trkpt>
      <trkpt lat="47.16781" lon="4.92842">
        <ele>375.78404704628</ele>
        <time>2020-05-21T14:34:43.000Z</time>
      </trkpt>
      <trkpt lat="47.16781" lon="4.92839">
        <ele>375.97859981771</ele>
        <time>2020-05-21T14:34:45.000Z</time>
      </trkpt>
      <trkpt lat="47.16782" lon="4.92837">
        <ele>376.1831279893</ele>
        <time>2020-05-21T14:34:47.000Z</time>
      </trkpt>
      <trkpt lat="47.16784" lon="4.92834">
        <ele>376.38888903521</ele>
        <time>2020-05-21T14:34:49.000Z</time>
      </trkpt>
      <trkpt lat="47.16785" lon="4.92831">
        <ele>376.59465008112</ele>
        <time>2020-05-21T14:34:51.000Z</time>
      </trkpt>
      <trkpt lat="47.16787" lon="4.92828">
        <ele>376.80041112703</ele>
        <time>2020-05-21T14:34:53.000Z</time>
      </trkpt>
      <trkpt lat="47.16788" lon="4.92826">
        <ele>377.00599936</ele>
        <time>2020-05-21T14:34:55.000Z</time>
      </trkpt>
      <trkpt lat="47.16789" lon="4.92823">
        <ele>377.20599936</ele>
        <time>2020-05-21T14:34:57.000Z</time>
      </trkpt>
      <trkpt lat="47.16791" lon="4.9282">
        <ele>377.40599936</ele>
        <time>2020-05-21T14:34:59.000Z</time>
      </trkpt>
      <trkpt lat="47.16792" lon="4.92816">
        <ele>377.60599936</ele>
        <time>2020-05-21T14:35:01.000Z</time>
      </trkpt>
      <trkpt lat="47.16793" lon="4.92814">
        <ele>377.80599936</ele>
        <time>2020-05-21T14:35:03.000Z</time>
      </trkpt>
      <trkpt lat="47.16794" lon="4.92811">
        <ele>378</ele>
        <time>2020-05-21T14:35:05.000Z</time>
      </trkpt>
      <trkpt lat="47.16794" lon="4.92808">
        <ele>378</ele>
        <time>2020-05-21T14:35:07.000Z</time>
      </trkpt>
      <trkpt lat="47.16796" lon="4.92806">
        <ele>378</ele>
        <time>2020-05-21T14:35:09.000Z</time>
      </trkpt>
      <trkpt lat="47.16796" lon="4.92802">
        <ele>378</ele>
        <time>2020-05-21T14:35:11.000Z</time>
      </trkpt>
      <trkpt lat="47.16797" lon="4.92799">
        <ele>378</ele>
        <time>2020-05-21T14:35:13.000Z</time>
      </trkpt>
      <trkpt lat="47.16798" lon="4.92796">
        <ele>378.00599936</ele>
        <time>2020-05-21T14:35:15.000Z</time>
      </trkpt>
      <trkpt lat="47.16799" lon="4.92793">
        <ele>378.20599936</ele>
        <time>2020-05-21T14:35:17.000Z</time>
      </trkpt>
      <trkpt lat="47.168" lon="4.9279">
        <ele>378.40599936</ele>
        <time>2020-05-21T14:35:19.000Z</time>
      </trkpt>
      <trkpt lat="47.16801" lon="4.92787">
        <ele>378.60599936</ele>
        <time>2020-05-21T14:35:21.000Z</time>
      </trkpt>
      <trkpt lat="47.16802" lon="4.92784">
        <ele>378.80599936</ele>
        <time>2020-05-21T14:35:23.000Z</time>
      </trkpt>
      <trkpt lat="47.16803" lon="4.92781">
        <ele>379.00599936</ele>
        <time>2020-05-21T14:35:25.000Z</time>
      </trkpt>
      <trkpt lat="47.16805" lon="4.92779">
        <ele>379.20599936</ele>
        <time>2020-05-21T14:35:27.000Z</time>
      </trkpt>
      <trkpt lat="47.16805" lon="4.92776">
        <ele>379.40599936</ele>
        <time>2020-05-21T14:35:29.000Z</time>
      </trkpt>
      <trkpt lat="47.16806" lon="4.92773">
        <ele>379.60599936</ele>
        <time>2020-05-21T14:35:31.000Z</time>
      </trkpt>
      <trkpt lat="47.16806" lon="4.9277">
        <ele>379.80599936</ele>
        <time>2020-05-21T14:35:33.000Z</time>
      </trkpt>
      <trkpt lat="47.16807" lon="4.92767">
        <ele>380</ele>
        <time>2020-05-21T14:35:35.000Z</time>
      </trkpt>
      <trkpt lat="47.16807" lon="4.92764">
        <ele>380</ele>
        <time>2020-05-21T14:35:37.000Z</time>
      </trkpt>
      <trkpt lat="47.16808" lon="4.9276">
        <ele>380</ele>
        <time>2020-05-21T14:35:39.000Z</time>
      </trkpt>
      <trkpt lat="47.16809" lon="4.92757">
        <ele>380</ele>
        <time>2020-05-21T14:35:41.000Z</time>
      </trkpt>
      <trkpt lat="47.16809" lon="4.92754">
        <ele>380</ele>
        <time>2020-05-21T14:35:43.000Z</time>
      </trkpt>
      <trkpt lat="47.1681" lon="4.92751">
        <ele>380.01199872</ele>
        <time>2020-05-21T14:35:45.000Z</time>
      </trkpt>
      <trkpt lat="47.1681" lon="4.92747">
        <ele>380.41199872</ele>
        <time>2020-05-21T14:35:47.000Z</time>
      </trkpt>
      <trkpt lat="47.1681" lon="4.92744">
        <ele>380.81199872</ele>
        <time>2020-05-21T14:35:49.000Z</time>
      </trkpt>
      <trkpt lat="47.16811" lon="4.92741">
        <ele>381.21199872</ele>
        <time>2020-05-21T14:35:51.000Z</time>
      </trkpt>
      <trkpt lat="47.16812" lon="4.92738">
        <ele>381.61199872</ele>
        <time>2020-05-21T14:35:53.000Z</time>
      </trkpt>
      <trkpt lat="47.16813" lon="4.92735">
        <ele>382.10599936</ele>
        <time>2020-05-21T14:35:56.000Z</time>
      </trkpt>
      <trkpt lat="47.16814" lon="4.92732">
        <ele>382.30599936</ele>
        <time>2020-05-21T14:35:58.000Z</time>
      </trkpt>
      <trkpt lat="47.16815" lon="4.92728">
        <ele>382.50599936</ele>
        <time>2020-05-21T14:36:00.000Z</time>
      </trkpt>
      <trkpt lat="47.16815" lon="4.92724">
        <ele>382.70599936</ele>
        <time>2020-05-21T14:36:02.000Z</time>
      </trkpt>
      <trkpt lat="47.16816" lon="4.92721">
        <ele>382.90599936</ele>
        <time>2020-05-21T14:36:04.000Z</time>
      </trkpt>
      <trkpt lat="47.16817" lon="4.92718">
        <ele>383.10599936</ele>
        <time>2020-05-21T14:36:06.000Z</time>
      </trkpt>
      <trkpt lat="47.16817" lon="4.92715">
        <ele>383.30599936</ele>
        <time>2020-05-21T14:36:08.000Z</time>
      </trkpt>
      <trkpt lat="47.16818" lon="4.92711">
        <ele>383.50599936</ele>
        <time>2020-05-21T14:36:10.000Z</time>
      </trkpt>
      <trkpt lat="47.16818" lon="4.92707">
        <ele>383.70599936</ele>
        <time>2020-05-21T14:36:12.000Z</time>
      </trkpt>
      <trkpt lat="47.16819" lon="4.92704">
        <ele>383.90599936</ele>
        <time>2020-05-21T14:36:14.000Z</time>
      </trkpt>
      <trkpt lat="47.16819" lon="4.92701">
        <ele>384.10599936</ele>
        <time>2020-05-21T14:36:16.000Z</time>
      </trkpt>
      <trkpt lat="47.16819" lon="4.92698">
        <ele>384.30599936</ele>
        <time>2020-05-21T14:36:18.000Z</time>
      </trkpt>
      <trkpt lat="47.1682" lon="4.92694">
        <ele>384.50599936</ele>
        <time>2020-05-21T14:36:20.000Z</time>
      </trkpt>
      <trkpt lat="47.16821" lon="4.92691">
        <ele>384.70599936</ele>
        <time>2020-05-21T14:36:22.000Z</time>
      </trkpt>
      <trkpt lat="47.16821" lon="4.92689">
        <ele>384.80599936</ele>
        <time>2020-05-21T14:36:23.000Z</time>
      </trkpt>
      <trkpt lat="47.16822" lon="4.92686">
        <ele>385.00584164129</ele>
        <time>2020-05-21T14:36:25.000Z</time>
      </trkpt>
      <trkpt lat="47.16823" lon="4.92682">
        <ele>385.20058379022</ele>
        <time>2020-05-21T14:36:27.000Z</time>
      </trkpt>
      <trkpt lat="47.16823" lon="4.92678">
        <ele>385.39532593916</ele>
        <time>2020-05-21T14:36:29.000Z</time>
      </trkpt>
      <trkpt lat="47.16824" lon="4.92675">
        <ele>385.59006808809</ele>
        <time>2020-05-21T14:36:31.000Z</time>
      </trkpt>
      <trkpt lat="47.16825" lon="4.92671">
        <ele>385.78481023702</ele>
        <time>2020-05-21T14:36:33.000Z</time>
      </trkpt>
      <trkpt lat="47.16825" lon="4.92668">
        <ele>385.97955238595</ele>
        <time>2020-05-21T14:36:35.000Z</time>
      </trkpt>
      <trkpt lat="47.16825" lon="4.92665">
        <ele>386.36793451879</ele>
        <time>2020-05-21T14:36:37.000Z</time>
      </trkpt>
      <trkpt lat="47.16825" lon="4.92661">
        <ele>386.77903380486</ele>
        <time>2020-05-21T14:36:39.000Z</time>
      </trkpt>
      <trkpt lat="47.16826" lon="4.92658">
        <ele>387.19013309093</ele>
        <time>2020-05-21T14:36:41.000Z</time>
      </trkpt>
      <trkpt lat="47.16827" lon="4.92655">
        <ele>387.601232377</ele>
        <time>2020-05-21T14:36:43.000Z</time>
      </trkpt>
      <trkpt lat="47.16827" lon="4.92652">
        <ele>388</ele>
        <time>2020-05-21T14:36:45.000Z</time>
      </trkpt>
      <trkpt lat="47.16828" lon="4.92648">
        <ele>388</ele>
        <time>2020-05-21T14:36:47.000Z</time>
      </trkpt>
      <trkpt lat="47.16828" lon="4.92645">
        <ele>388</ele>
        <time>2020-05-21T14:36:49.000Z</time>
      </trkpt>
      <trkpt lat="47.16828" lon="4.92642">
        <ele>388</ele>
        <time>2020-05-21T14:36:51.000Z</time>
      </trkpt>
      <trkpt lat="47.16829" lon="4.92639">
        <ele>388</ele>
        <time>2020-05-21T14:36:53.000Z</time>
      </trkpt>
      <trkpt lat="47.1683" lon="4.92636">
        <ele>388</ele>
        <time>2020-05-21T14:36:55.000Z</time>
      </trkpt>
      <trkpt lat="47.1683" lon="4.92632">
        <ele>388</ele>
        <time>2020-05-21T14:36:57.000Z</time>
      </trkpt>
      <trkpt lat="47.16831" lon="4.92629">
        <ele>388</ele>
        <time>2020-05-21T14:36:59.000Z</time>
      </trkpt>
      <trkpt lat="47.16831" lon="4.92626">
        <ele>388</ele>
        <time>2020-05-21T14:37:01.000Z</time>
      </trkpt>
      <trkpt lat="47.16832" lon="4.92623">
        <ele>388</ele>
        <time>2020-05-21T14:37:03.000Z</time>
      </trkpt>
      <trkpt lat="47.16832" lon="4.9262">
        <ele>388.00599936</ele>
        <time>2020-05-21T14:37:05.000Z</time>
      </trkpt>
      <trkpt lat="47.16832" lon="4.92616">
        <ele>388.20599936</ele>
        <time>2020-05-21T14:37:07.000Z</time>
      </trkpt>
      <trkpt lat="47.16832" lon="4.92613">
        <ele>388.40599936</ele>
        <time>2020-05-21T14:37:09.000Z</time>
      </trkpt>
      <trkpt lat="47.16833" lon="4.9261">
        <ele>388.60599936</ele>
        <time>2020-05-21T14:37:11.000Z</time>
      </trkpt>
      <trkpt lat="47.16833" lon="4.92606">
        <ele>388.80599936</ele>
        <time>2020-05-21T14:37:13.000Z</time>
      </trkpt>
      <trkpt lat="47.16834" lon="4.92603">
        <ele>389.00599936</ele>
        <time>2020-05-21T14:37:15.000Z</time>
      </trkpt>
      <trkpt lat="47.16835" lon="4.92599">
        <ele>389.20599936</ele>
        <time>2020-05-21T14:37:17.000Z</time>
      </trkpt>
      <trkpt lat="47.16835" lon="4.92596">
        <ele>389.40599936</ele>
        <time>2020-05-21T14:37:19.000Z</time>
      </trkpt>
      <trkpt lat="47.16834" lon="4.92593">
        <ele>389.60599936</ele>
        <time>2020-05-21T14:37:21.000Z</time>
      </trkpt>
      <trkpt lat="47.16834" lon="4.92589">
        <ele>389.80599936</ele>
        <time>2020-05-21T14:37:23.000Z</time>
      </trkpt>
      <trkpt lat="47.16834" lon="4.92585">
        <ele>390</ele>
        <time>2020-05-21T14:37:25.000Z</time>
      </trkpt>
      <trkpt lat="47.16835" lon="4.92582">
        <ele>390</ele>
        <time>2020-05-21T14:37:27.000Z</time>
      </trkpt>
      <trkpt lat="47.16835" lon="4.92578">
        <ele>390</ele>
        <time>2020-05-21T14:37:29.000Z</time>
      </trkpt>
      <trkpt lat="47.16836" lon="4.92575">
        <ele>390</ele>
        <time>2020-05-21T14:37:31.000Z</time>
      </trkpt>
      <trkpt lat="47.16835" lon="4.92572">
        <ele>390</ele>
        <time>2020-05-21T14:37:33.000Z</time>
      </trkpt>
      <trkpt lat="47.16835" lon="4.92568">
        <ele>390</ele>
        <time>2020-05-21T14:37:35.000Z</time>
      </trkpt>
      <trkpt lat="47.16836" lon="4.92566">
        <ele>390</ele>
        <time>2020-05-21T14:37:37.000Z</time>
      </trkpt>
      <trkpt lat="47.16836" lon="4.92562">
        <ele>390</ele>
        <time>2020-05-21T14:37:39.000Z</time>
      </trkpt>
      <trkpt lat="47.16837" lon="4.92559">
        <ele>390</ele>
        <time>2020-05-21T14:37:41.000Z</time>
      </trkpt>
      <trkpt lat="47.16837" lon="4.92556">
        <ele>390</ele>
        <time>2020-05-21T14:37:43.000Z</time>
      </trkpt>
      <trkpt lat="47.16838" lon="4.92553">
        <ele>390.01168328259</ele>
        <time>2020-05-21T14:37:45.000Z</time>
      </trkpt>
      <trkpt lat="47.16839" lon="4.92549">
        <ele>390.40116758045</ele>
        <time>2020-05-21T14:37:47.000Z</time>
      </trkpt>
      <trkpt lat="47.1684" lon="4.92546">
        <ele>390.79065187831</ele>
        <time>2020-05-21T14:37:49.000Z</time>
      </trkpt>
      <trkpt lat="47.16841" lon="4.92544">
        <ele>391.18013617617</ele>
        <time>2020-05-21T14:37:51.000Z</time>
      </trkpt>
      <trkpt lat="47.16842" lon="4.92542">
        <ele>391.56962047404</ele>
        <time>2020-05-21T14:37:53.000Z</time>
      </trkpt>
      <trkpt lat="47.16843" lon="4.92539">
        <ele>391.9591047719</ele>
        <time>2020-05-21T14:37:55.000Z</time>
      </trkpt>
      <trkpt lat="47.16843" lon="4.92536">
        <ele>392.28674208091</ele>
        <time>2020-05-21T14:37:58.000Z</time>
      </trkpt>
      <trkpt lat="47.16845" lon="4.92536">
        <ele>392.69784136698</ele>
        <time>2020-05-21T14:38:02.000Z</time>
      </trkpt>
      <trkpt lat="47.16845" lon="4.92532">
        <ele>392</ele>
        <time>2020-05-21T14:38:35.000Z</time>
      </trkpt>
      <trkpt lat="47.16844" lon="4.92531">
        <ele>392</ele>
        <time>2020-05-21T14:38:39.000Z</time>
      </trkpt>
      <trkpt lat="47.16843" lon="4.92528">
        <ele>392</ele>
        <time>2020-05-21T14:38:43.000Z</time>
      </trkpt>
      <trkpt lat="47.16844" lon="4.92526">
        <ele>392</ele>
        <time>2020-05-21T14:38:45.000Z</time>
      </trkpt>
      <trkpt lat="47.16844" lon="4.92521">
        <ele>392</ele>
        <time>2020-05-21T14:38:48.000Z</time>
      </trkpt>
      <trkpt lat="47.16844" lon="4.92518">
        <ele>392</ele>
        <time>2020-05-21T14:38:50.000Z</time>
      </trkpt>
      <trkpt lat="47.16844" lon="4.92514">
        <ele>392</ele>
        <time>2020-05-21T14:38:52.000Z</time>
      </trkpt>
      <trkpt lat="47.16845" lon="4.92511">
        <ele>392</ele>
        <time>2020-05-21T14:38:54.000Z</time>
      </trkpt>
      <trkpt lat="47.16845" lon="4.92508">
        <ele>392</ele>
        <time>2020-05-21T14:38:56.000Z</time>
      </trkpt>
      <trkpt lat="47.16846" lon="4.92504">
        <ele>392</ele>
        <time>2020-05-21T14:38:58.000Z</time>
      </trkpt>
      <trkpt lat="47.16846" lon="4.92501">
        <ele>392</ele>
        <time>2020-05-21T14:39:00.000Z</time>
      </trkpt>
      <trkpt lat="47.16847" lon="4.92497">
        <ele>392</ele>
        <time>2020-05-21T14:39:02.000Z</time>
      </trkpt>
      <trkpt lat="47.16848" lon="4.92494">
        <ele>392</ele>
        <time>2020-05-21T14:39:04.000Z</time>
      </trkpt>
      <trkpt lat="47.16849" lon="4.92491">
        <ele>392</ele>
        <time>2020-05-21T14:39:06.000Z</time>
      </trkpt>
      <trkpt lat="47.1685" lon="4.92488">
        <ele>392</ele>
        <time>2020-05-21T14:39:08.000Z</time>
      </trkpt>
      <trkpt lat="47.1685" lon="4.92484">
        <ele>392</ele>
        <time>2020-05-21T14:39:10.000Z</time>
      </trkpt>
      <trkpt lat="47.16851" lon="4.92481">
        <ele>392</ele>
        <time>2020-05-21T14:39:12.000Z</time>
      </trkpt>
      <trkpt lat="47.16851" lon="4.92478">
        <ele>392</ele>
        <time>2020-05-21T14:39:14.000Z</time>
      </trkpt>
      <trkpt lat="47.16853" lon="4.92474">
        <ele>392</ele>
        <time>2020-05-21T14:39:17.000Z</time>
      </trkpt>
      <trkpt lat="47.16854" lon="4.92472">
        <ele>392</ele>
        <time>2020-05-21T14:39:19.000Z</time>
      </trkpt>
      <trkpt lat="47.16855" lon="4.92469">
        <ele>392</ele>
        <time>2020-05-21T14:39:21.000Z</time>
      </trkpt>
      <trkpt lat="47.16854" lon="4.92466">
        <ele>392.40599936</ele>
        <time>2020-05-21T14:39:39.000Z</time>
      </trkpt>
      <trkpt lat="47.16855" lon="4.92462">
        <ele>392.60599936</ele>
        <time>2020-05-21T14:39:41.000Z</time>
      </trkpt>
      <trkpt lat="47.16855" lon="4.92458">
        <ele>392.80599936</ele>
        <time>2020-05-21T14:39:43.000Z</time>
      </trkpt>
      <trkpt lat="47.16855" lon="4.92455">
        <ele>393.00599936</ele>
        <time>2020-05-21T14:39:45.000Z</time>
      </trkpt>
      <trkpt lat="47.16856" lon="4.92451">
        <ele>393.20599936</ele>
        <time>2020-05-21T14:39:47.000Z</time>
      </trkpt>
      <trkpt lat="47.16856" lon="4.92448">
        <ele>393.40599936</ele>
        <time>2020-05-21T14:39:49.000Z</time>
      </trkpt>
      <trkpt lat="47.16857" lon="4.92445">
        <ele>393.60599936</ele>
        <time>2020-05-21T14:39:51.000Z</time>
      </trkpt>
      <trkpt lat="47.16857" lon="4.92442">
        <ele>393.80599936</ele>
        <time>2020-05-21T14:39:53.000Z</time>
      </trkpt>
      <trkpt lat="47.16858" lon="4.92439">
        <ele>394</ele>
        <time>2020-05-21T14:39:55.000Z</time>
      </trkpt>
      <trkpt lat="47.16859" lon="4.92434">
        <ele>394</ele>
        <time>2020-05-21T14:39:57.000Z</time>
      </trkpt>
      <trkpt lat="47.1686" lon="4.9243">
        <ele>394</ele>
        <time>2020-05-21T14:39:59.000Z</time>
      </trkpt>
      <trkpt lat="47.16861" lon="4.92427">
        <ele>394</ele>
        <time>2020-05-21T14:40:01.000Z</time>
      </trkpt>
      <trkpt lat="47.16862" lon="4.92423">
        <ele>394</ele>
        <time>2020-05-21T14:40:03.000Z</time>
      </trkpt>
      <trkpt lat="47.16863" lon="4.9242">
        <ele>394.00300934515</ele>
        <time>2020-05-21T14:40:05.000Z</time>
      </trkpt>
      <trkpt lat="47.16864" lon="4.92416">
        <ele>394.20361095741</ele>
        <time>2020-05-21T14:40:07.000Z</time>
      </trkpt>
      <trkpt lat="47.16866" lon="4.92412">
        <ele>394.40421256966</ele>
        <time>2020-05-21T14:40:09.000Z</time>
      </trkpt>
      <trkpt lat="47.16867" lon="4.92408">
        <ele>394.60481418192</ele>
        <time>2020-05-21T14:40:11.000Z</time>
      </trkpt>
      <trkpt lat="47.16868" lon="4.92404">
        <ele>394.80541579418</ele>
        <time>2020-05-21T14:40:13.000Z</time>
      </trkpt>
      <trkpt lat="47.16868" lon="4.924">
        <ele>395</ele>
        <time>2020-05-21T14:40:15.000Z</time>
      </trkpt>
      <trkpt lat="47.16869" lon="4.92396">
        <ele>395</ele>
        <time>2020-05-21T14:40:17.000Z</time>
      </trkpt>
      <trkpt lat="47.1687" lon="4.92392">
        <ele>395</ele>
        <time>2020-05-21T14:40:19.000Z</time>
      </trkpt>
      <trkpt lat="47.16871" lon="4.92388">
        <ele>395</ele>
        <time>2020-05-21T14:40:21.000Z</time>
      </trkpt>
      <trkpt lat="47.16871" lon="4.92385">
        <ele>395</ele>
        <time>2020-05-21T14:40:23.000Z</time>
      </trkpt>
      <trkpt lat="47.16872" lon="4.92381">
        <ele>395.00599936</ele>
        <time>2020-05-21T14:40:25.000Z</time>
      </trkpt>
      <trkpt lat="47.16872" lon="4.92378">
        <ele>395.20599936</ele>
        <time>2020-05-21T14:40:27.000Z</time>
      </trkpt>
      <trkpt lat="47.16873" lon="4.92374">
        <ele>395.40599936</ele>
        <time>2020-05-21T14:40:29.000Z</time>
      </trkpt>
      <trkpt lat="47.16874" lon="4.9237">
        <ele>395.60599936</ele>
        <time>2020-05-21T14:40:31.000Z</time>
      </trkpt>
      <trkpt lat="47.16875" lon="4.92366">
        <ele>395.80599936</ele>
        <time>2020-05-21T14:40:33.000Z</time>
      </trkpt>
      <trkpt lat="47.16876" lon="4.92363">
        <ele>396</ele>
        <time>2020-05-21T14:40:35.000Z</time>
      </trkpt>
      <trkpt lat="47.16876" lon="4.92359">
        <ele>396</ele>
        <time>2020-05-21T14:40:37.000Z</time>
      </trkpt>
      <trkpt lat="47.16876" lon="4.92356">
        <ele>396</ele>
        <time>2020-05-21T14:40:39.000Z</time>
      </trkpt>
      <trkpt lat="47.16877" lon="4.92352">
        <ele>396</ele>
        <time>2020-05-21T14:40:41.000Z</time>
      </trkpt>
      <trkpt lat="47.16877" lon="4.92348">
        <ele>396</ele>
        <time>2020-05-21T14:40:43.000Z</time>
      </trkpt>
      <trkpt lat="47.16878" lon="4.92345">
        <ele>396</ele>
        <time>2020-05-21T14:40:45.000Z</time>
      </trkpt>
      <trkpt lat="47.16879" lon="4.92341">
        <ele>396</ele>
        <time>2020-05-21T14:40:47.000Z</time>
      </trkpt>
      <trkpt lat="47.1688" lon="4.92338">
        <ele>396</ele>
        <time>2020-05-21T14:40:49.000Z</time>
      </trkpt>
      <trkpt lat="47.1688" lon="4.92335">
        <ele>396</ele>
        <time>2020-05-21T14:40:51.000Z</time>
      </trkpt>
      <trkpt lat="47.16879" lon="4.92331">
        <ele>396</ele>
        <time>2020-05-21T14:40:53.000Z</time>
      </trkpt>
      <trkpt lat="47.16878" lon="4.92327">
        <ele>396</ele>
        <time>2020-05-21T14:40:55.000Z</time>
      </trkpt>
      <trkpt lat="47.16877" lon="4.92324">
        <ele>395.82199936</ele>
        <time>2020-05-21T14:40:57.000Z</time>
      </trkpt>
      <trkpt lat="47.16876" lon="4.92322">
        <ele>395.62199936</ele>
        <time>2020-05-21T14:40:59.000Z</time>
      </trkpt>
      <trkpt lat="47.16875" lon="4.92319">
        <ele>395.42199936</ele>
        <time>2020-05-21T14:41:01.000Z</time>
      </trkpt>
      <trkpt lat="47.16873" lon="4.92317">
        <ele>395.22199936</ele>
        <time>2020-05-21T14:41:03.000Z</time>
      </trkpt>
      <trkpt lat="47.16871" lon="4.92315">
        <ele>395</ele>
        <time>2020-05-21T14:41:06.000Z</time>
      </trkpt>
      <trkpt lat="47.1687" lon="4.92312">
        <ele>395</ele>
        <time>2020-05-21T14:41:08.000Z</time>
      </trkpt>
      <trkpt lat="47.16868" lon="4.92309">
        <ele>395</ele>
        <time>2020-05-21T14:41:11.000Z</time>
      </trkpt>
      <trkpt lat="47.16866" lon="4.92307">
        <ele>395</ele>
        <time>2020-05-21T14:41:13.000Z</time>
      </trkpt>
      <trkpt lat="47.16864" lon="4.92306">
        <ele>395</ele>
        <time>2020-05-21T14:41:15.000Z</time>
      </trkpt>
      <trkpt lat="47.16862" lon="4.92305">
        <ele>395</ele>
        <time>2020-05-21T14:41:17.000Z</time>
      </trkpt>
      <trkpt lat="47.1686" lon="4.92303">
        <ele>395</ele>
        <time>2020-05-21T14:41:19.000Z</time>
      </trkpt>
      <trkpt lat="47.16858" lon="4.92301">
        <ele>395</ele>
        <time>2020-05-21T14:41:21.000Z</time>
      </trkpt>
      <trkpt lat="47.16856" lon="4.92299">
        <ele>395</ele>
        <time>2020-05-21T14:41:23.000Z</time>
      </trkpt>
      <trkpt lat="47.16853" lon="4.92298">
        <ele>394.99400064</ele>
        <time>2020-05-21T14:41:25.000Z</time>
      </trkpt>
      <trkpt lat="47.16852" lon="4.92296">
        <ele>394.79400064</ele>
        <time>2020-05-21T14:41:27.000Z</time>
      </trkpt>
      <trkpt lat="47.1685" lon="4.92294">
        <ele>394.59400064</ele>
        <time>2020-05-21T14:41:29.000Z</time>
      </trkpt>
      <trkpt lat="47.16848" lon="4.92292">
        <ele>394.39400064</ele>
        <time>2020-05-21T14:41:31.000Z</time>
      </trkpt>
      <trkpt lat="47.16846" lon="4.9229">
        <ele>394.19400064</ele>
        <time>2020-05-21T14:41:33.000Z</time>
      </trkpt>
      <trkpt lat="47.16844" lon="4.92288">
        <ele>394</ele>
        <time>2020-05-21T14:41:35.000Z</time>
      </trkpt>
      <trkpt lat="47.16842" lon="4.92286">
        <ele>394</ele>
        <time>2020-05-21T14:41:37.000Z</time>
      </trkpt>
      <trkpt lat="47.1684" lon="4.92284">
        <ele>394</ele>
        <time>2020-05-21T14:41:39.000Z</time>
      </trkpt>
      <trkpt lat="47.16839" lon="4.92283">
        <ele>394</ele>
        <time>2020-05-21T14:41:41.000Z</time>
      </trkpt>
      <trkpt lat="47.16837" lon="4.92281">
        <ele>394</ele>
        <time>2020-05-21T14:41:43.000Z</time>
      </trkpt>
      <trkpt lat="47.16835" lon="4.92279">
        <ele>394</ele>
        <time>2020-05-21T14:41:46.000Z</time>
      </trkpt>
      <trkpt lat="47.16834" lon="4.92277">
        <ele>394</ele>
        <time>2020-05-21T14:41:48.000Z</time>
      </trkpt>
      <trkpt lat="47.16832" lon="4.92274">
        <ele>394</ele>
        <time>2020-05-21T14:41:50.000Z</time>
      </trkpt>
      <trkpt lat="47.1683" lon="4.92272">
        <ele>394</ele>
        <time>2020-05-21T14:41:52.000Z</time>
      </trkpt>
      <trkpt lat="47.16829" lon="4.92272">
        <ele>392.99400064</ele>
        <time>2020-05-21T14:42:15.000Z</time>
      </trkpt>
      <trkpt lat="47.16826" lon="4.9227">
        <ele>392.79400064</ele>
        <time>2020-05-21T14:42:17.000Z</time>
      </trkpt>
      <trkpt lat="47.16824" lon="4.92268">
        <ele>392.59400064</ele>
        <time>2020-05-21T14:42:19.000Z</time>
      </trkpt>
      <trkpt lat="47.16823" lon="4.92266">
        <ele>392.39400064</ele>
        <time>2020-05-21T14:42:21.000Z</time>
      </trkpt>
      <trkpt lat="47.16821" lon="4.92264">
        <ele>392.19400064</ele>
        <time>2020-05-21T14:42:23.000Z</time>
      </trkpt>
      <trkpt lat="47.16819" lon="4.92262">
        <ele>392</ele>
        <time>2020-05-21T14:42:25.000Z</time>
      </trkpt>
      <trkpt lat="47.16817" lon="4.92259">
        <ele>392</ele>
        <time>2020-05-21T14:42:27.000Z</time>
      </trkpt>
      <trkpt lat="47.16814" lon="4.92256">
        <ele>392</ele>
        <time>2020-05-21T14:42:29.000Z</time>
      </trkpt>
      <trkpt lat="47.16812" lon="4.92253">
        <ele>392</ele>
        <time>2020-05-21T14:42:31.000Z</time>
      </trkpt>
      <trkpt lat="47.16811" lon="4.9225">
        <ele>392</ele>
        <time>2020-05-21T14:42:33.000Z</time>
      </trkpt>
      <trkpt lat="47.16809" lon="4.92248">
        <ele>392</ele>
        <time>2020-05-21T14:42:35.000Z</time>
      </trkpt>
      <trkpt lat="47.16807" lon="4.92246">
        <ele>392</ele>
        <time>2020-05-21T14:42:37.000Z</time>
      </trkpt>
      <trkpt lat="47.16805" lon="4.92243">
        <ele>392</ele>
        <time>2020-05-21T14:42:39.000Z</time>
      </trkpt>
      <trkpt lat="47.16804" lon="4.92241">
        <ele>392</ele>
        <time>2020-05-21T14:42:41.000Z</time>
      </trkpt>
      <trkpt lat="47.16802" lon="4.92239">
        <ele>392</ele>
        <time>2020-05-21T14:42:43.000Z</time>
      </trkpt>
      <trkpt lat="47.168" lon="4.92238">
        <ele>392</ele>
        <time>2020-05-21T14:42:45.000Z</time>
      </trkpt>
      <trkpt lat="47.16798" lon="4.92236">
        <ele>391.81603274061</ele>
        <time>2020-05-21T14:42:47.000Z</time>
      </trkpt>
      <trkpt lat="47.16796" lon="4.92234">
        <ele>391.61048309757</ele>
        <time>2020-05-21T14:42:49.000Z</time>
      </trkpt>
      <trkpt lat="47.16793" lon="4.92232">
        <ele>391.40493345454</ele>
        <time>2020-05-21T14:42:51.000Z</time>
      </trkpt>
      <trkpt lat="47.16791" lon="4.9223">
        <ele>391.1993838115</ele>
        <time>2020-05-21T14:42:53.000Z</time>
      </trkpt>
      <trkpt lat="47.1679" lon="4.92229">
        <ele>391</ele>
        <time>2020-05-21T14:42:55.000Z</time>
      </trkpt>
      <trkpt lat="47.16787" lon="4.92228">
        <ele>391</ele>
        <time>2020-05-21T14:42:57.000Z</time>
      </trkpt>
      <trkpt lat="47.16785" lon="4.92226">
        <ele>391</ele>
        <time>2020-05-21T14:42:59.000Z</time>
      </trkpt>
      <trkpt lat="47.16782" lon="4.92225">
        <ele>391</ele>
        <time>2020-05-21T14:43:01.000Z</time>
      </trkpt>
      <trkpt lat="47.16779" lon="4.92224">
        <ele>391</ele>
        <time>2020-05-21T14:43:03.000Z</time>
      </trkpt>
      <trkpt lat="47.16777" lon="4.92223">
        <ele>391</ele>
        <time>2020-05-21T14:43:05.000Z</time>
      </trkpt>
      <trkpt lat="47.16775" lon="4.92222">
        <ele>391</ele>
        <time>2020-05-21T14:43:07.000Z</time>
      </trkpt>
      <trkpt lat="47.16773" lon="4.92222">
        <ele>391</ele>
        <time>2020-05-21T14:43:09.000Z</time>
      </trkpt>
      <trkpt lat="47.1677" lon="4.92222">
        <ele>391</ele>
        <time>2020-05-21T14:43:13.000Z</time>
      </trkpt>
      <trkpt lat="47.16767" lon="4.92222">
        <ele>391</ele>
        <time>2020-05-21T14:43:15.000Z</time>
      </trkpt>
      <trkpt lat="47.16764" lon="4.92222">
        <ele>391</ele>
        <time>2020-05-21T14:43:17.000Z</time>
      </trkpt>
      <trkpt lat="47.16761" lon="4.92222">
        <ele>391</ele>
        <time>2020-05-21T14:43:19.000Z</time>
      </trkpt>
      <trkpt lat="47.16759" lon="4.92223">
        <ele>391</ele>
        <time>2020-05-21T14:43:21.000Z</time>
      </trkpt>
      <trkpt lat="47.16756" lon="4.92225">
        <ele>391</ele>
        <time>2020-05-21T14:43:23.000Z</time>
      </trkpt>
      <trkpt lat="47.16754" lon="4.92227">
        <ele>391</ele>
        <time>2020-05-21T14:43:25.000Z</time>
      </trkpt>
      <trkpt lat="47.16751" lon="4.92228">
        <ele>390.81603274061</ele>
        <time>2020-05-21T14:43:27.000Z</time>
      </trkpt>
      <trkpt lat="47.16749" lon="4.9223">
        <ele>390.61048309757</ele>
        <time>2020-05-21T14:43:29.000Z</time>
      </trkpt>
      <trkpt lat="47.16746" lon="4.92232">
        <ele>390.40493345454</ele>
        <time>2020-05-21T14:43:31.000Z</time>
      </trkpt>
      <trkpt lat="47.16744" lon="4.92234">
        <ele>390.1993838115</ele>
        <time>2020-05-21T14:43:33.000Z</time>
      </trkpt>
      <trkpt lat="47.16742" lon="4.92237">
        <ele>390</ele>
        <time>2020-05-21T14:43:35.000Z</time>
      </trkpt>
      <trkpt lat="47.1674" lon="4.92239">
        <ele>390</ele>
        <time>2020-05-21T14:43:37.000Z</time>
      </trkpt>
      <trkpt lat="47.16738" lon="4.92242">
        <ele>390</ele>
        <time>2020-05-21T14:43:39.000Z</time>
      </trkpt>
      <trkpt lat="47.16736" lon="4.92244">
        <ele>390</ele>
        <time>2020-05-21T14:43:41.000Z</time>
      </trkpt>
      <trkpt lat="47.16734" lon="4.92247">
        <ele>390</ele>
        <time>2020-05-21T14:43:43.000Z</time>
      </trkpt>
      <trkpt lat="47.16732" lon="4.9225">
        <ele>390.00599936</ele>
        <time>2020-05-21T14:43:45.000Z</time>
      </trkpt>
      <trkpt lat="47.1673" lon="4.92252">
        <ele>390.20599936</ele>
        <time>2020-05-21T14:43:47.000Z</time>
      </trkpt>
      <trkpt lat="47.16729" lon="4.92254">
        <ele>390.40599936</ele>
        <time>2020-05-21T14:43:49.000Z</time>
      </trkpt>
      <trkpt lat="47.16727" lon="4.92257">
        <ele>390.60599936</ele>
        <time>2020-05-21T14:43:51.000Z</time>
      </trkpt>
      <trkpt lat="47.16725" lon="4.9226">
        <ele>390.80599936</ele>
        <time>2020-05-21T14:43:53.000Z</time>
      </trkpt>
      <trkpt lat="47.16723" lon="4.92263">
        <ele>391</ele>
        <time>2020-05-21T14:43:55.000Z</time>
      </trkpt>
      <trkpt lat="47.16721" lon="4.92266">
        <ele>391</ele>
        <time>2020-05-21T14:43:57.000Z</time>
      </trkpt>
      <trkpt lat="47.1672" lon="4.92269">
        <ele>391</ele>
        <time>2020-05-21T14:43:59.000Z</time>
      </trkpt>
      <trkpt lat="47.16718" lon="4.92271">
        <ele>391</ele>
        <time>2020-05-21T14:44:01.000Z</time>
      </trkpt>
      <trkpt lat="47.16716" lon="4.92274">
        <ele>391</ele>
        <time>2020-05-21T14:44:03.000Z</time>
      </trkpt>
      <trkpt lat="47.16715" lon="4.92277">
        <ele>391</ele>
        <time>2020-05-21T14:44:05.000Z</time>
      </trkpt>
      <trkpt lat="47.16713" lon="4.9228">
        <ele>391.17817876175</ele>
        <time>2020-05-21T14:44:07.000Z</time>
      </trkpt>
      <trkpt lat="47.16711" lon="4.92281">
        <ele>391.37837889782</ele>
        <time>2020-05-21T14:44:09.000Z</time>
      </trkpt>
      <trkpt lat="47.16709" lon="4.92283">
        <ele>391.57857903389</ele>
        <time>2020-05-21T14:44:11.000Z</time>
      </trkpt>
      <trkpt lat="47.16708" lon="4.92286">
        <ele>391.77877916996</ele>
        <time>2020-05-21T14:44:13.000Z</time>
      </trkpt>
      <trkpt lat="47.16708" lon="4.92288">
        <ele>392</ele>
        <time>2020-05-21T14:44:16.000Z</time>
      </trkpt>
      <trkpt lat="47.16706" lon="4.92291">
        <ele>392</ele>
        <time>2020-05-21T14:44:18.000Z</time>
      </trkpt>
      <trkpt lat="47.16704" lon="4.92293">
        <ele>392</ele>
        <time>2020-05-21T14:44:20.000Z</time>
      </trkpt>
      <trkpt lat="47.16702" lon="4.92295">
        <ele>392</ele>
        <time>2020-05-21T14:44:22.000Z</time>
      </trkpt>
      <trkpt lat="47.167" lon="4.92296">
        <ele>392</ele>
        <time>2020-05-21T14:44:24.000Z</time>
      </trkpt>
      <trkpt lat="47.16699" lon="4.92299">
        <ele>392</ele>
        <time>2020-05-21T14:44:26.000Z</time>
      </trkpt>
      <trkpt lat="47.16697" lon="4.92301">
        <ele>392</ele>
        <time>2020-05-21T14:44:28.000Z</time>
      </trkpt>
      <trkpt lat="47.16695" lon="4.92303">
        <ele>392</ele>
        <time>2020-05-21T14:44:30.000Z</time>
      </trkpt>
      <trkpt lat="47.16693" lon="4.92305">
        <ele>392</ele>
        <time>2020-05-21T14:44:32.000Z</time>
      </trkpt>
      <trkpt lat="47.16691" lon="4.92307">
        <ele>392</ele>
        <time>2020-05-21T14:44:34.000Z</time>
      </trkpt>
      <trkpt lat="47.16689" lon="4.92309">
        <ele>392</ele>
        <time>2020-05-21T14:44:36.000Z</time>
      </trkpt>
      <trkpt lat="47.16687" lon="4.92312">
        <ele>392</ele>
        <time>2020-05-21T14:44:38.000Z</time>
      </trkpt>
      <trkpt lat="47.16685" lon="4.92313">
        <ele>392</ele>
        <time>2020-05-21T14:44:40.000Z</time>
      </trkpt>
      <trkpt lat="47.16683" lon="4.92316">
        <ele>392</ele>
        <time>2020-05-21T14:44:43.000Z</time>
      </trkpt>
      <trkpt lat="47.16683" lon="4.92319">
        <ele>391.99400064</ele>
        <time>2020-05-21T14:44:45.000Z</time>
      </trkpt>
      <trkpt lat="47.16684" lon="4.92321">
        <ele>391</ele>
        <time>2020-05-21T14:45:03.000Z</time>
      </trkpt>
      <trkpt lat="47.16682" lon="4.92321">
        <ele>391</ele>
        <time>2020-05-21T14:45:34.000Z</time>
      </trkpt>
      <trkpt lat="47.1668" lon="4.92322">
        <ele>391.10599936</ele>
        <time>2020-05-21T14:45:36.000Z</time>
      </trkpt>
      <trkpt lat="47.16678" lon="4.92324">
        <ele>391.30599936</ele>
        <time>2020-05-21T14:45:38.000Z</time>
      </trkpt>
      <trkpt lat="47.16676" lon="4.92325">
        <ele>391.50599936</ele>
        <time>2020-05-21T14:45:40.000Z</time>
      </trkpt>
      <trkpt lat="47.16674" lon="4.92327">
        <ele>391.70599936</ele>
        <time>2020-05-21T14:45:42.000Z</time>
      </trkpt>
      <trkpt lat="47.16672" lon="4.92328">
        <ele>391.90599936</ele>
        <time>2020-05-21T14:45:44.000Z</time>
      </trkpt>
      <trkpt lat="47.1667" lon="4.92329">
        <ele>392.10599936</ele>
        <time>2020-05-21T14:45:46.000Z</time>
      </trkpt>
      <trkpt lat="47.16668" lon="4.92331">
        <ele>392.30599936</ele>
        <time>2020-05-21T14:45:48.000Z</time>
      </trkpt>
      <trkpt lat="47.16667" lon="4.92332">
        <ele>392.50599936</ele>
        <time>2020-05-21T14:45:50.000Z</time>
      </trkpt>
      <trkpt lat="47.16665" lon="4.92333">
        <ele>392.70599936</ele>
        <time>2020-05-21T14:45:52.000Z</time>
      </trkpt>
      <trkpt lat="47.16663" lon="4.92335">
        <ele>392.90599936</ele>
        <time>2020-05-21T14:45:54.000Z</time>
      </trkpt>
      <trkpt lat="47.1666" lon="4.92336">
        <ele>393</ele>
        <time>2020-05-21T14:45:56.000Z</time>
      </trkpt>
      <trkpt lat="47.16658" lon="4.92337">
        <ele>393</ele>
        <time>2020-05-21T14:45:58.000Z</time>
      </trkpt>
      <trkpt lat="47.16656" lon="4.92339">
        <ele>393</ele>
        <time>2020-05-21T14:46:00.000Z</time>
      </trkpt>
      <trkpt lat="47.16654" lon="4.92339">
        <ele>393</ele>
        <time>2020-05-21T14:46:02.000Z</time>
      </trkpt>
      <trkpt lat="47.16651" lon="4.92339">
        <ele>393</ele>
        <time>2020-05-21T14:46:04.000Z</time>
      </trkpt>
      <trkpt lat="47.1665" lon="4.9234">
        <ele>393.10599936</ele>
        <time>2020-05-21T14:46:06.000Z</time>
      </trkpt>
      <trkpt lat="47.16648" lon="4.92341">
        <ele>393.30599936</ele>
        <time>2020-05-21T14:46:08.000Z</time>
      </trkpt>
      <trkpt lat="47.16646" lon="4.92342">
        <ele>393.50599936</ele>
        <time>2020-05-21T14:46:10.000Z</time>
      </trkpt>
      <trkpt lat="47.16644" lon="4.92343">
        <ele>393.70599936</ele>
        <time>2020-05-21T14:46:12.000Z</time>
      </trkpt>
      <trkpt lat="47.16642" lon="4.92344">
        <ele>393.90599936</ele>
        <time>2020-05-21T14:46:14.000Z</time>
      </trkpt>
      <trkpt lat="47.16639" lon="4.92346">
        <ele>394</ele>
        <time>2020-05-21T14:46:17.000Z</time>
      </trkpt>
      <trkpt lat="47.16637" lon="4.92346">
        <ele>394</ele>
        <time>2020-05-21T14:46:19.000Z</time>
      </trkpt>
      <trkpt lat="47.16634" lon="4.92347">
        <ele>394</ele>
        <time>2020-05-21T14:46:21.000Z</time>
      </trkpt>
      <trkpt lat="47.16633" lon="4.92348">
        <ele>394</ele>
        <time>2020-05-21T14:46:23.000Z</time>
      </trkpt>
      <trkpt lat="47.1663" lon="4.92348">
        <ele>394.00599936</ele>
        <time>2020-05-21T14:46:25.000Z</time>
      </trkpt>
      <trkpt lat="47.16628" lon="4.92348">
        <ele>394.20599936</ele>
        <time>2020-05-21T14:46:27.000Z</time>
      </trkpt>
      <trkpt lat="47.16626" lon="4.92348">
        <ele>394.40599936</ele>
        <time>2020-05-21T14:46:29.000Z</time>
      </trkpt>
      <trkpt lat="47.16624" lon="4.92348">
        <ele>394.60599936</ele>
        <time>2020-05-21T14:46:31.000Z</time>
      </trkpt>
      <trkpt lat="47.16621" lon="4.92349">
        <ele>394.80599936</ele>
        <time>2020-05-21T14:46:33.000Z</time>
      </trkpt>
      <trkpt lat="47.16619" lon="4.9235">
        <ele>395</ele>
        <time>2020-05-21T14:46:35.000Z</time>
      </trkpt>
      <trkpt lat="47.16617" lon="4.92351">
        <ele>395</ele>
        <time>2020-05-21T14:46:37.000Z</time>
      </trkpt>
      <trkpt lat="47.16615" lon="4.92352">
        <ele>395</ele>
        <time>2020-05-21T14:46:39.000Z</time>
      </trkpt>
      <trkpt lat="47.16613" lon="4.92352">
        <ele>395</ele>
        <time>2020-05-21T14:46:41.000Z</time>
      </trkpt>
      <trkpt lat="47.1661" lon="4.92352">
        <ele>395</ele>
        <time>2020-05-21T14:46:43.000Z</time>
      </trkpt>
      <trkpt lat="47.16608" lon="4.92353">
        <ele>395.01199872</ele>
        <time>2020-05-21T14:46:45.000Z</time>
      </trkpt>
      <trkpt lat="47.16606" lon="4.92354">
        <ele>395.41199872</ele>
        <time>2020-05-21T14:46:47.000Z</time>
      </trkpt>
      <trkpt lat="47.16604" lon="4.92354">
        <ele>395.81199872</ele>
        <time>2020-05-21T14:46:49.000Z</time>
      </trkpt>
      <trkpt lat="47.16602" lon="4.92357">
        <ele>396.41199872</ele>
        <time>2020-05-21T14:46:52.000Z</time>
      </trkpt>
      <trkpt lat="47.16601" lon="4.92358">
        <ele>396.81199872</ele>
        <time>2020-05-21T14:46:54.000Z</time>
      </trkpt>
      <trkpt lat="47.16599" lon="4.92359">
        <ele>397</ele>
        <time>2020-05-21T14:46:56.000Z</time>
      </trkpt>
      <trkpt lat="47.16597" lon="4.92359">
        <ele>397</ele>
        <time>2020-05-21T14:46:58.000Z</time>
      </trkpt>
      <trkpt lat="47.16594" lon="4.9236">
        <ele>397</ele>
        <time>2020-05-21T14:47:00.000Z</time>
      </trkpt>
      <trkpt lat="47.16592" lon="4.9236">
        <ele>397</ele>
        <time>2020-05-21T14:47:02.000Z</time>
      </trkpt>
      <trkpt lat="47.1659" lon="4.9236">
        <ele>397</ele>
        <time>2020-05-21T14:47:04.000Z</time>
      </trkpt>
      <trkpt lat="47.16588" lon="4.9236">
        <ele>397</ele>
        <time>2020-05-21T14:47:06.000Z</time>
      </trkpt>
      <trkpt lat="47.16586" lon="4.92361">
        <ele>397</ele>
        <time>2020-05-21T14:47:08.000Z</time>
      </trkpt>
      <trkpt lat="47.16584" lon="4.92361">
        <ele>397</ele>
        <time>2020-05-21T14:47:10.000Z</time>
      </trkpt>
      <trkpt lat="47.16582" lon="4.92362">
        <ele>397</ele>
        <time>2020-05-21T14:47:12.000Z</time>
      </trkpt>
      <trkpt lat="47.16579" lon="4.92361">
        <ele>397</ele>
        <time>2020-05-21T14:47:14.000Z</time>
      </trkpt>
      <trkpt lat="47.16577" lon="4.92361">
        <ele>397.10311234629</ele>
        <time>2020-05-21T14:47:16.000Z</time>
      </trkpt>
      <trkpt lat="47.16575" lon="4.92361">
        <ele>397.29766511771</ele>
        <time>2020-05-21T14:47:18.000Z</time>
      </trkpt>
      <trkpt lat="47.16573" lon="4.92361">
        <ele>397.49221788914</ele>
        <time>2020-05-21T14:47:20.000Z</time>
      </trkpt>
      <trkpt lat="47.1657" lon="4.92361">
        <ele>397.68677066057</ele>
        <time>2020-05-21T14:47:22.000Z</time>
      </trkpt>
      <trkpt lat="47.16568" lon="4.92361">
        <ele>397.881323432</ele>
        <time>2020-05-21T14:47:24.000Z</time>
      </trkpt>
      <trkpt lat="47.16566" lon="4.92361">
        <ele>398</ele>
        <time>2020-05-21T14:47:26.000Z</time>
      </trkpt>
      <trkpt lat="47.16563" lon="4.92361">
        <ele>398</ele>
        <time>2020-05-21T14:47:28.000Z</time>
      </trkpt>
      <trkpt lat="47.16561" lon="4.92361">
        <ele>398</ele>
        <time>2020-05-21T14:47:30.000Z</time>
      </trkpt>
      <trkpt lat="47.16559" lon="4.92361">
        <ele>398</ele>
        <time>2020-05-21T14:47:32.000Z</time>
      </trkpt>
      <trkpt lat="47.16557" lon="4.92361">
        <ele>398</ele>
        <time>2020-05-21T14:47:34.000Z</time>
      </trkpt>
      <trkpt lat="47.16554" lon="4.92361">
        <ele>398.10599936</ele>
        <time>2020-05-21T14:47:36.000Z</time>
      </trkpt>
      <trkpt lat="47.16551" lon="4.92362">
        <ele>398.30599936</ele>
        <time>2020-05-21T14:47:38.000Z</time>
      </trkpt>
      <trkpt lat="47.16549" lon="4.92363">
        <ele>398.50599936</ele>
        <time>2020-05-21T14:47:40.000Z</time>
      </trkpt>
      <trkpt lat="47.16547" lon="4.92363">
        <ele>398.70599936</ele>
        <time>2020-05-21T14:47:42.000Z</time>
      </trkpt>
      <trkpt lat="47.16544" lon="4.92363">
        <ele>398.90599936</ele>
        <time>2020-05-21T14:47:44.000Z</time>
      </trkpt>
      <trkpt lat="47.16542" lon="4.92363">
        <ele>399</ele>
        <time>2020-05-21T14:47:46.000Z</time>
      </trkpt>
      <trkpt lat="47.16539" lon="4.92362">
        <ele>399</ele>
        <time>2020-05-21T14:47:48.000Z</time>
      </trkpt>
      <trkpt lat="47.16537" lon="4.92362">
        <ele>399</ele>
        <time>2020-05-21T14:47:50.000Z</time>
      </trkpt>
      <trkpt lat="47.16534" lon="4.92363">
        <ele>399</ele>
        <time>2020-05-21T14:47:52.000Z</time>
      </trkpt>
      <trkpt lat="47.16531" lon="4.92363">
        <ele>399</ele>
        <time>2020-05-21T14:47:54.000Z</time>
      </trkpt>
      <trkpt lat="47.16529" lon="4.92364">
        <ele>399.10599936</ele>
        <time>2020-05-21T14:47:56.000Z</time>
      </trkpt>
      <trkpt lat="47.16527" lon="4.92364">
        <ele>399.30599936</ele>
        <time>2020-05-21T14:47:58.000Z</time>
      </trkpt>
      <trkpt lat="47.16524" lon="4.92364">
        <ele>399.50599936</ele>
        <time>2020-05-21T14:48:00.000Z</time>
      </trkpt>
      <trkpt lat="47.16522" lon="4.92364">
        <ele>399.70599936</ele>
        <time>2020-05-21T14:48:02.000Z</time>
      </trkpt>
      <trkpt lat="47.1652" lon="4.92364">
        <ele>399.90599936</ele>
        <time>2020-05-21T14:48:04.000Z</time>
      </trkpt>
      <trkpt lat="47.16518" lon="4.92364">
        <ele>400</ele>
        <time>2020-05-21T14:48:06.000Z</time>
      </trkpt>
      <trkpt lat="47.16516" lon="4.92364">
        <ele>400</ele>
        <time>2020-05-21T14:48:08.000Z</time>
      </trkpt>
      <trkpt lat="47.16513" lon="4.92364">
        <ele>400</ele>
        <time>2020-05-21T14:48:10.000Z</time>
      </trkpt>
      <trkpt lat="47.16511" lon="4.92364">
        <ele>400</ele>
        <time>2020-05-21T14:48:12.000Z</time>
      </trkpt>
      <trkpt lat="47.16508" lon="4.92365">
        <ele>400</ele>
        <time>2020-05-21T14:48:14.000Z</time>
      </trkpt>
      <trkpt lat="47.16506" lon="4.92364">
        <ele>399.89400064</ele>
        <time>2020-05-21T14:48:16.000Z</time>
      </trkpt>
      <trkpt lat="47.16503" lon="4.92364">
        <ele>399.69400064</ele>
        <time>2020-05-21T14:48:18.000Z</time>
      </trkpt>
      <trkpt lat="47.16501" lon="4.92365">
        <ele>399.49400064</ele>
        <time>2020-05-21T14:48:20.000Z</time>
      </trkpt>
      <trkpt lat="47.16498" lon="4.92364">
        <ele>399.29400064</ele>
        <time>2020-05-21T14:48:22.000Z</time>
      </trkpt>
      <trkpt lat="47.16496" lon="4.92365">
        <ele>399.09400064</ele>
        <time>2020-05-21T14:48:24.000Z</time>
      </trkpt>
      <trkpt lat="47.16493" lon="4.92365">
        <ele>398.89400064</ele>
        <time>2020-05-21T14:48:26.000Z</time>
      </trkpt>
      <trkpt lat="47.16491" lon="4.92365">
        <ele>398.69400064</ele>
        <time>2020-05-21T14:48:28.000Z</time>
      </trkpt>
      <trkpt lat="47.16489" lon="4.92364">
        <ele>398.49400064</ele>
        <time>2020-05-21T14:48:30.000Z</time>
      </trkpt>
      <trkpt lat="47.16486" lon="4.92363">
        <ele>398.29400064</ele>
        <time>2020-05-21T14:48:32.000Z</time>
      </trkpt>
      <trkpt lat="47.16483" lon="4.92363">
        <ele>398.09400064</ele>
        <time>2020-05-21T14:48:34.000Z</time>
      </trkpt>
      <trkpt lat="47.16481" lon="4.92362">
        <ele>398</ele>
        <time>2020-05-21T14:48:36.000Z</time>
      </trkpt>
      <trkpt lat="47.16478" lon="4.92362">
        <ele>398</ele>
        <time>2020-05-21T14:48:38.000Z</time>
      </trkpt>
      <trkpt lat="47.16476" lon="4.92362">
        <ele>398</ele>
        <time>2020-05-21T14:48:40.000Z</time>
      </trkpt>
      <trkpt lat="47.16473" lon="4.92362">
        <ele>398</ele>
        <time>2020-05-21T14:48:42.000Z</time>
      </trkpt>
      <trkpt lat="47.16471" lon="4.92362">
        <ele>398</ele>
        <time>2020-05-21T14:48:44.000Z</time>
      </trkpt>
      <trkpt lat="47.16469" lon="4.92361">
        <ele>398</ele>
        <time>2020-05-21T14:48:46.000Z</time>
      </trkpt>
      <trkpt lat="47.16466" lon="4.9236">
        <ele>398</ele>
        <time>2020-05-21T14:48:48.000Z</time>
      </trkpt>
      <trkpt lat="47.16463" lon="4.9236">
        <ele>398</ele>
        <time>2020-05-21T14:48:50.000Z</time>
      </trkpt>
      <trkpt lat="47.16461" lon="4.92359">
        <ele>398</ele>
        <time>2020-05-21T14:48:52.000Z</time>
      </trkpt>
      <trkpt lat="47.16458" lon="4.92359">
        <ele>398</ele>
        <time>2020-05-21T14:48:54.000Z</time>
      </trkpt>
      <trkpt lat="47.16456" lon="4.92358">
        <ele>397.89400064</ele>
        <time>2020-05-21T14:48:56.000Z</time>
      </trkpt>
      <trkpt lat="47.16453" lon="4.92357">
        <ele>397.69400064</ele>
        <time>2020-05-21T14:48:58.000Z</time>
      </trkpt>
      <trkpt lat="47.16451" lon="4.92356">
        <ele>397.49400064</ele>
        <time>2020-05-21T14:49:00.000Z</time>
      </trkpt>
      <trkpt lat="47.16448" lon="4.92355">
        <ele>397.29400064</ele>
        <time>2020-05-21T14:49:02.000Z</time>
      </trkpt>
      <trkpt lat="47.16446" lon="4.92354">
        <ele>397.09400064</ele>
        <time>2020-05-21T14:49:04.000Z</time>
      </trkpt>
      <trkpt lat="47.16444" lon="4.92353">
        <ele>397</ele>
        <time>2020-05-21T14:49:06.000Z</time>
      </trkpt>
      <trkpt lat="47.16441" lon="4.92354">
        <ele>397</ele>
        <time>2020-05-21T14:49:08.000Z</time>
      </trkpt>
      <trkpt lat="47.16439" lon="4.92353">
        <ele>397</ele>
        <time>2020-05-21T14:49:10.000Z</time>
      </trkpt>
      <trkpt lat="47.16437" lon="4.92353">
        <ele>397</ele>
        <time>2020-05-21T14:49:12.000Z</time>
      </trkpt>
      <trkpt lat="47.16434" lon="4.92353">
        <ele>397</ele>
        <time>2020-05-21T14:49:14.000Z</time>
      </trkpt>
      <trkpt lat="47.16432" lon="4.92351">
        <ele>397</ele>
        <time>2020-05-21T14:49:16.000Z</time>
      </trkpt>
      <trkpt lat="47.16429" lon="4.9235">
        <ele>397</ele>
        <time>2020-05-21T14:49:18.000Z</time>
      </trkpt>
      <trkpt lat="47.16427" lon="4.92349">
        <ele>397</ele>
        <time>2020-05-21T14:49:20.000Z</time>
      </trkpt>
      <trkpt lat="47.16425" lon="4.92348">
        <ele>397</ele>
        <time>2020-05-21T14:49:22.000Z</time>
      </trkpt>
      <trkpt lat="47.16423" lon="4.92348">
        <ele>397</ele>
        <time>2020-05-21T14:49:24.000Z</time>
      </trkpt>
      <trkpt lat="47.1642" lon="4.92347">
        <ele>396.89668671918</ele>
        <time>2020-05-21T14:49:26.000Z</time>
      </trkpt>
      <trkpt lat="47.16418" lon="4.92346">
        <ele>396.70175482371</ele>
        <time>2020-05-21T14:49:28.000Z</time>
      </trkpt>
      <trkpt lat="47.16415" lon="4.92346">
        <ele>396.50682292823</ele>
        <time>2020-05-21T14:49:30.000Z</time>
      </trkpt>
      <trkpt lat="47.16413" lon="4.92345">
        <ele>396.31189103276</ele>
        <time>2020-05-21T14:49:32.000Z</time>
      </trkpt>
      <trkpt lat="47.1641" lon="4.92344">
        <ele>396.11695913728</ele>
        <time>2020-05-21T14:49:34.000Z</time>
      </trkpt>
      <trkpt lat="47.16407" lon="4.92344">
        <ele>396</ele>
        <time>2020-05-21T14:49:36.000Z</time>
      </trkpt>
      <trkpt lat="47.16405" lon="4.92343">
        <ele>396</ele>
        <time>2020-05-21T14:49:38.000Z</time>
      </trkpt>
      <trkpt lat="47.16402" lon="4.92341">
        <ele>396</ele>
        <time>2020-05-21T14:49:40.000Z</time>
      </trkpt>
      <trkpt lat="47.164" lon="4.9234">
        <ele>396</ele>
        <time>2020-05-21T14:49:42.000Z</time>
      </trkpt>
      <trkpt lat="47.16398" lon="4.92339">
        <ele>396</ele>
        <time>2020-05-21T14:49:44.000Z</time>
      </trkpt>
      <trkpt lat="47.16395" lon="4.92338">
        <ele>395.89400064</ele>
        <time>2020-05-21T14:49:46.000Z</time>
      </trkpt>
      <trkpt lat="47.16392" lon="4.92337">
        <ele>395.69400064</ele>
        <time>2020-05-21T14:49:48.000Z</time>
      </trkpt>
      <trkpt lat="47.1639" lon="4.92336">
        <ele>395.49400064</ele>
        <time>2020-05-21T14:49:50.000Z</time>
      </trkpt>
      <trkpt lat="47.16387" lon="4.92335">
        <ele>395.29400064</ele>
        <time>2020-05-21T14:49:52.000Z</time>
      </trkpt>
      <trkpt lat="47.16385" lon="4.92334">
        <ele>395.09400064</ele>
        <time>2020-05-21T14:49:54.000Z</time>
      </trkpt>
      <trkpt lat="47.16382" lon="4.92333">
        <ele>394.78800128</ele>
        <time>2020-05-21T14:49:56.000Z</time>
      </trkpt>
      <trkpt lat="47.1638" lon="4.92332">
        <ele>394.38800128</ele>
        <time>2020-05-21T14:49:58.000Z</time>
      </trkpt>
      <trkpt lat="47.16378" lon="4.92331">
        <ele>393.98800128</ele>
        <time>2020-05-21T14:50:00.000Z</time>
      </trkpt>
      <trkpt lat="47.16376" lon="4.9233">
        <ele>393.58800128</ele>
        <time>2020-05-21T14:50:02.000Z</time>
      </trkpt>
      <trkpt lat="47.16375" lon="4.92329">
        <ele>393.38800128</ele>
        <time>2020-05-21T14:50:03.000Z</time>
      </trkpt>
      <trkpt lat="47.16372" lon="4.92328">
        <ele>393</ele>
        <time>2020-05-21T14:50:05.000Z</time>
      </trkpt>
      <trkpt lat="47.16371" lon="4.92326">
        <ele>393</ele>
        <time>2020-05-21T14:50:07.000Z</time>
      </trkpt>
      <trkpt lat="47.16368" lon="4.92325">
        <ele>393</ele>
        <time>2020-05-21T14:50:09.000Z</time>
      </trkpt>
      <trkpt lat="47.16366" lon="4.92324">
        <ele>393</ele>
        <time>2020-05-21T14:50:11.000Z</time>
      </trkpt>
      <trkpt lat="47.16364" lon="4.92322">
        <ele>393</ele>
        <time>2020-05-21T14:50:13.000Z</time>
      </trkpt>
      <trkpt lat="47.16362" lon="4.92321">
        <ele>393</ele>
        <time>2020-05-21T14:50:15.000Z</time>
      </trkpt>
      <trkpt lat="47.1636" lon="4.92319">
        <ele>393</ele>
        <time>2020-05-21T14:50:17.000Z</time>
      </trkpt>
      <trkpt lat="47.16358" lon="4.92317">
        <ele>393</ele>
        <time>2020-05-21T14:50:19.000Z</time>
      </trkpt>
      <trkpt lat="47.16356" lon="4.92316">
        <ele>393</ele>
        <time>2020-05-21T14:50:21.000Z</time>
      </trkpt>
      <trkpt lat="47.16353" lon="4.92315">
        <ele>393</ele>
        <time>2020-05-21T14:50:23.000Z</time>
      </trkpt>
      <trkpt lat="47.16351" lon="4.92315">
        <ele>392.99417537502</ele>
        <time>2020-05-21T14:50:25.000Z</time>
      </trkpt>
      <trkpt lat="47.16349" lon="4.92314">
        <ele>392.80000049709</ele>
        <time>2020-05-21T14:50:27.000Z</time>
      </trkpt>
      <trkpt lat="47.16347" lon="4.92312">
        <ele>392.60582561915</ele>
        <time>2020-05-21T14:50:29.000Z</time>
      </trkpt>
      <trkpt lat="47.16345" lon="4.92311">
        <ele>392.41165074122</ele>
        <time>2020-05-21T14:50:31.000Z</time>
      </trkpt>
      <trkpt lat="47.16343" lon="4.92309">
        <ele>392.21747586329</ele>
        <time>2020-05-21T14:50:33.000Z</time>
      </trkpt>
      <trkpt lat="47.1634" lon="4.92309">
        <ele>392.02330098535</ele>
        <time>2020-05-21T14:50:35.000Z</time>
      </trkpt>
      <trkpt lat="47.16338" lon="4.92308">
        <ele>392</ele>
        <time>2020-05-21T14:50:37.000Z</time>
      </trkpt>
      <trkpt lat="47.16336" lon="4.92307">
        <ele>392</ele>
        <time>2020-05-21T14:50:39.000Z</time>
      </trkpt>
      <trkpt lat="47.16333" lon="4.92306">
        <ele>392</ele>
        <time>2020-05-21T14:50:41.000Z</time>
      </trkpt>
      <trkpt lat="47.16331" lon="4.92305">
        <ele>392</ele>
        <time>2020-05-21T14:50:43.000Z</time>
      </trkpt>
      <trkpt lat="47.16329" lon="4.92304">
        <ele>391.99400064</ele>
        <time>2020-05-21T14:50:45.000Z</time>
      </trkpt>
      <trkpt lat="47.16327" lon="4.92303">
        <ele>391.79400064</ele>
        <time>2020-05-21T14:50:47.000Z</time>
      </trkpt>
      <trkpt lat="47.16324" lon="4.92302">
        <ele>391.59400064</ele>
        <time>2020-05-21T14:50:49.000Z</time>
      </trkpt>
      <trkpt lat="47.16322" lon="4.92301">
        <ele>391.39400064</ele>
        <time>2020-05-21T14:50:51.000Z</time>
      </trkpt>
      <trkpt lat="47.1632" lon="4.92299">
        <ele>391.19400064</ele>
        <time>2020-05-21T14:50:53.000Z</time>
      </trkpt>
      <trkpt lat="47.16318" lon="4.92298">
        <ele>390.99400064</ele>
        <time>2020-05-21T14:50:55.000Z</time>
      </trkpt>
      <trkpt lat="47.16315" lon="4.92297">
        <ele>390.79400064</ele>
        <time>2020-05-21T14:50:57.000Z</time>
      </trkpt>
      <trkpt lat="47.16313" lon="4.92295">
        <ele>390.59400064</ele>
        <time>2020-05-21T14:50:59.000Z</time>
      </trkpt>
      <trkpt lat="47.16311" lon="4.92293">
        <ele>390.39400064</ele>
        <time>2020-05-21T14:51:01.000Z</time>
      </trkpt>
      <trkpt lat="47.16308" lon="4.92291">
        <ele>390.19400064</ele>
        <time>2020-05-21T14:51:03.000Z</time>
      </trkpt>
      <trkpt lat="47.16307" lon="4.92289">
        <ele>390</ele>
        <time>2020-05-21T14:51:05.000Z</time>
      </trkpt>
      <trkpt lat="47.16305" lon="4.92288">
        <ele>390</ele>
        <time>2020-05-21T14:51:07.000Z</time>
      </trkpt>
      <trkpt lat="47.16303" lon="4.92286">
        <ele>390</ele>
        <time>2020-05-21T14:51:09.000Z</time>
      </trkpt>
      <trkpt lat="47.16301" lon="4.92285">
        <ele>390</ele>
        <time>2020-05-21T14:51:11.000Z</time>
      </trkpt>
      <trkpt lat="47.16298" lon="4.92283">
        <ele>390</ele>
        <time>2020-05-21T14:51:13.000Z</time>
      </trkpt>
      <trkpt lat="47.16296" lon="4.92282">
        <ele>389.99400064</ele>
        <time>2020-05-21T14:51:15.000Z</time>
      </trkpt>
      <trkpt lat="47.16294" lon="4.92281">
        <ele>389.79400064</ele>
        <time>2020-05-21T14:51:17.000Z</time>
      </trkpt>
      <trkpt lat="47.16292" lon="4.9228">
        <ele>389.59400064</ele>
        <time>2020-05-21T14:51:19.000Z</time>
      </trkpt>
      <trkpt lat="47.1629" lon="4.92279">
        <ele>389.39400064</ele>
        <time>2020-05-21T14:51:21.000Z</time>
      </trkpt>
      <trkpt lat="47.16288" lon="4.92276">
        <ele>389.19400064</ele>
        <time>2020-05-21T14:51:23.000Z</time>
      </trkpt>
      <trkpt lat="47.16285" lon="4.92275">
        <ele>389</ele>
        <time>2020-05-21T14:51:25.000Z</time>
      </trkpt>
      <trkpt lat="47.16283" lon="4.92274">
        <ele>389</ele>
        <time>2020-05-21T14:51:27.000Z</time>
      </trkpt>
      <trkpt lat="47.16281" lon="4.92273">
        <ele>389</ele>
        <time>2020-05-21T14:51:29.000Z</time>
      </trkpt>
      <trkpt lat="47.16279" lon="4.92272">
        <ele>389</ele>
        <time>2020-05-21T14:51:31.000Z</time>
      </trkpt>
      <trkpt lat="47.16277" lon="4.92272">
        <ele>387.19400064</ele>
        <time>2020-05-21T14:51:53.000Z</time>
      </trkpt>
      <trkpt lat="47.16275" lon="4.92273">
        <ele>387.20599936</ele>
        <time>2020-05-21T14:52:57.000Z</time>
      </trkpt>
      <trkpt lat="47.16273" lon="4.92271">
        <ele>387.40599936</ele>
        <time>2020-05-21T14:52:59.000Z</time>
      </trkpt>
      <trkpt lat="47.1627" lon="4.9227">
        <ele>387.60599936</ele>
        <time>2020-05-21T14:53:01.000Z</time>
      </trkpt>
      <trkpt lat="47.16268" lon="4.92269">
        <ele>387.90599936</ele>
        <time>2020-05-21T14:53:04.000Z</time>
      </trkpt>
      <trkpt lat="47.16266" lon="4.92268">
        <ele>388</ele>
        <time>2020-05-21T14:53:07.000Z</time>
      </trkpt>
      <trkpt lat="47.16264" lon="4.92267">
        <ele>388</ele>
        <time>2020-05-21T14:53:09.000Z</time>
      </trkpt>
      <trkpt lat="47.16261" lon="4.92266">
        <ele>388</ele>
        <time>2020-05-21T14:53:11.000Z</time>
      </trkpt>
      <trkpt lat="47.16259" lon="4.92264">
        <ele>388</ele>
        <time>2020-05-21T14:53:14.000Z</time>
      </trkpt>
      <trkpt lat="47.16257" lon="4.92263">
        <ele>387.89400064</ele>
        <time>2020-05-21T14:53:16.000Z</time>
      </trkpt>
      <trkpt lat="47.16255" lon="4.92263">
        <ele>387.69400064</ele>
        <time>2020-05-21T14:53:18.000Z</time>
      </trkpt>
      <trkpt lat="47.16253" lon="4.92261">
        <ele>387.49400064</ele>
        <time>2020-05-21T14:53:20.000Z</time>
      </trkpt>
      <trkpt lat="47.1625" lon="4.9226">
        <ele>387.29400064</ele>
        <time>2020-05-21T14:53:22.000Z</time>
      </trkpt>
      <trkpt lat="47.16248" lon="4.92259">
        <ele>387.09400064</ele>
        <time>2020-05-21T14:53:24.000Z</time>
      </trkpt>
      <trkpt lat="47.16246" lon="4.92256">
        <ele>386.79400064</ele>
        <time>2020-05-21T14:53:27.000Z</time>
      </trkpt>
      <trkpt lat="47.16244" lon="4.92255">
        <ele>386.59400064</ele>
        <time>2020-05-21T14:53:29.000Z</time>
      </trkpt>
      <trkpt lat="47.16242" lon="4.92254">
        <ele>386.39400064</ele>
        <time>2020-05-21T14:53:31.000Z</time>
      </trkpt>
      <trkpt lat="47.16239" lon="4.92252">
        <ele>386.19400064</ele>
        <time>2020-05-21T14:53:33.000Z</time>
      </trkpt>
      <trkpt lat="47.16237" lon="4.9225">
        <ele>385.99417537502</ele>
        <time>2020-05-21T14:53:35.000Z</time>
      </trkpt>
      <trkpt lat="47.16235" lon="4.92249">
        <ele>385.80000049709</ele>
        <time>2020-05-21T14:53:37.000Z</time>
      </trkpt>
      <trkpt lat="47.16232" lon="4.92247">
        <ele>385.50873818019</ele>
        <time>2020-05-21T14:53:40.000Z</time>
      </trkpt>
      <trkpt lat="47.16229" lon="4.92245">
        <ele>385.31456330225</ele>
        <time>2020-05-21T14:53:42.000Z</time>
      </trkpt>
      <trkpt lat="47.16227" lon="4.92244">
        <ele>385.21747586329</ele>
        <time>2020-05-21T14:53:43.000Z</time>
      </trkpt>
      <trkpt lat="47.16226" lon="4.92243">
        <ele>385.12038842432</ele>
        <time>2020-05-21T14:53:44.000Z</time>
      </trkpt>
      <trkpt lat="47.16223" lon="4.92242">
        <ele>384.92299901179</ele>
        <time>2020-05-21T14:53:46.000Z</time>
      </trkpt>
      <trkpt lat="47.16221" lon="4.9224">
        <ele>384.7203648323</ele>
        <time>2020-05-21T14:53:48.000Z</time>
      </trkpt>
      <trkpt lat="47.1622" lon="4.92238">
        <ele>384.41641356307</ele>
        <time>2020-05-21T14:53:51.000Z</time>
      </trkpt>
      <trkpt lat="47.16218" lon="4.92237">
        <ele>384.21377938358</ele>
        <time>2020-05-21T14:53:53.000Z</time>
      </trkpt>
      <trkpt lat="47.16216" lon="4.92235">
        <ele>384.11246229383</ele>
        <time>2020-05-21T14:53:54.000Z</time>
      </trkpt>
      <trkpt lat="47.16214" lon="4.92234">
        <ele>384.01114520409</ele>
        <time>2020-05-21T14:53:55.000Z</time>
      </trkpt>
      <trkpt lat="47.16212" lon="4.92233">
        <ele>384</ele>
        <time>2020-05-21T14:53:56.000Z</time>
      </trkpt>
      <trkpt lat="47.1621" lon="4.92232">
        <ele>384</ele>
        <time>2020-05-21T14:53:59.000Z</time>
      </trkpt>
      <trkpt lat="47.16208" lon="4.9223">
        <ele>384</ele>
        <time>2020-05-21T14:54:02.000Z</time>
      </trkpt>
      <trkpt lat="47.16206" lon="4.92227">
        <ele>384</ele>
        <time>2020-05-21T14:54:04.000Z</time>
      </trkpt>
      <trkpt lat="47.16204" lon="4.92225">
        <ele>384</ele>
        <time>2020-05-21T14:54:05.000Z</time>
      </trkpt>
      <trkpt lat="47.16202" lon="4.92223">
        <ele>384</ele>
        <time>2020-05-21T14:54:06.000Z</time>
      </trkpt>
      <trkpt lat="47.16201" lon="4.92222">
        <ele>384</ele>
        <time>2020-05-21T14:54:07.000Z</time>
      </trkpt>
      <trkpt lat="47.16199" lon="4.9222">
        <ele>384</ele>
        <time>2020-05-21T14:54:09.000Z</time>
      </trkpt>
      <trkpt lat="47.16198" lon="4.92219">
        <ele>384</ele>
        <time>2020-05-21T14:54:14.000Z</time>
      </trkpt>
      <trkpt lat="47.16195" lon="4.92217">
        <ele>383.89400064</ele>
        <time>2020-05-21T14:54:16.000Z</time>
      </trkpt>
      <trkpt lat="47.16192" lon="4.92217">
        <ele>383.69400064</ele>
        <time>2020-05-21T14:54:18.000Z</time>
      </trkpt>
      <trkpt lat="47.1619" lon="4.92215">
        <ele>383.49400064</ele>
        <time>2020-05-21T14:54:20.000Z</time>
      </trkpt>
      <trkpt lat="47.16188" lon="4.92213">
        <ele>383.19400064</ele>
        <time>2020-05-21T14:54:23.000Z</time>
      </trkpt>
      <trkpt lat="47.16186" lon="4.92212">
        <ele>382.99400064</ele>
        <time>2020-05-21T14:54:25.000Z</time>
      </trkpt>
      <trkpt lat="47.16183" lon="4.9221">
        <ele>382.79400064</ele>
        <time>2020-05-21T14:54:27.000Z</time>
      </trkpt>
      <trkpt lat="47.1618" lon="4.92208">
        <ele>382.59400064</ele>
        <time>2020-05-21T14:54:29.000Z</time>
      </trkpt>
      <trkpt lat="47.16178" lon="4.92207">
        <ele>382.49400064</ele>
        <time>2020-05-21T14:54:30.000Z</time>
      </trkpt>
      <trkpt lat="47.16176" lon="4.92205">
        <ele>382.29400064</ele>
        <time>2020-05-21T14:54:32.000Z</time>
      </trkpt>
      <trkpt lat="47.16175" lon="4.92203">
        <ele>381.99400064</ele>
        <time>2020-05-21T14:54:35.000Z</time>
      </trkpt>
      <trkpt lat="47.16172" lon="4.92202">
        <ele>381.69400064</ele>
        <time>2020-05-21T14:54:38.000Z</time>
      </trkpt>
      <trkpt lat="47.16171" lon="4.922">
        <ele>381.49400064</ele>
        <time>2020-05-21T14:54:40.000Z</time>
      </trkpt>
      <trkpt lat="47.16167" lon="4.92197">
        <ele>381.29400064</ele>
        <time>2020-05-21T14:54:42.000Z</time>
      </trkpt>
      <trkpt lat="47.16166" lon="4.92196">
        <ele>381.19400064</ele>
        <time>2020-05-21T14:54:43.000Z</time>
      </trkpt>
      <trkpt lat="47.16164" lon="4.92194">
        <ele>381</ele>
        <time>2020-05-21T14:54:45.000Z</time>
      </trkpt>
      <trkpt lat="47.16163" lon="4.92191">
        <ele>381</ele>
        <time>2020-05-21T14:54:48.000Z</time>
      </trkpt>
      <trkpt lat="47.16161" lon="4.9219">
        <ele>381</ele>
        <time>2020-05-21T14:54:50.000Z</time>
      </trkpt>
      <trkpt lat="47.16159" lon="4.92187">
        <ele>381</ele>
        <time>2020-05-21T14:54:53.000Z</time>
      </trkpt>
      <trkpt lat="47.16157" lon="4.92186">
        <ele>380.98800128</ele>
        <time>2020-05-21T14:54:55.000Z</time>
      </trkpt>
      <trkpt lat="47.16155" lon="4.92184">
        <ele>380.58800128</ele>
        <time>2020-05-21T14:54:57.000Z</time>
      </trkpt>
      <trkpt lat="47.16153" lon="4.92183">
        <ele>380.18800128</ele>
        <time>2020-05-21T14:54:59.000Z</time>
      </trkpt>
      <trkpt lat="47.16151" lon="4.9218">
        <ele>379.58800128</ele>
        <time>2020-05-21T14:55:02.000Z</time>
      </trkpt>
      <trkpt lat="47.1615" lon="4.92179">
        <ele>379.38800128</ele>
        <time>2020-05-21T14:55:03.000Z</time>
      </trkpt>
      <trkpt lat="47.16148" lon="4.92177">
        <ele>379</ele>
        <time>2020-05-21T14:55:05.000Z</time>
      </trkpt>
      <trkpt lat="47.16146" lon="4.92175">
        <ele>379</ele>
        <time>2020-05-21T14:55:07.000Z</time>
      </trkpt>
      <trkpt lat="47.16145" lon="4.92173">
        <ele>379</ele>
        <time>2020-05-21T14:55:09.000Z</time>
      </trkpt>
      <trkpt lat="47.16143" lon="4.92171">
        <ele>379</ele>
        <time>2020-05-21T14:55:11.000Z</time>
      </trkpt>
      <trkpt lat="47.16141" lon="4.92169">
        <ele>379</ele>
        <time>2020-05-21T14:55:12.000Z</time>
      </trkpt>
      <trkpt lat="47.16139" lon="4.92168">
        <ele>379</ele>
        <time>2020-05-21T14:55:13.000Z</time>
      </trkpt>
      <trkpt lat="47.16137" lon="4.92166">
        <ele>379</ele>
        <time>2020-05-21T14:55:14.000Z</time>
      </trkpt>
      <trkpt lat="47.16134" lon="4.92164">
        <ele>378.89400064</ele>
        <time>2020-05-21T14:55:16.000Z</time>
      </trkpt>
      <trkpt lat="47.16132" lon="4.92162">
        <ele>378.69400064</ele>
        <time>2020-05-21T14:55:18.000Z</time>
      </trkpt>
      <trkpt lat="47.16131" lon="4.9216">
        <ele>378.49400064</ele>
        <time>2020-05-21T14:55:20.000Z</time>
      </trkpt>
      <trkpt lat="47.1613" lon="4.92158">
        <ele>378.19400064</ele>
        <time>2020-05-21T14:55:23.000Z</time>
      </trkpt>
      <trkpt lat="47.16128" lon="4.92155">
        <ele>377.99400064</ele>
        <time>2020-05-21T14:55:25.000Z</time>
      </trkpt>
      <trkpt lat="47.16125" lon="4.92153">
        <ele>377.79400064</ele>
        <time>2020-05-21T14:55:27.000Z</time>
      </trkpt>
      <trkpt lat="47.16124" lon="4.92152">
        <ele>377.69400064</ele>
        <time>2020-05-21T14:55:28.000Z</time>
      </trkpt>
      <trkpt lat="47.16122" lon="4.9215">
        <ele>377.59400064</ele>
        <time>2020-05-21T14:55:29.000Z</time>
      </trkpt>
      <trkpt lat="47.1612" lon="4.92148">
        <ele>377.39400064</ele>
        <time>2020-05-21T14:55:31.000Z</time>
      </trkpt>
      <trkpt lat="47.16119" lon="4.92146">
        <ele>377.19400064</ele>
        <time>2020-05-21T14:55:33.000Z</time>
      </trkpt>
      <trkpt lat="47.16118" lon="4.92144">
        <ele>377</ele>
        <time>2020-05-21T14:55:36.000Z</time>
      </trkpt>
      <trkpt lat="47.16116" lon="4.92142">
        <ele>377</ele>
        <time>2020-05-21T14:55:38.000Z</time>
      </trkpt>
      <trkpt lat="47.16113" lon="4.92141">
        <ele>377</ele>
        <time>2020-05-21T14:55:40.000Z</time>
      </trkpt>
      <trkpt lat="47.16111" lon="4.9214">
        <ele>377</ele>
        <time>2020-05-21T14:55:42.000Z</time>
      </trkpt>
      <trkpt lat="47.16109" lon="4.92138">
        <ele>377</ele>
        <time>2020-05-21T14:55:44.000Z</time>
      </trkpt>
      <trkpt lat="47.16107" lon="4.92136">
        <ele>377</ele>
        <time>2020-05-21T14:55:46.000Z</time>
      </trkpt>
      <trkpt lat="47.16105" lon="4.92134">
        <ele>377</ele>
        <time>2020-05-21T14:55:48.000Z</time>
      </trkpt>
      <trkpt lat="47.16103" lon="4.92132">
        <ele>377</ele>
        <time>2020-05-21T14:55:51.000Z</time>
      </trkpt>
      <trkpt lat="47.16101" lon="4.92129">
        <ele>377</ele>
        <time>2020-05-21T14:55:53.000Z</time>
      </trkpt>
      <trkpt lat="47.16099" lon="4.92126">
        <ele>376.78800128</ele>
        <time>2020-05-21T14:55:56.000Z</time>
      </trkpt>
      <trkpt lat="47.16098" lon="4.92124">
        <ele>376.38800128</ele>
        <time>2020-05-21T14:55:58.000Z</time>
      </trkpt>
      <trkpt lat="47.16097" lon="4.92122">
        <ele>375.98800128</ele>
        <time>2020-05-21T14:56:00.000Z</time>
      </trkpt>
      <trkpt lat="47.16094" lon="4.9212">
        <ele>375.58800128</ele>
        <time>2020-05-21T14:56:02.000Z</time>
      </trkpt>
      <trkpt lat="47.16093" lon="4.9212">
        <ele>375.18800128</ele>
        <time>2020-05-21T14:56:04.000Z</time>
      </trkpt>
      <trkpt lat="47.16091" lon="4.92119">
        <ele>374.79400064</ele>
        <time>2020-05-21T14:56:07.000Z</time>
      </trkpt>
      <trkpt lat="47.16089" lon="4.92117">
        <ele>374.59400064</ele>
        <time>2020-05-21T14:56:09.000Z</time>
      </trkpt>
      <trkpt lat="47.16087" lon="4.92115">
        <ele>374.39400064</ele>
        <time>2020-05-21T14:56:11.000Z</time>
      </trkpt>
      <trkpt lat="47.16085" lon="4.92113">
        <ele>374.19400064</ele>
        <time>2020-05-21T14:56:13.000Z</time>
      </trkpt>
      <trkpt lat="47.16082" lon="4.92112">
        <ele>373.99400064</ele>
        <time>2020-05-21T14:56:15.000Z</time>
      </trkpt>
      <trkpt lat="47.1608" lon="4.92111">
        <ele>373.79400064</ele>
        <time>2020-05-21T14:56:17.000Z</time>
      </trkpt>
      <trkpt lat="47.16078" lon="4.9211">
        <ele>373.59400064</ele>
        <time>2020-05-21T14:56:19.000Z</time>
      </trkpt>
      <trkpt lat="47.16077" lon="4.92107">
        <ele>373.39400064</ele>
        <time>2020-05-21T14:56:21.000Z</time>
      </trkpt>
      <trkpt lat="47.16075" lon="4.92105">
        <ele>373.19400064</ele>
        <time>2020-05-21T14:56:23.000Z</time>
      </trkpt>
      <trkpt lat="47.16073" lon="4.92103">
        <ele>372.99400064</ele>
        <time>2020-05-21T14:56:25.000Z</time>
      </trkpt>
      <trkpt lat="47.16071" lon="4.92101">
        <ele>372.69400064</ele>
        <time>2020-05-21T14:56:28.000Z</time>
      </trkpt>
      <trkpt lat="47.16069" lon="4.92099">
        <ele>372.49400064</ele>
        <time>2020-05-21T14:56:30.000Z</time>
      </trkpt>
      <trkpt lat="47.16067" lon="4.92097">
        <ele>372.29400064</ele>
        <time>2020-05-21T14:56:32.000Z</time>
      </trkpt>
      <trkpt lat="47.16065" lon="4.92095">
        <ele>372.09400064</ele>
        <time>2020-05-21T14:56:34.000Z</time>
      </trkpt>
      <trkpt lat="47.16063" lon="4.92093">
        <ele>371.89400064</ele>
        <time>2020-05-21T14:56:36.000Z</time>
      </trkpt>
      <trkpt lat="47.16061" lon="4.92091">
        <ele>371.69400064</ele>
        <time>2020-05-21T14:56:38.000Z</time>
      </trkpt>
      <trkpt lat="47.16059" lon="4.9209">
        <ele>371.49400064</ele>
        <time>2020-05-21T14:56:40.000Z</time>
      </trkpt>
      <trkpt lat="47.16057" lon="4.92088">
        <ele>371.29400064</ele>
        <time>2020-05-21T14:56:42.000Z</time>
      </trkpt>
      <trkpt lat="47.16055" lon="4.92086">
        <ele>371.09400064</ele>
        <time>2020-05-21T14:56:44.000Z</time>
      </trkpt>
      <trkpt lat="47.16053" lon="4.92084">
        <ele>371</ele>
        <time>2020-05-21T14:56:46.000Z</time>
      </trkpt>
      <trkpt lat="47.16051" lon="4.92082">
        <ele>371</ele>
        <time>2020-05-21T14:56:48.000Z</time>
      </trkpt>
      <trkpt lat="47.16049" lon="4.92081">
        <ele>371</ele>
        <time>2020-05-21T14:56:50.000Z</time>
      </trkpt>
      <trkpt lat="47.16047" lon="4.92079">
        <ele>371</ele>
        <time>2020-05-21T14:56:52.000Z</time>
      </trkpt>
      <trkpt lat="47.16045" lon="4.92078">
        <ele>371</ele>
        <time>2020-05-21T14:56:54.000Z</time>
      </trkpt>
      <trkpt lat="47.16042" lon="4.92076">
        <ele>371</ele>
        <time>2020-05-21T14:56:56.000Z</time>
      </trkpt>
      <trkpt lat="47.1604" lon="4.92074">
        <ele>371</ele>
        <time>2020-05-21T14:56:58.000Z</time>
      </trkpt>
      <trkpt lat="47.16038" lon="4.92073">
        <ele>371</ele>
        <time>2020-05-21T14:57:00.000Z</time>
      </trkpt>
      <trkpt lat="47.16035" lon="4.92072">
        <ele>371</ele>
        <time>2020-05-21T14:57:02.000Z</time>
      </trkpt>
      <trkpt lat="47.16033" lon="4.92071">
        <ele>371</ele>
        <time>2020-05-21T14:57:04.000Z</time>
      </trkpt>
      <trkpt lat="47.16031" lon="4.92068">
        <ele>371</ele>
        <time>2020-05-21T14:57:06.000Z</time>
      </trkpt>
      <trkpt lat="47.16029" lon="4.92066">
        <ele>371</ele>
        <time>2020-05-21T14:57:08.000Z</time>
      </trkpt>
      <trkpt lat="47.16027" lon="4.92064">
        <ele>371</ele>
        <time>2020-05-21T14:57:10.000Z</time>
      </trkpt>
      <trkpt lat="47.16024" lon="4.92063">
        <ele>371</ele>
        <time>2020-05-21T14:57:12.000Z</time>
      </trkpt>
      <trkpt lat="47.16022" lon="4.92061">
        <ele>371</ele>
        <time>2020-05-21T14:57:14.000Z</time>
      </trkpt>
      <trkpt lat="47.1602" lon="4.9206">
        <ele>370.89400064</ele>
        <time>2020-05-21T14:57:16.000Z</time>
      </trkpt>
      <trkpt lat="47.16018" lon="4.92058">
        <ele>370.69400064</ele>
        <time>2020-05-21T14:57:18.000Z</time>
      </trkpt>
      <trkpt lat="47.16016" lon="4.92056">
        <ele>370.49400064</ele>
        <time>2020-05-21T14:57:20.000Z</time>
      </trkpt>
      <trkpt lat="47.16014" lon="4.92054">
        <ele>370.29400064</ele>
        <time>2020-05-21T14:57:22.000Z</time>
      </trkpt>
      <trkpt lat="47.16012" lon="4.92052">
        <ele>370.09400064</ele>
        <time>2020-05-21T14:57:24.000Z</time>
      </trkpt>
      <trkpt lat="47.16009" lon="4.92051">
        <ele>370.10599936</ele>
        <time>2020-05-21T14:57:26.000Z</time>
      </trkpt>
      <trkpt lat="47.16007" lon="4.92049">
        <ele>370.30599936</ele>
        <time>2020-05-21T14:57:28.000Z</time>
      </trkpt>
      <trkpt lat="47.16004" lon="4.92048">
        <ele>370.50599936</ele>
        <time>2020-05-21T14:57:30.000Z</time>
      </trkpt>
      <trkpt lat="47.16002" lon="4.92047">
        <ele>370.70599936</ele>
        <time>2020-05-21T14:57:32.000Z</time>
      </trkpt>
      <trkpt lat="47.16" lon="4.92045">
        <ele>370.90599936</ele>
        <time>2020-05-21T14:57:34.000Z</time>
      </trkpt>
      <trkpt lat="47.15998" lon="4.92044">
        <ele>371</ele>
        <time>2020-05-21T14:57:36.000Z</time>
      </trkpt>
      <trkpt lat="47.15996" lon="4.92042">
        <ele>371</ele>
        <time>2020-05-21T14:57:38.000Z</time>
      </trkpt>
      <trkpt lat="47.15993" lon="4.9204">
        <ele>371</ele>
        <time>2020-05-21T14:57:40.000Z</time>
      </trkpt>
      <trkpt lat="47.15991" lon="4.92039">
        <ele>371</ele>
        <time>2020-05-21T14:57:42.000Z</time>
      </trkpt>
      <trkpt lat="47.15989" lon="4.92037">
        <ele>371</ele>
        <time>2020-05-21T14:57:44.000Z</time>
      </trkpt>
      <trkpt lat="47.15987" lon="4.92035">
        <ele>370.89400064</ele>
        <time>2020-05-21T14:57:46.000Z</time>
      </trkpt>
      <trkpt lat="47.15984" lon="4.92035">
        <ele>370.69400064</ele>
        <time>2020-05-21T14:57:48.000Z</time>
      </trkpt>
      <trkpt lat="47.15982" lon="4.92033">
        <ele>370.49400064</ele>
        <time>2020-05-21T14:57:50.000Z</time>
      </trkpt>
      <trkpt lat="47.1598" lon="4.92031">
        <ele>370.29400064</ele>
        <time>2020-05-21T14:57:52.000Z</time>
      </trkpt>
      <trkpt lat="47.15977" lon="4.9203">
        <ele>370.09400064</ele>
        <time>2020-05-21T14:57:54.000Z</time>
      </trkpt>
      <trkpt lat="47.15975" lon="4.92029">
        <ele>370</ele>
        <time>2020-05-21T14:57:56.000Z</time>
      </trkpt>
      <trkpt lat="47.15973" lon="4.92027">
        <ele>370</ele>
        <time>2020-05-21T14:57:58.000Z</time>
      </trkpt>
      <trkpt lat="47.15971" lon="4.92026">
        <ele>370</ele>
        <time>2020-05-21T14:58:00.000Z</time>
      </trkpt>
      <trkpt lat="47.15969" lon="4.92024">
        <ele>370</ele>
        <time>2020-05-21T14:58:02.000Z</time>
      </trkpt>
      <trkpt lat="47.15966" lon="4.92023">
        <ele>370</ele>
        <time>2020-05-21T14:58:04.000Z</time>
      </trkpt>
      <trkpt lat="47.15964" lon="4.92021">
        <ele>370</ele>
        <time>2020-05-21T14:58:06.000Z</time>
      </trkpt>
      <trkpt lat="47.15962" lon="4.92019">
        <ele>370</ele>
        <time>2020-05-21T14:58:08.000Z</time>
      </trkpt>
      <trkpt lat="47.1596" lon="4.92018">
        <ele>370</ele>
        <time>2020-05-21T14:58:10.000Z</time>
      </trkpt>
      <trkpt lat="47.15958" lon="4.92016">
        <ele>370</ele>
        <time>2020-05-21T14:58:12.000Z</time>
      </trkpt>
      <trkpt lat="47.15956" lon="4.92015">
        <ele>370</ele>
        <time>2020-05-21T14:58:14.000Z</time>
      </trkpt>
      <trkpt lat="47.15954" lon="4.92013">
        <ele>370</ele>
        <time>2020-05-21T14:58:16.000Z</time>
      </trkpt>
      <trkpt lat="47.15951" lon="4.92012">
        <ele>370</ele>
        <time>2020-05-21T14:58:18.000Z</time>
      </trkpt>
      <trkpt lat="47.15949" lon="4.9201">
        <ele>370</ele>
        <time>2020-05-21T14:58:20.000Z</time>
      </trkpt>
      <trkpt lat="47.15947" lon="4.92008">
        <ele>370</ele>
        <time>2020-05-21T14:58:22.000Z</time>
      </trkpt>
      <trkpt lat="47.15945" lon="4.92007">
        <ele>370</ele>
        <time>2020-05-21T14:58:24.000Z</time>
      </trkpt>
      <trkpt lat="47.15943" lon="4.92005">
        <ele>369.89400064</ele>
        <time>2020-05-21T14:58:26.000Z</time>
      </trkpt>
      <trkpt lat="47.1594" lon="4.92004">
        <ele>369.69400064</ele>
        <time>2020-05-21T14:58:28.000Z</time>
      </trkpt>
      <trkpt lat="47.15939" lon="4.92002">
        <ele>369.49400064</ele>
        <time>2020-05-21T14:58:30.000Z</time>
      </trkpt>
      <trkpt lat="47.15937" lon="4.92001">
        <ele>369.29400064</ele>
        <time>2020-05-21T14:58:32.000Z</time>
      </trkpt>
      <trkpt lat="47.15935" lon="4.91999">
        <ele>369.09400064</ele>
        <time>2020-05-21T14:58:34.000Z</time>
      </trkpt>
      <trkpt lat="47.15933" lon="4.91997">
        <ele>368.89400064</ele>
        <time>2020-05-21T14:58:36.000Z</time>
      </trkpt>
      <trkpt lat="47.15931" lon="4.91994">
        <ele>368.69400064</ele>
        <time>2020-05-21T14:58:38.000Z</time>
      </trkpt>
      <trkpt lat="47.1593" lon="4.91992">
        <ele>368.49400064</ele>
        <time>2020-05-21T14:58:40.000Z</time>
      </trkpt>
      <trkpt lat="47.15928" lon="4.9199">
        <ele>368.29400064</ele>
        <time>2020-05-21T14:58:42.000Z</time>
      </trkpt>
      <trkpt lat="47.15926" lon="4.91988">
        <ele>368.09400064</ele>
        <time>2020-05-21T14:58:44.000Z</time>
      </trkpt>
      <trkpt lat="47.15924" lon="4.91986">
        <ele>367.89400064</ele>
        <time>2020-05-21T14:58:46.000Z</time>
      </trkpt>
      <trkpt lat="47.15922" lon="4.91984">
        <ele>367.69400064</ele>
        <time>2020-05-21T14:58:48.000Z</time>
      </trkpt>
      <trkpt lat="47.1592" lon="4.91982">
        <ele>367.49400064</ele>
        <time>2020-05-21T14:58:50.000Z</time>
      </trkpt>
      <trkpt lat="47.15918" lon="4.91981">
        <ele>367.29400064</ele>
        <time>2020-05-21T14:58:52.000Z</time>
      </trkpt>
      <trkpt lat="47.15916" lon="4.9198">
        <ele>367.09400064</ele>
        <time>2020-05-21T14:58:54.000Z</time>
      </trkpt>
      <trkpt lat="47.15914" lon="4.91978">
        <ele>367</ele>
        <time>2020-05-21T14:58:56.000Z</time>
      </trkpt>
      <trkpt lat="47.15911" lon="4.91977">
        <ele>367</ele>
        <time>2020-05-21T14:58:58.000Z</time>
      </trkpt>
      <trkpt lat="47.15909" lon="4.91975">
        <ele>367</ele>
        <time>2020-05-21T14:59:00.000Z</time>
      </trkpt>
      <trkpt lat="47.15907" lon="4.91973">
        <ele>367</ele>
        <time>2020-05-21T14:59:02.000Z</time>
      </trkpt>
      <trkpt lat="47.15904" lon="4.91972">
        <ele>367</ele>
        <time>2020-05-21T14:59:04.000Z</time>
      </trkpt>
      <trkpt lat="47.15901" lon="4.91971">
        <ele>367</ele>
        <time>2020-05-21T14:59:06.000Z</time>
      </trkpt>
      <trkpt lat="47.15899" lon="4.9197">
        <ele>367</ele>
        <time>2020-05-21T14:59:08.000Z</time>
      </trkpt>
      <trkpt lat="47.15896" lon="4.91968">
        <ele>367</ele>
        <time>2020-05-21T14:59:10.000Z</time>
      </trkpt>
      <trkpt lat="47.15894" lon="4.91967">
        <ele>367</ele>
        <time>2020-05-21T14:59:12.000Z</time>
      </trkpt>
      <trkpt lat="47.15892" lon="4.91966">
        <ele>367</ele>
        <time>2020-05-21T14:59:14.000Z</time>
      </trkpt>
      <trkpt lat="47.15889" lon="4.91965">
        <ele>366.894212148</ele>
        <time>2020-05-21T14:59:16.000Z</time>
      </trkpt>
      <trkpt lat="47.15887" lon="4.91963">
        <ele>366.69461122211</ele>
        <time>2020-05-21T14:59:18.000Z</time>
      </trkpt>
      <trkpt lat="47.15885" lon="4.91962">
        <ele>366.49501029621</ele>
        <time>2020-05-21T14:59:20.000Z</time>
      </trkpt>
      <trkpt lat="47.15882" lon="4.91961">
        <ele>366.29540937032</ele>
        <time>2020-05-21T14:59:22.000Z</time>
      </trkpt>
      <trkpt lat="47.1588" lon="4.9196">
        <ele>366.09580844443</ele>
        <time>2020-05-21T14:59:24.000Z</time>
      </trkpt>
      <trkpt lat="47.15877" lon="4.91959">
        <ele>365.89579164999</ele>
        <time>2020-05-21T14:59:26.000Z</time>
      </trkpt>
      <trkpt lat="47.15875" lon="4.91958">
        <ele>365.6953909769</ele>
        <time>2020-05-21T14:59:28.000Z</time>
      </trkpt>
      <trkpt lat="47.15872" lon="4.91958">
        <ele>365.49499030381</ele>
        <time>2020-05-21T14:59:30.000Z</time>
      </trkpt>
      <trkpt lat="47.1587" lon="4.91957">
        <ele>365.29458963072</ele>
        <time>2020-05-21T14:59:32.000Z</time>
      </trkpt>
      <trkpt lat="47.15867" lon="4.91957">
        <ele>365.09418895763</ele>
        <time>2020-05-21T14:59:34.000Z</time>
      </trkpt>
      <trkpt lat="47.15865" lon="4.91956">
        <ele>364.89400064</ele>
        <time>2020-05-21T14:59:36.000Z</time>
      </trkpt>
      <trkpt lat="47.15862" lon="4.91956">
        <ele>364.69400064</ele>
        <time>2020-05-21T14:59:38.000Z</time>
      </trkpt>
      <trkpt lat="47.1586" lon="4.91955">
        <ele>364.49400064</ele>
        <time>2020-05-21T14:59:40.000Z</time>
      </trkpt>
      <trkpt lat="47.15858" lon="4.91954">
        <ele>364.29400064</ele>
        <time>2020-05-21T14:59:42.000Z</time>
      </trkpt>
      <trkpt lat="47.15855" lon="4.91953">
        <ele>364.09400064</ele>
        <time>2020-05-21T14:59:44.000Z</time>
      </trkpt>
      <trkpt lat="47.15853" lon="4.91953">
        <ele>364</ele>
        <time>2020-05-21T14:59:46.000Z</time>
      </trkpt>
      <trkpt lat="47.1585" lon="4.91952">
        <ele>364</ele>
        <time>2020-05-21T14:59:48.000Z</time>
      </trkpt>
      <trkpt lat="47.15848" lon="4.91952">
        <ele>364</ele>
        <time>2020-05-21T14:59:50.000Z</time>
      </trkpt>
      <trkpt lat="47.15845" lon="4.91951">
        <ele>364</ele>
        <time>2020-05-21T14:59:52.000Z</time>
      </trkpt>
      <trkpt lat="47.15843" lon="4.9195">
        <ele>364</ele>
        <time>2020-05-21T14:59:54.000Z</time>
      </trkpt>
      <trkpt lat="47.15841" lon="4.91948">
        <ele>363.89688765371</ele>
        <time>2020-05-21T14:59:56.000Z</time>
      </trkpt>
      <trkpt lat="47.15839" lon="4.91947">
        <ele>363.70233488229</ele>
        <time>2020-05-21T14:59:58.000Z</time>
      </trkpt>
      <trkpt lat="47.15836" lon="4.91946">
        <ele>363.50778211086</ele>
        <time>2020-05-21T15:00:00.000Z</time>
      </trkpt>
      <trkpt lat="47.15834" lon="4.91945">
        <ele>363.31322933943</ele>
        <time>2020-05-21T15:00:02.000Z</time>
      </trkpt>
      <trkpt lat="47.15832" lon="4.91943">
        <ele>363.118676568</ele>
        <time>2020-05-21T15:00:04.000Z</time>
      </trkpt>
      <trkpt lat="47.15829" lon="4.91942">
        <ele>363</ele>
        <time>2020-05-21T15:00:06.000Z</time>
      </trkpt>
      <trkpt lat="47.15827" lon="4.91941">
        <ele>363</ele>
        <time>2020-05-21T15:00:08.000Z</time>
      </trkpt>
      <trkpt lat="47.15825" lon="4.9194">
        <ele>363</ele>
        <time>2020-05-21T15:00:10.000Z</time>
      </trkpt>
      <trkpt lat="47.15823" lon="4.91939">
        <ele>363</ele>
        <time>2020-05-21T15:00:12.000Z</time>
      </trkpt>
      <trkpt lat="47.15821" lon="4.91937">
        <ele>363</ele>
        <time>2020-05-21T15:00:14.000Z</time>
      </trkpt>
      <trkpt lat="47.15819" lon="4.91936">
        <ele>363</ele>
        <time>2020-05-21T15:00:16.000Z</time>
      </trkpt>
      <trkpt lat="47.15817" lon="4.91934">
        <ele>363</ele>
        <time>2020-05-21T15:00:18.000Z</time>
      </trkpt>
      <trkpt lat="47.15815" lon="4.91933">
        <ele>363</ele>
        <time>2020-05-21T15:00:20.000Z</time>
      </trkpt>
      <trkpt lat="47.15812" lon="4.91931">
        <ele>363</ele>
        <time>2020-05-21T15:00:22.000Z</time>
      </trkpt>
      <trkpt lat="47.1581" lon="4.9193">
        <ele>363</ele>
        <time>2020-05-21T15:00:24.000Z</time>
      </trkpt>
      <trkpt lat="47.15808" lon="4.91928">
        <ele>363</ele>
        <time>2020-05-21T15:00:26.000Z</time>
      </trkpt>
      <trkpt lat="47.15806" lon="4.91926">
        <ele>363</ele>
        <time>2020-05-21T15:00:28.000Z</time>
      </trkpt>
      <trkpt lat="47.15804" lon="4.91925">
        <ele>363</ele>
        <time>2020-05-21T15:00:30.000Z</time>
      </trkpt>
      <trkpt lat="47.15802" lon="4.91923">
        <ele>363</ele>
        <time>2020-05-21T15:00:32.000Z</time>
      </trkpt>
      <trkpt lat="47.158" lon="4.91921">
        <ele>363</ele>
        <time>2020-05-21T15:00:34.000Z</time>
      </trkpt>
      <trkpt lat="47.15798" lon="4.91918">
        <ele>363</ele>
        <time>2020-05-21T15:00:36.000Z</time>
      </trkpt>
      <trkpt lat="47.15796" lon="4.91917">
        <ele>363</ele>
        <time>2020-05-21T15:00:38.000Z</time>
      </trkpt>
      <trkpt lat="47.15794" lon="4.91916">
        <ele>363</ele>
        <time>2020-05-21T15:00:40.000Z</time>
      </trkpt>
      <trkpt lat="47.15792" lon="4.91914">
        <ele>363</ele>
        <time>2020-05-21T15:00:42.000Z</time>
      </trkpt>
      <trkpt lat="47.15789" lon="4.91913">
        <ele>363</ele>
        <time>2020-05-21T15:00:44.000Z</time>
      </trkpt>
      <trkpt lat="47.15787" lon="4.91911">
        <ele>362.89400064</ele>
        <time>2020-05-21T15:00:46.000Z</time>
      </trkpt>
      <trkpt lat="47.15785" lon="4.91909">
        <ele>362.69400064</ele>
        <time>2020-05-21T15:00:48.000Z</time>
      </trkpt>
      <trkpt lat="47.15783" lon="4.91908">
        <ele>362.49400064</ele>
        <time>2020-05-21T15:00:50.000Z</time>
      </trkpt>
      <trkpt lat="47.15782" lon="4.91906">
        <ele>362.29400064</ele>
        <time>2020-05-21T15:00:52.000Z</time>
      </trkpt>
      <trkpt lat="47.1578" lon="4.91904">
        <ele>362.09400064</ele>
        <time>2020-05-21T15:00:54.000Z</time>
      </trkpt>
      <trkpt lat="47.15777" lon="4.91902">
        <ele>361.89400064</ele>
        <time>2020-05-21T15:00:56.000Z</time>
      </trkpt>
      <trkpt lat="47.15775" lon="4.919">
        <ele>361.69400064</ele>
        <time>2020-05-21T15:00:58.000Z</time>
      </trkpt>
      <trkpt lat="47.15773" lon="4.91898">
        <ele>361.49400064</ele>
        <time>2020-05-21T15:01:00.000Z</time>
      </trkpt>
      <trkpt lat="47.1577" lon="4.91897">
        <ele>361.29400064</ele>
        <time>2020-05-21T15:01:02.000Z</time>
      </trkpt>
      <trkpt lat="47.15768" lon="4.91895">
        <ele>361.09400064</ele>
        <time>2020-05-21T15:01:04.000Z</time>
      </trkpt>
      <trkpt lat="47.15766" lon="4.91893">
        <ele>361</ele>
        <time>2020-05-21T15:01:06.000Z</time>
      </trkpt>
      <trkpt lat="47.15764" lon="4.91892">
        <ele>361</ele>
        <time>2020-05-21T15:01:08.000Z</time>
      </trkpt>
      <trkpt lat="47.15762" lon="4.91891">
        <ele>361</ele>
        <time>2020-05-21T15:01:10.000Z</time>
      </trkpt>
      <trkpt lat="47.1576" lon="4.91889">
        <ele>361</ele>
        <time>2020-05-21T15:01:12.000Z</time>
      </trkpt>
      <trkpt lat="47.15758" lon="4.91888">
        <ele>361</ele>
        <time>2020-05-21T15:01:14.000Z</time>
      </trkpt>
      <trkpt lat="47.15755" lon="4.91887">
        <ele>360.89400064</ele>
        <time>2020-05-21T15:01:16.000Z</time>
      </trkpt>
      <trkpt lat="47.15753" lon="4.91886">
        <ele>360.69400064</ele>
        <time>2020-05-21T15:01:18.000Z</time>
      </trkpt>
      <trkpt lat="47.15751" lon="4.91884">
        <ele>360.49400064</ele>
        <time>2020-05-21T15:01:20.000Z</time>
      </trkpt>
      <trkpt lat="47.15749" lon="4.91882">
        <ele>360.29400064</ele>
        <time>2020-05-21T15:01:22.000Z</time>
      </trkpt>
      <trkpt lat="47.15747" lon="4.91881">
        <ele>360.09400064</ele>
        <time>2020-05-21T15:01:24.000Z</time>
      </trkpt>
      <trkpt lat="47.15745" lon="4.91879">
        <ele>359.89400064</ele>
        <time>2020-05-21T15:01:26.000Z</time>
      </trkpt>
      <trkpt lat="47.15743" lon="4.91877">
        <ele>359.69400064</ele>
        <time>2020-05-21T15:01:28.000Z</time>
      </trkpt>
      <trkpt lat="47.15741" lon="4.91876">
        <ele>359.49400064</ele>
        <time>2020-05-21T15:01:30.000Z</time>
      </trkpt>
      <trkpt lat="47.15739" lon="4.91874">
        <ele>359.29400064</ele>
        <time>2020-05-21T15:01:32.000Z</time>
      </trkpt>
      <trkpt lat="47.15737" lon="4.91873">
        <ele>359.09400064</ele>
        <time>2020-05-21T15:01:34.000Z</time>
      </trkpt>
      <trkpt lat="47.15735" lon="4.91872">
        <ele>359</ele>
        <time>2020-05-21T15:01:36.000Z</time>
      </trkpt>
      <trkpt lat="47.15733" lon="4.91871">
        <ele>359</ele>
        <time>2020-05-21T15:01:38.000Z</time>
      </trkpt>
      <trkpt lat="47.15731" lon="4.9187">
        <ele>359</ele>
        <time>2020-05-21T15:01:40.000Z</time>
      </trkpt>
      <trkpt lat="47.15728" lon="4.91869">
        <ele>359</ele>
        <time>2020-05-21T15:01:42.000Z</time>
      </trkpt>
      <trkpt lat="47.15726" lon="4.91866">
        <ele>359</ele>
        <time>2020-05-21T15:01:45.000Z</time>
      </trkpt>
      <trkpt lat="47.15725" lon="4.91864">
        <ele>359</ele>
        <time>2020-05-21T15:01:47.000Z</time>
      </trkpt>
      <trkpt lat="47.15722" lon="4.91863">
        <ele>359</ele>
        <time>2020-05-21T15:01:49.000Z</time>
      </trkpt>
      <trkpt lat="47.1572" lon="4.91861">
        <ele>359</ele>
        <time>2020-05-21T15:01:51.000Z</time>
      </trkpt>
      <trkpt lat="47.15717" lon="4.9186">
        <ele>359</ele>
        <time>2020-05-21T15:01:53.000Z</time>
      </trkpt>
      <trkpt lat="47.15715" lon="4.91858">
        <ele>358.98800128</ele>
        <time>2020-05-21T15:01:55.000Z</time>
      </trkpt>
      <trkpt lat="47.15713" lon="4.91856">
        <ele>358.58800128</ele>
        <time>2020-05-21T15:01:57.000Z</time>
      </trkpt>
      <trkpt lat="47.15711" lon="4.91854">
        <ele>358.18800128</ele>
        <time>2020-05-21T15:01:59.000Z</time>
      </trkpt>
      <trkpt lat="47.15709" lon="4.91853">
        <ele>357.78800128</ele>
        <time>2020-05-21T15:02:01.000Z</time>
      </trkpt>
      <trkpt lat="47.15707" lon="4.91852">
        <ele>357.38800128</ele>
        <time>2020-05-21T15:02:03.000Z</time>
      </trkpt>
      <trkpt lat="47.15704" lon="4.9185">
        <ele>357</ele>
        <time>2020-05-21T15:02:05.000Z</time>
      </trkpt>
      <trkpt lat="47.15702" lon="4.91848">
        <ele>357</ele>
        <time>2020-05-21T15:02:07.000Z</time>
      </trkpt>
      <trkpt lat="47.157" lon="4.91846">
        <ele>357</ele>
        <time>2020-05-21T15:02:09.000Z</time>
      </trkpt>
      <trkpt lat="47.15697" lon="4.91845">
        <ele>357</ele>
        <time>2020-05-21T15:02:11.000Z</time>
      </trkpt>
      <trkpt lat="47.15695" lon="4.91843">
        <ele>357</ele>
        <time>2020-05-21T15:02:13.000Z</time>
      </trkpt>
      <trkpt lat="47.15693" lon="4.91842">
        <ele>356.99400064</ele>
        <time>2020-05-21T15:02:15.000Z</time>
      </trkpt>
      <trkpt lat="47.15691" lon="4.91841">
        <ele>356.79400064</ele>
        <time>2020-05-21T15:02:17.000Z</time>
      </trkpt>
      <trkpt lat="47.15689" lon="4.9184">
        <ele>356.59400064</ele>
        <time>2020-05-21T15:02:19.000Z</time>
      </trkpt>
      <trkpt lat="47.15687" lon="4.91839">
        <ele>356.39400064</ele>
        <time>2020-05-21T15:02:21.000Z</time>
      </trkpt>
      <trkpt lat="47.15684" lon="4.91837">
        <ele>356.19400064</ele>
        <time>2020-05-21T15:02:23.000Z</time>
      </trkpt>
      <trkpt lat="47.15682" lon="4.91835">
        <ele>356</ele>
        <time>2020-05-21T15:02:25.000Z</time>
      </trkpt>
      <trkpt lat="47.1568" lon="4.91833">
        <ele>356</ele>
        <time>2020-05-21T15:02:27.000Z</time>
      </trkpt>
      <trkpt lat="47.15678" lon="4.91831">
        <ele>356</ele>
        <time>2020-05-21T15:02:29.000Z</time>
      </trkpt>
      <trkpt lat="47.15676" lon="4.9183">
        <ele>356</ele>
        <time>2020-05-21T15:02:31.000Z</time>
      </trkpt>
      <trkpt lat="47.15674" lon="4.91828">
        <ele>356</ele>
        <time>2020-05-21T15:02:33.000Z</time>
      </trkpt>
      <trkpt lat="47.15671" lon="4.91826">
        <ele>356</ele>
        <time>2020-05-21T15:02:35.000Z</time>
      </trkpt>
      <trkpt lat="47.15669" lon="4.91825">
        <ele>355.8168720107</ele>
        <time>2020-05-21T15:02:37.000Z</time>
      </trkpt>
      <trkpt lat="47.15667" lon="4.91823">
        <ele>355.61111096479</ele>
        <time>2020-05-21T15:02:39.000Z</time>
      </trkpt>
      <trkpt lat="47.15665" lon="4.91821">
        <ele>355.40534991888</ele>
        <time>2020-05-21T15:02:41.000Z</time>
      </trkpt>
      <trkpt lat="47.15663" lon="4.9182">
        <ele>355.19958887297</ele>
        <time>2020-05-21T15:02:43.000Z</time>
      </trkpt>
      <trkpt lat="47.15661" lon="4.91819">
        <ele>354.98800128</ele>
        <time>2020-05-21T15:02:45.000Z</time>
      </trkpt>
      <trkpt lat="47.15659" lon="4.91817">
        <ele>354.58800128</ele>
        <time>2020-05-21T15:02:47.000Z</time>
      </trkpt>
      <trkpt lat="47.15657" lon="4.91816">
        <ele>354.18800128</ele>
        <time>2020-05-21T15:02:49.000Z</time>
      </trkpt>
      <trkpt lat="47.15655" lon="4.91814">
        <ele>353.78800128</ele>
        <time>2020-05-21T15:02:51.000Z</time>
      </trkpt>
      <trkpt lat="47.15653" lon="4.91812">
        <ele>353.38800128</ele>
        <time>2020-05-21T15:02:53.000Z</time>
      </trkpt>
      <trkpt lat="47.15651" lon="4.9181">
        <ele>352.99401261095</ele>
        <time>2020-05-21T15:02:55.000Z</time>
      </trkpt>
      <trkpt lat="47.15649" lon="4.91809">
        <ele>352.79441168505</ele>
        <time>2020-05-21T15:02:57.000Z</time>
      </trkpt>
      <trkpt lat="47.15647" lon="4.91807">
        <ele>352.59481075916</ele>
        <time>2020-05-21T15:02:59.000Z</time>
      </trkpt>
      <trkpt lat="47.15646" lon="4.91805">
        <ele>352.39520983327</ele>
        <time>2020-05-21T15:03:01.000Z</time>
      </trkpt>
      <trkpt lat="47.15644" lon="4.91802">
        <ele>352.19560890738</ele>
        <time>2020-05-21T15:03:03.000Z</time>
      </trkpt>
      <trkpt lat="47.15642" lon="4.918">
        <ele>352</ele>
        <time>2020-05-21T15:03:05.000Z</time>
      </trkpt>
      <trkpt lat="47.1564" lon="4.91798">
        <ele>352</ele>
        <time>2020-05-21T15:03:07.000Z</time>
      </trkpt>
      <trkpt lat="47.15638" lon="4.91796">
        <ele>352</ele>
        <time>2020-05-21T15:03:09.000Z</time>
      </trkpt>
      <trkpt lat="47.15636" lon="4.91793">
        <ele>352</ele>
        <time>2020-05-21T15:03:11.000Z</time>
      </trkpt>
      <trkpt lat="47.15634" lon="4.91791">
        <ele>352</ele>
        <time>2020-05-21T15:03:13.000Z</time>
      </trkpt>
      <trkpt lat="47.15631" lon="4.9179">
        <ele>352</ele>
        <time>2020-05-21T15:03:15.000Z</time>
      </trkpt>
      <trkpt lat="47.15628" lon="4.9179">
        <ele>351.81734661224</ele>
        <time>2020-05-21T15:03:17.000Z</time>
      </trkpt>
      <trkpt lat="47.15626" lon="4.91792">
        <ele>351.61326497959</ele>
        <time>2020-05-21T15:03:19.000Z</time>
      </trkpt>
      <trkpt lat="47.15623" lon="4.91792">
        <ele>351.30714253061</ele>
        <time>2020-05-21T15:03:22.000Z</time>
      </trkpt>
      <trkpt lat="47.15621" lon="4.91794">
        <ele>351.00102008163</ele>
        <time>2020-05-21T15:03:25.000Z</time>
      </trkpt>
      <trkpt lat="47.15619" lon="4.91795">
        <ele>351</ele>
        <time>2020-05-21T15:03:27.000Z</time>
      </trkpt>
      <trkpt lat="47.15617" lon="4.91796">
        <ele>351</ele>
        <time>2020-05-21T15:03:29.000Z</time>
      </trkpt>
      <trkpt lat="47.15615" lon="4.91798">
        <ele>351</ele>
        <time>2020-05-21T15:03:31.000Z</time>
      </trkpt>
      <trkpt lat="47.15613" lon="4.918">
        <ele>351</ele>
        <time>2020-05-21T15:03:33.000Z</time>
      </trkpt>
      <trkpt lat="47.15611" lon="4.91803">
        <ele>351</ele>
        <time>2020-05-21T15:03:35.000Z</time>
      </trkpt>
      <trkpt lat="47.1561" lon="4.91805">
        <ele>350.79879288609</ele>
        <time>2020-05-21T15:03:37.000Z</time>
      </trkpt>
      <trkpt lat="47.15608" lon="4.91808">
        <ele>350.59758577218</ele>
        <time>2020-05-21T15:03:39.000Z</time>
      </trkpt>
      <trkpt lat="47.15606" lon="4.9181">
        <ele>350.39637865827</ele>
        <time>2020-05-21T15:03:41.000Z</time>
      </trkpt>
      <trkpt lat="47.15603" lon="4.91813">
        <ele>350.19517154436</ele>
        <time>2020-05-21T15:03:43.000Z</time>
      </trkpt>
      <trkpt lat="47.15601" lon="4.91815">
        <ele>349.99405415074</ele>
        <time>2020-05-21T15:03:45.000Z</time>
      </trkpt>
      <trkpt lat="47.15599" lon="4.91817">
        <ele>349.79583803238</ele>
        <time>2020-05-21T15:03:47.000Z</time>
      </trkpt>
      <trkpt lat="47.15597" lon="4.91819">
        <ele>349.59762191401</ele>
        <time>2020-05-21T15:03:49.000Z</time>
      </trkpt>
      <trkpt lat="47.15595" lon="4.91821">
        <ele>349.39940579565</ele>
        <time>2020-05-21T15:03:51.000Z</time>
      </trkpt>
      <trkpt lat="47.15593" lon="4.91823">
        <ele>349.20118967729</ele>
        <time>2020-05-21T15:03:53.000Z</time>
      </trkpt>
      <trkpt lat="47.1559" lon="4.91825">
        <ele>349.00297355892</ele>
        <time>2020-05-21T15:03:55.000Z</time>
      </trkpt>
      <trkpt lat="47.15588" lon="4.91827">
        <ele>348.60242257036</ele>
        <time>2020-05-21T15:03:57.000Z</time>
      </trkpt>
      <trkpt lat="47.15587" lon="4.91829">
        <ele>348.19879000644</ele>
        <time>2020-05-21T15:03:59.000Z</time>
      </trkpt>
      <trkpt lat="47.15585" lon="4.91831">
        <ele>347.79515744253</ele>
        <time>2020-05-21T15:04:01.000Z</time>
      </trkpt>
      <trkpt lat="47.15584" lon="4.91832">
        <ele>347.39152487862</ele>
        <time>2020-05-21T15:04:03.000Z</time>
      </trkpt>
      <trkpt lat="47.15582" lon="4.91833">
        <ele>347</ele>
        <time>2020-05-21T15:04:05.000Z</time>
      </trkpt>
      <trkpt lat="47.1558" lon="4.91836">
        <ele>347</ele>
        <time>2020-05-21T15:04:07.000Z</time>
      </trkpt>
      <trkpt lat="47.15578" lon="4.91839">
        <ele>347</ele>
        <time>2020-05-21T15:04:09.000Z</time>
      </trkpt>
      <trkpt lat="47.15577" lon="4.91842">
        <ele>347</ele>
        <time>2020-05-21T15:04:11.000Z</time>
      </trkpt>
      <trkpt lat="47.15576" lon="4.91845">
        <ele>347</ele>
        <time>2020-05-21T15:04:13.000Z</time>
      </trkpt>
      <trkpt lat="47.15575" lon="4.91848">
        <ele>347.00599936</ele>
        <time>2020-05-21T15:04:15.000Z</time>
      </trkpt>
      <trkpt lat="47.15573" lon="4.9185">
        <ele>347.20599936</ele>
        <time>2020-05-21T15:04:17.000Z</time>
      </trkpt>
      <trkpt lat="47.15572" lon="4.91853">
        <ele>347.40599936</ele>
        <time>2020-05-21T15:04:19.000Z</time>
      </trkpt>
      <trkpt lat="47.1557" lon="4.91855">
        <ele>347.60599936</ele>
        <time>2020-05-21T15:04:21.000Z</time>
      </trkpt>
      <trkpt lat="47.15569" lon="4.91858">
        <ele>347.80599936</ele>
        <time>2020-05-21T15:04:23.000Z</time>
      </trkpt>
      <trkpt lat="47.15567" lon="4.91861">
        <ele>348</ele>
        <time>2020-05-21T15:04:25.000Z</time>
      </trkpt>
      <trkpt lat="47.15566" lon="4.91864">
        <ele>348</ele>
        <time>2020-05-21T15:04:28.000Z</time>
      </trkpt>
      <trkpt lat="47.15564" lon="4.91866">
        <ele>348</ele>
        <time>2020-05-21T15:04:30.000Z</time>
      </trkpt>
      <trkpt lat="47.15563" lon="4.91868">
        <ele>348</ele>
        <time>2020-05-21T15:04:32.000Z</time>
      </trkpt>
      <trkpt lat="47.15561" lon="4.91872">
        <ele>348</ele>
        <time>2020-05-21T15:04:34.000Z</time>
      </trkpt>
      <trkpt lat="47.1556" lon="4.91875">
        <ele>347.89400064</ele>
        <time>2020-05-21T15:04:36.000Z</time>
      </trkpt>
      <trkpt lat="47.15558" lon="4.91877">
        <ele>347.69400064</ele>
        <time>2020-05-21T15:04:38.000Z</time>
      </trkpt>
      <trkpt lat="47.15557" lon="4.91881">
        <ele>347.49400064</ele>
        <time>2020-05-21T15:04:40.000Z</time>
      </trkpt>
      <trkpt lat="47.15556" lon="4.91884">
        <ele>347.29400064</ele>
        <time>2020-05-21T15:04:42.000Z</time>
      </trkpt>
      <trkpt lat="47.15554" lon="4.91887">
        <ele>347.09400064</ele>
        <time>2020-05-21T15:04:44.000Z</time>
      </trkpt>
      <trkpt lat="47.15553" lon="4.91889">
        <ele>347</ele>
        <time>2020-05-21T15:04:47.000Z</time>
      </trkpt>
      <trkpt lat="47.15552" lon="4.91892">
        <ele>347</ele>
        <time>2020-05-21T15:04:49.000Z</time>
      </trkpt>
      <trkpt lat="47.1555" lon="4.91894">
        <ele>347</ele>
        <time>2020-05-21T15:04:52.000Z</time>
      </trkpt>
      <trkpt lat="47.15549" lon="4.91897">
        <ele>347</ele>
        <time>2020-05-21T15:04:54.000Z</time>
      </trkpt>
      <trkpt lat="47.15547" lon="4.91898">
        <ele>346.788424296</ele>
        <time>2020-05-21T15:04:56.000Z</time>
      </trkpt>
      <trkpt lat="47.15546" lon="4.91901">
        <ele>346.18962151832</ele>
        <time>2020-05-21T15:04:59.000Z</time>
      </trkpt>
      <trkpt lat="47.15546" lon="4.91904">
        <ele>345.79041966654</ele>
        <time>2020-05-21T15:05:01.000Z</time>
      </trkpt>
      <trkpt lat="47.15545" lon="4.91908">
        <ele>345.39121781475</ele>
        <time>2020-05-21T15:05:03.000Z</time>
      </trkpt>
      <trkpt lat="47.15544" lon="4.91911">
        <ele>345</ele>
        <time>2020-05-21T15:05:05.000Z</time>
      </trkpt>
      <trkpt lat="47.15544" lon="4.91914">
        <ele>345</ele>
        <time>2020-05-21T15:05:08.000Z</time>
      </trkpt>
      <trkpt lat="47.15543" lon="4.91918">
        <ele>345</ele>
        <time>2020-05-21T15:05:10.000Z</time>
      </trkpt>
      <trkpt lat="47.15544" lon="4.91921">
        <ele>345</ele>
        <time>2020-05-21T15:05:12.000Z</time>
      </trkpt>
      <trkpt lat="47.15544" lon="4.91924">
        <ele>345</ele>
        <time>2020-05-21T15:05:14.000Z</time>
      </trkpt>
      <trkpt lat="47.15544" lon="4.91927">
        <ele>344.89400064</ele>
        <time>2020-05-21T15:05:16.000Z</time>
      </trkpt>
      <trkpt lat="47.15545" lon="4.91931">
        <ele>344.69400064</ele>
        <time>2020-05-21T15:05:18.000Z</time>
      </trkpt>
      <trkpt lat="47.15545" lon="4.91934">
        <ele>344.49400064</ele>
        <time>2020-05-21T15:05:20.000Z</time>
      </trkpt>
      <trkpt lat="47.15545" lon="4.91937">
        <ele>344.29400064</ele>
        <time>2020-05-21T15:05:22.000Z</time>
      </trkpt>
      <trkpt lat="47.15545" lon="4.91941">
        <ele>344.09400064</ele>
        <time>2020-05-21T15:05:24.000Z</time>
      </trkpt>
      <trkpt lat="47.15546" lon="4.91944">
        <ele>343.78989218312</ele>
        <time>2020-05-21T15:05:26.000Z</time>
      </trkpt>
      <trkpt lat="47.15547" lon="4.91947">
        <ele>343.39345994639</ele>
        <time>2020-05-21T15:05:28.000Z</time>
      </trkpt>
      <trkpt lat="47.15547" lon="4.91949">
        <ele>343.19524382803</ele>
        <time>2020-05-21T15:05:29.000Z</time>
      </trkpt>
      <trkpt lat="47.15547" lon="4.91953">
        <ele>342.7988115913</ele>
        <time>2020-05-21T15:05:31.000Z</time>
      </trkpt>
      <trkpt lat="47.15548" lon="4.91957">
        <ele>342.40237935457</ele>
        <time>2020-05-21T15:05:33.000Z</time>
      </trkpt>
      <trkpt lat="47.15549" lon="4.9196">
        <ele>342.00594711784</ele>
        <time>2020-05-21T15:05:35.000Z</time>
      </trkpt>
      <trkpt lat="47.15549" lon="4.91963">
        <ele>341.80121128518</ele>
        <time>2020-05-21T15:05:37.000Z</time>
      </trkpt>
      <trkpt lat="47.1555" lon="4.91965">
        <ele>341.59939500322</ele>
        <time>2020-05-21T15:05:39.000Z</time>
      </trkpt>
      <trkpt lat="47.15551" lon="4.91969">
        <ele>341.39757872127</ele>
        <time>2020-05-21T15:05:41.000Z</time>
      </trkpt>
      <trkpt lat="47.15553" lon="4.91972">
        <ele>341.19576243931</ele>
        <time>2020-05-21T15:05:43.000Z</time>
      </trkpt>
      <trkpt lat="47.15554" lon="4.91975">
        <ele>341</ele>
        <time>2020-05-21T15:05:45.000Z</time>
      </trkpt>
      <trkpt lat="47.15556" lon="4.91977">
        <ele>341</ele>
        <time>2020-05-21T15:05:47.000Z</time>
      </trkpt>
      <trkpt lat="47.15557" lon="4.91979">
        <ele>341</ele>
        <time>2020-05-21T15:05:49.000Z</time>
      </trkpt>
      <trkpt lat="47.15558" lon="4.91983">
        <ele>341</ele>
        <time>2020-05-21T15:05:51.000Z</time>
      </trkpt>
      <trkpt lat="47.15559" lon="4.91986">
        <ele>341</ele>
        <time>2020-05-21T15:05:53.000Z</time>
      </trkpt>
      <trkpt lat="47.1556" lon="4.9199">
        <ele>340.99400064</ele>
        <time>2020-05-21T15:05:55.000Z</time>
      </trkpt>
      <trkpt lat="47.15561" lon="4.91993">
        <ele>340.79400064</ele>
        <time>2020-05-21T15:05:57.000Z</time>
      </trkpt>
      <trkpt lat="47.15561" lon="4.91995">
        <ele>340.59400064</ele>
        <time>2020-05-21T15:05:59.000Z</time>
      </trkpt>
      <trkpt lat="47.15562" lon="4.91998">
        <ele>340.39400064</ele>
        <time>2020-05-21T15:06:01.000Z</time>
      </trkpt>
      <trkpt lat="47.15561" lon="4.92001">
        <ele>340.19400064</ele>
        <time>2020-05-21T15:06:03.000Z</time>
      </trkpt>
      <trkpt lat="47.15561" lon="4.92003">
        <ele>340</ele>
        <time>2020-05-21T15:06:05.000Z</time>
      </trkpt>
      <trkpt lat="47.1556" lon="4.92006">
        <ele>340</ele>
        <time>2020-05-21T15:06:08.000Z</time>
      </trkpt>
      <trkpt lat="47.15558" lon="4.92009">
        <ele>340</ele>
        <time>2020-05-21T15:06:12.000Z</time>
      </trkpt>
      <trkpt lat="47.15556" lon="4.92011">
        <ele>340</ele>
        <time>2020-05-21T15:06:17.000Z</time>
      </trkpt>
      <trkpt lat="47.15555" lon="4.92013">
        <ele>340</ele>
        <time>2020-05-21T15:06:22.000Z</time>
      </trkpt>
      <trkpt lat="47.15554" lon="4.92015">
        <ele>340</ele>
        <time>2020-05-21T15:06:30.000Z</time>
      </trkpt>
      <trkpt lat="47.15552" lon="4.92016">
        <ele>340</ele>
        <time>2020-05-21T15:06:32.000Z</time>
      </trkpt>
      <trkpt lat="47.1555" lon="4.92017">
        <ele>340</ele>
        <time>2020-05-21T15:06:34.000Z</time>
      </trkpt>
      <trkpt lat="47.15547" lon="4.92019">
        <ele>340</ele>
        <time>2020-05-21T15:06:37.000Z</time>
      </trkpt>
      <trkpt lat="47.15545" lon="4.92019">
        <ele>340</ele>
        <time>2020-05-21T15:06:40.000Z</time>
      </trkpt>
      <trkpt lat="47.15544" lon="4.92022">
        <ele>340</ele>
        <time>2020-05-21T15:06:42.000Z</time>
      </trkpt>
      <trkpt lat="47.15542" lon="4.92025">
        <ele>340</ele>
        <time>2020-05-21T15:06:45.000Z</time>
      </trkpt>
      <trkpt lat="47.1554" lon="4.92026">
        <ele>340</ele>
        <time>2020-05-21T15:06:48.000Z</time>
      </trkpt>
      <trkpt lat="47.15538" lon="4.92025">
        <ele>340</ele>
        <time>2020-05-21T15:06:53.000Z</time>
      </trkpt>
      <trkpt lat="47.15535" lon="4.92024">
        <ele>340</ele>
        <time>2020-05-21T15:06:56.000Z</time>
      </trkpt>
      <trkpt lat="47.15533" lon="4.92022">
        <ele>340</ele>
        <time>2020-05-21T15:06:58.000Z</time>
      </trkpt>
      <trkpt lat="47.15531" lon="4.9202">
        <ele>340</ele>
        <time>2020-05-21T15:07:00.000Z</time>
      </trkpt>
      <trkpt lat="47.15529" lon="4.92019">
        <ele>340</ele>
        <time>2020-05-21T15:07:02.000Z</time>
      </trkpt>
      <trkpt lat="47.15527" lon="4.92017">
        <ele>340</ele>
        <time>2020-05-21T15:07:04.000Z</time>
      </trkpt>
      <trkpt lat="47.15525" lon="4.92015">
        <ele>340.21199872</ele>
        <time>2020-05-21T15:07:06.000Z</time>
      </trkpt>
      <trkpt lat="47.15524" lon="4.92013">
        <ele>340.61199872</ele>
        <time>2020-05-21T15:07:08.000Z</time>
      </trkpt>
      <trkpt lat="47.15521" lon="4.92013">
        <ele>341.61199872</ele>
        <time>2020-05-21T15:07:13.000Z</time>
      </trkpt>
      <trkpt lat="47.15519" lon="4.92014">
        <ele>342.10599936</ele>
        <time>2020-05-21T15:07:16.000Z</time>
      </trkpt>
      <trkpt lat="47.15518" lon="4.92011">
        <ele>342.60599936</ele>
        <time>2020-05-21T15:07:21.000Z</time>
      </trkpt>
      <trkpt lat="47.15516" lon="4.9201">
        <ele>342.90599936</ele>
        <time>2020-05-21T15:07:24.000Z</time>
      </trkpt>
      <trkpt lat="47.15514" lon="4.92008">
        <ele>343.61199872</ele>
        <time>2020-05-21T15:07:28.000Z</time>
      </trkpt>
      <trkpt lat="47.15512" lon="4.92006">
        <ele>344.01199872</ele>
        <time>2020-05-21T15:07:30.000Z</time>
      </trkpt>
      <trkpt lat="47.15511" lon="4.92005">
        <ele>344.41199872</ele>
        <time>2020-05-21T15:07:32.000Z</time>
      </trkpt>
      <trkpt lat="47.1551" lon="4.92004">
        <ele>344.61199872</ele>
        <time>2020-05-21T15:07:33.000Z</time>
      </trkpt>
      <trkpt lat="47.15507" lon="4.92003">
        <ele>345.00594584926</ele>
        <time>2020-05-21T15:07:35.000Z</time>
      </trkpt>
      <trkpt lat="47.15505" lon="4.92002">
        <ele>345.20416196762</ele>
        <time>2020-05-21T15:07:37.000Z</time>
      </trkpt>
      <trkpt lat="47.15503" lon="4.92001">
        <ele>345.60059420435</ele>
        <time>2020-05-21T15:07:41.000Z</time>
      </trkpt>
      <trkpt lat="47.15502" lon="4.92">
        <ele>345.79881032271</ele>
        <time>2020-05-21T15:07:43.000Z</time>
      </trkpt>
      <trkpt lat="47.155" lon="4.91998">
        <ele>345.99702644108</ele>
        <time>2020-05-21T15:07:45.000Z</time>
      </trkpt>
      <trkpt lat="47.15497" lon="4.91998">
        <ele>346.2917483956</ele>
        <time>2020-05-21T15:07:48.000Z</time>
      </trkpt>
      <trkpt lat="47.15495" lon="4.91998">
        <ele>346.48821217334</ele>
        <time>2020-05-21T15:07:50.000Z</time>
      </trkpt>
      <trkpt lat="47.15492" lon="4.91996">
        <ele>346.78290783994</ele>
        <time>2020-05-21T15:07:53.000Z</time>
      </trkpt>
      <trkpt lat="47.1549" lon="4.91996">
        <ele>346.97937161768</ele>
        <time>2020-05-21T15:07:55.000Z</time>
      </trkpt>
      <trkpt lat="47.15488" lon="4.91996">
        <ele>347.36793451879</ele>
        <time>2020-05-21T15:07:57.000Z</time>
      </trkpt>
      <trkpt lat="47.15486" lon="4.91996">
        <ele>347.77903380486</ele>
        <time>2020-05-21T15:07:59.000Z</time>
      </trkpt>
      <trkpt lat="47.15483" lon="4.91996">
        <ele>348.19013309093</ele>
        <time>2020-05-21T15:08:01.000Z</time>
      </trkpt>
      <trkpt lat="47.1548" lon="4.91996">
        <ele>348.601232377</ele>
        <time>2020-05-21T15:08:03.000Z</time>
      </trkpt>
      <trkpt lat="47.15478" lon="4.91996">
        <ele>349.01199872</ele>
        <time>2020-05-21T15:08:05.000Z</time>
      </trkpt>
      <trkpt lat="47.15476" lon="4.91996">
        <ele>349.41199872</ele>
        <time>2020-05-21T15:08:07.000Z</time>
      </trkpt>
      <trkpt lat="47.15474" lon="4.91996">
        <ele>349.81199872</ele>
        <time>2020-05-21T15:08:09.000Z</time>
      </trkpt>
      <trkpt lat="47.15471" lon="4.91995">
        <ele>350.21199872</ele>
        <time>2020-05-21T15:08:11.000Z</time>
      </trkpt>
      <trkpt lat="47.1547" lon="4.91995">
        <ele>351</ele>
        <time>2020-05-21T15:08:25.000Z</time>
      </trkpt>
      <trkpt lat="47.15468" lon="4.91994">
        <ele>351</ele>
        <time>2020-05-21T15:08:28.000Z</time>
      </trkpt>
      <trkpt lat="47.15466" lon="4.91992">
        <ele>351</ele>
        <time>2020-05-21T15:08:30.000Z</time>
      </trkpt>
      <trkpt lat="47.15464" lon="4.91991">
        <ele>351</ele>
        <time>2020-05-21T15:08:32.000Z</time>
      </trkpt>
      <trkpt lat="47.15462" lon="4.91991">
        <ele>351</ele>
        <time>2020-05-21T15:08:34.000Z</time>
      </trkpt>
      <trkpt lat="47.15459" lon="4.91991">
        <ele>350.89400064</ele>
        <time>2020-05-21T15:08:36.000Z</time>
      </trkpt>
      <trkpt lat="47.15457" lon="4.91991">
        <ele>350.69400064</ele>
        <time>2020-05-21T15:08:38.000Z</time>
      </trkpt>
      <trkpt lat="47.15455" lon="4.91991">
        <ele>350.49400064</ele>
        <time>2020-05-21T15:08:40.000Z</time>
      </trkpt>
      <trkpt lat="47.15453" lon="4.9199">
        <ele>350.29400064</ele>
        <time>2020-05-21T15:08:42.000Z</time>
      </trkpt>
      <trkpt lat="47.15451" lon="4.9199">
        <ele>350.09400064</ele>
        <time>2020-05-21T15:08:44.000Z</time>
      </trkpt>
      <trkpt lat="47.15448" lon="4.91989">
        <ele>350.10599936</ele>
        <time>2020-05-21T15:08:46.000Z</time>
      </trkpt>
      <trkpt lat="47.15445" lon="4.9199">
        <ele>350.30599936</ele>
        <time>2020-05-21T15:08:48.000Z</time>
      </trkpt>
      <trkpt lat="47.15443" lon="4.9199">
        <ele>350.50599936</ele>
        <time>2020-05-21T15:08:50.000Z</time>
      </trkpt>
      <trkpt lat="47.15441" lon="4.91991">
        <ele>350.70599936</ele>
        <time>2020-05-21T15:08:52.000Z</time>
      </trkpt>
      <trkpt lat="47.15439" lon="4.91992">
        <ele>350.90599936</ele>
        <time>2020-05-21T15:08:54.000Z</time>
      </trkpt>
      <trkpt lat="47.15437" lon="4.91993">
        <ele>350.89400064</ele>
        <time>2020-05-21T15:08:56.000Z</time>
      </trkpt>
      <trkpt lat="47.15435" lon="4.91995">
        <ele>350.59400064</ele>
        <time>2020-05-21T15:08:59.000Z</time>
      </trkpt>
      <trkpt lat="47.15434" lon="4.91997">
        <ele>350.40599936</ele>
        <time>2020-05-21T15:09:09.000Z</time>
      </trkpt>
      <trkpt lat="47.15432" lon="4.91998">
        <ele>350.99400064</ele>
        <time>2020-05-21T15:09:15.000Z</time>
      </trkpt>
      <trkpt lat="47.15429" lon="4.91999">
        <ele>350.69400064</ele>
        <time>2020-05-21T15:09:18.000Z</time>
      </trkpt>
      <trkpt lat="47.15427" lon="4.91999">
        <ele>350.49400064</ele>
        <time>2020-05-21T15:09:20.000Z</time>
      </trkpt>
      <trkpt lat="47.15425" lon="4.91999">
        <ele>350.29400064</ele>
        <time>2020-05-21T15:09:22.000Z</time>
      </trkpt>
      <trkpt lat="47.15423" lon="4.91999">
        <ele>350.09400064</ele>
        <time>2020-05-21T15:09:24.000Z</time>
      </trkpt>
      <trkpt lat="47.15421" lon="4.91999">
        <ele>349.89678728424</ele>
        <time>2020-05-21T15:09:26.000Z</time>
      </trkpt>
      <trkpt lat="47.15418" lon="4.92">
        <ele>349.70204513531</ele>
        <time>2020-05-21T15:09:28.000Z</time>
      </trkpt>
      <trkpt lat="47.15416" lon="4.92001">
        <ele>349.50730298638</ele>
        <time>2020-05-21T15:09:30.000Z</time>
      </trkpt>
      <trkpt lat="47.15413" lon="4.92002">
        <ele>349.31256083745</ele>
        <time>2020-05-21T15:09:32.000Z</time>
      </trkpt>
      <trkpt lat="47.15411" lon="4.92003">
        <ele>349.11781868852</ele>
        <time>2020-05-21T15:09:34.000Z</time>
      </trkpt>
      <trkpt lat="47.15408" lon="4.92003">
        <ele>348.91880756212</ele>
        <time>2020-05-21T15:09:36.000Z</time>
      </trkpt>
      <trkpt lat="47.15406" lon="4.92004">
        <ele>348.71325791909</ele>
        <time>2020-05-21T15:09:38.000Z</time>
      </trkpt>
      <trkpt lat="47.15404" lon="4.92005">
        <ele>348.50770827605</ele>
        <time>2020-05-21T15:09:40.000Z</time>
      </trkpt>
      <trkpt lat="47.15401" lon="4.92006">
        <ele>348.30215863302</ele>
        <time>2020-05-21T15:09:42.000Z</time>
      </trkpt>
      <trkpt lat="47.15399" lon="4.92007">
        <ele>348.09660898998</ele>
        <time>2020-05-21T15:09:44.000Z</time>
      </trkpt>
      <trkpt lat="47.15397" lon="4.92008">
        <ele>348.10599936</ele>
        <time>2020-05-21T15:09:46.000Z</time>
      </trkpt>
      <trkpt lat="47.15394" lon="4.92008">
        <ele>348.30599936</ele>
        <time>2020-05-21T15:09:48.000Z</time>
      </trkpt>
      <trkpt lat="47.15391" lon="4.92009">
        <ele>348.50599936</ele>
        <time>2020-05-21T15:09:50.000Z</time>
      </trkpt>
      <trkpt lat="47.15388" lon="4.9201">
        <ele>348.70599936</ele>
        <time>2020-05-21T15:09:52.000Z</time>
      </trkpt>
      <trkpt lat="47.15386" lon="4.92012">
        <ele>348.90599936</ele>
        <time>2020-05-21T15:09:54.000Z</time>
      </trkpt>
      <trkpt lat="47.15384" lon="4.92012">
        <ele>349</ele>
        <time>2020-05-21T15:09:56.000Z</time>
      </trkpt>
      <trkpt lat="47.15382" lon="4.92013">
        <ele>349</ele>
        <time>2020-05-21T15:10:00.000Z</time>
      </trkpt>
      <trkpt lat="47.1538" lon="4.92014">
        <ele>349</ele>
        <time>2020-05-21T15:10:02.000Z</time>
      </trkpt>
      <trkpt lat="47.15378" lon="4.92015">
        <ele>349</ele>
        <time>2020-05-21T15:10:04.000Z</time>
      </trkpt>
      <trkpt lat="47.15376" lon="4.92016">
        <ele>349</ele>
        <time>2020-05-21T15:10:06.000Z</time>
      </trkpt>
      <trkpt lat="47.15373" lon="4.92017">
        <ele>349</ele>
        <time>2020-05-21T15:10:08.000Z</time>
      </trkpt>
      <trkpt lat="47.1537" lon="4.92017">
        <ele>349</ele>
        <time>2020-05-21T15:10:10.000Z</time>
      </trkpt>
      <trkpt lat="47.15368" lon="4.92018">
        <ele>349</ele>
        <time>2020-05-21T15:10:12.000Z</time>
      </trkpt>
      <trkpt lat="47.15366" lon="4.92018">
        <ele>349</ele>
        <time>2020-05-21T15:10:14.000Z</time>
      </trkpt>
      <trkpt lat="47.15363" lon="4.92019">
        <ele>349</ele>
        <time>2020-05-21T15:10:16.000Z</time>
      </trkpt>
      <trkpt lat="47.15361" lon="4.92019">
        <ele>349</ele>
        <time>2020-05-21T15:10:18.000Z</time>
      </trkpt>
      <trkpt lat="47.15358" lon="4.9202">
        <ele>349</ele>
        <time>2020-05-21T15:10:20.000Z</time>
      </trkpt>
      <trkpt lat="47.15356" lon="4.9202">
        <ele>349</ele>
        <time>2020-05-21T15:10:22.000Z</time>
      </trkpt>
      <trkpt lat="47.15353" lon="4.92021">
        <ele>349</ele>
        <time>2020-05-21T15:10:24.000Z</time>
      </trkpt>
      <trkpt lat="47.15351" lon="4.92022">
        <ele>349</ele>
        <time>2020-05-21T15:10:26.000Z</time>
      </trkpt>
      <trkpt lat="47.15348" lon="4.92023">
        <ele>349</ele>
        <time>2020-05-21T15:10:28.000Z</time>
      </trkpt>
      <trkpt lat="47.15345" lon="4.92023">
        <ele>349</ele>
        <time>2020-05-21T15:10:30.000Z</time>
      </trkpt>
      <trkpt lat="47.15342" lon="4.92024">
        <ele>349</ele>
        <time>2020-05-21T15:10:32.000Z</time>
      </trkpt>
      <trkpt lat="47.1534" lon="4.92024">
        <ele>349</ele>
        <time>2020-05-21T15:10:34.000Z</time>
      </trkpt>
      <trkpt lat="47.15337" lon="4.92026">
        <ele>349</ele>
        <time>2020-05-21T15:10:37.000Z</time>
      </trkpt>
      <trkpt lat="47.15335" lon="4.92026">
        <ele>349</ele>
        <time>2020-05-21T15:10:39.000Z</time>
      </trkpt>
      <trkpt lat="47.15332" lon="4.92026">
        <ele>349</ele>
        <time>2020-05-21T15:10:41.000Z</time>
      </trkpt>
      <trkpt lat="47.1533" lon="4.92026">
        <ele>349</ele>
        <time>2020-05-21T15:10:43.000Z</time>
      </trkpt>
      <trkpt lat="47.15327" lon="4.92025">
        <ele>349</ele>
        <time>2020-05-21T15:10:45.000Z</time>
      </trkpt>
      <trkpt lat="47.15325" lon="4.92025">
        <ele>349</ele>
        <time>2020-05-21T15:10:47.000Z</time>
      </trkpt>
      <trkpt lat="47.15322" lon="4.92026">
        <ele>349</ele>
        <time>2020-05-21T15:10:49.000Z</time>
      </trkpt>
      <trkpt lat="47.1532" lon="4.92026">
        <ele>349</ele>
        <time>2020-05-21T15:10:51.000Z</time>
      </trkpt>
      <trkpt lat="47.15318" lon="4.92026">
        <ele>349</ele>
        <time>2020-05-21T15:10:53.000Z</time>
      </trkpt>
      <trkpt lat="47.15315" lon="4.92026">
        <ele>348.68200192</ele>
        <time>2020-05-21T15:10:56.000Z</time>
      </trkpt>
      <trkpt lat="47.15313" lon="4.92026">
        <ele>348.08200192</ele>
        <time>2020-05-21T15:10:58.000Z</time>
      </trkpt>
      <trkpt lat="47.1531" lon="4.92025">
        <ele>347.48200192</ele>
        <time>2020-05-21T15:11:00.000Z</time>
      </trkpt>
      <trkpt lat="47.15308" lon="4.92024">
        <ele>346.88200192</ele>
        <time>2020-05-21T15:11:02.000Z</time>
      </trkpt>
      <trkpt lat="47.15306" lon="4.92024">
        <ele>346.58200192</ele>
        <time>2020-05-21T15:11:03.000Z</time>
      </trkpt>
      <trkpt lat="47.15304" lon="4.92024">
        <ele>346</ele>
        <time>2020-05-21T15:11:05.000Z</time>
      </trkpt>
      <trkpt lat="47.15301" lon="4.92024">
        <ele>346</ele>
        <time>2020-05-21T15:11:07.000Z</time>
      </trkpt>
      <trkpt lat="47.15298" lon="4.92024">
        <ele>346</ele>
        <time>2020-05-21T15:11:09.000Z</time>
      </trkpt>
      <trkpt lat="47.15296" lon="4.92024">
        <ele>346</ele>
        <time>2020-05-21T15:11:11.000Z</time>
      </trkpt>
      <trkpt lat="47.15294" lon="4.92026">
        <ele>346</ele>
        <time>2020-05-21T15:11:13.000Z</time>
      </trkpt>
      <trkpt lat="47.15292" lon="4.92027">
        <ele>346</ele>
        <time>2020-05-21T15:11:15.000Z</time>
      </trkpt>
      <trkpt lat="47.1529" lon="4.92028">
        <ele>346</ele>
        <time>2020-05-21T15:11:17.000Z</time>
      </trkpt>
      <trkpt lat="47.15287" lon="4.9203">
        <ele>346</ele>
        <time>2020-05-21T15:11:19.000Z</time>
      </trkpt>
      <trkpt lat="47.15286" lon="4.92032">
        <ele>346</ele>
        <time>2020-05-21T15:11:21.000Z</time>
      </trkpt>
      <trkpt lat="47.15284" lon="4.92033">
        <ele>346</ele>
        <time>2020-05-21T15:11:23.000Z</time>
      </trkpt>
      <trkpt lat="47.15281" lon="4.92034">
        <ele>346</ele>
        <time>2020-05-21T15:11:25.000Z</time>
      </trkpt>
      <trkpt lat="47.15279" lon="4.92034">
        <ele>346</ele>
        <time>2020-05-21T15:11:27.000Z</time>
      </trkpt>
      <trkpt lat="47.15276" lon="4.92035">
        <ele>346</ele>
        <time>2020-05-21T15:11:29.000Z</time>
      </trkpt>
      <trkpt lat="47.15274" lon="4.92037">
        <ele>346</ele>
        <time>2020-05-21T15:11:31.000Z</time>
      </trkpt>
      <trkpt lat="47.15272" lon="4.92039">
        <ele>346</ele>
        <time>2020-05-21T15:11:33.000Z</time>
      </trkpt>
      <trkpt lat="47.1527" lon="4.92041">
        <ele>346</ele>
        <time>2020-05-21T15:11:35.000Z</time>
      </trkpt>
      <trkpt lat="47.15268" lon="4.92042">
        <ele>346</ele>
        <time>2020-05-21T15:11:37.000Z</time>
      </trkpt>
      <trkpt lat="47.15266" lon="4.92044">
        <ele>346</ele>
        <time>2020-05-21T15:11:39.000Z</time>
      </trkpt>
      <trkpt lat="47.15264" lon="4.92047">
        <ele>346</ele>
        <time>2020-05-21T15:11:41.000Z</time>
      </trkpt>
      <trkpt lat="47.15262" lon="4.92049">
        <ele>346</ele>
        <time>2020-05-21T15:11:43.000Z</time>
      </trkpt>
      <trkpt lat="47.1526" lon="4.9205">
        <ele>346</ele>
        <time>2020-05-21T15:11:45.000Z</time>
      </trkpt>
      <trkpt lat="47.15258" lon="4.9205">
        <ele>346</ele>
        <time>2020-05-21T15:11:47.000Z</time>
      </trkpt>
      <trkpt lat="47.15256" lon="4.9205">
        <ele>346</ele>
        <time>2020-05-21T15:11:49.000Z</time>
      </trkpt>
      <trkpt lat="47.15253" lon="4.9205">
        <ele>346</ele>
        <time>2020-05-21T15:11:51.000Z</time>
      </trkpt>
      <trkpt lat="47.15251" lon="4.92049">
        <ele>346</ele>
        <time>2020-05-21T15:11:53.000Z</time>
      </trkpt>
      <trkpt lat="47.15249" lon="4.92049">
        <ele>346</ele>
        <time>2020-05-21T15:11:55.000Z</time>
      </trkpt>
      <trkpt lat="47.15247" lon="4.92048">
        <ele>346</ele>
        <time>2020-05-21T15:11:57.000Z</time>
      </trkpt>
      <trkpt lat="47.15244" lon="4.92047">
        <ele>346</ele>
        <time>2020-05-21T15:11:59.000Z</time>
      </trkpt>
      <trkpt lat="47.15241" lon="4.92047">
        <ele>346</ele>
        <time>2020-05-21T15:12:01.000Z</time>
      </trkpt>
      <trkpt lat="47.15238" lon="4.92047">
        <ele>346</ele>
        <time>2020-05-21T15:12:03.000Z</time>
      </trkpt>
      <trkpt lat="47.15236" lon="4.92048">
        <ele>346</ele>
        <time>2020-05-21T15:12:05.000Z</time>
      </trkpt>
      <trkpt lat="47.15233" lon="4.92048">
        <ele>346</ele>
        <time>2020-05-21T15:12:07.000Z</time>
      </trkpt>
      <trkpt lat="47.15231" lon="4.92049">
        <ele>346</ele>
        <time>2020-05-21T15:12:09.000Z</time>
      </trkpt>
      <trkpt lat="47.15228" lon="4.92051">
        <ele>346</ele>
        <time>2020-05-21T15:12:11.000Z</time>
      </trkpt>
      <trkpt lat="47.15226" lon="4.92052">
        <ele>346</ele>
        <time>2020-05-21T15:12:13.000Z</time>
      </trkpt>
      <trkpt lat="47.15224" lon="4.92054">
        <ele>346</ele>
        <time>2020-05-21T15:12:15.000Z</time>
      </trkpt>
      <trkpt lat="47.15221" lon="4.92054">
        <ele>346</ele>
        <time>2020-05-21T15:12:17.000Z</time>
      </trkpt>
      <trkpt lat="47.1522" lon="4.92054">
        <ele>346</ele>
        <time>2020-05-21T15:12:19.000Z</time>
      </trkpt>
      <trkpt lat="47.15218" lon="4.92053">
        <ele>346</ele>
        <time>2020-05-21T15:12:21.000Z</time>
      </trkpt>
      <trkpt lat="47.15216" lon="4.92052">
        <ele>346</ele>
        <time>2020-05-21T15:12:23.000Z</time>
      </trkpt>
      <trkpt lat="47.15214" lon="4.92052">
        <ele>346</ele>
        <time>2020-05-21T15:12:25.000Z</time>
      </trkpt>
      <trkpt lat="47.15212" lon="4.92051">
        <ele>346</ele>
        <time>2020-05-21T15:12:27.000Z</time>
      </trkpt>
      <trkpt lat="47.1521" lon="4.92051">
        <ele>346</ele>
        <time>2020-05-21T15:12:29.000Z</time>
      </trkpt>
      <trkpt lat="47.15208" lon="4.92054">
        <ele>346</ele>
        <time>2020-05-21T15:12:32.000Z</time>
      </trkpt>
      <trkpt lat="47.15207" lon="4.92056">
        <ele>346</ele>
        <time>2020-05-21T15:12:34.000Z</time>
      </trkpt>
      <trkpt lat="47.15205" lon="4.92057">
        <ele>346</ele>
        <time>2020-05-21T15:12:37.000Z</time>
      </trkpt>
      <trkpt lat="47.15203" lon="4.92055">
        <ele>346</ele>
        <time>2020-05-21T15:12:40.000Z</time>
      </trkpt>
      <trkpt lat="47.152" lon="4.92054">
        <ele>346</ele>
        <time>2020-05-21T15:12:43.000Z</time>
      </trkpt>
      <trkpt lat="47.15197" lon="4.92053">
        <ele>346</ele>
        <time>2020-05-21T15:12:45.000Z</time>
      </trkpt>
      <trkpt lat="47.15195" lon="4.92053">
        <ele>346</ele>
        <time>2020-05-21T15:12:47.000Z</time>
      </trkpt>
      <trkpt lat="47.15193" lon="4.92051">
        <ele>346</ele>
        <time>2020-05-21T15:12:50.000Z</time>
      </trkpt>
      <trkpt lat="47.15191" lon="4.92051">
        <ele>346</ele>
        <time>2020-05-21T15:12:53.000Z</time>
      </trkpt>
      <trkpt lat="47.15189" lon="4.92048">
        <ele>345.98807283536</ele>
        <time>2020-05-21T15:12:55.000Z</time>
      </trkpt>
      <trkpt lat="47.15187" lon="4.92047">
        <ele>345.59045826828</ele>
        <time>2020-05-21T15:12:57.000Z</time>
      </trkpt>
      <trkpt lat="47.15185" lon="4.92045">
        <ele>345.19284370121</ele>
        <time>2020-05-21T15:12:59.000Z</time>
      </trkpt>
      <trkpt lat="47.15183" lon="4.92044">
        <ele>344.79522913414</ele>
        <time>2020-05-21T15:13:01.000Z</time>
      </trkpt>
      <trkpt lat="47.15181" lon="4.92044">
        <ele>344.39761456707</ele>
        <time>2020-05-21T15:13:03.000Z</time>
      </trkpt>
      <trkpt lat="47.15178" lon="4.92042">
        <ele>344</ele>
        <time>2020-05-21T15:13:05.000Z</time>
      </trkpt>
      <trkpt lat="47.15176" lon="4.92042">
        <ele>344</ele>
        <time>2020-05-21T15:13:07.000Z</time>
      </trkpt>
      <trkpt lat="47.15173" lon="4.92041">
        <ele>344</ele>
        <time>2020-05-21T15:13:09.000Z</time>
      </trkpt>
      <trkpt lat="47.15171" lon="4.92041">
        <ele>344</ele>
        <time>2020-05-21T15:13:11.000Z</time>
      </trkpt>
      <trkpt lat="47.15168" lon="4.92041">
        <ele>344</ele>
        <time>2020-05-21T15:13:14.000Z</time>
      </trkpt>
      <trkpt lat="47.15166" lon="4.9204">
        <ele>343.89400064</ele>
        <time>2020-05-21T15:13:16.000Z</time>
      </trkpt>
      <trkpt lat="47.15163" lon="4.92038">
        <ele>343.69400064</ele>
        <time>2020-05-21T15:13:18.000Z</time>
      </trkpt>
      <trkpt lat="47.15162" lon="4.92036">
        <ele>343.39400064</ele>
        <time>2020-05-21T15:13:21.000Z</time>
      </trkpt>
      <trkpt lat="47.15161" lon="4.92034">
        <ele>343.19400064</ele>
        <time>2020-05-21T15:13:23.000Z</time>
      </trkpt>
      <trkpt lat="47.15159" lon="4.92031">
        <ele>343</ele>
        <time>2020-05-21T15:13:26.000Z</time>
      </trkpt>
      <trkpt lat="47.15157" lon="4.92029">
        <ele>343</ele>
        <time>2020-05-21T15:13:28.000Z</time>
      </trkpt>
      <trkpt lat="47.15156" lon="4.92027">
        <ele>343</ele>
        <time>2020-05-21T15:13:30.000Z</time>
      </trkpt>
      <trkpt lat="47.15155" lon="4.92025">
        <ele>343</ele>
        <time>2020-05-21T15:13:32.000Z</time>
      </trkpt>
      <trkpt lat="47.15153" lon="4.92023">
        <ele>343</ele>
        <time>2020-05-21T15:13:34.000Z</time>
      </trkpt>
      <trkpt lat="47.15151" lon="4.92022">
        <ele>342.78800128</ele>
        <time>2020-05-21T15:13:36.000Z</time>
      </trkpt>
      <trkpt lat="47.15148" lon="4.9202">
        <ele>342.38800128</ele>
        <time>2020-05-21T15:13:38.000Z</time>
      </trkpt>
      <trkpt lat="47.15145" lon="4.92018">
        <ele>341.98800128</ele>
        <time>2020-05-21T15:13:40.000Z</time>
      </trkpt>
      <trkpt lat="47.15143" lon="4.92018">
        <ele>341.78800128</ele>
        <time>2020-05-21T15:13:41.000Z</time>
      </trkpt>
      <trkpt lat="47.15141" lon="4.92017">
        <ele>341.38800128</ele>
        <time>2020-05-21T15:13:43.000Z</time>
      </trkpt>
      <trkpt lat="47.15139" lon="4.92015">
        <ele>340.69400064</ele>
        <time>2020-05-21T15:13:48.000Z</time>
      </trkpt>
      <trkpt lat="47.15137" lon="4.92014">
        <ele>340.49400064</ele>
        <time>2020-05-21T15:13:50.000Z</time>
      </trkpt>
      <trkpt lat="47.15134" lon="4.92013">
        <ele>340.29400064</ele>
        <time>2020-05-21T15:13:52.000Z</time>
      </trkpt>
      <trkpt lat="47.15132" lon="4.92011">
        <ele>340.09400064</ele>
        <time>2020-05-21T15:13:54.000Z</time>
      </trkpt>
      <trkpt lat="47.1513" lon="4.9201">
        <ele>339.79377530742</ele>
        <time>2020-05-21T15:13:56.000Z</time>
      </trkpt>
      <trkpt lat="47.15129" lon="4.92008">
        <ele>339.40466976457</ele>
        <time>2020-05-21T15:13:58.000Z</time>
      </trkpt>
      <trkpt lat="47.15127" lon="4.92005">
        <ele>339.01556422171</ele>
        <time>2020-05-21T15:14:00.000Z</time>
      </trkpt>
      <trkpt lat="47.15126" lon="4.92002">
        <ele>338.62645867886</ele>
        <time>2020-05-21T15:14:02.000Z</time>
      </trkpt>
      <trkpt lat="47.15125" lon="4.92001">
        <ele>338.43190590743</ele>
        <time>2020-05-21T15:14:03.000Z</time>
      </trkpt>
      <trkpt lat="47.15123" lon="4.91998">
        <ele>338.04280036458</ele>
        <time>2020-05-21T15:14:05.000Z</time>
      </trkpt>
      <trkpt lat="47.15121" lon="4.91996">
        <ele>337.8168720107</ele>
        <time>2020-05-21T15:14:07.000Z</time>
      </trkpt>
      <trkpt lat="47.15118" lon="4.91993">
        <ele>337.61111096479</ele>
        <time>2020-05-21T15:14:09.000Z</time>
      </trkpt>
      <trkpt lat="47.15116" lon="4.91991">
        <ele>337.40534991888</ele>
        <time>2020-05-21T15:14:11.000Z</time>
      </trkpt>
      <trkpt lat="47.15113" lon="4.9199">
        <ele>337.19958887297</ele>
        <time>2020-05-21T15:14:13.000Z</time>
      </trkpt>
      <trkpt lat="47.15111" lon="4.91991">
        <ele>337.00599936</ele>
        <time>2020-05-21T15:14:15.000Z</time>
      </trkpt>
      <trkpt lat="47.15109" lon="4.91991">
        <ele>337.20599936</ele>
        <time>2020-05-21T15:14:17.000Z</time>
      </trkpt>
      <trkpt lat="47.15107" lon="4.9199">
        <ele>337.40599936</ele>
        <time>2020-05-21T15:14:19.000Z</time>
      </trkpt>
      <trkpt lat="47.15105" lon="4.91989">
        <ele>337.60599936</ele>
        <time>2020-05-21T15:14:21.000Z</time>
      </trkpt>
      <trkpt lat="47.15103" lon="4.91989">
        <ele>337.80599936</ele>
        <time>2020-05-21T15:14:23.000Z</time>
      </trkpt>
      <trkpt lat="47.151" lon="4.91988">
        <ele>338</ele>
        <time>2020-05-21T15:14:25.000Z</time>
      </trkpt>
      <trkpt lat="47.15098" lon="4.91988">
        <ele>338</ele>
        <time>2020-05-21T15:14:27.000Z</time>
      </trkpt>
      <trkpt lat="47.15096" lon="4.91987">
        <ele>338</ele>
        <time>2020-05-21T15:14:29.000Z</time>
      </trkpt>
      <trkpt lat="47.15094" lon="4.91985">
        <ele>338</ele>
        <time>2020-05-21T15:14:31.000Z</time>
      </trkpt>
      <trkpt lat="47.15091" lon="4.91983">
        <ele>338</ele>
        <time>2020-05-21T15:14:33.000Z</time>
      </trkpt>
      <trkpt lat="47.15089" lon="4.91982">
        <ele>337.98800128</ele>
        <time>2020-05-21T15:14:35.000Z</time>
      </trkpt>
      <trkpt lat="47.15087" lon="4.91982">
        <ele>337.58800128</ele>
        <time>2020-05-21T15:14:37.000Z</time>
      </trkpt>
      <trkpt lat="47.15084" lon="4.91981">
        <ele>337.18800128</ele>
        <time>2020-05-21T15:14:39.000Z</time>
      </trkpt>
      <trkpt lat="47.15082" lon="4.9198">
        <ele>336.78800128</ele>
        <time>2020-05-21T15:14:41.000Z</time>
      </trkpt>
      <trkpt lat="47.1508" lon="4.91978">
        <ele>336.38800128</ele>
        <time>2020-05-21T15:14:43.000Z</time>
      </trkpt>
      <trkpt lat="47.15078" lon="4.91977">
        <ele>335.99400064</ele>
        <time>2020-05-21T15:14:45.000Z</time>
      </trkpt>
      <trkpt lat="47.15075" lon="4.91977">
        <ele>335.79400064</ele>
        <time>2020-05-21T15:14:47.000Z</time>
      </trkpt>
      <trkpt lat="47.15074" lon="4.91975">
        <ele>335.49400064</ele>
        <time>2020-05-21T15:14:50.000Z</time>
      </trkpt>
      <trkpt lat="47.15071" lon="4.91975">
        <ele>335.19400064</ele>
        <time>2020-05-21T15:14:53.000Z</time>
      </trkpt>
      <trkpt lat="47.15069" lon="4.91976">
        <ele>334.98800128</ele>
        <time>2020-05-21T15:14:55.000Z</time>
      </trkpt>
      <trkpt lat="47.15067" lon="4.91977">
        <ele>334.58800128</ele>
        <time>2020-05-21T15:14:57.000Z</time>
      </trkpt>
      <trkpt lat="47.15065" lon="4.91978">
        <ele>334.18800128</ele>
        <time>2020-05-21T15:14:59.000Z</time>
      </trkpt>
      <trkpt lat="47.15063" lon="4.91981">
        <ele>333.78800128</ele>
        <time>2020-05-21T15:15:01.000Z</time>
      </trkpt>
      <trkpt lat="47.15061" lon="4.91983">
        <ele>333.38800128</ele>
        <time>2020-05-21T15:15:03.000Z</time>
      </trkpt>
      <trkpt lat="47.1506" lon="4.91984">
        <ele>333.18800128</ele>
        <time>2020-05-21T15:15:04.000Z</time>
      </trkpt>
      <trkpt lat="47.15058" lon="4.91986">
        <ele>333</ele>
        <time>2020-05-21T15:15:06.000Z</time>
      </trkpt>
      <trkpt lat="47.15055" lon="4.91986">
        <ele>333</ele>
        <time>2020-05-21T15:15:09.000Z</time>
      </trkpt>
      <trkpt lat="47.15053" lon="4.91986">
        <ele>333</ele>
        <time>2020-05-21T15:15:11.000Z</time>
      </trkpt>
      <trkpt lat="47.15051" lon="4.91986">
        <ele>333</ele>
        <time>2020-05-21T15:15:13.000Z</time>
      </trkpt>
      <trkpt lat="47.15049" lon="4.91986">
        <ele>333</ele>
        <time>2020-05-21T15:15:15.000Z</time>
      </trkpt>
      <trkpt lat="47.15046" lon="4.91985">
        <ele>333</ele>
        <time>2020-05-21T15:15:17.000Z</time>
      </trkpt>
      <trkpt lat="47.15044" lon="4.91985">
        <ele>333</ele>
        <time>2020-05-21T15:15:19.000Z</time>
      </trkpt>
      <trkpt lat="47.15041" lon="4.91986">
        <ele>333</ele>
        <time>2020-05-21T15:15:21.000Z</time>
      </trkpt>
      <trkpt lat="47.15039" lon="4.91987">
        <ele>333</ele>
        <time>2020-05-21T15:15:23.000Z</time>
      </trkpt>
      <trkpt lat="47.15036" lon="4.91988">
        <ele>333</ele>
        <time>2020-05-21T15:15:26.000Z</time>
      </trkpt>
      <trkpt lat="47.15034" lon="4.9199">
        <ele>333</ele>
        <time>2020-05-21T15:15:28.000Z</time>
      </trkpt>
      <trkpt lat="47.15032" lon="4.91992">
        <ele>333</ele>
        <time>2020-05-21T15:15:30.000Z</time>
      </trkpt>
      <trkpt lat="47.1503" lon="4.91993">
        <ele>333</ele>
        <time>2020-05-21T15:15:33.000Z</time>
      </trkpt>
      <trkpt lat="47.15028" lon="4.91993">
        <ele>333</ele>
        <time>2020-05-21T15:15:35.000Z</time>
      </trkpt>
      <trkpt lat="47.15026" lon="4.91992">
        <ele>333</ele>
        <time>2020-05-21T15:15:37.000Z</time>
      </trkpt>
      <trkpt lat="47.15024" lon="4.91991">
        <ele>333</ele>
        <time>2020-05-21T15:15:39.000Z</time>
      </trkpt>
      <trkpt lat="47.15021" lon="4.9199">
        <ele>333</ele>
        <time>2020-05-21T15:15:41.000Z</time>
      </trkpt>
      <trkpt lat="47.15019" lon="4.91989">
        <ele>333</ele>
        <time>2020-05-21T15:15:43.000Z</time>
      </trkpt>
      <trkpt lat="47.15017" lon="4.91989">
        <ele>333</ele>
        <time>2020-05-21T15:15:45.000Z</time>
      </trkpt>
      <trkpt lat="47.15015" lon="4.91989">
        <ele>333</ele>
        <time>2020-05-21T15:15:47.000Z</time>
      </trkpt>
      <trkpt lat="47.15013" lon="4.9199">
        <ele>333</ele>
        <time>2020-05-21T15:15:49.000Z</time>
      </trkpt>
      <trkpt lat="47.15011" lon="4.91991">
        <ele>333</ele>
        <time>2020-05-21T15:15:51.000Z</time>
      </trkpt>
      <trkpt lat="47.15009" lon="4.91992">
        <ele>333</ele>
        <time>2020-05-21T15:15:53.000Z</time>
      </trkpt>
      <trkpt lat="47.15007" lon="4.91993">
        <ele>333</ele>
        <time>2020-05-21T15:15:55.000Z</time>
      </trkpt>
      <trkpt lat="47.15006" lon="4.91995">
        <ele>333</ele>
        <time>2020-05-21T15:15:58.000Z</time>
      </trkpt>
      <trkpt lat="47.15006" lon="4.91998">
        <ele>333</ele>
        <time>2020-05-21T15:16:25.000Z</time>
      </trkpt>
      <trkpt lat="47.15006" lon="4.92001">
        <ele>333</ele>
        <time>2020-05-21T15:16:28.000Z</time>
      </trkpt>
      <trkpt lat="47.15008" lon="4.92004">
        <ele>333</ele>
        <time>2020-05-21T15:16:31.000Z</time>
      </trkpt>
      <trkpt lat="47.15009" lon="4.92006">
        <ele>333</ele>
        <time>2020-05-21T15:16:34.000Z</time>
      </trkpt>
      <trkpt lat="47.15007" lon="4.92009">
        <ele>333.41199872</ele>
        <time>2020-05-21T15:16:37.000Z</time>
      </trkpt>
      <trkpt lat="47.15006" lon="4.92012">
        <ele>333.81199872</ele>
        <time>2020-05-21T15:16:39.000Z</time>
      </trkpt>
      <trkpt lat="47.15005" lon="4.92016">
        <ele>334.21199872</ele>
        <time>2020-05-21T15:16:41.000Z</time>
      </trkpt>
      <trkpt lat="47.15005" lon="4.92019">
        <ele>334.61199872</ele>
        <time>2020-05-21T15:16:43.000Z</time>
      </trkpt>
      <trkpt lat="47.15004" lon="4.92022">
        <ele>335</ele>
        <time>2020-05-21T15:16:45.000Z</time>
      </trkpt>
      <trkpt lat="47.15002" lon="4.92025">
        <ele>335</ele>
        <time>2020-05-21T15:16:47.000Z</time>
      </trkpt>
      <trkpt lat="47.15001" lon="4.92027">
        <ele>335</ele>
        <time>2020-05-21T15:16:49.000Z</time>
      </trkpt>
      <trkpt lat="47.14999" lon="4.9203">
        <ele>335</ele>
        <time>2020-05-21T15:16:52.000Z</time>
      </trkpt>
      <trkpt lat="47.14997" lon="4.92033">
        <ele>335</ele>
        <time>2020-05-21T15:16:54.000Z</time>
      </trkpt>
      <trkpt lat="47.14996" lon="4.92035">
        <ele>334.89400064</ele>
        <time>2020-05-21T15:16:56.000Z</time>
      </trkpt>
      <trkpt lat="47.14995" lon="4.92037">
        <ele>334.69400064</ele>
        <time>2020-05-21T15:16:58.000Z</time>
      </trkpt>
      <trkpt lat="47.14994" lon="4.92041">
        <ele>334.49400064</ele>
        <time>2020-05-21T15:17:00.000Z</time>
      </trkpt>
      <trkpt lat="47.14994" lon="4.92044">
        <ele>334.29400064</ele>
        <time>2020-05-21T15:17:02.000Z</time>
      </trkpt>
      <trkpt lat="47.14993" lon="4.92048">
        <ele>334.00599936</ele>
        <time>2020-05-21T15:17:05.000Z</time>
      </trkpt>
      <trkpt lat="47.14992" lon="4.92051">
        <ele>334.20599936</ele>
        <time>2020-05-21T15:17:07.000Z</time>
      </trkpt>
      <trkpt lat="47.14991" lon="4.92055">
        <ele>334.40599936</ele>
        <time>2020-05-21T15:17:09.000Z</time>
      </trkpt>
      <trkpt lat="47.1499" lon="4.92059">
        <ele>334.60599936</ele>
        <time>2020-05-21T15:17:11.000Z</time>
      </trkpt>
      <trkpt lat="47.1499" lon="4.92062">
        <ele>334.80599936</ele>
        <time>2020-05-21T15:17:13.000Z</time>
      </trkpt>
      <trkpt lat="47.1499" lon="4.92065">
        <ele>335.00599936</ele>
        <time>2020-05-21T15:17:15.000Z</time>
      </trkpt>
      <trkpt lat="47.1499" lon="4.92068">
        <ele>335.20599936</ele>
        <time>2020-05-21T15:17:17.000Z</time>
      </trkpt>
      <trkpt lat="47.1499" lon="4.9207">
        <ele>335.40599936</ele>
        <time>2020-05-21T15:17:19.000Z</time>
      </trkpt>
      <trkpt lat="47.14991" lon="4.92074">
        <ele>335.70599936</ele>
        <time>2020-05-21T15:17:22.000Z</time>
      </trkpt>
      <trkpt lat="47.14992" lon="4.92076">
        <ele>335.90599936</ele>
        <time>2020-05-21T15:17:24.000Z</time>
      </trkpt>
      <trkpt lat="47.14993" lon="4.92079">
        <ele>336.41199872</ele>
        <time>2020-05-21T15:17:27.000Z</time>
      </trkpt>
      <trkpt lat="47.14994" lon="4.92083">
        <ele>337.01199872</ele>
        <time>2020-05-21T15:17:30.000Z</time>
      </trkpt>
      <trkpt lat="47.14995" lon="4.92086">
        <ele>337.61199872</ele>
        <time>2020-05-21T15:17:33.000Z</time>
      </trkpt>
      <trkpt lat="47.14995" lon="4.92088">
        <ele>338.01199872</ele>
        <time>2020-05-21T15:17:35.000Z</time>
      </trkpt>
      <trkpt lat="47.14995" lon="4.92091">
        <ele>338.41199872</ele>
        <time>2020-05-21T15:17:37.000Z</time>
      </trkpt>
      <trkpt lat="47.14995" lon="4.92096">
        <ele>339.01199872</ele>
        <time>2020-05-21T15:17:40.000Z</time>
      </trkpt>
      <trkpt lat="47.14995" lon="4.92099">
        <ele>339.41199872</ele>
        <time>2020-05-21T15:17:42.000Z</time>
      </trkpt>
      <trkpt lat="47.14995" lon="4.921">
        <ele>339.61199872</ele>
        <time>2020-05-21T15:17:43.000Z</time>
      </trkpt>
      <trkpt lat="47.14996" lon="4.92103">
        <ele>340</ele>
        <time>2020-05-21T15:17:45.000Z</time>
      </trkpt>
      <trkpt lat="47.14996" lon="4.92106">
        <ele>340</ele>
        <time>2020-05-21T15:17:47.000Z</time>
      </trkpt>
      <trkpt lat="47.14996" lon="4.92109">
        <ele>340</ele>
        <time>2020-05-21T15:17:49.000Z</time>
      </trkpt>
      <trkpt lat="47.14996" lon="4.92112">
        <ele>340</ele>
        <time>2020-05-21T15:17:51.000Z</time>
      </trkpt>
      <trkpt lat="47.14996" lon="4.92115">
        <ele>340</ele>
        <time>2020-05-21T15:17:53.000Z</time>
      </trkpt>
      <trkpt lat="47.14996" lon="4.92118">
        <ele>340.00599936</ele>
        <time>2020-05-21T15:17:55.000Z</time>
      </trkpt>
      <trkpt lat="47.14996" lon="4.92121">
        <ele>340.20599936</ele>
        <time>2020-05-21T15:17:57.000Z</time>
      </trkpt>
      <trkpt lat="47.14996" lon="4.92124">
        <ele>340.40599936</ele>
        <time>2020-05-21T15:17:59.000Z</time>
      </trkpt>
      <trkpt lat="47.14995" lon="4.92128">
        <ele>340.60599936</ele>
        <time>2020-05-21T15:18:01.000Z</time>
      </trkpt>
      <trkpt lat="47.14994" lon="4.9213">
        <ele>340.80599936</ele>
        <time>2020-05-21T15:18:03.000Z</time>
      </trkpt>
      <trkpt lat="47.14994" lon="4.92134">
        <ele>341</ele>
        <time>2020-05-21T15:18:17.000Z</time>
      </trkpt>
      <trkpt lat="47.14994" lon="4.92138">
        <ele>341</ele>
        <time>2020-05-21T15:18:19.000Z</time>
      </trkpt>
      <trkpt lat="47.14993" lon="4.92141">
        <ele>341</ele>
        <time>2020-05-21T15:18:21.000Z</time>
      </trkpt>
      <trkpt lat="47.14993" lon="4.92144">
        <ele>341</ele>
        <time>2020-05-21T15:18:23.000Z</time>
      </trkpt>
      <trkpt lat="47.14993" lon="4.92148">
        <ele>341.00599936</ele>
        <time>2020-05-21T15:18:25.000Z</time>
      </trkpt>
      <trkpt lat="47.14993" lon="4.92152">
        <ele>341.20599936</ele>
        <time>2020-05-21T15:18:27.000Z</time>
      </trkpt>
      <trkpt lat="47.14993" lon="4.92155">
        <ele>341.40599936</ele>
        <time>2020-05-21T15:18:29.000Z</time>
      </trkpt>
      <trkpt lat="47.14994" lon="4.92158">
        <ele>341.60599936</ele>
        <time>2020-05-21T15:18:31.000Z</time>
      </trkpt>
      <trkpt lat="47.14994" lon="4.92161">
        <ele>341.80599936</ele>
        <time>2020-05-21T15:18:33.000Z</time>
      </trkpt>
      <trkpt lat="47.14994" lon="4.92164">
        <ele>342</ele>
        <time>2020-05-21T15:18:35.000Z</time>
      </trkpt>
      <trkpt lat="47.14994" lon="4.92168">
        <ele>342</ele>
        <time>2020-05-21T15:18:37.000Z</time>
      </trkpt>
      <trkpt lat="47.14995" lon="4.92171">
        <ele>342</ele>
        <time>2020-05-21T15:18:39.000Z</time>
      </trkpt>
      <trkpt lat="47.14995" lon="4.92175">
        <ele>342</ele>
        <time>2020-05-21T15:18:41.000Z</time>
      </trkpt>
      <trkpt lat="47.14995" lon="4.92178">
        <ele>342</ele>
        <time>2020-05-21T15:18:43.000Z</time>
      </trkpt>
      <trkpt lat="47.14995" lon="4.92181">
        <ele>341.99400064</ele>
        <time>2020-05-21T15:18:45.000Z</time>
      </trkpt>
      <trkpt lat="47.14996" lon="4.92184">
        <ele>341.79400064</ele>
        <time>2020-05-21T15:18:47.000Z</time>
      </trkpt>
      <trkpt lat="47.14995" lon="4.92187">
        <ele>341.59400064</ele>
        <time>2020-05-21T15:18:49.000Z</time>
      </trkpt>
      <trkpt lat="47.14996" lon="4.9219">
        <ele>341.29400064</ele>
        <time>2020-05-21T15:18:52.000Z</time>
      </trkpt>
      <trkpt lat="47.14995" lon="4.92193">
        <ele>341.09400064</ele>
        <time>2020-05-21T15:18:54.000Z</time>
      </trkpt>
      <trkpt lat="47.14995" lon="4.92196">
        <ele>340.89678728424</ele>
        <time>2020-05-21T15:18:56.000Z</time>
      </trkpt>
      <trkpt lat="47.14994" lon="4.922">
        <ele>340.60467406084</ele>
        <time>2020-05-21T15:18:59.000Z</time>
      </trkpt>
      <trkpt lat="47.14995" lon="4.92203">
        <ele>340.40993191191</ele>
        <time>2020-05-21T15:19:01.000Z</time>
      </trkpt>
      <trkpt lat="47.14996" lon="4.92206">
        <ele>340.21518976298</ele>
        <time>2020-05-21T15:19:03.000Z</time>
      </trkpt>
      <trkpt lat="47.14996" lon="4.9221">
        <ele>340.16238487576</ele>
        <time>2020-05-21T15:19:06.000Z</time>
      </trkpt>
      <trkpt lat="47.14997" lon="4.92214">
        <ele>340.77903380486</ele>
        <time>2020-05-21T15:19:09.000Z</time>
      </trkpt>
      <trkpt lat="47.14997" lon="4.92217">
        <ele>341.19013309093</ele>
        <time>2020-05-21T15:19:11.000Z</time>
      </trkpt>
      <trkpt lat="47.14997" lon="4.92218">
        <ele>341.601232377</ele>
        <time>2020-05-21T15:19:13.000Z</time>
      </trkpt>
      <trkpt lat="47.14997" lon="4.92222">
        <ele>342.211575704</ele>
        <time>2020-05-21T15:19:16.000Z</time>
      </trkpt>
      <trkpt lat="47.14998" lon="4.92225">
        <ele>342.61077755579</ele>
        <time>2020-05-21T15:19:18.000Z</time>
      </trkpt>
      <trkpt lat="47.14999" lon="4.92228">
        <ele>343.20958033346</ele>
        <time>2020-05-21T15:19:21.000Z</time>
      </trkpt>
      <trkpt lat="47.15" lon="4.92229">
        <ele>343.80838311114</ele>
        <time>2020-05-21T15:19:24.000Z</time>
      </trkpt>
      <trkpt lat="47.15002" lon="4.92231">
        <ele>344.4088173731</ele>
        <time>2020-05-21T15:19:27.000Z</time>
      </trkpt>
      <trkpt lat="47.15003" lon="4.92233">
        <ele>345.01001939237</ele>
        <time>2020-05-21T15:19:30.000Z</time>
      </trkpt>
      <trkpt lat="47.15005" lon="4.92234">
        <ele>345.61122141164</ele>
        <time>2020-05-21T15:19:33.000Z</time>
      </trkpt>
      <trkpt lat="47.15006" lon="4.92237">
        <ele>346.41199872</ele>
        <time>2020-05-21T15:19:37.000Z</time>
      </trkpt>
      <trkpt lat="47.15007" lon="4.92239">
        <ele>347.01199872</ele>
        <time>2020-05-21T15:19:40.000Z</time>
      </trkpt>
      <trkpt lat="47.15008" lon="4.92242">
        <ele>347.81199872</ele>
        <time>2020-05-21T15:19:44.000Z</time>
      </trkpt>
      <trkpt lat="47.15009" lon="4.92244">
        <ele>348.41199872</ele>
        <time>2020-05-21T15:19:47.000Z</time>
      </trkpt>
      <trkpt lat="47.1501" lon="4.92247">
        <ele>348.81199872</ele>
        <time>2020-05-21T15:19:49.000Z</time>
      </trkpt>
      <trkpt lat="47.15011" lon="4.92249">
        <ele>349.41199872</ele>
        <time>2020-05-21T15:19:52.000Z</time>
      </trkpt>
      <trkpt lat="47.15012" lon="4.92251">
        <ele>349.81199872</ele>
        <time>2020-05-21T15:19:54.000Z</time>
      </trkpt>
      <trkpt lat="47.15013" lon="4.92254">
        <ele>350.61799808</ele>
        <time>2020-05-21T15:19:57.000Z</time>
      </trkpt>
      <trkpt lat="47.15015" lon="4.92256">
        <ele>351.81799808</ele>
        <time>2020-05-21T15:20:01.000Z</time>
      </trkpt>
      <trkpt lat="47.15016" lon="4.92258">
        <ele>352.41799808</ele>
        <time>2020-05-21T15:20:03.000Z</time>
      </trkpt>
      <trkpt lat="47.15017" lon="4.92261">
        <ele>353.20599936</ele>
        <time>2020-05-21T15:20:07.000Z</time>
      </trkpt>
      <trkpt lat="47.15019" lon="4.92263">
        <ele>353.60599936</ele>
        <time>2020-05-21T15:20:11.000Z</time>
      </trkpt>
      <trkpt lat="47.1502" lon="4.92264">
        <ele>353.80599936</ele>
        <time>2020-05-21T15:20:13.000Z</time>
      </trkpt>
      <trkpt lat="47.15021" lon="4.92267">
        <ele>354.91799808</ele>
        <time>2020-05-21T15:20:18.000Z</time>
      </trkpt>
      <trkpt lat="47.15021" lon="4.9227">
        <ele>355.81799808</ele>
        <time>2020-05-21T15:20:21.000Z</time>
      </trkpt>
      <trkpt lat="47.15021" lon="4.92272">
        <ele>356.41799808</ele>
        <time>2020-05-21T15:20:23.000Z</time>
      </trkpt>
      <trkpt lat="47.15021" lon="4.92275">
        <ele>357.10599936</ele>
        <time>2020-05-21T15:20:26.000Z</time>
      </trkpt>
      <trkpt lat="47.15022" lon="4.92274">
        <ele>358</ele>
        <time>2020-05-21T15:20:38.000Z</time>
      </trkpt>
      <trkpt lat="47.15023" lon="4.92272">
        <ele>358</ele>
        <time>2020-05-21T15:20:53.000Z</time>
      </trkpt>
      <trkpt lat="47.15022" lon="4.92274">
        <ele>357.19400064</ele>
        <time>2020-05-21T15:21:03.000Z</time>
      </trkpt>
      <trkpt lat="47.15021" lon="4.92276">
        <ele>357</ele>
        <time>2020-05-21T15:21:06.000Z</time>
      </trkpt>
      <trkpt lat="47.1502" lon="4.92279">
        <ele>357</ele>
        <time>2020-05-21T15:21:08.000Z</time>
      </trkpt>
      <trkpt lat="47.15018" lon="4.92282">
        <ele>357</ele>
        <time>2020-05-21T15:21:10.000Z</time>
      </trkpt>
      <trkpt lat="47.15017" lon="4.92285">
        <ele>357</ele>
        <time>2020-05-21T15:21:12.000Z</time>
      </trkpt>
      <trkpt lat="47.15016" lon="4.92288">
        <ele>357</ele>
        <time>2020-05-21T15:21:14.000Z</time>
      </trkpt>
      <trkpt lat="47.15015" lon="4.9229">
        <ele>357</ele>
        <time>2020-05-21T15:21:16.000Z</time>
      </trkpt>
      <trkpt lat="47.15014" lon="4.92293">
        <ele>357</ele>
        <time>2020-05-21T15:21:18.000Z</time>
      </trkpt>
      <trkpt lat="47.15012" lon="4.92296">
        <ele>357</ele>
        <time>2020-05-21T15:21:20.000Z</time>
      </trkpt>
      <trkpt lat="47.1501" lon="4.92297">
        <ele>357</ele>
        <time>2020-05-21T15:21:22.000Z</time>
      </trkpt>
      <trkpt lat="47.15009" lon="4.92298">
        <ele>357</ele>
        <time>2020-05-21T15:21:24.000Z</time>
      </trkpt>
      <trkpt lat="47.15006" lon="4.92299">
        <ele>356.79377530742</ele>
        <time>2020-05-21T15:21:26.000Z</time>
      </trkpt>
      <trkpt lat="47.15004" lon="4.923">
        <ele>356.21011699314</ele>
        <time>2020-05-21T15:21:29.000Z</time>
      </trkpt>
      <trkpt lat="47.15002" lon="4.92301">
        <ele>355.82101145029</ele>
        <time>2020-05-21T15:21:31.000Z</time>
      </trkpt>
      <trkpt lat="47.15001" lon="4.92303">
        <ele>355.43190590743</ele>
        <time>2020-05-21T15:21:33.000Z</time>
      </trkpt>
      <trkpt lat="47.14999" lon="4.92305">
        <ele>355.04280036458</ele>
        <time>2020-05-21T15:21:35.000Z</time>
      </trkpt>
      <trkpt lat="47.14996" lon="4.92305">
        <ele>354.4279829755</ele>
        <time>2020-05-21T15:21:38.000Z</time>
      </trkpt>
      <trkpt lat="47.14994" lon="4.92304">
        <ele>354.01646088367</ele>
        <time>2020-05-21T15:21:40.000Z</time>
      </trkpt>
      <trkpt lat="47.14992" lon="4.92303">
        <ele>353.39917774594</ele>
        <time>2020-05-21T15:21:43.000Z</time>
      </trkpt>
      <trkpt lat="47.14989" lon="4.92302">
        <ele>352.89400064</ele>
        <time>2020-05-21T15:21:46.000Z</time>
      </trkpt>
      <trkpt lat="47.14987" lon="4.92302">
        <ele>352.69400064</ele>
        <time>2020-05-21T15:21:48.000Z</time>
      </trkpt>
      <trkpt lat="47.14984" lon="4.92301">
        <ele>352.49400064</ele>
        <time>2020-05-21T15:21:50.000Z</time>
      </trkpt>
      <trkpt lat="47.14981" lon="4.92301">
        <ele>352.29400064</ele>
        <time>2020-05-21T15:21:52.000Z</time>
      </trkpt>
      <trkpt lat="47.1498" lon="4.92301">
        <ele>352.19400064</ele>
        <time>2020-05-21T15:21:53.000Z</time>
      </trkpt>
      <trkpt lat="47.14977" lon="4.92301">
        <ele>351.99400064</ele>
        <time>2020-05-21T15:21:55.000Z</time>
      </trkpt>
      <trkpt lat="47.14974" lon="4.923">
        <ele>351.79400064</ele>
        <time>2020-05-21T15:21:57.000Z</time>
      </trkpt>
      <trkpt lat="47.14971" lon="4.92301">
        <ele>351.59400064</ele>
        <time>2020-05-21T15:21:59.000Z</time>
      </trkpt>
      <trkpt lat="47.14969" lon="4.923">
        <ele>351.39400064</ele>
        <time>2020-05-21T15:22:01.000Z</time>
      </trkpt>
      <trkpt lat="47.14966" lon="4.92301">
        <ele>351.19400064</ele>
        <time>2020-05-21T15:22:03.000Z</time>
      </trkpt>
      <trkpt lat="47.14964" lon="4.92302">
        <ele>351.00583596057</ele>
        <time>2020-05-21T15:22:05.000Z</time>
      </trkpt>
      <trkpt lat="47.14961" lon="4.92302">
        <ele>351.200388732</ele>
        <time>2020-05-21T15:22:07.000Z</time>
      </trkpt>
      <trkpt lat="47.14959" lon="4.92303">
        <ele>351.39494150343</ele>
        <time>2020-05-21T15:22:09.000Z</time>
      </trkpt>
      <trkpt lat="47.14957" lon="4.92304">
        <ele>351.58949427486</ele>
        <time>2020-05-21T15:22:11.000Z</time>
      </trkpt>
      <trkpt lat="47.14955" lon="4.92306">
        <ele>351.78404704628</ele>
        <time>2020-05-21T15:22:13.000Z</time>
      </trkpt>
      <trkpt lat="47.14953" lon="4.92307">
        <ele>352</ele>
        <time>2020-05-21T15:22:16.000Z</time>
      </trkpt>
      <trkpt lat="47.14951" lon="4.92307">
        <ele>352</ele>
        <time>2020-05-21T15:22:18.000Z</time>
      </trkpt>
      <trkpt lat="47.14949" lon="4.92309">
        <ele>352</ele>
        <time>2020-05-21T15:22:20.000Z</time>
      </trkpt>
      <trkpt lat="47.14947" lon="4.92311">
        <ele>352</ele>
        <time>2020-05-21T15:22:22.000Z</time>
      </trkpt>
      <trkpt lat="47.14945" lon="4.92312">
        <ele>352</ele>
        <time>2020-05-21T15:22:24.000Z</time>
      </trkpt>
      <trkpt lat="47.14943" lon="4.92313">
        <ele>352</ele>
        <time>2020-05-21T15:22:26.000Z</time>
      </trkpt>
      <trkpt lat="47.14941" lon="4.92315">
        <ele>352</ele>
        <time>2020-05-21T15:22:28.000Z</time>
      </trkpt>
      <trkpt lat="47.1494" lon="4.92317">
        <ele>352</ele>
        <time>2020-05-21T15:22:30.000Z</time>
      </trkpt>
      <trkpt lat="47.14937" lon="4.92318">
        <ele>352</ele>
        <time>2020-05-21T15:22:32.000Z</time>
      </trkpt>
      <trkpt lat="47.14935" lon="4.92319">
        <ele>352</ele>
        <time>2020-05-21T15:22:34.000Z</time>
      </trkpt>
      <trkpt lat="47.14933" lon="4.92322">
        <ele>352</ele>
        <time>2020-05-21T15:22:36.000Z</time>
      </trkpt>
      <trkpt lat="47.14931" lon="4.92325">
        <ele>352</ele>
        <time>2020-05-21T15:22:38.000Z</time>
      </trkpt>
      <trkpt lat="47.14929" lon="4.92328">
        <ele>352</ele>
        <time>2020-05-21T15:22:40.000Z</time>
      </trkpt>
      <trkpt lat="47.14928" lon="4.9233">
        <ele>352</ele>
        <time>2020-05-21T15:22:42.000Z</time>
      </trkpt>
      <trkpt lat="47.14927" lon="4.92334">
        <ele>352</ele>
        <time>2020-05-21T15:22:44.000Z</time>
      </trkpt>
      <trkpt lat="47.14926" lon="4.92336">
        <ele>352</ele>
        <time>2020-05-21T15:22:46.000Z</time>
      </trkpt>
      <trkpt lat="47.14925" lon="4.92339">
        <ele>352</ele>
        <time>2020-05-21T15:22:48.000Z</time>
      </trkpt>
      <trkpt lat="47.14924" lon="4.92342">
        <ele>352</ele>
        <time>2020-05-21T15:22:50.000Z</time>
      </trkpt>
      <trkpt lat="47.14924" lon="4.92345">
        <ele>352</ele>
        <time>2020-05-21T15:22:52.000Z</time>
      </trkpt>
      <trkpt lat="47.14923" lon="4.92348">
        <ele>352</ele>
        <time>2020-05-21T15:22:54.000Z</time>
      </trkpt>
      <trkpt lat="47.14923" lon="4.92352">
        <ele>352</ele>
        <time>2020-05-21T15:22:56.000Z</time>
      </trkpt>
      <trkpt lat="47.14922" lon="4.92356">
        <ele>352</ele>
        <time>2020-05-21T15:22:59.000Z</time>
      </trkpt>
      <trkpt lat="47.14922" lon="4.92359">
        <ele>352</ele>
        <time>2020-05-21T15:23:01.000Z</time>
      </trkpt>
      <trkpt lat="47.14922" lon="4.92363">
        <ele>352</ele>
        <time>2020-05-21T15:23:03.000Z</time>
      </trkpt>
      <trkpt lat="47.14921" lon="4.92367">
        <ele>352</ele>
        <time>2020-05-21T15:23:05.000Z</time>
      </trkpt>
      <trkpt lat="47.14921" lon="4.9237">
        <ele>352</ele>
        <time>2020-05-21T15:23:07.000Z</time>
      </trkpt>
      <trkpt lat="47.14919" lon="4.92373">
        <ele>352</ele>
        <time>2020-05-21T15:23:09.000Z</time>
      </trkpt>
      <trkpt lat="47.14919" lon="4.92376">
        <ele>352</ele>
        <time>2020-05-21T15:23:11.000Z</time>
      </trkpt>
      <trkpt lat="47.14919" lon="4.92379">
        <ele>352</ele>
        <time>2020-05-21T15:23:17.000Z</time>
      </trkpt>
      <trkpt lat="47.14919" lon="4.92382">
        <ele>352</ele>
        <time>2020-05-21T15:23:19.000Z</time>
      </trkpt>
      <trkpt lat="47.14919" lon="4.92386">
        <ele>352</ele>
        <time>2020-05-21T15:23:21.000Z</time>
      </trkpt>
      <trkpt lat="47.14919" lon="4.92389">
        <ele>352</ele>
        <time>2020-05-21T15:23:23.000Z</time>
      </trkpt>
      <trkpt lat="47.14919" lon="4.92393">
        <ele>352</ele>
        <time>2020-05-21T15:23:25.000Z</time>
      </trkpt>
      <trkpt lat="47.14919" lon="4.92396">
        <ele>352</ele>
        <time>2020-05-21T15:23:27.000Z</time>
      </trkpt>
      <trkpt lat="47.14919" lon="4.92399">
        <ele>352</ele>
        <time>2020-05-21T15:23:29.000Z</time>
      </trkpt>
      <trkpt lat="47.14919" lon="4.92403">
        <ele>352</ele>
        <time>2020-05-21T15:23:31.000Z</time>
      </trkpt>
      <trkpt lat="47.14918" lon="4.92406">
        <ele>352</ele>
        <time>2020-05-21T15:23:33.000Z</time>
      </trkpt>
      <trkpt lat="47.14918" lon="4.9241">
        <ele>352.00599936</ele>
        <time>2020-05-21T15:23:35.000Z</time>
      </trkpt>
      <trkpt lat="47.14918" lon="4.92413">
        <ele>352.20599936</ele>
        <time>2020-05-21T15:23:37.000Z</time>
      </trkpt>
      <trkpt lat="47.14918" lon="4.92417">
        <ele>352.40599936</ele>
        <time>2020-05-21T15:23:39.000Z</time>
      </trkpt>
      <trkpt lat="47.14919" lon="4.9242">
        <ele>352.60599936</ele>
        <time>2020-05-21T15:23:41.000Z</time>
      </trkpt>
      <trkpt lat="47.14919" lon="4.92423">
        <ele>352.80599936</ele>
        <time>2020-05-21T15:23:43.000Z</time>
      </trkpt>
      <trkpt lat="47.14919" lon="4.92427">
        <ele>353.00595766208</ele>
        <time>2020-05-21T15:23:45.000Z</time>
      </trkpt>
      <trkpt lat="47.14919" lon="4.9243">
        <ele>353.2045675833</ele>
        <time>2020-05-21T15:23:47.000Z</time>
      </trkpt>
      <trkpt lat="47.1492" lon="4.92433">
        <ele>353.40317750452</ele>
        <time>2020-05-21T15:23:49.000Z</time>
      </trkpt>
      <trkpt lat="47.1492" lon="4.92437">
        <ele>353.60178742574</ele>
        <time>2020-05-21T15:23:51.000Z</time>
      </trkpt>
      <trkpt lat="47.14921" lon="4.9244">
        <ele>353.80039734695</ele>
        <time>2020-05-21T15:23:53.000Z</time>
      </trkpt>
      <trkpt lat="47.14921" lon="4.92444">
        <ele>353.99900726817</ele>
        <time>2020-05-21T15:23:55.000Z</time>
      </trkpt>
      <trkpt lat="47.14922" lon="4.92447">
        <ele>353.79959705175</ele>
        <time>2020-05-21T15:23:57.000Z</time>
      </trkpt>
      <trkpt lat="47.14922" lon="4.9245">
        <ele>353.59818737738</ele>
        <time>2020-05-21T15:23:59.000Z</time>
      </trkpt>
      <trkpt lat="47.14923" lon="4.92453">
        <ele>353.39677770301</ele>
        <time>2020-05-21T15:24:01.000Z</time>
      </trkpt>
      <trkpt lat="47.14924" lon="4.92456">
        <ele>353.19536802865</ele>
        <time>2020-05-21T15:24:03.000Z</time>
      </trkpt>
      <trkpt lat="47.14925" lon="4.92459">
        <ele>353.00599936</ele>
        <time>2020-05-21T15:24:05.000Z</time>
      </trkpt>
      <trkpt lat="47.14925" lon="4.92461">
        <ele>353.20599936</ele>
        <time>2020-05-21T15:24:07.000Z</time>
      </trkpt>
      <trkpt lat="47.14926" lon="4.92465">
        <ele>353.40599936</ele>
        <time>2020-05-21T15:24:09.000Z</time>
      </trkpt>
      <trkpt lat="47.14927" lon="4.92468">
        <ele>353.60599936</ele>
        <time>2020-05-21T15:24:11.000Z</time>
      </trkpt>
      <trkpt lat="47.14927" lon="4.92472">
        <ele>353.80599936</ele>
        <time>2020-05-21T15:24:13.000Z</time>
      </trkpt>
      <trkpt lat="47.14928" lon="4.92475">
        <ele>354</ele>
        <time>2020-05-21T15:24:15.000Z</time>
      </trkpt>
      <trkpt lat="47.14929" lon="4.92478">
        <ele>354</ele>
        <time>2020-05-21T15:24:17.000Z</time>
      </trkpt>
      <trkpt lat="47.14931" lon="4.92481">
        <ele>354</ele>
        <time>2020-05-21T15:24:19.000Z</time>
      </trkpt>
      <trkpt lat="47.14932" lon="4.92484">
        <ele>354</ele>
        <time>2020-05-21T15:24:21.000Z</time>
      </trkpt>
      <trkpt lat="47.14932" lon="4.92487">
        <ele>354</ele>
        <time>2020-05-21T15:24:23.000Z</time>
      </trkpt>
      <trkpt lat="47.14933" lon="4.9249">
        <ele>354</ele>
        <time>2020-05-21T15:24:25.000Z</time>
      </trkpt>
      <trkpt lat="47.14934" lon="4.92492">
        <ele>354</ele>
        <time>2020-05-21T15:24:27.000Z</time>
      </trkpt>
      <trkpt lat="47.14934" lon="4.92495">
        <ele>354</ele>
        <time>2020-05-21T15:24:29.000Z</time>
      </trkpt>
      <trkpt lat="47.14934" lon="4.92498">
        <ele>354</ele>
        <time>2020-05-21T15:24:31.000Z</time>
      </trkpt>
      <trkpt lat="47.14935" lon="4.92502">
        <ele>354</ele>
        <time>2020-05-21T15:24:33.000Z</time>
      </trkpt>
      <trkpt lat="47.14936" lon="4.92504">
        <ele>354.00595174603</ele>
        <time>2020-05-21T15:24:35.000Z</time>
      </trkpt>
      <trkpt lat="47.14936" lon="4.92508">
        <ele>354.20436444444</ele>
        <time>2020-05-21T15:24:37.000Z</time>
      </trkpt>
      <trkpt lat="47.14937" lon="4.9251">
        <ele>354.40277714286</ele>
        <time>2020-05-21T15:24:39.000Z</time>
      </trkpt>
      <trkpt lat="47.14938" lon="4.92513">
        <ele>354.60118984127</ele>
        <time>2020-05-21T15:24:41.000Z</time>
      </trkpt>
      <trkpt lat="47.14938" lon="4.92517">
        <ele>354.79960253968</ele>
        <time>2020-05-21T15:24:43.000Z</time>
      </trkpt>
      <trkpt lat="47.14939" lon="4.9252">
        <ele>354.99801523809</ele>
        <time>2020-05-21T15:24:45.000Z</time>
      </trkpt>
      <trkpt lat="47.14939" lon="4.92523">
        <ele>355</ele>
        <time>2020-05-21T15:24:47.000Z</time>
      </trkpt>
      <trkpt lat="47.1494" lon="4.92526">
        <ele>355</ele>
        <time>2020-05-21T15:24:49.000Z</time>
      </trkpt>
      <trkpt lat="47.1494" lon="4.92529">
        <ele>355</ele>
        <time>2020-05-21T15:24:51.000Z</time>
      </trkpt>
      <trkpt lat="47.14941" lon="4.92533">
        <ele>355</ele>
        <time>2020-05-21T15:24:54.000Z</time>
      </trkpt>
      <trkpt lat="47.14942" lon="4.92537">
        <ele>355.10599936</ele>
        <time>2020-05-21T15:24:56.000Z</time>
      </trkpt>
      <trkpt lat="47.14942" lon="4.92541">
        <ele>355.30599936</ele>
        <time>2020-05-21T15:24:58.000Z</time>
      </trkpt>
      <trkpt lat="47.14942" lon="4.92545">
        <ele>355.50599936</ele>
        <time>2020-05-21T15:25:00.000Z</time>
      </trkpt>
      <trkpt lat="47.14943" lon="4.92548">
        <ele>355.70599936</ele>
        <time>2020-05-21T15:25:02.000Z</time>
      </trkpt>
      <trkpt lat="47.14943" lon="4.92551">
        <ele>355.90599936</ele>
        <time>2020-05-21T15:25:04.000Z</time>
      </trkpt>
      <trkpt lat="47.14944" lon="4.92555">
        <ele>356.10599936</ele>
        <time>2020-05-21T15:25:06.000Z</time>
      </trkpt>
      <trkpt lat="47.14944" lon="4.92558">
        <ele>356.30599936</ele>
        <time>2020-05-21T15:25:08.000Z</time>
      </trkpt>
      <trkpt lat="47.14945" lon="4.92562">
        <ele>356.50599936</ele>
        <time>2020-05-21T15:25:10.000Z</time>
      </trkpt>
      <trkpt lat="47.14945" lon="4.92565">
        <ele>356.70599936</ele>
        <time>2020-05-21T15:25:12.000Z</time>
      </trkpt>
      <trkpt lat="47.14945" lon="4.92568">
        <ele>356.90599936</ele>
        <time>2020-05-21T15:25:14.000Z</time>
      </trkpt>
      <trkpt lat="47.14945" lon="4.92571">
        <ele>357</ele>
        <time>2020-05-21T15:25:16.000Z</time>
      </trkpt>
      <trkpt lat="47.14945" lon="4.92575">
        <ele>357</ele>
        <time>2020-05-21T15:25:18.000Z</time>
      </trkpt>
      <trkpt lat="47.14946" lon="4.92578">
        <ele>357</ele>
        <time>2020-05-21T15:25:20.000Z</time>
      </trkpt>
      <trkpt lat="47.14946" lon="4.92582">
        <ele>357</ele>
        <time>2020-05-21T15:25:22.000Z</time>
      </trkpt>
      <trkpt lat="47.14947" lon="4.92586">
        <ele>357</ele>
        <time>2020-05-21T15:25:24.000Z</time>
      </trkpt>
      <trkpt lat="47.14947" lon="4.9259">
        <ele>357</ele>
        <time>2020-05-21T15:25:26.000Z</time>
      </trkpt>
      <trkpt lat="47.14947" lon="4.92593">
        <ele>357</ele>
        <time>2020-05-21T15:25:28.000Z</time>
      </trkpt>
      <trkpt lat="47.14947" lon="4.92597">
        <ele>357</ele>
        <time>2020-05-21T15:25:30.000Z</time>
      </trkpt>
      <trkpt lat="47.14947" lon="4.926">
        <ele>357</ele>
        <time>2020-05-21T15:25:32.000Z</time>
      </trkpt>
      <trkpt lat="47.14948" lon="4.92604">
        <ele>357</ele>
        <time>2020-05-21T15:25:34.000Z</time>
      </trkpt>
      <trkpt lat="47.14948" lon="4.92607">
        <ele>357</ele>
        <time>2020-05-21T15:25:36.000Z</time>
      </trkpt>
      <trkpt lat="47.14948" lon="4.92611">
        <ele>357</ele>
        <time>2020-05-21T15:25:38.000Z</time>
      </trkpt>
      <trkpt lat="47.14949" lon="4.92614">
        <ele>357</ele>
        <time>2020-05-21T15:25:40.000Z</time>
      </trkpt>
      <trkpt lat="47.14949" lon="4.92618">
        <ele>357</ele>
        <time>2020-05-21T15:25:42.000Z</time>
      </trkpt>
      <trkpt lat="47.1495" lon="4.92621">
        <ele>357</ele>
        <time>2020-05-21T15:25:44.000Z</time>
      </trkpt>
      <trkpt lat="47.14951" lon="4.92623">
        <ele>357</ele>
        <time>2020-05-21T15:25:46.000Z</time>
      </trkpt>
      <trkpt lat="47.14952" lon="4.92627">
        <ele>357</ele>
        <time>2020-05-21T15:25:48.000Z</time>
      </trkpt>
      <trkpt lat="47.14952" lon="4.9263">
        <ele>357</ele>
        <time>2020-05-21T15:25:50.000Z</time>
      </trkpt>
      <trkpt lat="47.14953" lon="4.92633">
        <ele>357</ele>
        <time>2020-05-21T15:25:52.000Z</time>
      </trkpt>
      <trkpt lat="47.14953" lon="4.92637">
        <ele>357</ele>
        <time>2020-05-21T15:25:54.000Z</time>
      </trkpt>
      <trkpt lat="47.14954" lon="4.9264">
        <ele>357</ele>
        <time>2020-05-21T15:25:56.000Z</time>
      </trkpt>
      <trkpt lat="47.14955" lon="4.92643">
        <ele>357</ele>
        <time>2020-05-21T15:25:58.000Z</time>
      </trkpt>
      <trkpt lat="47.14956" lon="4.92646">
        <ele>357</ele>
        <time>2020-05-21T15:26:00.000Z</time>
      </trkpt>
      <trkpt lat="47.14956" lon="4.9265">
        <ele>357</ele>
        <time>2020-05-21T15:26:02.000Z</time>
      </trkpt>
      <trkpt lat="47.14957" lon="4.92653">
        <ele>357</ele>
        <time>2020-05-21T15:26:04.000Z</time>
      </trkpt>
      <trkpt lat="47.14958" lon="4.92656">
        <ele>357</ele>
        <time>2020-05-21T15:26:06.000Z</time>
      </trkpt>
      <trkpt lat="47.14959" lon="4.92659">
        <ele>357</ele>
        <time>2020-05-21T15:26:08.000Z</time>
      </trkpt>
      <trkpt lat="47.14959" lon="4.92662">
        <ele>357</ele>
        <time>2020-05-21T15:26:10.000Z</time>
      </trkpt>
      <trkpt lat="47.1496" lon="4.92665">
        <ele>357</ele>
        <time>2020-05-21T15:26:12.000Z</time>
      </trkpt>
      <trkpt lat="47.1496" lon="4.92668">
        <ele>357</ele>
        <time>2020-05-21T15:26:14.000Z</time>
      </trkpt>
      <trkpt lat="47.14961" lon="4.92671">
        <ele>357</ele>
        <time>2020-05-21T15:26:16.000Z</time>
      </trkpt>
      <trkpt lat="47.14962" lon="4.92673">
        <ele>357</ele>
        <time>2020-05-21T15:26:18.000Z</time>
      </trkpt>
      <trkpt lat="47.14963" lon="4.92676">
        <ele>357</ele>
        <time>2020-05-21T15:26:20.000Z</time>
      </trkpt>
      <trkpt lat="47.14963" lon="4.9268">
        <ele>357</ele>
        <time>2020-05-21T15:26:22.000Z</time>
      </trkpt>
      <trkpt lat="47.14964" lon="4.92683">
        <ele>357</ele>
        <time>2020-05-21T15:26:24.000Z</time>
      </trkpt>
      <trkpt lat="47.14965" lon="4.92685">
        <ele>357.10599936</ele>
        <time>2020-05-21T15:26:26.000Z</time>
      </trkpt>
      <trkpt lat="47.14966" lon="4.92688">
        <ele>357.30599936</ele>
        <time>2020-05-21T15:26:28.000Z</time>
      </trkpt>
      <trkpt lat="47.14967" lon="4.92692">
        <ele>357.50599936</ele>
        <time>2020-05-21T15:26:30.000Z</time>
      </trkpt>
      <trkpt lat="47.14969" lon="4.92695">
        <ele>357.70599936</ele>
        <time>2020-05-21T15:26:32.000Z</time>
      </trkpt>
      <trkpt lat="47.1497" lon="4.92697">
        <ele>357.90599936</ele>
        <time>2020-05-21T15:26:34.000Z</time>
      </trkpt>
      <trkpt lat="47.14971" lon="4.927">
        <ele>358</ele>
        <time>2020-05-21T15:26:37.000Z</time>
      </trkpt>
      <trkpt lat="47.14972" lon="4.92704">
        <ele>358</ele>
        <time>2020-05-21T15:26:39.000Z</time>
      </trkpt>
      <trkpt lat="47.14972" lon="4.92708">
        <ele>358</ele>
        <time>2020-05-21T15:26:41.000Z</time>
      </trkpt>
      <trkpt lat="47.14973" lon="4.92711">
        <ele>358</ele>
        <time>2020-05-21T15:26:43.000Z</time>
      </trkpt>
      <trkpt lat="47.14974" lon="4.92714">
        <ele>358.00599936</ele>
        <time>2020-05-21T15:26:45.000Z</time>
      </trkpt>
      <trkpt lat="47.14975" lon="4.92717">
        <ele>358.20599936</ele>
        <time>2020-05-21T15:26:47.000Z</time>
      </trkpt>
      <trkpt lat="47.14976" lon="4.92721">
        <ele>358.40599936</ele>
        <time>2020-05-21T15:26:49.000Z</time>
      </trkpt>
      <trkpt lat="47.14977" lon="4.92725">
        <ele>358.60599936</ele>
        <time>2020-05-21T15:26:51.000Z</time>
      </trkpt>
      <trkpt lat="47.14978" lon="4.92728">
        <ele>358.80599936</ele>
        <time>2020-05-21T15:26:53.000Z</time>
      </trkpt>
      <trkpt lat="47.14979" lon="4.92731">
        <ele>359</ele>
        <time>2020-05-21T15:26:55.000Z</time>
      </trkpt>
      <trkpt lat="47.1498" lon="4.92734">
        <ele>359</ele>
        <time>2020-05-21T15:26:57.000Z</time>
      </trkpt>
      <trkpt lat="47.1498" lon="4.92737">
        <ele>359</ele>
        <time>2020-05-21T15:26:59.000Z</time>
      </trkpt>
      <trkpt lat="47.14981" lon="4.92741">
        <ele>359</ele>
        <time>2020-05-21T15:27:01.000Z</time>
      </trkpt>
      <trkpt lat="47.14982" lon="4.92745">
        <ele>359</ele>
        <time>2020-05-21T15:27:03.000Z</time>
      </trkpt>
      <trkpt lat="47.14983" lon="4.92748">
        <ele>359</ele>
        <time>2020-05-21T15:27:05.000Z</time>
      </trkpt>
      <trkpt lat="47.14984" lon="4.92751">
        <ele>359</ele>
        <time>2020-05-21T15:27:07.000Z</time>
      </trkpt>
      <trkpt lat="47.14985" lon="4.92754">
        <ele>359</ele>
        <time>2020-05-21T15:27:09.000Z</time>
      </trkpt>
      <trkpt lat="47.14986" lon="4.92758">
        <ele>359</ele>
        <time>2020-05-21T15:27:11.000Z</time>
      </trkpt>
      <trkpt lat="47.14987" lon="4.9276">
        <ele>359</ele>
        <time>2020-05-21T15:27:13.000Z</time>
      </trkpt>
      <trkpt lat="47.14988" lon="4.92764">
        <ele>359</ele>
        <time>2020-05-21T15:27:15.000Z</time>
      </trkpt>
      <trkpt lat="47.14988" lon="4.92767">
        <ele>359</ele>
        <time>2020-05-21T15:27:17.000Z</time>
      </trkpt>
      <trkpt lat="47.14989" lon="4.92769">
        <ele>359</ele>
        <time>2020-05-21T15:27:19.000Z</time>
      </trkpt>
      <trkpt lat="47.14991" lon="4.92773">
        <ele>359</ele>
        <time>2020-05-21T15:27:21.000Z</time>
      </trkpt>
      <trkpt lat="47.14992" lon="4.92776">
        <ele>359</ele>
        <time>2020-05-21T15:27:23.000Z</time>
      </trkpt>
      <trkpt lat="47.14992" lon="4.92779">
        <ele>359</ele>
        <time>2020-05-21T15:27:25.000Z</time>
      </trkpt>
      <trkpt lat="47.14993" lon="4.92782">
        <ele>359</ele>
        <time>2020-05-21T15:27:27.000Z</time>
      </trkpt>
      <trkpt lat="47.14994" lon="4.92785">
        <ele>359</ele>
        <time>2020-05-21T15:27:29.000Z</time>
      </trkpt>
      <trkpt lat="47.14995" lon="4.92788">
        <ele>359</ele>
        <time>2020-05-21T15:27:31.000Z</time>
      </trkpt>
      <trkpt lat="47.14996" lon="4.92792">
        <ele>359</ele>
        <time>2020-05-21T15:27:33.000Z</time>
      </trkpt>
      <trkpt lat="47.14996" lon="4.92796">
        <ele>359</ele>
        <time>2020-05-21T15:27:35.000Z</time>
      </trkpt>
      <trkpt lat="47.14997" lon="4.92799">
        <ele>359</ele>
        <time>2020-05-21T15:27:37.000Z</time>
      </trkpt>
      <trkpt lat="47.14998" lon="4.92802">
        <ele>359</ele>
        <time>2020-05-21T15:27:39.000Z</time>
      </trkpt>
      <trkpt lat="47.14999" lon="4.92805">
        <ele>359</ele>
        <time>2020-05-21T15:27:41.000Z</time>
      </trkpt>
      <trkpt lat="47.15" lon="4.92809">
        <ele>359</ele>
        <time>2020-05-21T15:27:43.000Z</time>
      </trkpt>
      <trkpt lat="47.15" lon="4.92812">
        <ele>359.01199872</ele>
        <time>2020-05-21T15:27:45.000Z</time>
      </trkpt>
      <trkpt lat="47.15002" lon="4.92815">
        <ele>359.41199872</ele>
        <time>2020-05-21T15:27:47.000Z</time>
      </trkpt>
      <trkpt lat="47.15002" lon="4.92818">
        <ele>359.81199872</ele>
        <time>2020-05-21T15:27:49.000Z</time>
      </trkpt>
      <trkpt lat="47.15003" lon="4.92822">
        <ele>360.21199872</ele>
        <time>2020-05-21T15:27:51.000Z</time>
      </trkpt>
      <trkpt lat="47.15004" lon="4.92826">
        <ele>360.61199872</ele>
        <time>2020-05-21T15:27:53.000Z</time>
      </trkpt>
      <trkpt lat="47.15005" lon="4.92829">
        <ele>360.99400064</ele>
        <time>2020-05-21T15:27:55.000Z</time>
      </trkpt>
      <trkpt lat="47.15006" lon="4.92832">
        <ele>360.79400064</ele>
        <time>2020-05-21T15:27:57.000Z</time>
      </trkpt>
      <trkpt lat="47.15007" lon="4.92835">
        <ele>360.59400064</ele>
        <time>2020-05-21T15:27:59.000Z</time>
      </trkpt>
      <trkpt lat="47.15008" lon="4.92839">
        <ele>360.39400064</ele>
        <time>2020-05-21T15:28:01.000Z</time>
      </trkpt>
      <trkpt lat="47.15009" lon="4.92842">
        <ele>360.19400064</ele>
        <time>2020-05-21T15:28:03.000Z</time>
      </trkpt>
      <trkpt lat="47.1501" lon="4.92844">
        <ele>360.00599936</ele>
        <time>2020-05-21T15:28:05.000Z</time>
      </trkpt>
      <trkpt lat="47.15011" lon="4.92847">
        <ele>360.20599936</ele>
        <time>2020-05-21T15:28:07.000Z</time>
      </trkpt>
      <trkpt lat="47.15012" lon="4.9285">
        <ele>360.40599936</ele>
        <time>2020-05-21T15:28:09.000Z</time>
      </trkpt>
      <trkpt lat="47.15013" lon="4.92854">
        <ele>360.60599936</ele>
        <time>2020-05-21T15:28:11.000Z</time>
      </trkpt>
      <trkpt lat="47.15014" lon="4.92857">
        <ele>360.80599936</ele>
        <time>2020-05-21T15:28:13.000Z</time>
      </trkpt>
      <trkpt lat="47.15015" lon="4.9286">
        <ele>361</ele>
        <time>2020-05-21T15:28:15.000Z</time>
      </trkpt>
      <trkpt lat="47.15016" lon="4.92863">
        <ele>361</ele>
        <time>2020-05-21T15:28:17.000Z</time>
      </trkpt>
      <trkpt lat="47.15017" lon="4.92866">
        <ele>361</ele>
        <time>2020-05-21T15:28:19.000Z</time>
      </trkpt>
      <trkpt lat="47.15018" lon="4.92869">
        <ele>361</ele>
        <time>2020-05-21T15:28:21.000Z</time>
      </trkpt>
      <trkpt lat="47.1502" lon="4.92871">
        <ele>361</ele>
        <time>2020-05-21T15:28:23.000Z</time>
      </trkpt>
      <trkpt lat="47.15021" lon="4.92874">
        <ele>361</ele>
        <time>2020-05-21T15:28:25.000Z</time>
      </trkpt>
      <trkpt lat="47.15022" lon="4.92876">
        <ele>361</ele>
        <time>2020-05-21T15:28:27.000Z</time>
      </trkpt>
      <trkpt lat="47.15023" lon="4.92879">
        <ele>361</ele>
        <time>2020-05-21T15:28:29.000Z</time>
      </trkpt>
      <trkpt lat="47.15024" lon="4.92882">
        <ele>361</ele>
        <time>2020-05-21T15:28:31.000Z</time>
      </trkpt>
      <trkpt lat="47.15025" lon="4.92885">
        <ele>361</ele>
        <time>2020-05-21T15:28:33.000Z</time>
      </trkpt>
      <trkpt lat="47.15024" lon="4.92888">
        <ele>361</ele>
        <time>2020-05-21T15:28:36.000Z</time>
      </trkpt>
      <trkpt lat="47.15023" lon="4.92891">
        <ele>361</ele>
        <time>2020-05-21T15:28:38.000Z</time>
      </trkpt>
      <trkpt lat="47.15023" lon="4.92894">
        <ele>361</ele>
        <time>2020-05-21T15:28:40.000Z</time>
      </trkpt>
      <trkpt lat="47.15022" lon="4.92897">
        <ele>361</ele>
        <time>2020-05-21T15:28:42.000Z</time>
      </trkpt>
      <trkpt lat="47.15022" lon="4.929">
        <ele>361</ele>
        <time>2020-05-21T15:28:44.000Z</time>
      </trkpt>
      <trkpt lat="47.15021" lon="4.92903">
        <ele>360.89463277591</ele>
        <time>2020-05-21T15:28:46.000Z</time>
      </trkpt>
      <trkpt lat="47.1502" lon="4.92905">
        <ele>360.69582549237</ele>
        <time>2020-05-21T15:28:48.000Z</time>
      </trkpt>
      <trkpt lat="47.15019" lon="4.92907">
        <ele>360.49701820884</ele>
        <time>2020-05-21T15:28:50.000Z</time>
      </trkpt>
      <trkpt lat="47.15017" lon="4.92909">
        <ele>360.19880728354</ele>
        <time>2020-05-21T15:28:53.000Z</time>
      </trkpt>
      <trkpt lat="47.15015" lon="4.92912">
        <ele>360</ele>
        <time>2020-05-21T15:28:55.000Z</time>
      </trkpt>
      <trkpt lat="47.15014" lon="4.92914">
        <ele>359.4140625</ele>
        <time>2020-05-21T15:28:57.000Z</time>
      </trkpt>
      <trkpt lat="47.15013" lon="4.92918">
        <ele>358.828125</ele>
        <time>2020-05-21T15:28:59.000Z</time>
      </trkpt>
      <trkpt lat="47.15012" lon="4.9292">
        <ele>358.2421875</ele>
        <time>2020-05-21T15:29:01.000Z</time>
      </trkpt>
      <trkpt lat="47.15011" lon="4.92923">
        <ele>357.65625</ele>
        <time>2020-05-21T15:29:03.000Z</time>
      </trkpt>
      <trkpt lat="47.15011" lon="4.92926">
        <ele>357.0703125</ele>
        <time>2020-05-21T15:29:05.000Z</time>
      </trkpt>
      <trkpt lat="47.15011" lon="4.9293">
        <ele>357</ele>
        <time>2020-05-21T15:29:07.000Z</time>
      </trkpt>
      <trkpt lat="47.15009" lon="4.92933">
        <ele>357</ele>
        <time>2020-05-21T15:29:10.000Z</time>
      </trkpt>
      <trkpt lat="47.15008" lon="4.92935">
        <ele>357</ele>
        <time>2020-05-21T15:29:12.000Z</time>
      </trkpt>
      <trkpt lat="47.15007" lon="4.92938">
        <ele>356.98200192</ele>
        <time>2020-05-21T15:29:15.000Z</time>
      </trkpt>
      <trkpt lat="47.15006" lon="4.9294">
        <ele>356.38200192</ele>
        <time>2020-05-21T15:29:17.000Z</time>
      </trkpt>
      <trkpt lat="47.15004" lon="4.92942">
        <ele>355.78200192</ele>
        <time>2020-05-21T15:29:19.000Z</time>
      </trkpt>
      <trkpt lat="47.15003" lon="4.92944">
        <ele>355.18200192</ele>
        <time>2020-05-21T15:29:21.000Z</time>
      </trkpt>
      <trkpt lat="47.15002" lon="4.92946">
        <ele>354.58200192</ele>
        <time>2020-05-21T15:29:23.000Z</time>
      </trkpt>
      <trkpt lat="47.15" lon="4.92948">
        <ele>353.98800128</ele>
        <time>2020-05-21T15:29:25.000Z</time>
      </trkpt>
      <trkpt lat="47.14999" lon="4.9295">
        <ele>353.58800128</ele>
        <time>2020-05-21T15:29:27.000Z</time>
      </trkpt>
      <trkpt lat="47.14997" lon="4.92952">
        <ele>353.18800128</ele>
        <time>2020-05-21T15:29:29.000Z</time>
      </trkpt>
      <trkpt lat="47.14996" lon="4.92955">
        <ele>352.78800128</ele>
        <time>2020-05-21T15:29:31.000Z</time>
      </trkpt>
      <trkpt lat="47.14994" lon="4.92957">
        <ele>352.38800128</ele>
        <time>2020-05-21T15:29:33.000Z</time>
      </trkpt>
      <trkpt lat="47.14992" lon="4.92959">
        <ele>351.78800128</ele>
        <time>2020-05-21T15:29:36.000Z</time>
      </trkpt>
      <trkpt lat="47.1499" lon="4.92962">
        <ele>351.18800128</ele>
        <time>2020-05-21T15:29:39.000Z</time>
      </trkpt>
      <trkpt lat="47.14989" lon="4.92964">
        <ele>350.78800128</ele>
        <time>2020-05-21T15:29:41.000Z</time>
      </trkpt>
      <trkpt lat="47.14987" lon="4.92966">
        <ele>350.38800128</ele>
        <time>2020-05-21T15:29:43.000Z</time>
      </trkpt>
      <trkpt lat="47.14986" lon="4.92968">
        <ele>349.98800128</ele>
        <time>2020-05-21T15:29:45.000Z</time>
      </trkpt>
      <trkpt lat="47.14985" lon="4.92971">
        <ele>349.58800128</ele>
        <time>2020-05-21T15:29:47.000Z</time>
      </trkpt>
      <trkpt lat="47.14984" lon="4.92975">
        <ele>348.98800128</ele>
        <time>2020-05-21T15:29:50.000Z</time>
      </trkpt>
      <trkpt lat="47.14981" lon="4.92976">
        <ele>348.38800128</ele>
        <time>2020-05-21T15:29:53.000Z</time>
      </trkpt>
      <trkpt lat="47.14979" lon="4.92978">
        <ele>347.78800128</ele>
        <time>2020-05-21T15:29:56.000Z</time>
      </trkpt>
      <trkpt lat="47.14978" lon="4.92981">
        <ele>347.18800128</ele>
        <time>2020-05-21T15:29:59.000Z</time>
      </trkpt>
      <trkpt lat="47.14977" lon="4.92984">
        <ele>346.58800128</ele>
        <time>2020-05-21T15:30:02.000Z</time>
      </trkpt>
      <trkpt lat="47.14977" lon="4.92985">
        <ele>346.38800128</ele>
        <time>2020-05-21T15:30:03.000Z</time>
      </trkpt>
      <trkpt lat="47.14976" lon="4.92987">
        <ele>345.99400064</ele>
        <time>2020-05-21T15:30:05.000Z</time>
      </trkpt>
      <trkpt lat="47.14975" lon="4.9299">
        <ele>345.79400064</ele>
        <time>2020-05-21T15:30:07.000Z</time>
      </trkpt>
      <trkpt lat="47.14974" lon="4.92993">
        <ele>345.49400064</ele>
        <time>2020-05-21T15:30:10.000Z</time>
      </trkpt>
      <trkpt lat="47.14972" lon="4.92995">
        <ele>345.29400064</ele>
        <time>2020-05-21T15:30:12.000Z</time>
      </trkpt>
      <trkpt lat="47.14971" lon="4.92998">
        <ele>345.09400064</ele>
        <time>2020-05-21T15:30:14.000Z</time>
      </trkpt>
      <trkpt lat="47.14969" lon="4.93">
        <ele>344.78800128</ele>
        <time>2020-05-21T15:30:16.000Z</time>
      </trkpt>
      <trkpt lat="47.14967" lon="4.93002">
        <ele>344.38800128</ele>
        <time>2020-05-21T15:30:18.000Z</time>
      </trkpt>
      <trkpt lat="47.14965" lon="4.93004">
        <ele>343.98800128</ele>
        <time>2020-05-21T15:30:20.000Z</time>
      </trkpt>
      <trkpt lat="47.14964" lon="4.93006">
        <ele>343.58800128</ele>
        <time>2020-05-21T15:30:22.000Z</time>
      </trkpt>
      <trkpt lat="47.14963" lon="4.93007">
        <ele>343.38800128</ele>
        <time>2020-05-21T15:30:23.000Z</time>
      </trkpt>
      <trkpt lat="47.14962" lon="4.93009">
        <ele>342.98800128</ele>
        <time>2020-05-21T15:30:25.000Z</time>
      </trkpt>
      <trkpt lat="47.14961" lon="4.93011">
        <ele>342.58800128</ele>
        <time>2020-05-21T15:30:27.000Z</time>
      </trkpt>
      <trkpt lat="47.14959" lon="4.93014">
        <ele>341.98800128</ele>
        <time>2020-05-21T15:30:30.000Z</time>
      </trkpt>
      <trkpt lat="47.14958" lon="4.93017">
        <ele>341.58800128</ele>
        <time>2020-05-21T15:30:32.000Z</time>
      </trkpt>
      <trkpt lat="47.14957" lon="4.93018">
        <ele>341.38800128</ele>
        <time>2020-05-21T15:30:33.000Z</time>
      </trkpt>
      <trkpt lat="47.14956" lon="4.93021">
        <ele>340.98800128</ele>
        <time>2020-05-21T15:30:35.000Z</time>
      </trkpt>
      <trkpt lat="47.14955" lon="4.93024">
        <ele>340.58800128</ele>
        <time>2020-05-21T15:30:37.000Z</time>
      </trkpt>
      <trkpt lat="47.14954" lon="4.93027">
        <ele>340.18800128</ele>
        <time>2020-05-21T15:30:39.000Z</time>
      </trkpt>
      <trkpt lat="47.14953" lon="4.93029">
        <ele>339.78800128</ele>
        <time>2020-05-21T15:30:41.000Z</time>
      </trkpt>
      <trkpt lat="47.14952" lon="4.93032">
        <ele>339.38800128</ele>
        <time>2020-05-21T15:30:43.000Z</time>
      </trkpt>
      <trkpt lat="47.14951" lon="4.93033">
        <ele>338.98800128</ele>
        <time>2020-05-21T15:30:45.000Z</time>
      </trkpt>
      <trkpt lat="47.1495" lon="4.93036">
        <ele>338.58800128</ele>
        <time>2020-05-21T15:30:47.000Z</time>
      </trkpt>
      <trkpt lat="47.14948" lon="4.93038">
        <ele>338.18800128</ele>
        <time>2020-05-21T15:30:49.000Z</time>
      </trkpt>
      <trkpt lat="47.14948" lon="4.93041">
        <ele>337.78800128</ele>
        <time>2020-05-21T15:30:51.000Z</time>
      </trkpt>
      <trkpt lat="47.14946" lon="4.93044">
        <ele>337.18800128</ele>
        <time>2020-05-21T15:30:54.000Z</time>
      </trkpt>
      <trkpt lat="47.14945" lon="4.93045">
        <ele>336.68200192</ele>
        <time>2020-05-21T15:30:56.000Z</time>
      </trkpt>
      <trkpt lat="47.14943" lon="4.93047">
        <ele>336.08200192</ele>
        <time>2020-05-21T15:30:58.000Z</time>
      </trkpt>
      <trkpt lat="47.14942" lon="4.93049">
        <ele>335.48200192</ele>
        <time>2020-05-21T15:31:00.000Z</time>
      </trkpt>
      <trkpt lat="47.14941" lon="4.93051">
        <ele>334.88200192</ele>
        <time>2020-05-21T15:31:02.000Z</time>
      </trkpt>
      <trkpt lat="47.14941" lon="4.93052">
        <ele>334.58200192</ele>
        <time>2020-05-21T15:31:03.000Z</time>
      </trkpt>
      <trkpt lat="47.14939" lon="4.93056">
        <ele>333.89400064</ele>
        <time>2020-05-21T15:31:06.000Z</time>
      </trkpt>
      <trkpt lat="47.14938" lon="4.93058">
        <ele>333.69400064</ele>
        <time>2020-05-21T15:31:08.000Z</time>
      </trkpt>
      <trkpt lat="47.14939" lon="4.93061">
        <ele>333.39400064</ele>
        <time>2020-05-21T15:31:11.000Z</time>
      </trkpt>
      <trkpt lat="47.1494" lon="4.93064">
        <ele>333.09400064</ele>
        <time>2020-05-21T15:31:14.000Z</time>
      </trkpt>
      <trkpt lat="47.1494" lon="4.93068">
        <ele>332.79400064</ele>
        <time>2020-05-21T15:31:17.000Z</time>
      </trkpt>
      <trkpt lat="47.14939" lon="4.93071">
        <ele>332.59400064</ele>
        <time>2020-05-21T15:31:19.000Z</time>
      </trkpt>
      <trkpt lat="47.14938" lon="4.93076">
        <ele>332.39400064</ele>
        <time>2020-05-21T15:31:21.000Z</time>
      </trkpt>
      <trkpt lat="47.14937" lon="4.9308">
        <ele>332.19400064</ele>
        <time>2020-05-21T15:31:23.000Z</time>
      </trkpt>
      <trkpt lat="47.14936" lon="4.93083">
        <ele>331.98800128</ele>
        <time>2020-05-21T15:31:25.000Z</time>
      </trkpt>
      <trkpt lat="47.14935" lon="4.93086">
        <ele>331.58800128</ele>
        <time>2020-05-21T15:31:27.000Z</time>
      </trkpt>
      <trkpt lat="47.14935" lon="4.9309">
        <ele>331.18800128</ele>
        <time>2020-05-21T15:31:29.000Z</time>
      </trkpt>
      <trkpt lat="47.14934" lon="4.93093">
        <ele>330.78800128</ele>
        <time>2020-05-21T15:31:31.000Z</time>
      </trkpt>
      <trkpt lat="47.14933" lon="4.93097">
        <ele>330.38800128</ele>
        <time>2020-05-21T15:31:33.000Z</time>
      </trkpt>
      <trkpt lat="47.14933" lon="4.931">
        <ele>329.98840702306</ele>
        <time>2020-05-21T15:31:35.000Z</time>
      </trkpt>
      <trkpt lat="47.14932" lon="4.93103">
        <ele>329.60193323464</ele>
        <time>2020-05-21T15:31:37.000Z</time>
      </trkpt>
      <trkpt lat="47.14931" lon="4.93105">
        <ele>329.21545944622</ele>
        <time>2020-05-21T15:31:39.000Z</time>
      </trkpt>
      <trkpt lat="47.1493" lon="4.93108">
        <ele>328.8289856578</ele>
        <time>2020-05-21T15:31:41.000Z</time>
      </trkpt>
      <trkpt lat="47.14928" lon="4.93109">
        <ele>328.44251186938</ele>
        <time>2020-05-21T15:31:43.000Z</time>
      </trkpt>
      <trkpt lat="47.14927" lon="4.93112">
        <ele>328.05603808096</ele>
        <time>2020-05-21T15:31:45.000Z</time>
      </trkpt>
      <trkpt lat="47.14926" lon="4.93114">
        <ele>327.82279777214</ele>
        <time>2020-05-21T15:31:47.000Z</time>
      </trkpt>
      <trkpt lat="47.14925" lon="4.93117">
        <ele>327.61554409231</ele>
        <time>2020-05-21T15:31:49.000Z</time>
      </trkpt>
      <trkpt lat="47.14925" lon="4.93121">
        <ele>327.40829041248</ele>
        <time>2020-05-21T15:31:51.000Z</time>
      </trkpt>
      <trkpt lat="47.14925" lon="4.93123">
        <ele>327.20103673265</ele>
        <time>2020-05-21T15:31:53.000Z</time>
      </trkpt>
      <trkpt lat="47.14924" lon="4.93127">
        <ele>326.98218010752</ele>
        <time>2020-05-21T15:31:55.000Z</time>
      </trkpt>
      <trkpt lat="47.14924" lon="4.9313">
        <ele>326.38812032515</ele>
        <time>2020-05-21T15:31:57.000Z</time>
      </trkpt>
      <trkpt lat="47.14923" lon="4.93133">
        <ele>325.79406054277</ele>
        <time>2020-05-21T15:31:59.000Z</time>
      </trkpt>
      <trkpt lat="47.14923" lon="4.93136">
        <ele>325.2000007604</ele>
        <time>2020-05-21T15:32:01.000Z</time>
      </trkpt>
      <trkpt lat="47.14923" lon="4.93139">
        <ele>324.60594097802</ele>
        <time>2020-05-21T15:32:03.000Z</time>
      </trkpt>
      <trkpt lat="47.14923" lon="4.93143">
        <ele>324.01188119565</ele>
        <time>2020-05-21T15:32:05.000Z</time>
      </trkpt>
      <trkpt lat="47.14922" lon="4.93146">
        <ele>323.80202033001</ele>
        <time>2020-05-21T15:32:07.000Z</time>
      </trkpt>
      <trkpt lat="47.14922" lon="4.9315">
        <ele>323.60000025859</ele>
        <time>2020-05-21T15:32:09.000Z</time>
      </trkpt>
      <trkpt lat="47.14922" lon="4.93153">
        <ele>323.39798018716</ele>
        <time>2020-05-21T15:32:11.000Z</time>
      </trkpt>
      <trkpt lat="47.14922" lon="4.93156">
        <ele>323.19596011574</ele>
        <time>2020-05-21T15:32:13.000Z</time>
      </trkpt>
      <trkpt lat="47.14922" lon="4.9316">
        <ele>322.89494609156</ele>
        <time>2020-05-21T15:32:16.000Z</time>
      </trkpt>
      <trkpt lat="47.14921" lon="4.93163">
        <ele>322.69672997319</ele>
        <time>2020-05-21T15:32:18.000Z</time>
      </trkpt>
      <trkpt lat="47.1492" lon="4.93166">
        <ele>322.49851385483</ele>
        <time>2020-05-21T15:32:20.000Z</time>
      </trkpt>
      <trkpt lat="47.14919" lon="4.9317">
        <ele>322.20118967729</ele>
        <time>2020-05-21T15:32:23.000Z</time>
      </trkpt>
      <trkpt lat="47.14918" lon="4.93172">
        <ele>322.00297355892</ele>
        <time>2020-05-21T15:32:25.000Z</time>
      </trkpt>
      <trkpt lat="47.14916" lon="4.93174">
        <ele>321.80260540448</ele>
        <time>2020-05-21T15:32:27.000Z</time>
      </trkpt>
      <trkpt lat="47.14915" lon="4.93178">
        <ele>321.5020040093</ele>
        <time>2020-05-21T15:32:30.000Z</time>
      </trkpt>
      <trkpt lat="47.14915" lon="4.93181">
        <ele>321.30160307918</ele>
        <time>2020-05-21T15:32:32.000Z</time>
      </trkpt>
      <trkpt lat="47.14915" lon="4.93182">
        <ele>321.20140261413</ele>
        <time>2020-05-21T15:32:33.000Z</time>
      </trkpt>
      <trkpt lat="47.14915" lon="4.93186">
        <ele>320.80060377786</ele>
        <time>2020-05-21T15:32:36.000Z</time>
      </trkpt>
      <trkpt lat="47.14914" lon="4.93188">
        <ele>320.39778442913</ele>
        <time>2020-05-21T15:32:38.000Z</time>
      </trkpt>
      <trkpt lat="47.14912" lon="4.93191">
        <ele>319.79355540603</ele>
        <time>2020-05-21T15:32:41.000Z</time>
      </trkpt>
      <trkpt lat="47.1491" lon="4.93192">
        <ele>319.39073605729</ele>
        <time>2020-05-21T15:32:43.000Z</time>
      </trkpt>
      <trkpt lat="47.14908" lon="4.93193">
        <ele>318.68200192</ele>
        <time>2020-05-21T15:32:46.000Z</time>
      </trkpt>
      <trkpt lat="47.14906" lon="4.93194">
        <ele>318.08200192</ele>
        <time>2020-05-21T15:32:48.000Z</time>
      </trkpt>
      <trkpt lat="47.14904" lon="4.93194">
        <ele>317.48200192</ele>
        <time>2020-05-21T15:32:50.000Z</time>
      </trkpt>
      <trkpt lat="47.14901" lon="4.93194">
        <ele>316.58200192</ele>
        <time>2020-05-21T15:32:53.000Z</time>
      </trkpt>
      <trkpt lat="47.149" lon="4.93195">
        <ele>315.97600256</ele>
        <time>2020-05-21T15:32:55.000Z</time>
      </trkpt>
      <trkpt lat="47.14898" lon="4.93197">
        <ele>315.17600256</ele>
        <time>2020-05-21T15:32:57.000Z</time>
      </trkpt>
      <trkpt lat="47.14897" lon="4.93197">
        <ele>314.77600256</ele>
        <time>2020-05-21T15:32:58.000Z</time>
      </trkpt>
      <trkpt lat="47.14895" lon="4.93198">
        <ele>313.57600256</ele>
        <time>2020-05-21T15:33:01.000Z</time>
      </trkpt>
      <trkpt lat="47.14893" lon="4.932">
        <ele>312.77600256</ele>
        <time>2020-05-21T15:33:03.000Z</time>
      </trkpt>
      <trkpt lat="47.14892" lon="4.93202">
        <ele>311.99400064</ele>
        <time>2020-05-21T15:33:05.000Z</time>
      </trkpt>
      <trkpt lat="47.1489" lon="4.93204">
        <ele>311.79400064</ele>
        <time>2020-05-21T15:33:07.000Z</time>
      </trkpt>
      <trkpt lat="47.14889" lon="4.93207">
        <ele>311.59400064</ele>
        <time>2020-05-21T15:33:09.000Z</time>
      </trkpt>
      <trkpt lat="47.14888" lon="4.93209">
        <ele>311.39400064</ele>
        <time>2020-05-21T15:33:11.000Z</time>
      </trkpt>
      <trkpt lat="47.14886" lon="4.93211">
        <ele>311.19400064</ele>
        <time>2020-05-21T15:33:13.000Z</time>
      </trkpt>
      <trkpt lat="47.14885" lon="4.93213">
        <ele>310.98800128</ele>
        <time>2020-05-21T15:33:15.000Z</time>
      </trkpt>
      <trkpt lat="47.14884" lon="4.93216">
        <ele>310.58800128</ele>
        <time>2020-05-21T15:33:17.000Z</time>
      </trkpt>
      <trkpt lat="47.14883" lon="4.93218">
        <ele>310.18800128</ele>
        <time>2020-05-21T15:33:19.000Z</time>
      </trkpt>
      <trkpt lat="47.14881" lon="4.9322">
        <ele>309.78800128</ele>
        <time>2020-05-21T15:33:21.000Z</time>
      </trkpt>
      <trkpt lat="47.1488" lon="4.93223">
        <ele>309.38800128</ele>
        <time>2020-05-21T15:33:23.000Z</time>
      </trkpt>
      <trkpt lat="47.1488" lon="4.93226">
        <ele>308.98200192</ele>
        <time>2020-05-21T15:33:25.000Z</time>
      </trkpt>
      <trkpt lat="47.14879" lon="4.93229">
        <ele>308.38200192</ele>
        <time>2020-05-21T15:33:27.000Z</time>
      </trkpt>
      <trkpt lat="47.14879" lon="4.93233">
        <ele>307.78200192</ele>
        <time>2020-05-21T15:33:29.000Z</time>
      </trkpt>
      <trkpt lat="47.14879" lon="4.93236">
        <ele>307.18200192</ele>
        <time>2020-05-21T15:33:31.000Z</time>
      </trkpt>
      <trkpt lat="47.14879" lon="4.93239">
        <ele>306.58200192</ele>
        <time>2020-05-21T15:33:33.000Z</time>
      </trkpt>
      <trkpt lat="47.14878" lon="4.93242">
        <ele>305.98800128</ele>
        <time>2020-05-21T15:33:35.000Z</time>
      </trkpt>
      <trkpt lat="47.14877" lon="4.93246">
        <ele>305.58800128</ele>
        <time>2020-05-21T15:33:37.000Z</time>
      </trkpt>
      <trkpt lat="47.14877" lon="4.93248">
        <ele>305.18800128</ele>
        <time>2020-05-21T15:33:39.000Z</time>
      </trkpt>
      <trkpt lat="47.14876" lon="4.93253">
        <ele>304.58800128</ele>
        <time>2020-05-21T15:33:42.000Z</time>
      </trkpt>
      <trkpt lat="47.14875" lon="4.93255">
        <ele>304.18800128</ele>
        <time>2020-05-21T15:33:44.000Z</time>
      </trkpt>
      <trkpt lat="47.14874" lon="4.93259">
        <ele>303.58800128</ele>
        <time>2020-05-21T15:33:47.000Z</time>
      </trkpt>
      <trkpt lat="47.14873" lon="4.93261">
        <ele>302.78800128</ele>
        <time>2020-05-21T15:33:51.000Z</time>
      </trkpt>
      <trkpt lat="47.14872" lon="4.93262">
        <ele>302.38800128</ele>
        <time>2020-05-21T15:33:53.000Z</time>
      </trkpt>
      <trkpt lat="47.1487" lon="4.93264">
        <ele>301.9700032</ele>
        <time>2020-05-21T15:33:55.000Z</time>
      </trkpt>
      <trkpt lat="47.14868" lon="4.93267">
        <ele>300.4700032</ele>
        <time>2020-05-21T15:33:58.000Z</time>
      </trkpt>
      <trkpt lat="47.14867" lon="4.9327">
        <ele>299.4700032</ele>
        <time>2020-05-21T15:34:00.000Z</time>
      </trkpt>
      <trkpt lat="47.14867" lon="4.93273">
        <ele>298.4700032</ele>
        <time>2020-05-21T15:34:02.000Z</time>
      </trkpt>
      <trkpt lat="47.14867" lon="4.93275">
        <ele>297.4700032</ele>
        <time>2020-05-21T15:34:04.000Z</time>
      </trkpt>
      <trkpt lat="47.14867" lon="4.93278">
        <ele>297</ele>
        <time>2020-05-21T15:34:06.000Z</time>
      </trkpt>
      <trkpt lat="47.14867" lon="4.93281">
        <ele>297</ele>
        <time>2020-05-21T15:34:08.000Z</time>
      </trkpt>
      <trkpt lat="47.14867" lon="4.93284">
        <ele>297</ele>
        <time>2020-05-21T15:34:10.000Z</time>
      </trkpt>
      <trkpt lat="47.14867" lon="4.93287">
        <ele>297</ele>
        <time>2020-05-21T15:34:12.000Z</time>
      </trkpt>
      <trkpt lat="47.14867" lon="4.9329">
        <ele>296.99400064</ele>
        <time>2020-05-21T15:34:15.000Z</time>
      </trkpt>
      <trkpt lat="47.14866" lon="4.93293">
        <ele>296.49400064</ele>
        <time>2020-05-21T15:34:20.000Z</time>
      </trkpt>
      <trkpt lat="47.14866" lon="4.93296">
        <ele>296.09400064</ele>
        <time>2020-05-21T15:34:24.000Z</time>
      </trkpt>
      <trkpt lat="47.14866" lon="4.933">
        <ele>295.38200192</ele>
        <time>2020-05-21T15:34:27.000Z</time>
      </trkpt>
      <trkpt lat="47.14866" lon="4.93304">
        <ele>294.48200192</ele>
        <time>2020-05-21T15:34:30.000Z</time>
      </trkpt>
      <trkpt lat="47.14866" lon="4.93306">
        <ele>293.88200192</ele>
        <time>2020-05-21T15:34:32.000Z</time>
      </trkpt>
      <trkpt lat="47.14865" lon="4.93308">
        <ele>293.58200192</ele>
        <time>2020-05-21T15:34:33.000Z</time>
      </trkpt>
      <trkpt lat="47.14865" lon="4.93311">
        <ele>292.58800128</ele>
        <time>2020-05-21T15:34:37.000Z</time>
      </trkpt>
      <trkpt lat="47.14864" lon="4.93312">
        <ele>292.38800128</ele>
        <time>2020-05-21T15:34:38.000Z</time>
      </trkpt>
      <trkpt lat="47.14861" lon="4.93313">
        <ele>291.98800128</ele>
        <time>2020-05-21T15:34:40.000Z</time>
      </trkpt>
      <trkpt lat="47.14861" lon="4.93315">
        <ele>290.70262443619</ele>
        <time>2020-05-21T15:34:48.000Z</time>
      </trkpt>
      <trkpt lat="47.1486" lon="4.93318">
        <ele>289.19979462005</ele>
        <time>2020-05-21T15:35:03.000Z</time>
      </trkpt>
      <trkpt lat="47.14858" lon="4.9332">
        <ele>289</ele>
        <time>2020-05-21T15:35:05.000Z</time>
      </trkpt>
      <trkpt lat="47.14856" lon="4.93322">
        <ele>289</ele>
        <time>2020-05-21T15:35:07.000Z</time>
      </trkpt>
      <trkpt lat="47.14854" lon="4.93325">
        <ele>289</ele>
        <time>2020-05-21T15:35:10.000Z</time>
      </trkpt>
      <trkpt lat="47.14853" lon="4.93328">
        <ele>289</ele>
        <time>2020-05-21T15:35:12.000Z</time>
      </trkpt>
      <trkpt lat="47.14851" lon="4.93331">
        <ele>289</ele>
        <time>2020-05-21T15:35:14.000Z</time>
      </trkpt>
      <trkpt lat="47.14849" lon="4.93334">
        <ele>289</ele>
        <time>2020-05-21T15:35:16.000Z</time>
      </trkpt>
      <trkpt lat="47.14848" lon="4.93337">
        <ele>289</ele>
        <time>2020-05-21T15:35:18.000Z</time>
      </trkpt>
      <trkpt lat="47.14846" lon="4.93339">
        <ele>289</ele>
        <time>2020-05-21T15:35:20.000Z</time>
      </trkpt>
      <trkpt lat="47.14844" lon="4.93341">
        <ele>289</ele>
        <time>2020-05-21T15:35:22.000Z</time>
      </trkpt>
      <trkpt lat="47.14843" lon="4.93343">
        <ele>289</ele>
        <time>2020-05-21T15:35:24.000Z</time>
      </trkpt>
      <trkpt lat="47.14841" lon="4.93345">
        <ele>288.79158329999</ele>
        <time>2020-05-21T15:35:26.000Z</time>
      </trkpt>
      <trkpt lat="47.14839" lon="4.93348">
        <ele>288.39078195381</ele>
        <time>2020-05-21T15:35:28.000Z</time>
      </trkpt>
      <trkpt lat="47.14838" lon="4.93349">
        <ele>287.98998060763</ele>
        <time>2020-05-21T15:35:30.000Z</time>
      </trkpt>
      <trkpt lat="47.14836" lon="4.93349">
        <ele>287.38877858836</ele>
        <time>2020-05-21T15:35:33.000Z</time>
      </trkpt>
      <trkpt lat="47.14836" lon="4.93345">
        <ele>286.78800128</ele>
        <time>2020-05-21T15:35:36.000Z</time>
      </trkpt>
      <trkpt lat="47.14836" lon="4.93342">
        <ele>286.38800128</ele>
        <time>2020-05-21T15:35:38.000Z</time>
      </trkpt>
      <trkpt lat="47.14837" lon="4.93339">
        <ele>285.98800128</ele>
        <time>2020-05-21T15:35:40.000Z</time>
      </trkpt>
      <trkpt lat="47.14837" lon="4.93335">
        <ele>285.58800128</ele>
        <time>2020-05-21T15:35:42.000Z</time>
      </trkpt>
      <trkpt lat="47.14837" lon="4.93334">
        <ele>285.38800128</ele>
        <time>2020-05-21T15:35:43.000Z</time>
      </trkpt>
      <trkpt lat="47.14836" lon="4.93331">
        <ele>284.99400064</ele>
        <time>2020-05-21T15:35:45.000Z</time>
      </trkpt>
      <trkpt lat="47.14835" lon="4.93328">
        <ele>284.79400064</ele>
        <time>2020-05-21T15:35:47.000Z</time>
      </trkpt>
      <trkpt lat="47.14834" lon="4.93326">
        <ele>284.59400064</ele>
        <time>2020-05-21T15:35:49.000Z</time>
      </trkpt>
      <trkpt lat="47.14833" lon="4.93324">
        <ele>284.39400064</ele>
        <time>2020-05-21T15:35:51.000Z</time>
      </trkpt>
      <trkpt lat="47.14831" lon="4.93323">
        <ele>284.19400064</ele>
        <time>2020-05-21T15:35:53.000Z</time>
      </trkpt>
      <trkpt lat="47.14828" lon="4.93321">
        <ele>283.98200192</ele>
        <time>2020-05-21T15:35:55.000Z</time>
      </trkpt>
      <trkpt lat="47.14826" lon="4.9332">
        <ele>283.38200192</ele>
        <time>2020-05-21T15:35:57.000Z</time>
      </trkpt>
      <trkpt lat="47.14823" lon="4.93319">
        <ele>282.78200192</ele>
        <time>2020-05-21T15:35:59.000Z</time>
      </trkpt>
      <trkpt lat="47.1482" lon="4.9332">
        <ele>282.18200192</ele>
        <time>2020-05-21T15:36:01.000Z</time>
      </trkpt>
      <trkpt lat="47.14818" lon="4.93321">
        <ele>281.58200192</ele>
        <time>2020-05-21T15:36:03.000Z</time>
      </trkpt>
      <trkpt lat="47.14816" lon="4.93322">
        <ele>280.99400064</ele>
        <time>2020-05-21T15:36:05.000Z</time>
      </trkpt>
      <trkpt lat="47.14814" lon="4.93323">
        <ele>280.69400064</ele>
        <time>2020-05-21T15:36:08.000Z</time>
      </trkpt>
      <trkpt lat="47.14812" lon="4.93323">
        <ele>280.49400064</ele>
        <time>2020-05-21T15:36:10.000Z</time>
      </trkpt>
      <trkpt lat="47.14811" lon="4.93325">
        <ele>280.29400064</ele>
        <time>2020-05-21T15:36:12.000Z</time>
      </trkpt>
      <trkpt lat="47.14809" lon="4.93326">
        <ele>280.09400064</ele>
        <time>2020-05-21T15:36:14.000Z</time>
      </trkpt>
      <trkpt lat="47.14807" lon="4.93328">
        <ele>279.89400064</ele>
        <time>2020-05-21T15:36:16.000Z</time>
      </trkpt>
      <trkpt lat="47.14805" lon="4.93329">
        <ele>279.69400064</ele>
        <time>2020-05-21T15:36:18.000Z</time>
      </trkpt>
      <trkpt lat="47.14803" lon="4.93331">
        <ele>279.39400064</ele>
        <time>2020-05-21T15:36:21.000Z</time>
      </trkpt>
      <trkpt lat="47.14802" lon="4.93332">
        <ele>279.19400064</ele>
        <time>2020-05-21T15:36:23.000Z</time>
      </trkpt>
      <trkpt lat="47.148" lon="4.93335">
        <ele>278.98835075004</ele>
        <time>2020-05-21T15:36:25.000Z</time>
      </trkpt>
      <trkpt lat="47.14797" lon="4.93337">
        <ele>278.60000099417</ele>
        <time>2020-05-21T15:36:27.000Z</time>
      </trkpt>
      <trkpt lat="47.14795" lon="4.93339">
        <ele>278.21165123831</ele>
        <time>2020-05-21T15:36:29.000Z</time>
      </trkpt>
      <trkpt lat="47.14793" lon="4.9334">
        <ele>277.82330148244</ele>
        <time>2020-05-21T15:36:31.000Z</time>
      </trkpt>
      <trkpt lat="47.14792" lon="4.93341">
        <ele>277.43495172657</ele>
        <time>2020-05-21T15:36:33.000Z</time>
      </trkpt>
      <trkpt lat="47.14789" lon="4.93341">
        <ele>276.22474277955</ele>
        <time>2020-05-21T15:36:39.000Z</time>
      </trkpt>
      <trkpt lat="47.14787" lon="4.93341">
        <ele>275.60618648664</ele>
        <time>2020-05-21T15:36:42.000Z</time>
      </trkpt>
      <trkpt lat="47.14785" lon="4.93339">
        <ele>274.99414696403</ele>
        <time>2020-05-21T15:36:45.000Z</time>
      </trkpt>
      <trkpt lat="47.14784" lon="4.93336">
        <ele>274.79902495189</ele>
        <time>2020-05-21T15:36:47.000Z</time>
      </trkpt>
      <trkpt lat="47.14782" lon="4.93335">
        <ele>274.60390293976</ele>
        <time>2020-05-21T15:36:49.000Z</time>
      </trkpt>
      <trkpt lat="47.1478" lon="4.93334">
        <ele>274.40878092762</ele>
        <time>2020-05-21T15:36:51.000Z</time>
      </trkpt>
      <trkpt lat="47.14778" lon="4.93333">
        <ele>274.21365891548</ele>
        <time>2020-05-21T15:36:53.000Z</time>
      </trkpt>
      <trkpt lat="47.14775" lon="4.93331">
        <ele>274.01853690335</ele>
        <time>2020-05-21T15:36:55.000Z</time>
      </trkpt>
      <trkpt lat="47.14774" lon="4.9333">
        <ele>273.44307809048</ele>
        <time>2020-05-21T15:36:57.000Z</time>
      </trkpt>
      <trkpt lat="47.14772" lon="4.93327">
        <ele>272.82769367706</ele>
        <time>2020-05-21T15:36:59.000Z</time>
      </trkpt>
      <trkpt lat="47.1477" lon="4.93324">
        <ele>272.21230926365</ele>
        <time>2020-05-21T15:37:01.000Z</time>
      </trkpt>
      <trkpt lat="47.14769" lon="4.93322">
        <ele>271.59692485024</ele>
        <time>2020-05-21T15:37:03.000Z</time>
      </trkpt>
      <trkpt lat="47.1477" lon="4.93319">
        <ele>271.21178700077</ele>
        <time>2020-05-21T15:37:06.000Z</time>
      </trkpt>
      <trkpt lat="47.14771" lon="4.93316">
        <ele>271.61138752812</ele>
        <time>2020-05-21T15:37:08.000Z</time>
      </trkpt>
      <trkpt lat="47.14772" lon="4.93314">
        <ele>272.21078831913</ele>
        <time>2020-05-21T15:37:11.000Z</time>
      </trkpt>
      <trkpt lat="47.14772" lon="4.93314">
        <ele>273</ele>
        <time>2020-05-21T15:37:20.000Z</time>
      </trkpt>
    </trkseg>
  </trk>
</gpx>